<?xml version="1.0" encoding="UTF-8" standalone="no" ?>
<gpx xmlns="http://www.topografix.com/GPX/1/1" xmlns:xsi="http://www.w3.org/2001/XMLSchema-instance" xsi:schemaLocation="http://www.topografix.com/GPX/1/1 http://www.topografix.com/GPX/1/1/gpx.xsd" version="1.1" creator="VisuGPX - https://www.visugpx.com">
  <metadata>
    <name>Défi 2024</name>
  </metadata>
  <trk>
    <name><![CDATA[Etape 2: Monts d'Aubrac - Riom-ès-Montagnes]]></name>
    <extensions>
      <line xmlns="http://www.topografix.com/GPX/gpx_style/0/2">
        <color>0000FF</color>
        <width>4</width>
          <extensions>
            <sens>1</sens>
          </extensions>
      </line>
    </extensions>
    <trkseg>
      <trkpt lat="44.55918" lon="3.12585">
        <ele>1344.1999511719</ele>
        <time>2024-01-30T14:48:23.000Z</time>
        <extensions>
          <gpxtpx:TrackPointExtension xmlns:gpxtpx="http://www.garmin.com/xmlschemas/TrackPointExtension/v1">
            <gpxtpx:hr>74</gpxtpx:hr>
          </gpxtpx:TrackPointExtension>
        </extensions>
      </trkpt>
      <trkpt lat="44.55918" lon="3.12585">
        <ele>1344.1999511719</ele>
        <time>2024-01-30T14:48:24.000Z</time>
        <extensions>
          <gpxtpx:TrackPointExtension xmlns:gpxtpx="http://www.garmin.com/xmlschemas/TrackPointExtension/v1">
            <gpxtpx:hr>71</gpxtpx:hr>
          </gpxtpx:TrackPointExtension>
        </extensions>
      </trkpt>
      <trkpt lat="44.55918" lon="3.12585">
        <ele>1344.1999511719</ele>
        <time>2024-01-30T14:48:36.000Z</time>
      </trkpt>
      <trkpt lat="44.55924" lon="3.12589">
        <ele>1344.4000244141</ele>
        <time>2024-01-30T14:48:39.000Z</time>
      </trkpt>
      <trkpt lat="44.55942" lon="3.12595">
        <ele>1344.4000244141</ele>
        <time>2024-01-30T14:48:45.000Z</time>
      </trkpt>
      <trkpt lat="44.55974" lon="3.12594">
        <ele>1344.5999755859</ele>
        <time>2024-01-30T14:48:50.000Z</time>
      </trkpt>
      <trkpt lat="44.56012" lon="3.12592">
        <ele>1344.5999755859</ele>
        <time>2024-01-30T14:48:54.000Z</time>
      </trkpt>
      <trkpt lat="44.56068" lon="3.12584">
        <ele>1344</ele>
        <time>2024-01-30T14:48:59.000Z</time>
      </trkpt>
      <trkpt lat="44.56131" lon="3.12572">
        <ele>1343.1999511719</ele>
        <time>2024-01-30T14:49:04.000Z</time>
      </trkpt>
      <trkpt lat="44.56143" lon="3.12569">
        <ele>1343</ele>
        <time>2024-01-30T14:49:05.000Z</time>
      </trkpt>
      <trkpt lat="44.56193" lon="3.12547">
        <ele>1342.5999755859</ele>
        <time>2024-01-30T14:49:09.000Z</time>
      </trkpt>
      <trkpt lat="44.56218" lon="3.12545">
        <ele>1342</ele>
        <time>2024-01-30T14:49:11.000Z</time>
      </trkpt>
      <trkpt lat="44.56229" lon="3.1255">
        <ele>1341.8000488281</ele>
        <time>2024-01-30T14:49:12.000Z</time>
      </trkpt>
      <trkpt lat="44.56238" lon="3.12557">
        <ele>1341.4000244141</ele>
        <time>2024-01-30T14:49:13.000Z</time>
      </trkpt>
      <trkpt lat="44.56242" lon="3.12568">
        <ele>1341.1999511719</ele>
        <time>2024-01-30T14:49:14.000Z</time>
      </trkpt>
      <trkpt lat="44.56245" lon="3.12584">
        <ele>1341</ele>
        <time>2024-01-30T14:49:15.000Z</time>
      </trkpt>
      <trkpt lat="44.56247" lon="3.12598">
        <ele>1340.8000488281</ele>
        <time>2024-01-30T14:49:16.000Z</time>
      </trkpt>
      <trkpt lat="44.56248" lon="3.12609">
        <ele>1340.5999755859</ele>
        <time>2024-01-30T14:49:17.000Z</time>
      </trkpt>
      <trkpt lat="44.56252" lon="3.1262">
        <ele>1340.4000244141</ele>
        <time>2024-01-30T14:49:18.000Z</time>
      </trkpt>
      <trkpt lat="44.56257" lon="3.12629">
        <ele>1340.1999511719</ele>
        <time>2024-01-30T14:49:19.000Z</time>
      </trkpt>
      <trkpt lat="44.56271" lon="3.12636">
        <ele>1339.5999755859</ele>
        <time>2024-01-30T14:49:21.000Z</time>
      </trkpt>
      <trkpt lat="44.56288" lon="3.12634">
        <ele>1339.1999511719</ele>
        <time>2024-01-30T14:49:23.000Z</time>
      </trkpt>
      <trkpt lat="44.56296" lon="3.12629">
        <ele>1339</ele>
        <time>2024-01-30T14:49:24.000Z</time>
      </trkpt>
      <trkpt lat="44.56305" lon="3.12623">
        <ele>1339.1999511719</ele>
        <time>2024-01-30T14:49:25.000Z</time>
      </trkpt>
      <trkpt lat="44.56317" lon="3.12607">
        <ele>1339.1999511719</ele>
        <time>2024-01-30T14:49:27.000Z</time>
      </trkpt>
      <trkpt lat="44.56329" lon="3.12586">
        <ele>1339.5999755859</ele>
        <time>2024-01-30T14:49:29.000Z</time>
      </trkpt>
      <trkpt lat="44.56341" lon="3.12568">
        <ele>1340.1999511719</ele>
        <time>2024-01-30T14:49:31.000Z</time>
      </trkpt>
      <trkpt lat="44.56378" lon="3.12532">
        <ele>1340.5999755859</ele>
        <time>2024-01-30T14:49:35.000Z</time>
      </trkpt>
      <trkpt lat="44.56389" lon="3.12527">
        <ele>1340.5999755859</ele>
        <time>2024-01-30T14:49:36.000Z</time>
      </trkpt>
      <trkpt lat="44.56412" lon="3.12519">
        <ele>1341</ele>
        <time>2024-01-30T14:49:38.000Z</time>
      </trkpt>
      <trkpt lat="44.56461" lon="3.12511">
        <ele>1341.5999755859</ele>
        <time>2024-01-30T14:49:42.000Z</time>
      </trkpt>
      <trkpt lat="44.56486" lon="3.125">
        <ele>1341.8000488281</ele>
        <time>2024-01-30T14:49:44.000Z</time>
      </trkpt>
      <trkpt lat="44.5651" lon="3.12484">
        <ele>1342</ele>
        <time>2024-01-30T14:49:46.000Z</time>
        <extensions>
          <gpxtpx:TrackPointExtension xmlns:gpxtpx="http://www.garmin.com/xmlschemas/TrackPointExtension/v1">
            <gpxtpx:hr>70</gpxtpx:hr>
          </gpxtpx:TrackPointExtension>
        </extensions>
      </trkpt>
      <trkpt lat="44.56556" lon="3.12454">
        <ele>1342.1999511719</ele>
        <time>2024-01-30T14:49:50.000Z</time>
        <extensions>
          <gpxtpx:TrackPointExtension xmlns:gpxtpx="http://www.garmin.com/xmlschemas/TrackPointExtension/v1">
            <gpxtpx:hr>72</gpxtpx:hr>
          </gpxtpx:TrackPointExtension>
        </extensions>
      </trkpt>
      <trkpt lat="44.56568" lon="3.1245">
        <ele>1342.8000488281</ele>
        <time>2024-01-30T14:49:51.000Z</time>
        <extensions>
          <gpxtpx:TrackPointExtension xmlns:gpxtpx="http://www.garmin.com/xmlschemas/TrackPointExtension/v1">
            <gpxtpx:hr>72</gpxtpx:hr>
          </gpxtpx:TrackPointExtension>
        </extensions>
      </trkpt>
      <trkpt lat="44.5658" lon="3.12451">
        <ele>1343</ele>
        <time>2024-01-30T14:49:52.000Z</time>
        <extensions>
          <gpxtpx:TrackPointExtension xmlns:gpxtpx="http://www.garmin.com/xmlschemas/TrackPointExtension/v1">
            <gpxtpx:hr>73</gpxtpx:hr>
          </gpxtpx:TrackPointExtension>
        </extensions>
      </trkpt>
      <trkpt lat="44.56594" lon="3.12452">
        <ele>1343.1999511719</ele>
        <time>2024-01-30T14:49:53.000Z</time>
        <extensions>
          <gpxtpx:TrackPointExtension xmlns:gpxtpx="http://www.garmin.com/xmlschemas/TrackPointExtension/v1">
            <gpxtpx:hr>72</gpxtpx:hr>
          </gpxtpx:TrackPointExtension>
        </extensions>
      </trkpt>
      <trkpt lat="44.56635" lon="3.1245">
        <ele>1343.5999755859</ele>
        <time>2024-01-30T14:49:56.000Z</time>
        <extensions>
          <gpxtpx:TrackPointExtension xmlns:gpxtpx="http://www.garmin.com/xmlschemas/TrackPointExtension/v1">
            <gpxtpx:hr>72</gpxtpx:hr>
          </gpxtpx:TrackPointExtension>
        </extensions>
      </trkpt>
      <trkpt lat="44.56649" lon="3.12446">
        <ele>1343.8000488281</ele>
        <time>2024-01-30T14:49:57.000Z</time>
        <extensions>
          <gpxtpx:TrackPointExtension xmlns:gpxtpx="http://www.garmin.com/xmlschemas/TrackPointExtension/v1">
            <gpxtpx:hr>72</gpxtpx:hr>
          </gpxtpx:TrackPointExtension>
        </extensions>
      </trkpt>
      <trkpt lat="44.56664" lon="3.12442">
        <ele>1344</ele>
        <time>2024-01-30T14:49:58.000Z</time>
        <extensions>
          <gpxtpx:TrackPointExtension xmlns:gpxtpx="http://www.garmin.com/xmlschemas/TrackPointExtension/v1">
            <gpxtpx:hr>76</gpxtpx:hr>
          </gpxtpx:TrackPointExtension>
        </extensions>
      </trkpt>
      <trkpt lat="44.56678" lon="3.12435">
        <ele>1344</ele>
        <time>2024-01-30T14:49:59.000Z</time>
        <extensions>
          <gpxtpx:TrackPointExtension xmlns:gpxtpx="http://www.garmin.com/xmlschemas/TrackPointExtension/v1">
            <gpxtpx:hr>73</gpxtpx:hr>
          </gpxtpx:TrackPointExtension>
        </extensions>
      </trkpt>
      <trkpt lat="44.56692" lon="3.12428">
        <ele>1344.1999511719</ele>
        <time>2024-01-30T14:50:00.000Z</time>
        <extensions>
          <gpxtpx:TrackPointExtension xmlns:gpxtpx="http://www.garmin.com/xmlschemas/TrackPointExtension/v1">
            <gpxtpx:hr>73</gpxtpx:hr>
          </gpxtpx:TrackPointExtension>
        </extensions>
      </trkpt>
      <trkpt lat="44.5672" lon="3.12413">
        <ele>1345</ele>
        <time>2024-01-30T14:50:02.000Z</time>
        <extensions>
          <gpxtpx:TrackPointExtension xmlns:gpxtpx="http://www.garmin.com/xmlschemas/TrackPointExtension/v1">
            <gpxtpx:hr>71</gpxtpx:hr>
          </gpxtpx:TrackPointExtension>
        </extensions>
      </trkpt>
      <trkpt lat="44.56752" lon="3.12401">
        <ele>1345.4000244141</ele>
        <time>2024-01-30T14:50:04.000Z</time>
        <extensions>
          <gpxtpx:TrackPointExtension xmlns:gpxtpx="http://www.garmin.com/xmlschemas/TrackPointExtension/v1">
            <gpxtpx:hr>71</gpxtpx:hr>
          </gpxtpx:TrackPointExtension>
        </extensions>
      </trkpt>
      <trkpt lat="44.56785" lon="3.1239">
        <ele>1345.8000488281</ele>
        <time>2024-01-30T14:50:06.000Z</time>
        <extensions>
          <gpxtpx:TrackPointExtension xmlns:gpxtpx="http://www.garmin.com/xmlschemas/TrackPointExtension/v1">
            <gpxtpx:hr>74</gpxtpx:hr>
          </gpxtpx:TrackPointExtension>
        </extensions>
      </trkpt>
      <trkpt lat="44.56817" lon="3.12379">
        <ele>1346.1999511719</ele>
        <time>2024-01-30T14:50:08.000Z</time>
        <extensions>
          <gpxtpx:TrackPointExtension xmlns:gpxtpx="http://www.garmin.com/xmlschemas/TrackPointExtension/v1">
            <gpxtpx:hr>75</gpxtpx:hr>
          </gpxtpx:TrackPointExtension>
        </extensions>
      </trkpt>
      <trkpt lat="44.5688" lon="3.12356">
        <ele>1346.8000488281</ele>
        <time>2024-01-30T14:50:12.000Z</time>
      </trkpt>
      <trkpt lat="44.56896" lon="3.12351">
        <ele>1347.4000244141</ele>
        <time>2024-01-30T14:50:13.000Z</time>
      </trkpt>
      <trkpt lat="44.56964" lon="3.12338">
        <ele>1348.1999511719</ele>
        <time>2024-01-30T14:50:17.000Z</time>
      </trkpt>
      <trkpt lat="44.56981" lon="3.12337">
        <ele>1348.4000244141</ele>
        <time>2024-01-30T14:50:18.000Z</time>
      </trkpt>
      <trkpt lat="44.57045" lon="3.12331">
        <ele>1348.5999755859</ele>
        <time>2024-01-30T14:50:22.000Z</time>
      </trkpt>
      <trkpt lat="44.57061" lon="3.12328">
        <ele>1348.4000244141</ele>
        <time>2024-01-30T14:50:23.000Z</time>
      </trkpt>
      <trkpt lat="44.57075" lon="3.12323">
        <ele>1348.4000244141</ele>
        <time>2024-01-30T14:50:24.000Z</time>
      </trkpt>
      <trkpt lat="44.57099" lon="3.12305">
        <ele>1348</ele>
        <time>2024-01-30T14:50:26.000Z</time>
      </trkpt>
      <trkpt lat="44.57128" lon="3.12268">
        <ele>1347.4000244141</ele>
        <time>2024-01-30T14:50:29.000Z</time>
      </trkpt>
      <trkpt lat="44.57136" lon="3.12255">
        <ele>1346.8000488281</ele>
        <time>2024-01-30T14:50:30.000Z</time>
      </trkpt>
      <trkpt lat="44.57143" lon="3.12243">
        <ele>1346.4000244141</ele>
        <time>2024-01-30T14:50:31.000Z</time>
      </trkpt>
      <trkpt lat="44.57149" lon="3.1223">
        <ele>1345.8000488281</ele>
        <time>2024-01-30T14:50:32.000Z</time>
      </trkpt>
      <trkpt lat="44.57154" lon="3.12217">
        <ele>1345.4000244141</ele>
        <time>2024-01-30T14:50:33.000Z</time>
      </trkpt>
      <trkpt lat="44.57159" lon="3.12204">
        <ele>1345.1999511719</ele>
        <time>2024-01-30T14:50:34.000Z</time>
      </trkpt>
      <trkpt lat="44.57171" lon="3.12179">
        <ele>1344.8000488281</ele>
        <time>2024-01-30T14:50:36.000Z</time>
      </trkpt>
      <trkpt lat="44.57184" lon="3.12152">
        <ele>1343.8000488281</ele>
        <time>2024-01-30T14:50:38.000Z</time>
      </trkpt>
      <trkpt lat="44.5719" lon="3.12136">
        <ele>1343.1999511719</ele>
        <time>2024-01-30T14:50:39.000Z</time>
      </trkpt>
      <trkpt lat="44.57195" lon="3.1212">
        <ele>1342.4000244141</ele>
        <time>2024-01-30T14:50:40.000Z</time>
      </trkpt>
      <trkpt lat="44.57198" lon="3.12084">
        <ele>1340.5999755859</ele>
        <time>2024-01-30T14:50:42.000Z</time>
      </trkpt>
      <trkpt lat="44.57199" lon="3.12066">
        <ele>1340.4000244141</ele>
        <time>2024-01-30T14:50:43.000Z</time>
      </trkpt>
      <trkpt lat="44.57198" lon="3.12048">
        <ele>1339.4000244141</ele>
        <time>2024-01-30T14:50:44.000Z</time>
      </trkpt>
      <trkpt lat="44.5719" lon="3.11996">
        <ele>1338</ele>
        <time>2024-01-30T14:50:47.000Z</time>
      </trkpt>
      <trkpt lat="44.57185" lon="3.11961">
        <ele>1335.8000488281</ele>
        <time>2024-01-30T14:50:49.000Z</time>
      </trkpt>
      <trkpt lat="44.57179" lon="3.11908">
        <ele>1334.5999755859</ele>
        <time>2024-01-30T14:50:52.000Z</time>
      </trkpt>
      <trkpt lat="44.57175" lon="3.11873">
        <ele>1333.4000244141</ele>
        <time>2024-01-30T14:50:54.000Z</time>
      </trkpt>
      <trkpt lat="44.57172" lon="3.11855">
        <ele>1332.8000488281</ele>
        <time>2024-01-30T14:50:55.000Z</time>
      </trkpt>
      <trkpt lat="44.57167" lon="3.11838">
        <ele>1332</ele>
        <time>2024-01-30T14:50:56.000Z</time>
      </trkpt>
      <trkpt lat="44.57156" lon="3.11807">
        <ele>1331</ele>
        <time>2024-01-30T14:50:58.000Z</time>
      </trkpt>
      <trkpt lat="44.5715" lon="3.11793">
        <ele>1331</ele>
        <time>2024-01-30T14:50:59.000Z</time>
      </trkpt>
      <trkpt lat="44.57139" lon="3.11765">
        <ele>1330.4000244141</ele>
        <time>2024-01-30T14:51:01.000Z</time>
      </trkpt>
      <trkpt lat="44.57138" lon="3.11751">
        <ele>1330</ele>
        <time>2024-01-30T14:51:02.000Z</time>
      </trkpt>
      <trkpt lat="44.57139" lon="3.11739">
        <ele>1329.5999755859</ele>
        <time>2024-01-30T14:51:03.000Z</time>
      </trkpt>
      <trkpt lat="44.57143" lon="3.1173">
        <ele>1329.5999755859</ele>
        <time>2024-01-30T14:51:04.000Z</time>
      </trkpt>
      <trkpt lat="44.57149" lon="3.11723">
        <ele>1329.5999755859</ele>
        <time>2024-01-30T14:51:05.000Z</time>
      </trkpt>
      <trkpt lat="44.57157" lon="3.11717">
        <ele>1329.5999755859</ele>
        <time>2024-01-30T14:51:06.000Z</time>
      </trkpt>
      <trkpt lat="44.57187" lon="3.11696">
        <ele>1330.1999511719</ele>
        <time>2024-01-30T14:51:09.000Z</time>
      </trkpt>
      <trkpt lat="44.57233" lon="3.1166">
        <ele>1330.8000488281</ele>
        <time>2024-01-30T14:51:13.000Z</time>
      </trkpt>
      <trkpt lat="44.57283" lon="3.11622">
        <ele>1331.5999755859</ele>
        <time>2024-01-30T14:51:17.000Z</time>
      </trkpt>
      <trkpt lat="44.57295" lon="3.11613">
        <ele>1331.5999755859</ele>
        <time>2024-01-30T14:51:18.000Z</time>
      </trkpt>
      <trkpt lat="44.57323" lon="3.11599">
        <ele>1331.8000488281</ele>
        <time>2024-01-30T14:51:20.000Z</time>
      </trkpt>
      <trkpt lat="44.5735" lon="3.11589">
        <ele>1331.8000488281</ele>
        <time>2024-01-30T14:51:22.000Z</time>
      </trkpt>
      <trkpt lat="44.57375" lon="3.11577">
        <ele>1332</ele>
        <time>2024-01-30T14:51:24.000Z</time>
      </trkpt>
      <trkpt lat="44.57386" lon="3.11568">
        <ele>1332</ele>
        <time>2024-01-30T14:51:25.000Z</time>
      </trkpt>
      <trkpt lat="44.57419" lon="3.11538">
        <ele>1332.4000244141</ele>
        <time>2024-01-30T14:51:28.000Z</time>
      </trkpt>
      <trkpt lat="44.57431" lon="3.11531">
        <ele>1332.4000244141</ele>
        <time>2024-01-30T14:51:29.000Z</time>
      </trkpt>
      <trkpt lat="44.57466" lon="3.11518">
        <ele>1332.8000488281</ele>
        <time>2024-01-30T14:51:32.000Z</time>
      </trkpt>
      <trkpt lat="44.57476" lon="3.11513">
        <ele>1332.8000488281</ele>
        <time>2024-01-30T14:51:33.000Z</time>
      </trkpt>
      <trkpt lat="44.57494" lon="3.11496">
        <ele>1333</ele>
        <time>2024-01-30T14:51:35.000Z</time>
      </trkpt>
      <trkpt lat="44.57501" lon="3.11485">
        <ele>1333.1999511719</ele>
        <time>2024-01-30T14:51:36.000Z</time>
      </trkpt>
      <trkpt lat="44.57532" lon="3.11429">
        <ele>1333.8000488281</ele>
        <time>2024-01-30T14:51:40.000Z</time>
      </trkpt>
      <trkpt lat="44.5755" lon="3.11403">
        <ele>1334</ele>
        <time>2024-01-30T14:51:42.000Z</time>
      </trkpt>
      <trkpt lat="44.57559" lon="3.11392">
        <ele>1334</ele>
        <time>2024-01-30T14:51:43.000Z</time>
      </trkpt>
      <trkpt lat="44.57581" lon="3.11373">
        <ele>1334.1999511719</ele>
        <time>2024-01-30T14:51:45.000Z</time>
      </trkpt>
      <trkpt lat="44.57593" lon="3.11366">
        <ele>1334.4000244141</ele>
        <time>2024-01-30T14:51:46.000Z</time>
      </trkpt>
      <trkpt lat="44.57606" lon="3.11364">
        <ele>1334.4000244141</ele>
        <time>2024-01-30T14:51:47.000Z</time>
      </trkpt>
      <trkpt lat="44.5762" lon="3.11363">
        <ele>1334.4000244141</ele>
        <time>2024-01-30T14:51:48.000Z</time>
      </trkpt>
      <trkpt lat="44.57633" lon="3.11366">
        <ele>1334.4000244141</ele>
        <time>2024-01-30T14:51:49.000Z</time>
      </trkpt>
      <trkpt lat="44.57645" lon="3.11372">
        <ele>1334.5999755859</ele>
        <time>2024-01-30T14:51:50.000Z</time>
      </trkpt>
      <trkpt lat="44.57655" lon="3.11381">
        <ele>1334.5999755859</ele>
        <time>2024-01-30T14:51:51.000Z</time>
      </trkpt>
      <trkpt lat="44.57673" lon="3.11402">
        <ele>1334.8000488281</ele>
        <time>2024-01-30T14:51:53.000Z</time>
      </trkpt>
      <trkpt lat="44.5768" lon="3.1141">
        <ele>1335</ele>
        <time>2024-01-30T14:51:54.000Z</time>
      </trkpt>
      <trkpt lat="44.5771" lon="3.1144">
        <ele>1335.1999511719</ele>
        <time>2024-01-30T14:51:57.000Z</time>
      </trkpt>
      <trkpt lat="44.57721" lon="3.11446">
        <ele>1335.4000244141</ele>
        <time>2024-01-30T14:51:58.000Z</time>
      </trkpt>
      <trkpt lat="44.5777" lon="3.1146">
        <ele>1335.4000244141</ele>
        <time>2024-01-30T14:52:02.000Z</time>
      </trkpt>
      <trkpt lat="44.57824" lon="3.11469">
        <ele>1334.8000488281</ele>
        <time>2024-01-30T14:52:06.000Z</time>
      </trkpt>
      <trkpt lat="44.5785" lon="3.11472">
        <ele>1333.8000488281</ele>
        <time>2024-01-30T14:52:08.000Z</time>
      </trkpt>
      <trkpt lat="44.57875" lon="3.11469">
        <ele>1332.8000488281</ele>
        <time>2024-01-30T14:52:10.000Z</time>
      </trkpt>
      <trkpt lat="44.57887" lon="3.11465">
        <ele>1332.1999511719</ele>
        <time>2024-01-30T14:52:11.000Z</time>
      </trkpt>
      <trkpt lat="44.57899" lon="3.1146">
        <ele>1331.5999755859</ele>
        <time>2024-01-30T14:52:12.000Z</time>
      </trkpt>
      <trkpt lat="44.5792" lon="3.11445">
        <ele>1331</ele>
        <time>2024-01-30T14:52:14.000Z</time>
      </trkpt>
      <trkpt lat="44.5793" lon="3.11436">
        <ele>1330.8000488281</ele>
        <time>2024-01-30T14:52:15.000Z</time>
      </trkpt>
      <trkpt lat="44.57948" lon="3.11413">
        <ele>1329.8000488281</ele>
        <time>2024-01-30T14:52:17.000Z</time>
      </trkpt>
      <trkpt lat="44.57972" lon="3.11373">
        <ele>1329</ele>
        <time>2024-01-30T14:52:20.000Z</time>
      </trkpt>
      <trkpt lat="44.57979" lon="3.11359">
        <ele>1328.8000488281</ele>
        <time>2024-01-30T14:52:21.000Z</time>
      </trkpt>
      <trkpt lat="44.57982" lon="3.11343">
        <ele>1328.4000244141</ele>
        <time>2024-01-30T14:52:22.000Z</time>
      </trkpt>
      <trkpt lat="44.57984" lon="3.11311">
        <ele>1327.4000244141</ele>
        <time>2024-01-30T14:52:24.000Z</time>
      </trkpt>
      <trkpt lat="44.57983" lon="3.11294">
        <ele>1326.8000488281</ele>
        <time>2024-01-30T14:52:25.000Z</time>
      </trkpt>
      <trkpt lat="44.57981" lon="3.11246">
        <ele>1325.4000244141</ele>
        <time>2024-01-30T14:52:28.000Z</time>
      </trkpt>
      <trkpt lat="44.57982" lon="3.11233">
        <ele>1324</ele>
        <time>2024-01-30T14:52:29.000Z</time>
      </trkpt>
      <trkpt lat="44.57984" lon="3.11222">
        <ele>1323</ele>
        <time>2024-01-30T14:52:30.000Z</time>
      </trkpt>
      <trkpt lat="44.57989" lon="3.11214">
        <ele>1322.1999511719</ele>
        <time>2024-01-30T14:52:31.000Z</time>
      </trkpt>
      <trkpt lat="44.57997" lon="3.11208">
        <ele>1321.4000244141</ele>
        <time>2024-01-30T14:52:32.000Z</time>
      </trkpt>
      <trkpt lat="44.58005" lon="3.11207">
        <ele>1321</ele>
        <time>2024-01-30T14:52:33.000Z</time>
      </trkpt>
      <trkpt lat="44.58015" lon="3.11208">
        <ele>1320.1999511719</ele>
        <time>2024-01-30T14:52:34.000Z</time>
      </trkpt>
      <trkpt lat="44.58039" lon="3.11219">
        <ele>1319.4000244141</ele>
        <time>2024-01-30T14:52:36.000Z</time>
      </trkpt>
      <trkpt lat="44.58076" lon="3.11242">
        <ele>1317.5999755859</ele>
        <time>2024-01-30T14:52:39.000Z</time>
      </trkpt>
      <trkpt lat="44.58089" lon="3.11248">
        <ele>1317</ele>
        <time>2024-01-30T14:52:40.000Z</time>
      </trkpt>
      <trkpt lat="44.58102" lon="3.11254">
        <ele>1316</ele>
        <time>2024-01-30T14:52:41.000Z</time>
      </trkpt>
      <trkpt lat="44.58114" lon="3.11263">
        <ele>1315.1999511719</ele>
        <time>2024-01-30T14:52:42.000Z</time>
      </trkpt>
      <trkpt lat="44.58125" lon="3.11274">
        <ele>1314.1999511719</ele>
        <time>2024-01-30T14:52:43.000Z</time>
      </trkpt>
      <trkpt lat="44.58135" lon="3.11288">
        <ele>1313.4000244141</ele>
        <time>2024-01-30T14:52:44.000Z</time>
      </trkpt>
      <trkpt lat="44.58145" lon="3.11302">
        <ele>1312.4000244141</ele>
        <time>2024-01-30T14:52:45.000Z</time>
      </trkpt>
      <trkpt lat="44.58155" lon="3.11317">
        <ele>1311.4000244141</ele>
        <time>2024-01-30T14:52:46.000Z</time>
      </trkpt>
      <trkpt lat="44.58165" lon="3.11332">
        <ele>1310.8000488281</ele>
        <time>2024-01-30T14:52:47.000Z</time>
      </trkpt>
      <trkpt lat="44.58174" lon="3.11347">
        <ele>1309.8000488281</ele>
        <time>2024-01-30T14:52:48.000Z</time>
      </trkpt>
      <trkpt lat="44.58191" lon="3.11372">
        <ele>1307.5999755859</ele>
        <time>2024-01-30T14:52:50.000Z</time>
      </trkpt>
      <trkpt lat="44.582" lon="3.11381">
        <ele>1306</ele>
        <time>2024-01-30T14:52:51.000Z</time>
      </trkpt>
      <trkpt lat="44.58211" lon="3.11387">
        <ele>1305.5999755859</ele>
        <time>2024-01-30T14:52:52.000Z</time>
      </trkpt>
      <trkpt lat="44.58222" lon="3.1139">
        <ele>1305</ele>
        <time>2024-01-30T14:52:53.000Z</time>
      </trkpt>
      <trkpt lat="44.58233" lon="3.11388">
        <ele>1304.4000244141</ele>
        <time>2024-01-30T14:52:54.000Z</time>
      </trkpt>
      <trkpt lat="44.58243" lon="3.11382">
        <ele>1303.5999755859</ele>
        <time>2024-01-30T14:52:55.000Z</time>
      </trkpt>
      <trkpt lat="44.58285" lon="3.11343">
        <ele>1301.8000488281</ele>
        <time>2024-01-30T14:52:59.000Z</time>
      </trkpt>
      <trkpt lat="44.58308" lon="3.11322">
        <ele>1300.5999755859</ele>
        <time>2024-01-30T14:53:01.000Z</time>
      </trkpt>
      <trkpt lat="44.58332" lon="3.11302">
        <ele>1299.1999511719</ele>
        <time>2024-01-30T14:53:03.000Z</time>
      </trkpt>
      <trkpt lat="44.58353" lon="3.1128">
        <ele>1298.1999511719</ele>
        <time>2024-01-30T14:53:05.000Z</time>
      </trkpt>
      <trkpt lat="44.58366" lon="3.11251">
        <ele>1297.1999511719</ele>
        <time>2024-01-30T14:53:07.000Z</time>
      </trkpt>
      <trkpt lat="44.58367" lon="3.11234">
        <ele>1297</ele>
        <time>2024-01-30T14:53:08.000Z</time>
      </trkpt>
      <trkpt lat="44.58364" lon="3.11217">
        <ele>1296.8000488281</ele>
        <time>2024-01-30T14:53:09.000Z</time>
      </trkpt>
      <trkpt lat="44.58346" lon="3.11148">
        <ele>1296</ele>
        <time>2024-01-30T14:53:13.000Z</time>
      </trkpt>
      <trkpt lat="44.58344" lon="3.11129">
        <ele>1296</ele>
        <time>2024-01-30T14:53:14.000Z</time>
      </trkpt>
      <trkpt lat="44.58344" lon="3.11091">
        <ele>1296</ele>
        <time>2024-01-30T14:53:16.000Z</time>
      </trkpt>
      <trkpt lat="44.58351" lon="3.11008">
        <ele>1295.4000244141</ele>
        <time>2024-01-30T14:53:20.000Z</time>
      </trkpt>
      <trkpt lat="44.58354" lon="3.10986">
        <ele>1295.1999511719</ele>
        <time>2024-01-30T14:53:21.000Z</time>
      </trkpt>
      <trkpt lat="44.58357" lon="3.10969">
        <ele>1295</ele>
        <time>2024-01-30T14:53:22.000Z</time>
      </trkpt>
      <trkpt lat="44.58369" lon="3.10904">
        <ele>1294.4000244141</ele>
        <time>2024-01-30T14:53:25.000Z</time>
      </trkpt>
      <trkpt lat="44.58376" lon="3.10886">
        <ele>1294.1999511719</ele>
        <time>2024-01-30T14:53:26.000Z</time>
      </trkpt>
      <trkpt lat="44.58385" lon="3.10867">
        <ele>1293.8000488281</ele>
        <time>2024-01-30T14:53:27.000Z</time>
      </trkpt>
      <trkpt lat="44.58402" lon="3.10834">
        <ele>1293.1999511719</ele>
        <time>2024-01-30T14:53:29.000Z</time>
      </trkpt>
      <trkpt lat="44.58444" lon="3.10769">
        <ele>1292.8000488281</ele>
        <time>2024-01-30T14:53:33.000Z</time>
      </trkpt>
      <trkpt lat="44.58455" lon="3.10752">
        <ele>1292.4000244141</ele>
        <time>2024-01-30T14:53:34.000Z</time>
      </trkpt>
      <trkpt lat="44.58477" lon="3.10723">
        <ele>1291.5999755859</ele>
        <time>2024-01-30T14:53:36.000Z</time>
      </trkpt>
      <trkpt lat="44.58501" lon="3.10699">
        <ele>1291.1999511719</ele>
        <time>2024-01-30T14:53:38.000Z</time>
      </trkpt>
      <trkpt lat="44.58541" lon="3.10675">
        <ele>1290.4000244141</ele>
        <time>2024-01-30T14:53:41.000Z</time>
      </trkpt>
      <trkpt lat="44.58596" lon="3.10651">
        <ele>1289.4000244141</ele>
        <time>2024-01-30T14:53:45.000Z</time>
      </trkpt>
      <trkpt lat="44.58623" lon="3.10635">
        <ele>1289</ele>
        <time>2024-01-30T14:53:47.000Z</time>
      </trkpt>
      <trkpt lat="44.58659" lon="3.10602">
        <ele>1287.5999755859</ele>
        <time>2024-01-30T14:53:50.000Z</time>
      </trkpt>
      <trkpt lat="44.58671" lon="3.10591">
        <ele>1286.4000244141</ele>
        <time>2024-01-30T14:53:51.000Z</time>
      </trkpt>
      <trkpt lat="44.58696" lon="3.10568">
        <ele>1285.1999511719</ele>
        <time>2024-01-30T14:53:53.000Z</time>
      </trkpt>
      <trkpt lat="44.58721" lon="3.10545">
        <ele>1283.8000488281</ele>
        <time>2024-01-30T14:53:55.000Z</time>
      </trkpt>
      <trkpt lat="44.58751" lon="3.10512">
        <ele>1283.5999755859</ele>
        <time>2024-01-30T14:53:58.000Z</time>
      </trkpt>
      <trkpt lat="44.58761" lon="3.10488">
        <ele>1285</ele>
        <time>2024-01-30T14:54:00.000Z</time>
      </trkpt>
      <trkpt lat="44.58768" lon="3.10444">
        <ele>1286</ele>
        <time>2024-01-30T14:54:03.000Z</time>
      </trkpt>
      <trkpt lat="44.58771" lon="3.10428">
        <ele>1287</ele>
        <time>2024-01-30T14:54:04.000Z</time>
      </trkpt>
      <trkpt lat="44.58773" lon="3.10413">
        <ele>1287.8000488281</ele>
        <time>2024-01-30T14:54:05.000Z</time>
      </trkpt>
      <trkpt lat="44.58777" lon="3.10397">
        <ele>1288</ele>
        <time>2024-01-30T14:54:06.000Z</time>
      </trkpt>
      <trkpt lat="44.5879" lon="3.1037">
        <ele>1288.8000488281</ele>
        <time>2024-01-30T14:54:08.000Z</time>
      </trkpt>
      <trkpt lat="44.58807" lon="3.10345">
        <ele>1289.4000244141</ele>
        <time>2024-01-30T14:54:10.000Z</time>
      </trkpt>
      <trkpt lat="44.58817" lon="3.10334">
        <ele>1290</ele>
        <time>2024-01-30T14:54:11.000Z</time>
      </trkpt>
      <trkpt lat="44.58839" lon="3.10314">
        <ele>1291.1999511719</ele>
        <time>2024-01-30T14:54:13.000Z</time>
      </trkpt>
      <trkpt lat="44.58864" lon="3.10298">
        <ele>1292.4000244141</ele>
        <time>2024-01-30T14:54:15.000Z</time>
      </trkpt>
      <trkpt lat="44.58888" lon="3.10281">
        <ele>1293.5999755859</ele>
        <time>2024-01-30T14:54:17.000Z</time>
      </trkpt>
      <trkpt lat="44.5891" lon="3.10265">
        <ele>1294.5999755859</ele>
        <time>2024-01-30T14:54:19.000Z</time>
      </trkpt>
      <trkpt lat="44.58931" lon="3.10252">
        <ele>1295.4000244141</ele>
        <time>2024-01-30T14:54:21.000Z</time>
      </trkpt>
      <trkpt lat="44.5894" lon="3.10247">
        <ele>1295.5999755859</ele>
        <time>2024-01-30T14:54:22.000Z</time>
      </trkpt>
      <trkpt lat="44.5895" lon="3.10244">
        <ele>1295.8000488281</ele>
        <time>2024-01-30T14:54:23.000Z</time>
      </trkpt>
      <trkpt lat="44.5896" lon="3.10242">
        <ele>1296.1999511719</ele>
        <time>2024-01-30T14:54:24.000Z</time>
      </trkpt>
      <trkpt lat="44.58995" lon="3.1024">
        <ele>1297</ele>
        <time>2024-01-30T14:54:27.000Z</time>
      </trkpt>
      <trkpt lat="44.59007" lon="3.1024">
        <ele>1298</ele>
        <time>2024-01-30T14:54:28.000Z</time>
      </trkpt>
      <trkpt lat="44.59052" lon="3.10238">
        <ele>1298.5999755859</ele>
        <time>2024-01-30T14:54:32.000Z</time>
      </trkpt>
      <trkpt lat="44.59061" lon="3.10236">
        <ele>1298.5999755859</ele>
        <time>2024-01-30T14:54:33.000Z</time>
      </trkpt>
      <trkpt lat="44.59068" lon="3.10229">
        <ele>1298.8000488281</ele>
        <time>2024-01-30T14:54:34.000Z</time>
      </trkpt>
      <trkpt lat="44.59073" lon="3.1022">
        <ele>1298.8000488281</ele>
        <time>2024-01-30T14:54:35.000Z</time>
      </trkpt>
      <trkpt lat="44.59074" lon="3.10209">
        <ele>1299.5999755859</ele>
        <time>2024-01-30T14:54:36.000Z</time>
      </trkpt>
      <trkpt lat="44.59073" lon="3.10182">
        <ele>1301.1999511719</ele>
        <time>2024-01-30T14:54:38.000Z</time>
      </trkpt>
      <trkpt lat="44.59072" lon="3.10168">
        <ele>1302.1999511719</ele>
        <time>2024-01-30T14:54:39.000Z</time>
      </trkpt>
      <trkpt lat="44.59069" lon="3.10137">
        <ele>1303.5999755859</ele>
        <time>2024-01-30T14:54:41.000Z</time>
      </trkpt>
      <trkpt lat="44.59067" lon="3.10122">
        <ele>1304.4000244141</ele>
        <time>2024-01-30T14:54:42.000Z</time>
      </trkpt>
      <trkpt lat="44.59062" lon="3.10107">
        <ele>1306</ele>
        <time>2024-01-30T14:54:43.000Z</time>
      </trkpt>
      <trkpt lat="44.59058" lon="3.10094">
        <ele>1307</ele>
        <time>2024-01-30T14:54:44.000Z</time>
      </trkpt>
      <trkpt lat="44.59052" lon="3.10082">
        <ele>1308</ele>
        <time>2024-01-30T14:54:45.000Z</time>
      </trkpt>
      <trkpt lat="44.59045" lon="3.1007">
        <ele>1309.4000244141</ele>
        <time>2024-01-30T14:54:46.000Z</time>
      </trkpt>
      <trkpt lat="44.59035" lon="3.10044">
        <ele>1310</ele>
        <time>2024-01-30T14:54:48.000Z</time>
      </trkpt>
      <trkpt lat="44.5903" lon="3.1003">
        <ele>1311.1999511719</ele>
        <time>2024-01-30T14:54:49.000Z</time>
      </trkpt>
      <trkpt lat="44.59021" lon="3.1">
        <ele>1313.1999511719</ele>
        <time>2024-01-30T14:54:51.000Z</time>
      </trkpt>
      <trkpt lat="44.59014" lon="3.0997">
        <ele>1314.4000244141</ele>
        <time>2024-01-30T14:54:53.000Z</time>
      </trkpt>
      <trkpt lat="44.59009" lon="3.0994">
        <ele>1315.8000488281</ele>
        <time>2024-01-30T14:54:55.000Z</time>
      </trkpt>
      <trkpt lat="44.5901" lon="3.0991">
        <ele>1317</ele>
        <time>2024-01-30T14:54:57.000Z</time>
      </trkpt>
      <trkpt lat="44.59013" lon="3.09896">
        <ele>1317.8000488281</ele>
        <time>2024-01-30T14:54:58.000Z</time>
      </trkpt>
      <trkpt lat="44.59017" lon="3.09882">
        <ele>1318.8000488281</ele>
        <time>2024-01-30T14:54:59.000Z</time>
      </trkpt>
      <trkpt lat="44.59023" lon="3.0987">
        <ele>1320</ele>
        <time>2024-01-30T14:55:00.000Z</time>
      </trkpt>
      <trkpt lat="44.59031" lon="3.0986">
        <ele>1320.8000488281</ele>
        <time>2024-01-30T14:55:01.000Z</time>
      </trkpt>
      <trkpt lat="44.59042" lon="3.09853">
        <ele>1321.4000244141</ele>
        <time>2024-01-30T14:55:02.000Z</time>
      </trkpt>
      <trkpt lat="44.59053" lon="3.09846">
        <ele>1322.5999755859</ele>
        <time>2024-01-30T14:55:03.000Z</time>
      </trkpt>
      <trkpt lat="44.59064" lon="3.09839">
        <ele>1324.5999755859</ele>
        <time>2024-01-30T14:55:04.000Z</time>
      </trkpt>
      <trkpt lat="44.59076" lon="3.09834">
        <ele>1326.1999511719</ele>
        <time>2024-01-30T14:55:05.000Z</time>
      </trkpt>
      <trkpt lat="44.59117" lon="3.09809">
        <ele>1326.4000244141</ele>
        <time>2024-01-30T14:55:09.000Z</time>
      </trkpt>
      <trkpt lat="44.59132" lon="3.09789">
        <ele>1326.1999511719</ele>
        <time>2024-01-30T14:55:11.000Z</time>
      </trkpt>
      <trkpt lat="44.5914" lon="3.09778">
        <ele>1326</ele>
        <time>2024-01-30T14:55:12.000Z</time>
      </trkpt>
      <trkpt lat="44.59157" lon="3.09755">
        <ele>1326</ele>
        <time>2024-01-30T14:55:14.000Z</time>
      </trkpt>
      <trkpt lat="44.59167" lon="3.09746">
        <ele>1325.8000488281</ele>
        <time>2024-01-30T14:55:15.000Z</time>
      </trkpt>
      <trkpt lat="44.59179" lon="3.0974">
        <ele>1325.8000488281</ele>
        <time>2024-01-30T14:55:16.000Z</time>
      </trkpt>
      <trkpt lat="44.59204" lon="3.09734">
        <ele>1325.4000244141</ele>
        <time>2024-01-30T14:55:18.000Z</time>
      </trkpt>
      <trkpt lat="44.59256" lon="3.09734">
        <ele>1325.4000244141</ele>
        <time>2024-01-30T14:55:22.000Z</time>
      </trkpt>
      <trkpt lat="44.59277" lon="3.09728">
        <ele>1325.1999511719</ele>
        <time>2024-01-30T14:55:24.000Z</time>
      </trkpt>
      <trkpt lat="44.59287" lon="3.09721">
        <ele>1325</ele>
        <time>2024-01-30T14:55:25.000Z</time>
      </trkpt>
      <trkpt lat="44.59305" lon="3.097">
        <ele>1323.5999755859</ele>
        <time>2024-01-30T14:55:27.000Z</time>
      </trkpt>
      <trkpt lat="44.59315" lon="3.09689">
        <ele>1323.4000244141</ele>
        <time>2024-01-30T14:55:28.000Z</time>
      </trkpt>
      <trkpt lat="44.59326" lon="3.0968">
        <ele>1322.5999755859</ele>
        <time>2024-01-30T14:55:29.000Z</time>
      </trkpt>
      <trkpt lat="44.59338" lon="3.09673">
        <ele>1322.5999755859</ele>
        <time>2024-01-30T14:55:30.000Z</time>
      </trkpt>
      <trkpt lat="44.59374" lon="3.0965">
        <ele>1322.1999511719</ele>
        <time>2024-01-30T14:55:33.000Z</time>
      </trkpt>
      <trkpt lat="44.59398" lon="3.09633">
        <ele>1321.4000244141</ele>
        <time>2024-01-30T14:55:35.000Z</time>
      </trkpt>
      <trkpt lat="44.59422" lon="3.09617">
        <ele>1320.1999511719</ele>
        <time>2024-01-30T14:55:37.000Z</time>
      </trkpt>
      <trkpt lat="44.59434" lon="3.09608">
        <ele>1319.8000488281</ele>
        <time>2024-01-30T14:55:38.000Z</time>
      </trkpt>
      <trkpt lat="44.59447" lon="3.09599">
        <ele>1318.8000488281</ele>
        <time>2024-01-30T14:55:39.000Z</time>
      </trkpt>
      <trkpt lat="44.5946" lon="3.09591">
        <ele>1317.5999755859</ele>
        <time>2024-01-30T14:55:40.000Z</time>
      </trkpt>
      <trkpt lat="44.59489" lon="3.09581">
        <ele>1315.8000488281</ele>
        <time>2024-01-30T14:55:42.000Z</time>
      </trkpt>
      <trkpt lat="44.59502" lon="3.09582">
        <ele>1314.5999755859</ele>
        <time>2024-01-30T14:55:43.000Z</time>
      </trkpt>
      <trkpt lat="44.59516" lon="3.09587">
        <ele>1314.1999511719</ele>
        <time>2024-01-30T14:55:44.000Z</time>
      </trkpt>
      <trkpt lat="44.59571" lon="3.09616">
        <ele>1313.5999755859</ele>
        <time>2024-01-30T14:55:48.000Z</time>
      </trkpt>
      <trkpt lat="44.59585" lon="3.09619">
        <ele>1313.4000244141</ele>
        <time>2024-01-30T14:55:49.000Z</time>
      </trkpt>
      <trkpt lat="44.59613" lon="3.09627">
        <ele>1312.4000244141</ele>
        <time>2024-01-30T14:55:51.000Z</time>
      </trkpt>
      <trkpt lat="44.59626" lon="3.09631">
        <ele>1312</ele>
        <time>2024-01-30T14:55:52.000Z</time>
      </trkpt>
      <trkpt lat="44.59646" lon="3.09643">
        <ele>1311.4000244141</ele>
        <time>2024-01-30T14:55:54.000Z</time>
      </trkpt>
      <trkpt lat="44.59654" lon="3.09653">
        <ele>1310.8000488281</ele>
        <time>2024-01-30T14:55:55.000Z</time>
      </trkpt>
      <trkpt lat="44.59662" lon="3.09664">
        <ele>1310.1999511719</ele>
        <time>2024-01-30T14:55:56.000Z</time>
      </trkpt>
      <trkpt lat="44.59669" lon="3.09673">
        <ele>1309.8000488281</ele>
        <time>2024-01-30T14:55:57.000Z</time>
      </trkpt>
      <trkpt lat="44.59677" lon="3.09682">
        <ele>1309.5999755859</ele>
        <time>2024-01-30T14:55:58.000Z</time>
      </trkpt>
      <trkpt lat="44.59696" lon="3.09693">
        <ele>1307.8000488281</ele>
        <time>2024-01-30T14:56:00.000Z</time>
      </trkpt>
      <trkpt lat="44.59714" lon="3.09688">
        <ele>1306.1999511719</ele>
        <time>2024-01-30T14:56:02.000Z</time>
      </trkpt>
      <trkpt lat="44.59723" lon="3.09681">
        <ele>1304.8000488281</ele>
        <time>2024-01-30T14:56:03.000Z</time>
      </trkpt>
      <trkpt lat="44.59731" lon="3.09672">
        <ele>1304.5999755859</ele>
        <time>2024-01-30T14:56:04.000Z</time>
      </trkpt>
      <trkpt lat="44.59738" lon="3.09661">
        <ele>1303.8000488281</ele>
        <time>2024-01-30T14:56:05.000Z</time>
      </trkpt>
      <trkpt lat="44.59751" lon="3.09634">
        <ele>1302.5999755859</ele>
        <time>2024-01-30T14:56:07.000Z</time>
      </trkpt>
      <trkpt lat="44.59756" lon="3.09619">
        <ele>1302</ele>
        <time>2024-01-30T14:56:08.000Z</time>
      </trkpt>
      <trkpt lat="44.5976" lon="3.09604">
        <ele>1301</ele>
        <time>2024-01-30T14:56:09.000Z</time>
      </trkpt>
      <trkpt lat="44.59768" lon="3.09571">
        <ele>1299.5999755859</ele>
        <time>2024-01-30T14:56:11.000Z</time>
      </trkpt>
      <trkpt lat="44.5977" lon="3.09555">
        <ele>1299.1999511719</ele>
        <time>2024-01-30T14:56:12.000Z</time>
      </trkpt>
      <trkpt lat="44.59772" lon="3.09537">
        <ele>1298.1999511719</ele>
        <time>2024-01-30T14:56:13.000Z</time>
      </trkpt>
      <trkpt lat="44.59772" lon="3.09501">
        <ele>1297</ele>
        <time>2024-01-30T14:56:15.000Z</time>
      </trkpt>
      <trkpt lat="44.59772" lon="3.09483">
        <ele>1295.5999755859</ele>
        <time>2024-01-30T14:56:16.000Z</time>
      </trkpt>
      <trkpt lat="44.5977" lon="3.09446">
        <ele>1293.8000488281</ele>
        <time>2024-01-30T14:56:18.000Z</time>
      </trkpt>
      <trkpt lat="44.59771" lon="3.09408">
        <ele>1292.5999755859</ele>
        <time>2024-01-30T14:56:20.000Z</time>
      </trkpt>
      <trkpt lat="44.59773" lon="3.0939">
        <ele>1291.5999755859</ele>
        <time>2024-01-30T14:56:21.000Z</time>
      </trkpt>
      <trkpt lat="44.59783" lon="3.09358">
        <ele>1290.8000488281</ele>
        <time>2024-01-30T14:56:23.000Z</time>
      </trkpt>
      <trkpt lat="44.59802" lon="3.09338">
        <ele>1290.5999755859</ele>
        <time>2024-01-30T14:56:25.000Z</time>
      </trkpt>
      <trkpt lat="44.59828" lon="3.09332">
        <ele>1290.5999755859</ele>
        <time>2024-01-30T14:56:27.000Z</time>
      </trkpt>
      <trkpt lat="44.59851" lon="3.09336">
        <ele>1290.5999755859</ele>
        <time>2024-01-30T14:56:29.000Z</time>
      </trkpt>
      <trkpt lat="44.59874" lon="3.09334">
        <ele>1290.5999755859</ele>
        <time>2024-01-30T14:56:31.000Z</time>
      </trkpt>
      <trkpt lat="44.59886" lon="3.0933">
        <ele>1290.4000244141</ele>
        <time>2024-01-30T14:56:32.000Z</time>
      </trkpt>
      <trkpt lat="44.59908" lon="3.09314">
        <ele>1290.1999511719</ele>
        <time>2024-01-30T14:56:34.000Z</time>
      </trkpt>
      <trkpt lat="44.59953" lon="3.09278">
        <ele>1289.5999755859</ele>
        <time>2024-01-30T14:56:38.000Z</time>
      </trkpt>
      <trkpt lat="44.59965" lon="3.09272">
        <ele>1289.1999511719</ele>
        <time>2024-01-30T14:56:39.000Z</time>
      </trkpt>
      <trkpt lat="44.59978" lon="3.0927">
        <ele>1288.5999755859</ele>
        <time>2024-01-30T14:56:40.000Z</time>
      </trkpt>
      <trkpt lat="44.59991" lon="3.09272">
        <ele>1288.1999511719</ele>
        <time>2024-01-30T14:56:41.000Z</time>
      </trkpt>
      <trkpt lat="44.60002" lon="3.09276">
        <ele>1288</ele>
        <time>2024-01-30T14:56:42.000Z</time>
      </trkpt>
      <trkpt lat="44.60024" lon="3.09285">
        <ele>1287.8000488281</ele>
        <time>2024-01-30T14:56:44.000Z</time>
      </trkpt>
      <trkpt lat="44.60034" lon="3.09288">
        <ele>1287.8000488281</ele>
        <time>2024-01-30T14:56:45.000Z</time>
      </trkpt>
      <trkpt lat="44.60057" lon="3.09288">
        <ele>1286.4000244141</ele>
        <time>2024-01-30T14:56:47.000Z</time>
      </trkpt>
      <trkpt lat="44.60067" lon="3.09284">
        <ele>1285</ele>
        <time>2024-01-30T14:56:48.000Z</time>
      </trkpt>
      <trkpt lat="44.6009" lon="3.09272">
        <ele>1283.4000244141</ele>
        <time>2024-01-30T14:56:50.000Z</time>
      </trkpt>
      <trkpt lat="44.60122" lon="3.09249">
        <ele>1282.1999511719</ele>
        <time>2024-01-30T14:56:53.000Z</time>
      </trkpt>
      <trkpt lat="44.60141" lon="3.09236">
        <ele>1280.8000488281</ele>
        <time>2024-01-30T14:56:55.000Z</time>
      </trkpt>
      <trkpt lat="44.60157" lon="3.09227">
        <ele>1278.4000244141</ele>
        <time>2024-01-30T14:56:57.000Z</time>
      </trkpt>
      <trkpt lat="44.6016" lon="3.09224">
        <ele>1278.1999511719</ele>
        <time>2024-01-30T14:56:58.000Z</time>
      </trkpt>
      <trkpt lat="44.60163" lon="3.09221">
        <ele>1277.1999511719</ele>
        <time>2024-01-30T14:56:59.000Z</time>
      </trkpt>
      <trkpt lat="44.60166" lon="3.09218">
        <ele>1276.1999511719</ele>
        <time>2024-01-30T14:57:01.000Z</time>
      </trkpt>
      <trkpt lat="44.60167" lon="3.09218">
        <ele>1276</ele>
        <time>2024-01-30T14:57:02.000Z</time>
      </trkpt>
      <trkpt lat="44.60168" lon="3.09217">
        <ele>1276</ele>
        <time>2024-01-30T14:57:06.000Z</time>
      </trkpt>
      <trkpt lat="44.60168" lon="3.09217">
        <ele>1276</ele>
        <time>2024-01-30T14:57:18.000Z</time>
      </trkpt>
      <trkpt lat="44.60168" lon="3.09217">
        <ele>1276</ele>
        <time>2024-01-30T14:57:34.000Z</time>
      </trkpt>
      <trkpt lat="44.60168" lon="3.09217">
        <ele>1276</ele>
        <time>2024-01-30T14:57:48.000Z</time>
      </trkpt>
      <trkpt lat="44.60168" lon="3.09217">
        <ele>1276.1999511719</ele>
        <time>2024-01-30T14:58:06.000Z</time>
      </trkpt>
      <trkpt lat="44.60172" lon="3.09212">
        <ele>1276.1999511719</ele>
        <time>2024-01-30T14:58:15.000Z</time>
      </trkpt>
      <trkpt lat="44.60192" lon="3.09198">
        <ele>1276.1999511719</ele>
        <time>2024-01-30T14:58:19.000Z</time>
      </trkpt>
      <trkpt lat="44.60216" lon="3.09179">
        <ele>1276.4000244141</ele>
        <time>2024-01-30T14:58:22.000Z</time>
      </trkpt>
      <trkpt lat="44.60233" lon="3.09163">
        <ele>1276.4000244141</ele>
        <time>2024-01-30T14:58:24.000Z</time>
      </trkpt>
      <trkpt lat="44.60241" lon="3.09152">
        <ele>1276</ele>
        <time>2024-01-30T14:58:25.000Z</time>
      </trkpt>
      <trkpt lat="44.60248" lon="3.0914">
        <ele>1275.5999755859</ele>
        <time>2024-01-30T14:58:26.000Z</time>
      </trkpt>
      <trkpt lat="44.60253" lon="3.09126">
        <ele>1274.4000244141</ele>
        <time>2024-01-30T14:58:27.000Z</time>
      </trkpt>
      <trkpt lat="44.60259" lon="3.09112">
        <ele>1274.1999511719</ele>
        <time>2024-01-30T14:58:28.000Z</time>
      </trkpt>
      <trkpt lat="44.60268" lon="3.09079">
        <ele>1273.1999511719</ele>
        <time>2024-01-30T14:58:30.000Z</time>
      </trkpt>
      <trkpt lat="44.60276" lon="3.09044">
        <ele>1271.1999511719</ele>
        <time>2024-01-30T14:58:32.000Z</time>
      </trkpt>
      <trkpt lat="44.60287" lon="3.09011">
        <ele>1269.5999755859</ele>
        <time>2024-01-30T14:58:34.000Z</time>
      </trkpt>
      <trkpt lat="44.60295" lon="3.08998">
        <ele>1269</ele>
        <time>2024-01-30T14:58:35.000Z</time>
      </trkpt>
      <trkpt lat="44.60304" lon="3.08987">
        <ele>1268.8000488281</ele>
        <time>2024-01-30T14:58:36.000Z</time>
      </trkpt>
      <trkpt lat="44.60316" lon="3.08979">
        <ele>1268.4000244141</ele>
        <time>2024-01-30T14:58:37.000Z</time>
      </trkpt>
      <trkpt lat="44.6036" lon="3.08949">
        <ele>1267.5999755859</ele>
        <time>2024-01-30T14:58:41.000Z</time>
      </trkpt>
      <trkpt lat="44.60371" lon="3.08937">
        <ele>1267.1999511719</ele>
        <time>2024-01-30T14:58:42.000Z</time>
      </trkpt>
      <trkpt lat="44.60405" lon="3.08897">
        <ele>1266.4000244141</ele>
        <time>2024-01-30T14:58:45.000Z</time>
      </trkpt>
      <trkpt lat="44.60418" lon="3.08884">
        <ele>1266.1999511719</ele>
        <time>2024-01-30T14:58:46.000Z</time>
      </trkpt>
      <trkpt lat="44.60466" lon="3.08834">
        <ele>1264.5999755859</ele>
        <time>2024-01-30T14:58:50.000Z</time>
      </trkpt>
      <trkpt lat="44.60478" lon="3.08824">
        <ele>1263.1999511719</ele>
        <time>2024-01-30T14:58:51.000Z</time>
      </trkpt>
      <trkpt lat="44.60501" lon="3.08802">
        <ele>1262.1999511719</ele>
        <time>2024-01-30T14:58:53.000Z</time>
      </trkpt>
      <trkpt lat="44.60512" lon="3.08794">
        <ele>1261.8000488281</ele>
        <time>2024-01-30T14:58:54.000Z</time>
      </trkpt>
      <trkpt lat="44.60525" lon="3.08789">
        <ele>1261.4000244141</ele>
        <time>2024-01-30T14:58:55.000Z</time>
      </trkpt>
      <trkpt lat="44.60538" lon="3.08785">
        <ele>1261</ele>
        <time>2024-01-30T14:58:56.000Z</time>
      </trkpt>
      <trkpt lat="44.60564" lon="3.08779">
        <ele>1259.8000488281</ele>
        <time>2024-01-30T14:58:58.000Z</time>
      </trkpt>
      <trkpt lat="44.60576" lon="3.08775">
        <ele>1259.5999755859</ele>
        <time>2024-01-30T14:58:59.000Z</time>
      </trkpt>
      <trkpt lat="44.60588" lon="3.0877">
        <ele>1258.8000488281</ele>
        <time>2024-01-30T14:59:00.000Z</time>
      </trkpt>
      <trkpt lat="44.60608" lon="3.08752">
        <ele>1258.4000244141</ele>
        <time>2024-01-30T14:59:02.000Z</time>
      </trkpt>
      <trkpt lat="44.60622" lon="3.08725">
        <ele>1258.1999511719</ele>
        <time>2024-01-30T14:59:04.000Z</time>
      </trkpt>
      <trkpt lat="44.60627" lon="3.08709">
        <ele>1258.1999511719</ele>
        <time>2024-01-30T14:59:05.000Z</time>
      </trkpt>
      <trkpt lat="44.6063" lon="3.08693">
        <ele>1258.1999511719</ele>
        <time>2024-01-30T14:59:06.000Z</time>
      </trkpt>
      <trkpt lat="44.60628" lon="3.08656">
        <ele>1258</ele>
        <time>2024-01-30T14:59:08.000Z</time>
      </trkpt>
      <trkpt lat="44.60621" lon="3.08627">
        <ele>1258</ele>
        <time>2024-01-30T14:59:10.000Z</time>
      </trkpt>
      <trkpt lat="44.60613" lon="3.08611">
        <ele>1258</ele>
        <time>2024-01-30T14:59:11.000Z</time>
      </trkpt>
      <trkpt lat="44.60606" lon="3.08603">
        <ele>1258</ele>
        <time>2024-01-30T14:59:12.000Z</time>
      </trkpt>
      <trkpt lat="44.60588" lon="3.08584">
        <ele>1258</ele>
        <time>2024-01-30T14:59:14.000Z</time>
      </trkpt>
      <trkpt lat="44.60541" lon="3.08546">
        <ele>1258.1999511719</ele>
        <time>2024-01-30T14:59:19.000Z</time>
      </trkpt>
      <trkpt lat="44.60504" lon="3.08508">
        <ele>1259.1999511719</ele>
        <time>2024-01-30T14:59:23.000Z</time>
      </trkpt>
      <trkpt lat="44.60486" lon="3.08486">
        <ele>1259.8000488281</ele>
        <time>2024-01-30T14:59:25.000Z</time>
      </trkpt>
      <trkpt lat="44.60466" lon="3.08451">
        <ele>1259.8000488281</ele>
        <time>2024-01-30T14:59:28.000Z</time>
      </trkpt>
      <trkpt lat="44.60465" lon="3.0843">
        <ele>1258.8000488281</ele>
        <time>2024-01-30T14:59:30.000Z</time>
      </trkpt>
      <trkpt lat="44.60468" lon="3.0842">
        <ele>1258.1999511719</ele>
        <time>2024-01-30T14:59:31.000Z</time>
      </trkpt>
      <trkpt lat="44.60475" lon="3.08412">
        <ele>1258</ele>
        <time>2024-01-30T14:59:32.000Z</time>
      </trkpt>
      <trkpt lat="44.60491" lon="3.08405">
        <ele>1258.1999511719</ele>
        <time>2024-01-30T14:59:34.000Z</time>
      </trkpt>
      <trkpt lat="44.60513" lon="3.08405">
        <ele>1259</ele>
        <time>2024-01-30T14:59:36.000Z</time>
      </trkpt>
      <trkpt lat="44.60523" lon="3.08402">
        <ele>1259.1999511719</ele>
        <time>2024-01-30T14:59:37.000Z</time>
      </trkpt>
      <trkpt lat="44.60534" lon="3.08396">
        <ele>1259.4000244141</ele>
        <time>2024-01-30T14:59:38.000Z</time>
      </trkpt>
      <trkpt lat="44.60543" lon="3.08386">
        <ele>1259.4000244141</ele>
        <time>2024-01-30T14:59:39.000Z</time>
      </trkpt>
      <trkpt lat="44.6055" lon="3.08374">
        <ele>1259.4000244141</ele>
        <time>2024-01-30T14:59:40.000Z</time>
      </trkpt>
      <trkpt lat="44.60556" lon="3.08359">
        <ele>1259.1999511719</ele>
        <time>2024-01-30T14:59:41.000Z</time>
      </trkpt>
      <trkpt lat="44.60558" lon="3.08343">
        <ele>1258.5999755859</ele>
        <time>2024-01-30T14:59:42.000Z</time>
      </trkpt>
      <trkpt lat="44.60558" lon="3.08327">
        <ele>1258.4000244141</ele>
        <time>2024-01-30T14:59:43.000Z</time>
      </trkpt>
      <trkpt lat="44.60556" lon="3.08311">
        <ele>1258</ele>
        <time>2024-01-30T14:59:44.000Z</time>
      </trkpt>
      <trkpt lat="44.60548" lon="3.08282">
        <ele>1257.8000488281</ele>
        <time>2024-01-30T14:59:46.000Z</time>
      </trkpt>
      <trkpt lat="44.60536" lon="3.08228">
        <ele>1257.4000244141</ele>
        <time>2024-01-30T14:59:50.000Z</time>
      </trkpt>
      <trkpt lat="44.60534" lon="3.08215">
        <ele>1257.1999511719</ele>
        <time>2024-01-30T14:59:51.000Z</time>
      </trkpt>
      <trkpt lat="44.60535" lon="3.08203">
        <ele>1257.1999511719</ele>
        <time>2024-01-30T14:59:52.000Z</time>
      </trkpt>
      <trkpt lat="44.60539" lon="3.08192">
        <ele>1257.1999511719</ele>
        <time>2024-01-30T14:59:53.000Z</time>
      </trkpt>
      <trkpt lat="44.60544" lon="3.08183">
        <ele>1257.4000244141</ele>
        <time>2024-01-30T14:59:54.000Z</time>
      </trkpt>
      <trkpt lat="44.6056" lon="3.08167">
        <ele>1258.1999511719</ele>
        <time>2024-01-30T14:59:56.000Z</time>
      </trkpt>
      <trkpt lat="44.60581" lon="3.08154">
        <ele>1259.8000488281</ele>
        <time>2024-01-30T14:59:58.000Z</time>
      </trkpt>
      <trkpt lat="44.60592" lon="3.08148">
        <ele>1260.1999511719</ele>
        <time>2024-01-30T14:59:59.000Z</time>
      </trkpt>
      <trkpt lat="44.60654" lon="3.08121">
        <ele>1260.4000244141</ele>
        <time>2024-01-30T15:00:04.000Z</time>
      </trkpt>
      <trkpt lat="44.60692" lon="3.08123">
        <ele>1259.1999511719</ele>
        <time>2024-01-30T15:00:07.000Z</time>
      </trkpt>
      <trkpt lat="44.60728" lon="3.08128">
        <ele>1258.5999755859</ele>
        <time>2024-01-30T15:00:10.000Z</time>
      </trkpt>
      <trkpt lat="44.60738" lon="3.08129">
        <ele>1258.1999511719</ele>
        <time>2024-01-30T15:00:11.000Z</time>
      </trkpt>
      <trkpt lat="44.60746" lon="3.08128">
        <ele>1257.5999755859</ele>
        <time>2024-01-30T15:00:12.000Z</time>
      </trkpt>
      <trkpt lat="44.60755" lon="3.08125">
        <ele>1257.4000244141</ele>
        <time>2024-01-30T15:00:13.000Z</time>
      </trkpt>
      <trkpt lat="44.60772" lon="3.08113">
        <ele>1257.4000244141</ele>
        <time>2024-01-30T15:00:15.000Z</time>
      </trkpt>
      <trkpt lat="44.60785" lon="3.08089">
        <ele>1257.1999511719</ele>
        <time>2024-01-30T15:00:17.000Z</time>
      </trkpt>
      <trkpt lat="44.6079" lon="3.08075">
        <ele>1257.1999511719</ele>
        <time>2024-01-30T15:00:18.000Z</time>
      </trkpt>
      <trkpt lat="44.60813" lon="3.08">
        <ele>1257.1999511719</ele>
        <time>2024-01-30T15:00:23.000Z</time>
      </trkpt>
      <trkpt lat="44.60834" lon="3.07936">
        <ele>1257</ele>
        <time>2024-01-30T15:00:27.000Z</time>
      </trkpt>
      <trkpt lat="44.6084" lon="3.079">
        <ele>1255.5999755859</ele>
        <time>2024-01-30T15:00:29.000Z</time>
      </trkpt>
      <trkpt lat="44.60842" lon="3.07882">
        <ele>1253.4000244141</ele>
        <time>2024-01-30T15:00:30.000Z</time>
      </trkpt>
      <trkpt lat="44.60845" lon="3.07865">
        <ele>1252.8000488281</ele>
        <time>2024-01-30T15:00:31.000Z</time>
      </trkpt>
      <trkpt lat="44.60848" lon="3.07848">
        <ele>1252.5999755859</ele>
        <time>2024-01-30T15:00:32.000Z</time>
      </trkpt>
      <trkpt lat="44.60854" lon="3.07832">
        <ele>1252.1999511719</ele>
        <time>2024-01-30T15:00:33.000Z</time>
      </trkpt>
      <trkpt lat="44.60861" lon="3.07816">
        <ele>1251.8000488281</ele>
        <time>2024-01-30T15:00:34.000Z</time>
      </trkpt>
      <trkpt lat="44.60884" lon="3.0777">
        <ele>1250.8000488281</ele>
        <time>2024-01-30T15:00:37.000Z</time>
      </trkpt>
      <trkpt lat="44.609" lon="3.07737">
        <ele>1249.5999755859</ele>
        <time>2024-01-30T15:00:39.000Z</time>
      </trkpt>
      <trkpt lat="44.60908" lon="3.0772">
        <ele>1249</ele>
        <time>2024-01-30T15:00:40.000Z</time>
      </trkpt>
      <trkpt lat="44.60916" lon="3.07703">
        <ele>1248.4000244141</ele>
        <time>2024-01-30T15:00:41.000Z</time>
      </trkpt>
      <trkpt lat="44.60932" lon="3.07669">
        <ele>1247.4000244141</ele>
        <time>2024-01-30T15:00:43.000Z</time>
      </trkpt>
      <trkpt lat="44.60963" lon="3.07603">
        <ele>1246.5999755859</ele>
        <time>2024-01-30T15:00:47.000Z</time>
      </trkpt>
      <trkpt lat="44.60988" lon="3.07536">
        <ele>1247</ele>
        <time>2024-01-30T15:00:51.000Z</time>
      </trkpt>
      <trkpt lat="44.60994" lon="3.07519">
        <ele>1247</ele>
        <time>2024-01-30T15:00:52.000Z</time>
      </trkpt>
      <trkpt lat="44.61024" lon="3.07443">
        <ele>1247</ele>
        <time>2024-01-30T15:00:57.000Z</time>
      </trkpt>
      <trkpt lat="44.61042" lon="3.07425">
        <ele>1246.5999755859</ele>
        <time>2024-01-30T15:00:59.000Z</time>
      </trkpt>
      <trkpt lat="44.61054" lon="3.07421">
        <ele>1246.4000244141</ele>
        <time>2024-01-30T15:01:00.000Z</time>
      </trkpt>
      <trkpt lat="44.6108" lon="3.07415">
        <ele>1246</ele>
        <time>2024-01-30T15:01:02.000Z</time>
      </trkpt>
      <trkpt lat="44.61106" lon="3.07406">
        <ele>1245.8000488281</ele>
        <time>2024-01-30T15:01:04.000Z</time>
      </trkpt>
      <trkpt lat="44.61118" lon="3.07399">
        <ele>1245.5999755859</ele>
        <time>2024-01-30T15:01:05.000Z</time>
      </trkpt>
      <trkpt lat="44.6113" lon="3.07389">
        <ele>1245.4000244141</ele>
        <time>2024-01-30T15:01:06.000Z</time>
      </trkpt>
      <trkpt lat="44.61141" lon="3.07377">
        <ele>1245</ele>
        <time>2024-01-30T15:01:07.000Z</time>
      </trkpt>
      <trkpt lat="44.6115" lon="3.07364">
        <ele>1244.4000244141</ele>
        <time>2024-01-30T15:01:08.000Z</time>
      </trkpt>
      <trkpt lat="44.61179" lon="3.07326">
        <ele>1243.8000488281</ele>
        <time>2024-01-30T15:01:11.000Z</time>
      </trkpt>
      <trkpt lat="44.6119" lon="3.07317">
        <ele>1243.5999755859</ele>
        <time>2024-01-30T15:01:12.000Z</time>
      </trkpt>
      <trkpt lat="44.61241" lon="3.07283">
        <ele>1243.5999755859</ele>
        <time>2024-01-30T15:01:16.000Z</time>
      </trkpt>
      <trkpt lat="44.61254" lon="3.07273">
        <ele>1243.4000244141</ele>
        <time>2024-01-30T15:01:17.000Z</time>
      </trkpt>
      <trkpt lat="44.61303" lon="3.07241">
        <ele>1242.8000488281</ele>
        <time>2024-01-30T15:01:21.000Z</time>
      </trkpt>
      <trkpt lat="44.61314" lon="3.07239">
        <ele>1242</ele>
        <time>2024-01-30T15:01:22.000Z</time>
      </trkpt>
      <trkpt lat="44.61324" lon="3.07242">
        <ele>1241.5999755859</ele>
        <time>2024-01-30T15:01:23.000Z</time>
      </trkpt>
      <trkpt lat="44.61331" lon="3.07248">
        <ele>1241.5999755859</ele>
        <time>2024-01-30T15:01:24.000Z</time>
      </trkpt>
      <trkpt lat="44.61338" lon="3.07259">
        <ele>1241.4000244141</ele>
        <time>2024-01-30T15:01:25.000Z</time>
      </trkpt>
      <trkpt lat="44.61352" lon="3.07282">
        <ele>1241.1999511719</ele>
        <time>2024-01-30T15:01:27.000Z</time>
      </trkpt>
      <trkpt lat="44.61373" lon="3.07298">
        <ele>1241.1999511719</ele>
        <time>2024-01-30T15:01:29.000Z</time>
      </trkpt>
      <trkpt lat="44.61397" lon="3.07302">
        <ele>1241.1999511719</ele>
        <time>2024-01-30T15:01:31.000Z</time>
      </trkpt>
      <trkpt lat="44.61436" lon="3.07298">
        <ele>1241.1999511719</ele>
        <time>2024-01-30T15:01:34.000Z</time>
      </trkpt>
      <trkpt lat="44.6145" lon="3.073">
        <ele>1241.1999511719</ele>
        <time>2024-01-30T15:01:35.000Z</time>
      </trkpt>
      <trkpt lat="44.61464" lon="3.07305">
        <ele>1241</ele>
        <time>2024-01-30T15:01:36.000Z</time>
      </trkpt>
      <trkpt lat="44.61493" lon="3.07318">
        <ele>1240.8000488281</ele>
        <time>2024-01-30T15:01:38.000Z</time>
      </trkpt>
      <trkpt lat="44.61524" lon="3.07335">
        <ele>1240.4000244141</ele>
        <time>2024-01-30T15:01:40.000Z</time>
      </trkpt>
      <trkpt lat="44.61568" lon="3.07355">
        <ele>1239.8000488281</ele>
        <time>2024-01-30T15:01:43.000Z</time>
      </trkpt>
      <trkpt lat="44.61611" lon="3.07357">
        <ele>1239.1999511719</ele>
        <time>2024-01-30T15:01:46.000Z</time>
      </trkpt>
      <trkpt lat="44.61633" lon="3.07339">
        <ele>1238.1999511719</ele>
        <time>2024-01-30T15:01:48.000Z</time>
      </trkpt>
      <trkpt lat="44.61652" lon="3.07313">
        <ele>1238.1999511719</ele>
        <time>2024-01-30T15:01:50.000Z</time>
      </trkpt>
      <trkpt lat="44.61663" lon="3.07299">
        <ele>1238</ele>
        <time>2024-01-30T15:01:51.000Z</time>
      </trkpt>
      <trkpt lat="44.6171" lon="3.07249">
        <ele>1238</ele>
        <time>2024-01-30T15:01:55.000Z</time>
      </trkpt>
      <trkpt lat="44.61766" lon="3.07207">
        <ele>1238</ele>
        <time>2024-01-30T15:01:59.000Z</time>
      </trkpt>
      <trkpt lat="44.61781" lon="3.07196">
        <ele>1237.8000488281</ele>
        <time>2024-01-30T15:02:00.000Z</time>
      </trkpt>
      <trkpt lat="44.61825" lon="3.07166">
        <ele>1237</ele>
        <time>2024-01-30T15:02:03.000Z</time>
      </trkpt>
      <trkpt lat="44.6184" lon="3.07159">
        <ele>1236.5999755859</ele>
        <time>2024-01-30T15:02:04.000Z</time>
      </trkpt>
      <trkpt lat="44.6187" lon="3.07149">
        <ele>1236.4000244141</ele>
        <time>2024-01-30T15:02:06.000Z</time>
      </trkpt>
      <trkpt lat="44.61885" lon="3.07147">
        <ele>1236.4000244141</ele>
        <time>2024-01-30T15:02:07.000Z</time>
      </trkpt>
      <trkpt lat="44.619" lon="3.07149">
        <ele>1236.4000244141</ele>
        <time>2024-01-30T15:02:08.000Z</time>
      </trkpt>
      <trkpt lat="44.6193" lon="3.07155">
        <ele>1236.4000244141</ele>
        <time>2024-01-30T15:02:10.000Z</time>
      </trkpt>
      <trkpt lat="44.61991" lon="3.07167">
        <ele>1236.5999755859</ele>
        <time>2024-01-30T15:02:14.000Z</time>
      </trkpt>
      <trkpt lat="44.62053" lon="3.07178">
        <ele>1236.8000488281</ele>
        <time>2024-01-30T15:02:18.000Z</time>
      </trkpt>
      <trkpt lat="44.62116" lon="3.07187">
        <ele>1236.5999755859</ele>
        <time>2024-01-30T15:02:22.000Z</time>
      </trkpt>
      <trkpt lat="44.62149" lon="3.07189">
        <ele>1236</ele>
        <time>2024-01-30T15:02:24.000Z</time>
      </trkpt>
      <trkpt lat="44.62164" lon="3.07188">
        <ele>1235.1999511719</ele>
        <time>2024-01-30T15:02:25.000Z</time>
      </trkpt>
      <trkpt lat="44.6218" lon="3.07186">
        <ele>1234.8000488281</ele>
        <time>2024-01-30T15:02:26.000Z</time>
      </trkpt>
      <trkpt lat="44.62224" lon="3.07176">
        <ele>1233.4000244141</ele>
        <time>2024-01-30T15:02:29.000Z</time>
      </trkpt>
      <trkpt lat="44.62237" lon="3.07171">
        <ele>1233</ele>
        <time>2024-01-30T15:02:30.000Z</time>
      </trkpt>
      <trkpt lat="44.62249" lon="3.07164">
        <ele>1232</ele>
        <time>2024-01-30T15:02:31.000Z</time>
      </trkpt>
      <trkpt lat="44.62259" lon="3.07156">
        <ele>1231.4000244141</ele>
        <time>2024-01-30T15:02:32.000Z</time>
      </trkpt>
      <trkpt lat="44.62267" lon="3.07146">
        <ele>1230.5999755859</ele>
        <time>2024-01-30T15:02:33.000Z</time>
      </trkpt>
      <trkpt lat="44.62273" lon="3.07133">
        <ele>1230.4000244141</ele>
        <time>2024-01-30T15:02:34.000Z</time>
      </trkpt>
      <trkpt lat="44.62282" lon="3.07105">
        <ele>1230.1999511719</ele>
        <time>2024-01-30T15:02:36.000Z</time>
      </trkpt>
      <trkpt lat="44.62288" lon="3.07092">
        <ele>1230</ele>
        <time>2024-01-30T15:02:37.000Z</time>
      </trkpt>
      <trkpt lat="44.62295" lon="3.0708">
        <ele>1230</ele>
        <time>2024-01-30T15:02:38.000Z</time>
      </trkpt>
      <trkpt lat="44.62313" lon="3.07061">
        <ele>1229.5999755859</ele>
        <time>2024-01-30T15:02:40.000Z</time>
      </trkpt>
      <trkpt lat="44.62321" lon="3.07053">
        <ele>1229.1999511719</ele>
        <time>2024-01-30T15:02:41.000Z</time>
      </trkpt>
      <trkpt lat="44.62328" lon="3.07044">
        <ele>1228.8000488281</ele>
        <time>2024-01-30T15:02:42.000Z</time>
      </trkpt>
      <trkpt lat="44.62333" lon="3.07035">
        <ele>1227.8000488281</ele>
        <time>2024-01-30T15:02:43.000Z</time>
      </trkpt>
      <trkpt lat="44.62337" lon="3.07026">
        <ele>1227.1999511719</ele>
        <time>2024-01-30T15:02:44.000Z</time>
      </trkpt>
      <trkpt lat="44.62339" lon="3.07003">
        <ele>1226.8000488281</ele>
        <time>2024-01-30T15:02:46.000Z</time>
      </trkpt>
      <trkpt lat="44.62338" lon="3.06991">
        <ele>1226.8000488281</ele>
        <time>2024-01-30T15:02:47.000Z</time>
      </trkpt>
      <trkpt lat="44.62336" lon="3.06979">
        <ele>1226.5999755859</ele>
        <time>2024-01-30T15:02:48.000Z</time>
      </trkpt>
      <trkpt lat="44.62329" lon="3.06955">
        <ele>1226.5999755859</ele>
        <time>2024-01-30T15:02:50.000Z</time>
      </trkpt>
      <trkpt lat="44.62315" lon="3.06913">
        <ele>1227.5999755859</ele>
        <time>2024-01-30T15:02:53.000Z</time>
      </trkpt>
      <trkpt lat="44.62311" lon="3.06897">
        <ele>1228</ele>
        <time>2024-01-30T15:02:54.000Z</time>
      </trkpt>
      <trkpt lat="44.62299" lon="3.06847">
        <ele>1228.5999755859</ele>
        <time>2024-01-30T15:02:57.000Z</time>
      </trkpt>
      <trkpt lat="44.62292" lon="3.06831">
        <ele>1228.5999755859</ele>
        <time>2024-01-30T15:02:58.000Z</time>
      </trkpt>
      <trkpt lat="44.62287" lon="3.06815">
        <ele>1228.5999755859</ele>
        <time>2024-01-30T15:02:59.000Z</time>
      </trkpt>
      <trkpt lat="44.62283" lon="3.06783">
        <ele>1228.5999755859</ele>
        <time>2024-01-30T15:03:01.000Z</time>
      </trkpt>
      <trkpt lat="44.6229" lon="3.06754">
        <ele>1228.8000488281</ele>
        <time>2024-01-30T15:03:03.000Z</time>
      </trkpt>
      <trkpt lat="44.62297" lon="3.06742">
        <ele>1229.1999511719</ele>
        <time>2024-01-30T15:03:04.000Z</time>
      </trkpt>
      <trkpt lat="44.62306" lon="3.06732">
        <ele>1229.8000488281</ele>
        <time>2024-01-30T15:03:05.000Z</time>
      </trkpt>
      <trkpt lat="44.62316" lon="3.06724">
        <ele>1230.4000244141</ele>
        <time>2024-01-30T15:03:06.000Z</time>
      </trkpt>
      <trkpt lat="44.6234" lon="3.06713">
        <ele>1231</ele>
        <time>2024-01-30T15:03:08.000Z</time>
      </trkpt>
      <trkpt lat="44.62375" lon="3.06694">
        <ele>1231.4000244141</ele>
        <time>2024-01-30T15:03:11.000Z</time>
      </trkpt>
      <trkpt lat="44.62388" lon="3.0669">
        <ele>1231.4000244141</ele>
        <time>2024-01-30T15:03:12.000Z</time>
      </trkpt>
      <trkpt lat="44.62401" lon="3.06688">
        <ele>1231.4000244141</ele>
        <time>2024-01-30T15:03:13.000Z</time>
      </trkpt>
      <trkpt lat="44.62427" lon="3.06691">
        <ele>1231.1999511719</ele>
        <time>2024-01-30T15:03:15.000Z</time>
      </trkpt>
      <trkpt lat="44.6246" lon="3.06695">
        <ele>1230</ele>
        <time>2024-01-30T15:03:18.000Z</time>
      </trkpt>
      <trkpt lat="44.62478" lon="3.06685">
        <ele>1229.1999511719</ele>
        <time>2024-01-30T15:03:20.000Z</time>
      </trkpt>
      <trkpt lat="44.62487" lon="3.06662">
        <ele>1229</ele>
        <time>2024-01-30T15:03:22.000Z</time>
      </trkpt>
      <trkpt lat="44.62495" lon="3.06616">
        <ele>1229</ele>
        <time>2024-01-30T15:03:25.000Z</time>
      </trkpt>
      <trkpt lat="44.62504" lon="3.06585">
        <ele>1229.5999755859</ele>
        <time>2024-01-30T15:03:27.000Z</time>
      </trkpt>
      <trkpt lat="44.62511" lon="3.06571">
        <ele>1229.5999755859</ele>
        <time>2024-01-30T15:03:28.000Z</time>
      </trkpt>
      <trkpt lat="44.62519" lon="3.06558">
        <ele>1229.5999755859</ele>
        <time>2024-01-30T15:03:29.000Z</time>
      </trkpt>
      <trkpt lat="44.62543" lon="3.06524">
        <ele>1229.5999755859</ele>
        <time>2024-01-30T15:03:32.000Z</time>
      </trkpt>
      <trkpt lat="44.62555" lon="3.06497">
        <ele>1229.1999511719</ele>
        <time>2024-01-30T15:03:34.000Z</time>
      </trkpt>
      <trkpt lat="44.6256" lon="3.06482">
        <ele>1229</ele>
        <time>2024-01-30T15:03:35.000Z</time>
      </trkpt>
      <trkpt lat="44.62567" lon="3.06449">
        <ele>1228.8000488281</ele>
        <time>2024-01-30T15:03:37.000Z</time>
      </trkpt>
      <trkpt lat="44.6258" lon="3.06419">
        <ele>1228.1999511719</ele>
        <time>2024-01-30T15:03:39.000Z</time>
      </trkpt>
      <trkpt lat="44.62589" lon="3.06407">
        <ele>1228.1999511719</ele>
        <time>2024-01-30T15:03:40.000Z</time>
      </trkpt>
      <trkpt lat="44.6261" lon="3.06385">
        <ele>1228</ele>
        <time>2024-01-30T15:03:42.000Z</time>
      </trkpt>
      <trkpt lat="44.62648" lon="3.06332">
        <ele>1227.5999755859</ele>
        <time>2024-01-30T15:03:46.000Z</time>
      </trkpt>
      <trkpt lat="44.62658" lon="3.06319">
        <ele>1227.1999511719</ele>
        <time>2024-01-30T15:03:47.000Z</time>
      </trkpt>
      <trkpt lat="44.62668" lon="3.06306">
        <ele>1227</ele>
        <time>2024-01-30T15:03:48.000Z</time>
      </trkpt>
      <trkpt lat="44.6269" lon="3.06286">
        <ele>1226.8000488281</ele>
        <time>2024-01-30T15:03:50.000Z</time>
      </trkpt>
      <trkpt lat="44.62714" lon="3.06283">
        <ele>1226.8000488281</ele>
        <time>2024-01-30T15:03:52.000Z</time>
      </trkpt>
      <trkpt lat="44.62761" lon="3.06296">
        <ele>1228.1999511719</ele>
        <time>2024-01-30T15:03:56.000Z</time>
      </trkpt>
      <trkpt lat="44.6278" lon="3.06296">
        <ele>1229</ele>
        <time>2024-01-30T15:03:58.000Z</time>
      </trkpt>
      <trkpt lat="44.6279" lon="3.06293">
        <ele>1229.1999511719</ele>
        <time>2024-01-30T15:03:59.000Z</time>
      </trkpt>
      <trkpt lat="44.62798" lon="3.06287">
        <ele>1229.5999755859</ele>
        <time>2024-01-30T15:04:00.000Z</time>
      </trkpt>
      <trkpt lat="44.62803" lon="3.06278">
        <ele>1229.5999755859</ele>
        <time>2024-01-30T15:04:01.000Z</time>
      </trkpt>
      <trkpt lat="44.62807" lon="3.06266">
        <ele>1230</ele>
        <time>2024-01-30T15:04:02.000Z</time>
      </trkpt>
      <trkpt lat="44.62813" lon="3.06237">
        <ele>1231.4000244141</ele>
        <time>2024-01-30T15:04:04.000Z</time>
      </trkpt>
      <trkpt lat="44.62817" lon="3.0619">
        <ele>1231.8000488281</ele>
        <time>2024-01-30T15:04:07.000Z</time>
      </trkpt>
      <trkpt lat="44.6282" lon="3.06176">
        <ele>1231.8000488281</ele>
        <time>2024-01-30T15:04:08.000Z</time>
      </trkpt>
      <trkpt lat="44.62826" lon="3.06165">
        <ele>1232</ele>
        <time>2024-01-30T15:04:09.000Z</time>
      </trkpt>
      <trkpt lat="44.62834" lon="3.06156">
        <ele>1232</ele>
        <time>2024-01-30T15:04:10.000Z</time>
      </trkpt>
      <trkpt lat="44.62844" lon="3.06149">
        <ele>1232</ele>
        <time>2024-01-30T15:04:11.000Z</time>
      </trkpt>
      <trkpt lat="44.62865" lon="3.06134">
        <ele>1232.5999755859</ele>
        <time>2024-01-30T15:04:13.000Z</time>
      </trkpt>
      <trkpt lat="44.62875" lon="3.06125">
        <ele>1233.1999511719</ele>
        <time>2024-01-30T15:04:14.000Z</time>
      </trkpt>
      <trkpt lat="44.62896" lon="3.06103">
        <ele>1233.5999755859</ele>
        <time>2024-01-30T15:04:16.000Z</time>
      </trkpt>
      <trkpt lat="44.62918" lon="3.06078">
        <ele>1234.4000244141</ele>
        <time>2024-01-30T15:04:18.000Z</time>
      </trkpt>
      <trkpt lat="44.6294" lon="3.06054">
        <ele>1234.8000488281</ele>
        <time>2024-01-30T15:04:20.000Z</time>
      </trkpt>
      <trkpt lat="44.62969" lon="3.06019">
        <ele>1234.8000488281</ele>
        <time>2024-01-30T15:04:23.000Z</time>
      </trkpt>
      <trkpt lat="44.62983" lon="3.05992">
        <ele>1235</ele>
        <time>2024-01-30T15:04:25.000Z</time>
      </trkpt>
      <trkpt lat="44.62988" lon="3.05978">
        <ele>1235</ele>
        <time>2024-01-30T15:04:26.000Z</time>
      </trkpt>
      <trkpt lat="44.62991" lon="3.05964">
        <ele>1234.8000488281</ele>
        <time>2024-01-30T15:04:27.000Z</time>
      </trkpt>
      <trkpt lat="44.62993" lon="3.05934">
        <ele>1234.8000488281</ele>
        <time>2024-01-30T15:04:29.000Z</time>
      </trkpt>
      <trkpt lat="44.62991" lon="3.05869">
        <ele>1234</ele>
        <time>2024-01-30T15:04:33.000Z</time>
      </trkpt>
      <trkpt lat="44.63" lon="3.05839">
        <ele>1233.8000488281</ele>
        <time>2024-01-30T15:04:35.000Z</time>
      </trkpt>
      <trkpt lat="44.63017" lon="3.05819">
        <ele>1233.4000244141</ele>
        <time>2024-01-30T15:04:37.000Z</time>
      </trkpt>
      <trkpt lat="44.63041" lon="3.05815">
        <ele>1233.4000244141</ele>
        <time>2024-01-30T15:04:39.000Z</time>
      </trkpt>
      <trkpt lat="44.63081" lon="3.0582">
        <ele>1234</ele>
        <time>2024-01-30T15:04:42.000Z</time>
      </trkpt>
      <trkpt lat="44.63122" lon="3.05832">
        <ele>1234.8000488281</ele>
        <time>2024-01-30T15:04:45.000Z</time>
      </trkpt>
      <trkpt lat="44.63136" lon="3.05839">
        <ele>1235</ele>
        <time>2024-01-30T15:04:46.000Z</time>
      </trkpt>
      <trkpt lat="44.63186" lon="3.05875">
        <ele>1235.1999511719</ele>
        <time>2024-01-30T15:04:50.000Z</time>
      </trkpt>
      <trkpt lat="44.63244" lon="3.0592">
        <ele>1235</ele>
        <time>2024-01-30T15:04:54.000Z</time>
      </trkpt>
      <trkpt lat="44.63259" lon="3.05932">
        <ele>1234.5999755859</ele>
        <time>2024-01-30T15:04:55.000Z</time>
      </trkpt>
      <trkpt lat="44.63304" lon="3.05966">
        <ele>1233.4000244141</ele>
        <time>2024-01-30T15:04:58.000Z</time>
      </trkpt>
      <trkpt lat="44.63366" lon="3.06012">
        <ele>1231.5999755859</ele>
        <time>2024-01-30T15:05:02.000Z</time>
      </trkpt>
      <trkpt lat="44.63383" lon="3.06025">
        <ele>1231.4000244141</ele>
        <time>2024-01-30T15:05:03.000Z</time>
      </trkpt>
      <trkpt lat="44.63415" lon="3.06049">
        <ele>1230.4000244141</ele>
        <time>2024-01-30T15:05:05.000Z</time>
      </trkpt>
      <trkpt lat="44.63476" lon="3.06093">
        <ele>1229</ele>
        <time>2024-01-30T15:05:09.000Z</time>
      </trkpt>
      <trkpt lat="44.63521" lon="3.06125">
        <ele>1228.1999511719</ele>
        <time>2024-01-30T15:05:12.000Z</time>
      </trkpt>
      <trkpt lat="44.63536" lon="3.06136">
        <ele>1227.5999755859</ele>
        <time>2024-01-30T15:05:13.000Z</time>
      </trkpt>
      <trkpt lat="44.63566" lon="3.06157">
        <ele>1226.1999511719</ele>
        <time>2024-01-30T15:05:15.000Z</time>
      </trkpt>
      <trkpt lat="44.63594" lon="3.06176">
        <ele>1226</ele>
        <time>2024-01-30T15:05:17.000Z</time>
      </trkpt>
      <trkpt lat="44.6365" lon="3.06205">
        <ele>1224.5999755859</ele>
        <time>2024-01-30T15:05:21.000Z</time>
      </trkpt>
      <trkpt lat="44.63693" lon="3.06224">
        <ele>1223.4000244141</ele>
        <time>2024-01-30T15:05:24.000Z</time>
      </trkpt>
      <trkpt lat="44.63722" lon="3.06238">
        <ele>1222.5999755859</ele>
        <time>2024-01-30T15:05:26.000Z</time>
      </trkpt>
      <trkpt lat="44.63752" lon="3.06254">
        <ele>1222</ele>
        <time>2024-01-30T15:05:28.000Z</time>
      </trkpt>
      <trkpt lat="44.63783" lon="3.0627">
        <ele>1220.8000488281</ele>
        <time>2024-01-30T15:05:30.000Z</time>
      </trkpt>
      <trkpt lat="44.63797" lon="3.06278">
        <ele>1219.5999755859</ele>
        <time>2024-01-30T15:05:31.000Z</time>
      </trkpt>
      <trkpt lat="44.63821" lon="3.06297">
        <ele>1218.4000244141</ele>
        <time>2024-01-30T15:05:33.000Z</time>
      </trkpt>
      <trkpt lat="44.63831" lon="3.0631">
        <ele>1218</ele>
        <time>2024-01-30T15:05:34.000Z</time>
      </trkpt>
      <trkpt lat="44.63856" lon="3.06353">
        <ele>1217.5999755859</ele>
        <time>2024-01-30T15:05:37.000Z</time>
      </trkpt>
      <trkpt lat="44.63893" lon="3.06381">
        <ele>1218.5999755859</ele>
        <time>2024-01-30T15:05:40.000Z</time>
      </trkpt>
      <trkpt lat="44.63951" lon="3.0641">
        <ele>1219.1999511719</ele>
        <time>2024-01-30T15:05:44.000Z</time>
      </trkpt>
      <trkpt lat="44.63965" lon="3.06416">
        <ele>1219.4000244141</ele>
        <time>2024-01-30T15:05:45.000Z</time>
      </trkpt>
      <trkpt lat="44.63993" lon="3.06432">
        <ele>1219.8000488281</ele>
        <time>2024-01-30T15:05:47.000Z</time>
      </trkpt>
      <trkpt lat="44.6402" lon="3.06453">
        <ele>1219.8000488281</ele>
        <time>2024-01-30T15:05:49.000Z</time>
      </trkpt>
      <trkpt lat="44.64061" lon="3.06479">
        <ele>1219.5999755859</ele>
        <time>2024-01-30T15:05:52.000Z</time>
      </trkpt>
      <trkpt lat="44.64075" lon="3.06485">
        <ele>1219.4000244141</ele>
        <time>2024-01-30T15:05:53.000Z</time>
      </trkpt>
      <trkpt lat="44.6409" lon="3.06489">
        <ele>1219.4000244141</ele>
        <time>2024-01-30T15:05:54.000Z</time>
      </trkpt>
      <trkpt lat="44.64119" lon="3.06491">
        <ele>1219</ele>
        <time>2024-01-30T15:05:56.000Z</time>
      </trkpt>
      <trkpt lat="44.64182" lon="3.06487">
        <ele>1218.4000244141</ele>
        <time>2024-01-30T15:06:00.000Z</time>
      </trkpt>
      <trkpt lat="44.64198" lon="3.06483">
        <ele>1218.4000244141</ele>
        <time>2024-01-30T15:06:01.000Z</time>
      </trkpt>
      <trkpt lat="44.64213" lon="3.06478">
        <ele>1218.1999511719</ele>
        <time>2024-01-30T15:06:02.000Z</time>
      </trkpt>
      <trkpt lat="44.64258" lon="3.06463">
        <ele>1217.8000488281</ele>
        <time>2024-01-30T15:06:05.000Z</time>
      </trkpt>
      <trkpt lat="44.64288" lon="3.06457">
        <ele>1217.1999511719</ele>
        <time>2024-01-30T15:06:07.000Z</time>
      </trkpt>
      <trkpt lat="44.64315" lon="3.06446">
        <ele>1216.8000488281</ele>
        <time>2024-01-30T15:06:09.000Z</time>
      </trkpt>
      <trkpt lat="44.64342" lon="3.06438">
        <ele>1216.4000244141</ele>
        <time>2024-01-30T15:06:11.000Z</time>
      </trkpt>
      <trkpt lat="44.64355" lon="3.06436">
        <ele>1216.1999511719</ele>
        <time>2024-01-30T15:06:12.000Z</time>
      </trkpt>
      <trkpt lat="44.64409" lon="3.06439">
        <ele>1216.5999755859</ele>
        <time>2024-01-30T15:06:16.000Z</time>
      </trkpt>
      <trkpt lat="44.64422" lon="3.0644">
        <ele>1216.8000488281</ele>
        <time>2024-01-30T15:06:17.000Z</time>
      </trkpt>
      <trkpt lat="44.64435" lon="3.06442">
        <ele>1217.4000244141</ele>
        <time>2024-01-30T15:06:18.000Z</time>
      </trkpt>
      <trkpt lat="44.64463" lon="3.06447">
        <ele>1218.4000244141</ele>
        <time>2024-01-30T15:06:20.000Z</time>
      </trkpt>
      <trkpt lat="44.64492" lon="3.0645">
        <ele>1219.8000488281</ele>
        <time>2024-01-30T15:06:22.000Z</time>
      </trkpt>
      <trkpt lat="44.64506" lon="3.06449">
        <ele>1220.4000244141</ele>
        <time>2024-01-30T15:06:23.000Z</time>
      </trkpt>
      <trkpt lat="44.64536" lon="3.06448">
        <ele>1221</ele>
        <time>2024-01-30T15:06:25.000Z</time>
      </trkpt>
      <trkpt lat="44.64565" lon="3.06452">
        <ele>1222</ele>
        <time>2024-01-30T15:06:27.000Z</time>
      </trkpt>
      <trkpt lat="44.64581" lon="3.06457">
        <ele>1222</ele>
        <time>2024-01-30T15:06:28.000Z</time>
      </trkpt>
      <trkpt lat="44.64643" lon="3.06484">
        <ele>1222.8000488281</ele>
        <time>2024-01-30T15:06:32.000Z</time>
      </trkpt>
      <trkpt lat="44.64706" lon="3.06514">
        <ele>1223.1999511719</ele>
        <time>2024-01-30T15:06:36.000Z</time>
      </trkpt>
      <trkpt lat="44.64748" lon="3.06534">
        <ele>1222.8000488281</ele>
        <time>2024-01-30T15:06:39.000Z</time>
      </trkpt>
      <trkpt lat="44.64761" lon="3.06538">
        <ele>1222.5999755859</ele>
        <time>2024-01-30T15:06:40.000Z</time>
      </trkpt>
      <trkpt lat="44.64786" lon="3.0654">
        <ele>1222.1999511719</ele>
        <time>2024-01-30T15:06:42.000Z</time>
      </trkpt>
      <trkpt lat="44.64811" lon="3.06529">
        <ele>1222</ele>
        <time>2024-01-30T15:06:44.000Z</time>
      </trkpt>
      <trkpt lat="44.64824" lon="3.06522">
        <ele>1222</ele>
        <time>2024-01-30T15:06:45.000Z</time>
      </trkpt>
      <trkpt lat="44.6485" lon="3.0651">
        <ele>1222</ele>
        <time>2024-01-30T15:06:47.000Z</time>
      </trkpt>
      <trkpt lat="44.64863" lon="3.06508">
        <ele>1222</ele>
        <time>2024-01-30T15:06:48.000Z</time>
      </trkpt>
      <trkpt lat="44.64876" lon="3.06509">
        <ele>1222</ele>
        <time>2024-01-30T15:06:49.000Z</time>
      </trkpt>
      <trkpt lat="44.64903" lon="3.06517">
        <ele>1221.8000488281</ele>
        <time>2024-01-30T15:06:51.000Z</time>
      </trkpt>
      <trkpt lat="44.64943" lon="3.06531">
        <ele>1221</ele>
        <time>2024-01-30T15:06:54.000Z</time>
      </trkpt>
      <trkpt lat="44.64958" lon="3.06532">
        <ele>1220.8000488281</ele>
        <time>2024-01-30T15:06:55.000Z</time>
      </trkpt>
      <trkpt lat="44.65009" lon="3.06532">
        <ele>1220.4000244141</ele>
        <time>2024-01-30T15:06:59.000Z</time>
      </trkpt>
      <trkpt lat="44.65038" lon="3.06542">
        <ele>1220.5999755859</ele>
        <time>2024-01-30T15:07:01.000Z</time>
      </trkpt>
      <trkpt lat="44.65051" lon="3.0655">
        <ele>1220.4000244141</ele>
        <time>2024-01-30T15:07:02.000Z</time>
      </trkpt>
      <trkpt lat="44.65084" lon="3.06582">
        <ele>1219.8000488281</ele>
        <time>2024-01-30T15:07:05.000Z</time>
      </trkpt>
      <trkpt lat="44.65096" lon="3.06595">
        <ele>1219.4000244141</ele>
        <time>2024-01-30T15:07:06.000Z</time>
      </trkpt>
      <trkpt lat="44.65131" lon="3.06633">
        <ele>1218.5999755859</ele>
        <time>2024-01-30T15:07:09.000Z</time>
      </trkpt>
      <trkpt lat="44.6517" lon="3.06668">
        <ele>1217.8000488281</ele>
        <time>2024-01-30T15:07:12.000Z</time>
      </trkpt>
      <trkpt lat="44.65177" lon="3.06673">
        <ele>1217.5999755859</ele>
        <time>2024-01-30T15:07:13.000Z</time>
      </trkpt>
      <trkpt lat="44.6523" lon="3.06714">
        <ele>1216.5999755859</ele>
        <time>2024-01-30T15:07:17.000Z</time>
      </trkpt>
      <trkpt lat="44.65237" lon="3.06719">
        <ele>1216.4000244141</ele>
        <time>2024-01-30T15:07:18.000Z</time>
      </trkpt>
      <trkpt lat="44.65246" lon="3.06723">
        <ele>1216.1999511719</ele>
        <time>2024-01-30T15:07:19.000Z</time>
      </trkpt>
      <trkpt lat="44.65263" lon="3.06726">
        <ele>1215.8000488281</ele>
        <time>2024-01-30T15:07:21.000Z</time>
      </trkpt>
      <trkpt lat="44.65279" lon="3.06722">
        <ele>1215.4000244141</ele>
        <time>2024-01-30T15:07:23.000Z</time>
      </trkpt>
      <trkpt lat="44.65283" lon="3.0672">
        <ele>1215.4000244141</ele>
        <time>2024-01-30T15:07:24.000Z</time>
      </trkpt>
      <trkpt lat="44.65288" lon="3.06718">
        <ele>1215.4000244141</ele>
        <time>2024-01-30T15:07:25.000Z</time>
      </trkpt>
      <trkpt lat="44.65293" lon="3.06718">
        <ele>1215.1999511719</ele>
        <time>2024-01-30T15:07:27.000Z</time>
      </trkpt>
      <trkpt lat="44.65293" lon="3.06718">
        <ele>1215.1999511719</ele>
        <time>2024-01-30T15:07:30.000Z</time>
      </trkpt>
      <trkpt lat="44.65301" lon="3.06712">
        <ele>1215.8000488281</ele>
        <time>2024-01-30T15:07:38.000Z</time>
      </trkpt>
      <trkpt lat="44.65311" lon="3.06694">
        <ele>1215.8000488281</ele>
        <time>2024-01-30T15:07:42.000Z</time>
      </trkpt>
      <trkpt lat="44.65319" lon="3.06682">
        <ele>1216</ele>
        <time>2024-01-30T15:07:44.000Z</time>
      </trkpt>
      <trkpt lat="44.65328" lon="3.06665">
        <ele>1216</ele>
        <time>2024-01-30T15:07:46.000Z</time>
      </trkpt>
      <trkpt lat="44.65332" lon="3.06653">
        <ele>1216.1999511719</ele>
        <time>2024-01-30T15:07:47.000Z</time>
      </trkpt>
      <trkpt lat="44.6534" lon="3.06626">
        <ele>1216.4000244141</ele>
        <time>2024-01-30T15:07:49.000Z</time>
      </trkpt>
      <trkpt lat="44.65357" lon="3.0656">
        <ele>1216.4000244141</ele>
        <time>2024-01-30T15:07:53.000Z</time>
      </trkpt>
      <trkpt lat="44.65376" lon="3.06535">
        <ele>1216.1999511719</ele>
        <time>2024-01-30T15:07:55.000Z</time>
      </trkpt>
      <trkpt lat="44.65414" lon="3.06502">
        <ele>1216</ele>
        <time>2024-01-30T15:07:58.000Z</time>
      </trkpt>
      <trkpt lat="44.65438" lon="3.06473">
        <ele>1215.5999755859</ele>
        <time>2024-01-30T15:08:00.000Z</time>
      </trkpt>
      <trkpt lat="44.65466" lon="3.06438">
        <ele>1215.1999511719</ele>
        <time>2024-01-30T15:08:02.000Z</time>
      </trkpt>
      <trkpt lat="44.6549" lon="3.06409">
        <ele>1214.1999511719</ele>
        <time>2024-01-30T15:08:04.000Z</time>
      </trkpt>
      <trkpt lat="44.65513" lon="3.06383">
        <ele>1212.8000488281</ele>
        <time>2024-01-30T15:08:06.000Z</time>
      </trkpt>
      <trkpt lat="44.65523" lon="3.06371">
        <ele>1212.1999511719</ele>
        <time>2024-01-30T15:08:07.000Z</time>
      </trkpt>
      <trkpt lat="44.65531" lon="3.06356">
        <ele>1211.5999755859</ele>
        <time>2024-01-30T15:08:08.000Z</time>
      </trkpt>
      <trkpt lat="44.65537" lon="3.06341">
        <ele>1210.8000488281</ele>
        <time>2024-01-30T15:08:09.000Z</time>
      </trkpt>
      <trkpt lat="44.6554" lon="3.06323">
        <ele>1210.4000244141</ele>
        <time>2024-01-30T15:08:10.000Z</time>
      </trkpt>
      <trkpt lat="44.65541" lon="3.06304">
        <ele>1209.8000488281</ele>
        <time>2024-01-30T15:08:11.000Z</time>
      </trkpt>
      <trkpt lat="44.65534" lon="3.06266">
        <ele>1209</ele>
        <time>2024-01-30T15:08:13.000Z</time>
      </trkpt>
      <trkpt lat="44.65518" lon="3.06211">
        <ele>1207.8000488281</ele>
        <time>2024-01-30T15:08:16.000Z</time>
      </trkpt>
      <trkpt lat="44.65517" lon="3.06193">
        <ele>1207</ele>
        <time>2024-01-30T15:08:17.000Z</time>
      </trkpt>
      <trkpt lat="44.65518" lon="3.06175">
        <ele>1207</ele>
        <time>2024-01-30T15:08:18.000Z</time>
      </trkpt>
      <trkpt lat="44.6553" lon="3.06134">
        <ele>1206.8000488281</ele>
        <time>2024-01-30T15:08:20.000Z</time>
      </trkpt>
      <trkpt lat="44.65565" lon="3.06061">
        <ele>1208</ele>
        <time>2024-01-30T15:08:24.000Z</time>
      </trkpt>
      <trkpt lat="44.65584" lon="3.06032">
        <ele>1209</ele>
        <time>2024-01-30T15:08:26.000Z</time>
      </trkpt>
      <trkpt lat="44.65597" lon="3.06017">
        <ele>1209.1999511719</ele>
        <time>2024-01-30T15:08:27.000Z</time>
      </trkpt>
      <trkpt lat="44.65625" lon="3.05984">
        <ele>1210.4000244141</ele>
        <time>2024-01-30T15:08:29.000Z</time>
      </trkpt>
      <trkpt lat="44.65648" lon="3.05956">
        <ele>1211.1999511719</ele>
        <time>2024-01-30T15:08:31.000Z</time>
      </trkpt>
      <trkpt lat="44.65686" lon="3.05887">
        <ele>1211.1999511719</ele>
        <time>2024-01-30T15:08:35.000Z</time>
      </trkpt>
      <trkpt lat="44.6569" lon="3.05858">
        <ele>1211.4000244141</ele>
        <time>2024-01-30T15:08:37.000Z</time>
      </trkpt>
      <trkpt lat="44.65687" lon="3.05826">
        <ele>1211.5999755859</ele>
        <time>2024-01-30T15:08:39.000Z</time>
      </trkpt>
      <trkpt lat="44.65683" lon="3.0581">
        <ele>1212</ele>
        <time>2024-01-30T15:08:40.000Z</time>
      </trkpt>
      <trkpt lat="44.65676" lon="3.05791">
        <ele>1212.4000244141</ele>
        <time>2024-01-30T15:08:41.000Z</time>
      </trkpt>
      <trkpt lat="44.65667" lon="3.05778">
        <ele>1212.4000244141</ele>
        <time>2024-01-30T15:08:42.000Z</time>
      </trkpt>
      <trkpt lat="44.65658" lon="3.0577">
        <ele>1212.5999755859</ele>
        <time>2024-01-30T15:08:43.000Z</time>
      </trkpt>
      <trkpt lat="44.65636" lon="3.05757">
        <ele>1216.8000488281</ele>
        <time>2024-01-30T15:08:45.000Z</time>
      </trkpt>
      <trkpt lat="44.65615" lon="3.05741">
        <ele>1216.5999755859</ele>
        <time>2024-01-30T15:08:47.000Z</time>
      </trkpt>
      <trkpt lat="44.65608" lon="3.05733">
        <ele>1216.5999755859</ele>
        <time>2024-01-30T15:08:48.000Z</time>
      </trkpt>
      <trkpt lat="44.65605" lon="3.05723">
        <ele>1216</ele>
        <time>2024-01-30T15:08:49.000Z</time>
      </trkpt>
      <trkpt lat="44.65604" lon="3.05713">
        <ele>1215.1999511719</ele>
        <time>2024-01-30T15:08:50.000Z</time>
      </trkpt>
      <trkpt lat="44.65607" lon="3.05703">
        <ele>1214.4000244141</ele>
        <time>2024-01-30T15:08:51.000Z</time>
      </trkpt>
      <trkpt lat="44.65613" lon="3.05692">
        <ele>1214</ele>
        <time>2024-01-30T15:08:52.000Z</time>
      </trkpt>
      <trkpt lat="44.6562" lon="3.05687">
        <ele>1213.8000488281</ele>
        <time>2024-01-30T15:08:53.000Z</time>
      </trkpt>
      <trkpt lat="44.6564" lon="3.05676">
        <ele>1213.8000488281</ele>
        <time>2024-01-30T15:08:55.000Z</time>
      </trkpt>
      <trkpt lat="44.6568" lon="3.0566">
        <ele>1214.4000244141</ele>
        <time>2024-01-30T15:08:58.000Z</time>
      </trkpt>
      <trkpt lat="44.65738" lon="3.05635">
        <ele>1213</ele>
        <time>2024-01-30T15:09:02.000Z</time>
      </trkpt>
      <trkpt lat="44.6575" lon="3.05626">
        <ele>1210.5999755859</ele>
        <time>2024-01-30T15:09:03.000Z</time>
      </trkpt>
      <trkpt lat="44.65757" lon="3.05616">
        <ele>1209.4000244141</ele>
        <time>2024-01-30T15:09:04.000Z</time>
      </trkpt>
      <trkpt lat="44.65773" lon="3.05584">
        <ele>1208.1999511719</ele>
        <time>2024-01-30T15:09:06.000Z</time>
      </trkpt>
      <trkpt lat="44.65775" lon="3.05566">
        <ele>1206.5999755859</ele>
        <time>2024-01-30T15:09:07.000Z</time>
      </trkpt>
      <trkpt lat="44.65775" lon="3.05549">
        <ele>1206.1999511719</ele>
        <time>2024-01-30T15:09:08.000Z</time>
      </trkpt>
      <trkpt lat="44.65771" lon="3.05511">
        <ele>1206.1999511719</ele>
        <time>2024-01-30T15:09:10.000Z</time>
      </trkpt>
      <trkpt lat="44.65765" lon="3.05471">
        <ele>1206</ele>
        <time>2024-01-30T15:09:12.000Z</time>
        <extensions>
          <gpxtpx:TrackPointExtension xmlns:gpxtpx="http://www.garmin.com/xmlschemas/TrackPointExtension/v1">
            <gpxtpx:hr>72</gpxtpx:hr>
          </gpxtpx:TrackPointExtension>
        </extensions>
      </trkpt>
      <trkpt lat="44.65765" lon="3.05457">
        <ele>1206</ele>
        <time>2024-01-30T15:09:13.000Z</time>
        <extensions>
          <gpxtpx:TrackPointExtension xmlns:gpxtpx="http://www.garmin.com/xmlschemas/TrackPointExtension/v1">
            <gpxtpx:hr>71</gpxtpx:hr>
          </gpxtpx:TrackPointExtension>
        </extensions>
      </trkpt>
      <trkpt lat="44.65767" lon="3.05439">
        <ele>1205.4000244141</ele>
        <time>2024-01-30T15:09:14.000Z</time>
        <extensions>
          <gpxtpx:TrackPointExtension xmlns:gpxtpx="http://www.garmin.com/xmlschemas/TrackPointExtension/v1">
            <gpxtpx:hr>75</gpxtpx:hr>
          </gpxtpx:TrackPointExtension>
        </extensions>
      </trkpt>
      <trkpt lat="44.65772" lon="3.05422">
        <ele>1205</ele>
        <time>2024-01-30T15:09:15.000Z</time>
        <extensions>
          <gpxtpx:TrackPointExtension xmlns:gpxtpx="http://www.garmin.com/xmlschemas/TrackPointExtension/v1">
            <gpxtpx:hr>79</gpxtpx:hr>
          </gpxtpx:TrackPointExtension>
        </extensions>
      </trkpt>
      <trkpt lat="44.65778" lon="3.05405">
        <ele>1204.8000488281</ele>
        <time>2024-01-30T15:09:16.000Z</time>
        <extensions>
          <gpxtpx:TrackPointExtension xmlns:gpxtpx="http://www.garmin.com/xmlschemas/TrackPointExtension/v1">
            <gpxtpx:hr>78</gpxtpx:hr>
          </gpxtpx:TrackPointExtension>
        </extensions>
      </trkpt>
      <trkpt lat="44.65786" lon="3.05389">
        <ele>1204.8000488281</ele>
        <time>2024-01-30T15:09:17.000Z</time>
        <extensions>
          <gpxtpx:TrackPointExtension xmlns:gpxtpx="http://www.garmin.com/xmlschemas/TrackPointExtension/v1">
            <gpxtpx:hr>77</gpxtpx:hr>
          </gpxtpx:TrackPointExtension>
        </extensions>
      </trkpt>
      <trkpt lat="44.65815" lon="3.05339">
        <ele>1204.1999511719</ele>
        <time>2024-01-30T15:09:20.000Z</time>
        <extensions>
          <gpxtpx:TrackPointExtension xmlns:gpxtpx="http://www.garmin.com/xmlschemas/TrackPointExtension/v1">
            <gpxtpx:hr>75</gpxtpx:hr>
          </gpxtpx:TrackPointExtension>
        </extensions>
      </trkpt>
      <trkpt lat="44.65834" lon="3.05306">
        <ele>1202.8000488281</ele>
        <time>2024-01-30T15:09:22.000Z</time>
        <extensions>
          <gpxtpx:TrackPointExtension xmlns:gpxtpx="http://www.garmin.com/xmlschemas/TrackPointExtension/v1">
            <gpxtpx:hr>76</gpxtpx:hr>
          </gpxtpx:TrackPointExtension>
        </extensions>
      </trkpt>
      <trkpt lat="44.65844" lon="3.05289">
        <ele>1201.5999755859</ele>
        <time>2024-01-30T15:09:23.000Z</time>
        <extensions>
          <gpxtpx:TrackPointExtension xmlns:gpxtpx="http://www.garmin.com/xmlschemas/TrackPointExtension/v1">
            <gpxtpx:hr>78</gpxtpx:hr>
          </gpxtpx:TrackPointExtension>
        </extensions>
      </trkpt>
      <trkpt lat="44.65857" lon="3.05271">
        <ele>1200.1999511719</ele>
        <time>2024-01-30T15:09:24.000Z</time>
        <extensions>
          <gpxtpx:TrackPointExtension xmlns:gpxtpx="http://www.garmin.com/xmlschemas/TrackPointExtension/v1">
            <gpxtpx:hr>77</gpxtpx:hr>
          </gpxtpx:TrackPointExtension>
        </extensions>
      </trkpt>
      <trkpt lat="44.65866" lon="3.05259">
        <ele>1196.4000244141</ele>
        <time>2024-01-30T15:09:25.000Z</time>
        <extensions>
          <gpxtpx:TrackPointExtension xmlns:gpxtpx="http://www.garmin.com/xmlschemas/TrackPointExtension/v1">
            <gpxtpx:hr>78</gpxtpx:hr>
          </gpxtpx:TrackPointExtension>
        </extensions>
      </trkpt>
      <trkpt lat="44.65878" lon="3.05246">
        <ele>1195</ele>
        <time>2024-01-30T15:09:26.000Z</time>
        <extensions>
          <gpxtpx:TrackPointExtension xmlns:gpxtpx="http://www.garmin.com/xmlschemas/TrackPointExtension/v1">
            <gpxtpx:hr>81</gpxtpx:hr>
          </gpxtpx:TrackPointExtension>
        </extensions>
      </trkpt>
      <trkpt lat="44.65892" lon="3.05231">
        <ele>1193.5999755859</ele>
        <time>2024-01-30T15:09:27.000Z</time>
        <extensions>
          <gpxtpx:TrackPointExtension xmlns:gpxtpx="http://www.garmin.com/xmlschemas/TrackPointExtension/v1">
            <gpxtpx:hr>83</gpxtpx:hr>
          </gpxtpx:TrackPointExtension>
        </extensions>
      </trkpt>
      <trkpt lat="44.65904" lon="3.05219">
        <ele>1192</ele>
        <time>2024-01-30T15:09:28.000Z</time>
        <extensions>
          <gpxtpx:TrackPointExtension xmlns:gpxtpx="http://www.garmin.com/xmlschemas/TrackPointExtension/v1">
            <gpxtpx:hr>85</gpxtpx:hr>
          </gpxtpx:TrackPointExtension>
        </extensions>
      </trkpt>
      <trkpt lat="44.65925" lon="3.05198">
        <ele>1190.5999755859</ele>
        <time>2024-01-30T15:09:30.000Z</time>
        <extensions>
          <gpxtpx:TrackPointExtension xmlns:gpxtpx="http://www.garmin.com/xmlschemas/TrackPointExtension/v1">
            <gpxtpx:hr>88</gpxtpx:hr>
          </gpxtpx:TrackPointExtension>
        </extensions>
      </trkpt>
      <trkpt lat="44.65936" lon="3.05187">
        <ele>1189.8000488281</ele>
        <time>2024-01-30T15:09:31.000Z</time>
        <extensions>
          <gpxtpx:TrackPointExtension xmlns:gpxtpx="http://www.garmin.com/xmlschemas/TrackPointExtension/v1">
            <gpxtpx:hr>85</gpxtpx:hr>
          </gpxtpx:TrackPointExtension>
        </extensions>
      </trkpt>
      <trkpt lat="44.65947" lon="3.05176">
        <ele>1189.1999511719</ele>
        <time>2024-01-30T15:09:32.000Z</time>
        <extensions>
          <gpxtpx:TrackPointExtension xmlns:gpxtpx="http://www.garmin.com/xmlschemas/TrackPointExtension/v1">
            <gpxtpx:hr>85</gpxtpx:hr>
          </gpxtpx:TrackPointExtension>
        </extensions>
      </trkpt>
      <trkpt lat="44.65977" lon="3.05144">
        <ele>1188.1999511719</ele>
        <time>2024-01-30T15:09:35.000Z</time>
        <extensions>
          <gpxtpx:TrackPointExtension xmlns:gpxtpx="http://www.garmin.com/xmlschemas/TrackPointExtension/v1">
            <gpxtpx:hr>86</gpxtpx:hr>
          </gpxtpx:TrackPointExtension>
        </extensions>
      </trkpt>
      <trkpt lat="44.65999" lon="3.05122">
        <ele>1187.1999511719</ele>
        <time>2024-01-30T15:09:37.000Z</time>
        <extensions>
          <gpxtpx:TrackPointExtension xmlns:gpxtpx="http://www.garmin.com/xmlschemas/TrackPointExtension/v1">
            <gpxtpx:hr>85</gpxtpx:hr>
          </gpxtpx:TrackPointExtension>
        </extensions>
      </trkpt>
      <trkpt lat="44.66005" lon="3.05116">
        <ele>1187</ele>
        <time>2024-01-30T15:09:38.000Z</time>
        <extensions>
          <gpxtpx:TrackPointExtension xmlns:gpxtpx="http://www.garmin.com/xmlschemas/TrackPointExtension/v1">
            <gpxtpx:hr>83</gpxtpx:hr>
          </gpxtpx:TrackPointExtension>
        </extensions>
      </trkpt>
      <trkpt lat="44.66028" lon="3.05091">
        <ele>1186.1999511719</ele>
        <time>2024-01-30T15:09:41.000Z</time>
        <extensions>
          <gpxtpx:TrackPointExtension xmlns:gpxtpx="http://www.garmin.com/xmlschemas/TrackPointExtension/v1">
            <gpxtpx:hr>83</gpxtpx:hr>
          </gpxtpx:TrackPointExtension>
        </extensions>
      </trkpt>
      <trkpt lat="44.66036" lon="3.05082">
        <ele>1186</ele>
        <time>2024-01-30T15:09:42.000Z</time>
        <extensions>
          <gpxtpx:TrackPointExtension xmlns:gpxtpx="http://www.garmin.com/xmlschemas/TrackPointExtension/v1">
            <gpxtpx:hr>81</gpxtpx:hr>
          </gpxtpx:TrackPointExtension>
        </extensions>
      </trkpt>
      <trkpt lat="44.66068" lon="3.05041">
        <ele>1185.1999511719</ele>
        <time>2024-01-30T15:09:46.000Z</time>
        <extensions>
          <gpxtpx:TrackPointExtension xmlns:gpxtpx="http://www.garmin.com/xmlschemas/TrackPointExtension/v1">
            <gpxtpx:hr>81</gpxtpx:hr>
          </gpxtpx:TrackPointExtension>
        </extensions>
      </trkpt>
      <trkpt lat="44.66077" lon="3.05031">
        <ele>1184.4000244141</ele>
        <time>2024-01-30T15:09:47.000Z</time>
        <extensions>
          <gpxtpx:TrackPointExtension xmlns:gpxtpx="http://www.garmin.com/xmlschemas/TrackPointExtension/v1">
            <gpxtpx:hr>81</gpxtpx:hr>
          </gpxtpx:TrackPointExtension>
        </extensions>
      </trkpt>
      <trkpt lat="44.6611" lon="3.05002">
        <ele>1183</ele>
        <time>2024-01-30T15:09:50.000Z</time>
        <extensions>
          <gpxtpx:TrackPointExtension xmlns:gpxtpx="http://www.garmin.com/xmlschemas/TrackPointExtension/v1">
            <gpxtpx:hr>79</gpxtpx:hr>
          </gpxtpx:TrackPointExtension>
        </extensions>
      </trkpt>
      <trkpt lat="44.66117" lon="3.04994">
        <ele>1182.4000244141</ele>
        <time>2024-01-30T15:09:51.000Z</time>
        <extensions>
          <gpxtpx:TrackPointExtension xmlns:gpxtpx="http://www.garmin.com/xmlschemas/TrackPointExtension/v1">
            <gpxtpx:hr>80</gpxtpx:hr>
          </gpxtpx:TrackPointExtension>
        </extensions>
      </trkpt>
      <trkpt lat="44.66129" lon="3.04981">
        <ele>1181.5999755859</ele>
        <time>2024-01-30T15:09:52.000Z</time>
        <extensions>
          <gpxtpx:TrackPointExtension xmlns:gpxtpx="http://www.garmin.com/xmlschemas/TrackPointExtension/v1">
            <gpxtpx:hr>81</gpxtpx:hr>
          </gpxtpx:TrackPointExtension>
        </extensions>
      </trkpt>
      <trkpt lat="44.66144" lon="3.0496">
        <ele>1181.4000244141</ele>
        <time>2024-01-30T15:09:54.000Z</time>
        <extensions>
          <gpxtpx:TrackPointExtension xmlns:gpxtpx="http://www.garmin.com/xmlschemas/TrackPointExtension/v1">
            <gpxtpx:hr>80</gpxtpx:hr>
          </gpxtpx:TrackPointExtension>
        </extensions>
      </trkpt>
      <trkpt lat="44.66163" lon="3.04929">
        <ele>1180.4000244141</ele>
        <time>2024-01-30T15:09:57.000Z</time>
        <extensions>
          <gpxtpx:TrackPointExtension xmlns:gpxtpx="http://www.garmin.com/xmlschemas/TrackPointExtension/v1">
            <gpxtpx:hr>78</gpxtpx:hr>
          </gpxtpx:TrackPointExtension>
        </extensions>
      </trkpt>
      <trkpt lat="44.66169" lon="3.04906">
        <ele>1180</ele>
        <time>2024-01-30T15:09:59.000Z</time>
        <extensions>
          <gpxtpx:TrackPointExtension xmlns:gpxtpx="http://www.garmin.com/xmlschemas/TrackPointExtension/v1">
            <gpxtpx:hr>77</gpxtpx:hr>
          </gpxtpx:TrackPointExtension>
        </extensions>
      </trkpt>
      <trkpt lat="44.6617" lon="3.04898">
        <ele>1179.4000244141</ele>
        <time>2024-01-30T15:10:00.000Z</time>
        <extensions>
          <gpxtpx:TrackPointExtension xmlns:gpxtpx="http://www.garmin.com/xmlschemas/TrackPointExtension/v1">
            <gpxtpx:hr>77</gpxtpx:hr>
          </gpxtpx:TrackPointExtension>
        </extensions>
      </trkpt>
      <trkpt lat="44.6617" lon="3.04886">
        <ele>1178.4000244141</ele>
        <time>2024-01-30T15:10:01.000Z</time>
        <extensions>
          <gpxtpx:TrackPointExtension xmlns:gpxtpx="http://www.garmin.com/xmlschemas/TrackPointExtension/v1">
            <gpxtpx:hr>76</gpxtpx:hr>
          </gpxtpx:TrackPointExtension>
        </extensions>
      </trkpt>
      <trkpt lat="44.66169" lon="3.04865">
        <ele>1176.5999755859</ele>
        <time>2024-01-30T15:10:04.000Z</time>
        <extensions>
          <gpxtpx:TrackPointExtension xmlns:gpxtpx="http://www.garmin.com/xmlschemas/TrackPointExtension/v1">
            <gpxtpx:hr>76</gpxtpx:hr>
          </gpxtpx:TrackPointExtension>
        </extensions>
      </trkpt>
      <trkpt lat="44.66171" lon="3.04858">
        <ele>1175.1999511719</ele>
        <time>2024-01-30T15:10:06.000Z</time>
        <extensions>
          <gpxtpx:TrackPointExtension xmlns:gpxtpx="http://www.garmin.com/xmlschemas/TrackPointExtension/v1">
            <gpxtpx:hr>76</gpxtpx:hr>
          </gpxtpx:TrackPointExtension>
        </extensions>
      </trkpt>
      <trkpt lat="44.66172" lon="3.04856">
        <ele>1175</ele>
        <time>2024-01-30T15:10:07.000Z</time>
        <extensions>
          <gpxtpx:TrackPointExtension xmlns:gpxtpx="http://www.garmin.com/xmlschemas/TrackPointExtension/v1">
            <gpxtpx:hr>75</gpxtpx:hr>
          </gpxtpx:TrackPointExtension>
        </extensions>
      </trkpt>
      <trkpt lat="44.66169" lon="3.0484">
        <ele>1174.8000488281</ele>
        <time>2024-01-30T15:10:11.000Z</time>
        <extensions>
          <gpxtpx:TrackPointExtension xmlns:gpxtpx="http://www.garmin.com/xmlschemas/TrackPointExtension/v1">
            <gpxtpx:hr>77</gpxtpx:hr>
          </gpxtpx:TrackPointExtension>
        </extensions>
      </trkpt>
      <trkpt lat="44.66158" lon="3.04805">
        <ele>1176.1999511719</ele>
        <time>2024-01-30T15:10:15.000Z</time>
        <extensions>
          <gpxtpx:TrackPointExtension xmlns:gpxtpx="http://www.garmin.com/xmlschemas/TrackPointExtension/v1">
            <gpxtpx:hr>76</gpxtpx:hr>
          </gpxtpx:TrackPointExtension>
        </extensions>
      </trkpt>
      <trkpt lat="44.66155" lon="3.04795">
        <ele>1176.4000244141</ele>
        <time>2024-01-30T15:10:16.000Z</time>
        <extensions>
          <gpxtpx:TrackPointExtension xmlns:gpxtpx="http://www.garmin.com/xmlschemas/TrackPointExtension/v1">
            <gpxtpx:hr>77</gpxtpx:hr>
          </gpxtpx:TrackPointExtension>
        </extensions>
      </trkpt>
      <trkpt lat="44.66144" lon="3.04754">
        <ele>1177.1999511719</ele>
        <time>2024-01-30T15:10:19.000Z</time>
        <extensions>
          <gpxtpx:TrackPointExtension xmlns:gpxtpx="http://www.garmin.com/xmlschemas/TrackPointExtension/v1">
            <gpxtpx:hr>76</gpxtpx:hr>
          </gpxtpx:TrackPointExtension>
        </extensions>
      </trkpt>
      <trkpt lat="44.66135" lon="3.04715">
        <ele>1177.1999511719</ele>
        <time>2024-01-30T15:10:22.000Z</time>
        <extensions>
          <gpxtpx:TrackPointExtension xmlns:gpxtpx="http://www.garmin.com/xmlschemas/TrackPointExtension/v1">
            <gpxtpx:hr>78</gpxtpx:hr>
          </gpxtpx:TrackPointExtension>
        </extensions>
      </trkpt>
      <trkpt lat="44.66134" lon="3.04701">
        <ele>1177</ele>
        <time>2024-01-30T15:10:23.000Z</time>
        <extensions>
          <gpxtpx:TrackPointExtension xmlns:gpxtpx="http://www.garmin.com/xmlschemas/TrackPointExtension/v1">
            <gpxtpx:hr>78</gpxtpx:hr>
          </gpxtpx:TrackPointExtension>
        </extensions>
      </trkpt>
      <trkpt lat="44.66134" lon="3.04688">
        <ele>1177</ele>
        <time>2024-01-30T15:10:24.000Z</time>
        <extensions>
          <gpxtpx:TrackPointExtension xmlns:gpxtpx="http://www.garmin.com/xmlschemas/TrackPointExtension/v1">
            <gpxtpx:hr>78</gpxtpx:hr>
          </gpxtpx:TrackPointExtension>
        </extensions>
      </trkpt>
      <trkpt lat="44.6614" lon="3.04661">
        <ele>1176.4000244141</ele>
        <time>2024-01-30T15:10:26.000Z</time>
        <extensions>
          <gpxtpx:TrackPointExtension xmlns:gpxtpx="http://www.garmin.com/xmlschemas/TrackPointExtension/v1">
            <gpxtpx:hr>78</gpxtpx:hr>
          </gpxtpx:TrackPointExtension>
        </extensions>
      </trkpt>
      <trkpt lat="44.6615" lon="3.04639">
        <ele>1176</ele>
        <time>2024-01-30T15:10:28.000Z</time>
        <extensions>
          <gpxtpx:TrackPointExtension xmlns:gpxtpx="http://www.garmin.com/xmlschemas/TrackPointExtension/v1">
            <gpxtpx:hr>79</gpxtpx:hr>
          </gpxtpx:TrackPointExtension>
        </extensions>
      </trkpt>
      <trkpt lat="44.66156" lon="3.04629">
        <ele>1175.8000488281</ele>
        <time>2024-01-30T15:10:29.000Z</time>
        <extensions>
          <gpxtpx:TrackPointExtension xmlns:gpxtpx="http://www.garmin.com/xmlschemas/TrackPointExtension/v1">
            <gpxtpx:hr>78</gpxtpx:hr>
          </gpxtpx:TrackPointExtension>
        </extensions>
      </trkpt>
      <trkpt lat="44.66161" lon="3.04624">
        <ele>1175.1999511719</ele>
        <time>2024-01-30T15:10:30.000Z</time>
        <extensions>
          <gpxtpx:TrackPointExtension xmlns:gpxtpx="http://www.garmin.com/xmlschemas/TrackPointExtension/v1">
            <gpxtpx:hr>79</gpxtpx:hr>
          </gpxtpx:TrackPointExtension>
        </extensions>
      </trkpt>
      <trkpt lat="44.66178" lon="3.04622">
        <ele>1174.5999755859</ele>
        <time>2024-01-30T15:10:32.000Z</time>
        <extensions>
          <gpxtpx:TrackPointExtension xmlns:gpxtpx="http://www.garmin.com/xmlschemas/TrackPointExtension/v1">
            <gpxtpx:hr>79</gpxtpx:hr>
          </gpxtpx:TrackPointExtension>
        </extensions>
      </trkpt>
      <trkpt lat="44.66192" lon="3.04632">
        <ele>1174.5999755859</ele>
        <time>2024-01-30T15:10:34.000Z</time>
        <extensions>
          <gpxtpx:TrackPointExtension xmlns:gpxtpx="http://www.garmin.com/xmlschemas/TrackPointExtension/v1">
            <gpxtpx:hr>82</gpxtpx:hr>
          </gpxtpx:TrackPointExtension>
        </extensions>
      </trkpt>
      <trkpt lat="44.662" lon="3.04639">
        <ele>1174.5999755859</ele>
        <time>2024-01-30T15:10:35.000Z</time>
        <extensions>
          <gpxtpx:TrackPointExtension xmlns:gpxtpx="http://www.garmin.com/xmlschemas/TrackPointExtension/v1">
            <gpxtpx:hr>84</gpxtpx:hr>
          </gpxtpx:TrackPointExtension>
        </extensions>
      </trkpt>
      <trkpt lat="44.66224" lon="3.04661">
        <ele>1176.5999755859</ele>
        <time>2024-01-30T15:10:38.000Z</time>
        <extensions>
          <gpxtpx:TrackPointExtension xmlns:gpxtpx="http://www.garmin.com/xmlschemas/TrackPointExtension/v1">
            <gpxtpx:hr>84</gpxtpx:hr>
          </gpxtpx:TrackPointExtension>
        </extensions>
      </trkpt>
      <trkpt lat="44.66239" lon="3.04671">
        <ele>1177</ele>
        <time>2024-01-30T15:10:40.000Z</time>
        <extensions>
          <gpxtpx:TrackPointExtension xmlns:gpxtpx="http://www.garmin.com/xmlschemas/TrackPointExtension/v1">
            <gpxtpx:hr>85</gpxtpx:hr>
          </gpxtpx:TrackPointExtension>
        </extensions>
      </trkpt>
      <trkpt lat="44.66245" lon="3.04674">
        <ele>1177</ele>
        <time>2024-01-30T15:10:41.000Z</time>
        <extensions>
          <gpxtpx:TrackPointExtension xmlns:gpxtpx="http://www.garmin.com/xmlschemas/TrackPointExtension/v1">
            <gpxtpx:hr>85</gpxtpx:hr>
          </gpxtpx:TrackPointExtension>
        </extensions>
      </trkpt>
      <trkpt lat="44.66251" lon="3.04674">
        <ele>1177</ele>
        <time>2024-01-30T15:10:42.000Z</time>
        <extensions>
          <gpxtpx:TrackPointExtension xmlns:gpxtpx="http://www.garmin.com/xmlschemas/TrackPointExtension/v1">
            <gpxtpx:hr>85</gpxtpx:hr>
          </gpxtpx:TrackPointExtension>
        </extensions>
      </trkpt>
      <trkpt lat="44.6626" lon="3.0467">
        <ele>1177.1999511719</ele>
        <time>2024-01-30T15:10:44.000Z</time>
        <extensions>
          <gpxtpx:TrackPointExtension xmlns:gpxtpx="http://www.garmin.com/xmlschemas/TrackPointExtension/v1">
            <gpxtpx:hr>83</gpxtpx:hr>
          </gpxtpx:TrackPointExtension>
        </extensions>
      </trkpt>
      <trkpt lat="44.66264" lon="3.0466">
        <ele>1177.8000488281</ele>
        <time>2024-01-30T15:10:46.000Z</time>
        <extensions>
          <gpxtpx:TrackPointExtension xmlns:gpxtpx="http://www.garmin.com/xmlschemas/TrackPointExtension/v1">
            <gpxtpx:hr>83</gpxtpx:hr>
          </gpxtpx:TrackPointExtension>
        </extensions>
      </trkpt>
      <trkpt lat="44.66266" lon="3.04653">
        <ele>1178.5999755859</ele>
        <time>2024-01-30T15:10:47.000Z</time>
        <extensions>
          <gpxtpx:TrackPointExtension xmlns:gpxtpx="http://www.garmin.com/xmlschemas/TrackPointExtension/v1">
            <gpxtpx:hr>83</gpxtpx:hr>
          </gpxtpx:TrackPointExtension>
        </extensions>
      </trkpt>
      <trkpt lat="44.66267" lon="3.04646">
        <ele>1178.8000488281</ele>
        <time>2024-01-30T15:10:48.000Z</time>
        <extensions>
          <gpxtpx:TrackPointExtension xmlns:gpxtpx="http://www.garmin.com/xmlschemas/TrackPointExtension/v1">
            <gpxtpx:hr>84</gpxtpx:hr>
          </gpxtpx:TrackPointExtension>
        </extensions>
      </trkpt>
      <trkpt lat="44.66267" lon="3.04638">
        <ele>1179.4000244141</ele>
        <time>2024-01-30T15:10:49.000Z</time>
        <extensions>
          <gpxtpx:TrackPointExtension xmlns:gpxtpx="http://www.garmin.com/xmlschemas/TrackPointExtension/v1">
            <gpxtpx:hr>84</gpxtpx:hr>
          </gpxtpx:TrackPointExtension>
        </extensions>
      </trkpt>
      <trkpt lat="44.66267" lon="3.04629">
        <ele>1179.8000488281</ele>
        <time>2024-01-30T15:10:50.000Z</time>
        <extensions>
          <gpxtpx:TrackPointExtension xmlns:gpxtpx="http://www.garmin.com/xmlschemas/TrackPointExtension/v1">
            <gpxtpx:hr>84</gpxtpx:hr>
          </gpxtpx:TrackPointExtension>
        </extensions>
      </trkpt>
      <trkpt lat="44.66268" lon="3.04621">
        <ele>1180.4000244141</ele>
        <time>2024-01-30T15:10:51.000Z</time>
        <extensions>
          <gpxtpx:TrackPointExtension xmlns:gpxtpx="http://www.garmin.com/xmlschemas/TrackPointExtension/v1">
            <gpxtpx:hr>84</gpxtpx:hr>
          </gpxtpx:TrackPointExtension>
        </extensions>
      </trkpt>
      <trkpt lat="44.66268" lon="3.04613">
        <ele>1181</ele>
        <time>2024-01-30T15:10:52.000Z</time>
        <extensions>
          <gpxtpx:TrackPointExtension xmlns:gpxtpx="http://www.garmin.com/xmlschemas/TrackPointExtension/v1">
            <gpxtpx:hr>84</gpxtpx:hr>
          </gpxtpx:TrackPointExtension>
        </extensions>
      </trkpt>
      <trkpt lat="44.66268" lon="3.04597">
        <ele>1182</ele>
        <time>2024-01-30T15:10:54.000Z</time>
        <extensions>
          <gpxtpx:TrackPointExtension xmlns:gpxtpx="http://www.garmin.com/xmlschemas/TrackPointExtension/v1">
            <gpxtpx:hr>83</gpxtpx:hr>
          </gpxtpx:TrackPointExtension>
        </extensions>
      </trkpt>
      <trkpt lat="44.66268" lon="3.04578">
        <ele>1182.8000488281</ele>
        <time>2024-01-30T15:10:56.000Z</time>
      </trkpt>
      <trkpt lat="44.66268" lon="3.04569">
        <ele>1183.1999511719</ele>
        <time>2024-01-30T15:10:57.000Z</time>
      </trkpt>
      <trkpt lat="44.66267" lon="3.04559">
        <ele>1183.5999755859</ele>
        <time>2024-01-30T15:10:58.000Z</time>
      </trkpt>
      <trkpt lat="44.66264" lon="3.04537">
        <ele>1184.4000244141</ele>
        <time>2024-01-30T15:11:00.000Z</time>
      </trkpt>
      <trkpt lat="44.66264" lon="3.04501">
        <ele>1184.4000244141</ele>
        <time>2024-01-30T15:11:03.000Z</time>
      </trkpt>
      <trkpt lat="44.66265" lon="3.04491">
        <ele>1184.4000244141</ele>
        <time>2024-01-30T15:11:04.000Z</time>
      </trkpt>
      <trkpt lat="44.66266" lon="3.04482">
        <ele>1183.5999755859</ele>
        <time>2024-01-30T15:11:05.000Z</time>
      </trkpt>
      <trkpt lat="44.66267" lon="3.04477">
        <ele>1183.4000244141</ele>
        <time>2024-01-30T15:11:06.000Z</time>
      </trkpt>
      <trkpt lat="44.66269" lon="3.04472">
        <ele>1182.5999755859</ele>
        <time>2024-01-30T15:11:07.000Z</time>
      </trkpt>
      <trkpt lat="44.66272" lon="3.04469">
        <ele>1182</ele>
        <time>2024-01-30T15:11:08.000Z</time>
      </trkpt>
      <trkpt lat="44.66281" lon="3.04465">
        <ele>1182</ele>
        <time>2024-01-30T15:11:10.000Z</time>
      </trkpt>
      <trkpt lat="44.66303" lon="3.04454">
        <ele>1183.1999511719</ele>
        <time>2024-01-30T15:11:13.000Z</time>
      </trkpt>
      <trkpt lat="44.66339" lon="3.04433">
        <ele>1184.1999511719</ele>
        <time>2024-01-30T15:11:17.000Z</time>
      </trkpt>
      <trkpt lat="44.66392" lon="3.04394">
        <ele>1184.4000244141</ele>
        <time>2024-01-30T15:11:23.000Z</time>
      </trkpt>
      <trkpt lat="44.66401" lon="3.04387">
        <ele>1184.4000244141</ele>
        <time>2024-01-30T15:11:24.000Z</time>
      </trkpt>
      <trkpt lat="44.6645" lon="3.04347">
        <ele>1183.8000488281</ele>
        <time>2024-01-30T15:11:29.000Z</time>
      </trkpt>
      <trkpt lat="44.66471" lon="3.04331">
        <ele>1183.5999755859</ele>
        <time>2024-01-30T15:11:31.000Z</time>
      </trkpt>
      <trkpt lat="44.66502" lon="3.04305">
        <ele>1183.8000488281</ele>
        <time>2024-01-30T15:11:34.000Z</time>
      </trkpt>
      <trkpt lat="44.66511" lon="3.04295">
        <ele>1183.8000488281</ele>
        <time>2024-01-30T15:11:35.000Z</time>
      </trkpt>
      <trkpt lat="44.66541" lon="3.04243">
        <ele>1184</ele>
        <time>2024-01-30T15:11:39.000Z</time>
      </trkpt>
      <trkpt lat="44.66563" lon="3.04203">
        <ele>1185.4000244141</ele>
        <time>2024-01-30T15:11:42.000Z</time>
      </trkpt>
      <trkpt lat="44.66586" lon="3.04162">
        <ele>1185.8000488281</ele>
        <time>2024-01-30T15:11:45.000Z</time>
      </trkpt>
      <trkpt lat="44.66595" lon="3.04149">
        <ele>1186</ele>
        <time>2024-01-30T15:11:46.000Z</time>
      </trkpt>
      <trkpt lat="44.66616" lon="3.04128">
        <ele>1186</ele>
        <time>2024-01-30T15:11:48.000Z</time>
      </trkpt>
      <trkpt lat="44.66638" lon="3.04115">
        <ele>1185.8000488281</ele>
        <time>2024-01-30T15:11:50.000Z</time>
      </trkpt>
      <trkpt lat="44.6665" lon="3.04111">
        <ele>1185.5999755859</ele>
        <time>2024-01-30T15:11:51.000Z</time>
      </trkpt>
      <trkpt lat="44.66691" lon="3.04099">
        <ele>1185.1999511719</ele>
        <time>2024-01-30T15:11:55.000Z</time>
      </trkpt>
      <trkpt lat="44.66738" lon="3.04093">
        <ele>1185.1999511719</ele>
        <time>2024-01-30T15:11:59.000Z</time>
      </trkpt>
      <trkpt lat="44.66799" lon="3.04084">
        <ele>1186.4000244141</ele>
        <time>2024-01-30T15:12:03.000Z</time>
      </trkpt>
      <trkpt lat="44.66863" lon="3.04071">
        <ele>1186.1999511719</ele>
        <time>2024-01-30T15:12:07.000Z</time>
      </trkpt>
      <trkpt lat="44.6691" lon="3.04061">
        <ele>1185.4000244141</ele>
        <time>2024-01-30T15:12:10.000Z</time>
      </trkpt>
      <trkpt lat="44.66925" lon="3.04059">
        <ele>1185.1999511719</ele>
        <time>2024-01-30T15:12:11.000Z</time>
      </trkpt>
      <trkpt lat="44.66956" lon="3.04054">
        <ele>1183.5999755859</ele>
        <time>2024-01-30T15:12:13.000Z</time>
      </trkpt>
      <trkpt lat="44.66971" lon="3.04052">
        <ele>1182.1999511719</ele>
        <time>2024-01-30T15:12:14.000Z</time>
      </trkpt>
      <trkpt lat="44.66987" lon="3.04049">
        <ele>1181</ele>
        <time>2024-01-30T15:12:15.000Z</time>
      </trkpt>
      <trkpt lat="44.67034" lon="3.04041">
        <ele>1179.8000488281</ele>
        <time>2024-01-30T15:12:18.000Z</time>
      </trkpt>
      <trkpt lat="44.67065" lon="3.04035">
        <ele>1178</ele>
        <time>2024-01-30T15:12:20.000Z</time>
      </trkpt>
      <trkpt lat="44.67099" lon="3.04028">
        <ele>1176.8000488281</ele>
        <time>2024-01-30T15:12:22.000Z</time>
      </trkpt>
      <trkpt lat="44.67157" lon="3.04013">
        <ele>1175.5999755859</ele>
        <time>2024-01-30T15:12:26.000Z</time>
      </trkpt>
      <trkpt lat="44.6719" lon="3.03999">
        <ele>1174.4000244141</ele>
        <time>2024-01-30T15:12:28.000Z</time>
      </trkpt>
      <trkpt lat="44.67202" lon="3.03993">
        <ele>1172.8000488281</ele>
        <time>2024-01-30T15:12:29.000Z</time>
      </trkpt>
      <trkpt lat="44.6722" lon="3.03984">
        <ele>1171.5999755859</ele>
        <time>2024-01-30T15:12:30.000Z</time>
      </trkpt>
      <trkpt lat="44.67247" lon="3.03973">
        <ele>1169.8000488281</ele>
        <time>2024-01-30T15:12:32.000Z</time>
      </trkpt>
      <trkpt lat="44.67278" lon="3.03963">
        <ele>1168.4000244141</ele>
        <time>2024-01-30T15:12:34.000Z</time>
      </trkpt>
      <trkpt lat="44.67308" lon="3.03959">
        <ele>1166.5999755859</ele>
        <time>2024-01-30T15:12:36.000Z</time>
      </trkpt>
      <trkpt lat="44.67327" lon="3.03959">
        <ele>1165.5999755859</ele>
        <time>2024-01-30T15:12:37.000Z</time>
      </trkpt>
      <trkpt lat="44.67377" lon="3.0396">
        <ele>1165</ele>
        <time>2024-01-30T15:12:40.000Z</time>
      </trkpt>
      <trkpt lat="44.67431" lon="3.03959">
        <ele>1163.5999755859</ele>
        <time>2024-01-30T15:12:43.000Z</time>
      </trkpt>
      <trkpt lat="44.67446" lon="3.03958">
        <ele>1163.1999511719</ele>
        <time>2024-01-30T15:12:44.000Z</time>
      </trkpt>
      <trkpt lat="44.67468" lon="3.03956">
        <ele>1162.1999511719</ele>
        <time>2024-01-30T15:12:45.000Z</time>
      </trkpt>
      <trkpt lat="44.67486" lon="3.03955">
        <ele>1161</ele>
        <time>2024-01-30T15:12:46.000Z</time>
      </trkpt>
      <trkpt lat="44.67519" lon="3.03952">
        <ele>1159</ele>
        <time>2024-01-30T15:12:48.000Z</time>
      </trkpt>
      <trkpt lat="44.67538" lon="3.0395">
        <ele>1157.5999755859</ele>
        <time>2024-01-30T15:12:49.000Z</time>
      </trkpt>
      <trkpt lat="44.67557" lon="3.03947">
        <ele>1156.1999511719</ele>
        <time>2024-01-30T15:12:50.000Z</time>
      </trkpt>
      <trkpt lat="44.67599" lon="3.03941">
        <ele>1154.4000244141</ele>
        <time>2024-01-30T15:12:52.000Z</time>
      </trkpt>
      <trkpt lat="44.67634" lon="3.03936">
        <ele>1152.1999511719</ele>
        <time>2024-01-30T15:12:54.000Z</time>
      </trkpt>
      <trkpt lat="44.67653" lon="3.03933">
        <ele>1150.8000488281</ele>
        <time>2024-01-30T15:12:55.000Z</time>
      </trkpt>
      <trkpt lat="44.67696" lon="3.03926">
        <ele>1149.4000244141</ele>
        <time>2024-01-30T15:12:57.000Z</time>
      </trkpt>
      <trkpt lat="44.67731" lon="3.03922">
        <ele>1146.8000488281</ele>
        <time>2024-01-30T15:12:59.000Z</time>
      </trkpt>
      <trkpt lat="44.67754" lon="3.03919">
        <ele>1145.8000488281</ele>
        <time>2024-01-30T15:13:00.000Z</time>
      </trkpt>
      <trkpt lat="44.67788" lon="3.03917">
        <ele>1143</ele>
        <time>2024-01-30T15:13:02.000Z</time>
      </trkpt>
      <trkpt lat="44.6781" lon="3.03918">
        <ele>1141</ele>
        <time>2024-01-30T15:13:03.000Z</time>
      </trkpt>
      <trkpt lat="44.67824" lon="3.03923">
        <ele>1139.8000488281</ele>
        <time>2024-01-30T15:13:04.000Z</time>
      </trkpt>
      <trkpt lat="44.67845" lon="3.03932">
        <ele>1137.8000488281</ele>
        <time>2024-01-30T15:13:05.000Z</time>
      </trkpt>
      <trkpt lat="44.67858" lon="3.03942">
        <ele>1137.1999511719</ele>
        <time>2024-01-30T15:13:06.000Z</time>
      </trkpt>
      <trkpt lat="44.67874" lon="3.03956">
        <ele>1136.1999511719</ele>
        <time>2024-01-30T15:13:07.000Z</time>
      </trkpt>
      <trkpt lat="44.67893" lon="3.03971">
        <ele>1135.1999511719</ele>
        <time>2024-01-30T15:13:08.000Z</time>
      </trkpt>
      <trkpt lat="44.67924" lon="3.03991">
        <ele>1133.8000488281</ele>
        <time>2024-01-30T15:13:10.000Z</time>
      </trkpt>
      <trkpt lat="44.67947" lon="3.04002">
        <ele>1132.5999755859</ele>
        <time>2024-01-30T15:13:11.000Z</time>
      </trkpt>
      <trkpt lat="44.67982" lon="3.04017">
        <ele>1131</ele>
        <time>2024-01-30T15:13:13.000Z</time>
      </trkpt>
      <trkpt lat="44.68022" lon="3.04032">
        <ele>1129.5999755859</ele>
        <time>2024-01-30T15:13:15.000Z</time>
      </trkpt>
      <trkpt lat="44.68062" lon="3.04045">
        <ele>1128</ele>
        <time>2024-01-30T15:13:17.000Z</time>
      </trkpt>
      <trkpt lat="44.68105" lon="3.04059">
        <ele>1125.4000244141</ele>
        <time>2024-01-30T15:13:19.000Z</time>
      </trkpt>
      <trkpt lat="44.68123" lon="3.04065">
        <ele>1122.8000488281</ele>
        <time>2024-01-30T15:13:20.000Z</time>
      </trkpt>
      <trkpt lat="44.68161" lon="3.04074">
        <ele>1120.4000244141</ele>
        <time>2024-01-30T15:13:22.000Z</time>
      </trkpt>
      <trkpt lat="44.68176" lon="3.04075">
        <ele>1119.8000488281</ele>
        <time>2024-01-30T15:13:23.000Z</time>
      </trkpt>
      <trkpt lat="44.68195" lon="3.04075">
        <ele>1118.1999511719</ele>
        <time>2024-01-30T15:13:24.000Z</time>
      </trkpt>
      <trkpt lat="44.68213" lon="3.04072">
        <ele>1116.8000488281</ele>
        <time>2024-01-30T15:13:25.000Z</time>
      </trkpt>
      <trkpt lat="44.68235" lon="3.04067">
        <ele>1115.8000488281</ele>
        <time>2024-01-30T15:13:26.000Z</time>
      </trkpt>
      <trkpt lat="44.68273" lon="3.04053">
        <ele>1114</ele>
        <time>2024-01-30T15:13:28.000Z</time>
      </trkpt>
      <trkpt lat="44.68308" lon="3.0404">
        <ele>1113</ele>
        <time>2024-01-30T15:13:30.000Z</time>
      </trkpt>
      <trkpt lat="44.68351" lon="3.04024">
        <ele>1110.1999511719</ele>
        <time>2024-01-30T15:13:32.000Z</time>
      </trkpt>
      <trkpt lat="44.68367" lon="3.04018">
        <ele>1108.5999755859</ele>
        <time>2024-01-30T15:13:33.000Z</time>
      </trkpt>
      <trkpt lat="44.68427" lon="3.03997">
        <ele>1106.8000488281</ele>
        <time>2024-01-30T15:13:36.000Z</time>
      </trkpt>
      <trkpt lat="44.68447" lon="3.03992">
        <ele>1105.5999755859</ele>
        <time>2024-01-30T15:13:37.000Z</time>
      </trkpt>
      <trkpt lat="44.68473" lon="3.03987">
        <ele>1104.4000244141</ele>
        <time>2024-01-30T15:13:38.000Z</time>
      </trkpt>
      <trkpt lat="44.6849" lon="3.03984">
        <ele>1103</ele>
        <time>2024-01-30T15:13:39.000Z</time>
      </trkpt>
      <trkpt lat="44.68511" lon="3.0398">
        <ele>1101.8000488281</ele>
        <time>2024-01-30T15:13:40.000Z</time>
      </trkpt>
      <trkpt lat="44.68537" lon="3.03976">
        <ele>1100.4000244141</ele>
        <time>2024-01-30T15:13:41.000Z</time>
      </trkpt>
      <trkpt lat="44.68575" lon="3.0397">
        <ele>1097.8000488281</ele>
        <time>2024-01-30T15:13:43.000Z</time>
      </trkpt>
      <trkpt lat="44.68601" lon="3.03966">
        <ele>1095.8000488281</ele>
        <time>2024-01-30T15:13:44.000Z</time>
      </trkpt>
      <trkpt lat="44.68618" lon="3.03963">
        <ele>1094.5999755859</ele>
        <time>2024-01-30T15:13:45.000Z</time>
      </trkpt>
      <trkpt lat="44.68639" lon="3.03958">
        <ele>1093.5999755859</ele>
        <time>2024-01-30T15:13:46.000Z</time>
      </trkpt>
      <trkpt lat="44.6866" lon="3.03951">
        <ele>1092.1999511719</ele>
        <time>2024-01-30T15:13:47.000Z</time>
      </trkpt>
      <trkpt lat="44.6868" lon="3.03943">
        <ele>1091.8000488281</ele>
        <time>2024-01-30T15:13:48.000Z</time>
      </trkpt>
      <trkpt lat="44.687" lon="3.03932">
        <ele>1091</ele>
        <time>2024-01-30T15:13:49.000Z</time>
      </trkpt>
      <trkpt lat="44.68737" lon="3.03905">
        <ele>1089.4000244141</ele>
        <time>2024-01-30T15:13:51.000Z</time>
      </trkpt>
      <trkpt lat="44.68773" lon="3.03869">
        <ele>1088</ele>
        <time>2024-01-30T15:13:53.000Z</time>
      </trkpt>
      <trkpt lat="44.68801" lon="3.03836">
        <ele>1087.1999511719</ele>
        <time>2024-01-30T15:13:55.000Z</time>
      </trkpt>
      <trkpt lat="44.6884" lon="3.03777">
        <ele>1087</ele>
        <time>2024-01-30T15:13:58.000Z</time>
      </trkpt>
      <trkpt lat="44.6888" lon="3.03723">
        <ele>1086.1999511719</ele>
        <time>2024-01-30T15:14:01.000Z</time>
      </trkpt>
      <trkpt lat="44.68895" lon="3.0371">
        <ele>1085.5999755859</ele>
        <time>2024-01-30T15:14:02.000Z</time>
      </trkpt>
      <trkpt lat="44.6891" lon="3.037">
        <ele>1084.8000488281</ele>
        <time>2024-01-30T15:14:03.000Z</time>
      </trkpt>
      <trkpt lat="44.68927" lon="3.03694">
        <ele>1084.1999511719</ele>
        <time>2024-01-30T15:14:04.000Z</time>
      </trkpt>
      <trkpt lat="44.68947" lon="3.0369">
        <ele>1083.4000244141</ele>
        <time>2024-01-30T15:14:05.000Z</time>
      </trkpt>
      <trkpt lat="44.68975" lon="3.03681">
        <ele>1083.1999511719</ele>
        <time>2024-01-30T15:14:07.000Z</time>
      </trkpt>
      <trkpt lat="44.6899" lon="3.03673">
        <ele>1083</ele>
        <time>2024-01-30T15:14:08.000Z</time>
      </trkpt>
      <trkpt lat="44.69047" lon="3.03627">
        <ele>1082.8000488281</ele>
        <time>2024-01-30T15:14:12.000Z</time>
      </trkpt>
      <trkpt lat="44.69081" lon="3.03605">
        <ele>1081.8000488281</ele>
        <time>2024-01-30T15:14:14.000Z</time>
      </trkpt>
      <trkpt lat="44.69094" lon="3.03599">
        <ele>1081.5999755859</ele>
        <time>2024-01-30T15:14:15.000Z</time>
      </trkpt>
      <trkpt lat="44.69147" lon="3.03581">
        <ele>1081.4000244141</ele>
        <time>2024-01-30T15:14:18.000Z</time>
      </trkpt>
      <trkpt lat="44.69165" lon="3.03576">
        <ele>1081.4000244141</ele>
        <time>2024-01-30T15:14:19.000Z</time>
      </trkpt>
      <trkpt lat="44.69221" lon="3.03567">
        <ele>1080.4000244141</ele>
        <time>2024-01-30T15:14:22.000Z</time>
      </trkpt>
      <trkpt lat="44.6924" lon="3.03566">
        <ele>1080</ele>
        <time>2024-01-30T15:14:23.000Z</time>
      </trkpt>
      <trkpt lat="44.69276" lon="3.03564">
        <ele>1078.8000488281</ele>
        <time>2024-01-30T15:14:25.000Z</time>
      </trkpt>
      <trkpt lat="44.69311" lon="3.03558">
        <ele>1077.1999511719</ele>
        <time>2024-01-30T15:14:27.000Z</time>
      </trkpt>
      <trkpt lat="44.69321" lon="3.03553">
        <ele>1075</ele>
        <time>2024-01-30T15:14:28.000Z</time>
      </trkpt>
      <trkpt lat="44.69334" lon="3.03542">
        <ele>1074</ele>
        <time>2024-01-30T15:14:29.000Z</time>
      </trkpt>
      <trkpt lat="44.69341" lon="3.03533">
        <ele>1073.8000488281</ele>
        <time>2024-01-30T15:14:30.000Z</time>
      </trkpt>
      <trkpt lat="44.69366" lon="3.03507">
        <ele>1071.8000488281</ele>
        <time>2024-01-30T15:14:33.000Z</time>
      </trkpt>
      <trkpt lat="44.69372" lon="3.03501">
        <ele>1070.4000244141</ele>
        <time>2024-01-30T15:14:34.000Z</time>
      </trkpt>
      <trkpt lat="44.69378" lon="3.03495">
        <ele>1070</ele>
        <time>2024-01-30T15:14:35.000Z</time>
      </trkpt>
      <trkpt lat="44.69381" lon="3.03487">
        <ele>1069.4000244141</ele>
        <time>2024-01-30T15:14:36.000Z</time>
      </trkpt>
      <trkpt lat="44.69384" lon="3.03477">
        <ele>1069.4000244141</ele>
        <time>2024-01-30T15:14:37.000Z</time>
      </trkpt>
      <trkpt lat="44.69386" lon="3.03453">
        <ele>1069.4000244141</ele>
        <time>2024-01-30T15:14:39.000Z</time>
      </trkpt>
      <trkpt lat="44.69385" lon="3.03405">
        <ele>1069.8000488281</ele>
        <time>2024-01-30T15:14:42.000Z</time>
      </trkpt>
      <trkpt lat="44.69384" lon="3.03388">
        <ele>1070.4000244141</ele>
        <time>2024-01-30T15:14:43.000Z</time>
      </trkpt>
      <trkpt lat="44.69384" lon="3.0335">
        <ele>1071.4000244141</ele>
        <time>2024-01-30T15:14:45.000Z</time>
      </trkpt>
      <trkpt lat="44.69384" lon="3.03329">
        <ele>1071.8000488281</ele>
        <time>2024-01-30T15:14:46.000Z</time>
      </trkpt>
      <trkpt lat="44.69385" lon="3.03284">
        <ele>1072.5999755859</ele>
        <time>2024-01-30T15:14:48.000Z</time>
      </trkpt>
      <trkpt lat="44.69387" lon="3.03237">
        <ele>1072.5999755859</ele>
        <time>2024-01-30T15:14:50.000Z</time>
      </trkpt>
      <trkpt lat="44.69391" lon="3.03145">
        <ele>1072.5999755859</ele>
        <time>2024-01-30T15:14:54.000Z</time>
      </trkpt>
      <trkpt lat="44.69392" lon="3.03099">
        <ele>1072.4000244141</ele>
        <time>2024-01-30T15:14:56.000Z</time>
      </trkpt>
      <trkpt lat="44.69385" lon="3.03009">
        <ele>1072</ele>
        <time>2024-01-30T15:15:00.000Z</time>
      </trkpt>
      <trkpt lat="44.69384" lon="3.02987">
        <ele>1071.5999755859</ele>
        <time>2024-01-30T15:15:01.000Z</time>
      </trkpt>
      <trkpt lat="44.69383" lon="3.029">
        <ele>1070.5999755859</ele>
        <time>2024-01-30T15:15:05.000Z</time>
      </trkpt>
      <trkpt lat="44.69385" lon="3.02878">
        <ele>1070.4000244141</ele>
        <time>2024-01-30T15:15:06.000Z</time>
      </trkpt>
      <trkpt lat="44.69391" lon="3.02815">
        <ele>1070</ele>
        <time>2024-01-30T15:15:09.000Z</time>
      </trkpt>
      <trkpt lat="44.69397" lon="3.02779">
        <ele>1068</ele>
        <time>2024-01-30T15:15:11.000Z</time>
      </trkpt>
      <trkpt lat="44.69399" lon="3.02764">
        <ele>1066.5999755859</ele>
        <time>2024-01-30T15:15:12.000Z</time>
      </trkpt>
      <trkpt lat="44.69398" lon="3.02721">
        <ele>1066.1999511719</ele>
        <time>2024-01-30T15:15:15.000Z</time>
      </trkpt>
      <trkpt lat="44.69403" lon="3.02694">
        <ele>1066.1999511719</ele>
        <time>2024-01-30T15:15:17.000Z</time>
      </trkpt>
      <trkpt lat="44.69409" lon="3.02682">
        <ele>1066.1999511719</ele>
        <time>2024-01-30T15:15:18.000Z</time>
      </trkpt>
      <trkpt lat="44.69436" lon="3.0264">
        <ele>1068.1999511719</ele>
        <time>2024-01-30T15:15:21.000Z</time>
      </trkpt>
      <trkpt lat="44.69454" lon="3.02613">
        <ele>1069.8000488281</ele>
        <time>2024-01-30T15:15:23.000Z</time>
      </trkpt>
      <trkpt lat="44.69474" lon="3.0258">
        <ele>1072</ele>
        <time>2024-01-30T15:15:25.000Z</time>
      </trkpt>
      <trkpt lat="44.69485" lon="3.02563">
        <ele>1073.1999511719</ele>
        <time>2024-01-30T15:15:26.000Z</time>
      </trkpt>
      <trkpt lat="44.69509" lon="3.02532">
        <ele>1073.8000488281</ele>
        <time>2024-01-30T15:15:28.000Z</time>
      </trkpt>
      <trkpt lat="44.69533" lon="3.02503">
        <ele>1074.1999511719</ele>
        <time>2024-01-30T15:15:30.000Z</time>
      </trkpt>
      <trkpt lat="44.69554" lon="3.02472">
        <ele>1075.4000244141</ele>
        <time>2024-01-30T15:15:32.000Z</time>
      </trkpt>
      <trkpt lat="44.69581" lon="3.02418">
        <ele>1077</ele>
        <time>2024-01-30T15:15:35.000Z</time>
      </trkpt>
      <trkpt lat="44.69592" lon="3.02401">
        <ele>1077.4000244141</ele>
        <time>2024-01-30T15:15:36.000Z</time>
      </trkpt>
      <trkpt lat="44.69604" lon="3.02385">
        <ele>1078.1999511719</ele>
        <time>2024-01-30T15:15:37.000Z</time>
      </trkpt>
      <trkpt lat="44.69617" lon="3.02371">
        <ele>1079.4000244141</ele>
        <time>2024-01-30T15:15:38.000Z</time>
      </trkpt>
      <trkpt lat="44.69631" lon="3.02358">
        <ele>1080.1999511719</ele>
        <time>2024-01-30T15:15:39.000Z</time>
      </trkpt>
      <trkpt lat="44.69646" lon="3.02347">
        <ele>1080.4000244141</ele>
        <time>2024-01-30T15:15:40.000Z</time>
      </trkpt>
      <trkpt lat="44.69676" lon="3.02334">
        <ele>1081.8000488281</ele>
        <time>2024-01-30T15:15:42.000Z</time>
      </trkpt>
      <trkpt lat="44.69694" lon="3.02329">
        <ele>1083</ele>
        <time>2024-01-30T15:15:43.000Z</time>
      </trkpt>
      <trkpt lat="44.69712" lon="3.02324">
        <ele>1084.1999511719</ele>
        <time>2024-01-30T15:15:44.000Z</time>
      </trkpt>
      <trkpt lat="44.69747" lon="3.02319">
        <ele>1085</ele>
        <time>2024-01-30T15:15:46.000Z</time>
      </trkpt>
      <trkpt lat="44.69765" lon="3.02317">
        <ele>1086</ele>
        <time>2024-01-30T15:15:47.000Z</time>
      </trkpt>
      <trkpt lat="44.69782" lon="3.02315">
        <ele>1087.4000244141</ele>
        <time>2024-01-30T15:15:48.000Z</time>
      </trkpt>
      <trkpt lat="44.69842" lon="3.02298">
        <ele>1089.1999511719</ele>
        <time>2024-01-30T15:15:51.000Z</time>
      </trkpt>
      <trkpt lat="44.69855" lon="3.02292">
        <ele>1090.4000244141</ele>
        <time>2024-01-30T15:15:52.000Z</time>
      </trkpt>
      <trkpt lat="44.69892" lon="3.02273">
        <ele>1091.8000488281</ele>
        <time>2024-01-30T15:15:54.000Z</time>
      </trkpt>
      <trkpt lat="44.69905" lon="3.02265">
        <ele>1092.4000244141</ele>
        <time>2024-01-30T15:15:55.000Z</time>
      </trkpt>
      <trkpt lat="44.69939" lon="3.02243">
        <ele>1093.5999755859</ele>
        <time>2024-01-30T15:15:57.000Z</time>
      </trkpt>
      <trkpt lat="44.69973" lon="3.02229">
        <ele>1094.1999511719</ele>
        <time>2024-01-30T15:15:59.000Z</time>
      </trkpt>
      <trkpt lat="44.69988" lon="3.02227">
        <ele>1094.8000488281</ele>
        <time>2024-01-30T15:16:00.000Z</time>
      </trkpt>
      <trkpt lat="44.70023" lon="3.02227">
        <ele>1096</ele>
        <time>2024-01-30T15:16:02.000Z</time>
      </trkpt>
      <trkpt lat="44.7006" lon="3.02227">
        <ele>1097.8000488281</ele>
        <time>2024-01-30T15:16:04.000Z</time>
      </trkpt>
      <trkpt lat="44.70087" lon="3.0222">
        <ele>1098.4000244141</ele>
        <time>2024-01-30T15:16:06.000Z</time>
      </trkpt>
      <trkpt lat="44.70115" lon="3.02198">
        <ele>1099.1999511719</ele>
        <time>2024-01-30T15:16:08.000Z</time>
      </trkpt>
      <trkpt lat="44.70136" lon="3.02169">
        <ele>1100.5999755859</ele>
        <time>2024-01-30T15:16:10.000Z</time>
      </trkpt>
      <trkpt lat="44.70147" lon="3.02152">
        <ele>1102.4000244141</ele>
        <time>2024-01-30T15:16:11.000Z</time>
      </trkpt>
      <trkpt lat="44.70176" lon="3.02095">
        <ele>1103.1999511719</ele>
        <time>2024-01-30T15:16:14.000Z</time>
      </trkpt>
      <trkpt lat="44.70183" lon="3.02076">
        <ele>1103.4000244141</ele>
        <time>2024-01-30T15:16:15.000Z</time>
      </trkpt>
      <trkpt lat="44.70192" lon="3.02042">
        <ele>1103.5999755859</ele>
        <time>2024-01-30T15:16:17.000Z</time>
      </trkpt>
      <trkpt lat="44.70194" lon="3.0202">
        <ele>1103.8000488281</ele>
        <time>2024-01-30T15:16:18.000Z</time>
      </trkpt>
      <trkpt lat="44.70194" lon="3.02005">
        <ele>1103.8000488281</ele>
        <time>2024-01-30T15:16:19.000Z</time>
      </trkpt>
      <trkpt lat="44.70192" lon="3.01987">
        <ele>1104</ele>
        <time>2024-01-30T15:16:20.000Z</time>
      </trkpt>
      <trkpt lat="44.70189" lon="3.01971">
        <ele>1104</ele>
        <time>2024-01-30T15:16:21.000Z</time>
      </trkpt>
      <trkpt lat="44.70176" lon="3.01938">
        <ele>1104</ele>
        <time>2024-01-30T15:16:23.000Z</time>
      </trkpt>
      <trkpt lat="44.70151" lon="3.01885">
        <ele>1104.8000488281</ele>
        <time>2024-01-30T15:16:26.000Z</time>
      </trkpt>
      <trkpt lat="44.70142" lon="3.01866">
        <ele>1105</ele>
        <time>2024-01-30T15:16:27.000Z</time>
      </trkpt>
      <trkpt lat="44.70133" lon="3.01845">
        <ele>1105.1999511719</ele>
        <time>2024-01-30T15:16:28.000Z</time>
      </trkpt>
      <trkpt lat="44.70104" lon="3.0178">
        <ele>1105.4000244141</ele>
        <time>2024-01-30T15:16:31.000Z</time>
      </trkpt>
      <trkpt lat="44.70087" lon="3.01741">
        <ele>1105.8000488281</ele>
        <time>2024-01-30T15:16:33.000Z</time>
      </trkpt>
      <trkpt lat="44.70075" lon="3.01715">
        <ele>1106.1999511719</ele>
        <time>2024-01-30T15:16:34.000Z</time>
      </trkpt>
      <trkpt lat="44.70038" lon="3.01632">
        <ele>1105.4000244141</ele>
        <time>2024-01-30T15:16:38.000Z</time>
      </trkpt>
      <trkpt lat="44.70029" lon="3.01613">
        <ele>1104.5999755859</ele>
        <time>2024-01-30T15:16:39.000Z</time>
      </trkpt>
      <trkpt lat="44.70009" lon="3.01577">
        <ele>1103.4000244141</ele>
        <time>2024-01-30T15:16:41.000Z</time>
      </trkpt>
      <trkpt lat="44.6997" lon="3.01534">
        <ele>1102.5999755859</ele>
        <time>2024-01-30T15:16:44.000Z</time>
      </trkpt>
      <trkpt lat="44.69947" lon="3.01508">
        <ele>1102.1999511719</ele>
        <time>2024-01-30T15:16:46.000Z</time>
      </trkpt>
      <trkpt lat="44.69931" lon="3.01484">
        <ele>1101.8000488281</ele>
        <time>2024-01-30T15:16:48.000Z</time>
      </trkpt>
      <trkpt lat="44.69923" lon="3.01469">
        <ele>1101.1999511719</ele>
        <time>2024-01-30T15:16:49.000Z</time>
      </trkpt>
      <trkpt lat="44.69917" lon="3.01452">
        <ele>1101.1999511719</ele>
        <time>2024-01-30T15:16:50.000Z</time>
      </trkpt>
      <trkpt lat="44.69913" lon="3.01434">
        <ele>1101.1999511719</ele>
        <time>2024-01-30T15:16:51.000Z</time>
      </trkpt>
      <trkpt lat="44.69893" lon="3.01362">
        <ele>1101.1999511719</ele>
        <time>2024-01-30T15:16:55.000Z</time>
      </trkpt>
      <trkpt lat="44.69885" lon="3.01341">
        <ele>1101.1999511719</ele>
        <time>2024-01-30T15:16:56.000Z</time>
      </trkpt>
      <trkpt lat="44.69849" lon="3.01279">
        <ele>1101.1999511719</ele>
        <time>2024-01-30T15:17:00.000Z</time>
      </trkpt>
      <trkpt lat="44.69802" lon="3.01216">
        <ele>1100.5999755859</ele>
        <time>2024-01-30T15:17:04.000Z</time>
      </trkpt>
      <trkpt lat="44.69787" lon="3.01197">
        <ele>1099.5999755859</ele>
        <time>2024-01-30T15:17:05.000Z</time>
      </trkpt>
      <trkpt lat="44.69764" lon="3.01164">
        <ele>1097.8000488281</ele>
        <time>2024-01-30T15:17:07.000Z</time>
      </trkpt>
      <trkpt lat="44.69756" lon="3.0115">
        <ele>1096.8000488281</ele>
        <time>2024-01-30T15:17:08.000Z</time>
      </trkpt>
      <trkpt lat="44.69748" lon="3.01132">
        <ele>1095</ele>
        <time>2024-01-30T15:17:09.000Z</time>
      </trkpt>
      <trkpt lat="44.69742" lon="3.01113">
        <ele>1094.4000244141</ele>
        <time>2024-01-30T15:17:10.000Z</time>
      </trkpt>
      <trkpt lat="44.69738" lon="3.01088">
        <ele>1094</ele>
        <time>2024-01-30T15:17:11.000Z</time>
      </trkpt>
      <trkpt lat="44.69735" lon="3.01066">
        <ele>1092.8000488281</ele>
        <time>2024-01-30T15:17:12.000Z</time>
      </trkpt>
      <trkpt lat="44.69731" lon="3.01025">
        <ele>1091.1999511719</ele>
        <time>2024-01-30T15:17:14.000Z</time>
      </trkpt>
      <trkpt lat="44.69729" lon="3.01">
        <ele>1089.8000488281</ele>
        <time>2024-01-30T15:17:15.000Z</time>
      </trkpt>
      <trkpt lat="44.69727" lon="3.00984">
        <ele>1088.4000244141</ele>
        <time>2024-01-30T15:17:16.000Z</time>
      </trkpt>
      <trkpt lat="44.69725" lon="3.00966">
        <ele>1086.4000244141</ele>
        <time>2024-01-30T15:17:17.000Z</time>
      </trkpt>
      <trkpt lat="44.69721" lon="3.00927">
        <ele>1084</ele>
        <time>2024-01-30T15:17:19.000Z</time>
      </trkpt>
      <trkpt lat="44.69719" lon="3.00913">
        <ele>1082.8000488281</ele>
        <time>2024-01-30T15:17:20.000Z</time>
      </trkpt>
      <trkpt lat="44.69716" lon="3.00892">
        <ele>1082.1999511719</ele>
        <time>2024-01-30T15:17:21.000Z</time>
      </trkpt>
      <trkpt lat="44.69713" lon="3.00875">
        <ele>1081.5999755859</ele>
        <time>2024-01-30T15:17:22.000Z</time>
      </trkpt>
      <trkpt lat="44.69708" lon="3.0085">
        <ele>1079.8000488281</ele>
        <time>2024-01-30T15:17:24.000Z</time>
      </trkpt>
      <trkpt lat="44.69706" lon="3.00838">
        <ele>1078.1999511719</ele>
        <time>2024-01-30T15:17:25.000Z</time>
      </trkpt>
      <trkpt lat="44.69703" lon="3.00826">
        <ele>1076.8000488281</ele>
        <time>2024-01-30T15:17:26.000Z</time>
      </trkpt>
      <trkpt lat="44.69696" lon="3.00803">
        <ele>1075.5999755859</ele>
        <time>2024-01-30T15:17:28.000Z</time>
      </trkpt>
      <trkpt lat="44.69685" lon="3.00768">
        <ele>1074.5999755859</ele>
        <time>2024-01-30T15:17:31.000Z</time>
      </trkpt>
      <trkpt lat="44.69677" lon="3.00746">
        <ele>1071.9</ele>
      </trkpt>
      <trkpt lat="44.6967" lon="3.00722">
        <ele>1073.1</ele>
      </trkpt>
      <trkpt lat="44.69676" lon="3.00716">
        <ele>1073.5</ele>
      </trkpt>
      <trkpt lat="44.69683" lon="3.00714">
        <ele>1074</ele>
        <time>2024-01-30T15:21:23.000Z</time>
      </trkpt>
      <trkpt lat="44.69697" lon="3.007">
        <ele>1074.4000244141</ele>
        <time>2024-01-30T15:21:31.000Z</time>
      </trkpt>
      <trkpt lat="44.69699" lon="3.00697">
        <ele>1074.8000488281</ele>
        <time>2024-01-30T15:21:33.000Z</time>
      </trkpt>
      <trkpt lat="44.69703" lon="3.0069">
        <ele>1075.1999511719</ele>
        <time>2024-01-30T15:21:36.000Z</time>
      </trkpt>
      <trkpt lat="44.69709" lon="3.00675">
        <ele>1076</ele>
        <time>2024-01-30T15:21:40.000Z</time>
      </trkpt>
      <trkpt lat="44.6971" lon="3.00672">
        <ele>1076.4000244141</ele>
        <time>2024-01-30T15:21:41.000Z</time>
      </trkpt>
      <trkpt lat="44.69715" lon="3.00659">
        <ele>1077.4000244141</ele>
        <time>2024-01-30T15:21:45.000Z</time>
      </trkpt>
      <trkpt lat="44.69717" lon="3.00655">
        <ele>1078</ele>
        <time>2024-01-30T15:21:47.000Z</time>
      </trkpt>
      <trkpt lat="44.69719" lon="3.00655">
        <ele>1078.4000244141</ele>
        <time>2024-01-30T15:21:48.000Z</time>
      </trkpt>
      <trkpt lat="44.69721" lon="3.00654">
        <ele>1078.5999755859</ele>
        <time>2024-01-30T15:21:49.000Z</time>
      </trkpt>
      <trkpt lat="44.6973" lon="3.00655">
        <ele>1079.4000244141</ele>
        <time>2024-01-30T15:21:52.000Z</time>
      </trkpt>
      <trkpt lat="44.69734" lon="3.00655">
        <ele>1079.8000488281</ele>
        <time>2024-01-30T15:21:53.000Z</time>
      </trkpt>
      <trkpt lat="44.69747" lon="3.00655">
        <ele>1081.1999511719</ele>
        <time>2024-01-30T15:21:56.000Z</time>
      </trkpt>
      <trkpt lat="44.69756" lon="3.00656">
        <ele>1082.4000244141</ele>
        <time>2024-01-30T15:21:58.000Z</time>
      </trkpt>
      <trkpt lat="44.69771" lon="3.00658">
        <ele>1084</ele>
        <time>2024-01-30T15:22:01.000Z</time>
      </trkpt>
      <trkpt lat="44.69784" lon="3.00657">
        <ele>1085.8000488281</ele>
        <time>2024-01-30T15:22:03.000Z</time>
      </trkpt>
      <trkpt lat="44.69793" lon="3.00653">
        <ele>1087</ele>
        <time>2024-01-30T15:22:05.000Z</time>
      </trkpt>
      <trkpt lat="44.69803" lon="3.00644">
        <ele>1088</ele>
        <time>2024-01-30T15:22:07.000Z</time>
      </trkpt>
      <trkpt lat="44.69818" lon="3.0063">
        <ele>1089.8000488281</ele>
        <time>2024-01-30T15:22:10.000Z</time>
      </trkpt>
      <trkpt lat="44.69826" lon="3.00623">
        <ele>1091</ele>
        <time>2024-01-30T15:22:12.000Z</time>
      </trkpt>
      <trkpt lat="44.69831" lon="3.0062">
        <ele>1092</ele>
        <time>2024-01-30T15:22:13.000Z</time>
      </trkpt>
      <trkpt lat="44.69835" lon="3.00617">
        <ele>1092.8000488281</ele>
        <time>2024-01-30T15:22:14.000Z</time>
      </trkpt>
      <trkpt lat="44.6984" lon="3.00613">
        <ele>1093.5999755859</ele>
        <time>2024-01-30T15:22:15.000Z</time>
      </trkpt>
      <trkpt lat="44.69843" lon="3.00611">
        <ele>1094.5999755859</ele>
        <time>2024-01-30T15:22:16.000Z</time>
      </trkpt>
      <trkpt lat="44.69853" lon="3.00603">
        <ele>1096</ele>
        <time>2024-01-30T15:22:19.000Z</time>
      </trkpt>
      <trkpt lat="44.6986" lon="3.00597">
        <ele>1097</ele>
        <time>2024-01-30T15:22:21.000Z</time>
      </trkpt>
      <trkpt lat="44.69864" lon="3.00593">
        <ele>1097.1999511719</ele>
        <time>2024-01-30T15:22:22.000Z</time>
      </trkpt>
      <trkpt lat="44.6987" lon="3.00582">
        <ele>1098.4000244141</ele>
        <time>2024-01-30T15:22:24.000Z</time>
      </trkpt>
      <trkpt lat="44.69872" lon="3.00569">
        <ele>1099.8000488281</ele>
        <time>2024-01-30T15:22:26.000Z</time>
      </trkpt>
      <trkpt lat="44.69872" lon="3.00564">
        <ele>1100</ele>
        <time>2024-01-30T15:22:27.000Z</time>
      </trkpt>
      <trkpt lat="44.6987" lon="3.00556">
        <ele>1100.5999755859</ele>
        <time>2024-01-30T15:22:28.000Z</time>
      </trkpt>
      <trkpt lat="44.69868" lon="3.00549">
        <ele>1101.1999511719</ele>
        <time>2024-01-30T15:22:29.000Z</time>
      </trkpt>
      <trkpt lat="44.69864" lon="3.00536">
        <ele>1102.1999511719</ele>
        <time>2024-01-30T15:22:31.000Z</time>
      </trkpt>
      <trkpt lat="44.69861" lon="3.00529">
        <ele>1102.8000488281</ele>
        <time>2024-01-30T15:22:32.000Z</time>
      </trkpt>
      <trkpt lat="44.69857" lon="3.00522">
        <ele>1103.8000488281</ele>
        <time>2024-01-30T15:22:34.000Z</time>
      </trkpt>
      <trkpt lat="44.69854" lon="3.00519">
        <ele>1104</ele>
        <time>2024-01-30T15:22:35.000Z</time>
      </trkpt>
      <trkpt lat="44.69841" lon="3.00513">
        <ele>1105</ele>
        <time>2024-01-30T15:22:39.000Z</time>
      </trkpt>
      <trkpt lat="44.69837" lon="3.00512">
        <ele>1105.1999511719</ele>
        <time>2024-01-30T15:22:40.000Z</time>
      </trkpt>
      <trkpt lat="44.69825" lon="3.00508">
        <ele>1106.8000488281</ele>
        <time>2024-01-30T15:22:42.000Z</time>
      </trkpt>
      <trkpt lat="44.69815" lon="3.00505">
        <ele>1108</ele>
        <time>2024-01-30T15:22:44.000Z</time>
      </trkpt>
      <trkpt lat="44.69805" lon="3.00501">
        <ele>1109</ele>
        <time>2024-01-30T15:22:46.000Z</time>
      </trkpt>
      <trkpt lat="44.69796" lon="3.00498">
        <ele>1110.1999511719</ele>
        <time>2024-01-30T15:22:48.000Z</time>
      </trkpt>
      <trkpt lat="44.69791" lon="3.00497">
        <ele>1110.5999755859</ele>
        <time>2024-01-30T15:22:49.000Z</time>
      </trkpt>
      <trkpt lat="44.69783" lon="3.00492">
        <ele>1111.4000244141</ele>
        <time>2024-01-30T15:22:51.000Z</time>
      </trkpt>
      <trkpt lat="44.69777" lon="3.00475">
        <ele>1112.4000244141</ele>
        <time>2024-01-30T15:22:55.000Z</time>
      </trkpt>
      <trkpt lat="44.69776" lon="3.00472">
        <ele>1112.5999755859</ele>
        <time>2024-01-30T15:22:56.000Z</time>
      </trkpt>
      <trkpt lat="44.69776" lon="3.0047">
        <ele>1112.5999755859</ele>
        <time>2024-01-30T15:22:59.000Z</time>
      </trkpt>
      <trkpt lat="44.69775" lon="3.00471">
        <ele>1112.5999755859</ele>
        <time>2024-01-30T15:23:08.000Z</time>
      </trkpt>
      <trkpt lat="44.69775" lon="3.00471">
        <ele>1112.5999755859</ele>
        <time>2024-01-30T15:23:21.000Z</time>
      </trkpt>
      <trkpt lat="44.69775" lon="3.00471">
        <ele>1112.5999755859</ele>
        <time>2024-01-30T15:23:31.000Z</time>
      </trkpt>
      <trkpt lat="44.69775" lon="3.00471">
        <ele>1112.5999755859</ele>
        <time>2024-01-30T15:23:40.000Z</time>
      </trkpt>
      <trkpt lat="44.69775" lon="3.00471">
        <ele>1112.5999755859</ele>
        <time>2024-01-30T15:23:49.000Z</time>
      </trkpt>
      <trkpt lat="44.69775" lon="3.00471">
        <ele>1112.5999755859</ele>
        <time>2024-01-30T15:23:51.000Z</time>
      </trkpt>
      <trkpt lat="44.69775" lon="3.00471">
        <ele>1112.5999755859</ele>
        <time>2024-01-30T15:23:58.000Z</time>
      </trkpt>
      <trkpt lat="44.69775" lon="3.00471">
        <ele>1112.5999755859</ele>
        <time>2024-01-30T15:24:05.000Z</time>
      </trkpt>
      <trkpt lat="44.69774" lon="3.0047">
        <ele>1112.5999755859</ele>
        <time>2024-01-30T15:24:12.000Z</time>
      </trkpt>
      <trkpt lat="44.69774" lon="3.00468">
        <ele>1112.5999755859</ele>
        <time>2024-01-30T15:24:13.000Z</time>
      </trkpt>
      <trkpt lat="44.69773" lon="3.00459">
        <ele>1112.4000244141</ele>
        <time>2024-01-30T15:24:16.000Z</time>
      </trkpt>
      <trkpt lat="44.6977" lon="3.00437">
        <ele>1113</ele>
        <time>2024-01-30T15:24:20.000Z</time>
      </trkpt>
      <trkpt lat="44.69768" lon="3.00414">
        <ele>1113.5999755859</ele>
        <time>2024-01-30T15:24:24.000Z</time>
      </trkpt>
      <trkpt lat="44.69768" lon="3.00407">
        <ele>1113.8000488281</ele>
        <time>2024-01-30T15:24:25.000Z</time>
      </trkpt>
      <trkpt lat="44.69767" lon="3.00391">
        <ele>1114.4000244141</ele>
        <time>2024-01-30T15:24:27.000Z</time>
      </trkpt>
      <trkpt lat="44.69765" lon="3.00385">
        <ele>1114.8000488281</ele>
        <time>2024-01-30T15:24:28.000Z</time>
      </trkpt>
      <trkpt lat="44.69763" lon="3.00375">
        <ele>1115.1999511719</ele>
        <time>2024-01-30T15:24:29.000Z</time>
      </trkpt>
      <trkpt lat="44.69761" lon="3.00366">
        <ele>1115.8000488281</ele>
        <time>2024-01-30T15:24:30.000Z</time>
      </trkpt>
      <trkpt lat="44.69757" lon="3.0035">
        <ele>1116.1999511719</ele>
        <time>2024-01-30T15:24:32.000Z</time>
      </trkpt>
      <trkpt lat="44.69753" lon="3.00334">
        <ele>1117</ele>
        <time>2024-01-30T15:24:34.000Z</time>
      </trkpt>
      <trkpt lat="44.69752" lon="3.00318">
        <ele>1117.4000244141</ele>
        <time>2024-01-30T15:24:36.000Z</time>
      </trkpt>
      <trkpt lat="44.69753" lon="3.00306">
        <ele>1118</ele>
        <time>2024-01-30T15:24:38.000Z</time>
      </trkpt>
      <trkpt lat="44.69755" lon="3.00303">
        <ele>1118.1999511719</ele>
        <time>2024-01-30T15:24:39.000Z</time>
      </trkpt>
      <trkpt lat="44.69767" lon="3.00278">
        <ele>1119</ele>
        <time>2024-01-30T15:24:43.000Z</time>
      </trkpt>
      <trkpt lat="44.69778" lon="3.00246">
        <ele>1119.5999755859</ele>
        <time>2024-01-30T15:24:48.000Z</time>
      </trkpt>
      <trkpt lat="44.69781" lon="3.00243">
        <ele>1119.4000244141</ele>
        <time>2024-01-30T15:24:49.000Z</time>
      </trkpt>
      <trkpt lat="44.69795" lon="3.00229">
        <ele>1119</ele>
        <time>2024-01-30T15:24:54.000Z</time>
      </trkpt>
      <trkpt lat="44.69817" lon="3.00216">
        <ele>1119</ele>
        <time>2024-01-30T15:24:58.000Z</time>
      </trkpt>
      <trkpt lat="44.69835" lon="3.0021">
        <ele>1119.1999511719</ele>
        <time>2024-01-30T15:25:00.000Z</time>
      </trkpt>
      <trkpt lat="44.69842" lon="3.00209">
        <ele>1119.4000244141</ele>
        <time>2024-01-30T15:25:01.000Z</time>
      </trkpt>
      <trkpt lat="44.69865" lon="3.00208">
        <ele>1120.4000244141</ele>
        <time>2024-01-30T15:25:03.000Z</time>
      </trkpt>
      <trkpt lat="44.69877" lon="3.0021">
        <ele>1120.5999755859</ele>
        <time>2024-01-30T15:25:04.000Z</time>
      </trkpt>
      <trkpt lat="44.69933" lon="3.0022">
        <ele>1120.8000488281</ele>
        <time>2024-01-30T15:25:08.000Z</time>
      </trkpt>
      <trkpt lat="44.69991" lon="3.00223">
        <ele>1120.4000244141</ele>
        <time>2024-01-30T15:25:12.000Z</time>
      </trkpt>
      <trkpt lat="44.70035" lon="3.00217">
        <ele>1119.1999511719</ele>
        <time>2024-01-30T15:25:15.000Z</time>
      </trkpt>
      <trkpt lat="44.70065" lon="3.00217">
        <ele>1118.4000244141</ele>
        <time>2024-01-30T15:25:17.000Z</time>
      </trkpt>
      <trkpt lat="44.70079" lon="3.00219">
        <ele>1118</ele>
        <time>2024-01-30T15:25:18.000Z</time>
      </trkpt>
      <trkpt lat="44.70106" lon="3.00228">
        <ele>1117</ele>
        <time>2024-01-30T15:25:20.000Z</time>
      </trkpt>
      <trkpt lat="44.70118" lon="3.00234">
        <ele>1116.5999755859</ele>
        <time>2024-01-30T15:25:21.000Z</time>
      </trkpt>
      <trkpt lat="44.70133" lon="3.00245">
        <ele>1116</ele>
        <time>2024-01-30T15:25:22.000Z</time>
      </trkpt>
      <trkpt lat="44.70143" lon="3.00253">
        <ele>1116</ele>
        <time>2024-01-30T15:25:23.000Z</time>
      </trkpt>
      <trkpt lat="44.70195" lon="3.00294">
        <ele>1116</ele>
        <time>2024-01-30T15:25:27.000Z</time>
      </trkpt>
      <trkpt lat="44.70212" lon="3.00305">
        <ele>1116</ele>
        <time>2024-01-30T15:25:28.000Z</time>
      </trkpt>
      <trkpt lat="44.70268" lon="3.00342">
        <ele>1115.1999511719</ele>
        <time>2024-01-30T15:25:32.000Z</time>
      </trkpt>
      <trkpt lat="44.703" lon="3.00362">
        <ele>1114.8000488281</ele>
        <time>2024-01-30T15:25:34.000Z</time>
      </trkpt>
      <trkpt lat="44.70363" lon="3.00403">
        <ele>1113.4000244141</ele>
        <time>2024-01-30T15:25:38.000Z</time>
      </trkpt>
      <trkpt lat="44.7038" lon="3.00412">
        <ele>1105.4000244141</ele>
        <time>2024-01-30T15:25:39.000Z</time>
      </trkpt>
      <trkpt lat="44.70396" lon="3.00418">
        <ele>1105</ele>
        <time>2024-01-30T15:25:40.000Z</time>
      </trkpt>
      <trkpt lat="44.70429" lon="3.00432">
        <ele>1103.8000488281</ele>
        <time>2024-01-30T15:25:42.000Z</time>
      </trkpt>
      <trkpt lat="44.70462" lon="3.00444">
        <ele>1102.4000244141</ele>
        <time>2024-01-30T15:25:44.000Z</time>
      </trkpt>
      <trkpt lat="44.70477" lon="3.00451">
        <ele>1101.8000488281</ele>
        <time>2024-01-30T15:25:45.000Z</time>
      </trkpt>
      <trkpt lat="44.70491" lon="3.00458">
        <ele>1101</ele>
        <time>2024-01-30T15:25:46.000Z</time>
      </trkpt>
      <trkpt lat="44.70515" lon="3.00479">
        <ele>1099.4000244141</ele>
        <time>2024-01-30T15:25:48.000Z</time>
      </trkpt>
      <trkpt lat="44.70526" lon="3.00493">
        <ele>1098.8000488281</ele>
        <time>2024-01-30T15:25:49.000Z</time>
      </trkpt>
      <trkpt lat="44.70534" lon="3.00509">
        <ele>1098.5999755859</ele>
        <time>2024-01-30T15:25:50.000Z</time>
      </trkpt>
      <trkpt lat="44.70541" lon="3.00526">
        <ele>1098</ele>
        <time>2024-01-30T15:25:51.000Z</time>
      </trkpt>
      <trkpt lat="44.70545" lon="3.00545">
        <ele>1097.8000488281</ele>
        <time>2024-01-30T15:25:52.000Z</time>
      </trkpt>
      <trkpt lat="44.70547" lon="3.00566">
        <ele>1097.4000244141</ele>
        <time>2024-01-30T15:25:53.000Z</time>
      </trkpt>
      <trkpt lat="44.70546" lon="3.00608">
        <ele>1097.1999511719</ele>
        <time>2024-01-30T15:25:55.000Z</time>
      </trkpt>
      <trkpt lat="44.70541" lon="3.00652">
        <ele>1097</ele>
        <time>2024-01-30T15:25:57.000Z</time>
      </trkpt>
      <trkpt lat="44.7054" lon="3.00695">
        <ele>1096.4000244141</ele>
        <time>2024-01-30T15:25:59.000Z</time>
      </trkpt>
      <trkpt lat="44.70547" lon="3.00737">
        <ele>1096</ele>
        <time>2024-01-30T15:26:01.000Z</time>
      </trkpt>
      <trkpt lat="44.70554" lon="3.00755">
        <ele>1095.5999755859</ele>
        <time>2024-01-30T15:26:02.000Z</time>
      </trkpt>
      <trkpt lat="44.70564" lon="3.00772">
        <ele>1095.4000244141</ele>
        <time>2024-01-30T15:26:03.000Z</time>
      </trkpt>
      <trkpt lat="44.70599" lon="3.00813">
        <ele>1094.8000488281</ele>
        <time>2024-01-30T15:26:06.000Z</time>
      </trkpt>
      <trkpt lat="44.70612" lon="3.00825">
        <ele>1094.5999755859</ele>
        <time>2024-01-30T15:26:07.000Z</time>
      </trkpt>
      <trkpt lat="44.70626" lon="3.00835">
        <ele>1094.4000244141</ele>
        <time>2024-01-30T15:26:08.000Z</time>
      </trkpt>
      <trkpt lat="44.70641" lon="3.00843">
        <ele>1094.4000244141</ele>
        <time>2024-01-30T15:26:09.000Z</time>
      </trkpt>
      <trkpt lat="44.70672" lon="3.00853">
        <ele>1093.8000488281</ele>
        <time>2024-01-30T15:26:11.000Z</time>
      </trkpt>
      <trkpt lat="44.70689" lon="3.00854">
        <ele>1093.8000488281</ele>
        <time>2024-01-30T15:26:12.000Z</time>
      </trkpt>
      <trkpt lat="44.70744" lon="3.00854">
        <ele>1093.5999755859</ele>
        <time>2024-01-30T15:26:15.000Z</time>
      </trkpt>
      <trkpt lat="44.70763" lon="3.00854">
        <ele>1093.4000244141</ele>
        <time>2024-01-30T15:26:16.000Z</time>
      </trkpt>
      <trkpt lat="44.70821" lon="3.00854">
        <ele>1092.5999755859</ele>
        <time>2024-01-30T15:26:19.000Z</time>
      </trkpt>
      <trkpt lat="44.70882" lon="3.00854">
        <ele>1092.1999511719</ele>
        <time>2024-01-30T15:26:22.000Z</time>
      </trkpt>
      <trkpt lat="44.70939" lon="3.00855">
        <ele>1091</ele>
        <time>2024-01-30T15:26:25.000Z</time>
      </trkpt>
      <trkpt lat="44.70957" lon="3.00858">
        <ele>1090.8000488281</ele>
        <time>2024-01-30T15:26:26.000Z</time>
      </trkpt>
      <trkpt lat="44.70994" lon="3.0087">
        <ele>1090</ele>
        <time>2024-01-30T15:26:28.000Z</time>
      </trkpt>
      <trkpt lat="44.7103" lon="3.00885">
        <ele>1089.4000244141</ele>
        <time>2024-01-30T15:26:30.000Z</time>
      </trkpt>
      <trkpt lat="44.71082" lon="3.00911">
        <ele>1088.5999755859</ele>
        <time>2024-01-30T15:26:33.000Z</time>
      </trkpt>
      <trkpt lat="44.71097" lon="3.00923">
        <ele>1088</ele>
        <time>2024-01-30T15:26:34.000Z</time>
      </trkpt>
      <trkpt lat="44.71111" lon="3.00937">
        <ele>1087.5999755859</ele>
        <time>2024-01-30T15:26:35.000Z</time>
      </trkpt>
      <trkpt lat="44.71123" lon="3.00954">
        <ele>1087.1999511719</ele>
        <time>2024-01-30T15:26:36.000Z</time>
      </trkpt>
      <trkpt lat="44.71134" lon="3.00974">
        <ele>1087</ele>
        <time>2024-01-30T15:26:37.000Z</time>
      </trkpt>
      <trkpt lat="44.71162" lon="3.01042">
        <ele>1086</ele>
        <time>2024-01-30T15:26:40.000Z</time>
      </trkpt>
      <trkpt lat="44.7119" lon="3.01109">
        <ele>1085</ele>
        <time>2024-01-30T15:26:43.000Z</time>
      </trkpt>
      <trkpt lat="44.71212" lon="3.01151">
        <ele>1084.8000488281</ele>
        <time>2024-01-30T15:26:45.000Z</time>
      </trkpt>
      <trkpt lat="44.71252" lon="3.0121">
        <ele>1084</ele>
        <time>2024-01-30T15:26:48.000Z</time>
      </trkpt>
      <trkpt lat="44.71267" lon="3.0123">
        <ele>1084</ele>
        <time>2024-01-30T15:26:49.000Z</time>
      </trkpt>
      <trkpt lat="44.71311" lon="3.01289">
        <ele>1083.1999511719</ele>
        <time>2024-01-30T15:26:52.000Z</time>
      </trkpt>
      <trkpt lat="44.71325" lon="3.01308">
        <ele>1082</ele>
        <time>2024-01-30T15:26:53.000Z</time>
      </trkpt>
      <trkpt lat="44.71355" lon="3.01344">
        <ele>1081</ele>
        <time>2024-01-30T15:26:55.000Z</time>
      </trkpt>
      <trkpt lat="44.71366" lon="3.01357">
        <ele>1080.1999511719</ele>
        <time>2024-01-30T15:26:56.000Z</time>
      </trkpt>
      <trkpt lat="44.71418" lon="3.01403">
        <ele>1079.1999511719</ele>
        <time>2024-01-30T15:26:59.000Z</time>
      </trkpt>
      <trkpt lat="44.71435" lon="3.01416">
        <ele>1078.5999755859</ele>
        <time>2024-01-30T15:27:00.000Z</time>
      </trkpt>
      <trkpt lat="44.71487" lon="3.01458">
        <ele>1077.5999755859</ele>
        <time>2024-01-30T15:27:03.000Z</time>
      </trkpt>
      <trkpt lat="44.71505" lon="3.01472">
        <ele>1077.5999755859</ele>
        <time>2024-01-30T15:27:04.000Z</time>
      </trkpt>
      <trkpt lat="44.71557" lon="3.01514">
        <ele>1077.1999511719</ele>
        <time>2024-01-30T15:27:07.000Z</time>
      </trkpt>
      <trkpt lat="44.71607" lon="3.01557">
        <ele>1077</ele>
        <time>2024-01-30T15:27:10.000Z</time>
      </trkpt>
      <trkpt lat="44.71657" lon="3.016">
        <ele>1076.5999755859</ele>
        <time>2024-01-30T15:27:13.000Z</time>
      </trkpt>
      <trkpt lat="44.71673" lon="3.01616">
        <ele>1076.5999755859</ele>
        <time>2024-01-30T15:27:14.000Z</time>
      </trkpt>
      <trkpt lat="44.71716" lon="3.01669">
        <ele>1076.8000488281</ele>
        <time>2024-01-30T15:27:17.000Z</time>
      </trkpt>
      <trkpt lat="44.71729" lon="3.01688">
        <ele>1076.8000488281</ele>
        <time>2024-01-30T15:27:18.000Z</time>
      </trkpt>
      <trkpt lat="44.71767" lon="3.01747">
        <ele>1077</ele>
        <time>2024-01-30T15:27:21.000Z</time>
      </trkpt>
      <trkpt lat="44.71789" lon="3.01789">
        <ele>1077</ele>
        <time>2024-01-30T15:27:23.000Z</time>
      </trkpt>
      <trkpt lat="44.71815" lon="3.01859">
        <ele>1076.5999755859</ele>
        <time>2024-01-30T15:27:26.000Z</time>
      </trkpt>
      <trkpt lat="44.71841" lon="3.01928">
        <ele>1075.8000488281</ele>
        <time>2024-01-30T15:27:29.000Z</time>
      </trkpt>
      <trkpt lat="44.71851" lon="3.0195">
        <ele>1075.4000244141</ele>
        <time>2024-01-30T15:27:30.000Z</time>
      </trkpt>
      <trkpt lat="44.71862" lon="3.0197">
        <ele>1075</ele>
        <time>2024-01-30T15:27:31.000Z</time>
      </trkpt>
      <trkpt lat="44.71874" lon="3.01989">
        <ele>1074</ele>
        <time>2024-01-30T15:27:32.000Z</time>
      </trkpt>
      <trkpt lat="44.71887" lon="3.02006">
        <ele>1073.4000244141</ele>
        <time>2024-01-30T15:27:33.000Z</time>
      </trkpt>
      <trkpt lat="44.719" lon="3.02021">
        <ele>1073.1999511719</ele>
        <time>2024-01-30T15:27:34.000Z</time>
      </trkpt>
      <trkpt lat="44.71915" lon="3.02034">
        <ele>1072.5999755859</ele>
        <time>2024-01-30T15:27:35.000Z</time>
      </trkpt>
      <trkpt lat="44.71949" lon="3.02054">
        <ele>1072</ele>
        <time>2024-01-30T15:27:37.000Z</time>
      </trkpt>
      <trkpt lat="44.71984" lon="3.02069">
        <ele>1071.1999511719</ele>
        <time>2024-01-30T15:27:39.000Z</time>
      </trkpt>
      <trkpt lat="44.7204" lon="3.02095">
        <ele>1070.5999755859</ele>
        <time>2024-01-30T15:27:42.000Z</time>
      </trkpt>
      <trkpt lat="44.72079" lon="3.02113">
        <ele>1070.1999511719</ele>
        <time>2024-01-30T15:27:44.000Z</time>
      </trkpt>
      <trkpt lat="44.72136" lon="3.02142">
        <ele>1069.1999511719</ele>
        <time>2024-01-30T15:27:47.000Z</time>
      </trkpt>
      <trkpt lat="44.72154" lon="3.02151">
        <ele>1068.8000488281</ele>
        <time>2024-01-30T15:27:48.000Z</time>
      </trkpt>
      <trkpt lat="44.72187" lon="3.02166">
        <ele>1066.4000244141</ele>
        <time>2024-01-30T15:27:50.000Z</time>
      </trkpt>
      <trkpt lat="44.72203" lon="3.02174">
        <ele>1066</ele>
        <time>2024-01-30T15:27:51.000Z</time>
      </trkpt>
      <trkpt lat="44.72251" lon="3.02199">
        <ele>1065.4000244141</ele>
        <time>2024-01-30T15:27:54.000Z</time>
      </trkpt>
      <trkpt lat="44.72268" lon="3.0221">
        <ele>1065.4000244141</ele>
        <time>2024-01-30T15:27:55.000Z</time>
      </trkpt>
      <trkpt lat="44.72319" lon="3.02243">
        <ele>1065</ele>
        <time>2024-01-30T15:27:58.000Z</time>
      </trkpt>
      <trkpt lat="44.72354" lon="3.02269">
        <ele>1064.8000488281</ele>
        <time>2024-01-30T15:28:00.000Z</time>
      </trkpt>
      <trkpt lat="44.72391" lon="3.02296">
        <ele>1064.4000244141</ele>
        <time>2024-01-30T15:28:02.000Z</time>
      </trkpt>
      <trkpt lat="44.72446" lon="3.02342">
        <ele>1063</ele>
        <time>2024-01-30T15:28:05.000Z</time>
      </trkpt>
      <trkpt lat="44.72499" lon="3.02396">
        <ele>1062.4000244141</ele>
        <time>2024-01-30T15:28:08.000Z</time>
      </trkpt>
      <trkpt lat="44.72533" lon="3.02432">
        <ele>1061.5999755859</ele>
        <time>2024-01-30T15:28:10.000Z</time>
      </trkpt>
      <trkpt lat="44.72584" lon="3.02485">
        <ele>1060.4000244141</ele>
        <time>2024-01-30T15:28:13.000Z</time>
      </trkpt>
      <trkpt lat="44.7262" lon="3.02514">
        <ele>1059.1999511719</ele>
        <time>2024-01-30T15:28:15.000Z</time>
      </trkpt>
      <trkpt lat="44.72658" lon="3.02534">
        <ele>1057.8000488281</ele>
        <time>2024-01-30T15:28:17.000Z</time>
      </trkpt>
      <trkpt lat="44.72677" lon="3.02542">
        <ele>1057.4000244141</ele>
        <time>2024-01-30T15:28:18.000Z</time>
      </trkpt>
      <trkpt lat="44.72716" lon="3.02559">
        <ele>1056.5999755859</ele>
        <time>2024-01-30T15:28:20.000Z</time>
      </trkpt>
      <trkpt lat="44.72772" lon="3.02583">
        <ele>1055.8000488281</ele>
        <time>2024-01-30T15:28:23.000Z</time>
      </trkpt>
      <trkpt lat="44.7279" lon="3.0259">
        <ele>1055</ele>
        <time>2024-01-30T15:28:24.000Z</time>
      </trkpt>
      <trkpt lat="44.72808" lon="3.02595">
        <ele>1054.4000244141</ele>
        <time>2024-01-30T15:28:25.000Z</time>
      </trkpt>
      <trkpt lat="44.72826" lon="3.02597">
        <ele>1054</ele>
        <time>2024-01-30T15:28:26.000Z</time>
      </trkpt>
      <trkpt lat="44.72843" lon="3.02596">
        <ele>1053.4000244141</ele>
        <time>2024-01-30T15:28:27.000Z</time>
      </trkpt>
      <trkpt lat="44.72873" lon="3.02591">
        <ele>1052.8000488281</ele>
        <time>2024-01-30T15:28:29.000Z</time>
      </trkpt>
      <trkpt lat="44.72886" lon="3.02589">
        <ele>1052.5999755859</ele>
        <time>2024-01-30T15:28:30.000Z</time>
      </trkpt>
      <trkpt lat="44.72909" lon="3.02598">
        <ele>1052.5999755859</ele>
        <time>2024-01-30T15:28:32.000Z</time>
      </trkpt>
      <trkpt lat="44.72928" lon="3.02624">
        <ele>1052.5999755859</ele>
        <time>2024-01-30T15:28:34.000Z</time>
      </trkpt>
      <trkpt lat="44.72954" lon="3.02676">
        <ele>1052.8000488281</ele>
        <time>2024-01-30T15:28:37.000Z</time>
      </trkpt>
      <trkpt lat="44.72977" lon="3.02702">
        <ele>1053</ele>
        <time>2024-01-30T15:28:39.000Z</time>
      </trkpt>
      <trkpt lat="44.73033" lon="3.02737">
        <ele>1053.5999755859</ele>
        <time>2024-01-30T15:28:43.000Z</time>
      </trkpt>
      <trkpt lat="44.73097" lon="3.02775">
        <ele>1053.5999755859</ele>
        <time>2024-01-30T15:28:47.000Z</time>
      </trkpt>
      <trkpt lat="44.73114" lon="3.02785">
        <ele>1053.5999755859</ele>
        <time>2024-01-30T15:28:48.000Z</time>
      </trkpt>
      <trkpt lat="44.73166" lon="3.02811">
        <ele>1053.5999755859</ele>
        <time>2024-01-30T15:28:51.000Z</time>
      </trkpt>
      <trkpt lat="44.73185" lon="3.02819">
        <ele>1053.5999755859</ele>
        <time>2024-01-30T15:28:52.000Z</time>
      </trkpt>
      <trkpt lat="44.73243" lon="3.02842">
        <ele>1053.4000244141</ele>
        <time>2024-01-30T15:28:55.000Z</time>
      </trkpt>
      <trkpt lat="44.73283" lon="3.02858">
        <ele>1053.1999511719</ele>
        <time>2024-01-30T15:28:57.000Z</time>
      </trkpt>
      <trkpt lat="44.73345" lon="3.02883">
        <ele>1053</ele>
        <time>2024-01-30T15:29:00.000Z</time>
      </trkpt>
      <trkpt lat="44.73385" lon="3.02899">
        <ele>1052.8000488281</ele>
        <time>2024-01-30T15:29:02.000Z</time>
      </trkpt>
      <trkpt lat="44.73424" lon="3.02915">
        <ele>1052.1999511719</ele>
        <time>2024-01-30T15:29:04.000Z</time>
      </trkpt>
      <trkpt lat="44.73479" lon="3.02933">
        <ele>1051.8000488281</ele>
        <time>2024-01-30T15:29:07.000Z</time>
      </trkpt>
      <trkpt lat="44.73497" lon="3.02938">
        <ele>1051.8000488281</ele>
        <time>2024-01-30T15:29:08.000Z</time>
      </trkpt>
      <trkpt lat="44.73553" lon="3.02948">
        <ele>1051.8000488281</ele>
        <time>2024-01-30T15:29:11.000Z</time>
      </trkpt>
      <trkpt lat="44.73573" lon="3.0295">
        <ele>1051.8000488281</ele>
        <time>2024-01-30T15:29:12.000Z</time>
      </trkpt>
      <trkpt lat="44.73631" lon="3.02957">
        <ele>1052</ele>
        <time>2024-01-30T15:29:15.000Z</time>
      </trkpt>
      <trkpt lat="44.73686" lon="3.02964">
        <ele>1051.8000488281</ele>
        <time>2024-01-30T15:29:18.000Z</time>
      </trkpt>
      <trkpt lat="44.73703" lon="3.02964">
        <ele>1051.5999755859</ele>
        <time>2024-01-30T15:29:19.000Z</time>
      </trkpt>
      <trkpt lat="44.73752" lon="3.02948">
        <ele>1051</ele>
        <time>2024-01-30T15:29:22.000Z</time>
      </trkpt>
      <trkpt lat="44.7382" lon="3.02924">
        <ele>1051.4000244141</ele>
        <time>2024-01-30T15:29:26.000Z</time>
      </trkpt>
      <trkpt lat="44.73874" lon="3.02923">
        <ele>1051.5999755859</ele>
        <time>2024-01-30T15:29:29.000Z</time>
      </trkpt>
      <trkpt lat="44.73932" lon="3.02934">
        <ele>1051.5999755859</ele>
        <time>2024-01-30T15:29:32.000Z</time>
      </trkpt>
      <trkpt lat="44.7397" lon="3.02942">
        <ele>1051.5999755859</ele>
        <time>2024-01-30T15:29:34.000Z</time>
      </trkpt>
      <trkpt lat="44.74028" lon="3.02951">
        <ele>1051.5999755859</ele>
        <time>2024-01-30T15:29:37.000Z</time>
      </trkpt>
      <trkpt lat="44.74066" lon="3.02955">
        <ele>1051.4000244141</ele>
        <time>2024-01-30T15:29:39.000Z</time>
      </trkpt>
      <trkpt lat="44.74124" lon="3.02955">
        <ele>1051.1999511719</ele>
        <time>2024-01-30T15:29:42.000Z</time>
      </trkpt>
      <trkpt lat="44.74143" lon="3.02952">
        <ele>1051.4000244141</ele>
        <time>2024-01-30T15:29:43.000Z</time>
      </trkpt>
      <trkpt lat="44.742" lon="3.02944">
        <ele>1051.4000244141</ele>
        <time>2024-01-30T15:29:46.000Z</time>
      </trkpt>
      <trkpt lat="44.74259" lon="3.02936">
        <ele>1051.5999755859</ele>
        <time>2024-01-30T15:29:49.000Z</time>
      </trkpt>
      <trkpt lat="44.74318" lon="3.02926">
        <ele>1051.4000244141</ele>
        <time>2024-01-30T15:29:52.000Z</time>
      </trkpt>
      <trkpt lat="44.74377" lon="3.02917">
        <ele>1051.4000244141</ele>
        <time>2024-01-30T15:29:55.000Z</time>
      </trkpt>
      <trkpt lat="44.74432" lon="3.0291">
        <ele>1050.8000488281</ele>
        <time>2024-01-30T15:29:58.000Z</time>
      </trkpt>
      <trkpt lat="44.74449" lon="3.02908">
        <ele>1050.5999755859</ele>
        <time>2024-01-30T15:29:59.000Z</time>
      </trkpt>
      <trkpt lat="44.74519" lon="3.02897">
        <ele>1050.4000244141</ele>
        <time>2024-01-30T15:30:03.000Z</time>
      </trkpt>
      <trkpt lat="44.74555" lon="3.02893">
        <ele>1050.4000244141</ele>
        <time>2024-01-30T15:30:05.000Z</time>
      </trkpt>
      <trkpt lat="44.74624" lon="3.02878">
        <ele>1050.4000244141</ele>
        <time>2024-01-30T15:30:09.000Z</time>
      </trkpt>
      <trkpt lat="44.7464" lon="3.02872">
        <ele>1050.1999511719</ele>
        <time>2024-01-30T15:30:10.000Z</time>
      </trkpt>
      <trkpt lat="44.74707" lon="3.02843">
        <ele>1049.4000244141</ele>
        <time>2024-01-30T15:30:14.000Z</time>
      </trkpt>
      <trkpt lat="44.74741" lon="3.02829">
        <ele>1049.1999511719</ele>
        <time>2024-01-30T15:30:16.000Z</time>
      </trkpt>
      <trkpt lat="44.74807" lon="3.028">
        <ele>1049.1999511719</ele>
        <time>2024-01-30T15:30:20.000Z</time>
      </trkpt>
      <trkpt lat="44.74875" lon="3.0277">
        <ele>1049</ele>
        <time>2024-01-30T15:30:24.000Z</time>
      </trkpt>
      <trkpt lat="44.7491" lon="3.02755">
        <ele>1048.8000488281</ele>
        <time>2024-01-30T15:30:26.000Z</time>
      </trkpt>
      <trkpt lat="44.7496" lon="3.02732">
        <ele>1048.1999511719</ele>
        <time>2024-01-30T15:30:29.000Z</time>
      </trkpt>
      <trkpt lat="44.75007" lon="3.02711">
        <ele>1047.5999755859</ele>
        <time>2024-01-30T15:30:32.000Z</time>
      </trkpt>
      <trkpt lat="44.75049" lon="3.02692">
        <ele>1047.1999511719</ele>
        <time>2024-01-30T15:30:35.000Z</time>
      </trkpt>
      <trkpt lat="44.75062" lon="3.02687">
        <ele>1046.8000488281</ele>
        <time>2024-01-30T15:30:36.000Z</time>
      </trkpt>
      <trkpt lat="44.7511" lon="3.02666">
        <ele>1046.1999511719</ele>
        <time>2024-01-30T15:30:40.000Z</time>
      </trkpt>
      <trkpt lat="44.75121" lon="3.02661">
        <ele>1045.8000488281</ele>
        <time>2024-01-30T15:30:41.000Z</time>
      </trkpt>
      <trkpt lat="44.75142" lon="3.02654">
        <ele>1045.4000244141</ele>
        <time>2024-01-30T15:30:43.000Z</time>
      </trkpt>
      <trkpt lat="44.75152" lon="3.02653">
        <ele>1045</ele>
        <time>2024-01-30T15:30:44.000Z</time>
      </trkpt>
      <trkpt lat="44.75162" lon="3.02653">
        <ele>1044.8000488281</ele>
        <time>2024-01-30T15:30:45.000Z</time>
      </trkpt>
      <trkpt lat="44.75172" lon="3.02654">
        <ele>1044.8000488281</ele>
        <time>2024-01-30T15:30:46.000Z</time>
      </trkpt>
      <trkpt lat="44.75201" lon="3.02659">
        <ele>1044</ele>
        <time>2024-01-30T15:30:49.000Z</time>
      </trkpt>
      <trkpt lat="44.7521" lon="3.0266">
        <ele>1044</ele>
        <time>2024-01-30T15:30:50.000Z</time>
      </trkpt>
      <trkpt lat="44.75263" lon="3.02663">
        <ele>1043.8000488281</ele>
        <time>2024-01-30T15:30:55.000Z</time>
      </trkpt>
      <trkpt lat="44.75298" lon="3.02646">
        <ele>1043.8000488281</ele>
        <time>2024-01-30T15:30:58.000Z</time>
      </trkpt>
      <trkpt lat="44.75352" lon="3.02611">
        <ele>1044.4000244141</ele>
        <time>2024-01-30T15:31:02.000Z</time>
      </trkpt>
      <trkpt lat="44.75414" lon="3.02572">
        <ele>1045.4000244141</ele>
        <time>2024-01-30T15:31:06.000Z</time>
      </trkpt>
      <trkpt lat="44.75431" lon="3.02562">
        <ele>1045.5999755859</ele>
        <time>2024-01-30T15:31:07.000Z</time>
      </trkpt>
      <trkpt lat="44.75484" lon="3.02541">
        <ele>1046</ele>
        <time>2024-01-30T15:31:10.000Z</time>
      </trkpt>
      <trkpt lat="44.75502" lon="3.02535">
        <ele>1046</ele>
        <time>2024-01-30T15:31:11.000Z</time>
      </trkpt>
      <trkpt lat="44.75557" lon="3.02516">
        <ele>1046.4000244141</ele>
        <time>2024-01-30T15:31:14.000Z</time>
      </trkpt>
      <trkpt lat="44.75576" lon="3.0251">
        <ele>1046.5999755859</ele>
        <time>2024-01-30T15:31:15.000Z</time>
      </trkpt>
      <trkpt lat="44.75632" lon="3.02492">
        <ele>1046.8000488281</ele>
        <time>2024-01-30T15:31:18.000Z</time>
      </trkpt>
      <trkpt lat="44.75687" lon="3.02474">
        <ele>1046.8000488281</ele>
        <time>2024-01-30T15:31:21.000Z</time>
      </trkpt>
      <trkpt lat="44.75742" lon="3.02461">
        <ele>1046.8000488281</ele>
        <time>2024-01-30T15:31:24.000Z</time>
      </trkpt>
      <trkpt lat="44.75797" lon="3.02459">
        <ele>1047.1999511719</ele>
        <time>2024-01-30T15:31:27.000Z</time>
      </trkpt>
      <trkpt lat="44.75854" lon="3.02457">
        <ele>1047.4000244141</ele>
        <time>2024-01-30T15:31:30.000Z</time>
      </trkpt>
      <trkpt lat="44.75892" lon="3.02456">
        <ele>1047.5999755859</ele>
        <time>2024-01-30T15:31:32.000Z</time>
      </trkpt>
      <trkpt lat="44.75949" lon="3.02455">
        <ele>1047.8000488281</ele>
        <time>2024-01-30T15:31:35.000Z</time>
      </trkpt>
      <trkpt lat="44.76006" lon="3.02453">
        <ele>1047.8000488281</ele>
        <time>2024-01-30T15:31:38.000Z</time>
      </trkpt>
      <trkpt lat="44.76042" lon="3.02452">
        <ele>1047.8000488281</ele>
        <time>2024-01-30T15:31:40.000Z</time>
      </trkpt>
      <trkpt lat="44.76097" lon="3.0246">
        <ele>1048</ele>
        <time>2024-01-30T15:31:43.000Z</time>
      </trkpt>
      <trkpt lat="44.7615" lon="3.02481">
        <ele>1048.1999511719</ele>
        <time>2024-01-30T15:31:46.000Z</time>
      </trkpt>
      <trkpt lat="44.76199" lon="3.02509">
        <ele>1048</ele>
        <time>2024-01-30T15:31:49.000Z</time>
      </trkpt>
      <trkpt lat="44.76212" lon="3.02514">
        <ele>1048</ele>
        <time>2024-01-30T15:31:50.000Z</time>
      </trkpt>
      <trkpt lat="44.76231" lon="3.02519">
        <ele>1048</ele>
        <time>2024-01-30T15:31:51.000Z</time>
      </trkpt>
      <trkpt lat="44.76261" lon="3.02522">
        <ele>1048.1999511719</ele>
        <time>2024-01-30T15:31:53.000Z</time>
      </trkpt>
      <trkpt lat="44.76319" lon="3.02526">
        <ele>1048.8000488281</ele>
        <time>2024-01-30T15:31:56.000Z</time>
      </trkpt>
      <trkpt lat="44.76356" lon="3.02528">
        <ele>1049.1999511719</ele>
        <time>2024-01-30T15:31:58.000Z</time>
      </trkpt>
      <trkpt lat="44.76393" lon="3.02531">
        <ele>1050</ele>
        <time>2024-01-30T15:32:00.000Z</time>
      </trkpt>
      <trkpt lat="44.76452" lon="3.02536">
        <ele>1051.1999511719</ele>
        <time>2024-01-30T15:32:03.000Z</time>
      </trkpt>
      <trkpt lat="44.76484" lon="3.0254">
        <ele>1051.5999755859</ele>
        <time>2024-01-30T15:32:05.000Z</time>
      </trkpt>
      <trkpt lat="44.76534" lon="3.02564">
        <ele>1052.8000488281</ele>
        <time>2024-01-30T15:32:08.000Z</time>
      </trkpt>
      <trkpt lat="44.76586" lon="3.02598">
        <ele>1054.1999511719</ele>
        <time>2024-01-30T15:32:11.000Z</time>
      </trkpt>
      <trkpt lat="44.76619" lon="3.02618">
        <ele>1055.1999511719</ele>
        <time>2024-01-30T15:32:13.000Z</time>
      </trkpt>
      <trkpt lat="44.7664" lon="3.02631">
        <ele>1055.4000244141</ele>
        <time>2024-01-30T15:32:14.000Z</time>
      </trkpt>
      <trkpt lat="44.7671" lon="3.02674">
        <ele>1056.4000244141</ele>
        <time>2024-01-30T15:32:18.000Z</time>
      </trkpt>
      <trkpt lat="44.76726" lon="3.02685">
        <ele>1056.4000244141</ele>
        <time>2024-01-30T15:32:19.000Z</time>
      </trkpt>
      <trkpt lat="44.76742" lon="3.02698">
        <ele>1056.8000488281</ele>
        <time>2024-01-30T15:32:20.000Z</time>
      </trkpt>
      <trkpt lat="44.76785" lon="3.02743">
        <ele>1057.8000488281</ele>
        <time>2024-01-30T15:32:23.000Z</time>
      </trkpt>
      <trkpt lat="44.76795" lon="3.02759">
        <ele>1058.1999511719</ele>
        <time>2024-01-30T15:32:24.000Z</time>
      </trkpt>
      <trkpt lat="44.7682" lon="3.02804">
        <ele>1058.8000488281</ele>
        <time>2024-01-30T15:32:26.000Z</time>
      </trkpt>
      <trkpt lat="44.76829" lon="3.02824">
        <ele>1058.8000488281</ele>
        <time>2024-01-30T15:32:27.000Z</time>
      </trkpt>
      <trkpt lat="44.76857" lon="3.02878">
        <ele>1059</ele>
        <time>2024-01-30T15:32:30.000Z</time>
      </trkpt>
      <trkpt lat="44.76877" lon="3.02899">
        <ele>1059</ele>
        <time>2024-01-30T15:32:32.000Z</time>
      </trkpt>
      <trkpt lat="44.76899" lon="3.02909">
        <ele>1059.1999511719</ele>
        <time>2024-01-30T15:32:34.000Z</time>
      </trkpt>
      <trkpt lat="44.76912" lon="3.02912">
        <ele>1059.4000244141</ele>
        <time>2024-01-30T15:32:35.000Z</time>
      </trkpt>
      <trkpt lat="44.76926" lon="3.02914">
        <ele>1059.8000488281</ele>
        <time>2024-01-30T15:32:36.000Z</time>
      </trkpt>
      <trkpt lat="44.76939" lon="3.02917">
        <ele>1059.8000488281</ele>
        <time>2024-01-30T15:32:37.000Z</time>
      </trkpt>
      <trkpt lat="44.76953" lon="3.02923">
        <ele>1060.4000244141</ele>
        <time>2024-01-30T15:32:38.000Z</time>
      </trkpt>
      <trkpt lat="44.76976" lon="3.02946">
        <ele>1061</ele>
        <time>2024-01-30T15:32:40.000Z</time>
      </trkpt>
      <trkpt lat="44.76986" lon="3.02961">
        <ele>1061.1999511719</ele>
        <time>2024-01-30T15:32:41.000Z</time>
      </trkpt>
      <trkpt lat="44.77006" lon="3.02995">
        <ele>1062</ele>
        <time>2024-01-30T15:32:43.000Z</time>
      </trkpt>
      <trkpt lat="44.77016" lon="3.03012">
        <ele>1062.5999755859</ele>
        <time>2024-01-30T15:32:44.000Z</time>
      </trkpt>
      <trkpt lat="44.77049" lon="3.03056">
        <ele>1063.4000244141</ele>
        <time>2024-01-30T15:32:47.000Z</time>
      </trkpt>
      <trkpt lat="44.77062" lon="3.03067">
        <ele>1063.5999755859</ele>
        <time>2024-01-30T15:32:48.000Z</time>
      </trkpt>
      <trkpt lat="44.77077" lon="3.03074">
        <ele>1063.8000488281</ele>
        <time>2024-01-30T15:32:49.000Z</time>
      </trkpt>
      <trkpt lat="44.77127" lon="3.03086">
        <ele>1064.5999755859</ele>
        <time>2024-01-30T15:32:52.000Z</time>
      </trkpt>
      <trkpt lat="44.77181" lon="3.03099">
        <ele>1065.1999511719</ele>
        <time>2024-01-30T15:32:55.000Z</time>
      </trkpt>
      <trkpt lat="44.77198" lon="3.03106">
        <ele>1065.4000244141</ele>
        <time>2024-01-30T15:32:56.000Z</time>
      </trkpt>
      <trkpt lat="44.7723" lon="3.03128">
        <ele>1065.8000488281</ele>
        <time>2024-01-30T15:32:58.000Z</time>
      </trkpt>
      <trkpt lat="44.77246" lon="3.0314">
        <ele>1066</ele>
        <time>2024-01-30T15:32:59.000Z</time>
      </trkpt>
      <trkpt lat="44.77304" lon="3.03184">
        <ele>1066.4000244141</ele>
        <time>2024-01-30T15:33:03.000Z</time>
      </trkpt>
      <trkpt lat="44.7732" lon="3.03192">
        <ele>1066.4000244141</ele>
        <time>2024-01-30T15:33:04.000Z</time>
      </trkpt>
      <trkpt lat="44.77341" lon="3.03199">
        <ele>1066.8000488281</ele>
        <time>2024-01-30T15:33:05.000Z</time>
      </trkpt>
      <trkpt lat="44.77373" lon="3.03207">
        <ele>1067.5999755859</ele>
        <time>2024-01-30T15:33:07.000Z</time>
      </trkpt>
      <trkpt lat="44.77428" lon="3.03224">
        <ele>1068.4000244141</ele>
        <time>2024-01-30T15:33:10.000Z</time>
      </trkpt>
      <trkpt lat="44.77446" lon="3.03232">
        <ele>1068.5999755859</ele>
        <time>2024-01-30T15:33:11.000Z</time>
      </trkpt>
      <trkpt lat="44.77505" lon="3.03264">
        <ele>1069</ele>
        <time>2024-01-30T15:33:14.000Z</time>
      </trkpt>
      <trkpt lat="44.77523" lon="3.03276">
        <ele>1069.5999755859</ele>
        <time>2024-01-30T15:33:15.000Z</time>
      </trkpt>
      <trkpt lat="44.77574" lon="3.03308">
        <ele>1070.4000244141</ele>
        <time>2024-01-30T15:33:18.000Z</time>
      </trkpt>
      <trkpt lat="44.77613" lon="3.03334">
        <ele>1070.8000488281</ele>
        <time>2024-01-30T15:33:20.000Z</time>
      </trkpt>
      <trkpt lat="44.77649" lon="3.03352">
        <ele>1071</ele>
        <time>2024-01-30T15:33:22.000Z</time>
      </trkpt>
      <trkpt lat="44.77699" lon="3.03359">
        <ele>1071.1999511719</ele>
        <time>2024-01-30T15:33:25.000Z</time>
      </trkpt>
      <trkpt lat="44.77757" lon="3.03361">
        <ele>1071.5999755859</ele>
        <time>2024-01-30T15:33:28.000Z</time>
      </trkpt>
      <trkpt lat="44.77773" lon="3.03364">
        <ele>1072.1999511719</ele>
        <time>2024-01-30T15:33:29.000Z</time>
      </trkpt>
      <trkpt lat="44.77836" lon="3.03384">
        <ele>1073.1999511719</ele>
        <time>2024-01-30T15:33:32.000Z</time>
      </trkpt>
      <trkpt lat="44.77857" lon="3.03391">
        <ele>1073.4000244141</ele>
        <time>2024-01-30T15:33:33.000Z</time>
      </trkpt>
      <trkpt lat="44.77899" lon="3.03404">
        <ele>1074.4000244141</ele>
        <time>2024-01-30T15:33:35.000Z</time>
      </trkpt>
      <trkpt lat="44.77965" lon="3.03426">
        <ele>1075.4000244141</ele>
        <time>2024-01-30T15:33:38.000Z</time>
      </trkpt>
      <trkpt lat="44.77987" lon="3.03434">
        <ele>1075.8000488281</ele>
        <time>2024-01-30T15:33:39.000Z</time>
      </trkpt>
      <trkpt lat="44.7801" lon="3.03441">
        <ele>1076.4000244141</ele>
        <time>2024-01-30T15:33:40.000Z</time>
      </trkpt>
      <trkpt lat="44.78078" lon="3.03464">
        <ele>1077</ele>
        <time>2024-01-30T15:33:43.000Z</time>
      </trkpt>
      <trkpt lat="44.78145" lon="3.03489">
        <ele>1077.4000244141</ele>
        <time>2024-01-30T15:33:46.000Z</time>
      </trkpt>
      <trkpt lat="44.78209" lon="3.03522">
        <ele>1078</ele>
        <time>2024-01-30T15:33:49.000Z</time>
      </trkpt>
      <trkpt lat="44.78252" lon="3.03545">
        <ele>1078.5999755859</ele>
        <time>2024-01-30T15:33:51.000Z</time>
      </trkpt>
      <trkpt lat="44.78315" lon="3.0358">
        <ele>1079</ele>
        <time>2024-01-30T15:33:54.000Z</time>
      </trkpt>
      <trkpt lat="44.78374" lon="3.03616">
        <ele>1079.4000244141</ele>
        <time>2024-01-30T15:33:57.000Z</time>
      </trkpt>
      <trkpt lat="44.78399" lon="3.03632">
        <ele>1079.5999755859</ele>
        <time>2024-01-30T15:33:58.000Z</time>
      </trkpt>
      <trkpt lat="44.7846" lon="3.03674">
        <ele>1079.8000488281</ele>
        <time>2024-01-30T15:34:01.000Z</time>
      </trkpt>
      <trkpt lat="44.78519" lon="3.03709">
        <ele>1079.8000488281</ele>
        <time>2024-01-30T15:34:04.000Z</time>
      </trkpt>
      <trkpt lat="44.7858" lon="3.03732">
        <ele>1079.5999755859</ele>
        <time>2024-01-30T15:34:07.000Z</time>
      </trkpt>
      <trkpt lat="44.78599" lon="3.03739">
        <ele>1079.8000488281</ele>
        <time>2024-01-30T15:34:08.000Z</time>
      </trkpt>
      <trkpt lat="44.78658" lon="3.03757">
        <ele>1079.8000488281</ele>
        <time>2024-01-30T15:34:11.000Z</time>
      </trkpt>
      <trkpt lat="44.78678" lon="3.0376">
        <ele>1080</ele>
        <time>2024-01-30T15:34:12.000Z</time>
      </trkpt>
      <trkpt lat="44.7874" lon="3.03761">
        <ele>1080.1999511719</ele>
        <time>2024-01-30T15:34:15.000Z</time>
      </trkpt>
      <trkpt lat="44.78761" lon="3.03761">
        <ele>1080.1999511719</ele>
        <time>2024-01-30T15:34:16.000Z</time>
      </trkpt>
      <trkpt lat="44.78824" lon="3.03759">
        <ele>1080.4000244141</ele>
        <time>2024-01-30T15:34:19.000Z</time>
      </trkpt>
      <trkpt lat="44.78863" lon="3.03763">
        <ele>1080.1999511719</ele>
        <time>2024-01-30T15:34:21.000Z</time>
      </trkpt>
      <trkpt lat="44.78881" lon="3.03768">
        <ele>1080.1999511719</ele>
        <time>2024-01-30T15:34:22.000Z</time>
      </trkpt>
      <trkpt lat="44.78899" lon="3.03777">
        <ele>1080</ele>
        <time>2024-01-30T15:34:23.000Z</time>
      </trkpt>
      <trkpt lat="44.78932" lon="3.03796">
        <ele>1080</ele>
        <time>2024-01-30T15:34:25.000Z</time>
      </trkpt>
      <trkpt lat="44.78981" lon="3.0382">
        <ele>1080</ele>
        <time>2024-01-30T15:34:28.000Z</time>
      </trkpt>
      <trkpt lat="44.78999" lon="3.03823">
        <ele>1080.1999511719</ele>
        <time>2024-01-30T15:34:29.000Z</time>
      </trkpt>
      <trkpt lat="44.79017" lon="3.03822">
        <ele>1080.4000244141</ele>
        <time>2024-01-30T15:34:30.000Z</time>
      </trkpt>
      <trkpt lat="44.79055" lon="3.03818">
        <ele>1080.8000488281</ele>
        <time>2024-01-30T15:34:32.000Z</time>
      </trkpt>
      <trkpt lat="44.79115" lon="3.03814">
        <ele>1081</ele>
        <time>2024-01-30T15:34:35.000Z</time>
      </trkpt>
      <trkpt lat="44.79173" lon="3.03824">
        <ele>1081</ele>
        <time>2024-01-30T15:34:38.000Z</time>
      </trkpt>
      <trkpt lat="44.79225" lon="3.03836">
        <ele>1080.5999755859</ele>
        <time>2024-01-30T15:34:41.000Z</time>
      </trkpt>
      <trkpt lat="44.7926" lon="3.03831">
        <ele>1080.4000244141</ele>
        <time>2024-01-30T15:34:43.000Z</time>
      </trkpt>
      <trkpt lat="44.79312" lon="3.03812">
        <ele>1080.8000488281</ele>
        <time>2024-01-30T15:34:46.000Z</time>
      </trkpt>
      <trkpt lat="44.7933" lon="3.03808">
        <ele>1080.8000488281</ele>
        <time>2024-01-30T15:34:47.000Z</time>
      </trkpt>
      <trkpt lat="44.79348" lon="3.03807">
        <ele>1081</ele>
        <time>2024-01-30T15:34:48.000Z</time>
      </trkpt>
      <trkpt lat="44.79367" lon="3.03809">
        <ele>1081</ele>
        <time>2024-01-30T15:34:49.000Z</time>
      </trkpt>
      <trkpt lat="44.79385" lon="3.03815">
        <ele>1081.1999511719</ele>
        <time>2024-01-30T15:34:50.000Z</time>
      </trkpt>
      <trkpt lat="44.79404" lon="3.03823">
        <ele>1081.8000488281</ele>
        <time>2024-01-30T15:34:51.000Z</time>
      </trkpt>
      <trkpt lat="44.79422" lon="3.03833">
        <ele>1082</ele>
        <time>2024-01-30T15:34:52.000Z</time>
      </trkpt>
      <trkpt lat="44.79473" lon="3.03867">
        <ele>1082</ele>
        <time>2024-01-30T15:34:55.000Z</time>
      </trkpt>
      <trkpt lat="44.79508" lon="3.03881">
        <ele>1082</ele>
        <time>2024-01-30T15:34:57.000Z</time>
      </trkpt>
      <trkpt lat="44.79526" lon="3.03884">
        <ele>1082</ele>
        <time>2024-01-30T15:34:58.000Z</time>
      </trkpt>
      <trkpt lat="44.79582" lon="3.03881">
        <ele>1082.8000488281</ele>
        <time>2024-01-30T15:35:01.000Z</time>
      </trkpt>
      <trkpt lat="44.79601" lon="3.03876">
        <ele>1083</ele>
        <time>2024-01-30T15:35:02.000Z</time>
      </trkpt>
      <trkpt lat="44.79657" lon="3.03859">
        <ele>1083.4000244141</ele>
        <time>2024-01-30T15:35:05.000Z</time>
      </trkpt>
      <trkpt lat="44.79713" lon="3.03837">
        <ele>1084</ele>
        <time>2024-01-30T15:35:08.000Z</time>
      </trkpt>
      <trkpt lat="44.79751" lon="3.03827">
        <ele>1084.1999511719</ele>
        <time>2024-01-30T15:35:10.000Z</time>
      </trkpt>
      <trkpt lat="44.79788" lon="3.03831">
        <ele>1084.1999511719</ele>
        <time>2024-01-30T15:35:12.000Z</time>
      </trkpt>
      <trkpt lat="44.79844" lon="3.03849">
        <ele>1084.1999511719</ele>
        <time>2024-01-30T15:35:15.000Z</time>
      </trkpt>
      <trkpt lat="44.79882" lon="3.03855">
        <ele>1084.4000244141</ele>
        <time>2024-01-30T15:35:17.000Z</time>
      </trkpt>
      <trkpt lat="44.79935" lon="3.03854">
        <ele>1084.4000244141</ele>
        <time>2024-01-30T15:35:20.000Z</time>
      </trkpt>
      <trkpt lat="44.79949" lon="3.03849">
        <ele>1084.4000244141</ele>
        <time>2024-01-30T15:35:21.000Z</time>
      </trkpt>
      <trkpt lat="44.79963" lon="3.03841">
        <ele>1084</ele>
        <time>2024-01-30T15:35:22.000Z</time>
      </trkpt>
      <trkpt lat="44.79976" lon="3.0383">
        <ele>1084.1999511719</ele>
        <time>2024-01-30T15:35:23.000Z</time>
      </trkpt>
      <trkpt lat="44.79987" lon="3.03816">
        <ele>1084.1999511719</ele>
        <time>2024-01-30T15:35:24.000Z</time>
      </trkpt>
      <trkpt lat="44.80031" lon="3.03747">
        <ele>1084.8000488281</ele>
        <time>2024-01-30T15:35:28.000Z</time>
      </trkpt>
      <trkpt lat="44.80058" lon="3.03712">
        <ele>1085.4000244141</ele>
        <time>2024-01-30T15:35:30.000Z</time>
      </trkpt>
      <trkpt lat="44.80074" lon="3.03695">
        <ele>1085.5999755859</ele>
        <time>2024-01-30T15:35:31.000Z</time>
      </trkpt>
      <trkpt lat="44.80126" lon="3.03649">
        <ele>1086.5999755859</ele>
        <time>2024-01-30T15:35:34.000Z</time>
      </trkpt>
      <trkpt lat="44.80143" lon="3.03633">
        <ele>1086.5999755859</ele>
        <time>2024-01-30T15:35:35.000Z</time>
      </trkpt>
      <trkpt lat="44.80189" lon="3.03592">
        <ele>1086.1999511719</ele>
        <time>2024-01-30T15:35:38.000Z</time>
      </trkpt>
      <trkpt lat="44.80205" lon="3.03584">
        <ele>1086</ele>
        <time>2024-01-30T15:35:39.000Z</time>
      </trkpt>
      <trkpt lat="44.80221" lon="3.03581">
        <ele>1086</ele>
        <time>2024-01-30T15:35:40.000Z</time>
      </trkpt>
      <trkpt lat="44.80237" lon="3.03582">
        <ele>1086</ele>
        <time>2024-01-30T15:35:41.000Z</time>
      </trkpt>
      <trkpt lat="44.80254" lon="3.03587">
        <ele>1086.1999511719</ele>
        <time>2024-01-30T15:35:42.000Z</time>
      </trkpt>
      <trkpt lat="44.80289" lon="3.03603">
        <ele>1086.4000244141</ele>
        <time>2024-01-30T15:35:44.000Z</time>
      </trkpt>
      <trkpt lat="44.80348" lon="3.0363">
        <ele>1086.5999755859</ele>
        <time>2024-01-30T15:35:47.000Z</time>
      </trkpt>
      <trkpt lat="44.8041" lon="3.03656">
        <ele>1086.4000244141</ele>
        <time>2024-01-30T15:35:50.000Z</time>
      </trkpt>
      <trkpt lat="44.80475" lon="3.03685">
        <ele>1086.1999511719</ele>
        <time>2024-01-30T15:35:53.000Z</time>
      </trkpt>
      <trkpt lat="44.80518" lon="3.03703">
        <ele>1085.5999755859</ele>
        <time>2024-01-30T15:35:55.000Z</time>
      </trkpt>
      <trkpt lat="44.80584" lon="3.03731">
        <ele>1084.1999511719</ele>
        <time>2024-01-30T15:35:58.000Z</time>
      </trkpt>
      <trkpt lat="44.80605" lon="3.0374">
        <ele>1083</ele>
        <time>2024-01-30T15:35:59.000Z</time>
      </trkpt>
      <trkpt lat="44.80647" lon="3.03758">
        <ele>1082.1999511719</ele>
        <time>2024-01-30T15:36:01.000Z</time>
      </trkpt>
      <trkpt lat="44.80667" lon="3.03766">
        <ele>1081.5999755859</ele>
        <time>2024-01-30T15:36:02.000Z</time>
      </trkpt>
      <trkpt lat="44.80706" lon="3.03777">
        <ele>1080.4000244141</ele>
        <time>2024-01-30T15:36:04.000Z</time>
      </trkpt>
      <trkpt lat="44.80767" lon="3.03779">
        <ele>1079</ele>
        <time>2024-01-30T15:36:07.000Z</time>
      </trkpt>
      <trkpt lat="44.80827" lon="3.03766">
        <ele>1078.1999511719</ele>
        <time>2024-01-30T15:36:10.000Z</time>
      </trkpt>
      <trkpt lat="44.80866" lon="3.03747">
        <ele>1078</ele>
        <time>2024-01-30T15:36:12.000Z</time>
      </trkpt>
      <trkpt lat="44.80885" lon="3.03735">
        <ele>1077.8000488281</ele>
        <time>2024-01-30T15:36:13.000Z</time>
      </trkpt>
      <trkpt lat="44.80942" lon="3.0369">
        <ele>1076.8000488281</ele>
        <time>2024-01-30T15:36:16.000Z</time>
      </trkpt>
      <trkpt lat="44.8096" lon="3.03674">
        <ele>1076.1999511719</ele>
        <time>2024-01-30T15:36:17.000Z</time>
      </trkpt>
      <trkpt lat="44.80979" lon="3.03658">
        <ele>1075.4000244141</ele>
        <time>2024-01-30T15:36:18.000Z</time>
      </trkpt>
      <trkpt lat="44.81035" lon="3.03609">
        <ele>1074.1999511719</ele>
        <time>2024-01-30T15:36:21.000Z</time>
      </trkpt>
      <trkpt lat="44.81073" lon="3.03576">
        <ele>1073.1999511719</ele>
        <time>2024-01-30T15:36:23.000Z</time>
      </trkpt>
      <trkpt lat="44.81112" lon="3.03545">
        <ele>1071.4000244141</ele>
        <time>2024-01-30T15:36:25.000Z</time>
      </trkpt>
      <trkpt lat="44.8115" lon="3.03513">
        <ele>1069.1999511719</ele>
        <time>2024-01-30T15:36:27.000Z</time>
      </trkpt>
      <trkpt lat="44.81187" lon="3.03482">
        <ele>1067.5999755859</ele>
        <time>2024-01-30T15:36:29.000Z</time>
      </trkpt>
      <trkpt lat="44.81226" lon="3.03448">
        <ele>1066.4000244141</ele>
        <time>2024-01-30T15:36:31.000Z</time>
      </trkpt>
      <trkpt lat="44.81258" lon="3.03426">
        <ele>1065.1999511719</ele>
        <time>2024-01-30T15:36:33.000Z</time>
      </trkpt>
      <trkpt lat="44.81276" lon="3.03416">
        <ele>1064.8000488281</ele>
        <time>2024-01-30T15:36:34.000Z</time>
      </trkpt>
      <trkpt lat="44.81331" lon="3.03393">
        <ele>1063.5999755859</ele>
        <time>2024-01-30T15:36:37.000Z</time>
      </trkpt>
      <trkpt lat="44.81349" lon="3.03386">
        <ele>1063</ele>
        <time>2024-01-30T15:36:38.000Z</time>
      </trkpt>
      <trkpt lat="44.81387" lon="3.03373">
        <ele>1062.1999511719</ele>
        <time>2024-01-30T15:36:40.000Z</time>
      </trkpt>
      <trkpt lat="44.81443" lon="3.03356">
        <ele>1061</ele>
        <time>2024-01-30T15:36:43.000Z</time>
      </trkpt>
      <trkpt lat="44.81462" lon="3.0335">
        <ele>1060.5999755859</ele>
        <time>2024-01-30T15:36:44.000Z</time>
      </trkpt>
      <trkpt lat="44.81517" lon="3.03343">
        <ele>1059.4000244141</ele>
        <time>2024-01-30T15:36:47.000Z</time>
      </trkpt>
      <trkpt lat="44.81549" lon="3.03353">
        <ele>1058.1999511719</ele>
        <time>2024-01-30T15:36:49.000Z</time>
      </trkpt>
      <trkpt lat="44.81576" lon="3.0338">
        <ele>1056.8000488281</ele>
        <time>2024-01-30T15:36:51.000Z</time>
      </trkpt>
      <trkpt lat="44.81599" lon="3.03416">
        <ele>1055.8000488281</ele>
        <time>2024-01-30T15:36:53.000Z</time>
      </trkpt>
      <trkpt lat="44.81611" lon="3.03432">
        <ele>1055.1999511719</ele>
        <time>2024-01-30T15:36:54.000Z</time>
      </trkpt>
      <trkpt lat="44.81624" lon="3.03445">
        <ele>1053.8000488281</ele>
        <time>2024-01-30T15:36:55.000Z</time>
      </trkpt>
      <trkpt lat="44.81639" lon="3.03455">
        <ele>1053.1999511719</ele>
        <time>2024-01-30T15:36:56.000Z</time>
      </trkpt>
      <trkpt lat="44.81656" lon="3.03462">
        <ele>1052.4000244141</ele>
        <time>2024-01-30T15:36:57.000Z</time>
      </trkpt>
      <trkpt lat="44.81691" lon="3.03472">
        <ele>1051.5999755859</ele>
        <time>2024-01-30T15:36:59.000Z</time>
      </trkpt>
      <trkpt lat="44.81708" lon="3.03477">
        <ele>1051</ele>
        <time>2024-01-30T15:37:00.000Z</time>
      </trkpt>
      <trkpt lat="44.81743" lon="3.03489">
        <ele>1048.8000488281</ele>
        <time>2024-01-30T15:37:02.000Z</time>
      </trkpt>
      <trkpt lat="44.81778" lon="3.03497">
        <ele>1047.5999755859</ele>
        <time>2024-01-30T15:37:04.000Z</time>
      </trkpt>
      <trkpt lat="44.81794" lon="3.035">
        <ele>1047</ele>
        <time>2024-01-30T15:37:05.000Z</time>
      </trkpt>
      <trkpt lat="44.81811" lon="3.035">
        <ele>1046.8000488281</ele>
        <time>2024-01-30T15:37:06.000Z</time>
      </trkpt>
      <trkpt lat="44.81826" lon="3.03496">
        <ele>1045.5999755859</ele>
        <time>2024-01-30T15:37:07.000Z</time>
      </trkpt>
      <trkpt lat="44.8184" lon="3.0349">
        <ele>1045.1999511719</ele>
        <time>2024-01-30T15:37:08.000Z</time>
      </trkpt>
      <trkpt lat="44.81867" lon="3.03471">
        <ele>1045</ele>
        <time>2024-01-30T15:37:10.000Z</time>
      </trkpt>
      <trkpt lat="44.8188" lon="3.0346">
        <ele>1045</ele>
        <time>2024-01-30T15:37:11.000Z</time>
      </trkpt>
      <trkpt lat="44.81919" lon="3.03417">
        <ele>1044.4000244141</ele>
        <time>2024-01-30T15:37:14.000Z</time>
      </trkpt>
      <trkpt lat="44.81932" lon="3.03403">
        <ele>1044.1999511719</ele>
        <time>2024-01-30T15:37:15.000Z</time>
      </trkpt>
      <trkpt lat="44.81966" lon="3.03358">
        <ele>1043.5999755859</ele>
        <time>2024-01-30T15:37:18.000Z</time>
      </trkpt>
      <trkpt lat="44.81975" lon="3.03341">
        <ele>1043.5999755859</ele>
        <time>2024-01-30T15:37:19.000Z</time>
      </trkpt>
      <trkpt lat="44.81982" lon="3.03322">
        <ele>1043.5999755859</ele>
        <time>2024-01-30T15:37:20.000Z</time>
      </trkpt>
      <trkpt lat="44.81987" lon="3.03303">
        <ele>1043.4000244141</ele>
        <time>2024-01-30T15:37:21.000Z</time>
      </trkpt>
      <trkpt lat="44.81988" lon="3.03277">
        <ele>1043.4000244141</ele>
        <time>2024-01-30T15:37:22.000Z</time>
      </trkpt>
      <trkpt lat="44.81987" lon="3.0326">
        <ele>1043.5999755859</ele>
        <time>2024-01-30T15:37:23.000Z</time>
      </trkpt>
      <trkpt lat="44.81983" lon="3.03238">
        <ele>1043.5999755859</ele>
        <time>2024-01-30T15:37:24.000Z</time>
      </trkpt>
      <trkpt lat="44.81973" lon="3.03195">
        <ele>1044.1999511719</ele>
        <time>2024-01-30T15:37:26.000Z</time>
      </trkpt>
      <trkpt lat="44.81962" lon="3.03131">
        <ele>1045.1999511719</ele>
        <time>2024-01-30T15:37:29.000Z</time>
      </trkpt>
      <trkpt lat="44.81962" lon="3.03109">
        <ele>1045.1999511719</ele>
        <time>2024-01-30T15:37:30.000Z</time>
      </trkpt>
      <trkpt lat="44.81964" lon="3.03087">
        <ele>1045.4000244141</ele>
        <time>2024-01-30T15:37:31.000Z</time>
      </trkpt>
      <trkpt lat="44.81968" lon="3.03066">
        <ele>1045.4000244141</ele>
        <time>2024-01-30T15:37:32.000Z</time>
      </trkpt>
      <trkpt lat="44.81976" lon="3.03047">
        <ele>1045.8000488281</ele>
        <time>2024-01-30T15:37:33.000Z</time>
      </trkpt>
      <trkpt lat="44.81985" lon="3.03031">
        <ele>1045.8000488281</ele>
        <time>2024-01-30T15:37:34.000Z</time>
      </trkpt>
      <trkpt lat="44.81997" lon="3.03017">
        <ele>1045.8000488281</ele>
        <time>2024-01-30T15:37:35.000Z</time>
      </trkpt>
      <trkpt lat="44.8201" lon="3.03006">
        <ele>1046</ele>
        <time>2024-01-30T15:37:36.000Z</time>
      </trkpt>
      <trkpt lat="44.82026" lon="3.02999">
        <ele>1046.1999511719</ele>
        <time>2024-01-30T15:37:37.000Z</time>
      </trkpt>
      <trkpt lat="44.82042" lon="3.02993">
        <ele>1046.1999511719</ele>
        <time>2024-01-30T15:37:38.000Z</time>
      </trkpt>
      <trkpt lat="44.82113" lon="3.02975">
        <ele>1046.4000244141</ele>
        <time>2024-01-30T15:37:42.000Z</time>
      </trkpt>
      <trkpt lat="44.82172" lon="3.02959">
        <ele>1046.4000244141</ele>
        <time>2024-01-30T15:37:45.000Z</time>
      </trkpt>
      <trkpt lat="44.82192" lon="3.02954">
        <ele>1046.1999511719</ele>
        <time>2024-01-30T15:37:46.000Z</time>
      </trkpt>
      <trkpt lat="44.82213" lon="3.0295">
        <ele>1046</ele>
        <time>2024-01-30T15:37:47.000Z</time>
      </trkpt>
      <trkpt lat="44.82274" lon="3.02933">
        <ele>1045.4000244141</ele>
        <time>2024-01-30T15:37:50.000Z</time>
      </trkpt>
      <trkpt lat="44.8234" lon="3.02914">
        <ele>1044.5999755859</ele>
        <time>2024-01-30T15:37:53.000Z</time>
      </trkpt>
      <trkpt lat="44.82356" lon="3.0291">
        <ele>1044.1999511719</ele>
        <time>2024-01-30T15:37:54.000Z</time>
      </trkpt>
      <trkpt lat="44.82376" lon="3.02905">
        <ele>1044</ele>
        <time>2024-01-30T15:37:55.000Z</time>
      </trkpt>
      <trkpt lat="44.82435" lon="3.02886">
        <ele>1043</ele>
        <time>2024-01-30T15:37:58.000Z</time>
      </trkpt>
      <trkpt lat="44.8249" lon="3.02855">
        <ele>1041.8000488281</ele>
        <time>2024-01-30T15:38:01.000Z</time>
      </trkpt>
      <trkpt lat="44.82544" lon="3.02814">
        <ele>1041</ele>
        <time>2024-01-30T15:38:04.000Z</time>
      </trkpt>
      <trkpt lat="44.82561" lon="3.02798">
        <ele>1040.5999755859</ele>
        <time>2024-01-30T15:38:05.000Z</time>
      </trkpt>
      <trkpt lat="44.82582" lon="3.02779">
        <ele>1039.8000488281</ele>
        <time>2024-01-30T15:38:06.000Z</time>
      </trkpt>
      <trkpt lat="44.82596" lon="3.02766">
        <ele>1039.4000244141</ele>
        <time>2024-01-30T15:38:07.000Z</time>
      </trkpt>
      <trkpt lat="44.82632" lon="3.02737">
        <ele>1038.4000244141</ele>
        <time>2024-01-30T15:38:09.000Z</time>
      </trkpt>
      <trkpt lat="44.82651" lon="3.02725">
        <ele>1038</ele>
        <time>2024-01-30T15:38:10.000Z</time>
      </trkpt>
      <trkpt lat="44.82671" lon="3.02716">
        <ele>1037</ele>
        <time>2024-01-30T15:38:11.000Z</time>
      </trkpt>
      <trkpt lat="44.8271" lon="3.02703">
        <ele>1036.1999511719</ele>
        <time>2024-01-30T15:38:13.000Z</time>
      </trkpt>
      <trkpt lat="44.82731" lon="3.02701">
        <ele>1035.5999755859</ele>
        <time>2024-01-30T15:38:14.000Z</time>
      </trkpt>
      <trkpt lat="44.82752" lon="3.02701">
        <ele>1034.8000488281</ele>
        <time>2024-01-30T15:38:15.000Z</time>
      </trkpt>
      <trkpt lat="44.82774" lon="3.02703">
        <ele>1034.1999511719</ele>
        <time>2024-01-30T15:38:16.000Z</time>
      </trkpt>
      <trkpt lat="44.82797" lon="3.02707">
        <ele>1034</ele>
        <time>2024-01-30T15:38:17.000Z</time>
      </trkpt>
      <trkpt lat="44.82839" lon="3.02721">
        <ele>1032.4000244141</ele>
        <time>2024-01-30T15:38:19.000Z</time>
      </trkpt>
      <trkpt lat="44.82882" lon="3.02741">
        <ele>1031.4000244141</ele>
        <time>2024-01-30T15:38:21.000Z</time>
      </trkpt>
      <trkpt lat="44.82945" lon="3.02772">
        <ele>1030.4000244141</ele>
        <time>2024-01-30T15:38:24.000Z</time>
      </trkpt>
      <trkpt lat="44.82967" lon="3.02782">
        <ele>1030.1999511719</ele>
        <time>2024-01-30T15:38:25.000Z</time>
      </trkpt>
      <trkpt lat="44.83031" lon="3.02814">
        <ele>1029</ele>
        <time>2024-01-30T15:38:28.000Z</time>
      </trkpt>
      <trkpt lat="44.83096" lon="3.02846">
        <ele>1027.8000488281</ele>
        <time>2024-01-30T15:38:31.000Z</time>
      </trkpt>
      <trkpt lat="44.83117" lon="3.02855">
        <ele>1027.8000488281</ele>
        <time>2024-01-30T15:38:32.000Z</time>
      </trkpt>
      <trkpt lat="44.83181" lon="3.02886">
        <ele>1027.1999511719</ele>
        <time>2024-01-30T15:38:35.000Z</time>
      </trkpt>
      <trkpt lat="44.83201" lon="3.02896">
        <ele>1026.8000488281</ele>
        <time>2024-01-30T15:38:36.000Z</time>
      </trkpt>
      <trkpt lat="44.83243" lon="3.02916">
        <ele>1026</ele>
        <time>2024-01-30T15:38:38.000Z</time>
      </trkpt>
      <trkpt lat="44.83263" lon="3.02924">
        <ele>1025.1999511719</ele>
        <time>2024-01-30T15:38:39.000Z</time>
      </trkpt>
      <trkpt lat="44.83304" lon="3.02932">
        <ele>1024.4000244141</ele>
        <time>2024-01-30T15:38:41.000Z</time>
      </trkpt>
      <trkpt lat="44.83345" lon="3.02931">
        <ele>1024</ele>
        <time>2024-01-30T15:38:43.000Z</time>
      </trkpt>
      <trkpt lat="44.83365" lon="3.02927">
        <ele>1023.5999755859</ele>
        <time>2024-01-30T15:38:44.000Z</time>
      </trkpt>
      <trkpt lat="44.8341" lon="3.02918">
        <ele>1022.5999755859</ele>
        <time>2024-01-30T15:38:46.000Z</time>
      </trkpt>
      <trkpt lat="44.83446" lon="3.0291">
        <ele>1020.799987793</ele>
        <time>2024-01-30T15:38:48.000Z</time>
      </trkpt>
      <trkpt lat="44.83484" lon="3.02901">
        <ele>1018.5999755859</ele>
        <time>2024-01-30T15:38:50.000Z</time>
      </trkpt>
      <trkpt lat="44.83501" lon="3.02897">
        <ele>1017.5999755859</ele>
        <time>2024-01-30T15:38:51.000Z</time>
      </trkpt>
      <trkpt lat="44.83517" lon="3.02893">
        <ele>1015.5999755859</ele>
        <time>2024-01-30T15:38:52.000Z</time>
      </trkpt>
      <trkpt lat="44.83531" lon="3.02889">
        <ele>1014.799987793</ele>
        <time>2024-01-30T15:38:53.000Z</time>
      </trkpt>
      <trkpt lat="44.83543" lon="3.02886">
        <ele>1013.5999755859</ele>
        <time>2024-01-30T15:38:54.000Z</time>
      </trkpt>
      <trkpt lat="44.83553" lon="3.02884">
        <ele>1012.4000244141</ele>
        <time>2024-01-30T15:38:55.000Z</time>
      </trkpt>
      <trkpt lat="44.83562" lon="3.02884">
        <ele>1011.5999755859</ele>
        <time>2024-01-30T15:38:56.000Z</time>
      </trkpt>
      <trkpt lat="44.83568" lon="3.02886">
        <ele>1010.4000244141</ele>
        <time>2024-01-30T15:38:57.000Z</time>
      </trkpt>
      <trkpt lat="44.83573" lon="3.02889">
        <ele>1009.5999755859</ele>
        <time>2024-01-30T15:38:58.000Z</time>
      </trkpt>
      <trkpt lat="44.83576" lon="3.02891">
        <ele>1009</ele>
        <time>2024-01-30T15:38:59.000Z</time>
      </trkpt>
      <trkpt lat="44.8358" lon="3.02895">
        <ele>1008.799987793</ele>
        <time>2024-01-30T15:39:01.000Z</time>
      </trkpt>
      <trkpt lat="44.83584" lon="3.02895">
        <ele>1008.799987793</ele>
        <time>2024-01-30T15:39:02.000Z</time>
      </trkpt>
      <trkpt lat="44.83593" lon="3.0289">
        <ele>1008.799987793</ele>
        <time>2024-01-30T15:39:04.000Z</time>
      </trkpt>
      <trkpt lat="44.83616" lon="3.02875">
        <ele>1008.5999755859</ele>
        <time>2024-01-30T15:39:07.000Z</time>
      </trkpt>
      <trkpt lat="44.83646" lon="3.02856">
        <ele>1008.4000244141</ele>
        <time>2024-01-30T15:39:10.000Z</time>
      </trkpt>
      <trkpt lat="44.83683" lon="3.02833">
        <ele>1007.4000244141</ele>
        <time>2024-01-30T15:39:13.000Z</time>
      </trkpt>
      <trkpt lat="44.83696" lon="3.02824">
        <ele>1007.200012207</ele>
        <time>2024-01-30T15:39:14.000Z</time>
      </trkpt>
      <trkpt lat="44.83724" lon="3.02805">
        <ele>1006.4000244141</ele>
        <time>2024-01-30T15:39:16.000Z</time>
      </trkpt>
      <trkpt lat="44.83755" lon="3.02784">
        <ele>1005.4000244141</ele>
        <time>2024-01-30T15:39:18.000Z</time>
      </trkpt>
      <trkpt lat="44.8377" lon="3.02773">
        <ele>1004.5999755859</ele>
        <time>2024-01-30T15:39:19.000Z</time>
      </trkpt>
      <trkpt lat="44.83786" lon="3.02762">
        <ele>1003.4000244141</ele>
        <time>2024-01-30T15:39:20.000Z</time>
      </trkpt>
      <trkpt lat="44.83818" lon="3.02739">
        <ele>1001.5999755859</ele>
        <time>2024-01-30T15:39:22.000Z</time>
      </trkpt>
      <trkpt lat="44.83833" lon="3.02725">
        <ele>1001.200012207</ele>
        <time>2024-01-30T15:39:23.000Z</time>
      </trkpt>
      <trkpt lat="44.83848" lon="3.0271">
        <ele>1000.5999755859</ele>
        <time>2024-01-30T15:39:24.000Z</time>
      </trkpt>
      <trkpt lat="44.83875" lon="3.02677">
        <ele>999</ele>
        <time>2024-01-30T15:39:26.000Z</time>
      </trkpt>
      <trkpt lat="44.83901" lon="3.02639">
        <ele>997.20001220703</ele>
        <time>2024-01-30T15:39:28.000Z</time>
      </trkpt>
      <trkpt lat="44.83914" lon="3.0262">
        <ele>995.59997558594</ele>
        <time>2024-01-30T15:39:29.000Z</time>
      </trkpt>
      <trkpt lat="44.83941" lon="3.02581">
        <ele>994.20001220703</ele>
        <time>2024-01-30T15:39:31.000Z</time>
      </trkpt>
      <trkpt lat="44.83954" lon="3.02562">
        <ele>993.20001220703</ele>
        <time>2024-01-30T15:39:32.000Z</time>
      </trkpt>
      <trkpt lat="44.83979" lon="3.02524">
        <ele>992.20001220703</ele>
        <time>2024-01-30T15:39:34.000Z</time>
      </trkpt>
      <trkpt lat="44.84014" lon="3.02468">
        <ele>990.40002441406</ele>
        <time>2024-01-30T15:39:37.000Z</time>
      </trkpt>
      <trkpt lat="44.84033" lon="3.02427">
        <ele>989.59997558594</ele>
        <time>2024-01-30T15:39:39.000Z</time>
      </trkpt>
      <trkpt lat="44.84039" lon="3.02407">
        <ele>988.79998779297</ele>
        <time>2024-01-30T15:39:40.000Z</time>
      </trkpt>
      <trkpt lat="44.84051" lon="3.02346">
        <ele>987.40002441406</ele>
        <time>2024-01-30T15:39:43.000Z</time>
      </trkpt>
      <trkpt lat="44.8405" lon="3.0228">
        <ele>986.79998779297</ele>
        <time>2024-01-30T15:39:46.000Z</time>
      </trkpt>
      <trkpt lat="44.84049" lon="3.02213">
        <ele>986.20001220703</ele>
        <time>2024-01-30T15:39:49.000Z</time>
      </trkpt>
      <trkpt lat="44.84052" lon="3.02191">
        <ele>985.79998779297</ele>
        <time>2024-01-30T15:39:50.000Z</time>
      </trkpt>
      <trkpt lat="44.84057" lon="3.02168">
        <ele>985.20001220703</ele>
        <time>2024-01-30T15:39:51.000Z</time>
      </trkpt>
      <trkpt lat="44.84063" lon="3.02145">
        <ele>984</ele>
        <time>2024-01-30T15:39:52.000Z</time>
      </trkpt>
      <trkpt lat="44.84068" lon="3.02122">
        <ele>982.79998779297</ele>
        <time>2024-01-30T15:39:53.000Z</time>
      </trkpt>
      <trkpt lat="44.84073" lon="3.02098">
        <ele>982</ele>
        <time>2024-01-30T15:39:54.000Z</time>
      </trkpt>
      <trkpt lat="44.84079" lon="3.02075">
        <ele>981</ele>
        <time>2024-01-30T15:39:55.000Z</time>
      </trkpt>
      <trkpt lat="44.84085" lon="3.02051">
        <ele>979.59997558594</ele>
        <time>2024-01-30T15:39:56.000Z</time>
      </trkpt>
      <trkpt lat="44.84098" lon="3.02005">
        <ele>978</ele>
        <time>2024-01-30T15:39:58.000Z</time>
      </trkpt>
      <trkpt lat="44.84105" lon="3.01981">
        <ele>976.79998779297</ele>
        <time>2024-01-30T15:39:59.000Z</time>
      </trkpt>
      <trkpt lat="44.84118" lon="3.01933">
        <ele>974.59997558594</ele>
        <time>2024-01-30T15:40:01.000Z</time>
      </trkpt>
      <trkpt lat="44.84123" lon="3.01908">
        <ele>973.40002441406</ele>
        <time>2024-01-30T15:40:02.000Z</time>
      </trkpt>
      <trkpt lat="44.84128" lon="3.01883">
        <ele>972</ele>
        <time>2024-01-30T15:40:03.000Z</time>
      </trkpt>
      <trkpt lat="44.84133" lon="3.01859">
        <ele>970.79998779297</ele>
        <time>2024-01-30T15:40:04.000Z</time>
      </trkpt>
      <trkpt lat="44.84138" lon="3.01835">
        <ele>969.59997558594</ele>
        <time>2024-01-30T15:40:05.000Z</time>
      </trkpt>
      <trkpt lat="44.84143" lon="3.01812">
        <ele>968</ele>
        <time>2024-01-30T15:40:06.000Z</time>
      </trkpt>
      <trkpt lat="44.84147" lon="3.01794">
        <ele>967</ele>
        <time>2024-01-30T15:40:07.000Z</time>
      </trkpt>
      <trkpt lat="44.84155" lon="3.01769">
        <ele>966.20001220703</ele>
        <time>2024-01-30T15:40:08.000Z</time>
      </trkpt>
      <trkpt lat="44.84165" lon="3.01748">
        <ele>964.79998779297</ele>
        <time>2024-01-30T15:40:09.000Z</time>
      </trkpt>
      <trkpt lat="44.84173" lon="3.01733">
        <ele>964</ele>
        <time>2024-01-30T15:40:10.000Z</time>
      </trkpt>
      <trkpt lat="44.84186" lon="3.0171">
        <ele>963.40002441406</ele>
        <time>2024-01-30T15:40:11.000Z</time>
      </trkpt>
      <trkpt lat="44.84197" lon="3.0169">
        <ele>961.79998779297</ele>
        <time>2024-01-30T15:40:12.000Z</time>
      </trkpt>
      <trkpt lat="44.84208" lon="3.0167">
        <ele>960.59997558594</ele>
        <time>2024-01-30T15:40:13.000Z</time>
      </trkpt>
      <trkpt lat="44.84219" lon="3.01652">
        <ele>959.40002441406</ele>
        <time>2024-01-30T15:40:14.000Z</time>
      </trkpt>
      <trkpt lat="44.8423" lon="3.01634">
        <ele>958</ele>
        <time>2024-01-30T15:40:15.000Z</time>
      </trkpt>
      <trkpt lat="44.84241" lon="3.01616">
        <ele>956.59997558594</ele>
        <time>2024-01-30T15:40:16.000Z</time>
      </trkpt>
      <trkpt lat="44.84252" lon="3.01601">
        <ele>955.40002441406</ele>
        <time>2024-01-30T15:40:17.000Z</time>
      </trkpt>
      <trkpt lat="44.84266" lon="3.01589">
        <ele>954.20001220703</ele>
        <time>2024-01-30T15:40:18.000Z</time>
      </trkpt>
      <trkpt lat="44.8428" lon="3.01578">
        <ele>953.79998779297</ele>
        <time>2024-01-30T15:40:19.000Z</time>
      </trkpt>
      <trkpt lat="44.84341" lon="3.01531">
        <ele>953.40002441406</ele>
        <time>2024-01-30T15:40:23.000Z</time>
      </trkpt>
      <trkpt lat="44.84357" lon="3.0152">
        <ele>953.40002441406</ele>
        <time>2024-01-30T15:40:24.000Z</time>
      </trkpt>
      <trkpt lat="44.8439" lon="3.01503">
        <ele>953</ele>
        <time>2024-01-30T15:40:26.000Z</time>
      </trkpt>
      <trkpt lat="44.84407" lon="3.01495">
        <ele>951.79998779297</ele>
        <time>2024-01-30T15:40:27.000Z</time>
      </trkpt>
      <trkpt lat="44.84424" lon="3.01487">
        <ele>950.59997558594</ele>
        <time>2024-01-30T15:40:28.000Z</time>
      </trkpt>
      <trkpt lat="44.84442" lon="3.01478">
        <ele>949.59997558594</ele>
        <time>2024-01-30T15:40:29.000Z</time>
      </trkpt>
      <trkpt lat="44.84458" lon="3.01469">
        <ele>948.59997558594</ele>
        <time>2024-01-30T15:40:30.000Z</time>
      </trkpt>
      <trkpt lat="44.84474" lon="3.01459">
        <ele>947.20001220703</ele>
        <time>2024-01-30T15:40:31.000Z</time>
      </trkpt>
      <trkpt lat="44.84487" lon="3.01449">
        <ele>945.20001220703</ele>
        <time>2024-01-30T15:40:32.000Z</time>
      </trkpt>
      <trkpt lat="44.84499" lon="3.01436">
        <ele>943.40002441406</ele>
        <time>2024-01-30T15:40:33.000Z</time>
      </trkpt>
      <trkpt lat="44.84509" lon="3.01423">
        <ele>941.79998779297</ele>
        <time>2024-01-30T15:40:34.000Z</time>
      </trkpt>
      <trkpt lat="44.84517" lon="3.01407">
        <ele>940.40002441406</ele>
        <time>2024-01-30T15:40:35.000Z</time>
      </trkpt>
      <trkpt lat="44.84527" lon="3.01372">
        <ele>938</ele>
        <time>2024-01-30T15:40:37.000Z</time>
      </trkpt>
      <trkpt lat="44.84529" lon="3.01354">
        <ele>937</ele>
        <time>2024-01-30T15:40:38.000Z</time>
      </trkpt>
      <trkpt lat="44.84529" lon="3.01334">
        <ele>936.20001220703</ele>
        <time>2024-01-30T15:40:39.000Z</time>
      </trkpt>
      <trkpt lat="44.84527" lon="3.01315">
        <ele>935.59997558594</ele>
        <time>2024-01-30T15:40:40.000Z</time>
      </trkpt>
      <trkpt lat="44.84525" lon="3.01296">
        <ele>934.20001220703</ele>
        <time>2024-01-30T15:40:41.000Z</time>
      </trkpt>
      <trkpt lat="44.84519" lon="3.0126">
        <ele>932.79998779297</ele>
        <time>2024-01-30T15:40:43.000Z</time>
      </trkpt>
      <trkpt lat="44.84516" lon="3.01243">
        <ele>931.40002441406</ele>
        <time>2024-01-30T15:40:44.000Z</time>
      </trkpt>
      <trkpt lat="44.84509" lon="3.0121">
        <ele>930.40002441406</ele>
        <time>2024-01-30T15:40:46.000Z</time>
      </trkpt>
      <trkpt lat="44.84495" lon="3.0115">
        <ele>929.20001220703</ele>
        <time>2024-01-30T15:40:50.000Z</time>
      </trkpt>
      <trkpt lat="44.84475" lon="3.01065">
        <ele>929.20001220703</ele>
        <time>2024-01-30T15:40:55.000Z</time>
      </trkpt>
      <trkpt lat="44.84457" lon="3.00986">
        <ele>928.59997558594</ele>
        <time>2024-01-30T15:40:59.000Z</time>
      </trkpt>
      <trkpt lat="44.84452" lon="3.00968">
        <ele>927.79998779297</ele>
        <time>2024-01-30T15:41:00.000Z</time>
      </trkpt>
      <trkpt lat="44.84449" lon="3.00951">
        <ele>926</ele>
        <time>2024-01-30T15:41:01.000Z</time>
      </trkpt>
      <trkpt lat="44.84446" lon="3.00931">
        <ele>924.59997558594</ele>
        <time>2024-01-30T15:41:02.000Z</time>
      </trkpt>
      <trkpt lat="44.84446" lon="3.00919">
        <ele>923.59997558594</ele>
        <time>2024-01-30T15:41:03.000Z</time>
      </trkpt>
      <trkpt lat="44.84449" lon="3.00902">
        <ele>922.40002441406</ele>
        <time>2024-01-30T15:41:04.000Z</time>
      </trkpt>
      <trkpt lat="44.84461" lon="3.00874">
        <ele>920.20001220703</ele>
        <time>2024-01-30T15:41:06.000Z</time>
      </trkpt>
      <trkpt lat="44.8448" lon="3.00848">
        <ele>919</ele>
        <time>2024-01-30T15:41:08.000Z</time>
      </trkpt>
      <trkpt lat="44.84492" lon="3.00835">
        <ele>918.59997558594</ele>
        <time>2024-01-30T15:41:09.000Z</time>
      </trkpt>
      <trkpt lat="44.8452" lon="3.00806">
        <ele>917.79998779297</ele>
        <time>2024-01-30T15:41:11.000Z</time>
      </trkpt>
      <trkpt lat="44.84533" lon="3.00792">
        <ele>916.40002441406</ele>
        <time>2024-01-30T15:41:12.000Z</time>
      </trkpt>
      <trkpt lat="44.84543" lon="3.0078">
        <ele>916.40002441406</ele>
        <time>2024-01-30T15:41:13.000Z</time>
      </trkpt>
      <trkpt lat="44.84573" lon="3.00748">
        <ele>912</ele>
        <time>2024-01-30T15:41:15.000Z</time>
      </trkpt>
      <trkpt lat="44.84586" lon="3.00739">
        <ele>907.20001220703</ele>
        <time>2024-01-30T15:41:16.000Z</time>
      </trkpt>
      <trkpt lat="44.84601" lon="3.00727">
        <ele>906</ele>
        <time>2024-01-30T15:41:17.000Z</time>
      </trkpt>
      <trkpt lat="44.84617" lon="3.00716">
        <ele>904.79998779297</ele>
        <time>2024-01-30T15:41:18.000Z</time>
      </trkpt>
      <trkpt lat="44.84632" lon="3.00704">
        <ele>903.40002441406</ele>
        <time>2024-01-30T15:41:19.000Z</time>
      </trkpt>
      <trkpt lat="44.84648" lon="3.00692">
        <ele>902</ele>
        <time>2024-01-30T15:41:20.000Z</time>
      </trkpt>
      <trkpt lat="44.84667" lon="3.00677">
        <ele>900.59997558594</ele>
        <time>2024-01-30T15:41:21.000Z</time>
      </trkpt>
      <trkpt lat="44.84682" lon="3.00665">
        <ele>899</ele>
        <time>2024-01-30T15:41:22.000Z</time>
      </trkpt>
      <trkpt lat="44.84697" lon="3.00651">
        <ele>897.79998779297</ele>
        <time>2024-01-30T15:41:23.000Z</time>
      </trkpt>
      <trkpt lat="44.84711" lon="3.00638">
        <ele>896</ele>
        <time>2024-01-30T15:41:24.000Z</time>
      </trkpt>
      <trkpt lat="44.84724" lon="3.00624">
        <ele>895</ele>
        <time>2024-01-30T15:41:25.000Z</time>
      </trkpt>
      <trkpt lat="44.84735" lon="3.00612">
        <ele>893.59997558594</ele>
        <time>2024-01-30T15:41:26.000Z</time>
      </trkpt>
      <trkpt lat="44.8475" lon="3.00597">
        <ele>892.40002441406</ele>
        <time>2024-01-30T15:41:27.000Z</time>
      </trkpt>
      <trkpt lat="44.84763" lon="3.00586">
        <ele>891</ele>
        <time>2024-01-30T15:41:28.000Z</time>
      </trkpt>
      <trkpt lat="44.84778" lon="3.00581">
        <ele>889.59997558594</ele>
        <time>2024-01-30T15:41:29.000Z</time>
      </trkpt>
      <trkpt lat="44.84793" lon="3.00574">
        <ele>888.40002441406</ele>
        <time>2024-01-30T15:41:30.000Z</time>
      </trkpt>
      <trkpt lat="44.84805" lon="3.00571">
        <ele>887</ele>
        <time>2024-01-30T15:41:31.000Z</time>
      </trkpt>
      <trkpt lat="44.84821" lon="3.00569">
        <ele>886</ele>
        <time>2024-01-30T15:41:32.000Z</time>
      </trkpt>
      <trkpt lat="44.84838" lon="3.00568">
        <ele>885</ele>
        <time>2024-01-30T15:41:33.000Z</time>
      </trkpt>
      <trkpt lat="44.84854" lon="3.00567">
        <ele>884</ele>
        <time>2024-01-30T15:41:34.000Z</time>
      </trkpt>
      <trkpt lat="44.84875" lon="3.00567">
        <ele>882.79998779297</ele>
        <time>2024-01-30T15:41:35.000Z</time>
      </trkpt>
      <trkpt lat="44.84891" lon="3.00566">
        <ele>881.59997558594</ele>
        <time>2024-01-30T15:41:36.000Z</time>
      </trkpt>
      <trkpt lat="44.84909" lon="3.00564">
        <ele>880.20001220703</ele>
        <time>2024-01-30T15:41:37.000Z</time>
      </trkpt>
      <trkpt lat="44.84923" lon="3.00564">
        <ele>878.79998779297</ele>
        <time>2024-01-30T15:41:38.000Z</time>
      </trkpt>
      <trkpt lat="44.84955" lon="3.00566">
        <ele>876.20001220703</ele>
        <time>2024-01-30T15:41:40.000Z</time>
      </trkpt>
      <trkpt lat="44.8497" lon="3.00573">
        <ele>875</ele>
        <time>2024-01-30T15:41:41.000Z</time>
      </trkpt>
      <trkpt lat="44.84984" lon="3.0058">
        <ele>873.59997558594</ele>
        <time>2024-01-30T15:41:42.000Z</time>
      </trkpt>
      <trkpt lat="44.84999" lon="3.00587">
        <ele>872.20001220703</ele>
        <time>2024-01-30T15:41:43.000Z</time>
      </trkpt>
      <trkpt lat="44.85013" lon="3.00591">
        <ele>871.20001220703</ele>
        <time>2024-01-30T15:41:44.000Z</time>
      </trkpt>
      <trkpt lat="44.85028" lon="3.00591">
        <ele>870</ele>
        <time>2024-01-30T15:41:45.000Z</time>
      </trkpt>
      <trkpt lat="44.85043" lon="3.00589">
        <ele>868.79998779297</ele>
        <time>2024-01-30T15:41:46.000Z</time>
      </trkpt>
      <trkpt lat="44.85061" lon="3.00587">
        <ele>867.79998779297</ele>
        <time>2024-01-30T15:41:47.000Z</time>
      </trkpt>
      <trkpt lat="44.8509" lon="3.0059">
        <ele>865.40002441406</ele>
        <time>2024-01-30T15:41:49.000Z</time>
      </trkpt>
      <trkpt lat="44.85107" lon="3.00594">
        <ele>864.59997558594</ele>
        <time>2024-01-30T15:41:50.000Z</time>
      </trkpt>
      <trkpt lat="44.85123" lon="3.00599">
        <ele>863.40002441406</ele>
        <time>2024-01-30T15:41:51.000Z</time>
      </trkpt>
      <trkpt lat="44.85155" lon="3.00614">
        <ele>860.59997558594</ele>
        <time>2024-01-30T15:41:53.000Z</time>
      </trkpt>
      <trkpt lat="44.85171" lon="3.00623">
        <ele>859.79998779297</ele>
        <time>2024-01-30T15:41:54.000Z</time>
      </trkpt>
      <trkpt lat="44.85187" lon="3.00632">
        <ele>858.79998779297</ele>
        <time>2024-01-30T15:41:55.000Z</time>
      </trkpt>
      <trkpt lat="44.85207" lon="3.00641">
        <ele>857.79998779297</ele>
        <time>2024-01-30T15:41:56.000Z</time>
      </trkpt>
      <trkpt lat="44.85221" lon="3.00647">
        <ele>856.40002441406</ele>
        <time>2024-01-30T15:41:57.000Z</time>
      </trkpt>
      <trkpt lat="44.85238" lon="3.00654">
        <ele>855.20001220703</ele>
        <time>2024-01-30T15:41:58.000Z</time>
      </trkpt>
      <trkpt lat="44.85259" lon="3.00663">
        <ele>853.79998779297</ele>
        <time>2024-01-30T15:41:59.000Z</time>
      </trkpt>
      <trkpt lat="44.85276" lon="3.00669">
        <ele>852.40002441406</ele>
        <time>2024-01-30T15:42:00.000Z</time>
      </trkpt>
      <trkpt lat="44.85293" lon="3.00675">
        <ele>851</ele>
        <time>2024-01-30T15:42:01.000Z</time>
      </trkpt>
      <trkpt lat="44.85306" lon="3.00679">
        <ele>849.40002441406</ele>
        <time>2024-01-30T15:42:02.000Z</time>
      </trkpt>
      <trkpt lat="44.85323" lon="3.00685">
        <ele>847.40002441406</ele>
        <time>2024-01-30T15:42:03.000Z</time>
      </trkpt>
      <trkpt lat="44.85332" lon="3.0069">
        <ele>845.59997558594</ele>
        <time>2024-01-30T15:42:04.000Z</time>
      </trkpt>
      <trkpt lat="44.85342" lon="3.00697">
        <ele>844.40002441406</ele>
        <time>2024-01-30T15:42:05.000Z</time>
      </trkpt>
      <trkpt lat="44.85351" lon="3.00707">
        <ele>843</ele>
        <time>2024-01-30T15:42:06.000Z</time>
      </trkpt>
      <trkpt lat="44.85354" lon="3.00716">
        <ele>842.20001220703</ele>
        <time>2024-01-30T15:42:07.000Z</time>
      </trkpt>
      <trkpt lat="44.85356" lon="3.00728">
        <ele>841.59997558594</ele>
        <time>2024-01-30T15:42:08.000Z</time>
      </trkpt>
      <trkpt lat="44.85355" lon="3.0074">
        <ele>841</ele>
        <time>2024-01-30T15:42:09.000Z</time>
      </trkpt>
      <trkpt lat="44.85351" lon="3.00751">
        <ele>840.40002441406</ele>
        <time>2024-01-30T15:42:10.000Z</time>
      </trkpt>
      <trkpt lat="44.85344" lon="3.0076">
        <ele>839.79998779297</ele>
        <time>2024-01-30T15:42:11.000Z</time>
      </trkpt>
      <trkpt lat="44.85336" lon="3.00768">
        <ele>839.59997558594</ele>
        <time>2024-01-30T15:42:12.000Z</time>
      </trkpt>
      <trkpt lat="44.85327" lon="3.00776">
        <ele>839.20001220703</ele>
        <time>2024-01-30T15:42:13.000Z</time>
      </trkpt>
      <trkpt lat="44.8532" lon="3.00786">
        <ele>839</ele>
        <time>2024-01-30T15:42:14.000Z</time>
      </trkpt>
      <trkpt lat="44.85313" lon="3.00798">
        <ele>838.59997558594</ele>
        <time>2024-01-30T15:42:15.000Z</time>
      </trkpt>
      <trkpt lat="44.85301" lon="3.0082">
        <ele>838</ele>
        <time>2024-01-30T15:42:17.000Z</time>
      </trkpt>
      <trkpt lat="44.85285" lon="3.00834">
        <ele>837</ele>
        <time>2024-01-30T15:42:19.000Z</time>
      </trkpt>
      <trkpt lat="44.85266" lon="3.00832">
        <ele>836.40002441406</ele>
        <time>2024-01-30T15:42:21.000Z</time>
      </trkpt>
      <trkpt lat="44.85258" lon="3.00827">
        <ele>835.79998779297</ele>
        <time>2024-01-30T15:42:22.000Z</time>
      </trkpt>
      <trkpt lat="44.85244" lon="3.00821">
        <ele>834.40002441406</ele>
        <time>2024-01-30T15:42:24.000Z</time>
      </trkpt>
      <trkpt lat="44.85238" lon="3.00821">
        <ele>834</ele>
        <time>2024-01-30T15:42:25.000Z</time>
      </trkpt>
      <trkpt lat="44.85232" lon="3.00825">
        <ele>833.79998779297</ele>
        <time>2024-01-30T15:42:26.000Z</time>
      </trkpt>
      <trkpt lat="44.85228" lon="3.00832">
        <ele>833.59997558594</ele>
        <time>2024-01-30T15:42:27.000Z</time>
      </trkpt>
      <trkpt lat="44.85227" lon="3.00839">
        <ele>833.59997558594</ele>
        <time>2024-01-30T15:42:28.000Z</time>
      </trkpt>
      <trkpt lat="44.8523" lon="3.00847">
        <ele>833.20001220703</ele>
        <time>2024-01-30T15:42:29.000Z</time>
      </trkpt>
      <trkpt lat="44.85236" lon="3.00851">
        <ele>833</ele>
        <time>2024-01-30T15:42:30.000Z</time>
      </trkpt>
      <trkpt lat="44.85242" lon="3.00854">
        <ele>832.79998779297</ele>
        <time>2024-01-30T15:42:31.000Z</time>
      </trkpt>
      <trkpt lat="44.85267" lon="3.00861">
        <ele>832</ele>
        <time>2024-01-30T15:42:34.000Z</time>
      </trkpt>
      <trkpt lat="44.85276" lon="3.00863">
        <ele>831.40002441406</ele>
        <time>2024-01-30T15:42:35.000Z</time>
      </trkpt>
      <trkpt lat="44.85285" lon="3.00865">
        <ele>830.79998779297</ele>
        <time>2024-01-30T15:42:36.000Z</time>
      </trkpt>
      <trkpt lat="44.85303" lon="3.00862">
        <ele>829.40002441406</ele>
        <time>2024-01-30T15:42:38.000Z</time>
      </trkpt>
      <trkpt lat="44.85317" lon="3.00845">
        <ele>828.20001220703</ele>
        <time>2024-01-30T15:42:40.000Z</time>
      </trkpt>
      <trkpt lat="44.85331" lon="3.00821">
        <ele>827.40002441406</ele>
        <time>2024-01-30T15:42:42.000Z</time>
      </trkpt>
      <trkpt lat="44.8534" lon="3.00811">
        <ele>826.79998779297</ele>
        <time>2024-01-30T15:42:43.000Z</time>
      </trkpt>
      <trkpt lat="44.85351" lon="3.00802">
        <ele>826.20001220703</ele>
        <time>2024-01-30T15:42:44.000Z</time>
      </trkpt>
      <trkpt lat="44.85362" lon="3.00793">
        <ele>825.20001220703</ele>
        <time>2024-01-30T15:42:45.000Z</time>
      </trkpt>
      <trkpt lat="44.85373" lon="3.00784">
        <ele>824.79998779297</ele>
        <time>2024-01-30T15:42:46.000Z</time>
      </trkpt>
      <trkpt lat="44.85384" lon="3.00773">
        <ele>824.20001220703</ele>
        <time>2024-01-30T15:42:47.000Z</time>
      </trkpt>
      <trkpt lat="44.85402" lon="3.00752">
        <ele>823</ele>
        <time>2024-01-30T15:42:49.000Z</time>
      </trkpt>
      <trkpt lat="44.85408" lon="3.00741">
        <ele>822</ele>
        <time>2024-01-30T15:42:50.000Z</time>
      </trkpt>
      <trkpt lat="44.85413" lon="3.00729">
        <ele>820.79998779297</ele>
        <time>2024-01-30T15:42:51.000Z</time>
      </trkpt>
      <trkpt lat="44.85414" lon="3.00705">
        <ele>819.59997558594</ele>
        <time>2024-01-30T15:42:53.000Z</time>
      </trkpt>
      <trkpt lat="44.85405" lon="3.00684">
        <ele>818.59997558594</ele>
        <time>2024-01-30T15:42:55.000Z</time>
      </trkpt>
      <trkpt lat="44.85398" lon="3.00677">
        <ele>818.40002441406</ele>
        <time>2024-01-30T15:42:56.000Z</time>
      </trkpt>
      <trkpt lat="44.8539" lon="3.00672">
        <ele>817.79998779297</ele>
        <time>2024-01-30T15:42:57.000Z</time>
      </trkpt>
      <trkpt lat="44.85376" lon="3.00664">
        <ele>816.59997558594</ele>
        <time>2024-01-30T15:42:59.000Z</time>
      </trkpt>
      <trkpt lat="44.85369" lon="3.00652">
        <ele>815.40002441406</ele>
        <time>2024-01-30T15:43:01.000Z</time>
      </trkpt>
      <trkpt lat="44.85369" lon="3.00645">
        <ele>814.59997558594</ele>
        <time>2024-01-30T15:43:02.000Z</time>
      </trkpt>
      <trkpt lat="44.85372" lon="3.00642">
        <ele>814.40002441406</ele>
        <time>2024-01-30T15:43:03.000Z</time>
      </trkpt>
      <trkpt lat="44.85378" lon="3.0064">
        <ele>814</ele>
        <time>2024-01-30T15:43:04.000Z</time>
      </trkpt>
      <trkpt lat="44.85382" lon="3.00643">
        <ele>813.59997558594</ele>
        <time>2024-01-30T15:43:05.000Z</time>
      </trkpt>
      <trkpt lat="44.85396" lon="3.00653">
        <ele>813.20001220703</ele>
        <time>2024-01-30T15:43:07.000Z</time>
      </trkpt>
      <trkpt lat="44.8542" lon="3.00674">
        <ele>811.79998779297</ele>
        <time>2024-01-30T15:43:10.000Z</time>
      </trkpt>
      <trkpt lat="44.85429" lon="3.00683">
        <ele>811.40002441406</ele>
        <time>2024-01-30T15:43:11.000Z</time>
      </trkpt>
      <trkpt lat="44.85436" lon="3.00693">
        <ele>810.59997558594</ele>
        <time>2024-01-30T15:43:12.000Z</time>
      </trkpt>
      <trkpt lat="44.85439" lon="3.00705">
        <ele>809.59997558594</ele>
        <time>2024-01-30T15:43:13.000Z</time>
      </trkpt>
      <trkpt lat="44.85441" lon="3.00716">
        <ele>808.40002441406</ele>
        <time>2024-01-30T15:43:14.000Z</time>
      </trkpt>
      <trkpt lat="44.85439" lon="3.00726">
        <ele>807.59997558594</ele>
        <time>2024-01-30T15:43:15.000Z</time>
      </trkpt>
      <trkpt lat="44.85435" lon="3.00737">
        <ele>806.40002441406</ele>
        <time>2024-01-30T15:43:16.000Z</time>
      </trkpt>
      <trkpt lat="44.85432" lon="3.00746">
        <ele>806.20001220703</ele>
        <time>2024-01-30T15:43:17.000Z</time>
      </trkpt>
      <trkpt lat="44.85432" lon="3.00755">
        <ele>805.20001220703</ele>
        <time>2024-01-30T15:43:18.000Z</time>
      </trkpt>
      <trkpt lat="44.85433" lon="3.00763">
        <ele>804.59997558594</ele>
        <time>2024-01-30T15:43:19.000Z</time>
      </trkpt>
      <trkpt lat="44.85442" lon="3.0077">
        <ele>803.79998779297</ele>
        <time>2024-01-30T15:43:21.000Z</time>
      </trkpt>
      <trkpt lat="44.85459" lon="3.00756">
        <ele>803.20001220703</ele>
        <time>2024-01-30T15:43:24.000Z</time>
      </trkpt>
      <trkpt lat="44.8547" lon="3.00737">
        <ele>802.40002441406</ele>
        <time>2024-01-30T15:43:26.000Z</time>
      </trkpt>
      <trkpt lat="44.85473" lon="3.00726">
        <ele>801.59997558594</ele>
        <time>2024-01-30T15:43:27.000Z</time>
      </trkpt>
      <trkpt lat="44.85474" lon="3.00713">
        <ele>801.20001220703</ele>
        <time>2024-01-30T15:43:28.000Z</time>
      </trkpt>
      <trkpt lat="44.85472" lon="3.007">
        <ele>800.40002441406</ele>
        <time>2024-01-30T15:43:29.000Z</time>
      </trkpt>
      <trkpt lat="44.85468" lon="3.00687">
        <ele>799.59997558594</ele>
        <time>2024-01-30T15:43:30.000Z</time>
      </trkpt>
      <trkpt lat="44.85454" lon="3.00662">
        <ele>798.59997558594</ele>
        <time>2024-01-30T15:43:32.000Z</time>
      </trkpt>
      <trkpt lat="44.85445" lon="3.0065">
        <ele>798</ele>
        <time>2024-01-30T15:43:33.000Z</time>
      </trkpt>
      <trkpt lat="44.85424" lon="3.00625">
        <ele>796.59997558594</ele>
        <time>2024-01-30T15:43:35.000Z</time>
      </trkpt>
      <trkpt lat="44.85415" lon="3.00616">
        <ele>796.20001220703</ele>
        <time>2024-01-30T15:43:36.000Z</time>
      </trkpt>
      <trkpt lat="44.85404" lon="3.00607">
        <ele>795</ele>
        <time>2024-01-30T15:43:37.000Z</time>
      </trkpt>
      <trkpt lat="44.85393" lon="3.006">
        <ele>793.79998779297</ele>
        <time>2024-01-30T15:43:38.000Z</time>
      </trkpt>
      <trkpt lat="44.85382" lon="3.00592">
        <ele>792.59997558594</ele>
        <time>2024-01-30T15:43:39.000Z</time>
      </trkpt>
      <trkpt lat="44.8536" lon="3.00573">
        <ele>791.20001220703</ele>
        <time>2024-01-30T15:43:41.000Z</time>
      </trkpt>
      <trkpt lat="44.85353" lon="3.00564">
        <ele>790.40002441406</ele>
        <time>2024-01-30T15:43:42.000Z</time>
      </trkpt>
      <trkpt lat="44.85344" lon="3.0055">
        <ele>789.40002441406</ele>
        <time>2024-01-30T15:43:43.000Z</time>
      </trkpt>
      <trkpt lat="44.85332" lon="3.00532">
        <ele>787.79998779297</ele>
        <time>2024-01-30T15:43:45.000Z</time>
      </trkpt>
      <trkpt lat="44.85323" lon="3.00522">
        <ele>786.59997558594</ele>
        <time>2024-01-30T15:43:46.000Z</time>
      </trkpt>
      <trkpt lat="44.85302" lon="3.00504">
        <ele>785.40002441406</ele>
        <time>2024-01-30T15:43:48.000Z</time>
      </trkpt>
      <trkpt lat="44.85285" lon="3.00494">
        <ele>784.20001220703</ele>
        <time>2024-01-30T15:43:50.000Z</time>
      </trkpt>
      <trkpt lat="44.85254" lon="3.00473">
        <ele>782.59997558594</ele>
        <time>2024-01-30T15:43:53.000Z</time>
      </trkpt>
      <trkpt lat="44.85243" lon="3.00466">
        <ele>781.40002441406</ele>
        <time>2024-01-30T15:43:54.000Z</time>
      </trkpt>
      <trkpt lat="44.85226" lon="3.00453">
        <ele>780</ele>
        <time>2024-01-30T15:43:56.000Z</time>
      </trkpt>
      <trkpt lat="44.85218" lon="3.00446">
        <ele>779.20001220703</ele>
        <time>2024-01-30T15:43:57.000Z</time>
      </trkpt>
      <trkpt lat="44.85209" lon="3.00439">
        <ele>778.20001220703</ele>
        <time>2024-01-30T15:43:58.000Z</time>
      </trkpt>
      <trkpt lat="44.85183" lon="3.00421">
        <ele>776.59997558594</ele>
        <time>2024-01-30T15:44:01.000Z</time>
      </trkpt>
      <trkpt lat="44.85175" lon="3.00416">
        <ele>775.79998779297</ele>
        <time>2024-01-30T15:44:02.000Z</time>
      </trkpt>
      <trkpt lat="44.85167" lon="3.0041">
        <ele>775</ele>
        <time>2024-01-30T15:44:03.000Z</time>
      </trkpt>
      <trkpt lat="44.85151" lon="3.00399">
        <ele>774</ele>
        <time>2024-01-30T15:44:05.000Z</time>
      </trkpt>
      <trkpt lat="44.85135" lon="3.00386">
        <ele>772.79998779297</ele>
        <time>2024-01-30T15:44:07.000Z</time>
      </trkpt>
      <trkpt lat="44.85119" lon="3.00374">
        <ele>771.20001220703</ele>
        <time>2024-01-30T15:44:09.000Z</time>
      </trkpt>
      <trkpt lat="44.85098" lon="3.00356">
        <ele>770</ele>
        <time>2024-01-30T15:44:12.000Z</time>
      </trkpt>
      <trkpt lat="44.85078" lon="3.00339">
        <ele>769</ele>
        <time>2024-01-30T15:44:15.000Z</time>
      </trkpt>
      <trkpt lat="44.85065" lon="3.00329">
        <ele>768.79998779297</ele>
        <time>2024-01-30T15:44:17.000Z</time>
      </trkpt>
      <trkpt lat="44.85061" lon="3.00325">
        <ele>768.79998779297</ele>
        <time>2024-01-30T15:44:18.000Z</time>
      </trkpt>
      <trkpt lat="44.85052" lon="3.00312">
        <ele>768.79998779297</ele>
        <time>2024-01-30T15:44:20.000Z</time>
      </trkpt>
      <trkpt lat="44.85049" lon="3.00296">
        <ele>768.59997558594</ele>
        <time>2024-01-30T15:44:22.000Z</time>
      </trkpt>
      <trkpt lat="44.85049" lon="3.00281">
        <ele>768.40002441406</ele>
        <time>2024-01-30T15:44:24.000Z</time>
      </trkpt>
      <trkpt lat="44.85054" lon="3.00267">
        <ele>768.20001220703</ele>
        <time>2024-01-30T15:44:27.000Z</time>
      </trkpt>
      <trkpt lat="44.85066" lon="3.00269">
        <ele>768.20001220703</ele>
        <time>2024-01-30T15:44:30.000Z</time>
      </trkpt>
      <trkpt lat="44.85094" lon="3.00276">
        <ele>768.20001220703</ele>
        <time>2024-01-30T15:44:36.000Z</time>
      </trkpt>
      <trkpt lat="44.85097" lon="3.00276">
        <ele>768.20001220703</ele>
        <time>2024-01-30T15:44:37.000Z</time>
      </trkpt>
      <trkpt lat="44.85117" lon="3.00283">
        <ele>768.40002441406</ele>
        <time>2024-01-30T15:44:43.000Z</time>
      </trkpt>
      <trkpt lat="44.85132" lon="3.00293">
        <ele>768</ele>
        <time>2024-01-30T15:44:46.000Z</time>
      </trkpt>
      <trkpt lat="44.85138" lon="3.00296">
        <ele>767.59997558594</ele>
        <time>2024-01-30T15:44:47.000Z</time>
      </trkpt>
      <trkpt lat="44.85153" lon="3.00302">
        <ele>766.40002441406</ele>
        <time>2024-01-30T15:44:49.000Z</time>
      </trkpt>
      <trkpt lat="44.85173" lon="3.00312">
        <ele>765</ele>
        <time>2024-01-30T15:44:52.000Z</time>
      </trkpt>
      <trkpt lat="44.85193" lon="3.00318">
        <ele>763.79998779297</ele>
        <time>2024-01-30T15:44:55.000Z</time>
      </trkpt>
      <trkpt lat="44.85207" lon="3.00323">
        <ele>762.79998779297</ele>
        <time>2024-01-30T15:44:57.000Z</time>
      </trkpt>
      <trkpt lat="44.85213" lon="3.00326">
        <ele>762.59997558594</ele>
        <time>2024-01-30T15:44:58.000Z</time>
      </trkpt>
      <trkpt lat="44.85227" lon="3.00332">
        <ele>761.59997558594</ele>
        <time>2024-01-30T15:45:01.000Z</time>
      </trkpt>
      <trkpt lat="44.85231" lon="3.00333">
        <ele>761.40002441406</ele>
        <time>2024-01-30T15:45:02.000Z</time>
      </trkpt>
      <trkpt lat="44.8524" lon="3.00335">
        <ele>761.20001220703</ele>
        <time>2024-01-30T15:45:04.000Z</time>
      </trkpt>
      <trkpt lat="44.85256" lon="3.00343">
        <ele>761</ele>
        <time>2024-01-30T15:45:07.000Z</time>
      </trkpt>
      <trkpt lat="44.85271" lon="3.0035">
        <ele>760.20001220703</ele>
        <time>2024-01-30T15:45:09.000Z</time>
      </trkpt>
      <trkpt lat="44.85291" lon="3.00358">
        <ele>759.59997558594</ele>
        <time>2024-01-30T15:45:12.000Z</time>
      </trkpt>
      <trkpt lat="44.85307" lon="3.00363">
        <ele>758.79998779297</ele>
        <time>2024-01-30T15:45:14.000Z</time>
      </trkpt>
      <trkpt lat="44.85335" lon="3.00373">
        <ele>757.79998779297</ele>
        <time>2024-01-30T15:45:18.000Z</time>
      </trkpt>
      <trkpt lat="44.85341" lon="3.00376">
        <ele>757.40002441406</ele>
        <time>2024-01-30T15:45:19.000Z</time>
      </trkpt>
      <trkpt lat="44.85354" lon="3.00384">
        <ele>756.59997558594</ele>
        <time>2024-01-30T15:45:21.000Z</time>
      </trkpt>
      <trkpt lat="44.85368" lon="3.00397">
        <ele>755.59997558594</ele>
        <time>2024-01-30T15:45:24.000Z</time>
      </trkpt>
      <trkpt lat="44.85394" lon="3.00422">
        <ele>754.59997558594</ele>
        <time>2024-01-30T15:45:29.000Z</time>
      </trkpt>
      <trkpt lat="44.85417" lon="3.00446">
        <ele>753.79998779297</ele>
        <time>2024-01-30T15:45:33.000Z</time>
      </trkpt>
      <trkpt lat="44.8543" lon="3.00461">
        <ele>753.40002441406</ele>
        <time>2024-01-30T15:45:35.000Z</time>
      </trkpt>
      <trkpt lat="44.85448" lon="3.00485">
        <ele>752.20001220703</ele>
        <time>2024-01-30T15:45:38.000Z</time>
      </trkpt>
      <trkpt lat="44.85472" lon="3.0052">
        <ele>751</ele>
        <time>2024-01-30T15:45:42.000Z</time>
      </trkpt>
      <trkpt lat="44.85489" lon="3.00547">
        <ele>750.40002441406</ele>
        <time>2024-01-30T15:45:45.000Z</time>
      </trkpt>
      <trkpt lat="44.85501" lon="3.00565">
        <ele>750</ele>
        <time>2024-01-30T15:45:47.000Z</time>
      </trkpt>
      <trkpt lat="44.85539" lon="3.00622">
        <ele>749</ele>
        <time>2024-01-30T15:45:53.000Z</time>
      </trkpt>
      <trkpt lat="44.85544" lon="3.00628">
        <ele>749</ele>
        <time>2024-01-30T15:45:54.000Z</time>
      </trkpt>
      <trkpt lat="44.8555" lon="3.00633">
        <ele>749</ele>
        <time>2024-01-30T15:45:55.000Z</time>
      </trkpt>
      <trkpt lat="44.85566" lon="3.00637">
        <ele>749.20001220703</ele>
        <time>2024-01-30T15:45:57.000Z</time>
      </trkpt>
      <trkpt lat="44.856" lon="3.00631">
        <ele>751.40002441406</ele>
        <time>2024-01-30T15:46:02.000Z</time>
      </trkpt>
      <trkpt lat="44.85606" lon="3.00631">
        <ele>751.79998779297</ele>
        <time>2024-01-30T15:46:03.000Z</time>
      </trkpt>
      <trkpt lat="44.85618" lon="3.00637">
        <ele>752.40002441406</ele>
        <time>2024-01-30T15:46:05.000Z</time>
      </trkpt>
      <trkpt lat="44.85628" lon="3.00648">
        <ele>753.59997558594</ele>
        <time>2024-01-30T15:46:07.000Z</time>
      </trkpt>
      <trkpt lat="44.85634" lon="3.00658">
        <ele>754</ele>
        <time>2024-01-30T15:46:08.000Z</time>
      </trkpt>
      <trkpt lat="44.85643" lon="3.00675">
        <ele>755</ele>
        <time>2024-01-30T15:46:10.000Z</time>
      </trkpt>
      <trkpt lat="44.85654" lon="3.00697">
        <ele>756.20001220703</ele>
        <time>2024-01-30T15:46:12.000Z</time>
      </trkpt>
      <trkpt lat="44.85664" lon="3.00717">
        <ele>757.40002441406</ele>
        <time>2024-01-30T15:46:14.000Z</time>
      </trkpt>
      <trkpt lat="44.85673" lon="3.00736">
        <ele>758.59997558594</ele>
        <time>2024-01-30T15:46:16.000Z</time>
      </trkpt>
      <trkpt lat="44.85681" lon="3.00759">
        <ele>759.59997558594</ele>
        <time>2024-01-30T15:46:18.000Z</time>
      </trkpt>
      <trkpt lat="44.85684" lon="3.0077">
        <ele>759.79998779297</ele>
        <time>2024-01-30T15:46:19.000Z</time>
      </trkpt>
      <trkpt lat="44.85685" lon="3.00781">
        <ele>760.20001220703</ele>
        <time>2024-01-30T15:46:20.000Z</time>
      </trkpt>
      <trkpt lat="44.85683" lon="3.00803">
        <ele>761</ele>
        <time>2024-01-30T15:46:22.000Z</time>
      </trkpt>
      <trkpt lat="44.85679" lon="3.00826">
        <ele>762</ele>
        <time>2024-01-30T15:46:24.000Z</time>
      </trkpt>
      <trkpt lat="44.85673" lon="3.00864">
        <ele>763</ele>
        <time>2024-01-30T15:46:28.000Z</time>
      </trkpt>
      <trkpt lat="44.85673" lon="3.00872">
        <ele>763.40002441406</ele>
        <time>2024-01-30T15:46:29.000Z</time>
      </trkpt>
      <trkpt lat="44.85675" lon="3.0088">
        <ele>763.59997558594</ele>
        <time>2024-01-30T15:46:30.000Z</time>
      </trkpt>
      <trkpt lat="44.85678" lon="3.00887">
        <ele>764</ele>
        <time>2024-01-30T15:46:31.000Z</time>
      </trkpt>
      <trkpt lat="44.85682" lon="3.00894">
        <ele>764.20001220703</ele>
        <time>2024-01-30T15:46:32.000Z</time>
      </trkpt>
      <trkpt lat="44.85688" lon="3.009">
        <ele>764.59997558594</ele>
        <time>2024-01-30T15:46:33.000Z</time>
      </trkpt>
      <trkpt lat="44.85695" lon="3.00906">
        <ele>764.59997558594</ele>
        <time>2024-01-30T15:46:34.000Z</time>
      </trkpt>
      <trkpt lat="44.85703" lon="3.0091">
        <ele>765.20001220703</ele>
        <time>2024-01-30T15:46:35.000Z</time>
      </trkpt>
      <trkpt lat="44.85713" lon="3.00913">
        <ele>765.59997558594</ele>
        <time>2024-01-30T15:46:36.000Z</time>
      </trkpt>
      <trkpt lat="44.85724" lon="3.00915">
        <ele>765.59997558594</ele>
        <time>2024-01-30T15:46:37.000Z</time>
      </trkpt>
      <trkpt lat="44.85747" lon="3.00915">
        <ele>766</ele>
        <time>2024-01-30T15:46:39.000Z</time>
      </trkpt>
      <trkpt lat="44.8576" lon="3.00912">
        <ele>766.20001220703</ele>
        <time>2024-01-30T15:46:40.000Z</time>
      </trkpt>
      <trkpt lat="44.85788" lon="3.00905">
        <ele>766.59997558594</ele>
        <time>2024-01-30T15:46:42.000Z</time>
      </trkpt>
      <trkpt lat="44.85813" lon="3.00902">
        <ele>766.59997558594</ele>
        <time>2024-01-30T15:46:44.000Z</time>
      </trkpt>
      <trkpt lat="44.85871" lon="3.0091">
        <ele>766.20001220703</ele>
        <time>2024-01-30T15:46:48.000Z</time>
      </trkpt>
      <trkpt lat="44.85885" lon="3.00916">
        <ele>766</ele>
        <time>2024-01-30T15:46:49.000Z</time>
      </trkpt>
      <trkpt lat="44.85909" lon="3.00936">
        <ele>766</ele>
        <time>2024-01-30T15:46:51.000Z</time>
      </trkpt>
      <trkpt lat="44.85919" lon="3.00948">
        <ele>765.79998779297</ele>
        <time>2024-01-30T15:46:52.000Z</time>
      </trkpt>
      <trkpt lat="44.85939" lon="3.0098">
        <ele>765.40002441406</ele>
        <time>2024-01-30T15:46:54.000Z</time>
      </trkpt>
      <trkpt lat="44.85951" lon="3.01009">
        <ele>764.59997558594</ele>
        <time>2024-01-30T15:46:56.000Z</time>
      </trkpt>
      <trkpt lat="44.85955" lon="3.01026">
        <ele>764.20001220703</ele>
        <time>2024-01-30T15:46:57.000Z</time>
      </trkpt>
      <trkpt lat="44.85964" lon="3.01078">
        <ele>763.59997558594</ele>
        <time>2024-01-30T15:47:00.000Z</time>
      </trkpt>
      <trkpt lat="44.8597" lon="3.01095">
        <ele>763.40002441406</ele>
        <time>2024-01-30T15:47:01.000Z</time>
      </trkpt>
      <trkpt lat="44.85977" lon="3.01111">
        <ele>763.20001220703</ele>
        <time>2024-01-30T15:47:02.000Z</time>
      </trkpt>
      <trkpt lat="44.85998" lon="3.01134">
        <ele>763.20001220703</ele>
        <time>2024-01-30T15:47:04.000Z</time>
      </trkpt>
      <trkpt lat="44.86041" lon="3.01149">
        <ele>763.40002441406</ele>
        <time>2024-01-30T15:47:07.000Z</time>
      </trkpt>
      <trkpt lat="44.86109" lon="3.01168">
        <ele>763.59997558594</ele>
        <time>2024-01-30T15:47:11.000Z</time>
      </trkpt>
      <trkpt lat="44.86166" lon="3.01188">
        <ele>763.59997558594</ele>
        <time>2024-01-30T15:47:14.000Z</time>
      </trkpt>
      <trkpt lat="44.86181" lon="3.0119">
        <ele>763.40002441406</ele>
        <time>2024-01-30T15:47:15.000Z</time>
      </trkpt>
      <trkpt lat="44.86238" lon="3.01186">
        <ele>762.59997558594</ele>
        <time>2024-01-30T15:47:18.000Z</time>
      </trkpt>
      <trkpt lat="44.86256" lon="3.01181">
        <ele>761.79998779297</ele>
        <time>2024-01-30T15:47:19.000Z</time>
      </trkpt>
      <trkpt lat="44.86292" lon="3.01165">
        <ele>760.40002441406</ele>
        <time>2024-01-30T15:47:21.000Z</time>
      </trkpt>
      <trkpt lat="44.86327" lon="3.01149">
        <ele>759.40002441406</ele>
        <time>2024-01-30T15:47:23.000Z</time>
      </trkpt>
      <trkpt lat="44.86342" lon="3.01141">
        <ele>758.40002441406</ele>
        <time>2024-01-30T15:47:24.000Z</time>
      </trkpt>
      <trkpt lat="44.86371" lon="3.01128">
        <ele>756.20001220703</ele>
        <time>2024-01-30T15:47:26.000Z</time>
      </trkpt>
      <trkpt lat="44.86383" lon="3.01121">
        <ele>755.59997558594</ele>
        <time>2024-01-30T15:47:27.000Z</time>
      </trkpt>
      <trkpt lat="44.86393" lon="3.01113">
        <ele>754.40002441406</ele>
        <time>2024-01-30T15:47:28.000Z</time>
      </trkpt>
      <trkpt lat="44.86402" lon="3.01103">
        <ele>753.59997558594</ele>
        <time>2024-01-30T15:47:29.000Z</time>
      </trkpt>
      <trkpt lat="44.8641" lon="3.01091">
        <ele>753.20001220703</ele>
        <time>2024-01-30T15:47:30.000Z</time>
      </trkpt>
      <trkpt lat="44.86415" lon="3.01077">
        <ele>753.20001220703</ele>
        <time>2024-01-30T15:47:31.000Z</time>
      </trkpt>
      <trkpt lat="44.86417" lon="3.01061">
        <ele>753.20001220703</ele>
        <time>2024-01-30T15:47:32.000Z</time>
      </trkpt>
      <trkpt lat="44.86417" lon="3.01044">
        <ele>753</ele>
        <time>2024-01-30T15:47:33.000Z</time>
      </trkpt>
      <trkpt lat="44.86419" lon="3.01011">
        <ele>753</ele>
        <time>2024-01-30T15:47:35.000Z</time>
      </trkpt>
      <trkpt lat="44.86428" lon="3.00981">
        <ele>752.79998779297</ele>
        <time>2024-01-30T15:47:37.000Z</time>
      </trkpt>
      <trkpt lat="44.86435" lon="3.00968">
        <ele>752.40002441406</ele>
        <time>2024-01-30T15:47:38.000Z</time>
      </trkpt>
      <trkpt lat="44.86445" lon="3.00957">
        <ele>752.20001220703</ele>
        <time>2024-01-30T15:47:39.000Z</time>
      </trkpt>
      <trkpt lat="44.86456" lon="3.00946">
        <ele>751.79998779297</ele>
        <time>2024-01-30T15:47:40.000Z</time>
      </trkpt>
      <trkpt lat="44.8647" lon="3.00937">
        <ele>751</ele>
        <time>2024-01-30T15:47:41.000Z</time>
      </trkpt>
      <trkpt lat="44.86484" lon="3.0093">
        <ele>750.20001220703</ele>
        <time>2024-01-30T15:47:42.000Z</time>
      </trkpt>
      <trkpt lat="44.86499" lon="3.00925">
        <ele>749.40002441406</ele>
        <time>2024-01-30T15:47:43.000Z</time>
      </trkpt>
      <trkpt lat="44.86514" lon="3.00921">
        <ele>749</ele>
        <time>2024-01-30T15:47:44.000Z</time>
      </trkpt>
      <trkpt lat="44.8653" lon="3.0092">
        <ele>748.59997558594</ele>
        <time>2024-01-30T15:47:45.000Z</time>
      </trkpt>
      <trkpt lat="44.86562" lon="3.00924">
        <ele>747.40002441406</ele>
        <time>2024-01-30T15:47:47.000Z</time>
      </trkpt>
      <trkpt lat="44.86594" lon="3.00937">
        <ele>746</ele>
        <time>2024-01-30T15:47:49.000Z</time>
      </trkpt>
      <trkpt lat="44.8661" lon="3.00947">
        <ele>745</ele>
        <time>2024-01-30T15:47:50.000Z</time>
      </trkpt>
      <trkpt lat="44.86625" lon="3.00958">
        <ele>744.59997558594</ele>
        <time>2024-01-30T15:47:51.000Z</time>
      </trkpt>
      <trkpt lat="44.8665" lon="3.00988">
        <ele>743</ele>
        <time>2024-01-30T15:47:53.000Z</time>
      </trkpt>
      <trkpt lat="44.8666" lon="3.01004">
        <ele>742</ele>
        <time>2024-01-30T15:47:54.000Z</time>
      </trkpt>
      <trkpt lat="44.86667" lon="3.01017">
        <ele>740.79998779297</ele>
        <time>2024-01-30T15:47:55.000Z</time>
      </trkpt>
      <trkpt lat="44.86677" lon="3.01035">
        <ele>739.59997558594</ele>
        <time>2024-01-30T15:47:56.000Z</time>
      </trkpt>
      <trkpt lat="44.86694" lon="3.01056">
        <ele>737.59997558594</ele>
        <time>2024-01-30T15:47:58.000Z</time>
      </trkpt>
      <trkpt lat="44.86703" lon="3.01061">
        <ele>737.40002441406</ele>
        <time>2024-01-30T15:47:59.000Z</time>
      </trkpt>
      <trkpt lat="44.86714" lon="3.01063">
        <ele>736.79998779297</ele>
        <time>2024-01-30T15:48:00.000Z</time>
      </trkpt>
      <trkpt lat="44.86725" lon="3.01059">
        <ele>736.59997558594</ele>
        <time>2024-01-30T15:48:01.000Z</time>
      </trkpt>
      <trkpt lat="44.86736" lon="3.01051">
        <ele>736.20001220703</ele>
        <time>2024-01-30T15:48:02.000Z</time>
      </trkpt>
      <trkpt lat="44.86746" lon="3.0104">
        <ele>736</ele>
        <time>2024-01-30T15:48:03.000Z</time>
      </trkpt>
      <trkpt lat="44.86754" lon="3.01024">
        <ele>735.59997558594</ele>
        <time>2024-01-30T15:48:04.000Z</time>
      </trkpt>
      <trkpt lat="44.86761" lon="3.01006">
        <ele>735.59997558594</ele>
        <time>2024-01-30T15:48:05.000Z</time>
      </trkpt>
      <trkpt lat="44.86769" lon="3.00986">
        <ele>735.59997558594</ele>
        <time>2024-01-30T15:48:06.000Z</time>
      </trkpt>
      <trkpt lat="44.86801" lon="3.0092">
        <ele>735.40002441406</ele>
        <time>2024-01-30T15:48:09.000Z</time>
      </trkpt>
      <trkpt lat="44.86832" lon="3.00855">
        <ele>734.59997558594</ele>
        <time>2024-01-30T15:48:12.000Z</time>
      </trkpt>
      <trkpt lat="44.86842" lon="3.00829">
        <ele>734.40002441406</ele>
        <time>2024-01-30T15:48:13.000Z</time>
      </trkpt>
      <trkpt lat="44.86859" lon="3.00775">
        <ele>733.20001220703</ele>
        <time>2024-01-30T15:48:15.000Z</time>
      </trkpt>
      <trkpt lat="44.86868" lon="3.00747">
        <ele>732.59997558594</ele>
        <time>2024-01-30T15:48:16.000Z</time>
      </trkpt>
      <trkpt lat="44.86877" lon="3.00721">
        <ele>732</ele>
        <time>2024-01-30T15:48:17.000Z</time>
      </trkpt>
      <trkpt lat="44.86899" lon="3.00671">
        <ele>730.79998779297</ele>
        <time>2024-01-30T15:48:19.000Z</time>
      </trkpt>
      <trkpt lat="44.86928" lon="3.00628">
        <ele>729.20001220703</ele>
        <time>2024-01-30T15:48:21.000Z</time>
      </trkpt>
      <trkpt lat="44.86943" lon="3.0061">
        <ele>728.20001220703</ele>
        <time>2024-01-30T15:48:22.000Z</time>
      </trkpt>
      <trkpt lat="44.86957" lon="3.00591">
        <ele>727.40002441406</ele>
        <time>2024-01-30T15:48:23.000Z</time>
      </trkpt>
      <trkpt lat="44.8697" lon="3.0057">
        <ele>725.59997558594</ele>
        <time>2024-01-30T15:48:24.000Z</time>
      </trkpt>
      <trkpt lat="44.86982" lon="3.0055">
        <ele>723.79998779297</ele>
        <time>2024-01-30T15:48:25.000Z</time>
      </trkpt>
      <trkpt lat="44.86995" lon="3.00531">
        <ele>722.59997558594</ele>
        <time>2024-01-30T15:48:26.000Z</time>
      </trkpt>
      <trkpt lat="44.8701" lon="3.00514">
        <ele>720.79998779297</ele>
        <time>2024-01-30T15:48:27.000Z</time>
      </trkpt>
      <trkpt lat="44.87027" lon="3.00502">
        <ele>719.20001220703</ele>
        <time>2024-01-30T15:48:28.000Z</time>
      </trkpt>
      <trkpt lat="44.87044" lon="3.00491">
        <ele>717.20001220703</ele>
        <time>2024-01-30T15:48:29.000Z</time>
      </trkpt>
      <trkpt lat="44.87063" lon="3.00482">
        <ele>715.59997558594</ele>
        <time>2024-01-30T15:48:30.000Z</time>
      </trkpt>
      <trkpt lat="44.87082" lon="3.00474">
        <ele>714.40002441406</ele>
        <time>2024-01-30T15:48:31.000Z</time>
      </trkpt>
      <trkpt lat="44.87102" lon="3.00466">
        <ele>712.79998779297</ele>
        <time>2024-01-30T15:48:32.000Z</time>
      </trkpt>
      <trkpt lat="44.87121" lon="3.00456">
        <ele>711.79998779297</ele>
        <time>2024-01-30T15:48:33.000Z</time>
      </trkpt>
      <trkpt lat="44.8714" lon="3.00443">
        <ele>710.59997558594</ele>
        <time>2024-01-30T15:48:34.000Z</time>
      </trkpt>
      <trkpt lat="44.87192" lon="3.00395">
        <ele>709.20001220703</ele>
        <time>2024-01-30T15:48:37.000Z</time>
      </trkpt>
      <trkpt lat="44.87228" lon="3.00368">
        <ele>708</ele>
        <time>2024-01-30T15:48:39.000Z</time>
      </trkpt>
      <trkpt lat="44.87265" lon="3.0034">
        <ele>706</ele>
        <time>2024-01-30T15:48:41.000Z</time>
      </trkpt>
      <trkpt lat="44.87301" lon="3.00302">
        <ele>703.79998779297</ele>
        <time>2024-01-30T15:48:43.000Z</time>
      </trkpt>
      <trkpt lat="44.87312" lon="3.00285">
        <ele>702.79998779297</ele>
        <time>2024-01-30T15:48:44.000Z</time>
      </trkpt>
      <trkpt lat="44.87325" lon="3.00262">
        <ele>701.59997558594</ele>
        <time>2024-01-30T15:48:45.000Z</time>
      </trkpt>
      <trkpt lat="44.87336" lon="3.00239">
        <ele>700</ele>
        <time>2024-01-30T15:48:46.000Z</time>
      </trkpt>
      <trkpt lat="44.87346" lon="3.00214">
        <ele>698.79998779297</ele>
        <time>2024-01-30T15:48:47.000Z</time>
      </trkpt>
      <trkpt lat="44.87367" lon="3.0017">
        <ele>697.40002441406</ele>
        <time>2024-01-30T15:48:49.000Z</time>
      </trkpt>
      <trkpt lat="44.87379" lon="3.00151">
        <ele>696</ele>
        <time>2024-01-30T15:48:50.000Z</time>
      </trkpt>
      <trkpt lat="44.87394" lon="3.00134">
        <ele>695</ele>
        <time>2024-01-30T15:48:51.000Z</time>
      </trkpt>
      <trkpt lat="44.8741" lon="3.00119">
        <ele>694.20001220703</ele>
        <time>2024-01-30T15:48:52.000Z</time>
      </trkpt>
      <trkpt lat="44.87427" lon="3.00105">
        <ele>693.40002441406</ele>
        <time>2024-01-30T15:48:53.000Z</time>
      </trkpt>
      <trkpt lat="44.87446" lon="3.00092">
        <ele>692.59997558594</ele>
        <time>2024-01-30T15:48:54.000Z</time>
      </trkpt>
      <trkpt lat="44.87466" lon="3.00079">
        <ele>691.40002441406</ele>
        <time>2024-01-30T15:48:55.000Z</time>
      </trkpt>
      <trkpt lat="44.87486" lon="3.00065">
        <ele>690.40002441406</ele>
        <time>2024-01-30T15:48:56.000Z</time>
      </trkpt>
      <trkpt lat="44.87505" lon="3.00051">
        <ele>689.20001220703</ele>
        <time>2024-01-30T15:48:57.000Z</time>
      </trkpt>
      <trkpt lat="44.87544" lon="3.00024">
        <ele>687.20001220703</ele>
        <time>2024-01-30T15:48:59.000Z</time>
      </trkpt>
      <trkpt lat="44.87563" lon="3.00011">
        <ele>686.20001220703</ele>
        <time>2024-01-30T15:49:00.000Z</time>
      </trkpt>
      <trkpt lat="44.87582" lon="2.99999">
        <ele>684.79998779297</ele>
        <time>2024-01-30T15:49:01.000Z</time>
      </trkpt>
      <trkpt lat="44.876" lon="2.9999">
        <ele>682.79998779297</ele>
        <time>2024-01-30T15:49:02.000Z</time>
      </trkpt>
      <trkpt lat="44.87619" lon="2.99983">
        <ele>681.40002441406</ele>
        <time>2024-01-30T15:49:03.000Z</time>
      </trkpt>
      <trkpt lat="44.87638" lon="2.99981">
        <ele>679.79998779297</ele>
        <time>2024-01-30T15:49:04.000Z</time>
      </trkpt>
      <trkpt lat="44.87678" lon="2.99984">
        <ele>677.59997558594</ele>
        <time>2024-01-30T15:49:06.000Z</time>
      </trkpt>
      <trkpt lat="44.87718" lon="2.99985">
        <ele>676.79998779297</ele>
        <time>2024-01-30T15:49:08.000Z</time>
      </trkpt>
      <trkpt lat="44.87756" lon="2.99972">
        <ele>676.79998779297</ele>
        <time>2024-01-30T15:49:10.000Z</time>
      </trkpt>
      <trkpt lat="44.87808" lon="2.9993">
        <ele>677.40002441406</ele>
        <time>2024-01-30T15:49:13.000Z</time>
      </trkpt>
      <trkpt lat="44.87866" lon="2.99876">
        <ele>678.59997558594</ele>
        <time>2024-01-30T15:49:17.000Z</time>
      </trkpt>
      <trkpt lat="44.87881" lon="2.99859">
        <ele>679.20001220703</ele>
        <time>2024-01-30T15:49:18.000Z</time>
      </trkpt>
      <trkpt lat="44.87909" lon="2.99823">
        <ele>680</ele>
        <time>2024-01-30T15:49:20.000Z</time>
      </trkpt>
      <trkpt lat="44.87939" lon="2.99787">
        <ele>680.20001220703</ele>
        <time>2024-01-30T15:49:22.000Z</time>
      </trkpt>
      <trkpt lat="44.87971" lon="2.9976">
        <ele>680.20001220703</ele>
        <time>2024-01-30T15:49:24.000Z</time>
      </trkpt>
      <trkpt lat="44.87989" lon="2.99751">
        <ele>680.20001220703</ele>
        <time>2024-01-30T15:49:25.000Z</time>
      </trkpt>
      <trkpt lat="44.88007" lon="2.99744">
        <ele>680</ele>
        <time>2024-01-30T15:49:26.000Z</time>
      </trkpt>
      <trkpt lat="44.88045" lon="2.99739">
        <ele>679.79998779297</ele>
        <time>2024-01-30T15:49:28.000Z</time>
      </trkpt>
      <trkpt lat="44.88082" lon="2.99745">
        <ele>679.40002441406</ele>
        <time>2024-01-30T15:49:30.000Z</time>
      </trkpt>
      <trkpt lat="44.881" lon="2.99753">
        <ele>679.20001220703</ele>
        <time>2024-01-30T15:49:31.000Z</time>
      </trkpt>
      <trkpt lat="44.88137" lon="2.99773">
        <ele>679</ele>
        <time>2024-01-30T15:49:33.000Z</time>
      </trkpt>
      <trkpt lat="44.88159" lon="2.99784">
        <ele>679</ele>
        <time>2024-01-30T15:49:34.000Z</time>
      </trkpt>
      <trkpt lat="44.88193" lon="2.99795">
        <ele>679</ele>
        <time>2024-01-30T15:49:36.000Z</time>
      </trkpt>
      <trkpt lat="44.88232" lon="2.99798">
        <ele>678.79998779297</ele>
        <time>2024-01-30T15:49:38.000Z</time>
      </trkpt>
      <trkpt lat="44.88251" lon="2.99792">
        <ele>678.79998779297</ele>
        <time>2024-01-30T15:49:39.000Z</time>
      </trkpt>
      <trkpt lat="44.88275" lon="2.99783">
        <ele>678.59997558594</ele>
        <time>2024-01-30T15:49:40.000Z</time>
      </trkpt>
      <trkpt lat="44.88294" lon="2.9977">
        <ele>678.59997558594</ele>
        <time>2024-01-30T15:49:41.000Z</time>
      </trkpt>
      <trkpt lat="44.88328" lon="2.99737">
        <ele>678.59997558594</ele>
        <time>2024-01-30T15:49:43.000Z</time>
      </trkpt>
      <trkpt lat="44.88344" lon="2.99717">
        <ele>678.59997558594</ele>
        <time>2024-01-30T15:49:44.000Z</time>
      </trkpt>
      <trkpt lat="44.88387" lon="2.99658">
        <ele>677.79998779297</ele>
        <time>2024-01-30T15:49:47.000Z</time>
      </trkpt>
      <trkpt lat="44.88417" lon="2.99615">
        <ele>676.20001220703</ele>
        <time>2024-01-30T15:49:49.000Z</time>
      </trkpt>
      <trkpt lat="44.88443" lon="2.99585">
        <ele>674.79998779297</ele>
        <time>2024-01-30T15:49:51.000Z</time>
      </trkpt>
      <trkpt lat="44.88471" lon="2.99577">
        <ele>674.40002441406</ele>
        <time>2024-01-30T15:49:53.000Z</time>
      </trkpt>
      <trkpt lat="44.88493" lon="2.99588">
        <ele>674.40002441406</ele>
        <time>2024-01-30T15:49:55.000Z</time>
      </trkpt>
      <trkpt lat="44.8854" lon="2.99629">
        <ele>675.20001220703</ele>
        <time>2024-01-30T15:49:59.000Z</time>
      </trkpt>
      <trkpt lat="44.8857" lon="2.99649">
        <ele>675.79998779297</ele>
        <time>2024-01-30T15:50:01.000Z</time>
      </trkpt>
      <trkpt lat="44.88587" lon="2.99656">
        <ele>676</ele>
        <time>2024-01-30T15:50:02.000Z</time>
      </trkpt>
      <trkpt lat="44.8862" lon="2.99663">
        <ele>676</ele>
        <time>2024-01-30T15:50:04.000Z</time>
      </trkpt>
      <trkpt lat="44.88642" lon="2.99661">
        <ele>676</ele>
        <time>2024-01-30T15:50:05.000Z</time>
      </trkpt>
      <trkpt lat="44.88701" lon="2.99654">
        <ele>675.40002441406</ele>
        <time>2024-01-30T15:50:08.000Z</time>
      </trkpt>
      <trkpt lat="44.88737" lon="2.99648">
        <ele>674.40002441406</ele>
        <time>2024-01-30T15:50:10.000Z</time>
      </trkpt>
      <trkpt lat="44.88781" lon="2.99632">
        <ele>673.59997558594</ele>
        <time>2024-01-30T15:50:12.000Z</time>
      </trkpt>
      <trkpt lat="44.88801" lon="2.99624">
        <ele>673.20001220703</ele>
        <time>2024-01-30T15:50:13.000Z</time>
      </trkpt>
      <trkpt lat="44.88841" lon="2.99608">
        <ele>671.79998779297</ele>
        <time>2024-01-30T15:50:15.000Z</time>
      </trkpt>
      <trkpt lat="44.88859" lon="2.99602">
        <ele>670.79998779297</ele>
        <time>2024-01-30T15:50:16.000Z</time>
      </trkpt>
      <trkpt lat="44.88891" lon="2.99593">
        <ele>668.59997558594</ele>
        <time>2024-01-30T15:50:18.000Z</time>
      </trkpt>
      <trkpt lat="44.88906" lon="2.99593">
        <ele>667</ele>
        <time>2024-01-30T15:50:19.000Z</time>
      </trkpt>
      <trkpt lat="44.8893" lon="2.99595">
        <ele>665</ele>
        <time>2024-01-30T15:50:21.000Z</time>
      </trkpt>
      <trkpt lat="44.88944" lon="2.99594">
        <ele>664.59997558594</ele>
        <time>2024-01-30T15:50:22.000Z</time>
      </trkpt>
      <trkpt lat="44.88953" lon="2.99591">
        <ele>663.79998779297</ele>
        <time>2024-01-30T15:50:23.000Z</time>
      </trkpt>
      <trkpt lat="44.88999" lon="2.99563">
        <ele>663.40002441406</ele>
        <time>2024-01-30T15:50:28.000Z</time>
      </trkpt>
      <trkpt lat="44.89039" lon="2.9954">
        <ele>663.40002441406</ele>
        <time>2024-01-30T15:50:32.000Z</time>
      </trkpt>
      <trkpt lat="44.89049" lon="2.99539">
        <ele>663.20001220703</ele>
        <time>2024-01-30T15:50:33.000Z</time>
      </trkpt>
      <trkpt lat="44.89061" lon="2.99542">
        <ele>663.20001220703</ele>
        <time>2024-01-30T15:50:34.000Z</time>
      </trkpt>
      <trkpt lat="44.8907" lon="2.99547">
        <ele>663.20001220703</ele>
        <time>2024-01-30T15:50:35.000Z</time>
      </trkpt>
      <trkpt lat="44.89079" lon="2.99558">
        <ele>663.20001220703</ele>
        <time>2024-01-30T15:50:36.000Z</time>
      </trkpt>
      <trkpt lat="44.89088" lon="2.99571">
        <ele>663.59997558594</ele>
        <time>2024-01-30T15:50:37.000Z</time>
      </trkpt>
      <trkpt lat="44.89094" lon="2.99588">
        <ele>664.40002441406</ele>
        <time>2024-01-30T15:50:38.000Z</time>
      </trkpt>
      <trkpt lat="44.89101" lon="2.9961">
        <ele>665</ele>
        <time>2024-01-30T15:50:39.000Z</time>
      </trkpt>
      <trkpt lat="44.89106" lon="2.99626">
        <ele>665.79998779297</ele>
        <time>2024-01-30T15:50:40.000Z</time>
      </trkpt>
      <trkpt lat="44.89114" lon="2.99645">
        <ele>667</ele>
        <time>2024-01-30T15:50:41.000Z</time>
      </trkpt>
      <trkpt lat="44.89123" lon="2.99663">
        <ele>668</ele>
        <time>2024-01-30T15:50:42.000Z</time>
      </trkpt>
      <trkpt lat="44.89133" lon="2.99681">
        <ele>669</ele>
        <time>2024-01-30T15:50:43.000Z</time>
      </trkpt>
      <trkpt lat="44.89145" lon="2.99697">
        <ele>669.79998779297</ele>
        <time>2024-01-30T15:50:44.000Z</time>
      </trkpt>
      <trkpt lat="44.89156" lon="2.99714">
        <ele>671.20001220703</ele>
        <time>2024-01-30T15:50:45.000Z</time>
      </trkpt>
      <trkpt lat="44.89181" lon="2.99748">
        <ele>673</ele>
        <time>2024-01-30T15:50:47.000Z</time>
      </trkpt>
      <trkpt lat="44.89194" lon="2.99765">
        <ele>674</ele>
        <time>2024-01-30T15:50:48.000Z</time>
      </trkpt>
      <trkpt lat="44.89206" lon="2.99782">
        <ele>675.20001220703</ele>
        <time>2024-01-30T15:50:49.000Z</time>
      </trkpt>
      <trkpt lat="44.8923" lon="2.99817">
        <ele>677.40002441406</ele>
        <time>2024-01-30T15:50:51.000Z</time>
      </trkpt>
      <trkpt lat="44.89253" lon="2.99853">
        <ele>679.40002441406</ele>
        <time>2024-01-30T15:50:53.000Z</time>
      </trkpt>
      <trkpt lat="44.89275" lon="2.99887">
        <ele>681.20001220703</ele>
        <time>2024-01-30T15:50:55.000Z</time>
      </trkpt>
      <trkpt lat="44.89285" lon="2.99904">
        <ele>682.40002441406</ele>
        <time>2024-01-30T15:50:56.000Z</time>
      </trkpt>
      <trkpt lat="44.89294" lon="2.99922">
        <ele>683.59997558594</ele>
        <time>2024-01-30T15:50:57.000Z</time>
      </trkpt>
      <trkpt lat="44.89302" lon="2.99941">
        <ele>685</ele>
        <time>2024-01-30T15:50:58.000Z</time>
      </trkpt>
      <trkpt lat="44.8931" lon="2.9996">
        <ele>685.79998779297</ele>
        <time>2024-01-30T15:50:59.000Z</time>
      </trkpt>
      <trkpt lat="44.89317" lon="2.99981">
        <ele>687.79998779297</ele>
        <time>2024-01-30T15:51:00.000Z</time>
      </trkpt>
      <trkpt lat="44.89322" lon="3.00002">
        <ele>688.79998779297</ele>
        <time>2024-01-30T15:51:01.000Z</time>
      </trkpt>
      <trkpt lat="44.89326" lon="3.00024">
        <ele>690.40002441406</ele>
        <time>2024-01-30T15:51:02.000Z</time>
      </trkpt>
      <trkpt lat="44.8933" lon="3.00046">
        <ele>691.59997558594</ele>
        <time>2024-01-30T15:51:03.000Z</time>
      </trkpt>
      <trkpt lat="44.89333" lon="3.00073">
        <ele>692.79998779297</ele>
        <time>2024-01-30T15:51:04.000Z</time>
      </trkpt>
      <trkpt lat="44.89334" lon="3.0009">
        <ele>694</ele>
        <time>2024-01-30T15:51:05.000Z</time>
      </trkpt>
      <trkpt lat="44.89335" lon="3.00112">
        <ele>695.40002441406</ele>
        <time>2024-01-30T15:51:06.000Z</time>
      </trkpt>
      <trkpt lat="44.89336" lon="3.00138">
        <ele>696.79998779297</ele>
        <time>2024-01-30T15:51:07.000Z</time>
      </trkpt>
      <trkpt lat="44.89337" lon="3.00155">
        <ele>698.20001220703</ele>
        <time>2024-01-30T15:51:08.000Z</time>
      </trkpt>
      <trkpt lat="44.89338" lon="3.00177">
        <ele>699.40002441406</ele>
        <time>2024-01-30T15:51:09.000Z</time>
      </trkpt>
      <trkpt lat="44.8934" lon="3.0022">
        <ele>701.20001220703</ele>
        <time>2024-01-30T15:51:11.000Z</time>
      </trkpt>
      <trkpt lat="44.89342" lon="3.00241">
        <ele>702</ele>
        <time>2024-01-30T15:51:12.000Z</time>
      </trkpt>
      <trkpt lat="44.89345" lon="3.00263">
        <ele>703</ele>
        <time>2024-01-30T15:51:13.000Z</time>
      </trkpt>
      <trkpt lat="44.89349" lon="3.00284">
        <ele>703.79998779297</ele>
        <time>2024-01-30T15:51:14.000Z</time>
      </trkpt>
      <trkpt lat="44.89355" lon="3.00304">
        <ele>704.79998779297</ele>
        <time>2024-01-30T15:51:15.000Z</time>
      </trkpt>
      <trkpt lat="44.89363" lon="3.00324">
        <ele>705.59997558594</ele>
        <time>2024-01-30T15:51:16.000Z</time>
      </trkpt>
      <trkpt lat="44.89372" lon="3.00342">
        <ele>707</ele>
        <time>2024-01-30T15:51:17.000Z</time>
      </trkpt>
      <trkpt lat="44.89384" lon="3.00358">
        <ele>707.79998779297</ele>
        <time>2024-01-30T15:51:18.000Z</time>
      </trkpt>
      <trkpt lat="44.89398" lon="3.00375">
        <ele>708.59997558594</ele>
        <time>2024-01-30T15:51:19.000Z</time>
      </trkpt>
      <trkpt lat="44.89409" lon="3.00385">
        <ele>709.40002441406</ele>
        <time>2024-01-30T15:51:20.000Z</time>
      </trkpt>
      <trkpt lat="44.89424" lon="3.00395">
        <ele>710.59997558594</ele>
        <time>2024-01-30T15:51:21.000Z</time>
      </trkpt>
      <trkpt lat="44.8944" lon="3.00403">
        <ele>711.59997558594</ele>
        <time>2024-01-30T15:51:22.000Z</time>
      </trkpt>
      <trkpt lat="44.89456" lon="3.00409">
        <ele>712.79998779297</ele>
        <time>2024-01-30T15:51:23.000Z</time>
      </trkpt>
      <trkpt lat="44.89473" lon="3.00414">
        <ele>713.79998779297</ele>
        <time>2024-01-30T15:51:24.000Z</time>
      </trkpt>
      <trkpt lat="44.89489" lon="3.00419">
        <ele>715</ele>
        <time>2024-01-30T15:51:25.000Z</time>
      </trkpt>
      <trkpt lat="44.89506" lon="3.00424">
        <ele>716</ele>
        <time>2024-01-30T15:51:26.000Z</time>
      </trkpt>
      <trkpt lat="44.89524" lon="3.0043">
        <ele>717.40002441406</ele>
        <time>2024-01-30T15:51:27.000Z</time>
      </trkpt>
      <trkpt lat="44.89543" lon="3.00434">
        <ele>718.79998779297</ele>
        <time>2024-01-30T15:51:28.000Z</time>
      </trkpt>
      <trkpt lat="44.89562" lon="3.00437">
        <ele>720.40002441406</ele>
        <time>2024-01-30T15:51:29.000Z</time>
      </trkpt>
      <trkpt lat="44.89581" lon="3.00442">
        <ele>721.79998779297</ele>
        <time>2024-01-30T15:51:30.000Z</time>
      </trkpt>
      <trkpt lat="44.896" lon="3.00447">
        <ele>723.40002441406</ele>
        <time>2024-01-30T15:51:31.000Z</time>
      </trkpt>
      <trkpt lat="44.89619" lon="3.00454">
        <ele>725</ele>
        <time>2024-01-30T15:51:32.000Z</time>
      </trkpt>
      <trkpt lat="44.89638" lon="3.00462">
        <ele>726.40002441406</ele>
        <time>2024-01-30T15:51:33.000Z</time>
      </trkpt>
      <trkpt lat="44.89656" lon="3.00469">
        <ele>727.40002441406</ele>
        <time>2024-01-30T15:51:34.000Z</time>
      </trkpt>
      <trkpt lat="44.89676" lon="3.00475">
        <ele>729.40002441406</ele>
        <time>2024-01-30T15:51:35.000Z</time>
      </trkpt>
      <trkpt lat="44.89695" lon="3.0048">
        <ele>730.40002441406</ele>
        <time>2024-01-30T15:51:36.000Z</time>
      </trkpt>
      <trkpt lat="44.89715" lon="3.00483">
        <ele>732</ele>
        <time>2024-01-30T15:51:37.000Z</time>
      </trkpt>
      <trkpt lat="44.89736" lon="3.00486">
        <ele>733.79998779297</ele>
        <time>2024-01-30T15:51:38.000Z</time>
      </trkpt>
      <trkpt lat="44.89757" lon="3.00489">
        <ele>735</ele>
        <time>2024-01-30T15:51:39.000Z</time>
      </trkpt>
      <trkpt lat="44.89778" lon="3.00493">
        <ele>736.59997558594</ele>
        <time>2024-01-30T15:51:40.000Z</time>
      </trkpt>
      <trkpt lat="44.89799" lon="3.00498">
        <ele>738.20001220703</ele>
        <time>2024-01-30T15:51:41.000Z</time>
      </trkpt>
      <trkpt lat="44.89819" lon="3.00503">
        <ele>739.59997558594</ele>
        <time>2024-01-30T15:51:42.000Z</time>
      </trkpt>
      <trkpt lat="44.8984" lon="3.00509">
        <ele>741.40002441406</ele>
        <time>2024-01-30T15:51:43.000Z</time>
      </trkpt>
      <trkpt lat="44.89859" lon="3.00516">
        <ele>742.79998779297</ele>
        <time>2024-01-30T15:51:44.000Z</time>
      </trkpt>
      <trkpt lat="44.89879" lon="3.00526">
        <ele>744</ele>
        <time>2024-01-30T15:51:45.000Z</time>
      </trkpt>
      <trkpt lat="44.89898" lon="3.00539">
        <ele>745.20001220703</ele>
        <time>2024-01-30T15:51:46.000Z</time>
      </trkpt>
      <trkpt lat="44.89915" lon="3.00553">
        <ele>746.79998779297</ele>
        <time>2024-01-30T15:51:47.000Z</time>
      </trkpt>
      <trkpt lat="44.89933" lon="3.00568">
        <ele>748.20001220703</ele>
        <time>2024-01-30T15:51:48.000Z</time>
      </trkpt>
      <trkpt lat="44.89948" lon="3.00583">
        <ele>749.40002441406</ele>
        <time>2024-01-30T15:51:49.000Z</time>
      </trkpt>
      <trkpt lat="44.89976" lon="3.00613">
        <ele>750.79998779297</ele>
        <time>2024-01-30T15:51:51.000Z</time>
      </trkpt>
      <trkpt lat="44.90004" lon="3.00663">
        <ele>752</ele>
        <time>2024-01-30T15:51:54.000Z</time>
      </trkpt>
      <trkpt lat="44.90027" lon="3.00683">
        <ele>753.20001220703</ele>
        <time>2024-01-30T15:51:56.000Z</time>
      </trkpt>
      <trkpt lat="44.90054" lon="3.0069">
        <ele>754.59997558594</ele>
        <time>2024-01-30T15:51:58.000Z</time>
      </trkpt>
      <trkpt lat="44.90066" lon="3.00695">
        <ele>755.59997558594</ele>
        <time>2024-01-30T15:51:59.000Z</time>
      </trkpt>
      <trkpt lat="44.90075" lon="3.00703">
        <ele>756.20001220703</ele>
        <time>2024-01-30T15:52:00.000Z</time>
      </trkpt>
      <trkpt lat="44.90084" lon="3.00716">
        <ele>757.40002441406</ele>
        <time>2024-01-30T15:52:01.000Z</time>
      </trkpt>
      <trkpt lat="44.90095" lon="3.00749">
        <ele>759</ele>
        <time>2024-01-30T15:52:03.000Z</time>
      </trkpt>
      <trkpt lat="44.901" lon="3.00765">
        <ele>759.59997558594</ele>
        <time>2024-01-30T15:52:04.000Z</time>
      </trkpt>
      <trkpt lat="44.90108" lon="3.00779">
        <ele>760.59997558594</ele>
        <time>2024-01-30T15:52:05.000Z</time>
      </trkpt>
      <trkpt lat="44.90117" lon="3.00788">
        <ele>761.59997558594</ele>
        <time>2024-01-30T15:52:06.000Z</time>
      </trkpt>
      <trkpt lat="44.90128" lon="3.00792">
        <ele>762</ele>
        <time>2024-01-30T15:52:07.000Z</time>
      </trkpt>
      <trkpt lat="44.9014" lon="3.00791">
        <ele>763</ele>
        <time>2024-01-30T15:52:08.000Z</time>
      </trkpt>
      <trkpt lat="44.90152" lon="3.00791">
        <ele>764.20001220703</ele>
        <time>2024-01-30T15:52:09.000Z</time>
      </trkpt>
      <trkpt lat="44.90164" lon="3.00792">
        <ele>765.20001220703</ele>
        <time>2024-01-30T15:52:10.000Z</time>
      </trkpt>
      <trkpt lat="44.90176" lon="3.00796">
        <ele>766.20001220703</ele>
        <time>2024-01-30T15:52:11.000Z</time>
      </trkpt>
      <trkpt lat="44.90186" lon="3.00804">
        <ele>766.79998779297</ele>
        <time>2024-01-30T15:52:12.000Z</time>
      </trkpt>
      <trkpt lat="44.90193" lon="3.00813">
        <ele>767.59997558594</ele>
        <time>2024-01-30T15:52:13.000Z</time>
      </trkpt>
      <trkpt lat="44.90202" lon="3.0083">
        <ele>768.40002441406</ele>
        <time>2024-01-30T15:52:14.000Z</time>
      </trkpt>
      <trkpt lat="44.90208" lon="3.00846">
        <ele>769.40002441406</ele>
        <time>2024-01-30T15:52:15.000Z</time>
      </trkpt>
      <trkpt lat="44.90214" lon="3.0086">
        <ele>770</ele>
        <time>2024-01-30T15:52:16.000Z</time>
      </trkpt>
      <trkpt lat="44.90222" lon="3.00872">
        <ele>770.59997558594</ele>
        <time>2024-01-30T15:52:17.000Z</time>
      </trkpt>
      <trkpt lat="44.9023" lon="3.00882">
        <ele>771.20001220703</ele>
        <time>2024-01-30T15:52:18.000Z</time>
      </trkpt>
      <trkpt lat="44.90238" lon="3.00891">
        <ele>771.59997558594</ele>
        <time>2024-01-30T15:52:19.000Z</time>
      </trkpt>
      <trkpt lat="44.90243" lon="3.00897">
        <ele>772</ele>
        <time>2024-01-30T15:52:20.000Z</time>
      </trkpt>
      <trkpt lat="44.9025" lon="3.00906">
        <ele>772.20001220703</ele>
        <time>2024-01-30T15:52:21.000Z</time>
      </trkpt>
      <trkpt lat="44.90254" lon="3.00911">
        <ele>772.40002441406</ele>
        <time>2024-01-30T15:52:22.000Z</time>
      </trkpt>
      <trkpt lat="44.9026" lon="3.00921">
        <ele>773.20001220703</ele>
        <time>2024-01-30T15:52:25.000Z</time>
      </trkpt>
      <trkpt lat="44.90265" lon="3.00928">
        <ele>773.79998779297</ele>
        <time>2024-01-30T15:52:30.000Z</time>
      </trkpt>
      <trkpt lat="44.90265" lon="3.00928">
        <ele>773.79998779297</ele>
        <time>2024-01-30T15:52:31.000Z</time>
      </trkpt>
      <trkpt lat="44.90266" lon="3.00929">
        <ele>774</ele>
        <time>2024-01-30T15:52:34.000Z</time>
      </trkpt>
      <trkpt lat="44.90266" lon="3.00929">
        <ele>774.40002441406</ele>
        <time>2024-01-30T15:52:40.000Z</time>
      </trkpt>
      <trkpt lat="44.90266" lon="3.00929">
        <ele>774.20001220703</ele>
        <time>2024-01-30T15:52:46.000Z</time>
      </trkpt>
      <trkpt lat="44.90266" lon="3.00929">
        <ele>773.40002441406</ele>
        <time>2024-01-30T15:53:06.000Z</time>
      </trkpt>
      <trkpt lat="44.90266" lon="3.00929">
        <ele>772.59997558594</ele>
        <time>2024-01-30T15:53:22.000Z</time>
      </trkpt>
      <trkpt lat="44.90266" lon="3.00929">
        <ele>772</ele>
        <time>2024-01-30T15:53:29.000Z</time>
      </trkpt>
      <trkpt lat="44.90266" lon="3.00929">
        <ele>771.20001220703</ele>
        <time>2024-01-30T15:53:39.000Z</time>
      </trkpt>
      <trkpt lat="44.90269" lon="3.00927">
        <ele>771</ele>
        <time>2024-01-30T15:53:51.000Z</time>
      </trkpt>
      <trkpt lat="44.90283" lon="3.00918">
        <ele>771.59997558594</ele>
        <time>2024-01-30T15:53:57.000Z</time>
      </trkpt>
      <trkpt lat="44.90297" lon="3.00903">
        <ele>772.40002441406</ele>
        <time>2024-01-30T15:54:02.000Z</time>
      </trkpt>
      <trkpt lat="44.90305" lon="3.00897">
        <ele>773</ele>
        <time>2024-01-30T15:54:04.000Z</time>
      </trkpt>
      <trkpt lat="44.90324" lon="3.00884">
        <ele>774.59997558594</ele>
        <time>2024-01-30T15:54:07.000Z</time>
      </trkpt>
      <trkpt lat="44.90345" lon="3.00862">
        <ele>776.20001220703</ele>
        <time>2024-01-30T15:54:10.000Z</time>
      </trkpt>
      <trkpt lat="44.90352" lon="3.00852">
        <ele>777.40002441406</ele>
        <time>2024-01-30T15:54:11.000Z</time>
      </trkpt>
      <trkpt lat="44.90359" lon="3.00841">
        <ele>778.40002441406</ele>
        <time>2024-01-30T15:54:12.000Z</time>
      </trkpt>
      <trkpt lat="44.90375" lon="3.00819">
        <ele>780</ele>
        <time>2024-01-30T15:54:14.000Z</time>
      </trkpt>
      <trkpt lat="44.90383" lon="3.0081">
        <ele>781.20001220703</ele>
        <time>2024-01-30T15:54:15.000Z</time>
      </trkpt>
      <trkpt lat="44.90393" lon="3.00804">
        <ele>782.20001220703</ele>
        <time>2024-01-30T15:54:16.000Z</time>
      </trkpt>
      <trkpt lat="44.90404" lon="3.008">
        <ele>783</ele>
        <time>2024-01-30T15:54:17.000Z</time>
      </trkpt>
      <trkpt lat="44.90416" lon="3.00801">
        <ele>783.59997558594</ele>
        <time>2024-01-30T15:54:18.000Z</time>
      </trkpt>
      <trkpt lat="44.90428" lon="3.00806">
        <ele>784.59997558594</ele>
        <time>2024-01-30T15:54:19.000Z</time>
      </trkpt>
      <trkpt lat="44.90453" lon="3.00817">
        <ele>786.59997558594</ele>
        <time>2024-01-30T15:54:21.000Z</time>
      </trkpt>
      <trkpt lat="44.90478" lon="3.00824">
        <ele>788.40002441406</ele>
        <time>2024-01-30T15:54:23.000Z</time>
      </trkpt>
      <trkpt lat="44.90491" lon="3.00825">
        <ele>789.59997558594</ele>
        <time>2024-01-30T15:54:24.000Z</time>
      </trkpt>
      <trkpt lat="44.90504" lon="3.00824">
        <ele>790.20001220703</ele>
        <time>2024-01-30T15:54:25.000Z</time>
      </trkpt>
      <trkpt lat="44.90517" lon="3.00819">
        <ele>791.40002441406</ele>
        <time>2024-01-30T15:54:26.000Z</time>
      </trkpt>
      <trkpt lat="44.9053" lon="3.00812">
        <ele>792.59997558594</ele>
        <time>2024-01-30T15:54:27.000Z</time>
      </trkpt>
      <trkpt lat="44.90543" lon="3.00804">
        <ele>793.79998779297</ele>
        <time>2024-01-30T15:54:28.000Z</time>
      </trkpt>
      <trkpt lat="44.90556" lon="3.00798">
        <ele>794.79998779297</ele>
        <time>2024-01-30T15:54:29.000Z</time>
      </trkpt>
      <trkpt lat="44.90571" lon="3.00794">
        <ele>796.20001220703</ele>
        <time>2024-01-30T15:54:30.000Z</time>
      </trkpt>
      <trkpt lat="44.90586" lon="3.00793">
        <ele>797.40002441406</ele>
        <time>2024-01-30T15:54:31.000Z</time>
      </trkpt>
      <trkpt lat="44.906" lon="3.00795">
        <ele>798.59997558594</ele>
        <time>2024-01-30T15:54:32.000Z</time>
      </trkpt>
      <trkpt lat="44.90615" lon="3.00799">
        <ele>799.79998779297</ele>
        <time>2024-01-30T15:54:33.000Z</time>
      </trkpt>
      <trkpt lat="44.90632" lon="3.00803">
        <ele>801.20001220703</ele>
        <time>2024-01-30T15:54:34.000Z</time>
      </trkpt>
      <trkpt lat="44.90665" lon="3.00806">
        <ele>803.20001220703</ele>
        <time>2024-01-30T15:54:36.000Z</time>
      </trkpt>
      <trkpt lat="44.90683" lon="3.00804">
        <ele>804.40002441406</ele>
        <time>2024-01-30T15:54:37.000Z</time>
      </trkpt>
      <trkpt lat="44.907" lon="3.008">
        <ele>806</ele>
        <time>2024-01-30T15:54:38.000Z</time>
      </trkpt>
      <trkpt lat="44.90718" lon="3.00795">
        <ele>807.40002441406</ele>
        <time>2024-01-30T15:54:39.000Z</time>
      </trkpt>
      <trkpt lat="44.90736" lon="3.00789">
        <ele>808.59997558594</ele>
        <time>2024-01-30T15:54:40.000Z</time>
      </trkpt>
      <trkpt lat="44.90754" lon="3.00782">
        <ele>809.79998779297</ele>
        <time>2024-01-30T15:54:41.000Z</time>
      </trkpt>
      <trkpt lat="44.90772" lon="3.00775">
        <ele>811</ele>
        <time>2024-01-30T15:54:42.000Z</time>
      </trkpt>
      <trkpt lat="44.90804" lon="3.00756">
        <ele>813</ele>
        <time>2024-01-30T15:54:44.000Z</time>
      </trkpt>
      <trkpt lat="44.90819" lon="3.00744">
        <ele>814</ele>
        <time>2024-01-30T15:54:45.000Z</time>
      </trkpt>
      <trkpt lat="44.90834" lon="3.0073">
        <ele>815.20001220703</ele>
        <time>2024-01-30T15:54:46.000Z</time>
      </trkpt>
      <trkpt lat="44.90847" lon="3.00716">
        <ele>816.79998779297</ele>
        <time>2024-01-30T15:54:47.000Z</time>
      </trkpt>
      <trkpt lat="44.90861" lon="3.00704">
        <ele>818</ele>
        <time>2024-01-30T15:54:48.000Z</time>
      </trkpt>
      <trkpt lat="44.90877" lon="3.00694">
        <ele>819</ele>
        <time>2024-01-30T15:54:49.000Z</time>
      </trkpt>
      <trkpt lat="44.90892" lon="3.00687">
        <ele>820</ele>
        <time>2024-01-30T15:54:50.000Z</time>
      </trkpt>
      <trkpt lat="44.90909" lon="3.00681">
        <ele>821.59997558594</ele>
        <time>2024-01-30T15:54:51.000Z</time>
      </trkpt>
      <trkpt lat="44.90926" lon="3.00674">
        <ele>823.20001220703</ele>
        <time>2024-01-30T15:54:52.000Z</time>
      </trkpt>
      <trkpt lat="44.90943" lon="3.00665">
        <ele>824.40002441406</ele>
        <time>2024-01-30T15:54:53.000Z</time>
      </trkpt>
      <trkpt lat="44.90958" lon="3.00653">
        <ele>825.40002441406</ele>
        <time>2024-01-30T15:54:54.000Z</time>
      </trkpt>
      <trkpt lat="44.90972" lon="3.00639">
        <ele>826.79998779297</ele>
        <time>2024-01-30T15:54:55.000Z</time>
      </trkpt>
      <trkpt lat="44.90985" lon="3.00626">
        <ele>827.79998779297</ele>
        <time>2024-01-30T15:54:56.000Z</time>
      </trkpt>
      <trkpt lat="44.91003" lon="3.00613">
        <ele>828.79998779297</ele>
        <time>2024-01-30T15:54:57.000Z</time>
      </trkpt>
      <trkpt lat="44.91016" lon="3.00607">
        <ele>830</ele>
        <time>2024-01-30T15:54:58.000Z</time>
      </trkpt>
      <trkpt lat="44.91033" lon="3.00601">
        <ele>830.59997558594</ele>
        <time>2024-01-30T15:54:59.000Z</time>
      </trkpt>
      <trkpt lat="44.91051" lon="3.00599">
        <ele>831.59997558594</ele>
        <time>2024-01-30T15:55:00.000Z</time>
      </trkpt>
      <trkpt lat="44.91068" lon="3.00601">
        <ele>832.40002441406</ele>
        <time>2024-01-30T15:55:01.000Z</time>
      </trkpt>
      <trkpt lat="44.91087" lon="3.00605">
        <ele>833.59997558594</ele>
        <time>2024-01-30T15:55:02.000Z</time>
      </trkpt>
      <trkpt lat="44.91104" lon="3.00611">
        <ele>835</ele>
        <time>2024-01-30T15:55:03.000Z</time>
      </trkpt>
      <trkpt lat="44.91123" lon="3.00616">
        <ele>836.59997558594</ele>
        <time>2024-01-30T15:55:04.000Z</time>
      </trkpt>
      <trkpt lat="44.9114" lon="3.00618">
        <ele>837.79998779297</ele>
        <time>2024-01-30T15:55:05.000Z</time>
      </trkpt>
      <trkpt lat="44.91157" lon="3.00618">
        <ele>839.20001220703</ele>
        <time>2024-01-30T15:55:06.000Z</time>
      </trkpt>
      <trkpt lat="44.91174" lon="3.00616">
        <ele>840.59997558594</ele>
        <time>2024-01-30T15:55:07.000Z</time>
      </trkpt>
      <trkpt lat="44.91192" lon="3.00612">
        <ele>841.79998779297</ele>
        <time>2024-01-30T15:55:08.000Z</time>
      </trkpt>
      <trkpt lat="44.91228" lon="3.00602">
        <ele>844</ele>
        <time>2024-01-30T15:55:10.000Z</time>
      </trkpt>
      <trkpt lat="44.91247" lon="3.00596">
        <ele>845.40002441406</ele>
        <time>2024-01-30T15:55:11.000Z</time>
      </trkpt>
      <trkpt lat="44.91285" lon="3.00589">
        <ele>847.59997558594</ele>
        <time>2024-01-30T15:55:13.000Z</time>
      </trkpt>
      <trkpt lat="44.91305" lon="3.00587">
        <ele>848.40002441406</ele>
        <time>2024-01-30T15:55:14.000Z</time>
      </trkpt>
      <trkpt lat="44.91324" lon="3.00588">
        <ele>849.20001220703</ele>
        <time>2024-01-30T15:55:15.000Z</time>
      </trkpt>
      <trkpt lat="44.91364" lon="3.00595">
        <ele>850.40002441406</ele>
        <time>2024-01-30T15:55:17.000Z</time>
      </trkpt>
      <trkpt lat="44.91402" lon="3.00609">
        <ele>851.20001220703</ele>
        <time>2024-01-30T15:55:19.000Z</time>
      </trkpt>
      <trkpt lat="44.91421" lon="3.00619">
        <ele>852.20001220703</ele>
        <time>2024-01-30T15:55:20.000Z</time>
      </trkpt>
      <trkpt lat="44.91457" lon="3.00645">
        <ele>853.59997558594</ele>
        <time>2024-01-30T15:55:22.000Z</time>
      </trkpt>
      <trkpt lat="44.91474" lon="3.0066">
        <ele>854</ele>
        <time>2024-01-30T15:55:23.000Z</time>
      </trkpt>
      <trkpt lat="44.91507" lon="3.00689">
        <ele>855.20001220703</ele>
        <time>2024-01-30T15:55:25.000Z</time>
      </trkpt>
      <trkpt lat="44.91555" lon="3.00729">
        <ele>856.59997558594</ele>
        <time>2024-01-30T15:55:28.000Z</time>
      </trkpt>
      <trkpt lat="44.91572" lon="3.0074">
        <ele>857.20001220703</ele>
        <time>2024-01-30T15:55:29.000Z</time>
      </trkpt>
      <trkpt lat="44.9159" lon="3.0075">
        <ele>858</ele>
        <time>2024-01-30T15:55:30.000Z</time>
      </trkpt>
      <trkpt lat="44.91609" lon="3.00758">
        <ele>859</ele>
        <time>2024-01-30T15:55:31.000Z</time>
      </trkpt>
      <trkpt lat="44.91628" lon="3.00763">
        <ele>859.79998779297</ele>
        <time>2024-01-30T15:55:32.000Z</time>
      </trkpt>
      <trkpt lat="44.91647" lon="3.00766">
        <ele>860.59997558594</ele>
        <time>2024-01-30T15:55:33.000Z</time>
      </trkpt>
      <trkpt lat="44.91666" lon="3.00767">
        <ele>861.40002441406</ele>
        <time>2024-01-30T15:55:34.000Z</time>
      </trkpt>
      <trkpt lat="44.91685" lon="3.00766">
        <ele>862</ele>
        <time>2024-01-30T15:55:35.000Z</time>
      </trkpt>
      <trkpt lat="44.91705" lon="3.00761">
        <ele>862.59997558594</ele>
        <time>2024-01-30T15:55:36.000Z</time>
      </trkpt>
      <trkpt lat="44.91724" lon="3.00754">
        <ele>863.20001220703</ele>
        <time>2024-01-30T15:55:37.000Z</time>
      </trkpt>
      <trkpt lat="44.91742" lon="3.00744">
        <ele>864.20001220703</ele>
        <time>2024-01-30T15:55:38.000Z</time>
      </trkpt>
      <trkpt lat="44.91761" lon="3.00733">
        <ele>865.20001220703</ele>
        <time>2024-01-30T15:55:39.000Z</time>
      </trkpt>
      <trkpt lat="44.91797" lon="3.00706">
        <ele>867</ele>
        <time>2024-01-30T15:55:41.000Z</time>
      </trkpt>
      <trkpt lat="44.91834" lon="3.00675">
        <ele>868.79998779297</ele>
        <time>2024-01-30T15:55:43.000Z</time>
      </trkpt>
      <trkpt lat="44.91871" lon="3.00642">
        <ele>870.40002441406</ele>
        <time>2024-01-30T15:55:45.000Z</time>
      </trkpt>
      <trkpt lat="44.9189" lon="3.00625">
        <ele>871.20001220703</ele>
        <time>2024-01-30T15:55:46.000Z</time>
      </trkpt>
      <trkpt lat="44.91909" lon="3.00608">
        <ele>872.20001220703</ele>
        <time>2024-01-30T15:55:47.000Z</time>
      </trkpt>
      <trkpt lat="44.91948" lon="3.00575">
        <ele>874.59997558594</ele>
        <time>2024-01-30T15:55:49.000Z</time>
      </trkpt>
      <trkpt lat="44.91967" lon="3.00559">
        <ele>876.20001220703</ele>
        <time>2024-01-30T15:55:50.000Z</time>
      </trkpt>
      <trkpt lat="44.91987" lon="3.00543">
        <ele>877.20001220703</ele>
        <time>2024-01-30T15:55:51.000Z</time>
      </trkpt>
      <trkpt lat="44.92007" lon="3.0053">
        <ele>878.59997558594</ele>
        <time>2024-01-30T15:55:52.000Z</time>
      </trkpt>
      <trkpt lat="44.92048" lon="3.00507">
        <ele>881.20001220703</ele>
        <time>2024-01-30T15:55:54.000Z</time>
      </trkpt>
      <trkpt lat="44.92069" lon="3.00496">
        <ele>882.40002441406</ele>
        <time>2024-01-30T15:55:55.000Z</time>
      </trkpt>
      <trkpt lat="44.9209" lon="3.00486">
        <ele>883.79998779297</ele>
        <time>2024-01-30T15:55:56.000Z</time>
      </trkpt>
      <trkpt lat="44.92134" lon="3.00467">
        <ele>886</ele>
        <time>2024-01-30T15:55:58.000Z</time>
      </trkpt>
      <trkpt lat="44.92155" lon="3.00457">
        <ele>887.20001220703</ele>
        <time>2024-01-30T15:55:59.000Z</time>
      </trkpt>
      <trkpt lat="44.92198" lon="3.00437">
        <ele>889.40002441406</ele>
        <time>2024-01-30T15:56:01.000Z</time>
      </trkpt>
      <trkpt lat="44.9224" lon="3.00415">
        <ele>891.59997558594</ele>
        <time>2024-01-30T15:56:03.000Z</time>
      </trkpt>
      <trkpt lat="44.92261" lon="3.00402">
        <ele>892.59997558594</ele>
        <time>2024-01-30T15:56:04.000Z</time>
      </trkpt>
      <trkpt lat="44.92281" lon="3.00388">
        <ele>893.79998779297</ele>
        <time>2024-01-30T15:56:05.000Z</time>
      </trkpt>
      <trkpt lat="44.92301" lon="3.00373">
        <ele>895</ele>
        <time>2024-01-30T15:56:06.000Z</time>
      </trkpt>
      <trkpt lat="44.9232" lon="3.00358">
        <ele>896.59997558594</ele>
        <time>2024-01-30T15:56:07.000Z</time>
      </trkpt>
      <trkpt lat="44.9236" lon="3.00329">
        <ele>899</ele>
        <time>2024-01-30T15:56:09.000Z</time>
      </trkpt>
      <trkpt lat="44.92379" lon="3.00314">
        <ele>900.20001220703</ele>
        <time>2024-01-30T15:56:10.000Z</time>
      </trkpt>
      <trkpt lat="44.92399" lon="3.00299">
        <ele>901.59997558594</ele>
        <time>2024-01-30T15:56:11.000Z</time>
      </trkpt>
      <trkpt lat="44.92418" lon="3.00284">
        <ele>903</ele>
        <time>2024-01-30T15:56:12.000Z</time>
      </trkpt>
      <trkpt lat="44.92438" lon="3.00269">
        <ele>904</ele>
        <time>2024-01-30T15:56:13.000Z</time>
      </trkpt>
      <trkpt lat="44.92456" lon="3.00254">
        <ele>905.20001220703</ele>
        <time>2024-01-30T15:56:14.000Z</time>
      </trkpt>
      <trkpt lat="44.92475" lon="3.0024">
        <ele>906.79998779297</ele>
        <time>2024-01-30T15:56:15.000Z</time>
      </trkpt>
      <trkpt lat="44.92493" lon="3.00225">
        <ele>907.79998779297</ele>
        <time>2024-01-30T15:56:16.000Z</time>
      </trkpt>
      <trkpt lat="44.9251" lon="3.0021">
        <ele>908.79998779297</ele>
        <time>2024-01-30T15:56:17.000Z</time>
      </trkpt>
      <trkpt lat="44.92526" lon="3.00194">
        <ele>910</ele>
        <time>2024-01-30T15:56:18.000Z</time>
      </trkpt>
      <trkpt lat="44.92554" lon="3.00162">
        <ele>911.59997558594</ele>
        <time>2024-01-30T15:56:20.000Z</time>
      </trkpt>
      <trkpt lat="44.92568" lon="3.00146">
        <ele>912.79998779297</ele>
        <time>2024-01-30T15:56:21.000Z</time>
      </trkpt>
      <trkpt lat="44.92594" lon="3.00114">
        <ele>914.59997558594</ele>
        <time>2024-01-30T15:56:23.000Z</time>
      </trkpt>
      <trkpt lat="44.92606" lon="3.00097">
        <ele>915.79998779297</ele>
        <time>2024-01-30T15:56:24.000Z</time>
      </trkpt>
      <trkpt lat="44.9262" lon="3.0008">
        <ele>917.20001220703</ele>
        <time>2024-01-30T15:56:25.000Z</time>
      </trkpt>
      <trkpt lat="44.92633" lon="3.00064">
        <ele>918.20001220703</ele>
        <time>2024-01-30T15:56:26.000Z</time>
      </trkpt>
      <trkpt lat="44.92661" lon="3.0003">
        <ele>920.40002441406</ele>
        <time>2024-01-30T15:56:28.000Z</time>
      </trkpt>
      <trkpt lat="44.92675" lon="3.00013">
        <ele>921.59997558594</ele>
        <time>2024-01-30T15:56:29.000Z</time>
      </trkpt>
      <trkpt lat="44.92689" lon="2.99996">
        <ele>922.59997558594</ele>
        <time>2024-01-30T15:56:30.000Z</time>
      </trkpt>
      <trkpt lat="44.92702" lon="2.9998">
        <ele>924</ele>
        <time>2024-01-30T15:56:31.000Z</time>
      </trkpt>
      <trkpt lat="44.92729" lon="2.99947">
        <ele>926.20001220703</ele>
        <time>2024-01-30T15:56:33.000Z</time>
      </trkpt>
      <trkpt lat="44.92743" lon="2.99931">
        <ele>927.59997558594</ele>
        <time>2024-01-30T15:56:34.000Z</time>
      </trkpt>
      <trkpt lat="44.92756" lon="2.99914">
        <ele>928.59997558594</ele>
        <time>2024-01-30T15:56:35.000Z</time>
      </trkpt>
      <trkpt lat="44.9277" lon="2.99899">
        <ele>930</ele>
        <time>2024-01-30T15:56:36.000Z</time>
      </trkpt>
      <trkpt lat="44.92794" lon="2.99869">
        <ele>931.79998779297</ele>
        <time>2024-01-30T15:56:38.000Z</time>
      </trkpt>
      <trkpt lat="44.92816" lon="2.99843">
        <ele>933.20001220703</ele>
        <time>2024-01-30T15:56:40.000Z</time>
      </trkpt>
      <trkpt lat="44.92836" lon="2.99822">
        <ele>934.40002441406</ele>
        <time>2024-01-30T15:56:42.000Z</time>
      </trkpt>
      <trkpt lat="44.92851" lon="2.99808">
        <ele>935.79998779297</ele>
        <time>2024-01-30T15:56:44.000Z</time>
      </trkpt>
      <trkpt lat="44.92855" lon="2.99802">
        <ele>935.79998779297</ele>
        <time>2024-01-30T15:56:45.000Z</time>
      </trkpt>
      <trkpt lat="44.92858" lon="2.99796">
        <ele>936.20001220703</ele>
        <time>2024-01-30T15:56:46.000Z</time>
      </trkpt>
      <trkpt lat="44.92857" lon="2.9979">
        <ele>936.59997558594</ele>
        <time>2024-01-30T15:56:47.000Z</time>
      </trkpt>
      <trkpt lat="44.92855" lon="2.99786">
        <ele>937.40002441406</ele>
        <time>2024-01-30T15:56:48.000Z</time>
      </trkpt>
      <trkpt lat="44.92846" lon="2.99777">
        <ele>937.59997558594</ele>
        <time>2024-01-30T15:56:50.000Z</time>
      </trkpt>
      <trkpt lat="44.92825" lon="2.99749">
        <ele>937.79998779297</ele>
        <time>2024-01-30T15:56:54.000Z</time>
      </trkpt>
      <trkpt lat="44.92814" lon="2.9973">
        <ele>937.59997558594</ele>
        <time>2024-01-30T15:56:56.000Z</time>
      </trkpt>
      <trkpt lat="44.92808" lon="2.99711">
        <ele>937.40002441406</ele>
        <time>2024-01-30T15:56:58.000Z</time>
      </trkpt>
      <trkpt lat="44.92809" lon="2.99691">
        <ele>937.40002441406</ele>
        <time>2024-01-30T15:57:00.000Z</time>
      </trkpt>
      <trkpt lat="44.9281" lon="2.9968">
        <ele>937.59997558594</ele>
        <time>2024-01-30T15:57:01.000Z</time>
      </trkpt>
      <trkpt lat="44.92814" lon="2.99657">
        <ele>938.40002441406</ele>
        <time>2024-01-30T15:57:03.000Z</time>
      </trkpt>
      <trkpt lat="44.92821" lon="2.99634">
        <ele>939.59997558594</ele>
        <time>2024-01-30T15:57:05.000Z</time>
      </trkpt>
      <trkpt lat="44.9283" lon="2.99613">
        <ele>940.59997558594</ele>
        <time>2024-01-30T15:57:07.000Z</time>
      </trkpt>
      <trkpt lat="44.92835" lon="2.99603">
        <ele>941</ele>
        <time>2024-01-30T15:57:08.000Z</time>
      </trkpt>
      <trkpt lat="44.92842" lon="2.99593">
        <ele>941.40002441406</ele>
        <time>2024-01-30T15:57:09.000Z</time>
      </trkpt>
      <trkpt lat="44.92859" lon="2.99575">
        <ele>942</ele>
        <time>2024-01-30T15:57:11.000Z</time>
      </trkpt>
      <trkpt lat="44.92869" lon="2.99566">
        <ele>942.20001220703</ele>
        <time>2024-01-30T15:57:12.000Z</time>
      </trkpt>
      <trkpt lat="44.92917" lon="2.99532">
        <ele>942</ele>
        <time>2024-01-30T15:57:16.000Z</time>
      </trkpt>
      <trkpt lat="44.92954" lon="2.99507">
        <ele>941</ele>
        <time>2024-01-30T15:57:19.000Z</time>
      </trkpt>
      <trkpt lat="44.92965" lon="2.99496">
        <ele>940.79998779297</ele>
        <time>2024-01-30T15:57:20.000Z</time>
      </trkpt>
      <trkpt lat="44.92982" lon="2.99471">
        <ele>939.79998779297</ele>
        <time>2024-01-30T15:57:22.000Z</time>
      </trkpt>
      <trkpt lat="44.92989" lon="2.99457">
        <ele>939.40002441406</ele>
        <time>2024-01-30T15:57:23.000Z</time>
      </trkpt>
      <trkpt lat="44.92993" lon="2.99443">
        <ele>939</ele>
        <time>2024-01-30T15:57:24.000Z</time>
      </trkpt>
      <trkpt lat="44.92995" lon="2.9943">
        <ele>938.79998779297</ele>
        <time>2024-01-30T15:57:25.000Z</time>
      </trkpt>
      <trkpt lat="44.92997" lon="2.99411">
        <ele>938.59997558594</ele>
        <time>2024-01-30T15:57:26.000Z</time>
      </trkpt>
      <trkpt lat="44.9299" lon="2.99362">
        <ele>938</ele>
        <time>2024-01-30T15:57:29.000Z</time>
      </trkpt>
      <trkpt lat="44.92987" lon="2.99346">
        <ele>937.79998779297</ele>
        <time>2024-01-30T15:57:30.000Z</time>
      </trkpt>
      <trkpt lat="44.92972" lon="2.99264">
        <ele>937</ele>
        <time>2024-01-30T15:57:35.000Z</time>
      </trkpt>
      <trkpt lat="44.92971" lon="2.99246">
        <ele>937</ele>
        <time>2024-01-30T15:57:36.000Z</time>
      </trkpt>
      <trkpt lat="44.92971" lon="2.99227">
        <ele>936.59997558594</ele>
        <time>2024-01-30T15:57:37.000Z</time>
      </trkpt>
      <trkpt lat="44.92973" lon="2.99209">
        <ele>936.40002441406</ele>
        <time>2024-01-30T15:57:38.000Z</time>
      </trkpt>
      <trkpt lat="44.92982" lon="2.99174">
        <ele>936</ele>
        <time>2024-01-30T15:57:40.000Z</time>
      </trkpt>
      <trkpt lat="44.92988" lon="2.99157">
        <ele>935.79998779297</ele>
        <time>2024-01-30T15:57:41.000Z</time>
      </trkpt>
      <trkpt lat="44.93002" lon="2.99124">
        <ele>935.40002441406</ele>
        <time>2024-01-30T15:57:43.000Z</time>
      </trkpt>
      <trkpt lat="44.93026" lon="2.99079">
        <ele>934.40002441406</ele>
        <time>2024-01-30T15:57:46.000Z</time>
      </trkpt>
      <trkpt lat="44.93046" lon="2.99056">
        <ele>933.59997558594</ele>
        <time>2024-01-30T15:57:48.000Z</time>
      </trkpt>
      <trkpt lat="44.93057" lon="2.99047">
        <ele>933.40002441406</ele>
        <time>2024-01-30T15:57:49.000Z</time>
      </trkpt>
      <trkpt lat="44.93068" lon="2.99039">
        <ele>933.20001220703</ele>
        <time>2024-01-30T15:57:50.000Z</time>
      </trkpt>
      <trkpt lat="44.93101" lon="2.99017">
        <ele>932.20001220703</ele>
        <time>2024-01-30T15:57:53.000Z</time>
      </trkpt>
      <trkpt lat="44.93122" lon="2.99002">
        <ele>931.79998779297</ele>
        <time>2024-01-30T15:57:55.000Z</time>
      </trkpt>
      <trkpt lat="44.93141" lon="2.98986">
        <ele>931.40002441406</ele>
        <time>2024-01-30T15:57:57.000Z</time>
      </trkpt>
      <trkpt lat="44.93157" lon="2.98964">
        <ele>930.59997558594</ele>
        <time>2024-01-30T15:57:59.000Z</time>
      </trkpt>
      <trkpt lat="44.93164" lon="2.98936">
        <ele>930.40002441406</ele>
        <time>2024-01-30T15:58:01.000Z</time>
      </trkpt>
      <trkpt lat="44.93161" lon="2.98906">
        <ele>929.79998779297</ele>
        <time>2024-01-30T15:58:03.000Z</time>
      </trkpt>
      <trkpt lat="44.93157" lon="2.98893">
        <ele>929.79998779297</ele>
        <time>2024-01-30T15:58:04.000Z</time>
      </trkpt>
      <trkpt lat="44.93153" lon="2.98882">
        <ele>929.59997558594</ele>
        <time>2024-01-30T15:58:05.000Z</time>
      </trkpt>
      <trkpt lat="44.93148" lon="2.98874">
        <ele>929.20001220703</ele>
        <time>2024-01-30T15:58:06.000Z</time>
      </trkpt>
      <trkpt lat="44.9314" lon="2.98865">
        <ele>928.79998779297</ele>
        <time>2024-01-30T15:58:07.000Z</time>
      </trkpt>
      <trkpt lat="44.93107" lon="2.98835">
        <ele>928.59997558594</ele>
        <time>2024-01-30T15:58:11.000Z</time>
      </trkpt>
      <trkpt lat="44.93093" lon="2.98817">
        <ele>928</ele>
        <time>2024-01-30T15:58:13.000Z</time>
      </trkpt>
      <trkpt lat="44.93083" lon="2.98798">
        <ele>927.59997558594</ele>
        <time>2024-01-30T15:58:15.000Z</time>
      </trkpt>
      <trkpt lat="44.93078" lon="2.98785">
        <ele>927.40002441406</ele>
        <time>2024-01-30T15:58:16.000Z</time>
      </trkpt>
      <trkpt lat="44.93073" lon="2.98764">
        <ele>927.20001220703</ele>
        <time>2024-01-30T15:58:18.000Z</time>
      </trkpt>
      <trkpt lat="44.9307" lon="2.98737">
        <ele>927</ele>
        <time>2024-01-30T15:58:20.000Z</time>
      </trkpt>
      <trkpt lat="44.9307" lon="2.98722">
        <ele>927</ele>
        <time>2024-01-30T15:58:21.000Z</time>
      </trkpt>
      <trkpt lat="44.9307" lon="2.98707">
        <ele>926.79998779297</ele>
        <time>2024-01-30T15:58:22.000Z</time>
      </trkpt>
      <trkpt lat="44.93073" lon="2.98677">
        <ele>926.40002441406</ele>
        <time>2024-01-30T15:58:24.000Z</time>
      </trkpt>
      <trkpt lat="44.93079" lon="2.9865">
        <ele>925.79998779297</ele>
        <time>2024-01-30T15:58:26.000Z</time>
      </trkpt>
      <trkpt lat="44.93098" lon="2.98571">
        <ele>925.20001220703</ele>
        <time>2024-01-30T15:58:32.000Z</time>
      </trkpt>
      <trkpt lat="44.93102" lon="2.98555">
        <ele>924.79998779297</ele>
        <time>2024-01-30T15:58:33.000Z</time>
      </trkpt>
      <trkpt lat="44.93108" lon="2.98519">
        <ele>924.59997558594</ele>
        <time>2024-01-30T15:58:36.000Z</time>
      </trkpt>
      <trkpt lat="44.93108" lon="2.98495">
        <ele>924.20001220703</ele>
        <time>2024-01-30T15:58:38.000Z</time>
      </trkpt>
      <trkpt lat="44.93103" lon="2.98471">
        <ele>924.20001220703</ele>
        <time>2024-01-30T15:58:40.000Z</time>
      </trkpt>
      <trkpt lat="44.93098" lon="2.98459">
        <ele>924.20001220703</ele>
        <time>2024-01-30T15:58:41.000Z</time>
      </trkpt>
      <trkpt lat="44.93092" lon="2.98448">
        <ele>924.40002441406</ele>
        <time>2024-01-30T15:58:42.000Z</time>
      </trkpt>
      <trkpt lat="44.93077" lon="2.98432">
        <ele>924.59997558594</ele>
        <time>2024-01-30T15:58:44.000Z</time>
      </trkpt>
      <trkpt lat="44.9306" lon="2.98423">
        <ele>924.79998779297</ele>
        <time>2024-01-30T15:58:46.000Z</time>
      </trkpt>
      <trkpt lat="44.9305" lon="2.9842">
        <ele>924.79998779297</ele>
        <time>2024-01-30T15:58:47.000Z</time>
      </trkpt>
      <trkpt lat="44.93031" lon="2.98417">
        <ele>925.20001220703</ele>
        <time>2024-01-30T15:58:49.000Z</time>
      </trkpt>
      <trkpt lat="44.93013" lon="2.98418">
        <ele>925.59997558594</ele>
        <time>2024-01-30T15:58:51.000Z</time>
      </trkpt>
      <trkpt lat="44.93005" lon="2.98419">
        <ele>925.79998779297</ele>
        <time>2024-01-30T15:58:52.000Z</time>
      </trkpt>
      <trkpt lat="44.92997" lon="2.98421">
        <ele>926</ele>
        <time>2024-01-30T15:58:53.000Z</time>
      </trkpt>
      <trkpt lat="44.92983" lon="2.98428">
        <ele>926.20001220703</ele>
        <time>2024-01-30T15:58:55.000Z</time>
      </trkpt>
      <trkpt lat="44.92959" lon="2.98439">
        <ele>927.40002441406</ele>
        <time>2024-01-30T15:58:58.000Z</time>
      </trkpt>
      <trkpt lat="44.92942" lon="2.9845">
        <ele>927.79998779297</ele>
        <time>2024-01-30T15:59:00.000Z</time>
      </trkpt>
      <trkpt lat="44.92926" lon="2.98461">
        <ele>928.40002441406</ele>
        <time>2024-01-30T15:59:02.000Z</time>
      </trkpt>
      <trkpt lat="44.929" lon="2.9848">
        <ele>929.40002441406</ele>
        <time>2024-01-30T15:59:06.000Z</time>
      </trkpt>
      <trkpt lat="44.92894" lon="2.98484">
        <ele>929.59997558594</ele>
        <time>2024-01-30T15:59:07.000Z</time>
      </trkpt>
      <trkpt lat="44.92871" lon="2.98501">
        <ele>930.20001220703</ele>
        <time>2024-01-30T15:59:12.000Z</time>
      </trkpt>
      <trkpt lat="44.92862" lon="2.98505">
        <ele>930.79998779297</ele>
        <time>2024-01-30T15:59:14.000Z</time>
      </trkpt>
      <trkpt lat="44.92857" lon="2.98507">
        <ele>930.79998779297</ele>
        <time>2024-01-30T15:59:15.000Z</time>
      </trkpt>
      <trkpt lat="44.92849" lon="2.98507">
        <ele>930.79998779297</ele>
        <time>2024-01-30T15:59:17.000Z</time>
      </trkpt>
      <trkpt lat="44.9284" lon="2.98503">
        <ele>931.20001220703</ele>
        <time>2024-01-30T15:59:21.000Z</time>
      </trkpt>
      <trkpt lat="44.92839" lon="2.98502">
        <ele>931.40002441406</ele>
        <time>2024-01-30T15:59:25.000Z</time>
      </trkpt>
      <trkpt lat="44.92839" lon="2.98502">
        <ele>931.59997558594</ele>
        <time>2024-01-30T15:59:35.000Z</time>
      </trkpt>
      <trkpt lat="44.92839" lon="2.98502">
        <ele>931.79998779297</ele>
        <time>2024-01-30T15:59:42.000Z</time>
      </trkpt>
      <trkpt lat="44.92839" lon="2.98502">
        <ele>931.79998779297</ele>
        <time>2024-01-30T15:59:47.000Z</time>
      </trkpt>
      <trkpt lat="44.92839" lon="2.98502">
        <ele>932</ele>
        <time>2024-01-30T16:00:04.000Z</time>
      </trkpt>
      <trkpt lat="44.92839" lon="2.98502">
        <ele>932</ele>
        <time>2024-01-30T16:00:15.000Z</time>
      </trkpt>
      <trkpt lat="44.92839" lon="2.98502">
        <ele>932.20001220703</ele>
        <time>2024-01-30T16:00:31.000Z</time>
      </trkpt>
      <trkpt lat="44.92839" lon="2.98501">
        <ele>932.40002441406</ele>
        <time>2024-01-30T16:00:46.000Z</time>
      </trkpt>
      <trkpt lat="44.92839" lon="2.98501">
        <ele>932.40002441406</ele>
        <time>2024-01-30T16:00:54.000Z</time>
      </trkpt>
      <trkpt lat="44.92836" lon="2.98503">
        <ele>932.59997558594</ele>
        <time>2024-01-30T16:00:58.000Z</time>
      </trkpt>
      <trkpt lat="44.92834" lon="2.98503">
        <ele>932.59997558594</ele>
        <time>2024-01-30T16:00:59.000Z</time>
      </trkpt>
      <trkpt lat="44.92826" lon="2.98501">
        <ele>932.79998779297</ele>
        <time>2024-01-30T16:01:02.000Z</time>
      </trkpt>
      <trkpt lat="44.92823" lon="2.98499">
        <ele>933</ele>
        <time>2024-01-30T16:01:03.000Z</time>
      </trkpt>
      <trkpt lat="44.92816" lon="2.98492">
        <ele>933.20001220703</ele>
        <time>2024-01-30T16:01:05.000Z</time>
      </trkpt>
      <trkpt lat="44.92807" lon="2.9848">
        <ele>933.79998779297</ele>
        <time>2024-01-30T16:01:07.000Z</time>
      </trkpt>
      <trkpt lat="44.92798" lon="2.98464">
        <ele>934.20001220703</ele>
        <time>2024-01-30T16:01:09.000Z</time>
      </trkpt>
      <trkpt lat="44.92793" lon="2.98445">
        <ele>934.59997558594</ele>
        <time>2024-01-30T16:01:11.000Z</time>
      </trkpt>
      <trkpt lat="44.92792" lon="2.98437">
        <ele>934.79998779297</ele>
        <time>2024-01-30T16:01:12.000Z</time>
      </trkpt>
      <trkpt lat="44.92793" lon="2.98404">
        <ele>935</ele>
        <time>2024-01-30T16:01:15.000Z</time>
      </trkpt>
      <trkpt lat="44.92799" lon="2.98361">
        <ele>934.79998779297</ele>
        <time>2024-01-30T16:01:19.000Z</time>
      </trkpt>
      <trkpt lat="44.928" lon="2.98352">
        <ele>934.79998779297</ele>
        <time>2024-01-30T16:01:20.000Z</time>
      </trkpt>
      <trkpt lat="44.92798" lon="2.98342">
        <ele>934.40002441406</ele>
        <time>2024-01-30T16:01:21.000Z</time>
      </trkpt>
      <trkpt lat="44.92794" lon="2.98325">
        <ele>934.20001220703</ele>
        <time>2024-01-30T16:01:23.000Z</time>
      </trkpt>
      <trkpt lat="44.92793" lon="2.98313">
        <ele>934</ele>
        <time>2024-01-30T16:01:24.000Z</time>
      </trkpt>
      <trkpt lat="44.92793" lon="2.98293">
        <ele>934</ele>
        <time>2024-01-30T16:01:26.000Z</time>
      </trkpt>
      <trkpt lat="44.92794" lon="2.98256">
        <ele>933.79998779297</ele>
        <time>2024-01-30T16:01:29.000Z</time>
      </trkpt>
      <trkpt lat="44.92793" lon="2.98241">
        <ele>933.79998779297</ele>
        <time>2024-01-30T16:01:30.000Z</time>
      </trkpt>
      <trkpt lat="44.92789" lon="2.98206">
        <ele>933.20001220703</ele>
        <time>2024-01-30T16:01:33.000Z</time>
      </trkpt>
      <trkpt lat="44.92789" lon="2.98194">
        <ele>933</ele>
        <time>2024-01-30T16:01:34.000Z</time>
      </trkpt>
      <trkpt lat="44.9279" lon="2.98182">
        <ele>933</ele>
        <time>2024-01-30T16:01:35.000Z</time>
      </trkpt>
      <trkpt lat="44.92792" lon="2.98171">
        <ele>932.79998779297</ele>
        <time>2024-01-30T16:01:36.000Z</time>
      </trkpt>
      <trkpt lat="44.92795" lon="2.9816">
        <ele>932.79998779297</ele>
        <time>2024-01-30T16:01:37.000Z</time>
      </trkpt>
      <trkpt lat="44.92803" lon="2.98136">
        <ele>932.79998779297</ele>
        <time>2024-01-30T16:01:39.000Z</time>
      </trkpt>
      <trkpt lat="44.92827" lon="2.98084">
        <ele>932.59997558594</ele>
        <time>2024-01-30T16:01:43.000Z</time>
      </trkpt>
      <trkpt lat="44.92862" lon="2.98027">
        <ele>932.20001220703</ele>
        <time>2024-01-30T16:01:47.000Z</time>
      </trkpt>
      <trkpt lat="44.92881" lon="2.98">
        <ele>931.79998779297</ele>
        <time>2024-01-30T16:01:49.000Z</time>
      </trkpt>
      <trkpt lat="44.92903" lon="2.97958">
        <ele>931</ele>
        <time>2024-01-30T16:01:52.000Z</time>
      </trkpt>
      <trkpt lat="44.92908" lon="2.97944">
        <ele>930.59997558594</ele>
        <time>2024-01-30T16:01:53.000Z</time>
      </trkpt>
      <trkpt lat="44.9291" lon="2.97928">
        <ele>930.59997558594</ele>
        <time>2024-01-30T16:01:54.000Z</time>
      </trkpt>
      <trkpt lat="44.92912" lon="2.97912">
        <ele>930.59997558594</ele>
        <time>2024-01-30T16:01:55.000Z</time>
      </trkpt>
      <trkpt lat="44.92916" lon="2.97877">
        <ele>930.59997558594</ele>
        <time>2024-01-30T16:01:57.000Z</time>
      </trkpt>
      <trkpt lat="44.9292" lon="2.9786">
        <ele>930.79998779297</ele>
        <time>2024-01-30T16:01:58.000Z</time>
      </trkpt>
      <trkpt lat="44.92927" lon="2.97844">
        <ele>931.40002441406</ele>
        <time>2024-01-30T16:01:59.000Z</time>
      </trkpt>
      <trkpt lat="44.92936" lon="2.9783">
        <ele>932.20001220703</ele>
        <time>2024-01-30T16:02:00.000Z</time>
      </trkpt>
      <trkpt lat="44.92946" lon="2.97816">
        <ele>932.79998779297</ele>
        <time>2024-01-30T16:02:01.000Z</time>
      </trkpt>
      <trkpt lat="44.92958" lon="2.97803">
        <ele>933.59997558594</ele>
        <time>2024-01-30T16:02:02.000Z</time>
      </trkpt>
      <trkpt lat="44.92982" lon="2.97779">
        <ele>934.59997558594</ele>
        <time>2024-01-30T16:02:04.000Z</time>
      </trkpt>
      <trkpt lat="44.92995" lon="2.97766">
        <ele>935.79998779297</ele>
        <time>2024-01-30T16:02:05.000Z</time>
      </trkpt>
      <trkpt lat="44.93007" lon="2.97754">
        <ele>936.40002441406</ele>
        <time>2024-01-30T16:02:06.000Z</time>
      </trkpt>
      <trkpt lat="44.93019" lon="2.9774">
        <ele>937</ele>
        <time>2024-01-30T16:02:07.000Z</time>
      </trkpt>
      <trkpt lat="44.93041" lon="2.97712">
        <ele>938.40002441406</ele>
        <time>2024-01-30T16:02:09.000Z</time>
      </trkpt>
      <trkpt lat="44.93051" lon="2.97697">
        <ele>939</ele>
        <time>2024-01-30T16:02:10.000Z</time>
      </trkpt>
      <trkpt lat="44.93062" lon="2.97682">
        <ele>939.59997558594</ele>
        <time>2024-01-30T16:02:11.000Z</time>
      </trkpt>
      <trkpt lat="44.9308" lon="2.97652">
        <ele>940.79998779297</ele>
        <time>2024-01-30T16:02:13.000Z</time>
      </trkpt>
      <trkpt lat="44.931" lon="2.97621">
        <ele>942.40002441406</ele>
        <time>2024-01-30T16:02:15.000Z</time>
      </trkpt>
      <trkpt lat="44.9311" lon="2.97606">
        <ele>943</ele>
        <time>2024-01-30T16:02:16.000Z</time>
      </trkpt>
      <trkpt lat="44.9312" lon="2.9759">
        <ele>943.40002441406</ele>
        <time>2024-01-30T16:02:17.000Z</time>
      </trkpt>
      <trkpt lat="44.9313" lon="2.97574">
        <ele>944.59997558594</ele>
        <time>2024-01-30T16:02:18.000Z</time>
      </trkpt>
      <trkpt lat="44.93152" lon="2.9754">
        <ele>945.79998779297</ele>
        <time>2024-01-30T16:02:20.000Z</time>
      </trkpt>
      <trkpt lat="44.93163" lon="2.97523">
        <ele>946.79998779297</ele>
        <time>2024-01-30T16:02:21.000Z</time>
      </trkpt>
      <trkpt lat="44.93174" lon="2.97506">
        <ele>947.40002441406</ele>
        <time>2024-01-30T16:02:22.000Z</time>
      </trkpt>
      <trkpt lat="44.93186" lon="2.97491">
        <ele>948.59997558594</ele>
        <time>2024-01-30T16:02:23.000Z</time>
      </trkpt>
      <trkpt lat="44.93214" lon="2.97463">
        <ele>950.20001220703</ele>
        <time>2024-01-30T16:02:25.000Z</time>
      </trkpt>
      <trkpt lat="44.93242" lon="2.97439">
        <ele>951.59997558594</ele>
        <time>2024-01-30T16:02:27.000Z</time>
      </trkpt>
      <trkpt lat="44.93268" lon="2.9741">
        <ele>953</ele>
        <time>2024-01-30T16:02:29.000Z</time>
      </trkpt>
      <trkpt lat="44.9328" lon="2.97392">
        <ele>954.20001220703</ele>
        <time>2024-01-30T16:02:30.000Z</time>
      </trkpt>
      <trkpt lat="44.93301" lon="2.97354">
        <ele>955.79998779297</ele>
        <time>2024-01-30T16:02:32.000Z</time>
      </trkpt>
      <trkpt lat="44.93324" lon="2.97316">
        <ele>957.20001220703</ele>
        <time>2024-01-30T16:02:34.000Z</time>
      </trkpt>
      <trkpt lat="44.93349" lon="2.97279">
        <ele>959</ele>
        <time>2024-01-30T16:02:36.000Z</time>
      </trkpt>
      <trkpt lat="44.93374" lon="2.97242">
        <ele>960.79998779297</ele>
        <time>2024-01-30T16:02:38.000Z</time>
      </trkpt>
      <trkpt lat="44.934" lon="2.97205">
        <ele>962</ele>
        <time>2024-01-30T16:02:40.000Z</time>
      </trkpt>
      <trkpt lat="44.93413" lon="2.97186">
        <ele>963.40002441406</ele>
        <time>2024-01-30T16:02:41.000Z</time>
      </trkpt>
      <trkpt lat="44.93426" lon="2.97167">
        <ele>964.20001220703</ele>
        <time>2024-01-30T16:02:42.000Z</time>
      </trkpt>
      <trkpt lat="44.9344" lon="2.97149">
        <ele>965</ele>
        <time>2024-01-30T16:02:43.000Z</time>
      </trkpt>
      <trkpt lat="44.93471" lon="2.97109">
        <ele>966.79998779297</ele>
        <time>2024-01-30T16:02:45.000Z</time>
      </trkpt>
      <trkpt lat="44.93498" lon="2.97077">
        <ele>968</ele>
        <time>2024-01-30T16:02:47.000Z</time>
      </trkpt>
      <trkpt lat="44.93528" lon="2.97043">
        <ele>969.59997558594</ele>
        <time>2024-01-30T16:02:49.000Z</time>
      </trkpt>
      <trkpt lat="44.93556" lon="2.9701">
        <ele>971.20001220703</ele>
        <time>2024-01-30T16:02:51.000Z</time>
      </trkpt>
      <trkpt lat="44.9358" lon="2.96974">
        <ele>972.40002441406</ele>
        <time>2024-01-30T16:02:53.000Z</time>
      </trkpt>
      <trkpt lat="44.93599" lon="2.96932">
        <ele>974</ele>
        <time>2024-01-30T16:02:55.000Z</time>
      </trkpt>
      <trkpt lat="44.93607" lon="2.96909">
        <ele>975.20001220703</ele>
        <time>2024-01-30T16:02:56.000Z</time>
      </trkpt>
      <trkpt lat="44.93619" lon="2.9686">
        <ele>977</ele>
        <time>2024-01-30T16:02:58.000Z</time>
      </trkpt>
      <trkpt lat="44.9363" lon="2.96811">
        <ele>978.40002441406</ele>
        <time>2024-01-30T16:03:00.000Z</time>
      </trkpt>
      <trkpt lat="44.93636" lon="2.96786">
        <ele>979.59997558594</ele>
        <time>2024-01-30T16:03:01.000Z</time>
      </trkpt>
      <trkpt lat="44.93647" lon="2.96738">
        <ele>981.20001220703</ele>
        <time>2024-01-30T16:03:03.000Z</time>
      </trkpt>
      <trkpt lat="44.93664" lon="2.96693">
        <ele>982.59997558594</ele>
        <time>2024-01-30T16:03:05.000Z</time>
      </trkpt>
      <trkpt lat="44.93687" lon="2.96653">
        <ele>984.40002441406</ele>
        <time>2024-01-30T16:03:07.000Z</time>
      </trkpt>
      <trkpt lat="44.93701" lon="2.96634">
        <ele>985</ele>
        <time>2024-01-30T16:03:08.000Z</time>
      </trkpt>
      <trkpt lat="44.93716" lon="2.96617">
        <ele>986</ele>
        <time>2024-01-30T16:03:09.000Z</time>
      </trkpt>
      <trkpt lat="44.93747" lon="2.96585">
        <ele>987.79998779297</ele>
        <time>2024-01-30T16:03:11.000Z</time>
      </trkpt>
      <trkpt lat="44.93763" lon="2.96569">
        <ele>989</ele>
        <time>2024-01-30T16:03:12.000Z</time>
      </trkpt>
      <trkpt lat="44.93796" lon="2.96536">
        <ele>990.59997558594</ele>
        <time>2024-01-30T16:03:14.000Z</time>
      </trkpt>
      <trkpt lat="44.93813" lon="2.96518">
        <ele>991.59997558594</ele>
        <time>2024-01-30T16:03:15.000Z</time>
      </trkpt>
      <trkpt lat="44.93831" lon="2.965">
        <ele>992.79998779297</ele>
        <time>2024-01-30T16:03:16.000Z</time>
      </trkpt>
      <trkpt lat="44.93848" lon="2.96483">
        <ele>993.59997558594</ele>
        <time>2024-01-30T16:03:17.000Z</time>
      </trkpt>
      <trkpt lat="44.93865" lon="2.96466">
        <ele>994.40002441406</ele>
        <time>2024-01-30T16:03:18.000Z</time>
      </trkpt>
      <trkpt lat="44.93899" lon="2.96432">
        <ele>995.40002441406</ele>
        <time>2024-01-30T16:03:20.000Z</time>
      </trkpt>
      <trkpt lat="44.93931" lon="2.96399">
        <ele>997</ele>
        <time>2024-01-30T16:03:22.000Z</time>
      </trkpt>
      <trkpt lat="44.93962" lon="2.96369">
        <ele>998.40002441406</ele>
        <time>2024-01-30T16:03:24.000Z</time>
      </trkpt>
      <trkpt lat="44.93996" lon="2.96345">
        <ele>999.59997558594</ele>
        <time>2024-01-30T16:03:26.000Z</time>
      </trkpt>
      <trkpt lat="44.94013" lon="2.96335">
        <ele>1000</ele>
        <time>2024-01-30T16:03:27.000Z</time>
      </trkpt>
      <trkpt lat="44.94067" lon="2.96308">
        <ele>1000</ele>
        <time>2024-01-30T16:03:30.000Z</time>
      </trkpt>
      <trkpt lat="44.94105" lon="2.96291">
        <ele>999.20001220703</ele>
        <time>2024-01-30T16:03:32.000Z</time>
      </trkpt>
      <trkpt lat="44.94144" lon="2.96273">
        <ele>998.59997558594</ele>
        <time>2024-01-30T16:03:34.000Z</time>
      </trkpt>
      <trkpt lat="44.94183" lon="2.96256">
        <ele>997.40002441406</ele>
        <time>2024-01-30T16:03:36.000Z</time>
      </trkpt>
      <trkpt lat="44.94222" lon="2.96239">
        <ele>996.40002441406</ele>
        <time>2024-01-30T16:03:38.000Z</time>
      </trkpt>
      <trkpt lat="44.9424" lon="2.9623">
        <ele>996</ele>
        <time>2024-01-30T16:03:39.000Z</time>
      </trkpt>
      <trkpt lat="44.94259" lon="2.96221">
        <ele>995.20001220703</ele>
        <time>2024-01-30T16:03:40.000Z</time>
      </trkpt>
      <trkpt lat="44.94277" lon="2.9621">
        <ele>994</ele>
        <time>2024-01-30T16:03:41.000Z</time>
      </trkpt>
      <trkpt lat="44.94294" lon="2.96198">
        <ele>993.59997558594</ele>
        <time>2024-01-30T16:03:42.000Z</time>
      </trkpt>
      <trkpt lat="44.94311" lon="2.96183">
        <ele>992.59997558594</ele>
        <time>2024-01-30T16:03:43.000Z</time>
      </trkpt>
      <trkpt lat="44.9434" lon="2.9615">
        <ele>991.40002441406</ele>
        <time>2024-01-30T16:03:45.000Z</time>
      </trkpt>
      <trkpt lat="44.94355" lon="2.96134">
        <ele>990.79998779297</ele>
        <time>2024-01-30T16:03:46.000Z</time>
      </trkpt>
      <trkpt lat="44.94369" lon="2.96118">
        <ele>990.20001220703</ele>
        <time>2024-01-30T16:03:47.000Z</time>
      </trkpt>
      <trkpt lat="44.94403" lon="2.96092">
        <ele>989.20001220703</ele>
        <time>2024-01-30T16:03:49.000Z</time>
      </trkpt>
      <trkpt lat="44.94421" lon="2.96081">
        <ele>988.79998779297</ele>
        <time>2024-01-30T16:03:50.000Z</time>
      </trkpt>
      <trkpt lat="44.94458" lon="2.96058">
        <ele>987.59997558594</ele>
        <time>2024-01-30T16:03:52.000Z</time>
      </trkpt>
      <trkpt lat="44.94477" lon="2.96045">
        <ele>986.79998779297</ele>
        <time>2024-01-30T16:03:53.000Z</time>
      </trkpt>
      <trkpt lat="44.94496" lon="2.96031">
        <ele>986.40002441406</ele>
        <time>2024-01-30T16:03:54.000Z</time>
      </trkpt>
      <trkpt lat="44.94552" lon="2.95987">
        <ele>985</ele>
        <time>2024-01-30T16:03:57.000Z</time>
      </trkpt>
      <trkpt lat="44.9457" lon="2.95973">
        <ele>984</ele>
        <time>2024-01-30T16:03:58.000Z</time>
      </trkpt>
      <trkpt lat="44.94588" lon="2.95959">
        <ele>983.20001220703</ele>
        <time>2024-01-30T16:03:59.000Z</time>
      </trkpt>
      <trkpt lat="44.94604" lon="2.95947">
        <ele>982.20001220703</ele>
        <time>2024-01-30T16:04:00.000Z</time>
      </trkpt>
      <trkpt lat="44.94637" lon="2.95929">
        <ele>979.79998779297</ele>
        <time>2024-01-30T16:04:02.000Z</time>
      </trkpt>
      <trkpt lat="44.94652" lon="2.95924">
        <ele>978.59997558594</ele>
        <time>2024-01-30T16:04:03.000Z</time>
      </trkpt>
      <trkpt lat="44.94667" lon="2.95922">
        <ele>978</ele>
        <time>2024-01-30T16:04:04.000Z</time>
      </trkpt>
      <trkpt lat="44.94681" lon="2.95921">
        <ele>977.20001220703</ele>
        <time>2024-01-30T16:04:05.000Z</time>
      </trkpt>
      <trkpt lat="44.94705" lon="2.95918">
        <ele>975.79998779297</ele>
        <time>2024-01-30T16:04:07.000Z</time>
      </trkpt>
      <trkpt lat="44.94715" lon="2.95914">
        <ele>974.79998779297</ele>
        <time>2024-01-30T16:04:08.000Z</time>
      </trkpt>
      <trkpt lat="44.94729" lon="2.95899">
        <ele>973.59997558594</ele>
        <time>2024-01-30T16:04:10.000Z</time>
      </trkpt>
      <trkpt lat="44.94735" lon="2.95878">
        <ele>972.79998779297</ele>
        <time>2024-01-30T16:04:12.000Z</time>
      </trkpt>
      <trkpt lat="44.94736" lon="2.95868">
        <ele>972.59997558594</ele>
        <time>2024-01-30T16:04:13.000Z</time>
      </trkpt>
      <trkpt lat="44.94736" lon="2.9586">
        <ele>972.20001220703</ele>
        <time>2024-01-30T16:04:14.000Z</time>
      </trkpt>
      <trkpt lat="44.94736" lon="2.95853">
        <ele>972</ele>
        <time>2024-01-30T16:04:16.000Z</time>
      </trkpt>
      <trkpt lat="44.94736" lon="2.95853">
        <ele>972</ele>
        <time>2024-01-30T16:04:20.000Z</time>
      </trkpt>
      <trkpt lat="44.94738" lon="2.9585">
        <ele>972.40002441406</ele>
        <time>2024-01-30T16:04:23.000Z</time>
      </trkpt>
      <trkpt lat="44.94743" lon="2.95847">
        <ele>972.59997558594</ele>
        <time>2024-01-30T16:04:25.000Z</time>
      </trkpt>
      <trkpt lat="44.94762" lon="2.9584">
        <ele>973</ele>
        <time>2024-01-30T16:04:29.000Z</time>
      </trkpt>
      <trkpt lat="44.94772" lon="2.95834">
        <ele>973.20001220703</ele>
        <time>2024-01-30T16:04:31.000Z</time>
      </trkpt>
      <trkpt lat="44.94784" lon="2.95825">
        <ele>973.59997558594</ele>
        <time>2024-01-30T16:04:34.000Z</time>
      </trkpt>
      <trkpt lat="44.94802" lon="2.95814">
        <ele>974.40002441406</ele>
        <time>2024-01-30T16:04:38.000Z</time>
      </trkpt>
      <trkpt lat="44.94806" lon="2.95811">
        <ele>974.40002441406</ele>
        <time>2024-01-30T16:04:39.000Z</time>
      </trkpt>
      <trkpt lat="44.94808" lon="2.95807">
        <ele>974.40002441406</ele>
        <time>2024-01-30T16:04:40.000Z</time>
      </trkpt>
      <trkpt lat="44.94808" lon="2.95797">
        <ele>974.79998779297</ele>
        <time>2024-01-30T16:04:42.000Z</time>
      </trkpt>
      <trkpt lat="44.94798" lon="2.95784">
        <ele>975</ele>
        <time>2024-01-30T16:04:46.000Z</time>
      </trkpt>
      <trkpt lat="44.9479" lon="2.9578">
        <ele>975</ele>
        <time>2024-01-30T16:04:51.000Z</time>
      </trkpt>
      <trkpt lat="44.9479" lon="2.9578">
        <ele>975.20001220703</ele>
        <time>2024-01-30T16:04:57.000Z</time>
      </trkpt>
      <trkpt lat="44.9479" lon="2.9578">
        <ele>975.20001220703</ele>
        <time>2024-01-30T16:05:06.000Z</time>
      </trkpt>
      <trkpt lat="44.9479" lon="2.9578">
        <ele>975.40002441406</ele>
        <time>2024-01-30T16:05:10.000Z</time>
      </trkpt>
      <trkpt lat="44.9479" lon="2.9578">
        <ele>975.40002441406</ele>
        <time>2024-01-30T16:05:21.000Z</time>
      </trkpt>
      <trkpt lat="44.9479" lon="2.9578">
        <ele>975.59997558594</ele>
        <time>2024-01-30T16:05:29.000Z</time>
      </trkpt>
      <trkpt lat="44.9479" lon="2.9578">
        <ele>975.59997558594</ele>
        <time>2024-01-30T16:05:34.000Z</time>
      </trkpt>
      <trkpt lat="44.9479" lon="2.9578">
        <ele>975.79998779297</ele>
        <time>2024-01-30T16:05:52.000Z</time>
      </trkpt>
      <trkpt lat="44.94779" lon="2.95782">
        <ele>976.20001220703</ele>
        <time>2024-01-30T16:05:57.000Z</time>
      </trkpt>
      <trkpt lat="44.9477" lon="2.95784">
        <ele>976.40002441406</ele>
        <time>2024-01-30T16:05:59.000Z</time>
      </trkpt>
      <trkpt lat="44.94752" lon="2.95788">
        <ele>977.40002441406</ele>
        <time>2024-01-30T16:06:02.000Z</time>
      </trkpt>
      <trkpt lat="44.94745" lon="2.9579">
        <ele>977.79998779297</ele>
        <time>2024-01-30T16:06:03.000Z</time>
      </trkpt>
      <trkpt lat="44.94729" lon="2.95792">
        <ele>978.59997558594</ele>
        <time>2024-01-30T16:06:05.000Z</time>
      </trkpt>
      <trkpt lat="44.94721" lon="2.9579">
        <ele>979</ele>
        <time>2024-01-30T16:06:06.000Z</time>
      </trkpt>
      <trkpt lat="44.94711" lon="2.95785">
        <ele>979.40002441406</ele>
        <time>2024-01-30T16:06:07.000Z</time>
      </trkpt>
      <trkpt lat="44.94696" lon="2.95768">
        <ele>980.59997558594</ele>
        <time>2024-01-30T16:06:09.000Z</time>
      </trkpt>
      <trkpt lat="44.94681" lon="2.95742">
        <ele>982.20001220703</ele>
        <time>2024-01-30T16:06:11.000Z</time>
      </trkpt>
      <trkpt lat="44.94674" lon="2.95734">
        <ele>982.79998779297</ele>
        <time>2024-01-30T16:06:12.000Z</time>
      </trkpt>
      <trkpt lat="44.94666" lon="2.95726">
        <ele>983</ele>
        <time>2024-01-30T16:06:13.000Z</time>
      </trkpt>
      <trkpt lat="44.94655" lon="2.95721">
        <ele>983.59997558594</ele>
        <time>2024-01-30T16:06:14.000Z</time>
      </trkpt>
      <trkpt lat="44.94635" lon="2.95715">
        <ele>984.40002441406</ele>
        <time>2024-01-30T16:06:16.000Z</time>
      </trkpt>
      <trkpt lat="44.94627" lon="2.9571">
        <ele>984.79998779297</ele>
        <time>2024-01-30T16:06:17.000Z</time>
      </trkpt>
      <trkpt lat="44.94614" lon="2.95699">
        <ele>985.59997558594</ele>
        <time>2024-01-30T16:06:19.000Z</time>
      </trkpt>
      <trkpt lat="44.9461" lon="2.95691">
        <ele>986</ele>
        <time>2024-01-30T16:06:20.000Z</time>
      </trkpt>
      <trkpt lat="44.94607" lon="2.95682">
        <ele>986.59997558594</ele>
        <time>2024-01-30T16:06:21.000Z</time>
      </trkpt>
      <trkpt lat="44.94605" lon="2.95671">
        <ele>987</ele>
        <time>2024-01-30T16:06:22.000Z</time>
      </trkpt>
      <trkpt lat="44.94603" lon="2.95658">
        <ele>987.40002441406</ele>
        <time>2024-01-30T16:06:23.000Z</time>
      </trkpt>
      <trkpt lat="44.94595" lon="2.95618">
        <ele>989</ele>
        <time>2024-01-30T16:06:26.000Z</time>
      </trkpt>
      <trkpt lat="44.94598" lon="2.95593">
        <ele>989.79998779297</ele>
        <time>2024-01-30T16:06:28.000Z</time>
      </trkpt>
      <trkpt lat="44.94603" lon="2.95581">
        <ele>990.40002441406</ele>
        <time>2024-01-30T16:06:29.000Z</time>
      </trkpt>
      <trkpt lat="44.94609" lon="2.95571">
        <ele>991.20001220703</ele>
        <time>2024-01-30T16:06:30.000Z</time>
      </trkpt>
      <trkpt lat="44.94617" lon="2.95561">
        <ele>992.20001220703</ele>
        <time>2024-01-30T16:06:31.000Z</time>
      </trkpt>
      <trkpt lat="44.94626" lon="2.95551">
        <ele>992.59997558594</ele>
        <time>2024-01-30T16:06:32.000Z</time>
      </trkpt>
      <trkpt lat="44.94636" lon="2.9554">
        <ele>993.20001220703</ele>
        <time>2024-01-30T16:06:33.000Z</time>
      </trkpt>
      <trkpt lat="44.94667" lon="2.95505">
        <ele>994.79998779297</ele>
        <time>2024-01-30T16:06:36.000Z</time>
      </trkpt>
      <trkpt lat="44.94702" lon="2.95471">
        <ele>996.59997558594</ele>
        <time>2024-01-30T16:06:39.000Z</time>
      </trkpt>
      <trkpt lat="44.94714" lon="2.95462">
        <ele>997</ele>
        <time>2024-01-30T16:06:40.000Z</time>
      </trkpt>
      <trkpt lat="44.9474" lon="2.95442">
        <ele>998.20001220703</ele>
        <time>2024-01-30T16:06:42.000Z</time>
      </trkpt>
      <trkpt lat="44.94763" lon="2.95417">
        <ele>999</ele>
        <time>2024-01-30T16:06:44.000Z</time>
      </trkpt>
      <trkpt lat="44.94775" lon="2.95403">
        <ele>999.59997558594</ele>
        <time>2024-01-30T16:06:45.000Z</time>
      </trkpt>
      <trkpt lat="44.94797" lon="2.95377">
        <ele>1001.4000244141</ele>
        <time>2024-01-30T16:06:47.000Z</time>
      </trkpt>
      <trkpt lat="44.94818" lon="2.95353">
        <ele>1003</ele>
        <time>2024-01-30T16:06:49.000Z</time>
      </trkpt>
      <trkpt lat="44.94828" lon="2.95341">
        <ele>1004.4000244141</ele>
        <time>2024-01-30T16:06:50.000Z</time>
      </trkpt>
      <trkpt lat="44.94837" lon="2.95331">
        <ele>1005.200012207</ele>
        <time>2024-01-30T16:06:51.000Z</time>
      </trkpt>
      <trkpt lat="44.94845" lon="2.95321">
        <ele>1006.200012207</ele>
        <time>2024-01-30T16:06:52.000Z</time>
      </trkpt>
      <trkpt lat="44.94851" lon="2.95311">
        <ele>1006.5999755859</ele>
        <time>2024-01-30T16:06:53.000Z</time>
      </trkpt>
      <trkpt lat="44.94854" lon="2.95301">
        <ele>1007.200012207</ele>
        <time>2024-01-30T16:06:54.000Z</time>
      </trkpt>
      <trkpt lat="44.94855" lon="2.95291">
        <ele>1007.799987793</ele>
        <time>2024-01-30T16:06:55.000Z</time>
      </trkpt>
      <trkpt lat="44.94854" lon="2.9528">
        <ele>1008.799987793</ele>
        <time>2024-01-30T16:06:56.000Z</time>
      </trkpt>
      <trkpt lat="44.94851" lon="2.95268">
        <ele>1009.799987793</ele>
        <time>2024-01-30T16:06:57.000Z</time>
      </trkpt>
      <trkpt lat="44.94843" lon="2.95243">
        <ele>1011.5999755859</ele>
        <time>2024-01-30T16:06:59.000Z</time>
      </trkpt>
      <trkpt lat="44.94835" lon="2.95215">
        <ele>1013.5999755859</ele>
        <time>2024-01-30T16:07:01.000Z</time>
      </trkpt>
      <trkpt lat="44.94827" lon="2.95185">
        <ele>1014.799987793</ele>
        <time>2024-01-30T16:07:03.000Z</time>
      </trkpt>
      <trkpt lat="44.94819" lon="2.95158">
        <ele>1016.5999755859</ele>
        <time>2024-01-30T16:07:05.000Z</time>
      </trkpt>
      <trkpt lat="44.94812" lon="2.9513">
        <ele>1017.799987793</ele>
        <time>2024-01-30T16:07:07.000Z</time>
      </trkpt>
      <trkpt lat="44.94811" lon="2.95115">
        <ele>1018.200012207</ele>
        <time>2024-01-30T16:07:08.000Z</time>
      </trkpt>
      <trkpt lat="44.94811" lon="2.95102">
        <ele>1019</ele>
        <time>2024-01-30T16:07:09.000Z</time>
      </trkpt>
      <trkpt lat="44.94812" lon="2.95076">
        <ele>1019.799987793</ele>
        <time>2024-01-30T16:07:11.000Z</time>
      </trkpt>
      <trkpt lat="44.94814" lon="2.95064">
        <ele>1020</ele>
        <time>2024-01-30T16:07:12.000Z</time>
      </trkpt>
      <trkpt lat="44.94819" lon="2.95053">
        <ele>1020.200012207</ele>
        <time>2024-01-30T16:07:13.000Z</time>
      </trkpt>
      <trkpt lat="44.9483" lon="2.95031">
        <ele>1021.5999755859</ele>
        <time>2024-01-30T16:07:15.000Z</time>
      </trkpt>
      <trkpt lat="44.94836" lon="2.95021">
        <ele>1022.200012207</ele>
        <time>2024-01-30T16:07:16.000Z</time>
      </trkpt>
      <trkpt lat="44.94843" lon="2.9501">
        <ele>1023.4000244141</ele>
        <time>2024-01-30T16:07:17.000Z</time>
      </trkpt>
      <trkpt lat="44.9485" lon="2.95">
        <ele>1024.1999511719</ele>
        <time>2024-01-30T16:07:18.000Z</time>
      </trkpt>
      <trkpt lat="44.94858" lon="2.94991">
        <ele>1025.4000244141</ele>
        <time>2024-01-30T16:07:19.000Z</time>
      </trkpt>
      <trkpt lat="44.94867" lon="2.94983">
        <ele>1026.1999511719</ele>
        <time>2024-01-30T16:07:20.000Z</time>
      </trkpt>
      <trkpt lat="44.94877" lon="2.94975">
        <ele>1027.1999511719</ele>
        <time>2024-01-30T16:07:21.000Z</time>
      </trkpt>
      <trkpt lat="44.94897" lon="2.94962">
        <ele>1029</ele>
        <time>2024-01-30T16:07:23.000Z</time>
      </trkpt>
      <trkpt lat="44.94909" lon="2.94956">
        <ele>1030</ele>
        <time>2024-01-30T16:07:24.000Z</time>
      </trkpt>
      <trkpt lat="44.94946" lon="2.94935">
        <ele>1031.8000488281</ele>
        <time>2024-01-30T16:07:27.000Z</time>
      </trkpt>
      <trkpt lat="44.94959" lon="2.94928">
        <ele>1032.1999511719</ele>
        <time>2024-01-30T16:07:28.000Z</time>
      </trkpt>
      <trkpt lat="44.95013" lon="2.94906">
        <ele>1032.8000488281</ele>
        <time>2024-01-30T16:07:32.000Z</time>
      </trkpt>
      <trkpt lat="44.9504" lon="2.94899">
        <ele>1032.8000488281</ele>
        <time>2024-01-30T16:07:34.000Z</time>
      </trkpt>
      <trkpt lat="44.95069" lon="2.94895">
        <ele>1033</ele>
        <time>2024-01-30T16:07:36.000Z</time>
      </trkpt>
      <trkpt lat="44.95128" lon="2.94873">
        <ele>1034</ele>
        <time>2024-01-30T16:07:40.000Z</time>
      </trkpt>
      <trkpt lat="44.95191" lon="2.9484">
        <ele>1034.8000488281</ele>
        <time>2024-01-30T16:07:44.000Z</time>
      </trkpt>
      <trkpt lat="44.95207" lon="2.9483">
        <ele>1034.8000488281</ele>
        <time>2024-01-30T16:07:45.000Z</time>
      </trkpt>
      <trkpt lat="44.95224" lon="2.94821">
        <ele>1035.1999511719</ele>
        <time>2024-01-30T16:07:46.000Z</time>
      </trkpt>
      <trkpt lat="44.95292" lon="2.94784">
        <ele>1036.4000244141</ele>
        <time>2024-01-30T16:07:50.000Z</time>
      </trkpt>
      <trkpt lat="44.95309" lon="2.94775">
        <ele>1036.5999755859</ele>
        <time>2024-01-30T16:07:51.000Z</time>
      </trkpt>
      <trkpt lat="44.95361" lon="2.94748">
        <ele>1037</ele>
        <time>2024-01-30T16:07:54.000Z</time>
      </trkpt>
      <trkpt lat="44.95413" lon="2.9472">
        <ele>1037.1999511719</ele>
        <time>2024-01-30T16:07:57.000Z</time>
      </trkpt>
      <trkpt lat="44.95431" lon="2.9471">
        <ele>1037.1999511719</ele>
        <time>2024-01-30T16:07:58.000Z</time>
      </trkpt>
      <trkpt lat="44.95466" lon="2.94691">
        <ele>1037.1999511719</ele>
        <time>2024-01-30T16:08:00.000Z</time>
      </trkpt>
      <trkpt lat="44.95518" lon="2.94663">
        <ele>1037</ele>
        <time>2024-01-30T16:08:03.000Z</time>
      </trkpt>
      <trkpt lat="44.9557" lon="2.94635">
        <ele>1036.8000488281</ele>
        <time>2024-01-30T16:08:06.000Z</time>
      </trkpt>
      <trkpt lat="44.9562" lon="2.94607">
        <ele>1036.8000488281</ele>
        <time>2024-01-30T16:08:09.000Z</time>
      </trkpt>
      <trkpt lat="44.95637" lon="2.94598">
        <ele>1036.5999755859</ele>
        <time>2024-01-30T16:08:10.000Z</time>
      </trkpt>
      <trkpt lat="44.95704" lon="2.94562">
        <ele>1036.1999511719</ele>
        <time>2024-01-30T16:08:14.000Z</time>
      </trkpt>
      <trkpt lat="44.95755" lon="2.94534">
        <ele>1036</ele>
        <time>2024-01-30T16:08:17.000Z</time>
      </trkpt>
      <trkpt lat="44.95772" lon="2.94525">
        <ele>1036</ele>
        <time>2024-01-30T16:08:18.000Z</time>
      </trkpt>
      <trkpt lat="44.95822" lon="2.94497">
        <ele>1035.8000488281</ele>
        <time>2024-01-30T16:08:21.000Z</time>
      </trkpt>
      <trkpt lat="44.95873" lon="2.9447">
        <ele>1035.5999755859</ele>
        <time>2024-01-30T16:08:24.000Z</time>
      </trkpt>
      <trkpt lat="44.95908" lon="2.94456">
        <ele>1035.5999755859</ele>
        <time>2024-01-30T16:08:26.000Z</time>
      </trkpt>
      <trkpt lat="44.95962" lon="2.94436">
        <ele>1035.4000244141</ele>
        <time>2024-01-30T16:08:29.000Z</time>
      </trkpt>
      <trkpt lat="44.9598" lon="2.9443">
        <ele>1035.1999511719</ele>
        <time>2024-01-30T16:08:30.000Z</time>
      </trkpt>
      <trkpt lat="44.96032" lon="2.94409">
        <ele>1035.4000244141</ele>
        <time>2024-01-30T16:08:33.000Z</time>
      </trkpt>
      <trkpt lat="44.96084" lon="2.94378">
        <ele>1035.8000488281</ele>
        <time>2024-01-30T16:08:36.000Z</time>
      </trkpt>
      <trkpt lat="44.96101" lon="2.94366">
        <ele>1035.8000488281</ele>
        <time>2024-01-30T16:08:37.000Z</time>
      </trkpt>
      <trkpt lat="44.96152" lon="2.94328">
        <ele>1036</ele>
        <time>2024-01-30T16:08:40.000Z</time>
      </trkpt>
      <trkpt lat="44.96185" lon="2.94303">
        <ele>1036</ele>
        <time>2024-01-30T16:08:42.000Z</time>
      </trkpt>
      <trkpt lat="44.96235" lon="2.94266">
        <ele>1036.8000488281</ele>
        <time>2024-01-30T16:08:45.000Z</time>
      </trkpt>
      <trkpt lat="44.96286" lon="2.94228">
        <ele>1037.5999755859</ele>
        <time>2024-01-30T16:08:48.000Z</time>
      </trkpt>
      <trkpt lat="44.96302" lon="2.94215">
        <ele>1038</ele>
        <time>2024-01-30T16:08:49.000Z</time>
      </trkpt>
      <trkpt lat="44.96334" lon="2.94191">
        <ele>1038.1999511719</ele>
        <time>2024-01-30T16:08:51.000Z</time>
      </trkpt>
      <trkpt lat="44.9638" lon="2.94154">
        <ele>1039</ele>
        <time>2024-01-30T16:08:54.000Z</time>
      </trkpt>
      <trkpt lat="44.96409" lon="2.94131">
        <ele>1039.4000244141</ele>
        <time>2024-01-30T16:08:56.000Z</time>
      </trkpt>
      <trkpt lat="44.96454" lon="2.94099">
        <ele>1040.1999511719</ele>
        <time>2024-01-30T16:08:59.000Z</time>
      </trkpt>
      <trkpt lat="44.96483" lon="2.94077">
        <ele>1040.5999755859</ele>
        <time>2024-01-30T16:09:01.000Z</time>
      </trkpt>
      <trkpt lat="44.96535" lon="2.94024">
        <ele>1041.4000244141</ele>
        <time>2024-01-30T16:09:05.000Z</time>
      </trkpt>
      <trkpt lat="44.96582" lon="2.93956">
        <ele>1043</ele>
        <time>2024-01-30T16:09:09.000Z</time>
      </trkpt>
      <trkpt lat="44.96617" lon="2.93898">
        <ele>1043.1999511719</ele>
        <time>2024-01-30T16:09:12.000Z</time>
      </trkpt>
      <trkpt lat="44.96643" lon="2.93859">
        <ele>1043</ele>
        <time>2024-01-30T16:09:14.000Z</time>
      </trkpt>
      <trkpt lat="44.96681" lon="2.938">
        <ele>1043</ele>
        <time>2024-01-30T16:09:17.000Z</time>
      </trkpt>
      <trkpt lat="44.9672" lon="2.9374">
        <ele>1042.8000488281</ele>
        <time>2024-01-30T16:09:20.000Z</time>
      </trkpt>
      <trkpt lat="44.96732" lon="2.9372">
        <ele>1043</ele>
        <time>2024-01-30T16:09:21.000Z</time>
      </trkpt>
      <trkpt lat="44.9677" lon="2.93663">
        <ele>1043.1999511719</ele>
        <time>2024-01-30T16:09:24.000Z</time>
      </trkpt>
      <trkpt lat="44.96807" lon="2.93607">
        <ele>1043.1999511719</ele>
        <time>2024-01-30T16:09:27.000Z</time>
      </trkpt>
      <trkpt lat="44.96819" lon="2.93588">
        <ele>1043.4000244141</ele>
        <time>2024-01-30T16:09:28.000Z</time>
      </trkpt>
      <trkpt lat="44.96849" lon="2.93528">
        <ele>1043.5999755859</ele>
        <time>2024-01-30T16:09:31.000Z</time>
      </trkpt>
      <trkpt lat="44.96885" lon="2.93442">
        <ele>1043.8000488281</ele>
        <time>2024-01-30T16:09:35.000Z</time>
      </trkpt>
      <trkpt lat="44.96921" lon="2.93357">
        <ele>1043.4000244141</ele>
        <time>2024-01-30T16:09:39.000Z</time>
      </trkpt>
      <trkpt lat="44.9694" lon="2.93314">
        <ele>1043.1999511719</ele>
        <time>2024-01-30T16:09:41.000Z</time>
      </trkpt>
      <trkpt lat="44.96977" lon="2.93231">
        <ele>1043.5999755859</ele>
        <time>2024-01-30T16:09:45.000Z</time>
      </trkpt>
      <trkpt lat="44.96994" lon="2.9319">
        <ele>1044.4000244141</ele>
        <time>2024-01-30T16:09:47.000Z</time>
      </trkpt>
      <trkpt lat="44.9701" lon="2.93149">
        <ele>1044.8000488281</ele>
        <time>2024-01-30T16:09:49.000Z</time>
      </trkpt>
      <trkpt lat="44.97016" lon="2.93106">
        <ele>1045.8000488281</ele>
        <time>2024-01-30T16:09:51.000Z</time>
      </trkpt>
      <trkpt lat="44.97018" lon="2.93063">
        <ele>1047</ele>
        <time>2024-01-30T16:09:53.000Z</time>
      </trkpt>
      <trkpt lat="44.97023" lon="2.93021">
        <ele>1048.5999755859</ele>
        <time>2024-01-30T16:09:55.000Z</time>
      </trkpt>
      <trkpt lat="44.97035" lon="2.9298">
        <ele>1050</ele>
        <time>2024-01-30T16:09:57.000Z</time>
      </trkpt>
      <trkpt lat="44.97043" lon="2.92961">
        <ele>1050.4000244141</ele>
        <time>2024-01-30T16:09:58.000Z</time>
      </trkpt>
      <trkpt lat="44.97064" lon="2.92925">
        <ele>1051.5999755859</ele>
        <time>2024-01-30T16:10:00.000Z</time>
      </trkpt>
      <trkpt lat="44.97077" lon="2.92909">
        <ele>1052.1999511719</ele>
        <time>2024-01-30T16:10:01.000Z</time>
      </trkpt>
      <trkpt lat="44.9709" lon="2.92894">
        <ele>1052.8000488281</ele>
        <time>2024-01-30T16:10:02.000Z</time>
      </trkpt>
      <trkpt lat="44.97117" lon="2.92865">
        <ele>1054</ele>
        <time>2024-01-30T16:10:04.000Z</time>
      </trkpt>
      <trkpt lat="44.97131" lon="2.92851">
        <ele>1054.4000244141</ele>
        <time>2024-01-30T16:10:05.000Z</time>
      </trkpt>
      <trkpt lat="44.97173" lon="2.92809">
        <ele>1055</ele>
        <time>2024-01-30T16:10:08.000Z</time>
      </trkpt>
      <trkpt lat="44.97198" lon="2.9278">
        <ele>1055.1999511719</ele>
        <time>2024-01-30T16:10:10.000Z</time>
      </trkpt>
      <trkpt lat="44.97216" lon="2.92744">
        <ele>1055.4000244141</ele>
        <time>2024-01-30T16:10:12.000Z</time>
      </trkpt>
      <trkpt lat="44.97222" lon="2.92724">
        <ele>1055.8000488281</ele>
        <time>2024-01-30T16:10:13.000Z</time>
      </trkpt>
      <trkpt lat="44.97229" lon="2.92703">
        <ele>1056</ele>
        <time>2024-01-30T16:10:14.000Z</time>
      </trkpt>
      <trkpt lat="44.97255" lon="2.92618">
        <ele>1057</ele>
        <time>2024-01-30T16:10:18.000Z</time>
      </trkpt>
      <trkpt lat="44.97263" lon="2.92597">
        <ele>1057.5999755859</ele>
        <time>2024-01-30T16:10:19.000Z</time>
      </trkpt>
      <trkpt lat="44.9727" lon="2.92576">
        <ele>1058</ele>
        <time>2024-01-30T16:10:20.000Z</time>
      </trkpt>
      <trkpt lat="44.97301" lon="2.92501">
        <ele>1059</ele>
        <time>2024-01-30T16:10:24.000Z</time>
      </trkpt>
      <trkpt lat="44.97311" lon="2.92482">
        <ele>1059.1999511719</ele>
        <time>2024-01-30T16:10:25.000Z</time>
      </trkpt>
      <trkpt lat="44.97353" lon="2.92408">
        <ele>1059.4000244141</ele>
        <time>2024-01-30T16:10:29.000Z</time>
      </trkpt>
      <trkpt lat="44.97396" lon="2.92335">
        <ele>1058.8000488281</ele>
        <time>2024-01-30T16:10:33.000Z</time>
      </trkpt>
      <trkpt lat="44.9743" lon="2.92284">
        <ele>1058.5999755859</ele>
        <time>2024-01-30T16:10:36.000Z</time>
      </trkpt>
      <trkpt lat="44.97472" lon="2.92241">
        <ele>1058</ele>
        <time>2024-01-30T16:10:39.000Z</time>
      </trkpt>
      <trkpt lat="44.9752" lon="2.92201">
        <ele>1057.4000244141</ele>
        <time>2024-01-30T16:10:42.000Z</time>
      </trkpt>
      <trkpt lat="44.97536" lon="2.92188">
        <ele>1056.8000488281</ele>
        <time>2024-01-30T16:10:43.000Z</time>
      </trkpt>
      <trkpt lat="44.97552" lon="2.92174">
        <ele>1056</ele>
        <time>2024-01-30T16:10:44.000Z</time>
      </trkpt>
      <trkpt lat="44.97569" lon="2.92161">
        <ele>1055.5999755859</ele>
        <time>2024-01-30T16:10:45.000Z</time>
      </trkpt>
      <trkpt lat="44.976" lon="2.92133">
        <ele>1054.5999755859</ele>
        <time>2024-01-30T16:10:47.000Z</time>
      </trkpt>
      <trkpt lat="44.9763" lon="2.92108">
        <ele>1053.1999511719</ele>
        <time>2024-01-30T16:10:49.000Z</time>
      </trkpt>
      <trkpt lat="44.97644" lon="2.92097">
        <ele>1052.4000244141</ele>
        <time>2024-01-30T16:10:50.000Z</time>
      </trkpt>
      <trkpt lat="44.97658" lon="2.92086">
        <ele>1051.8000488281</ele>
        <time>2024-01-30T16:10:51.000Z</time>
      </trkpt>
      <trkpt lat="44.97678" lon="2.92071">
        <ele>1050.1999511719</ele>
        <time>2024-01-30T16:10:53.000Z</time>
      </trkpt>
      <trkpt lat="44.97701" lon="2.92052">
        <ele>1049.1999511719</ele>
        <time>2024-01-30T16:10:56.000Z</time>
      </trkpt>
      <trkpt lat="44.97737" lon="2.92017">
        <ele>1049.5999755859</ele>
        <time>2024-01-30T16:11:00.000Z</time>
      </trkpt>
      <trkpt lat="44.97786" lon="2.91968">
        <ele>1050</ele>
        <time>2024-01-30T16:11:04.000Z</time>
      </trkpt>
      <trkpt lat="44.97841" lon="2.91904">
        <ele>1050.5999755859</ele>
        <time>2024-01-30T16:11:08.000Z</time>
      </trkpt>
      <trkpt lat="44.97884" lon="2.91854">
        <ele>1050.1999511719</ele>
        <time>2024-01-30T16:11:11.000Z</time>
      </trkpt>
      <trkpt lat="44.97927" lon="2.91804">
        <ele>1049.8000488281</ele>
        <time>2024-01-30T16:11:14.000Z</time>
      </trkpt>
      <trkpt lat="44.97941" lon="2.91787">
        <ele>1049.8000488281</ele>
        <time>2024-01-30T16:11:15.000Z</time>
      </trkpt>
      <trkpt lat="44.97986" lon="2.91736">
        <ele>1049.4000244141</ele>
        <time>2024-01-30T16:11:18.000Z</time>
      </trkpt>
      <trkpt lat="44.98015" lon="2.91704">
        <ele>1049</ele>
        <time>2024-01-30T16:11:20.000Z</time>
      </trkpt>
      <trkpt lat="44.9804" lon="2.91674">
        <ele>1048.5999755859</ele>
        <time>2024-01-30T16:11:22.000Z</time>
      </trkpt>
      <trkpt lat="44.98051" lon="2.91662">
        <ele>1048</ele>
        <time>2024-01-30T16:11:23.000Z</time>
      </trkpt>
      <trkpt lat="44.9807" lon="2.9164">
        <ele>1047</ele>
        <time>2024-01-30T16:11:25.000Z</time>
      </trkpt>
      <trkpt lat="44.98078" lon="2.91632">
        <ele>1046.5999755859</ele>
        <time>2024-01-30T16:11:26.000Z</time>
      </trkpt>
      <trkpt lat="44.9809" lon="2.91618">
        <ele>1046.1999511719</ele>
        <time>2024-01-30T16:11:28.000Z</time>
      </trkpt>
      <trkpt lat="44.98098" lon="2.91608">
        <ele>1046</ele>
        <time>2024-01-30T16:11:30.000Z</time>
      </trkpt>
      <trkpt lat="44.98102" lon="2.91605">
        <ele>1045.8000488281</ele>
        <time>2024-01-30T16:11:31.000Z</time>
      </trkpt>
      <trkpt lat="44.98108" lon="2.916">
        <ele>1045.5999755859</ele>
        <time>2024-01-30T16:11:34.000Z</time>
      </trkpt>
      <trkpt lat="44.98109" lon="2.91597">
        <ele>1045.5999755859</ele>
        <time>2024-01-30T16:11:36.000Z</time>
      </trkpt>
      <trkpt lat="44.9811" lon="2.91596">
        <ele>1045.5999755859</ele>
        <time>2024-01-30T16:11:39.000Z</time>
      </trkpt>
      <trkpt lat="44.9811" lon="2.91596">
        <ele>1045.8000488281</ele>
        <time>2024-01-30T16:12:00.000Z</time>
      </trkpt>
      <trkpt lat="44.9811" lon="2.91596">
        <ele>1045.8000488281</ele>
        <time>2024-01-30T16:12:15.000Z</time>
      </trkpt>
      <trkpt lat="44.9811" lon="2.91596">
        <ele>1045.8000488281</ele>
        <time>2024-01-30T16:12:33.000Z</time>
      </trkpt>
      <trkpt lat="44.9811" lon="2.91596">
        <ele>1045.8000488281</ele>
        <time>2024-01-30T16:12:45.000Z</time>
      </trkpt>
      <trkpt lat="44.9811" lon="2.91596">
        <ele>1045.8000488281</ele>
        <time>2024-01-30T16:13:05.000Z</time>
      </trkpt>
      <trkpt lat="44.9811" lon="2.91596">
        <ele>1045.8000488281</ele>
        <time>2024-01-30T16:13:17.000Z</time>
      </trkpt>
      <trkpt lat="44.9811" lon="2.91596">
        <ele>1045.8000488281</ele>
        <time>2024-01-30T16:13:33.000Z</time>
      </trkpt>
      <trkpt lat="44.9811" lon="2.91596">
        <ele>1045.8000488281</ele>
        <time>2024-01-30T16:13:47.000Z</time>
      </trkpt>
      <trkpt lat="44.9811" lon="2.91596">
        <ele>1045.8000488281</ele>
        <time>2024-01-30T16:14:05.000Z</time>
      </trkpt>
      <trkpt lat="44.9811" lon="2.91596">
        <ele>1045.8000488281</ele>
        <time>2024-01-30T16:14:19.000Z</time>
      </trkpt>
      <trkpt lat="44.98111" lon="2.91595">
        <ele>1045.8000488281</ele>
        <time>2024-01-30T16:14:22.000Z</time>
      </trkpt>
      <trkpt lat="44.98114" lon="2.9159">
        <ele>1045.5999755859</ele>
        <time>2024-01-30T16:14:24.000Z</time>
      </trkpt>
      <trkpt lat="44.98115" lon="2.91585">
        <ele>1045.5999755859</ele>
        <time>2024-01-30T16:14:25.000Z</time>
      </trkpt>
      <trkpt lat="44.98115" lon="2.91573">
        <ele>1045.5999755859</ele>
        <time>2024-01-30T16:14:27.000Z</time>
      </trkpt>
      <trkpt lat="44.9811" lon="2.91542">
        <ele>1046.4000244141</ele>
        <time>2024-01-30T16:14:30.000Z</time>
      </trkpt>
      <trkpt lat="44.98109" lon="2.9153">
        <ele>1046.4000244141</ele>
        <time>2024-01-30T16:14:31.000Z</time>
      </trkpt>
      <trkpt lat="44.98109" lon="2.915">
        <ele>1046.5999755859</ele>
        <time>2024-01-30T16:14:33.000Z</time>
      </trkpt>
      <trkpt lat="44.98114" lon="2.91429">
        <ele>1047.4000244141</ele>
        <time>2024-01-30T16:14:37.000Z</time>
      </trkpt>
      <trkpt lat="44.9812" lon="2.91391">
        <ele>1047.8000488281</ele>
        <time>2024-01-30T16:14:39.000Z</time>
      </trkpt>
      <trkpt lat="44.98127" lon="2.91352">
        <ele>1048.4000244141</ele>
        <time>2024-01-30T16:14:41.000Z</time>
      </trkpt>
      <trkpt lat="44.98145" lon="2.91273">
        <ele>1048.8000488281</ele>
        <time>2024-01-30T16:14:45.000Z</time>
      </trkpt>
      <trkpt lat="44.98151" lon="2.91253">
        <ele>1048.5999755859</ele>
        <time>2024-01-30T16:14:46.000Z</time>
      </trkpt>
      <trkpt lat="44.98182" lon="2.9117">
        <ele>1047</ele>
        <time>2024-01-30T16:14:50.000Z</time>
      </trkpt>
      <trkpt lat="44.9819" lon="2.91148">
        <ele>1046.4000244141</ele>
        <time>2024-01-30T16:14:51.000Z</time>
      </trkpt>
      <trkpt lat="44.98207" lon="2.91103">
        <ele>1045</ele>
        <time>2024-01-30T16:14:53.000Z</time>
      </trkpt>
      <trkpt lat="44.98215" lon="2.9108">
        <ele>1044</ele>
        <time>2024-01-30T16:14:54.000Z</time>
      </trkpt>
      <trkpt lat="44.9824" lon="2.91011">
        <ele>1042.4000244141</ele>
        <time>2024-01-30T16:14:57.000Z</time>
      </trkpt>
      <trkpt lat="44.98248" lon="2.90989">
        <ele>1041.1999511719</ele>
        <time>2024-01-30T16:14:58.000Z</time>
      </trkpt>
      <trkpt lat="44.98262" lon="2.90951">
        <ele>1039.1999511719</ele>
        <time>2024-01-30T16:15:00.000Z</time>
      </trkpt>
      <trkpt lat="44.98267" lon="2.90936">
        <ele>1037.8000488281</ele>
        <time>2024-01-30T16:15:01.000Z</time>
      </trkpt>
      <trkpt lat="44.98272" lon="2.90923">
        <ele>1036.4000244141</ele>
        <time>2024-01-30T16:15:02.000Z</time>
      </trkpt>
      <trkpt lat="44.98277" lon="2.90912">
        <ele>1035.4000244141</ele>
        <time>2024-01-30T16:15:03.000Z</time>
      </trkpt>
      <trkpt lat="44.98283" lon="2.90905">
        <ele>1035.1999511719</ele>
        <time>2024-01-30T16:15:04.000Z</time>
      </trkpt>
      <trkpt lat="44.9829" lon="2.90901">
        <ele>1035.1999511719</ele>
        <time>2024-01-30T16:15:05.000Z</time>
      </trkpt>
      <trkpt lat="44.98307" lon="2.90899">
        <ele>1035.1999511719</ele>
        <time>2024-01-30T16:15:07.000Z</time>
      </trkpt>
      <trkpt lat="44.98315" lon="2.90897">
        <ele>1035.1999511719</ele>
        <time>2024-01-30T16:15:08.000Z</time>
      </trkpt>
      <trkpt lat="44.98328" lon="2.90888">
        <ele>1036.1999511719</ele>
        <time>2024-01-30T16:15:10.000Z</time>
      </trkpt>
      <trkpt lat="44.98334" lon="2.9088">
        <ele>1036.5999755859</ele>
        <time>2024-01-30T16:15:11.000Z</time>
      </trkpt>
      <trkpt lat="44.98348" lon="2.90861">
        <ele>1037.8000488281</ele>
        <time>2024-01-30T16:15:13.000Z</time>
      </trkpt>
      <trkpt lat="44.98356" lon="2.90849">
        <ele>1038</ele>
        <time>2024-01-30T16:15:14.000Z</time>
      </trkpt>
      <trkpt lat="44.98373" lon="2.90824">
        <ele>1039.1999511719</ele>
        <time>2024-01-30T16:15:16.000Z</time>
      </trkpt>
      <trkpt lat="44.98391" lon="2.90798">
        <ele>1040.1999511719</ele>
        <time>2024-01-30T16:15:18.000Z</time>
      </trkpt>
      <trkpt lat="44.98424" lon="2.90759">
        <ele>1041.4000244141</ele>
        <time>2024-01-30T16:15:21.000Z</time>
      </trkpt>
      <trkpt lat="44.98466" lon="2.90732">
        <ele>1042.4000244141</ele>
        <time>2024-01-30T16:15:24.000Z</time>
      </trkpt>
      <trkpt lat="44.98481" lon="2.90725">
        <ele>1043.4000244141</ele>
        <time>2024-01-30T16:15:25.000Z</time>
      </trkpt>
      <trkpt lat="44.98528" lon="2.9071">
        <ele>1044.4000244141</ele>
        <time>2024-01-30T16:15:28.000Z</time>
      </trkpt>
      <trkpt lat="44.98591" lon="2.90691">
        <ele>1045.5999755859</ele>
        <time>2024-01-30T16:15:32.000Z</time>
      </trkpt>
      <trkpt lat="44.98636" lon="2.90676">
        <ele>1046.4000244141</ele>
        <time>2024-01-30T16:15:35.000Z</time>
      </trkpt>
      <trkpt lat="44.9865" lon="2.90672">
        <ele>1046.8000488281</ele>
        <time>2024-01-30T16:15:36.000Z</time>
      </trkpt>
      <trkpt lat="44.98691" lon="2.90651">
        <ele>1048.1999511719</ele>
        <time>2024-01-30T16:15:39.000Z</time>
      </trkpt>
      <trkpt lat="44.98731" lon="2.90615">
        <ele>1049.4000244141</ele>
        <time>2024-01-30T16:15:42.000Z</time>
      </trkpt>
      <trkpt lat="44.98744" lon="2.90601">
        <ele>1049.8000488281</ele>
        <time>2024-01-30T16:15:43.000Z</time>
      </trkpt>
      <trkpt lat="44.9877" lon="2.90575">
        <ele>1050.8000488281</ele>
        <time>2024-01-30T16:15:45.000Z</time>
      </trkpt>
      <trkpt lat="44.98798" lon="2.90546">
        <ele>1052</ele>
        <time>2024-01-30T16:15:47.000Z</time>
      </trkpt>
      <trkpt lat="44.98812" lon="2.90532">
        <ele>1052.5999755859</ele>
        <time>2024-01-30T16:15:48.000Z</time>
      </trkpt>
      <trkpt lat="44.98826" lon="2.90517">
        <ele>1053</ele>
        <time>2024-01-30T16:15:49.000Z</time>
      </trkpt>
      <trkpt lat="44.98855" lon="2.90488">
        <ele>1054.1999511719</ele>
        <time>2024-01-30T16:15:51.000Z</time>
      </trkpt>
      <trkpt lat="44.98917" lon="2.90431">
        <ele>1055.8000488281</ele>
        <time>2024-01-30T16:15:55.000Z</time>
      </trkpt>
      <trkpt lat="44.98961" lon="2.90406">
        <ele>1057</ele>
        <time>2024-01-30T16:15:58.000Z</time>
      </trkpt>
      <trkpt lat="44.98977" lon="2.904">
        <ele>1057.4000244141</ele>
        <time>2024-01-30T16:15:59.000Z</time>
      </trkpt>
      <trkpt lat="44.98992" lon="2.90396">
        <ele>1058</ele>
        <time>2024-01-30T16:16:00.000Z</time>
      </trkpt>
      <trkpt lat="44.99025" lon="2.90389">
        <ele>1059</ele>
        <time>2024-01-30T16:16:02.000Z</time>
      </trkpt>
      <trkpt lat="44.99058" lon="2.90381">
        <ele>1060.4000244141</ele>
        <time>2024-01-30T16:16:04.000Z</time>
      </trkpt>
      <trkpt lat="44.99074" lon="2.90376">
        <ele>1060.8000488281</ele>
        <time>2024-01-30T16:16:05.000Z</time>
      </trkpt>
      <trkpt lat="44.9909" lon="2.90371">
        <ele>1061.4000244141</ele>
        <time>2024-01-30T16:16:06.000Z</time>
      </trkpt>
      <trkpt lat="44.99138" lon="2.90358">
        <ele>1063</ele>
        <time>2024-01-30T16:16:09.000Z</time>
      </trkpt>
      <trkpt lat="44.9915" lon="2.90354">
        <ele>1063.4000244141</ele>
        <time>2024-01-30T16:16:10.000Z</time>
      </trkpt>
      <trkpt lat="44.99179" lon="2.90347">
        <ele>1064.4000244141</ele>
        <time>2024-01-30T16:16:12.000Z</time>
      </trkpt>
      <trkpt lat="44.99222" lon="2.90337">
        <ele>1066.1999511719</ele>
        <time>2024-01-30T16:16:15.000Z</time>
      </trkpt>
      <trkpt lat="44.99249" lon="2.90329">
        <ele>1067</ele>
        <time>2024-01-30T16:16:17.000Z</time>
      </trkpt>
      <trkpt lat="44.99263" lon="2.90326">
        <ele>1067.5999755859</ele>
        <time>2024-01-30T16:16:18.000Z</time>
      </trkpt>
      <trkpt lat="44.9929" lon="2.90318">
        <ele>1068.8000488281</ele>
        <time>2024-01-30T16:16:20.000Z</time>
      </trkpt>
      <trkpt lat="44.99317" lon="2.90311">
        <ele>1069.8000488281</ele>
        <time>2024-01-30T16:16:22.000Z</time>
      </trkpt>
      <trkpt lat="44.9933" lon="2.90308">
        <ele>1070.1999511719</ele>
        <time>2024-01-30T16:16:23.000Z</time>
      </trkpt>
      <trkpt lat="44.99353" lon="2.90302">
        <ele>1071.1999511719</ele>
        <time>2024-01-30T16:16:25.000Z</time>
      </trkpt>
      <trkpt lat="44.99389" lon="2.90297">
        <ele>1072.4000244141</ele>
        <time>2024-01-30T16:16:28.000Z</time>
      </trkpt>
      <trkpt lat="44.99401" lon="2.90297">
        <ele>1073.1999511719</ele>
        <time>2024-01-30T16:16:29.000Z</time>
      </trkpt>
      <trkpt lat="44.99412" lon="2.90299">
        <ele>1073.5999755859</ele>
        <time>2024-01-30T16:16:30.000Z</time>
      </trkpt>
      <trkpt lat="44.99425" lon="2.90303">
        <ele>1073.5999755859</ele>
        <time>2024-01-30T16:16:31.000Z</time>
      </trkpt>
      <trkpt lat="44.99462" lon="2.90313">
        <ele>1075.4000244141</ele>
        <time>2024-01-30T16:16:34.000Z</time>
      </trkpt>
      <trkpt lat="44.99475" lon="2.90313">
        <ele>1075.8000488281</ele>
        <time>2024-01-30T16:16:35.000Z</time>
      </trkpt>
      <trkpt lat="44.99501" lon="2.90307">
        <ele>1077</ele>
        <time>2024-01-30T16:16:37.000Z</time>
      </trkpt>
      <trkpt lat="44.99514" lon="2.903">
        <ele>1077.1999511719</ele>
        <time>2024-01-30T16:16:38.000Z</time>
      </trkpt>
      <trkpt lat="44.99554" lon="2.90277">
        <ele>1078.4000244141</ele>
        <time>2024-01-30T16:16:41.000Z</time>
      </trkpt>
      <trkpt lat="44.99595" lon="2.90254">
        <ele>1079.4000244141</ele>
        <time>2024-01-30T16:16:44.000Z</time>
      </trkpt>
      <trkpt lat="44.99608" lon="2.90248">
        <ele>1079.5999755859</ele>
        <time>2024-01-30T16:16:45.000Z</time>
      </trkpt>
      <trkpt lat="44.99637" lon="2.90243">
        <ele>1080.5999755859</ele>
        <time>2024-01-30T16:16:47.000Z</time>
      </trkpt>
      <trkpt lat="44.99667" lon="2.90247">
        <ele>1081.5999755859</ele>
        <time>2024-01-30T16:16:49.000Z</time>
      </trkpt>
      <trkpt lat="44.99682" lon="2.90251">
        <ele>1082</ele>
        <time>2024-01-30T16:16:50.000Z</time>
      </trkpt>
      <trkpt lat="44.9973" lon="2.90265">
        <ele>1083</ele>
        <time>2024-01-30T16:16:53.000Z</time>
      </trkpt>
      <trkpt lat="44.99778" lon="2.90278">
        <ele>1084.1999511719</ele>
        <time>2024-01-30T16:16:56.000Z</time>
      </trkpt>
      <trkpt lat="44.9981" lon="2.90291">
        <ele>1085.1999511719</ele>
        <time>2024-01-30T16:16:58.000Z</time>
      </trkpt>
      <trkpt lat="44.99841" lon="2.90309">
        <ele>1086</ele>
        <time>2024-01-30T16:17:00.000Z</time>
      </trkpt>
      <trkpt lat="44.99872" lon="2.90333">
        <ele>1086.4000244141</ele>
        <time>2024-01-30T16:17:02.000Z</time>
      </trkpt>
      <trkpt lat="44.99901" lon="2.90356">
        <ele>1087.4000244141</ele>
        <time>2024-01-30T16:17:04.000Z</time>
      </trkpt>
      <trkpt lat="44.99942" lon="2.9039">
        <ele>1088.4000244141</ele>
        <time>2024-01-30T16:17:07.000Z</time>
      </trkpt>
      <trkpt lat="44.99956" lon="2.90399">
        <ele>1088.5999755859</ele>
        <time>2024-01-30T16:17:08.000Z</time>
      </trkpt>
      <trkpt lat="44.99993" lon="2.90422">
        <ele>1089.1999511719</ele>
        <time>2024-01-30T16:17:11.000Z</time>
      </trkpt>
      <trkpt lat="45.00006" lon="2.90426">
        <ele>1089.5999755859</ele>
        <time>2024-01-30T16:17:12.000Z</time>
      </trkpt>
      <trkpt lat="45.00019" lon="2.90428">
        <ele>1090</ele>
        <time>2024-01-30T16:17:13.000Z</time>
      </trkpt>
      <trkpt lat="45.00032" lon="2.90429">
        <ele>1090.4000244141</ele>
        <time>2024-01-30T16:17:14.000Z</time>
      </trkpt>
      <trkpt lat="45.00047" lon="2.90427">
        <ele>1090.8000488281</ele>
        <time>2024-01-30T16:17:15.000Z</time>
      </trkpt>
      <trkpt lat="45.00078" lon="2.90422">
        <ele>1092</ele>
        <time>2024-01-30T16:17:17.000Z</time>
      </trkpt>
      <trkpt lat="45.00145" lon="2.90412">
        <ele>1093.1999511719</ele>
        <time>2024-01-30T16:17:21.000Z</time>
      </trkpt>
      <trkpt lat="45.00162" lon="2.90411">
        <ele>1093.4000244141</ele>
        <time>2024-01-30T16:17:22.000Z</time>
      </trkpt>
      <trkpt lat="45.00223" lon="2.90416">
        <ele>1093.8000488281</ele>
        <time>2024-01-30T16:17:26.000Z</time>
      </trkpt>
      <trkpt lat="45.00279" lon="2.90439">
        <ele>1094.4000244141</ele>
        <time>2024-01-30T16:17:30.000Z</time>
      </trkpt>
      <trkpt lat="45.00332" lon="2.90473">
        <ele>1095.1999511719</ele>
        <time>2024-01-30T16:17:34.000Z</time>
      </trkpt>
      <trkpt lat="45.00357" lon="2.9049">
        <ele>1095.5999755859</ele>
        <time>2024-01-30T16:17:36.000Z</time>
      </trkpt>
      <trkpt lat="45.0037" lon="2.90498">
        <ele>1095.5999755859</ele>
        <time>2024-01-30T16:17:37.000Z</time>
      </trkpt>
      <trkpt lat="45.00414" lon="2.90529">
        <ele>1095.5999755859</ele>
        <time>2024-01-30T16:17:41.000Z</time>
      </trkpt>
      <trkpt lat="45.00445" lon="2.90549">
        <ele>1095.4000244141</ele>
        <time>2024-01-30T16:17:45.000Z</time>
      </trkpt>
      <trkpt lat="45.00455" lon="2.90554">
        <ele>1095</ele>
        <time>2024-01-30T16:17:47.000Z</time>
      </trkpt>
      <trkpt lat="45.00458" lon="2.90555">
        <ele>1095</ele>
        <time>2024-01-30T16:17:48.000Z</time>
      </trkpt>
      <trkpt lat="45.00465" lon="2.90553">
        <ele>1095</ele>
        <time>2024-01-30T16:17:50.000Z</time>
      </trkpt>
      <trkpt lat="45.00469" lon="2.90549">
        <ele>1095.1999511719</ele>
        <time>2024-01-30T16:17:51.000Z</time>
      </trkpt>
      <trkpt lat="45.00477" lon="2.90539">
        <ele>1095.8000488281</ele>
        <time>2024-01-30T16:17:53.000Z</time>
      </trkpt>
      <trkpt lat="45.00483" lon="2.90535">
        <ele>1096.4000244141</ele>
        <time>2024-01-30T16:17:54.000Z</time>
      </trkpt>
      <trkpt lat="45.0049" lon="2.90531">
        <ele>1096.8000488281</ele>
        <time>2024-01-30T16:17:55.000Z</time>
      </trkpt>
      <trkpt lat="45.00513" lon="2.90523">
        <ele>1098.4000244141</ele>
        <time>2024-01-30T16:17:58.000Z</time>
      </trkpt>
      <trkpt lat="45.00532" lon="2.90519">
        <ele>1099.5999755859</ele>
        <time>2024-01-30T16:18:00.000Z</time>
      </trkpt>
      <trkpt lat="45.00552" lon="2.90516">
        <ele>1100.8000488281</ele>
        <time>2024-01-30T16:18:02.000Z</time>
      </trkpt>
      <trkpt lat="45.00572" lon="2.90514">
        <ele>1102.4000244141</ele>
        <time>2024-01-30T16:18:04.000Z</time>
      </trkpt>
      <trkpt lat="45.00602" lon="2.90507">
        <ele>1104</ele>
        <time>2024-01-30T16:18:07.000Z</time>
      </trkpt>
      <trkpt lat="45.00621" lon="2.90502">
        <ele>1105.1999511719</ele>
        <time>2024-01-30T16:18:09.000Z</time>
      </trkpt>
      <trkpt lat="45.00638" lon="2.905">
        <ele>1106.1999511719</ele>
        <time>2024-01-30T16:18:11.000Z</time>
      </trkpt>
      <trkpt lat="45.00646" lon="2.90501">
        <ele>1107</ele>
        <time>2024-01-30T16:18:12.000Z</time>
      </trkpt>
      <trkpt lat="45.0066" lon="2.90505">
        <ele>1107.8000488281</ele>
        <time>2024-01-30T16:18:14.000Z</time>
      </trkpt>
      <trkpt lat="45.00666" lon="2.90508">
        <ele>1108.1999511719</ele>
        <time>2024-01-30T16:18:15.000Z</time>
      </trkpt>
      <trkpt lat="45.00672" lon="2.90511">
        <ele>1108.5999755859</ele>
        <time>2024-01-30T16:18:16.000Z</time>
      </trkpt>
      <trkpt lat="45.00702" lon="2.90523">
        <ele>1109.1999511719</ele>
        <time>2024-01-30T16:18:21.000Z</time>
      </trkpt>
      <trkpt lat="45.00709" lon="2.90524">
        <ele>1109.4000244141</ele>
        <time>2024-01-30T16:18:22.000Z</time>
      </trkpt>
      <trkpt lat="45.00736" lon="2.90524">
        <ele>1109.5999755859</ele>
        <time>2024-01-30T16:18:25.000Z</time>
      </trkpt>
      <trkpt lat="45.00781" lon="2.90521">
        <ele>1109.4000244141</ele>
        <time>2024-01-30T16:18:29.000Z</time>
      </trkpt>
      <trkpt lat="45.00847" lon="2.90514">
        <ele>1108.8000488281</ele>
        <time>2024-01-30T16:18:34.000Z</time>
      </trkpt>
      <trkpt lat="45.00873" lon="2.90509">
        <ele>1107.8000488281</ele>
        <time>2024-01-30T16:18:36.000Z</time>
      </trkpt>
      <trkpt lat="45.00898" lon="2.90507">
        <ele>1107.5999755859</ele>
        <time>2024-01-30T16:18:38.000Z</time>
      </trkpt>
      <trkpt lat="45.00911" lon="2.9051">
        <ele>1107.4000244141</ele>
        <time>2024-01-30T16:18:39.000Z</time>
      </trkpt>
      <trkpt lat="45.00922" lon="2.90515">
        <ele>1107.1999511719</ele>
        <time>2024-01-30T16:18:40.000Z</time>
      </trkpt>
      <trkpt lat="45.00932" lon="2.90524">
        <ele>1107.1999511719</ele>
        <time>2024-01-30T16:18:41.000Z</time>
      </trkpt>
      <trkpt lat="45.00941" lon="2.90536">
        <ele>1107.1999511719</ele>
        <time>2024-01-30T16:18:42.000Z</time>
      </trkpt>
      <trkpt lat="45.00948" lon="2.90551">
        <ele>1107.4000244141</ele>
        <time>2024-01-30T16:18:43.000Z</time>
      </trkpt>
      <trkpt lat="45.00953" lon="2.90568">
        <ele>1107.4000244141</ele>
        <time>2024-01-30T16:18:44.000Z</time>
      </trkpt>
      <trkpt lat="45.0096" lon="2.90606">
        <ele>1107.5999755859</ele>
        <time>2024-01-30T16:18:46.000Z</time>
      </trkpt>
      <trkpt lat="45.00974" lon="2.90686">
        <ele>1108.4000244141</ele>
        <time>2024-01-30T16:18:50.000Z</time>
      </trkpt>
      <trkpt lat="45.00977" lon="2.90707">
        <ele>1108.5999755859</ele>
        <time>2024-01-30T16:18:51.000Z</time>
      </trkpt>
      <trkpt lat="45.00985" lon="2.90746">
        <ele>1109</ele>
        <time>2024-01-30T16:18:53.000Z</time>
      </trkpt>
      <trkpt lat="45.00997" lon="2.90781">
        <ele>1109.4000244141</ele>
        <time>2024-01-30T16:18:55.000Z</time>
      </trkpt>
      <trkpt lat="45.01015" lon="2.90812">
        <ele>1110</ele>
        <time>2024-01-30T16:18:57.000Z</time>
      </trkpt>
      <trkpt lat="45.01025" lon="2.90826">
        <ele>1110</ele>
        <time>2024-01-30T16:18:58.000Z</time>
      </trkpt>
      <trkpt lat="45.01074" lon="2.90871">
        <ele>1110.4000244141</ele>
        <time>2024-01-30T16:19:02.000Z</time>
      </trkpt>
      <trkpt lat="45.01102" lon="2.90883">
        <ele>1110.1999511719</ele>
        <time>2024-01-30T16:19:04.000Z</time>
      </trkpt>
      <trkpt lat="45.01116" lon="2.90886">
        <ele>1110</ele>
        <time>2024-01-30T16:19:05.000Z</time>
      </trkpt>
      <trkpt lat="45.01131" lon="2.90886">
        <ele>1109.4000244141</ele>
        <time>2024-01-30T16:19:06.000Z</time>
      </trkpt>
      <trkpt lat="45.01146" lon="2.90885">
        <ele>1109</ele>
        <time>2024-01-30T16:19:07.000Z</time>
      </trkpt>
      <trkpt lat="45.01161" lon="2.90884">
        <ele>1108.4000244141</ele>
        <time>2024-01-30T16:19:08.000Z</time>
      </trkpt>
      <trkpt lat="45.01176" lon="2.90882">
        <ele>1107.8000488281</ele>
        <time>2024-01-30T16:19:09.000Z</time>
      </trkpt>
      <trkpt lat="45.01222" lon="2.90875">
        <ele>1106.1999511719</ele>
        <time>2024-01-30T16:19:12.000Z</time>
      </trkpt>
      <trkpt lat="45.01248" lon="2.90868">
        <ele>1104</ele>
        <time>2024-01-30T16:19:14.000Z</time>
      </trkpt>
      <trkpt lat="45.01259" lon="2.90862">
        <ele>1103.1999511719</ele>
        <time>2024-01-30T16:19:15.000Z</time>
      </trkpt>
      <trkpt lat="45.01268" lon="2.90853">
        <ele>1103</ele>
        <time>2024-01-30T16:19:16.000Z</time>
      </trkpt>
      <trkpt lat="45.01277" lon="2.90843">
        <ele>1102.4000244141</ele>
        <time>2024-01-30T16:19:17.000Z</time>
      </trkpt>
      <trkpt lat="45.01285" lon="2.90832">
        <ele>1101.8000488281</ele>
        <time>2024-01-30T16:19:18.000Z</time>
      </trkpt>
      <trkpt lat="45.01292" lon="2.9082">
        <ele>1101.5999755859</ele>
        <time>2024-01-30T16:19:19.000Z</time>
      </trkpt>
      <trkpt lat="45.01305" lon="2.90794">
        <ele>1100.8000488281</ele>
        <time>2024-01-30T16:19:21.000Z</time>
      </trkpt>
      <trkpt lat="45.01314" lon="2.90785">
        <ele>1100.1999511719</ele>
        <time>2024-01-30T16:19:22.000Z</time>
      </trkpt>
      <trkpt lat="45.01324" lon="2.90779">
        <ele>1099.4000244141</ele>
        <time>2024-01-30T16:19:23.000Z</time>
      </trkpt>
      <trkpt lat="45.01336" lon="2.90777">
        <ele>1099</ele>
        <time>2024-01-30T16:19:24.000Z</time>
      </trkpt>
      <trkpt lat="45.01346" lon="2.9078">
        <ele>1098.5999755859</ele>
        <time>2024-01-30T16:19:25.000Z</time>
      </trkpt>
      <trkpt lat="45.01356" lon="2.90789">
        <ele>1098</ele>
        <time>2024-01-30T16:19:26.000Z</time>
      </trkpt>
      <trkpt lat="45.01364" lon="2.90802">
        <ele>1097.4000244141</ele>
        <time>2024-01-30T16:19:27.000Z</time>
      </trkpt>
      <trkpt lat="45.01375" lon="2.90833">
        <ele>1097</ele>
        <time>2024-01-30T16:19:29.000Z</time>
      </trkpt>
      <trkpt lat="45.01402" lon="2.9091">
        <ele>1097.4000244141</ele>
        <time>2024-01-30T16:19:35.000Z</time>
      </trkpt>
      <trkpt lat="45.01414" lon="2.90947">
        <ele>1097.5999755859</ele>
        <time>2024-01-30T16:19:39.000Z</time>
      </trkpt>
      <trkpt lat="45.01423" lon="2.90977">
        <ele>1098</ele>
        <time>2024-01-30T16:19:43.000Z</time>
      </trkpt>
      <trkpt lat="45.01428" lon="2.90996">
        <ele>1099.1999511719</ele>
        <time>2024-01-30T16:19:45.000Z</time>
      </trkpt>
      <trkpt lat="45.01429" lon="2.91006">
        <ele>1099.5999755859</ele>
        <time>2024-01-30T16:19:46.000Z</time>
      </trkpt>
      <trkpt lat="45.0143" lon="2.91018">
        <ele>1100</ele>
        <time>2024-01-30T16:19:47.000Z</time>
      </trkpt>
      <trkpt lat="45.0143" lon="2.9103">
        <ele>1100.4000244141</ele>
        <time>2024-01-30T16:19:48.000Z</time>
      </trkpt>
      <trkpt lat="45.01427" lon="2.91068">
        <ele>1101.1999511719</ele>
        <time>2024-01-30T16:19:51.000Z</time>
      </trkpt>
      <trkpt lat="45.01426" lon="2.91095">
        <ele>1101.4000244141</ele>
        <time>2024-01-30T16:19:54.000Z</time>
      </trkpt>
      <trkpt lat="45.01425" lon="2.91102">
        <ele>1101.4000244141</ele>
        <time>2024-01-30T16:19:55.000Z</time>
      </trkpt>
      <trkpt lat="45.01423" lon="2.91137">
        <ele>1102.4000244141</ele>
        <time>2024-01-30T16:19:59.000Z</time>
      </trkpt>
      <trkpt lat="45.01424" lon="2.91149">
        <ele>1102.8000488281</ele>
        <time>2024-01-30T16:20:00.000Z</time>
      </trkpt>
      <trkpt lat="45.01433" lon="2.91191">
        <ele>1104</ele>
        <time>2024-01-30T16:20:03.000Z</time>
      </trkpt>
      <trkpt lat="45.01452" lon="2.91259">
        <ele>1104.8000488281</ele>
        <time>2024-01-30T16:20:07.000Z</time>
      </trkpt>
      <trkpt lat="45.01457" lon="2.91276">
        <ele>1105.1999511719</ele>
        <time>2024-01-30T16:20:08.000Z</time>
      </trkpt>
      <trkpt lat="45.01486" lon="2.91358">
        <ele>1106</ele>
        <time>2024-01-30T16:20:13.000Z</time>
      </trkpt>
      <trkpt lat="45.01516" lon="2.91422">
        <ele>1105.4000244141</ele>
        <time>2024-01-30T16:20:17.000Z</time>
      </trkpt>
      <trkpt lat="45.01526" lon="2.91436">
        <ele>1104.8000488281</ele>
        <time>2024-01-30T16:20:18.000Z</time>
      </trkpt>
      <trkpt lat="45.01537" lon="2.91448">
        <ele>1104.1999511719</ele>
        <time>2024-01-30T16:20:19.000Z</time>
      </trkpt>
      <trkpt lat="45.0155" lon="2.91457">
        <ele>1103.5999755859</ele>
        <time>2024-01-30T16:20:20.000Z</time>
      </trkpt>
      <trkpt lat="45.01563" lon="2.91465">
        <ele>1103</ele>
        <time>2024-01-30T16:20:21.000Z</time>
      </trkpt>
      <trkpt lat="45.01591" lon="2.91473">
        <ele>1102.4000244141</ele>
        <time>2024-01-30T16:20:23.000Z</time>
      </trkpt>
      <trkpt lat="45.01605" lon="2.91472">
        <ele>1101.8000488281</ele>
        <time>2024-01-30T16:20:24.000Z</time>
      </trkpt>
      <trkpt lat="45.0162" lon="2.91468">
        <ele>1101.1999511719</ele>
        <time>2024-01-30T16:20:25.000Z</time>
      </trkpt>
      <trkpt lat="45.01634" lon="2.91462">
        <ele>1100.5999755859</ele>
        <time>2024-01-30T16:20:26.000Z</time>
      </trkpt>
      <trkpt lat="45.01647" lon="2.91454">
        <ele>1100</ele>
        <time>2024-01-30T16:20:27.000Z</time>
      </trkpt>
      <trkpt lat="45.01688" lon="2.91426">
        <ele>1098.5999755859</ele>
        <time>2024-01-30T16:20:30.000Z</time>
      </trkpt>
      <trkpt lat="45.0173" lon="2.914">
        <ele>1097.1999511719</ele>
        <time>2024-01-30T16:20:33.000Z</time>
      </trkpt>
      <trkpt lat="45.01755" lon="2.91385">
        <ele>1095.8000488281</ele>
        <time>2024-01-30T16:20:35.000Z</time>
      </trkpt>
      <trkpt lat="45.01776" lon="2.91366">
        <ele>1094.5999755859</ele>
        <time>2024-01-30T16:20:37.000Z</time>
      </trkpt>
      <trkpt lat="45.01796" lon="2.91342">
        <ele>1093.8000488281</ele>
        <time>2024-01-30T16:20:39.000Z</time>
      </trkpt>
      <trkpt lat="45.01806" lon="2.91328">
        <ele>1093.1999511719</ele>
        <time>2024-01-30T16:20:40.000Z</time>
      </trkpt>
      <trkpt lat="45.01824" lon="2.91298">
        <ele>1092.1999511719</ele>
        <time>2024-01-30T16:20:42.000Z</time>
      </trkpt>
      <trkpt lat="45.01851" lon="2.9125">
        <ele>1090.8000488281</ele>
        <time>2024-01-30T16:20:45.000Z</time>
      </trkpt>
      <trkpt lat="45.01868" lon="2.91218">
        <ele>1089.5999755859</ele>
        <time>2024-01-30T16:20:47.000Z</time>
      </trkpt>
      <trkpt lat="45.01875" lon="2.91201">
        <ele>1089</ele>
        <time>2024-01-30T16:20:48.000Z</time>
      </trkpt>
      <trkpt lat="45.01881" lon="2.91183">
        <ele>1087.8000488281</ele>
        <time>2024-01-30T16:20:49.000Z</time>
      </trkpt>
      <trkpt lat="45.01893" lon="2.91127">
        <ele>1086.4000244141</ele>
        <time>2024-01-30T16:20:52.000Z</time>
      </trkpt>
      <trkpt lat="45.01897" lon="2.91109">
        <ele>1085.5999755859</ele>
        <time>2024-01-30T16:20:53.000Z</time>
      </trkpt>
      <trkpt lat="45.01903" lon="2.91091">
        <ele>1085</ele>
        <time>2024-01-30T16:20:54.000Z</time>
      </trkpt>
      <trkpt lat="45.01916" lon="2.91056">
        <ele>1083.5999755859</ele>
        <time>2024-01-30T16:20:56.000Z</time>
      </trkpt>
      <trkpt lat="45.01922" lon="2.9104">
        <ele>1083</ele>
        <time>2024-01-30T16:20:57.000Z</time>
      </trkpt>
      <trkpt lat="45.01929" lon="2.91026">
        <ele>1082</ele>
        <time>2024-01-30T16:20:58.000Z</time>
      </trkpt>
      <trkpt lat="45.01939" lon="2.91003">
        <ele>1079.8000488281</ele>
        <time>2024-01-30T16:21:00.000Z</time>
      </trkpt>
      <trkpt lat="45.01944" lon="2.90994">
        <ele>1079.4000244141</ele>
        <time>2024-01-30T16:21:01.000Z</time>
      </trkpt>
      <trkpt lat="45.01949" lon="2.90987">
        <ele>1078.4000244141</ele>
        <time>2024-01-30T16:21:02.000Z</time>
      </trkpt>
      <trkpt lat="45.01956" lon="2.90984">
        <ele>1078.1999511719</ele>
        <time>2024-01-30T16:21:03.000Z</time>
      </trkpt>
      <trkpt lat="45.01968" lon="2.90993">
        <ele>1077.1999511719</ele>
        <time>2024-01-30T16:21:05.000Z</time>
      </trkpt>
      <trkpt lat="45.01972" lon="2.91014">
        <ele>1077.1999511719</ele>
        <time>2024-01-30T16:21:07.000Z</time>
      </trkpt>
      <trkpt lat="45.01977" lon="2.91075">
        <ele>1077.8000488281</ele>
        <time>2024-01-30T16:21:11.000Z</time>
      </trkpt>
      <trkpt lat="45.01984" lon="2.91143">
        <ele>1078.1999511719</ele>
        <time>2024-01-30T16:21:15.000Z</time>
      </trkpt>
      <trkpt lat="45.01989" lon="2.91175">
        <ele>1078.5999755859</ele>
        <time>2024-01-30T16:21:17.000Z</time>
      </trkpt>
      <trkpt lat="45.01998" lon="2.91199">
        <ele>1079</ele>
        <time>2024-01-30T16:21:19.000Z</time>
      </trkpt>
      <trkpt lat="45.02006" lon="2.91209">
        <ele>1079.1999511719</ele>
        <time>2024-01-30T16:21:20.000Z</time>
      </trkpt>
      <trkpt lat="45.02015" lon="2.91217">
        <ele>1079.1999511719</ele>
        <time>2024-01-30T16:21:21.000Z</time>
      </trkpt>
      <trkpt lat="45.02027" lon="2.91222">
        <ele>1079.5999755859</ele>
        <time>2024-01-30T16:21:22.000Z</time>
      </trkpt>
      <trkpt lat="45.02053" lon="2.91227">
        <ele>1080.5999755859</ele>
        <time>2024-01-30T16:21:24.000Z</time>
      </trkpt>
      <trkpt lat="45.02083" lon="2.91233">
        <ele>1080.8000488281</ele>
        <time>2024-01-30T16:21:26.000Z</time>
      </trkpt>
      <trkpt lat="45.02115" lon="2.91238">
        <ele>1081.8000488281</ele>
        <time>2024-01-30T16:21:28.000Z</time>
      </trkpt>
      <trkpt lat="45.02144" lon="2.91242">
        <ele>1082.1999511719</ele>
        <time>2024-01-30T16:21:30.000Z</time>
      </trkpt>
      <trkpt lat="45.02172" lon="2.91238">
        <ele>1082.4000244141</ele>
        <time>2024-01-30T16:21:32.000Z</time>
      </trkpt>
      <trkpt lat="45.02187" lon="2.91233">
        <ele>1082.5999755859</ele>
        <time>2024-01-30T16:21:33.000Z</time>
      </trkpt>
      <trkpt lat="45.02203" lon="2.91227">
        <ele>1082.8000488281</ele>
        <time>2024-01-30T16:21:34.000Z</time>
      </trkpt>
      <trkpt lat="45.02247" lon="2.91219">
        <ele>1083.5999755859</ele>
        <time>2024-01-30T16:21:37.000Z</time>
      </trkpt>
      <trkpt lat="45.02274" lon="2.91228">
        <ele>1083.5999755859</ele>
        <time>2024-01-30T16:21:39.000Z</time>
      </trkpt>
      <trkpt lat="45.02284" lon="2.9124">
        <ele>1083.8000488281</ele>
        <time>2024-01-30T16:21:40.000Z</time>
      </trkpt>
      <trkpt lat="45.02293" lon="2.91254">
        <ele>1084.1999511719</ele>
        <time>2024-01-30T16:21:41.000Z</time>
      </trkpt>
      <trkpt lat="45.02321" lon="2.91299">
        <ele>1085</ele>
        <time>2024-01-30T16:21:44.000Z</time>
      </trkpt>
      <trkpt lat="45.02333" lon="2.91312">
        <ele>1085</ele>
        <time>2024-01-30T16:21:45.000Z</time>
      </trkpt>
      <trkpt lat="45.02357" lon="2.9133">
        <ele>1085.1999511719</ele>
        <time>2024-01-30T16:21:47.000Z</time>
      </trkpt>
      <trkpt lat="45.02371" lon="2.91335">
        <ele>1085.5999755859</ele>
        <time>2024-01-30T16:21:48.000Z</time>
      </trkpt>
      <trkpt lat="45.02386" lon="2.91339">
        <ele>1086</ele>
        <time>2024-01-30T16:21:49.000Z</time>
      </trkpt>
      <trkpt lat="45.02415" lon="2.91337">
        <ele>1086.8000488281</ele>
        <time>2024-01-30T16:21:51.000Z</time>
      </trkpt>
      <trkpt lat="45.0243" lon="2.91334">
        <ele>1087.1999511719</ele>
        <time>2024-01-30T16:21:52.000Z</time>
      </trkpt>
      <trkpt lat="45.02479" lon="2.91321">
        <ele>1087.8000488281</ele>
        <time>2024-01-30T16:21:55.000Z</time>
      </trkpt>
      <trkpt lat="45.02496" lon="2.91317">
        <ele>1088.1999511719</ele>
        <time>2024-01-30T16:21:56.000Z</time>
      </trkpt>
      <trkpt lat="45.02561" lon="2.913">
        <ele>1088.8000488281</ele>
        <time>2024-01-30T16:22:00.000Z</time>
      </trkpt>
      <trkpt lat="45.02591" lon="2.91294">
        <ele>1089</ele>
        <time>2024-01-30T16:22:02.000Z</time>
      </trkpt>
      <trkpt lat="45.02619" lon="2.91295">
        <ele>1089</ele>
        <time>2024-01-30T16:22:04.000Z</time>
      </trkpt>
      <trkpt lat="45.02632" lon="2.913">
        <ele>1089.1999511719</ele>
        <time>2024-01-30T16:22:05.000Z</time>
      </trkpt>
      <trkpt lat="45.02644" lon="2.91307">
        <ele>1089.4000244141</ele>
        <time>2024-01-30T16:22:06.000Z</time>
      </trkpt>
      <trkpt lat="45.02653" lon="2.91318">
        <ele>1089.5999755859</ele>
        <time>2024-01-30T16:22:07.000Z</time>
      </trkpt>
      <trkpt lat="45.0266" lon="2.91331">
        <ele>1089.5999755859</ele>
        <time>2024-01-30T16:22:08.000Z</time>
      </trkpt>
      <trkpt lat="45.02673" lon="2.91362">
        <ele>1090.5999755859</ele>
        <time>2024-01-30T16:22:10.000Z</time>
      </trkpt>
      <trkpt lat="45.02682" lon="2.91417">
        <ele>1092.4000244141</ele>
        <time>2024-01-30T16:22:13.000Z</time>
      </trkpt>
      <trkpt lat="45.0269" lon="2.91472">
        <ele>1094</ele>
        <time>2024-01-30T16:22:16.000Z</time>
      </trkpt>
      <trkpt lat="45.02697" lon="2.91509">
        <ele>1095.4000244141</ele>
        <time>2024-01-30T16:22:18.000Z</time>
      </trkpt>
      <trkpt lat="45.02707" lon="2.91544">
        <ele>1096.5999755859</ele>
        <time>2024-01-30T16:22:20.000Z</time>
      </trkpt>
      <trkpt lat="45.02718" lon="2.91578">
        <ele>1098.1999511719</ele>
        <time>2024-01-30T16:22:22.000Z</time>
      </trkpt>
      <trkpt lat="45.02724" lon="2.91594">
        <ele>1098.5999755859</ele>
        <time>2024-01-30T16:22:23.000Z</time>
      </trkpt>
      <trkpt lat="45.0273" lon="2.91612">
        <ele>1099.1999511719</ele>
        <time>2024-01-30T16:22:24.000Z</time>
      </trkpt>
      <trkpt lat="45.02743" lon="2.91648">
        <ele>1100.4000244141</ele>
        <time>2024-01-30T16:22:26.000Z</time>
      </trkpt>
      <trkpt lat="45.02757" lon="2.91684">
        <ele>1101.5999755859</ele>
        <time>2024-01-30T16:22:28.000Z</time>
      </trkpt>
      <trkpt lat="45.02764" lon="2.91702">
        <ele>1101.5999755859</ele>
        <time>2024-01-30T16:22:29.000Z</time>
      </trkpt>
      <trkpt lat="45.02788" lon="2.91754">
        <ele>1101.5999755859</ele>
        <time>2024-01-30T16:22:32.000Z</time>
      </trkpt>
      <trkpt lat="45.02798" lon="2.91769">
        <ele>1101.4000244141</ele>
        <time>2024-01-30T16:22:33.000Z</time>
      </trkpt>
      <trkpt lat="45.02809" lon="2.91782">
        <ele>1101.4000244141</ele>
        <time>2024-01-30T16:22:34.000Z</time>
      </trkpt>
      <trkpt lat="45.02834" lon="2.91805">
        <ele>1101.1999511719</ele>
        <time>2024-01-30T16:22:36.000Z</time>
      </trkpt>
      <trkpt lat="45.02888" lon="2.91849">
        <ele>1100</ele>
        <time>2024-01-30T16:22:40.000Z</time>
      </trkpt>
      <trkpt lat="45.02902" lon="2.91861">
        <ele>1099.8000488281</ele>
        <time>2024-01-30T16:22:41.000Z</time>
      </trkpt>
      <trkpt lat="45.02931" lon="2.9188">
        <ele>1098.5999755859</ele>
        <time>2024-01-30T16:22:43.000Z</time>
      </trkpt>
      <trkpt lat="45.02961" lon="2.91892">
        <ele>1097.8000488281</ele>
        <time>2024-01-30T16:22:45.000Z</time>
      </trkpt>
      <trkpt lat="45.02976" lon="2.91898">
        <ele>1097.1999511719</ele>
        <time>2024-01-30T16:22:46.000Z</time>
      </trkpt>
      <trkpt lat="45.02992" lon="2.91903">
        <ele>1096.1999511719</ele>
        <time>2024-01-30T16:22:47.000Z</time>
      </trkpt>
      <trkpt lat="45.03007" lon="2.91909">
        <ele>1094.5999755859</ele>
        <time>2024-01-30T16:22:48.000Z</time>
      </trkpt>
      <trkpt lat="45.03037" lon="2.91917">
        <ele>1094</ele>
        <time>2024-01-30T16:22:50.000Z</time>
      </trkpt>
      <trkpt lat="45.03052" lon="2.91917">
        <ele>1092.8000488281</ele>
        <time>2024-01-30T16:22:51.000Z</time>
      </trkpt>
      <trkpt lat="45.03083" lon="2.91914">
        <ele>1091.5999755859</ele>
        <time>2024-01-30T16:22:53.000Z</time>
      </trkpt>
      <trkpt lat="45.03099" lon="2.91913">
        <ele>1090.5999755859</ele>
        <time>2024-01-30T16:22:54.000Z</time>
      </trkpt>
      <trkpt lat="45.03113" lon="2.91916">
        <ele>1090</ele>
        <time>2024-01-30T16:22:55.000Z</time>
      </trkpt>
      <trkpt lat="45.0314" lon="2.9193">
        <ele>1088.8000488281</ele>
        <time>2024-01-30T16:22:57.000Z</time>
      </trkpt>
      <trkpt lat="45.03154" lon="2.91941">
        <ele>1088.4000244141</ele>
        <time>2024-01-30T16:22:58.000Z</time>
      </trkpt>
      <trkpt lat="45.03168" lon="2.91951">
        <ele>1087.5999755859</ele>
        <time>2024-01-30T16:22:59.000Z</time>
      </trkpt>
      <trkpt lat="45.03183" lon="2.91963">
        <ele>1086.5999755859</ele>
        <time>2024-01-30T16:23:00.000Z</time>
      </trkpt>
      <trkpt lat="45.03212" lon="2.91985">
        <ele>1085.1999511719</ele>
        <time>2024-01-30T16:23:02.000Z</time>
      </trkpt>
      <trkpt lat="45.03225" lon="2.91996">
        <ele>1085</ele>
        <time>2024-01-30T16:23:03.000Z</time>
      </trkpt>
      <trkpt lat="45.03237" lon="2.92006">
        <ele>1083.8000488281</ele>
        <time>2024-01-30T16:23:04.000Z</time>
      </trkpt>
      <trkpt lat="45.03247" lon="2.92014">
        <ele>1082</ele>
        <time>2024-01-30T16:23:05.000Z</time>
      </trkpt>
      <trkpt lat="45.03257" lon="2.92019">
        <ele>1081.4000244141</ele>
        <time>2024-01-30T16:23:06.000Z</time>
      </trkpt>
      <trkpt lat="45.03267" lon="2.9202">
        <ele>1080.5999755859</ele>
        <time>2024-01-30T16:23:07.000Z</time>
      </trkpt>
      <trkpt lat="45.03277" lon="2.92018">
        <ele>1080.4000244141</ele>
        <time>2024-01-30T16:23:08.000Z</time>
      </trkpt>
      <trkpt lat="45.03286" lon="2.92012">
        <ele>1079.5999755859</ele>
        <time>2024-01-30T16:23:09.000Z</time>
      </trkpt>
      <trkpt lat="45.03295" lon="2.92004">
        <ele>1079.1999511719</ele>
        <time>2024-01-30T16:23:10.000Z</time>
      </trkpt>
      <trkpt lat="45.03305" lon="2.91993">
        <ele>1079</ele>
        <time>2024-01-30T16:23:11.000Z</time>
      </trkpt>
      <trkpt lat="45.03323" lon="2.91969">
        <ele>1078.1999511719</ele>
        <time>2024-01-30T16:23:13.000Z</time>
      </trkpt>
      <trkpt lat="45.03343" lon="2.91943">
        <ele>1077.1999511719</ele>
        <time>2024-01-30T16:23:15.000Z</time>
      </trkpt>
      <trkpt lat="45.03364" lon="2.91921">
        <ele>1076</ele>
        <time>2024-01-30T16:23:17.000Z</time>
      </trkpt>
      <trkpt lat="45.03386" lon="2.91904">
        <ele>1074.5999755859</ele>
        <time>2024-01-30T16:23:19.000Z</time>
      </trkpt>
      <trkpt lat="45.0341" lon="2.91898">
        <ele>1074.1999511719</ele>
        <time>2024-01-30T16:23:21.000Z</time>
      </trkpt>
      <trkpt lat="45.03421" lon="2.91899">
        <ele>1073.5999755859</ele>
        <time>2024-01-30T16:23:22.000Z</time>
      </trkpt>
      <trkpt lat="45.0343" lon="2.91908">
        <ele>1072.8000488281</ele>
        <time>2024-01-30T16:23:23.000Z</time>
      </trkpt>
      <trkpt lat="45.03442" lon="2.91942">
        <ele>1072.5999755859</ele>
        <time>2024-01-30T16:23:25.000Z</time>
      </trkpt>
      <trkpt lat="45.03456" lon="2.92004">
        <ele>1073.4000244141</ele>
        <time>2024-01-30T16:23:28.000Z</time>
      </trkpt>
      <trkpt lat="45.03475" lon="2.92098">
        <ele>1075</ele>
        <time>2024-01-30T16:23:32.000Z</time>
      </trkpt>
      <trkpt lat="45.03482" lon="2.92121">
        <ele>1075.8000488281</ele>
        <time>2024-01-30T16:23:33.000Z</time>
      </trkpt>
      <trkpt lat="45.03498" lon="2.9219">
        <ele>1076.1999511719</ele>
        <time>2024-01-30T16:23:36.000Z</time>
      </trkpt>
      <trkpt lat="45.03513" lon="2.92254">
        <ele>1076.8000488281</ele>
        <time>2024-01-30T16:23:39.000Z</time>
      </trkpt>
      <trkpt lat="45.03534" lon="2.92333">
        <ele>1077</ele>
        <time>2024-01-30T16:23:43.000Z</time>
      </trkpt>
      <trkpt lat="45.03548" lon="2.92389">
        <ele>1076.5999755859</ele>
        <time>2024-01-30T16:23:46.000Z</time>
      </trkpt>
      <trkpt lat="45.03568" lon="2.92459">
        <ele>1076</ele>
        <time>2024-01-30T16:23:50.000Z</time>
      </trkpt>
      <trkpt lat="45.03576" lon="2.92474">
        <ele>1075.5999755859</ele>
        <time>2024-01-30T16:23:51.000Z</time>
      </trkpt>
      <trkpt lat="45.03586" lon="2.92487">
        <ele>1074.8000488281</ele>
        <time>2024-01-30T16:23:52.000Z</time>
      </trkpt>
      <trkpt lat="45.03597" lon="2.92496">
        <ele>1074.5999755859</ele>
        <time>2024-01-30T16:23:53.000Z</time>
      </trkpt>
      <trkpt lat="45.03611" lon="2.92502">
        <ele>1073.8000488281</ele>
        <time>2024-01-30T16:23:54.000Z</time>
      </trkpt>
      <trkpt lat="45.03638" lon="2.92505">
        <ele>1072.8000488281</ele>
        <time>2024-01-30T16:23:56.000Z</time>
      </trkpt>
      <trkpt lat="45.03651" lon="2.92502">
        <ele>1072.4000244141</ele>
        <time>2024-01-30T16:23:57.000Z</time>
      </trkpt>
      <trkpt lat="45.03679" lon="2.92488">
        <ele>1071.4000244141</ele>
        <time>2024-01-30T16:23:59.000Z</time>
      </trkpt>
      <trkpt lat="45.03694" lon="2.9248">
        <ele>1071.4000244141</ele>
        <time>2024-01-30T16:24:00.000Z</time>
      </trkpt>
      <trkpt lat="45.03724" lon="2.9247">
        <ele>1070.4000244141</ele>
        <time>2024-01-30T16:24:02.000Z</time>
      </trkpt>
      <trkpt lat="45.03739" lon="2.92468">
        <ele>1069.8000488281</ele>
        <time>2024-01-30T16:24:03.000Z</time>
      </trkpt>
      <trkpt lat="45.03766" lon="2.92474">
        <ele>1069.1999511719</ele>
        <time>2024-01-30T16:24:05.000Z</time>
      </trkpt>
      <trkpt lat="45.03785" lon="2.92498">
        <ele>1069</ele>
        <time>2024-01-30T16:24:07.000Z</time>
      </trkpt>
      <trkpt lat="45.03796" lon="2.92535">
        <ele>1069</ele>
        <time>2024-01-30T16:24:09.000Z</time>
      </trkpt>
      <trkpt lat="45.038" lon="2.92556">
        <ele>1069.1999511719</ele>
        <time>2024-01-30T16:24:10.000Z</time>
      </trkpt>
      <trkpt lat="45.03814" lon="2.9262">
        <ele>1070.4000244141</ele>
        <time>2024-01-30T16:24:13.000Z</time>
      </trkpt>
      <trkpt lat="45.03822" lon="2.92639">
        <ele>1071</ele>
        <time>2024-01-30T16:24:14.000Z</time>
      </trkpt>
      <trkpt lat="45.0383" lon="2.92658">
        <ele>1071.5999755859</ele>
        <time>2024-01-30T16:24:15.000Z</time>
      </trkpt>
      <trkpt lat="45.0384" lon="2.92675">
        <ele>1071.5999755859</ele>
        <time>2024-01-30T16:24:16.000Z</time>
      </trkpt>
      <trkpt lat="45.0385" lon="2.92691">
        <ele>1071.5999755859</ele>
        <time>2024-01-30T16:24:17.000Z</time>
      </trkpt>
      <trkpt lat="45.03861" lon="2.92705">
        <ele>1071.8000488281</ele>
        <time>2024-01-30T16:24:18.000Z</time>
      </trkpt>
      <trkpt lat="45.03889" lon="2.92725">
        <ele>1071.8000488281</ele>
        <time>2024-01-30T16:24:20.000Z</time>
      </trkpt>
      <trkpt lat="45.03952" lon="2.92751">
        <ele>1072.1999511719</ele>
        <time>2024-01-30T16:24:24.000Z</time>
      </trkpt>
      <trkpt lat="45.04017" lon="2.92777">
        <ele>1072.4000244141</ele>
        <time>2024-01-30T16:24:28.000Z</time>
      </trkpt>
      <trkpt lat="45.04049" lon="2.9279">
        <ele>1072.8000488281</ele>
        <time>2024-01-30T16:24:30.000Z</time>
      </trkpt>
      <trkpt lat="45.04082" lon="2.92804">
        <ele>1073.5999755859</ele>
        <time>2024-01-30T16:24:32.000Z</time>
      </trkpt>
      <trkpt lat="45.04114" lon="2.92816">
        <ele>1074</ele>
        <time>2024-01-30T16:24:34.000Z</time>
      </trkpt>
      <trkpt lat="45.04146" lon="2.92829">
        <ele>1075</ele>
        <time>2024-01-30T16:24:36.000Z</time>
      </trkpt>
      <trkpt lat="45.04178" lon="2.92843">
        <ele>1076.1999511719</ele>
        <time>2024-01-30T16:24:38.000Z</time>
      </trkpt>
      <trkpt lat="45.04225" lon="2.92863">
        <ele>1077.1999511719</ele>
        <time>2024-01-30T16:24:41.000Z</time>
      </trkpt>
      <trkpt lat="45.04283" lon="2.9289">
        <ele>1077.1999511719</ele>
        <time>2024-01-30T16:24:45.000Z</time>
      </trkpt>
      <trkpt lat="45.04296" lon="2.92892">
        <ele>1076.4000244141</ele>
        <time>2024-01-30T16:24:46.000Z</time>
      </trkpt>
      <trkpt lat="45.04309" lon="2.9289">
        <ele>1075.4000244141</ele>
        <time>2024-01-30T16:24:47.000Z</time>
      </trkpt>
      <trkpt lat="45.0432" lon="2.92884">
        <ele>1074.5999755859</ele>
        <time>2024-01-30T16:24:48.000Z</time>
      </trkpt>
      <trkpt lat="45.04331" lon="2.92874">
        <ele>1074.1999511719</ele>
        <time>2024-01-30T16:24:49.000Z</time>
      </trkpt>
      <trkpt lat="45.04341" lon="2.9286">
        <ele>1074</ele>
        <time>2024-01-30T16:24:50.000Z</time>
      </trkpt>
      <trkpt lat="45.0437" lon="2.92814">
        <ele>1072.8000488281</ele>
        <time>2024-01-30T16:24:53.000Z</time>
      </trkpt>
      <trkpt lat="45.04382" lon="2.92801">
        <ele>1072.4000244141</ele>
        <time>2024-01-30T16:24:54.000Z</time>
      </trkpt>
      <trkpt lat="45.04407" lon="2.92776">
        <ele>1071</ele>
        <time>2024-01-30T16:24:56.000Z</time>
      </trkpt>
      <trkpt lat="45.0442" lon="2.92766">
        <ele>1070.5999755859</ele>
        <time>2024-01-30T16:24:57.000Z</time>
      </trkpt>
      <trkpt lat="45.04432" lon="2.92759">
        <ele>1069.1999511719</ele>
        <time>2024-01-30T16:24:58.000Z</time>
      </trkpt>
      <trkpt lat="45.04444" lon="2.92754">
        <ele>1068.4000244141</ele>
        <time>2024-01-30T16:24:59.000Z</time>
      </trkpt>
      <trkpt lat="45.04455" lon="2.92754">
        <ele>1067.8000488281</ele>
        <time>2024-01-30T16:25:00.000Z</time>
      </trkpt>
      <trkpt lat="45.04465" lon="2.92759">
        <ele>1067</ele>
        <time>2024-01-30T16:25:01.000Z</time>
      </trkpt>
      <trkpt lat="45.04471" lon="2.92769">
        <ele>1066.5999755859</ele>
        <time>2024-01-30T16:25:02.000Z</time>
      </trkpt>
      <trkpt lat="45.04476" lon="2.92781">
        <ele>1066.5999755859</ele>
        <time>2024-01-30T16:25:03.000Z</time>
      </trkpt>
      <trkpt lat="45.04481" lon="2.92811">
        <ele>1066.5999755859</ele>
        <time>2024-01-30T16:25:05.000Z</time>
      </trkpt>
      <trkpt lat="45.04475" lon="2.92865">
        <ele>1067.4000244141</ele>
        <time>2024-01-30T16:25:08.000Z</time>
      </trkpt>
      <trkpt lat="45.04471" lon="2.92883">
        <ele>1067.8000488281</ele>
        <time>2024-01-30T16:25:09.000Z</time>
      </trkpt>
      <trkpt lat="45.0446" lon="2.92945">
        <ele>1069.1999511719</ele>
        <time>2024-01-30T16:25:12.000Z</time>
      </trkpt>
      <trkpt lat="45.04457" lon="2.93013">
        <ele>1070.4000244141</ele>
        <time>2024-01-30T16:25:15.000Z</time>
      </trkpt>
      <trkpt lat="45.04458" lon="2.93037">
        <ele>1071.1999511719</ele>
        <time>2024-01-30T16:25:16.000Z</time>
      </trkpt>
      <trkpt lat="45.04461" lon="2.9306">
        <ele>1071.5999755859</ele>
        <time>2024-01-30T16:25:17.000Z</time>
      </trkpt>
      <trkpt lat="45.04466" lon="2.93107">
        <ele>1072.8000488281</ele>
        <time>2024-01-30T16:25:19.000Z</time>
      </trkpt>
      <trkpt lat="45.04473" lon="2.93151">
        <ele>1072.8000488281</ele>
        <time>2024-01-30T16:25:21.000Z</time>
      </trkpt>
      <trkpt lat="45.04481" lon="2.93188">
        <ele>1072.1999511719</ele>
        <time>2024-01-30T16:25:23.000Z</time>
      </trkpt>
      <trkpt lat="45.04487" lon="2.93204">
        <ele>1072</ele>
        <time>2024-01-30T16:25:24.000Z</time>
      </trkpt>
      <trkpt lat="45.04495" lon="2.93217">
        <ele>1072</ele>
        <time>2024-01-30T16:25:25.000Z</time>
      </trkpt>
      <trkpt lat="45.04506" lon="2.93229">
        <ele>1072</ele>
        <time>2024-01-30T16:25:26.000Z</time>
      </trkpt>
      <trkpt lat="45.04517" lon="2.93241">
        <ele>1072</ele>
        <time>2024-01-30T16:25:27.000Z</time>
      </trkpt>
      <trkpt lat="45.04545" lon="2.93256">
        <ele>1072.1999511719</ele>
        <time>2024-01-30T16:25:29.000Z</time>
      </trkpt>
      <trkpt lat="45.04595" lon="2.93263">
        <ele>1072</ele>
        <time>2024-01-30T16:25:32.000Z</time>
      </trkpt>
      <trkpt lat="45.0465" lon="2.93265">
        <ele>1071.8000488281</ele>
        <time>2024-01-30T16:25:35.000Z</time>
      </trkpt>
      <trkpt lat="45.04669" lon="2.93267">
        <ele>1071.4000244141</ele>
        <time>2024-01-30T16:25:36.000Z</time>
      </trkpt>
      <trkpt lat="45.04728" lon="2.93272">
        <ele>1070.8000488281</ele>
        <time>2024-01-30T16:25:39.000Z</time>
      </trkpt>
      <trkpt lat="45.04748" lon="2.93273">
        <ele>1070.1999511719</ele>
        <time>2024-01-30T16:25:40.000Z</time>
      </trkpt>
      <trkpt lat="45.04785" lon="2.93276">
        <ele>1069.8000488281</ele>
        <time>2024-01-30T16:25:42.000Z</time>
      </trkpt>
      <trkpt lat="45.04822" lon="2.93279">
        <ele>1069</ele>
        <time>2024-01-30T16:25:44.000Z</time>
      </trkpt>
      <trkpt lat="45.04876" lon="2.93285">
        <ele>1068</ele>
        <time>2024-01-30T16:25:47.000Z</time>
      </trkpt>
      <trkpt lat="45.04893" lon="2.93287">
        <ele>1068</ele>
        <time>2024-01-30T16:25:48.000Z</time>
      </trkpt>
      <trkpt lat="45.04956" lon="2.93295">
        <ele>1068</ele>
        <time>2024-01-30T16:25:52.000Z</time>
      </trkpt>
      <trkpt lat="45.0497" lon="2.93297">
        <ele>1068.1999511719</ele>
        <time>2024-01-30T16:25:53.000Z</time>
      </trkpt>
      <trkpt lat="45.05025" lon="2.93302">
        <ele>1067.8000488281</ele>
        <time>2024-01-30T16:25:57.000Z</time>
      </trkpt>
      <trkpt lat="45.05038" lon="2.93304">
        <ele>1067.8000488281</ele>
        <time>2024-01-30T16:25:58.000Z</time>
      </trkpt>
      <trkpt lat="45.05064" lon="2.93312">
        <ele>1067.4000244141</ele>
        <time>2024-01-30T16:26:00.000Z</time>
      </trkpt>
      <trkpt lat="45.05076" lon="2.93319">
        <ele>1067</ele>
        <time>2024-01-30T16:26:01.000Z</time>
      </trkpt>
      <trkpt lat="45.05087" lon="2.93327">
        <ele>1066.8000488281</ele>
        <time>2024-01-30T16:26:02.000Z</time>
      </trkpt>
      <trkpt lat="45.05121" lon="2.93351">
        <ele>1065.4000244141</ele>
        <time>2024-01-30T16:26:05.000Z</time>
      </trkpt>
      <trkpt lat="45.05133" lon="2.93357">
        <ele>1065</ele>
        <time>2024-01-30T16:26:06.000Z</time>
      </trkpt>
      <trkpt lat="45.05145" lon="2.9336">
        <ele>1064.8000488281</ele>
        <time>2024-01-30T16:26:07.000Z</time>
      </trkpt>
      <trkpt lat="45.05157" lon="2.93362">
        <ele>1064.1999511719</ele>
        <time>2024-01-30T16:26:08.000Z</time>
      </trkpt>
      <trkpt lat="45.05169" lon="2.93362">
        <ele>1064.1999511719</ele>
        <time>2024-01-30T16:26:09.000Z</time>
      </trkpt>
      <trkpt lat="45.0523" lon="2.93361">
        <ele>1064</ele>
        <time>2024-01-30T16:26:14.000Z</time>
      </trkpt>
      <trkpt lat="45.05241" lon="2.93361">
        <ele>1064</ele>
        <time>2024-01-30T16:26:15.000Z</time>
      </trkpt>
      <trkpt lat="45.05268" lon="2.93362">
        <ele>1063.5999755859</ele>
        <time>2024-01-30T16:26:18.000Z</time>
      </trkpt>
      <trkpt lat="45.05295" lon="2.93364">
        <ele>1063</ele>
        <time>2024-01-30T16:26:21.000Z</time>
      </trkpt>
      <trkpt lat="45.0532" lon="2.93364">
        <ele>1061.8000488281</ele>
        <time>2024-01-30T16:26:24.000Z</time>
      </trkpt>
      <trkpt lat="45.05338" lon="2.93367">
        <ele>1061.1999511719</ele>
        <time>2024-01-30T16:26:27.000Z</time>
      </trkpt>
      <trkpt lat="45.05354" lon="2.93364">
        <ele>1061.2</ele>
      </trkpt>
      <trkpt lat="45.054" lon="2.93363">
        <ele>1060.9</ele>
      </trkpt>
      <trkpt lat="45.05424" lon="2.9336">
        <ele>1060.5999755859</ele>
        <time>2024-01-30T16:29:00.000Z</time>
      </trkpt>
      <trkpt lat="45.05437" lon="2.9336">
        <ele>1061.1999511719</ele>
        <time>2024-01-30T16:29:04.000Z</time>
      </trkpt>
      <trkpt lat="45.05452" lon="2.93361">
        <ele>1061.4000244141</ele>
        <time>2024-01-30T16:29:06.000Z</time>
      </trkpt>
      <trkpt lat="45.05461" lon="2.93362">
        <ele>1061.8000488281</ele>
        <time>2024-01-30T16:29:07.000Z</time>
      </trkpt>
      <trkpt lat="45.05495" lon="2.93366">
        <ele>1062.5999755859</ele>
        <time>2024-01-30T16:29:10.000Z</time>
      </trkpt>
      <trkpt lat="45.05555" lon="2.93368">
        <ele>1062.5999755859</ele>
        <time>2024-01-30T16:29:14.000Z</time>
      </trkpt>
      <trkpt lat="45.05608" lon="2.93369">
        <ele>1061</ele>
        <time>2024-01-30T16:29:17.000Z</time>
      </trkpt>
      <trkpt lat="45.05625" lon="2.93369">
        <ele>1060</ele>
        <time>2024-01-30T16:29:18.000Z</time>
      </trkpt>
      <trkpt lat="45.05659" lon="2.93371">
        <ele>1058.4000244141</ele>
        <time>2024-01-30T16:29:20.000Z</time>
      </trkpt>
      <trkpt lat="45.05692" lon="2.93369">
        <ele>1056.5999755859</ele>
        <time>2024-01-30T16:29:22.000Z</time>
      </trkpt>
      <trkpt lat="45.0571" lon="2.93365">
        <ele>1056.1999511719</ele>
        <time>2024-01-30T16:29:23.000Z</time>
      </trkpt>
      <trkpt lat="45.05727" lon="2.93358">
        <ele>1055.1999511719</ele>
        <time>2024-01-30T16:29:24.000Z</time>
      </trkpt>
      <trkpt lat="45.05763" lon="2.93341">
        <ele>1054</ele>
        <time>2024-01-30T16:29:26.000Z</time>
      </trkpt>
      <trkpt lat="45.05781" lon="2.93333">
        <ele>1053.4000244141</ele>
        <time>2024-01-30T16:29:27.000Z</time>
      </trkpt>
      <trkpt lat="45.05799" lon="2.93324">
        <ele>1052.5999755859</ele>
        <time>2024-01-30T16:29:28.000Z</time>
      </trkpt>
      <trkpt lat="45.05834" lon="2.93307">
        <ele>1050.5999755859</ele>
        <time>2024-01-30T16:29:30.000Z</time>
      </trkpt>
      <trkpt lat="45.05868" lon="2.93288">
        <ele>1049</ele>
        <time>2024-01-30T16:29:32.000Z</time>
      </trkpt>
      <trkpt lat="45.05883" lon="2.93276">
        <ele>1047.8000488281</ele>
        <time>2024-01-30T16:29:33.000Z</time>
      </trkpt>
      <trkpt lat="45.05898" lon="2.93262">
        <ele>1046.5999755859</ele>
        <time>2024-01-30T16:29:34.000Z</time>
      </trkpt>
      <trkpt lat="45.05918" lon="2.93226">
        <ele>1045.1999511719</ele>
        <time>2024-01-30T16:29:36.000Z</time>
      </trkpt>
      <trkpt lat="45.05935" lon="2.93186">
        <ele>1043.8000488281</ele>
        <time>2024-01-30T16:29:38.000Z</time>
      </trkpt>
      <trkpt lat="45.05942" lon="2.93165">
        <ele>1043.1999511719</ele>
        <time>2024-01-30T16:29:39.000Z</time>
      </trkpt>
      <trkpt lat="45.05946" lon="2.93143">
        <ele>1042</ele>
        <time>2024-01-30T16:29:40.000Z</time>
      </trkpt>
      <trkpt lat="45.0595" lon="2.93102">
        <ele>1040</ele>
        <time>2024-01-30T16:29:42.000Z</time>
      </trkpt>
      <trkpt lat="45.05954" lon="2.93083">
        <ele>1039.1999511719</ele>
        <time>2024-01-30T16:29:43.000Z</time>
      </trkpt>
      <trkpt lat="45.05959" lon="2.93066">
        <ele>1038.5999755859</ele>
        <time>2024-01-30T16:29:44.000Z</time>
      </trkpt>
      <trkpt lat="45.05967" lon="2.93051">
        <ele>1038</ele>
        <time>2024-01-30T16:29:45.000Z</time>
      </trkpt>
      <trkpt lat="45.05977" lon="2.93041">
        <ele>1037.1999511719</ele>
        <time>2024-01-30T16:29:46.000Z</time>
      </trkpt>
      <trkpt lat="45.05988" lon="2.93034">
        <ele>1037.1999511719</ele>
        <time>2024-01-30T16:29:47.000Z</time>
      </trkpt>
      <trkpt lat="45.06014" lon="2.93031">
        <ele>1037</ele>
        <time>2024-01-30T16:29:49.000Z</time>
      </trkpt>
      <trkpt lat="45.06043" lon="2.93041">
        <ele>1037.1999511719</ele>
        <time>2024-01-30T16:29:51.000Z</time>
      </trkpt>
      <trkpt lat="45.06071" lon="2.93069">
        <ele>1037.5999755859</ele>
        <time>2024-01-30T16:29:53.000Z</time>
      </trkpt>
      <trkpt lat="45.06108" lon="2.93127">
        <ele>1037.8000488281</ele>
        <time>2024-01-30T16:29:56.000Z</time>
      </trkpt>
      <trkpt lat="45.06146" lon="2.93191">
        <ele>1038.1999511719</ele>
        <time>2024-01-30T16:29:59.000Z</time>
      </trkpt>
      <trkpt lat="45.06174" lon="2.93235">
        <ele>1038.4000244141</ele>
        <time>2024-01-30T16:30:01.000Z</time>
      </trkpt>
      <trkpt lat="45.06209" lon="2.9329">
        <ele>1038.1999511719</ele>
        <time>2024-01-30T16:30:04.000Z</time>
      </trkpt>
      <trkpt lat="45.06218" lon="2.93308">
        <ele>1037.5999755859</ele>
        <time>2024-01-30T16:30:05.000Z</time>
      </trkpt>
      <trkpt lat="45.06225" lon="2.93325">
        <ele>1037.4000244141</ele>
        <time>2024-01-30T16:30:06.000Z</time>
      </trkpt>
      <trkpt lat="45.0623" lon="2.93344">
        <ele>1037.4000244141</ele>
        <time>2024-01-30T16:30:07.000Z</time>
      </trkpt>
      <trkpt lat="45.06259" lon="2.9343">
        <ele>1038.1999511719</ele>
        <time>2024-01-30T16:30:11.000Z</time>
      </trkpt>
      <trkpt lat="45.06269" lon="2.93453">
        <ele>1038.4000244141</ele>
        <time>2024-01-30T16:30:12.000Z</time>
      </trkpt>
      <trkpt lat="45.06303" lon="2.93521">
        <ele>1038.8000488281</ele>
        <time>2024-01-30T16:30:15.000Z</time>
      </trkpt>
      <trkpt lat="45.0634" lon="2.93597">
        <ele>1039.4000244141</ele>
        <time>2024-01-30T16:30:18.000Z</time>
      </trkpt>
      <trkpt lat="45.06352" lon="2.93622">
        <ele>1039.4000244141</ele>
        <time>2024-01-30T16:30:19.000Z</time>
      </trkpt>
      <trkpt lat="45.06386" lon="2.93695">
        <ele>1039.4000244141</ele>
        <time>2024-01-30T16:30:22.000Z</time>
      </trkpt>
      <trkpt lat="45.0642" lon="2.93763">
        <ele>1039.1999511719</ele>
        <time>2024-01-30T16:30:25.000Z</time>
      </trkpt>
      <trkpt lat="45.06441" lon="2.93798">
        <ele>1037.4000244141</ele>
        <time>2024-01-30T16:30:27.000Z</time>
      </trkpt>
      <trkpt lat="45.06451" lon="2.93811">
        <ele>1037.1999511719</ele>
        <time>2024-01-30T16:30:28.000Z</time>
      </trkpt>
      <trkpt lat="45.06461" lon="2.93822">
        <ele>1036.5999755859</ele>
        <time>2024-01-30T16:30:29.000Z</time>
      </trkpt>
      <trkpt lat="45.06473" lon="2.93829">
        <ele>1036.4000244141</ele>
        <time>2024-01-30T16:30:30.000Z</time>
      </trkpt>
      <trkpt lat="45.06486" lon="2.93832">
        <ele>1036.4000244141</ele>
        <time>2024-01-30T16:30:31.000Z</time>
      </trkpt>
      <trkpt lat="45.065" lon="2.93832">
        <ele>1036.4000244141</ele>
        <time>2024-01-30T16:30:32.000Z</time>
      </trkpt>
      <trkpt lat="45.06566" lon="2.93824">
        <ele>1037</ele>
        <time>2024-01-30T16:30:36.000Z</time>
      </trkpt>
      <trkpt lat="45.06621" lon="2.93818">
        <ele>1037.1999511719</ele>
        <time>2024-01-30T16:30:39.000Z</time>
      </trkpt>
      <trkpt lat="45.06659" lon="2.93813">
        <ele>1037</ele>
        <time>2024-01-30T16:30:41.000Z</time>
      </trkpt>
      <trkpt lat="45.06718" lon="2.93807">
        <ele>1036.8000488281</ele>
        <time>2024-01-30T16:30:44.000Z</time>
      </trkpt>
      <trkpt lat="45.06757" lon="2.93808">
        <ele>1036.5999755859</ele>
        <time>2024-01-30T16:30:46.000Z</time>
      </trkpt>
      <trkpt lat="45.06796" lon="2.93815">
        <ele>1036.4000244141</ele>
        <time>2024-01-30T16:30:48.000Z</time>
      </trkpt>
      <trkpt lat="45.06817" lon="2.93821">
        <ele>1036.1999511719</ele>
        <time>2024-01-30T16:30:49.000Z</time>
      </trkpt>
      <trkpt lat="45.06877" lon="2.93845">
        <ele>1035.8000488281</ele>
        <time>2024-01-30T16:30:52.000Z</time>
      </trkpt>
      <trkpt lat="45.06919" lon="2.93861">
        <ele>1035.5999755859</ele>
        <time>2024-01-30T16:30:54.000Z</time>
      </trkpt>
      <trkpt lat="45.06961" lon="2.93878">
        <ele>1035.4000244141</ele>
        <time>2024-01-30T16:30:56.000Z</time>
      </trkpt>
      <trkpt lat="45.07022" lon="2.93904">
        <ele>1034.8000488281</ele>
        <time>2024-01-30T16:30:59.000Z</time>
      </trkpt>
      <trkpt lat="45.07041" lon="2.93914">
        <ele>1034.1999511719</ele>
        <time>2024-01-30T16:31:00.000Z</time>
      </trkpt>
      <trkpt lat="45.07074" lon="2.93934">
        <ele>1032.5999755859</ele>
        <time>2024-01-30T16:31:02.000Z</time>
      </trkpt>
      <trkpt lat="45.07088" lon="2.93941">
        <ele>1032.1999511719</ele>
        <time>2024-01-30T16:31:03.000Z</time>
      </trkpt>
      <trkpt lat="45.07102" lon="2.93946">
        <ele>1031.8000488281</ele>
        <time>2024-01-30T16:31:04.000Z</time>
      </trkpt>
      <trkpt lat="45.07114" lon="2.93949">
        <ele>1031</ele>
        <time>2024-01-30T16:31:05.000Z</time>
      </trkpt>
      <trkpt lat="45.07127" lon="2.93948">
        <ele>1030.8000488281</ele>
        <time>2024-01-30T16:31:06.000Z</time>
      </trkpt>
      <trkpt lat="45.07152" lon="2.93933">
        <ele>1030.8000488281</ele>
        <time>2024-01-30T16:31:08.000Z</time>
      </trkpt>
      <trkpt lat="45.07164" lon="2.9392">
        <ele>1030.8000488281</ele>
        <time>2024-01-30T16:31:09.000Z</time>
      </trkpt>
      <trkpt lat="45.07175" lon="2.93905">
        <ele>1031</ele>
        <time>2024-01-30T16:31:10.000Z</time>
      </trkpt>
      <trkpt lat="45.07223" lon="2.93838">
        <ele>1031.1999511719</ele>
        <time>2024-01-30T16:31:14.000Z</time>
      </trkpt>
      <trkpt lat="45.07272" lon="2.93767">
        <ele>1030.4000244141</ele>
        <time>2024-01-30T16:31:18.000Z</time>
      </trkpt>
      <trkpt lat="45.07291" lon="2.93731">
        <ele>1030.1999511719</ele>
        <time>2024-01-30T16:31:20.000Z</time>
      </trkpt>
      <trkpt lat="45.07298" lon="2.93711">
        <ele>1029.8000488281</ele>
        <time>2024-01-30T16:31:21.000Z</time>
      </trkpt>
      <trkpt lat="45.07302" lon="2.9369">
        <ele>1029.4000244141</ele>
        <time>2024-01-30T16:31:22.000Z</time>
      </trkpt>
      <trkpt lat="45.07307" lon="2.93621">
        <ele>1029</ele>
        <time>2024-01-30T16:31:25.000Z</time>
      </trkpt>
      <trkpt lat="45.07309" lon="2.93545">
        <ele>1028.8000488281</ele>
        <time>2024-01-30T16:31:28.000Z</time>
      </trkpt>
      <trkpt lat="45.07311" lon="2.93495">
        <ele>1028.1999511719</ele>
        <time>2024-01-30T16:31:30.000Z</time>
      </trkpt>
      <trkpt lat="45.07312" lon="2.93448">
        <ele>1027.5999755859</ele>
        <time>2024-01-30T16:31:32.000Z</time>
      </trkpt>
      <trkpt lat="45.07312" lon="2.93407">
        <ele>1026.1999511719</ele>
        <time>2024-01-30T16:31:34.000Z</time>
      </trkpt>
      <trkpt lat="45.07312" lon="2.93386">
        <ele>1025.8000488281</ele>
        <time>2024-01-30T16:31:35.000Z</time>
      </trkpt>
      <trkpt lat="45.07313" lon="2.93368">
        <ele>1025.1999511719</ele>
        <time>2024-01-30T16:31:36.000Z</time>
      </trkpt>
      <trkpt lat="45.07318" lon="2.93336">
        <ele>1024.1999511719</ele>
        <time>2024-01-30T16:31:38.000Z</time>
      </trkpt>
      <trkpt lat="45.07326" lon="2.93326">
        <ele>1024</ele>
        <time>2024-01-30T16:31:39.000Z</time>
      </trkpt>
      <trkpt lat="45.07334" lon="2.93318">
        <ele>1023.799987793</ele>
        <time>2024-01-30T16:31:40.000Z</time>
      </trkpt>
      <trkpt lat="45.07355" lon="2.93312">
        <ele>1023.5999755859</ele>
        <time>2024-01-30T16:31:42.000Z</time>
      </trkpt>
      <trkpt lat="45.07369" lon="2.93313">
        <ele>1023.4000244141</ele>
        <time>2024-01-30T16:31:43.000Z</time>
      </trkpt>
      <trkpt lat="45.07413" lon="2.93318">
        <ele>1023.5999755859</ele>
        <time>2024-01-30T16:31:46.000Z</time>
      </trkpt>
      <trkpt lat="45.07482" lon="2.93323">
        <ele>1024</ele>
        <time>2024-01-30T16:31:50.000Z</time>
      </trkpt>
      <trkpt lat="45.07547" lon="2.93338">
        <ele>1024</ele>
        <time>2024-01-30T16:31:54.000Z</time>
      </trkpt>
      <trkpt lat="45.07591" lon="2.93345">
        <ele>1023.799987793</ele>
        <time>2024-01-30T16:31:57.000Z</time>
      </trkpt>
      <trkpt lat="45.07636" lon="2.93336">
        <ele>1024</ele>
        <time>2024-01-30T16:32:00.000Z</time>
      </trkpt>
      <trkpt lat="45.07664" lon="2.93332">
        <ele>1024</ele>
        <time>2024-01-30T16:32:02.000Z</time>
      </trkpt>
      <trkpt lat="45.07677" lon="2.93333">
        <ele>1024.1999511719</ele>
        <time>2024-01-30T16:32:03.000Z</time>
      </trkpt>
      <trkpt lat="45.07722" lon="2.93345">
        <ele>1024.4000244141</ele>
        <time>2024-01-30T16:32:07.000Z</time>
      </trkpt>
      <trkpt lat="45.07762" lon="2.93365">
        <ele>1025.4000244141</ele>
        <time>2024-01-30T16:32:11.000Z</time>
      </trkpt>
      <trkpt lat="45.07793" lon="2.93388">
        <ele>1026.5999755859</ele>
        <time>2024-01-30T16:32:14.000Z</time>
      </trkpt>
      <trkpt lat="45.07816" lon="2.93403">
        <ele>1027.1999511719</ele>
        <time>2024-01-30T16:32:16.000Z</time>
      </trkpt>
      <trkpt lat="45.07862" lon="2.93427">
        <ele>1027.4000244141</ele>
        <time>2024-01-30T16:32:20.000Z</time>
      </trkpt>
      <trkpt lat="45.07873" lon="2.9343">
        <ele>1027.1999511719</ele>
        <time>2024-01-30T16:32:21.000Z</time>
      </trkpt>
      <trkpt lat="45.07896" lon="2.93434">
        <ele>1026.5999755859</ele>
        <time>2024-01-30T16:32:23.000Z</time>
      </trkpt>
      <trkpt lat="45.07919" lon="2.93433">
        <ele>1025.8000488281</ele>
        <time>2024-01-30T16:32:25.000Z</time>
      </trkpt>
      <trkpt lat="45.07943" lon="2.93429">
        <ele>1025.5999755859</ele>
        <time>2024-01-30T16:32:27.000Z</time>
      </trkpt>
      <trkpt lat="45.07969" lon="2.93423">
        <ele>1025.4000244141</ele>
        <time>2024-01-30T16:32:29.000Z</time>
      </trkpt>
      <trkpt lat="45.08024" lon="2.93409">
        <ele>1024.5999755859</ele>
        <time>2024-01-30T16:32:33.000Z</time>
      </trkpt>
      <trkpt lat="45.08039" lon="2.93406">
        <ele>1024.5999755859</ele>
        <time>2024-01-30T16:32:34.000Z</time>
      </trkpt>
      <trkpt lat="45.08103" lon="2.93392">
        <ele>1023.5999755859</ele>
        <time>2024-01-30T16:32:38.000Z</time>
      </trkpt>
      <trkpt lat="45.08135" lon="2.93385">
        <ele>1023.4000244141</ele>
        <time>2024-01-30T16:32:40.000Z</time>
      </trkpt>
      <trkpt lat="45.08194" lon="2.93372">
        <ele>1023.5999755859</ele>
        <time>2024-01-30T16:32:44.000Z</time>
      </trkpt>
      <trkpt lat="45.08205" lon="2.93369">
        <ele>1023.5999755859</ele>
        <time>2024-01-30T16:32:45.000Z</time>
      </trkpt>
      <trkpt lat="45.08215" lon="2.93367">
        <ele>1023.5999755859</ele>
        <time>2024-01-30T16:32:46.000Z</time>
      </trkpt>
      <trkpt lat="45.08226" lon="2.93367">
        <ele>1023.799987793</ele>
        <time>2024-01-30T16:32:48.000Z</time>
      </trkpt>
      <trkpt lat="45.08234" lon="2.9337">
        <ele>1024</ele>
        <time>2024-01-30T16:32:50.000Z</time>
      </trkpt>
      <trkpt lat="45.08236" lon="2.9337">
        <ele>1024.1999511719</ele>
        <time>2024-01-30T16:32:51.000Z</time>
      </trkpt>
      <trkpt lat="45.08237" lon="2.93371">
        <ele>1024.4000244141</ele>
        <time>2024-01-30T16:32:54.000Z</time>
      </trkpt>
      <trkpt lat="45.08245" lon="2.93367">
        <ele>1025.1999511719</ele>
        <time>2024-01-30T16:32:57.000Z</time>
      </trkpt>
      <trkpt lat="45.08248" lon="2.93362">
        <ele>1025.1999511719</ele>
        <time>2024-01-30T16:32:58.000Z</time>
      </trkpt>
      <trkpt lat="45.08254" lon="2.93348">
        <ele>1025.8000488281</ele>
        <time>2024-01-30T16:33:00.000Z</time>
      </trkpt>
      <trkpt lat="45.0826" lon="2.93327">
        <ele>1026.8000488281</ele>
        <time>2024-01-30T16:33:02.000Z</time>
      </trkpt>
      <trkpt lat="45.08264" lon="2.93315">
        <ele>1027</ele>
        <time>2024-01-30T16:33:03.000Z</time>
      </trkpt>
      <trkpt lat="45.08272" lon="2.93287">
        <ele>1028.4000244141</ele>
        <time>2024-01-30T16:33:05.000Z</time>
      </trkpt>
      <trkpt lat="45.08277" lon="2.93271">
        <ele>1029</ele>
        <time>2024-01-30T16:33:06.000Z</time>
      </trkpt>
      <trkpt lat="45.08282" lon="2.93254">
        <ele>1029.4000244141</ele>
        <time>2024-01-30T16:33:07.000Z</time>
      </trkpt>
      <trkpt lat="45.08297" lon="2.93197">
        <ele>1030.5999755859</ele>
        <time>2024-01-30T16:33:10.000Z</time>
      </trkpt>
      <trkpt lat="45.08302" lon="2.93176">
        <ele>1031.4000244141</ele>
        <time>2024-01-30T16:33:11.000Z</time>
      </trkpt>
      <trkpt lat="45.08308" lon="2.93155">
        <ele>1032.4000244141</ele>
        <time>2024-01-30T16:33:12.000Z</time>
      </trkpt>
      <trkpt lat="45.0832" lon="2.9311">
        <ele>1034.1999511719</ele>
        <time>2024-01-30T16:33:14.000Z</time>
      </trkpt>
      <trkpt lat="45.08326" lon="2.93087">
        <ele>1035.1999511719</ele>
        <time>2024-01-30T16:33:15.000Z</time>
      </trkpt>
      <trkpt lat="45.08333" lon="2.93063">
        <ele>1036</ele>
        <time>2024-01-30T16:33:16.000Z</time>
      </trkpt>
      <trkpt lat="45.08339" lon="2.9304">
        <ele>1037.4000244141</ele>
        <time>2024-01-30T16:33:17.000Z</time>
      </trkpt>
      <trkpt lat="45.08352" lon="2.92993">
        <ele>1039</ele>
        <time>2024-01-30T16:33:19.000Z</time>
      </trkpt>
      <trkpt lat="45.08365" lon="2.92945">
        <ele>1040.8000488281</ele>
        <time>2024-01-30T16:33:21.000Z</time>
      </trkpt>
      <trkpt lat="45.08378" lon="2.92897">
        <ele>1042.4000244141</ele>
        <time>2024-01-30T16:33:23.000Z</time>
      </trkpt>
      <trkpt lat="45.08391" lon="2.92847">
        <ele>1043.5999755859</ele>
        <time>2024-01-30T16:33:25.000Z</time>
      </trkpt>
      <trkpt lat="45.08404" lon="2.92797">
        <ele>1044.8000488281</ele>
        <time>2024-01-30T16:33:27.000Z</time>
      </trkpt>
      <trkpt lat="45.08418" lon="2.92746">
        <ele>1046</ele>
        <time>2024-01-30T16:33:29.000Z</time>
      </trkpt>
      <trkpt lat="45.08443" lon="2.92672">
        <ele>1047.5999755859</ele>
        <time>2024-01-30T16:33:32.000Z</time>
      </trkpt>
      <trkpt lat="45.08466" lon="2.92626">
        <ele>1046.9</ele>
      </trkpt>
      <trkpt lat="45.08486" lon="2.92597">
        <ele>1047.7</ele>
      </trkpt>
      <trkpt lat="45.08484" lon="2.92585">
        <ele>1048</ele>
      </trkpt>
      <trkpt lat="45.08481" lon="2.92566">
        <ele>1047.1</ele>
      </trkpt>
      <trkpt lat="45.08483" lon="2.92546">
        <ele>1046.5</ele>
      </trkpt>
      <trkpt lat="45.08485" lon="2.92528">
        <ele>1047.5999755859</ele>
        <time>2024-01-30T16:35:47.000Z</time>
      </trkpt>
      <trkpt lat="45.08499" lon="2.92487">
        <ele>1047.5999755859</ele>
        <time>2024-01-30T16:35:50.000Z</time>
      </trkpt>
      <trkpt lat="45.08523" lon="2.9242">
        <ele>1048</ele>
        <time>2024-01-30T16:35:54.000Z</time>
      </trkpt>
      <trkpt lat="45.08552" lon="2.92334">
        <ele>1048.1999511719</ele>
        <time>2024-01-30T16:35:58.000Z</time>
      </trkpt>
      <trkpt lat="45.08575" lon="2.92267">
        <ele>1049.4000244141</ele>
        <time>2024-01-30T16:36:01.000Z</time>
      </trkpt>
      <trkpt lat="45.08598" lon="2.92199">
        <ele>1050.5999755859</ele>
        <time>2024-01-30T16:36:04.000Z</time>
      </trkpt>
      <trkpt lat="45.08621" lon="2.92131">
        <ele>1051.8000488281</ele>
        <time>2024-01-30T16:36:07.000Z</time>
      </trkpt>
      <trkpt lat="45.08645" lon="2.92062">
        <ele>1052.5999755859</ele>
        <time>2024-01-30T16:36:10.000Z</time>
      </trkpt>
      <trkpt lat="45.08652" lon="2.9204">
        <ele>1052.8000488281</ele>
        <time>2024-01-30T16:36:11.000Z</time>
      </trkpt>
      <trkpt lat="45.08671" lon="2.91976">
        <ele>1053.4000244141</ele>
        <time>2024-01-30T16:36:14.000Z</time>
      </trkpt>
      <trkpt lat="45.08676" lon="2.91933">
        <ele>1054</ele>
        <time>2024-01-30T16:36:16.000Z</time>
      </trkpt>
      <trkpt lat="45.08676" lon="2.91911">
        <ele>1054.5999755859</ele>
        <time>2024-01-30T16:36:17.000Z</time>
      </trkpt>
      <trkpt lat="45.08675" lon="2.91867">
        <ele>1055.1999511719</ele>
        <time>2024-01-30T16:36:19.000Z</time>
      </trkpt>
      <trkpt lat="45.08674" lon="2.91823">
        <ele>1056.4000244141</ele>
        <time>2024-01-30T16:36:21.000Z</time>
      </trkpt>
      <trkpt lat="45.08673" lon="2.91779">
        <ele>1056.8000488281</ele>
        <time>2024-01-30T16:36:23.000Z</time>
      </trkpt>
      <trkpt lat="45.08672" lon="2.91757">
        <ele>1057.5999755859</ele>
        <time>2024-01-30T16:36:24.000Z</time>
      </trkpt>
      <trkpt lat="45.0867" lon="2.91666">
        <ele>1058.5999755859</ele>
        <time>2024-01-30T16:36:28.000Z</time>
      </trkpt>
      <trkpt lat="45.0867" lon="2.91645">
        <ele>1059</ele>
        <time>2024-01-30T16:36:29.000Z</time>
      </trkpt>
      <trkpt lat="45.08672" lon="2.91624">
        <ele>1059.1999511719</ele>
        <time>2024-01-30T16:36:30.000Z</time>
      </trkpt>
      <trkpt lat="45.08679" lon="2.91585">
        <ele>1059.5999755859</ele>
        <time>2024-01-30T16:36:32.000Z</time>
      </trkpt>
      <trkpt lat="45.08684" lon="2.91567">
        <ele>1059.5999755859</ele>
        <time>2024-01-30T16:36:33.000Z</time>
      </trkpt>
      <trkpt lat="45.08692" lon="2.9155">
        <ele>1060</ele>
        <time>2024-01-30T16:36:34.000Z</time>
      </trkpt>
      <trkpt lat="45.08712" lon="2.91518">
        <ele>1060.8000488281</ele>
        <time>2024-01-30T16:36:36.000Z</time>
      </trkpt>
      <trkpt lat="45.08734" lon="2.91485">
        <ele>1061.5999755859</ele>
        <time>2024-01-30T16:36:38.000Z</time>
      </trkpt>
      <trkpt lat="45.08758" lon="2.91449">
        <ele>1062.4000244141</ele>
        <time>2024-01-30T16:36:40.000Z</time>
      </trkpt>
      <trkpt lat="45.08769" lon="2.91431">
        <ele>1062.8000488281</ele>
        <time>2024-01-30T16:36:41.000Z</time>
      </trkpt>
      <trkpt lat="45.08803" lon="2.91376">
        <ele>1064.1999511719</ele>
        <time>2024-01-30T16:36:44.000Z</time>
      </trkpt>
      <trkpt lat="45.08814" lon="2.91357">
        <ele>1065.1999511719</ele>
        <time>2024-01-30T16:36:45.000Z</time>
      </trkpt>
      <trkpt lat="45.08848" lon="2.91301">
        <ele>1067</ele>
        <time>2024-01-30T16:36:48.000Z</time>
      </trkpt>
      <trkpt lat="45.08867" lon="2.91262">
        <ele>1068.4000244141</ele>
        <time>2024-01-30T16:36:50.000Z</time>
      </trkpt>
      <trkpt lat="45.08875" lon="2.91241">
        <ele>1068.8000488281</ele>
        <time>2024-01-30T16:36:51.000Z</time>
      </trkpt>
      <trkpt lat="45.08887" lon="2.91197">
        <ele>1070.4000244141</ele>
        <time>2024-01-30T16:36:53.000Z</time>
      </trkpt>
      <trkpt lat="45.08906" lon="2.91129">
        <ele>1071.8000488281</ele>
        <time>2024-01-30T16:36:56.000Z</time>
      </trkpt>
      <trkpt lat="45.08925" lon="2.91061">
        <ele>1073.1999511719</ele>
        <time>2024-01-30T16:36:59.000Z</time>
      </trkpt>
      <trkpt lat="45.08937" lon="2.91016">
        <ele>1074.1999511719</ele>
        <time>2024-01-30T16:37:01.000Z</time>
      </trkpt>
      <trkpt lat="45.08949" lon="2.90971">
        <ele>1075.8000488281</ele>
        <time>2024-01-30T16:37:03.000Z</time>
      </trkpt>
      <trkpt lat="45.08962" lon="2.90927">
        <ele>1077.1999511719</ele>
        <time>2024-01-30T16:37:05.000Z</time>
      </trkpt>
      <trkpt lat="45.08975" lon="2.90882">
        <ele>1078.1999511719</ele>
        <time>2024-01-30T16:37:07.000Z</time>
      </trkpt>
      <trkpt lat="45.09001" lon="2.90793">
        <ele>1079.4000244141</ele>
        <time>2024-01-30T16:37:11.000Z</time>
      </trkpt>
      <trkpt lat="45.0901" lon="2.90772">
        <ele>1079.8000488281</ele>
        <time>2024-01-30T16:37:12.000Z</time>
      </trkpt>
      <trkpt lat="45.09051" lon="2.90697">
        <ele>1080.4000244141</ele>
        <time>2024-01-30T16:37:16.000Z</time>
      </trkpt>
      <trkpt lat="45.09093" lon="2.90625">
        <ele>1081.4000244141</ele>
        <time>2024-01-30T16:37:20.000Z</time>
      </trkpt>
      <trkpt lat="45.09104" lon="2.90609">
        <ele>1081.5999755859</ele>
        <time>2024-01-30T16:37:21.000Z</time>
      </trkpt>
      <trkpt lat="45.09115" lon="2.90593">
        <ele>1081.8000488281</ele>
        <time>2024-01-30T16:37:22.000Z</time>
      </trkpt>
      <trkpt lat="45.09127" lon="2.9058">
        <ele>1082</ele>
        <time>2024-01-30T16:37:23.000Z</time>
      </trkpt>
      <trkpt lat="45.09154" lon="2.90555">
        <ele>1082</ele>
        <time>2024-01-30T16:37:25.000Z</time>
      </trkpt>
      <trkpt lat="45.09201" lon="2.90517">
        <ele>1081.5999755859</ele>
        <time>2024-01-30T16:37:28.000Z</time>
      </trkpt>
      <trkpt lat="45.09218" lon="2.90503">
        <ele>1080.8000488281</ele>
        <time>2024-01-30T16:37:29.000Z</time>
      </trkpt>
      <trkpt lat="45.09235" lon="2.90489">
        <ele>1080.4000244141</ele>
        <time>2024-01-30T16:37:30.000Z</time>
      </trkpt>
      <trkpt lat="45.09268" lon="2.9046">
        <ele>1079.1999511719</ele>
        <time>2024-01-30T16:37:32.000Z</time>
      </trkpt>
      <trkpt lat="45.09302" lon="2.90431">
        <ele>1078</ele>
        <time>2024-01-30T16:37:34.000Z</time>
      </trkpt>
      <trkpt lat="45.09319" lon="2.90417">
        <ele>1077.5999755859</ele>
        <time>2024-01-30T16:37:35.000Z</time>
      </trkpt>
      <trkpt lat="45.09368" lon="2.90376">
        <ele>1077</ele>
        <time>2024-01-30T16:37:38.000Z</time>
      </trkpt>
      <trkpt lat="45.09414" lon="2.90336">
        <ele>1076</ele>
        <time>2024-01-30T16:37:41.000Z</time>
      </trkpt>
      <trkpt lat="45.09426" lon="2.90326">
        <ele>1075.8000488281</ele>
        <time>2024-01-30T16:37:42.000Z</time>
      </trkpt>
      <trkpt lat="45.09466" lon="2.9029">
        <ele>1074</ele>
        <time>2024-01-30T16:37:45.000Z</time>
      </trkpt>
      <trkpt lat="45.09484" lon="2.90261">
        <ele>1073.1999511719</ele>
        <time>2024-01-30T16:37:47.000Z</time>
      </trkpt>
      <trkpt lat="45.0949" lon="2.90242">
        <ele>1073.1999511719</ele>
        <time>2024-01-30T16:37:48.000Z</time>
      </trkpt>
      <trkpt lat="45.09496" lon="2.90223">
        <ele>1072.5999755859</ele>
        <time>2024-01-30T16:37:49.000Z</time>
      </trkpt>
      <trkpt lat="45.09506" lon="2.90179">
        <ele>1071.8000488281</ele>
        <time>2024-01-30T16:37:51.000Z</time>
      </trkpt>
      <trkpt lat="45.09511" lon="2.90155">
        <ele>1071.4000244141</ele>
        <time>2024-01-30T16:37:52.000Z</time>
      </trkpt>
      <trkpt lat="45.09527" lon="2.90082">
        <ele>1071</ele>
        <time>2024-01-30T16:37:55.000Z</time>
      </trkpt>
      <trkpt lat="45.09533" lon="2.90057">
        <ele>1070.5999755859</ele>
        <time>2024-01-30T16:37:56.000Z</time>
      </trkpt>
      <trkpt lat="45.09539" lon="2.90032">
        <ele>1070.1999511719</ele>
        <time>2024-01-30T16:37:57.000Z</time>
      </trkpt>
      <trkpt lat="45.0955" lon="2.8998">
        <ele>1068.8000488281</ele>
        <time>2024-01-30T16:37:59.000Z</time>
      </trkpt>
      <trkpt lat="45.09562" lon="2.89929">
        <ele>1066.8000488281</ele>
        <time>2024-01-30T16:38:01.000Z</time>
      </trkpt>
      <trkpt lat="45.09573" lon="2.89875">
        <ele>1065.4000244141</ele>
        <time>2024-01-30T16:38:03.000Z</time>
      </trkpt>
      <trkpt lat="45.09585" lon="2.89823">
        <ele>1064.1999511719</ele>
        <time>2024-01-30T16:38:05.000Z</time>
      </trkpt>
      <trkpt lat="45.09596" lon="2.8977">
        <ele>1063</ele>
        <time>2024-01-30T16:38:07.000Z</time>
      </trkpt>
      <trkpt lat="45.09607" lon="2.89718">
        <ele>1061.4000244141</ele>
        <time>2024-01-30T16:38:09.000Z</time>
      </trkpt>
      <trkpt lat="45.09623" lon="2.89644">
        <ele>1060.4000244141</ele>
        <time>2024-01-30T16:38:12.000Z</time>
      </trkpt>
      <trkpt lat="45.09643" lon="2.89552">
        <ele>1059.4000244141</ele>
        <time>2024-01-30T16:38:16.000Z</time>
      </trkpt>
      <trkpt lat="45.09648" lon="2.8953">
        <ele>1059.1999511719</ele>
        <time>2024-01-30T16:38:17.000Z</time>
      </trkpt>
      <trkpt lat="45.09652" lon="2.8951">
        <ele>1058.8000488281</ele>
        <time>2024-01-30T16:38:18.000Z</time>
      </trkpt>
      <trkpt lat="45.09663" lon="2.89474">
        <ele>1057.5999755859</ele>
        <time>2024-01-30T16:38:20.000Z</time>
      </trkpt>
      <trkpt lat="45.0967" lon="2.89457">
        <ele>1057.1999511719</ele>
        <time>2024-01-30T16:38:21.000Z</time>
      </trkpt>
      <trkpt lat="45.09678" lon="2.89442">
        <ele>1056.8000488281</ele>
        <time>2024-01-30T16:38:22.000Z</time>
      </trkpt>
      <trkpt lat="45.09687" lon="2.89429">
        <ele>1056</ele>
        <time>2024-01-30T16:38:23.000Z</time>
      </trkpt>
      <trkpt lat="45.09696" lon="2.89419">
        <ele>1054.5999755859</ele>
        <time>2024-01-30T16:38:24.000Z</time>
      </trkpt>
      <trkpt lat="45.09704" lon="2.89411">
        <ele>1053.1999511719</ele>
        <time>2024-01-30T16:38:25.000Z</time>
      </trkpt>
      <trkpt lat="45.09717" lon="2.89399">
        <ele>1051.4000244141</ele>
        <time>2024-01-30T16:38:27.000Z</time>
      </trkpt>
      <trkpt lat="45.09724" lon="2.89389">
        <ele>1050</ele>
        <time>2024-01-30T16:38:29.000Z</time>
      </trkpt>
      <trkpt lat="45.09725" lon="2.89385">
        <ele>1049.1999511719</ele>
        <time>2024-01-30T16:38:30.000Z</time>
      </trkpt>
      <trkpt lat="45.09726" lon="2.89382">
        <ele>1048.5999755859</ele>
        <time>2024-01-30T16:38:31.000Z</time>
      </trkpt>
      <trkpt lat="45.09726" lon="2.8938">
        <ele>1048.4000244141</ele>
        <time>2024-01-30T16:38:34.000Z</time>
      </trkpt>
      <trkpt lat="45.09725" lon="2.89379">
        <ele>1048.4000244141</ele>
        <time>2024-01-30T16:38:37.000Z</time>
      </trkpt>
      <trkpt lat="45.0972" lon="2.89374">
        <ele>1048.4000244141</ele>
        <time>2024-01-30T16:38:39.000Z</time>
      </trkpt>
      <trkpt lat="45.09703" lon="2.89367">
        <ele>1047.1999511719</ele>
        <time>2024-01-30T16:38:43.000Z</time>
      </trkpt>
      <trkpt lat="45.09696" lon="2.89358">
        <ele>1046.8000488281</ele>
        <time>2024-01-30T16:38:45.000Z</time>
      </trkpt>
      <trkpt lat="45.09696" lon="2.89351">
        <ele>1046.1999511719</ele>
        <time>2024-01-30T16:38:46.000Z</time>
      </trkpt>
      <trkpt lat="45.09698" lon="2.89344">
        <ele>1045.5999755859</ele>
        <time>2024-01-30T16:38:47.000Z</time>
      </trkpt>
      <trkpt lat="45.09701" lon="2.89337">
        <ele>1044.8000488281</ele>
        <time>2024-01-30T16:38:48.000Z</time>
      </trkpt>
      <trkpt lat="45.09706" lon="2.8933">
        <ele>1044.5999755859</ele>
        <time>2024-01-30T16:38:49.000Z</time>
      </trkpt>
      <trkpt lat="45.09715" lon="2.89313">
        <ele>1043.5999755859</ele>
        <time>2024-01-30T16:38:51.000Z</time>
      </trkpt>
      <trkpt lat="45.09723" lon="2.8929">
        <ele>1042</ele>
        <time>2024-01-30T16:38:53.000Z</time>
      </trkpt>
      <trkpt lat="45.0973" lon="2.89269">
        <ele>1040.4000244141</ele>
        <time>2024-01-30T16:38:55.000Z</time>
      </trkpt>
      <trkpt lat="45.09735" lon="2.89258">
        <ele>1039.5999755859</ele>
        <time>2024-01-30T16:38:56.000Z</time>
      </trkpt>
      <trkpt lat="45.09741" lon="2.89248">
        <ele>1039</ele>
        <time>2024-01-30T16:38:57.000Z</time>
      </trkpt>
      <trkpt lat="45.09749" lon="2.89242">
        <ele>1038.5999755859</ele>
        <time>2024-01-30T16:38:58.000Z</time>
      </trkpt>
      <trkpt lat="45.09767" lon="2.89237">
        <ele>1037.5999755859</ele>
        <time>2024-01-30T16:39:00.000Z</time>
      </trkpt>
      <trkpt lat="45.09789" lon="2.89237">
        <ele>1036.4000244141</ele>
        <time>2024-01-30T16:39:02.000Z</time>
      </trkpt>
      <trkpt lat="45.09812" lon="2.89237">
        <ele>1034.8000488281</ele>
        <time>2024-01-30T16:39:04.000Z</time>
      </trkpt>
      <trkpt lat="45.09835" lon="2.89233">
        <ele>1033.5999755859</ele>
        <time>2024-01-30T16:39:06.000Z</time>
      </trkpt>
      <trkpt lat="45.09845" lon="2.89228">
        <ele>1032</ele>
        <time>2024-01-30T16:39:07.000Z</time>
      </trkpt>
      <trkpt lat="45.09854" lon="2.89222">
        <ele>1031.4000244141</ele>
        <time>2024-01-30T16:39:08.000Z</time>
      </trkpt>
      <trkpt lat="45.0986" lon="2.89213">
        <ele>1031</ele>
        <time>2024-01-30T16:39:09.000Z</time>
      </trkpt>
      <trkpt lat="45.09866" lon="2.89202">
        <ele>1030.4000244141</ele>
        <time>2024-01-30T16:39:10.000Z</time>
      </trkpt>
      <trkpt lat="45.09871" lon="2.89189">
        <ele>1030</ele>
        <time>2024-01-30T16:39:11.000Z</time>
      </trkpt>
      <trkpt lat="45.09876" lon="2.89173">
        <ele>1029.5999755859</ele>
        <time>2024-01-30T16:39:12.000Z</time>
      </trkpt>
      <trkpt lat="45.09881" lon="2.89156">
        <ele>1029</ele>
        <time>2024-01-30T16:39:13.000Z</time>
      </trkpt>
      <trkpt lat="45.09885" lon="2.89137">
        <ele>1028.1999511719</ele>
        <time>2024-01-30T16:39:14.000Z</time>
      </trkpt>
      <trkpt lat="45.09893" lon="2.89098">
        <ele>1026</ele>
        <time>2024-01-30T16:39:16.000Z</time>
      </trkpt>
      <trkpt lat="45.09896" lon="2.89078">
        <ele>1025</ele>
        <time>2024-01-30T16:39:17.000Z</time>
      </trkpt>
      <trkpt lat="45.09899" lon="2.89059">
        <ele>1024</ele>
        <time>2024-01-30T16:39:18.000Z</time>
      </trkpt>
      <trkpt lat="45.09901" lon="2.89042">
        <ele>1022</ele>
        <time>2024-01-30T16:39:19.000Z</time>
      </trkpt>
      <trkpt lat="45.09903" lon="2.89026">
        <ele>1020.4000244141</ele>
        <time>2024-01-30T16:39:20.000Z</time>
      </trkpt>
      <trkpt lat="45.09902" lon="2.89011">
        <ele>1019.4000244141</ele>
        <time>2024-01-30T16:39:21.000Z</time>
      </trkpt>
      <trkpt lat="45.09899" lon="2.88997">
        <ele>1018</ele>
        <time>2024-01-30T16:39:22.000Z</time>
      </trkpt>
      <trkpt lat="45.09895" lon="2.88984">
        <ele>1017.4000244141</ele>
        <time>2024-01-30T16:39:23.000Z</time>
      </trkpt>
      <trkpt lat="45.0988" lon="2.88957">
        <ele>1017.200012207</ele>
        <time>2024-01-30T16:39:25.000Z</time>
      </trkpt>
      <trkpt lat="45.09871" lon="2.88946">
        <ele>1016.799987793</ele>
        <time>2024-01-30T16:39:26.000Z</time>
      </trkpt>
      <trkpt lat="45.09861" lon="2.88936">
        <ele>1015.799987793</ele>
        <time>2024-01-30T16:39:27.000Z</time>
      </trkpt>
      <trkpt lat="45.0985" lon="2.88927">
        <ele>1015.4000244141</ele>
        <time>2024-01-30T16:39:28.000Z</time>
      </trkpt>
      <trkpt lat="45.09838" lon="2.88917">
        <ele>1014.5999755859</ele>
        <time>2024-01-30T16:39:29.000Z</time>
      </trkpt>
      <trkpt lat="45.09827" lon="2.88908">
        <ele>1013.200012207</ele>
        <time>2024-01-30T16:39:30.000Z</time>
      </trkpt>
      <trkpt lat="45.09816" lon="2.889">
        <ele>1011.5999755859</ele>
        <time>2024-01-30T16:39:31.000Z</time>
      </trkpt>
      <trkpt lat="45.098" lon="2.88889">
        <ele>1009.200012207</ele>
        <time>2024-01-30T16:39:33.000Z</time>
      </trkpt>
      <trkpt lat="45.09795" lon="2.88886">
        <ele>1008</ele>
        <time>2024-01-30T16:39:34.000Z</time>
      </trkpt>
      <trkpt lat="45.09791" lon="2.88883">
        <ele>1007.4000244141</ele>
        <time>2024-01-30T16:39:35.000Z</time>
      </trkpt>
      <trkpt lat="45.09789" lon="2.8888">
        <ele>1006.200012207</ele>
        <time>2024-01-30T16:39:36.000Z</time>
      </trkpt>
      <trkpt lat="45.09788" lon="2.88875">
        <ele>1005.5999755859</ele>
        <time>2024-01-30T16:39:37.000Z</time>
      </trkpt>
      <trkpt lat="45.0979" lon="2.88872">
        <ele>1005.200012207</ele>
        <time>2024-01-30T16:39:39.000Z</time>
      </trkpt>
      <trkpt lat="45.09791" lon="2.88871">
        <ele>1004.5999755859</ele>
        <time>2024-01-30T16:39:40.000Z</time>
      </trkpt>
      <trkpt lat="45.09796" lon="2.88876">
        <ele>1004.5999755859</ele>
        <time>2024-01-30T16:39:42.000Z</time>
      </trkpt>
      <trkpt lat="45.09801" lon="2.88878">
        <ele>1004.5999755859</ele>
        <time>2024-01-30T16:39:43.000Z</time>
      </trkpt>
      <trkpt lat="45.09821" lon="2.88888">
        <ele>1003.4000244141</ele>
        <time>2024-01-30T16:39:46.000Z</time>
      </trkpt>
      <trkpt lat="45.09839" lon="2.88895">
        <ele>1002.200012207</ele>
        <time>2024-01-30T16:39:48.000Z</time>
      </trkpt>
      <trkpt lat="45.09859" lon="2.88902">
        <ele>1000.4000244141</ele>
        <time>2024-01-30T16:39:50.000Z</time>
      </trkpt>
      <trkpt lat="45.09869" lon="2.88907">
        <ele>999.40002441406</ele>
        <time>2024-01-30T16:39:51.000Z</time>
      </trkpt>
      <trkpt lat="45.09891" lon="2.88919">
        <ele>997.79998779297</ele>
        <time>2024-01-30T16:39:53.000Z</time>
      </trkpt>
      <trkpt lat="45.0991" lon="2.88932">
        <ele>996.20001220703</ele>
        <time>2024-01-30T16:39:55.000Z</time>
      </trkpt>
      <trkpt lat="45.09921" lon="2.88949">
        <ele>994</ele>
        <time>2024-01-30T16:39:57.000Z</time>
      </trkpt>
      <trkpt lat="45.09923" lon="2.88958">
        <ele>992.79998779297</ele>
        <time>2024-01-30T16:39:58.000Z</time>
      </trkpt>
      <trkpt lat="45.09925" lon="2.88969">
        <ele>991.59997558594</ele>
        <time>2024-01-30T16:39:59.000Z</time>
      </trkpt>
      <trkpt lat="45.09928" lon="2.88981">
        <ele>990.59997558594</ele>
        <time>2024-01-30T16:40:01.000Z</time>
      </trkpt>
      <trkpt lat="45.09931" lon="2.88985">
        <ele>989.79998779297</ele>
        <time>2024-01-30T16:40:02.000Z</time>
      </trkpt>
      <trkpt lat="45.09939" lon="2.88983">
        <ele>989.40002441406</ele>
        <time>2024-01-30T16:40:04.000Z</time>
      </trkpt>
      <trkpt lat="45.09944" lon="2.88977">
        <ele>989.20001220703</ele>
        <time>2024-01-30T16:40:05.000Z</time>
      </trkpt>
      <trkpt lat="45.09947" lon="2.8896">
        <ele>988.79998779297</ele>
        <time>2024-01-30T16:40:07.000Z</time>
      </trkpt>
      <trkpt lat="45.09946" lon="2.8895">
        <ele>988.20001220703</ele>
        <time>2024-01-30T16:40:08.000Z</time>
      </trkpt>
      <trkpt lat="45.09944" lon="2.88939">
        <ele>987.79998779297</ele>
        <time>2024-01-30T16:40:09.000Z</time>
      </trkpt>
      <trkpt lat="45.0994" lon="2.88926">
        <ele>987.40002441406</ele>
        <time>2024-01-30T16:40:10.000Z</time>
      </trkpt>
      <trkpt lat="45.09935" lon="2.88913">
        <ele>987</ele>
        <time>2024-01-30T16:40:11.000Z</time>
      </trkpt>
      <trkpt lat="45.09922" lon="2.8888">
        <ele>985.40002441406</ele>
        <time>2024-01-30T16:40:13.000Z</time>
      </trkpt>
      <trkpt lat="45.09905" lon="2.88853">
        <ele>983.79998779297</ele>
        <time>2024-01-30T16:40:15.000Z</time>
      </trkpt>
      <trkpt lat="45.09881" lon="2.88825">
        <ele>982.59997558594</ele>
        <time>2024-01-30T16:40:17.000Z</time>
      </trkpt>
      <trkpt lat="45.09859" lon="2.88803">
        <ele>981</ele>
        <time>2024-01-30T16:40:19.000Z</time>
      </trkpt>
      <trkpt lat="45.09848" lon="2.8879">
        <ele>979.79998779297</ele>
        <time>2024-01-30T16:40:20.000Z</time>
      </trkpt>
      <trkpt lat="45.09834" lon="2.88775">
        <ele>978.79998779297</ele>
        <time>2024-01-30T16:40:21.000Z</time>
      </trkpt>
      <trkpt lat="45.09825" lon="2.88766">
        <ele>977.79998779297</ele>
        <time>2024-01-30T16:40:22.000Z</time>
      </trkpt>
      <trkpt lat="45.09813" lon="2.88758">
        <ele>976.59997558594</ele>
        <time>2024-01-30T16:40:23.000Z</time>
      </trkpt>
      <trkpt lat="45.09802" lon="2.88751">
        <ele>974.79998779297</ele>
        <time>2024-01-30T16:40:24.000Z</time>
      </trkpt>
      <trkpt lat="45.09792" lon="2.88746">
        <ele>974.20001220703</ele>
        <time>2024-01-30T16:40:25.000Z</time>
      </trkpt>
      <trkpt lat="45.09781" lon="2.88743">
        <ele>973.20001220703</ele>
        <time>2024-01-30T16:40:26.000Z</time>
      </trkpt>
      <trkpt lat="45.09774" lon="2.88741">
        <ele>972</ele>
        <time>2024-01-30T16:40:27.000Z</time>
      </trkpt>
      <trkpt lat="45.0977" lon="2.88739">
        <ele>971.40002441406</ele>
        <time>2024-01-30T16:40:28.000Z</time>
      </trkpt>
      <trkpt lat="45.09767" lon="2.88736">
        <ele>970.40002441406</ele>
        <time>2024-01-30T16:40:29.000Z</time>
      </trkpt>
      <trkpt lat="45.09766" lon="2.88732">
        <ele>970</ele>
        <time>2024-01-30T16:40:30.000Z</time>
      </trkpt>
      <trkpt lat="45.09768" lon="2.88726">
        <ele>969.40002441406</ele>
        <time>2024-01-30T16:40:32.000Z</time>
      </trkpt>
      <trkpt lat="45.09771" lon="2.88725">
        <ele>969</ele>
        <time>2024-01-30T16:40:33.000Z</time>
      </trkpt>
      <trkpt lat="45.09788" lon="2.88729">
        <ele>968.40002441406</ele>
        <time>2024-01-30T16:40:36.000Z</time>
      </trkpt>
      <trkpt lat="45.09796" lon="2.8873">
        <ele>968.20001220703</ele>
        <time>2024-01-30T16:40:37.000Z</time>
      </trkpt>
      <trkpt lat="45.09814" lon="2.88732">
        <ele>967</ele>
        <time>2024-01-30T16:40:39.000Z</time>
      </trkpt>
      <trkpt lat="45.09824" lon="2.88732">
        <ele>966.59997558594</ele>
        <time>2024-01-30T16:40:40.000Z</time>
      </trkpt>
      <trkpt lat="45.09835" lon="2.88732">
        <ele>966</ele>
        <time>2024-01-30T16:40:41.000Z</time>
      </trkpt>
      <trkpt lat="45.09855" lon="2.88734">
        <ele>964.59997558594</ele>
        <time>2024-01-30T16:40:43.000Z</time>
      </trkpt>
      <trkpt lat="45.09885" lon="2.88744">
        <ele>962.59997558594</ele>
        <time>2024-01-30T16:40:46.000Z</time>
      </trkpt>
      <trkpt lat="45.09907" lon="2.8875">
        <ele>961.20001220703</ele>
        <time>2024-01-30T16:40:48.000Z</time>
      </trkpt>
      <trkpt lat="45.0993" lon="2.88757">
        <ele>959.40002441406</ele>
        <time>2024-01-30T16:40:50.000Z</time>
      </trkpt>
      <trkpt lat="45.0994" lon="2.88762">
        <ele>958.59997558594</ele>
        <time>2024-01-30T16:40:51.000Z</time>
      </trkpt>
      <trkpt lat="45.09951" lon="2.8877">
        <ele>957.20001220703</ele>
        <time>2024-01-30T16:40:52.000Z</time>
      </trkpt>
      <trkpt lat="45.09973" lon="2.88791">
        <ele>955.20001220703</ele>
        <time>2024-01-30T16:40:54.000Z</time>
      </trkpt>
      <trkpt lat="45.09994" lon="2.88811">
        <ele>953</ele>
        <time>2024-01-30T16:40:56.000Z</time>
      </trkpt>
      <trkpt lat="45.10013" lon="2.88836">
        <ele>951</ele>
        <time>2024-01-30T16:40:58.000Z</time>
      </trkpt>
      <trkpt lat="45.1003" lon="2.88865">
        <ele>949.40002441406</ele>
        <time>2024-01-30T16:41:00.000Z</time>
      </trkpt>
      <trkpt lat="45.10049" lon="2.88894">
        <ele>946.79998779297</ele>
        <time>2024-01-30T16:41:02.000Z</time>
      </trkpt>
      <trkpt lat="45.10068" lon="2.88924">
        <ele>944.40002441406</ele>
        <time>2024-01-30T16:41:04.000Z</time>
      </trkpt>
      <trkpt lat="45.10077" lon="2.88937">
        <ele>943.20001220703</ele>
        <time>2024-01-30T16:41:05.000Z</time>
      </trkpt>
      <trkpt lat="45.10084" lon="2.8895">
        <ele>941.79998779297</ele>
        <time>2024-01-30T16:41:06.000Z</time>
      </trkpt>
      <trkpt lat="45.10091" lon="2.88962">
        <ele>940.59997558594</ele>
        <time>2024-01-30T16:41:07.000Z</time>
      </trkpt>
      <trkpt lat="45.10097" lon="2.88973">
        <ele>939.20001220703</ele>
        <time>2024-01-30T16:41:08.000Z</time>
      </trkpt>
      <trkpt lat="45.101" lon="2.88983">
        <ele>938</ele>
        <time>2024-01-30T16:41:09.000Z</time>
      </trkpt>
      <trkpt lat="45.10104" lon="2.88992">
        <ele>936.79998779297</ele>
        <time>2024-01-30T16:41:10.000Z</time>
      </trkpt>
      <trkpt lat="45.10107" lon="2.89008">
        <ele>935.59997558594</ele>
        <time>2024-01-30T16:41:12.000Z</time>
      </trkpt>
      <trkpt lat="45.10109" lon="2.89014">
        <ele>934.59997558594</ele>
        <time>2024-01-30T16:41:13.000Z</time>
      </trkpt>
      <trkpt lat="45.1011" lon="2.89017">
        <ele>933.79998779297</ele>
        <time>2024-01-30T16:41:14.000Z</time>
      </trkpt>
      <trkpt lat="45.10111" lon="2.89019">
        <ele>933.59997558594</ele>
        <time>2024-01-30T16:41:17.000Z</time>
      </trkpt>
      <trkpt lat="45.1011" lon="2.89018">
        <ele>933.79998779297</ele>
        <time>2024-01-30T16:41:26.000Z</time>
      </trkpt>
      <trkpt lat="45.10112" lon="2.89018">
        <ele>933.79998779297</ele>
        <time>2024-01-30T16:41:27.000Z</time>
      </trkpt>
      <trkpt lat="45.10118" lon="2.89012">
        <ele>933.79998779297</ele>
        <time>2024-01-30T16:41:29.000Z</time>
      </trkpt>
      <trkpt lat="45.10128" lon="2.8898">
        <ele>933.40002441406</ele>
        <time>2024-01-30T16:41:33.000Z</time>
      </trkpt>
      <trkpt lat="45.10138" lon="2.88938">
        <ele>932.20001220703</ele>
        <time>2024-01-30T16:41:36.000Z</time>
      </trkpt>
      <trkpt lat="45.10149" lon="2.88883">
        <ele>930.40002441406</ele>
        <time>2024-01-30T16:41:39.000Z</time>
      </trkpt>
      <trkpt lat="45.1015" lon="2.88862">
        <ele>930</ele>
        <time>2024-01-30T16:41:40.000Z</time>
      </trkpt>
      <trkpt lat="45.1015" lon="2.8884">
        <ele>929.20001220703</ele>
        <time>2024-01-30T16:41:41.000Z</time>
      </trkpt>
      <trkpt lat="45.10148" lon="2.88817">
        <ele>928.79998779297</ele>
        <time>2024-01-30T16:41:42.000Z</time>
      </trkpt>
      <trkpt lat="45.10137" lon="2.88773">
        <ele>927.79998779297</ele>
        <time>2024-01-30T16:41:44.000Z</time>
      </trkpt>
      <trkpt lat="45.10129" lon="2.88751">
        <ele>927.20001220703</ele>
        <time>2024-01-30T16:41:45.000Z</time>
      </trkpt>
      <trkpt lat="45.10118" lon="2.8873">
        <ele>926.40002441406</ele>
        <time>2024-01-30T16:41:46.000Z</time>
      </trkpt>
      <trkpt lat="45.10094" lon="2.88691">
        <ele>925.40002441406</ele>
        <time>2024-01-30T16:41:48.000Z</time>
      </trkpt>
      <trkpt lat="45.1007" lon="2.88651">
        <ele>923.79998779297</ele>
        <time>2024-01-30T16:41:50.000Z</time>
      </trkpt>
      <trkpt lat="45.10045" lon="2.88613">
        <ele>921.79998779297</ele>
        <time>2024-01-30T16:41:52.000Z</time>
      </trkpt>
      <trkpt lat="45.10034" lon="2.88592">
        <ele>920.79998779297</ele>
        <time>2024-01-30T16:41:53.000Z</time>
      </trkpt>
      <trkpt lat="45.10024" lon="2.88573">
        <ele>919.59997558594</ele>
        <time>2024-01-30T16:41:54.000Z</time>
      </trkpt>
      <trkpt lat="45.10003" lon="2.88537">
        <ele>918</ele>
        <time>2024-01-30T16:41:56.000Z</time>
      </trkpt>
      <trkpt lat="45.09994" lon="2.88518">
        <ele>916.79998779297</ele>
        <time>2024-01-30T16:41:57.000Z</time>
      </trkpt>
      <trkpt lat="45.09987" lon="2.88499">
        <ele>916.40002441406</ele>
        <time>2024-01-30T16:41:58.000Z</time>
      </trkpt>
      <trkpt lat="45.0998" lon="2.88479">
        <ele>915.40002441406</ele>
        <time>2024-01-30T16:41:59.000Z</time>
      </trkpt>
      <trkpt lat="45.09976" lon="2.88459">
        <ele>914.59997558594</ele>
        <time>2024-01-30T16:42:00.000Z</time>
      </trkpt>
      <trkpt lat="45.09974" lon="2.88438">
        <ele>913.59997558594</ele>
        <time>2024-01-30T16:42:01.000Z</time>
      </trkpt>
      <trkpt lat="45.09973" lon="2.88417">
        <ele>913.20001220703</ele>
        <time>2024-01-30T16:42:02.000Z</time>
      </trkpt>
      <trkpt lat="45.09977" lon="2.88375">
        <ele>912.20001220703</ele>
        <time>2024-01-30T16:42:04.000Z</time>
      </trkpt>
      <trkpt lat="45.09981" lon="2.88354">
        <ele>911.79998779297</ele>
        <time>2024-01-30T16:42:05.000Z</time>
      </trkpt>
      <trkpt lat="45.09997" lon="2.88316">
        <ele>911</ele>
        <time>2024-01-30T16:42:07.000Z</time>
      </trkpt>
      <trkpt lat="45.10016" lon="2.88278">
        <ele>909.59997558594</ele>
        <time>2024-01-30T16:42:09.000Z</time>
      </trkpt>
      <trkpt lat="45.10036" lon="2.88241">
        <ele>908.40002441406</ele>
        <time>2024-01-30T16:42:11.000Z</time>
      </trkpt>
      <trkpt lat="45.10056" lon="2.88203">
        <ele>907</ele>
        <time>2024-01-30T16:42:13.000Z</time>
      </trkpt>
      <trkpt lat="45.10077" lon="2.88163">
        <ele>905.79998779297</ele>
        <time>2024-01-30T16:42:15.000Z</time>
      </trkpt>
      <trkpt lat="45.10089" lon="2.88142">
        <ele>905</ele>
        <time>2024-01-30T16:42:16.000Z</time>
      </trkpt>
      <trkpt lat="45.101" lon="2.88121">
        <ele>904.40002441406</ele>
        <time>2024-01-30T16:42:17.000Z</time>
      </trkpt>
      <trkpt lat="45.10123" lon="2.88078">
        <ele>903.20001220703</ele>
        <time>2024-01-30T16:42:19.000Z</time>
      </trkpt>
      <trkpt lat="45.10146" lon="2.88034">
        <ele>902</ele>
        <time>2024-01-30T16:42:21.000Z</time>
      </trkpt>
      <trkpt lat="45.10167" lon="2.87991">
        <ele>900.79998779297</ele>
        <time>2024-01-30T16:42:23.000Z</time>
      </trkpt>
      <trkpt lat="45.1019" lon="2.87949">
        <ele>899.20001220703</ele>
        <time>2024-01-30T16:42:25.000Z</time>
      </trkpt>
      <trkpt lat="45.10211" lon="2.87909">
        <ele>898</ele>
        <time>2024-01-30T16:42:27.000Z</time>
      </trkpt>
      <trkpt lat="45.10232" lon="2.87869">
        <ele>897</ele>
        <time>2024-01-30T16:42:29.000Z</time>
      </trkpt>
      <trkpt lat="45.10243" lon="2.8785">
        <ele>896.40002441406</ele>
        <time>2024-01-30T16:42:30.000Z</time>
      </trkpt>
      <trkpt lat="45.10253" lon="2.8783">
        <ele>895.59997558594</ele>
        <time>2024-01-30T16:42:31.000Z</time>
      </trkpt>
      <trkpt lat="45.10264" lon="2.8781">
        <ele>894.59997558594</ele>
        <time>2024-01-30T16:42:32.000Z</time>
      </trkpt>
      <trkpt lat="45.10285" lon="2.87769">
        <ele>893.20001220703</ele>
        <time>2024-01-30T16:42:34.000Z</time>
      </trkpt>
      <trkpt lat="45.10308" lon="2.87727">
        <ele>891.79998779297</ele>
        <time>2024-01-30T16:42:36.000Z</time>
      </trkpt>
      <trkpt lat="45.1032" lon="2.87705">
        <ele>891</ele>
        <time>2024-01-30T16:42:37.000Z</time>
      </trkpt>
      <trkpt lat="45.10331" lon="2.87684">
        <ele>890.40002441406</ele>
        <time>2024-01-30T16:42:38.000Z</time>
      </trkpt>
      <trkpt lat="45.10357" lon="2.87646">
        <ele>890</ele>
        <time>2024-01-30T16:42:40.000Z</time>
      </trkpt>
      <trkpt lat="45.10402" lon="2.87605">
        <ele>889.79998779297</ele>
        <time>2024-01-30T16:42:43.000Z</time>
      </trkpt>
      <trkpt lat="45.10432" lon="2.87578">
        <ele>889.79998779297</ele>
        <time>2024-01-30T16:42:45.000Z</time>
      </trkpt>
      <trkpt lat="45.10445" lon="2.87562">
        <ele>890</ele>
        <time>2024-01-30T16:42:46.000Z</time>
      </trkpt>
      <trkpt lat="45.10457" lon="2.87544">
        <ele>889.79998779297</ele>
        <time>2024-01-30T16:42:47.000Z</time>
      </trkpt>
      <trkpt lat="45.10466" lon="2.87524">
        <ele>889.79998779297</ele>
        <time>2024-01-30T16:42:48.000Z</time>
      </trkpt>
      <trkpt lat="45.10473" lon="2.87502">
        <ele>889.59997558594</ele>
        <time>2024-01-30T16:42:49.000Z</time>
      </trkpt>
      <trkpt lat="45.10483" lon="2.87455">
        <ele>889</ele>
        <time>2024-01-30T16:42:51.000Z</time>
      </trkpt>
      <trkpt lat="45.10493" lon="2.87384">
        <ele>887.59997558594</ele>
        <time>2024-01-30T16:42:54.000Z</time>
      </trkpt>
      <trkpt lat="45.10505" lon="2.87319">
        <ele>886.79998779297</ele>
        <time>2024-01-30T16:42:57.000Z</time>
      </trkpt>
      <trkpt lat="45.10509" lon="2.87302">
        <ele>886.40002441406</ele>
        <time>2024-01-30T16:42:58.000Z</time>
      </trkpt>
      <trkpt lat="45.10519" lon="2.87276">
        <ele>885.79998779297</ele>
        <time>2024-01-30T16:43:00.000Z</time>
      </trkpt>
      <trkpt lat="45.10532" lon="2.8726">
        <ele>886</ele>
        <time>2024-01-30T16:43:02.000Z</time>
      </trkpt>
      <trkpt lat="45.10548" lon="2.87256">
        <ele>886</ele>
        <time>2024-01-30T16:43:04.000Z</time>
      </trkpt>
      <trkpt lat="45.10557" lon="2.87256">
        <ele>886.20001220703</ele>
        <time>2024-01-30T16:43:05.000Z</time>
      </trkpt>
      <trkpt lat="45.10584" lon="2.87264">
        <ele>886.40002441406</ele>
        <time>2024-01-30T16:43:08.000Z</time>
      </trkpt>
      <trkpt lat="45.10595" lon="2.8727">
        <ele>886.59997558594</ele>
        <time>2024-01-30T16:43:09.000Z</time>
      </trkpt>
      <trkpt lat="45.10601" lon="2.87277">
        <ele>886.79998779297</ele>
        <time>2024-01-30T16:43:10.000Z</time>
      </trkpt>
      <trkpt lat="45.10617" lon="2.87296">
        <ele>887.20001220703</ele>
        <time>2024-01-30T16:43:12.000Z</time>
      </trkpt>
      <trkpt lat="45.10634" lon="2.87316">
        <ele>887.59997558594</ele>
        <time>2024-01-30T16:43:14.000Z</time>
      </trkpt>
      <trkpt lat="45.10652" lon="2.87334">
        <ele>888.40002441406</ele>
        <time>2024-01-30T16:43:16.000Z</time>
      </trkpt>
      <trkpt lat="45.1066" lon="2.87341">
        <ele>889</ele>
        <time>2024-01-30T16:43:17.000Z</time>
      </trkpt>
      <trkpt lat="45.10671" lon="2.87348">
        <ele>889.59997558594</ele>
        <time>2024-01-30T16:43:18.000Z</time>
      </trkpt>
      <trkpt lat="45.10692" lon="2.87355">
        <ele>890.40002441406</ele>
        <time>2024-01-30T16:43:20.000Z</time>
      </trkpt>
      <trkpt lat="45.10702" lon="2.87357">
        <ele>891.20001220703</ele>
        <time>2024-01-30T16:43:21.000Z</time>
      </trkpt>
      <trkpt lat="45.10713" lon="2.87357">
        <ele>891.59997558594</ele>
        <time>2024-01-30T16:43:22.000Z</time>
      </trkpt>
      <trkpt lat="45.10733" lon="2.87354">
        <ele>893</ele>
        <time>2024-01-30T16:43:24.000Z</time>
      </trkpt>
      <trkpt lat="45.10764" lon="2.87343">
        <ele>894.20001220703</ele>
        <time>2024-01-30T16:43:27.000Z</time>
      </trkpt>
      <trkpt lat="45.10783" lon="2.87334">
        <ele>895.59997558594</ele>
        <time>2024-01-30T16:43:29.000Z</time>
      </trkpt>
      <trkpt lat="45.10792" lon="2.87329">
        <ele>895.79998779297</ele>
        <time>2024-01-30T16:43:30.000Z</time>
      </trkpt>
      <trkpt lat="45.10806" lon="2.87318">
        <ele>896.59997558594</ele>
        <time>2024-01-30T16:43:32.000Z</time>
      </trkpt>
      <trkpt lat="45.10818" lon="2.87308">
        <ele>897.40002441406</ele>
        <time>2024-01-30T16:43:34.000Z</time>
      </trkpt>
      <trkpt lat="45.10822" lon="2.87303">
        <ele>897.79998779297</ele>
        <time>2024-01-30T16:43:35.000Z</time>
      </trkpt>
      <trkpt lat="45.10841" lon="2.87286">
        <ele>899.20001220703</ele>
        <time>2024-01-30T16:43:39.000Z</time>
      </trkpt>
      <trkpt lat="45.1086" lon="2.8727">
        <ele>900.20001220703</ele>
        <time>2024-01-30T16:43:43.000Z</time>
      </trkpt>
      <trkpt lat="45.10873" lon="2.87258">
        <ele>901.40002441406</ele>
        <time>2024-01-30T16:43:46.000Z</time>
      </trkpt>
      <trkpt lat="45.10877" lon="2.87254">
        <ele>901.40002441406</ele>
        <time>2024-01-30T16:43:47.000Z</time>
      </trkpt>
      <trkpt lat="45.1089" lon="2.8724">
        <ele>902.59997558594</ele>
        <time>2024-01-30T16:43:50.000Z</time>
      </trkpt>
      <trkpt lat="45.10904" lon="2.87228">
        <ele>903.40002441406</ele>
        <time>2024-01-30T16:43:53.000Z</time>
      </trkpt>
      <trkpt lat="45.10908" lon="2.87225">
        <ele>903.79998779297</ele>
        <time>2024-01-30T16:43:54.000Z</time>
      </trkpt>
      <trkpt lat="45.10922" lon="2.87212">
        <ele>905</ele>
        <time>2024-01-30T16:43:58.000Z</time>
      </trkpt>
      <trkpt lat="45.10925" lon="2.8721">
        <ele>905.40002441406</ele>
        <time>2024-01-30T16:43:59.000Z</time>
      </trkpt>
      <trkpt lat="45.10935" lon="2.87202">
        <ele>906</ele>
        <time>2024-01-30T16:44:04.000Z</time>
      </trkpt>
      <trkpt lat="45.10935" lon="2.87201">
        <ele>906</ele>
        <time>2024-01-30T16:44:05.000Z</time>
      </trkpt>
      <trkpt lat="45.10936" lon="2.87202">
        <ele>906.20001220703</ele>
        <time>2024-01-30T16:44:11.000Z</time>
      </trkpt>
      <trkpt lat="45.10938" lon="2.872">
        <ele>906.59997558594</ele>
        <time>2024-01-30T16:44:20.000Z</time>
      </trkpt>
      <trkpt lat="45.1094" lon="2.87196">
        <ele>906.59997558594</ele>
        <time>2024-01-30T16:44:22.000Z</time>
      </trkpt>
      <trkpt lat="45.10942" lon="2.87193">
        <ele>906.59997558594</ele>
        <time>2024-01-30T16:44:23.000Z</time>
      </trkpt>
      <trkpt lat="45.10942" lon="2.87181">
        <ele>906.79998779297</ele>
        <time>2024-01-30T16:44:25.000Z</time>
      </trkpt>
      <trkpt lat="45.10938" lon="2.87154">
        <ele>906.79998779297</ele>
        <time>2024-01-30T16:44:28.000Z</time>
      </trkpt>
      <trkpt lat="45.10936" lon="2.87144">
        <ele>906.59997558594</ele>
        <time>2024-01-30T16:44:29.000Z</time>
      </trkpt>
      <trkpt lat="45.10933" lon="2.87074">
        <ele>905</ele>
        <time>2024-01-30T16:44:34.000Z</time>
      </trkpt>
      <trkpt lat="45.10932" lon="2.87063">
        <ele>900.3</ele>
      </trkpt>
      <trkpt lat="45.10933" lon="2.87053">
        <ele>900.2</ele>
      </trkpt>
      <trkpt lat="45.10936" lon="2.87042">
        <ele>900.4</ele>
      </trkpt>
      <trkpt lat="45.10942" lon="2.8702">
        <ele>900.8</ele>
      </trkpt>
      <trkpt lat="45.1095" lon="2.86992">
        <ele>901</ele>
      </trkpt>
      <trkpt lat="45.10955" lon="2.86974">
        <ele>900.8</ele>
      </trkpt>
      <trkpt lat="45.10957" lon="2.86964">
        <ele>901</ele>
      </trkpt>
      <trkpt lat="45.10959" lon="2.8695">
        <ele>901.4</ele>
      </trkpt>
      <trkpt lat="45.10959" lon="2.86934">
        <ele>901.5</ele>
      </trkpt>
      <trkpt lat="45.10959" lon="2.86926">
        <ele>901.5</ele>
      </trkpt>
      <trkpt lat="45.10968" lon="2.86926">
        <ele>904.59997558594</ele>
        <time>2024-01-30T16:46:39.000Z</time>
      </trkpt>
      <trkpt lat="45.10979" lon="2.86922">
        <ele>905.40002441406</ele>
        <time>2024-01-30T16:46:41.000Z</time>
      </trkpt>
      <trkpt lat="45.10985" lon="2.8692">
        <ele>906</ele>
        <time>2024-01-30T16:46:42.000Z</time>
      </trkpt>
      <trkpt lat="45.11001" lon="2.86917">
        <ele>907</ele>
        <time>2024-01-30T16:46:44.000Z</time>
      </trkpt>
      <trkpt lat="45.11012" lon="2.86915">
        <ele>908.59997558594</ele>
        <time>2024-01-30T16:46:46.000Z</time>
      </trkpt>
      <trkpt lat="45.1102" lon="2.86913">
        <ele>909.79998779297</ele>
        <time>2024-01-30T16:46:47.000Z</time>
      </trkpt>
      <trkpt lat="45.11025" lon="2.86913">
        <ele>910.40002441406</ele>
        <time>2024-01-30T16:46:48.000Z</time>
      </trkpt>
      <trkpt lat="45.11031" lon="2.86914">
        <ele>911</ele>
        <time>2024-01-30T16:46:49.000Z</time>
      </trkpt>
      <trkpt lat="45.11042" lon="2.86915">
        <ele>912.40002441406</ele>
        <time>2024-01-30T16:46:51.000Z</time>
      </trkpt>
      <trkpt lat="45.1105" lon="2.86915">
        <ele>913.59997558594</ele>
        <time>2024-01-30T16:46:53.000Z</time>
      </trkpt>
      <trkpt lat="45.11058" lon="2.86915">
        <ele>914.79998779297</ele>
        <time>2024-01-30T16:46:56.000Z</time>
      </trkpt>
      <trkpt lat="45.11059" lon="2.86915">
        <ele>915</ele>
        <time>2024-01-30T16:46:57.000Z</time>
      </trkpt>
      <trkpt lat="45.11059" lon="2.86915">
        <ele>915.59997558594</ele>
        <time>2024-01-30T16:47:02.000Z</time>
      </trkpt>
      <trkpt lat="45.1106" lon="2.86913">
        <ele>915.59997558594</ele>
        <time>2024-01-30T16:47:07.000Z</time>
      </trkpt>
      <trkpt lat="45.11061" lon="2.8691">
        <ele>915.59997558594</ele>
        <time>2024-01-30T16:47:09.000Z</time>
      </trkpt>
      <trkpt lat="45.11062" lon="2.86892">
        <ele>915.59997558594</ele>
        <time>2024-01-30T16:47:14.000Z</time>
      </trkpt>
      <trkpt lat="45.11063" lon="2.86856">
        <ele>915.40002441406</ele>
        <time>2024-01-30T16:47:19.000Z</time>
      </trkpt>
      <trkpt lat="45.11067" lon="2.86807">
        <ele>913.79998779297</ele>
        <time>2024-01-30T16:47:26.000Z</time>
      </trkpt>
      <trkpt lat="45.11067" lon="2.86799">
        <ele>913.79998779297</ele>
        <time>2024-01-30T16:47:27.000Z</time>
      </trkpt>
      <trkpt lat="45.11068" lon="2.86792">
        <ele>913.40002441406</ele>
        <time>2024-01-30T16:47:28.000Z</time>
      </trkpt>
      <trkpt lat="45.1107" lon="2.86773">
        <ele>912.40002441406</ele>
        <time>2024-01-30T16:47:31.000Z</time>
      </trkpt>
      <trkpt lat="45.1107" lon="2.86767">
        <ele>911.79998779297</ele>
        <time>2024-01-30T16:47:32.000Z</time>
      </trkpt>
      <trkpt lat="45.1107" lon="2.86765">
        <ele>911</ele>
        <time>2024-01-30T16:47:33.000Z</time>
      </trkpt>
      <trkpt lat="45.1107" lon="2.86765">
        <ele>910.59997558594</ele>
        <time>2024-01-30T16:47:35.000Z</time>
      </trkpt>
      <trkpt lat="45.1107" lon="2.86765">
        <ele>910.79998779297</ele>
        <time>2024-01-30T16:47:48.000Z</time>
      </trkpt>
      <trkpt lat="45.1107" lon="2.86765">
        <ele>911</ele>
        <time>2024-01-30T16:47:55.000Z</time>
      </trkpt>
      <trkpt lat="45.1107" lon="2.86765">
        <ele>911.20001220703</ele>
        <time>2024-01-30T16:48:00.000Z</time>
      </trkpt>
      <trkpt lat="45.11072" lon="2.86762">
        <ele>911.40002441406</ele>
        <time>2024-01-30T16:48:07.000Z</time>
      </trkpt>
      <trkpt lat="45.11073" lon="2.86763">
        <ele>911.40002441406</ele>
        <time>2024-01-30T16:48:08.000Z</time>
      </trkpt>
      <trkpt lat="45.11075" lon="2.86765">
        <ele>911.59997558594</ele>
        <time>2024-01-30T16:48:10.000Z</time>
      </trkpt>
      <trkpt lat="45.11077" lon="2.8677">
        <ele>911.79998779297</ele>
        <time>2024-01-30T16:48:12.000Z</time>
      </trkpt>
      <trkpt lat="45.11078" lon="2.86775">
        <ele>912</ele>
        <time>2024-01-30T16:48:13.000Z</time>
      </trkpt>
      <trkpt lat="45.11082" lon="2.86791">
        <ele>912.59997558594</ele>
        <time>2024-01-30T16:48:16.000Z</time>
      </trkpt>
      <trkpt lat="45.11083" lon="2.86807">
        <ele>913.40002441406</ele>
        <time>2024-01-30T16:48:18.000Z</time>
      </trkpt>
      <trkpt lat="45.11083" lon="2.86826">
        <ele>914.20001220703</ele>
        <time>2024-01-30T16:48:20.000Z</time>
      </trkpt>
      <trkpt lat="45.11083" lon="2.86838">
        <ele>914.59997558594</ele>
        <time>2024-01-30T16:48:21.000Z</time>
      </trkpt>
      <trkpt lat="45.11084" lon="2.86866">
        <ele>915.79998779297</ele>
        <time>2024-01-30T16:48:24.000Z</time>
      </trkpt>
      <trkpt lat="45.11083" lon="2.86882">
        <ele>916.40002441406</ele>
        <time>2024-01-30T16:48:26.000Z</time>
      </trkpt>
      <trkpt lat="45.11083" lon="2.86895">
        <ele>916.79998779297</ele>
        <time>2024-01-30T16:48:28.000Z</time>
      </trkpt>
      <trkpt lat="45.11082" lon="2.86905">
        <ele>917</ele>
        <time>2024-01-30T16:48:30.000Z</time>
      </trkpt>
      <trkpt lat="45.11083" lon="2.86922">
        <ele>917.79998779297</ele>
        <time>2024-01-30T16:48:34.000Z</time>
      </trkpt>
      <trkpt lat="45.11085" lon="2.8693">
        <ele>918</ele>
        <time>2024-01-30T16:48:36.000Z</time>
      </trkpt>
      <trkpt lat="45.11088" lon="2.86934">
        <ele>918.40002441406</ele>
        <time>2024-01-30T16:48:38.000Z</time>
      </trkpt>
      <trkpt lat="45.1109" lon="2.86933">
        <ele>918.59997558594</ele>
        <time>2024-01-30T16:48:39.000Z</time>
      </trkpt>
      <trkpt lat="45.11091" lon="2.86931">
        <ele>918.79998779297</ele>
        <time>2024-01-30T16:48:40.000Z</time>
      </trkpt>
      <trkpt lat="45.11091" lon="2.86928">
        <ele>918.79998779297</ele>
        <time>2024-01-30T16:48:41.000Z</time>
      </trkpt>
      <trkpt lat="45.11093" lon="2.8692">
        <ele>919</ele>
        <time>2024-01-30T16:48:43.000Z</time>
      </trkpt>
      <trkpt lat="45.11095" lon="2.86906">
        <ele>919.79998779297</ele>
        <time>2024-01-30T16:48:46.000Z</time>
      </trkpt>
      <trkpt lat="45.11096" lon="2.869">
        <ele>920</ele>
        <time>2024-01-30T16:48:47.000Z</time>
      </trkpt>
      <trkpt lat="45.11097" lon="2.86893">
        <ele>920.40002441406</ele>
        <time>2024-01-30T16:48:48.000Z</time>
      </trkpt>
      <trkpt lat="45.111" lon="2.86879">
        <ele>921.20001220703</ele>
        <time>2024-01-30T16:48:50.000Z</time>
      </trkpt>
      <trkpt lat="45.11103" lon="2.86867">
        <ele>922.20001220703</ele>
        <time>2024-01-30T16:48:52.000Z</time>
      </trkpt>
      <trkpt lat="45.11105" lon="2.86861">
        <ele>922.40002441406</ele>
        <time>2024-01-30T16:48:53.000Z</time>
      </trkpt>
      <trkpt lat="45.11108" lon="2.86853">
        <ele>923</ele>
        <time>2024-01-30T16:48:54.000Z</time>
      </trkpt>
      <trkpt lat="45.1111" lon="2.86847">
        <ele>923.59997558594</ele>
        <time>2024-01-30T16:48:55.000Z</time>
      </trkpt>
      <trkpt lat="45.11115" lon="2.86831">
        <ele>924.59997558594</ele>
        <time>2024-01-30T16:48:57.000Z</time>
      </trkpt>
      <trkpt lat="45.11121" lon="2.86815">
        <ele>925.79998779297</ele>
        <time>2024-01-30T16:48:59.000Z</time>
      </trkpt>
      <trkpt lat="45.11124" lon="2.86807">
        <ele>926.40002441406</ele>
        <time>2024-01-30T16:49:00.000Z</time>
      </trkpt>
      <trkpt lat="45.11127" lon="2.86797">
        <ele>927.20001220703</ele>
        <time>2024-01-30T16:49:01.000Z</time>
      </trkpt>
      <trkpt lat="45.11129" lon="2.86791">
        <ele>927.79998779297</ele>
        <time>2024-01-30T16:49:02.000Z</time>
      </trkpt>
      <trkpt lat="45.11132" lon="2.86784">
        <ele>928.40002441406</ele>
        <time>2024-01-30T16:49:03.000Z</time>
      </trkpt>
      <trkpt lat="45.11136" lon="2.86778">
        <ele>929.20001220703</ele>
        <time>2024-01-30T16:49:04.000Z</time>
      </trkpt>
      <trkpt lat="45.11139" lon="2.86772">
        <ele>929.59997558594</ele>
        <time>2024-01-30T16:49:05.000Z</time>
      </trkpt>
      <trkpt lat="45.11146" lon="2.86761">
        <ele>931</ele>
        <time>2024-01-30T16:49:07.000Z</time>
      </trkpt>
      <trkpt lat="45.1115" lon="2.86758">
        <ele>931.59997558594</ele>
        <time>2024-01-30T16:49:08.000Z</time>
      </trkpt>
      <trkpt lat="45.11154" lon="2.86756">
        <ele>932.40002441406</ele>
        <time>2024-01-30T16:49:09.000Z</time>
      </trkpt>
      <trkpt lat="45.11164" lon="2.86751">
        <ele>933.59997558594</ele>
        <time>2024-01-30T16:49:11.000Z</time>
      </trkpt>
      <trkpt lat="45.11173" lon="2.86748">
        <ele>934.79998779297</ele>
        <time>2024-01-30T16:49:13.000Z</time>
      </trkpt>
      <trkpt lat="45.11179" lon="2.8675">
        <ele>936.20001220703</ele>
        <time>2024-01-30T16:49:15.000Z</time>
      </trkpt>
      <trkpt lat="45.11186" lon="2.86757">
        <ele>937.20001220703</ele>
        <time>2024-01-30T16:49:17.000Z</time>
      </trkpt>
      <trkpt lat="45.11188" lon="2.86764">
        <ele>937.40002441406</ele>
        <time>2024-01-30T16:49:19.000Z</time>
      </trkpt>
      <trkpt lat="45.11189" lon="2.86765">
        <ele>937.79998779297</ele>
        <time>2024-01-30T16:49:23.000Z</time>
      </trkpt>
      <trkpt lat="45.1119" lon="2.86765">
        <ele>938</ele>
        <time>2024-01-30T16:49:24.000Z</time>
      </trkpt>
      <trkpt lat="45.11193" lon="2.86764">
        <ele>938</ele>
        <time>2024-01-30T16:49:26.000Z</time>
      </trkpt>
      <trkpt lat="45.11194" lon="2.86763">
        <ele>938.20001220703</ele>
        <time>2024-01-30T16:49:27.000Z</time>
      </trkpt>
      <trkpt lat="45.11194" lon="2.86763">
        <ele>938.59997558594</ele>
        <time>2024-01-30T16:49:33.000Z</time>
      </trkpt>
      <trkpt lat="45.11193" lon="2.86761">
        <ele>938.59997558594</ele>
        <time>2024-01-30T16:49:38.000Z</time>
      </trkpt>
      <trkpt lat="45.11191" lon="2.86755">
        <ele>938.79998779297</ele>
        <time>2024-01-30T16:49:40.000Z</time>
      </trkpt>
      <trkpt lat="45.11186" lon="2.86743">
        <ele>939.59997558594</ele>
        <time>2024-01-30T16:49:43.000Z</time>
      </trkpt>
      <trkpt lat="45.11182" lon="2.86734">
        <ele>940.40002441406</ele>
        <time>2024-01-30T16:49:45.000Z</time>
      </trkpt>
      <trkpt lat="45.11179" lon="2.86728">
        <ele>940.59997558594</ele>
        <time>2024-01-30T16:49:46.000Z</time>
      </trkpt>
      <trkpt lat="45.11173" lon="2.86711">
        <ele>941.79998779297</ele>
        <time>2024-01-30T16:49:48.000Z</time>
      </trkpt>
      <trkpt lat="45.11168" lon="2.86702">
        <ele>942.20001220703</ele>
        <time>2024-01-30T16:49:50.000Z</time>
      </trkpt>
      <trkpt lat="45.11161" lon="2.86688">
        <ele>942.59997558594</ele>
        <time>2024-01-30T16:49:54.000Z</time>
      </trkpt>
      <trkpt lat="45.1116" lon="2.86686">
        <ele>942.59997558594</ele>
        <time>2024-01-30T16:49:56.000Z</time>
      </trkpt>
      <trkpt lat="45.11158" lon="2.86682">
        <ele>943</ele>
        <time>2024-01-30T16:49:58.000Z</time>
      </trkpt>
      <trkpt lat="45.1115" lon="2.86673">
        <ele>943.59997558594</ele>
        <time>2024-01-30T16:50:01.000Z</time>
      </trkpt>
      <trkpt lat="45.11147" lon="2.86668">
        <ele>943.79998779297</ele>
        <time>2024-01-30T16:50:02.000Z</time>
      </trkpt>
      <trkpt lat="45.11144" lon="2.86663">
        <ele>944</ele>
        <time>2024-01-30T16:50:03.000Z</time>
      </trkpt>
      <trkpt lat="45.1114" lon="2.86657">
        <ele>944.20001220703</ele>
        <time>2024-01-30T16:50:04.000Z</time>
      </trkpt>
      <trkpt lat="45.11133" lon="2.86645">
        <ele>945.59997558594</ele>
        <time>2024-01-30T16:50:06.000Z</time>
      </trkpt>
      <trkpt lat="45.11124" lon="2.86629">
        <ele>946.20001220703</ele>
        <time>2024-01-30T16:50:08.000Z</time>
      </trkpt>
      <trkpt lat="45.11121" lon="2.8662">
        <ele>946.79998779297</ele>
        <time>2024-01-30T16:50:09.000Z</time>
      </trkpt>
      <trkpt lat="45.11114" lon="2.86602">
        <ele>948</ele>
        <time>2024-01-30T16:50:11.000Z</time>
      </trkpt>
      <trkpt lat="45.111" lon="2.86578">
        <ele>948.79998779297</ele>
        <time>2024-01-30T16:50:14.000Z</time>
      </trkpt>
      <trkpt lat="45.11097" lon="2.86572">
        <ele>949.20001220703</ele>
        <time>2024-01-30T16:50:15.000Z</time>
      </trkpt>
      <trkpt lat="45.1109" lon="2.86563">
        <ele>950</ele>
        <time>2024-01-30T16:50:18.000Z</time>
      </trkpt>
      <trkpt lat="45.11088" lon="2.86561">
        <ele>950.20001220703</ele>
        <time>2024-01-30T16:50:19.000Z</time>
      </trkpt>
      <trkpt lat="45.11084" lon="2.86555">
        <ele>950.79998779297</ele>
        <time>2024-01-30T16:50:23.000Z</time>
      </trkpt>
      <trkpt lat="45.11087" lon="2.8655">
        <ele>951.20001220703</ele>
        <time>2024-01-30T16:50:26.000Z</time>
      </trkpt>
      <trkpt lat="45.11091" lon="2.8655">
        <ele>951.20001220703</ele>
        <time>2024-01-30T16:50:28.000Z</time>
      </trkpt>
      <trkpt lat="45.111" lon="2.86565">
        <ele>952</ele>
        <time>2024-01-30T16:50:32.000Z</time>
      </trkpt>
      <trkpt lat="45.11107" lon="2.86579">
        <ele>952.59997558594</ele>
        <time>2024-01-30T16:50:34.000Z</time>
      </trkpt>
      <trkpt lat="45.11116" lon="2.86592">
        <ele>953.40002441406</ele>
        <time>2024-01-30T16:50:36.000Z</time>
      </trkpt>
      <trkpt lat="45.11122" lon="2.86599">
        <ele>953.59997558594</ele>
        <time>2024-01-30T16:50:37.000Z</time>
      </trkpt>
      <trkpt lat="45.11137" lon="2.86617">
        <ele>954.79998779297</ele>
        <time>2024-01-30T16:50:39.000Z</time>
      </trkpt>
      <trkpt lat="45.11145" lon="2.86627">
        <ele>955.40002441406</ele>
        <time>2024-01-30T16:50:40.000Z</time>
      </trkpt>
      <trkpt lat="45.11154" lon="2.86636">
        <ele>956.20001220703</ele>
        <time>2024-01-30T16:50:41.000Z</time>
      </trkpt>
      <trkpt lat="45.11171" lon="2.86655">
        <ele>957.20001220703</ele>
        <time>2024-01-30T16:50:43.000Z</time>
      </trkpt>
      <trkpt lat="45.11187" lon="2.86672">
        <ele>958.20001220703</ele>
        <time>2024-01-30T16:50:45.000Z</time>
      </trkpt>
      <trkpt lat="45.11203" lon="2.86684">
        <ele>958.79998779297</ele>
        <time>2024-01-30T16:50:47.000Z</time>
      </trkpt>
      <trkpt lat="45.1121" lon="2.86687">
        <ele>959.20001220703</ele>
        <time>2024-01-30T16:50:48.000Z</time>
      </trkpt>
      <trkpt lat="45.11218" lon="2.86689">
        <ele>959.79998779297</ele>
        <time>2024-01-30T16:50:49.000Z</time>
      </trkpt>
      <trkpt lat="45.11225" lon="2.8669">
        <ele>960.40002441406</ele>
        <time>2024-01-30T16:50:50.000Z</time>
      </trkpt>
      <trkpt lat="45.11243" lon="2.86692">
        <ele>961.40002441406</ele>
        <time>2024-01-30T16:50:52.000Z</time>
      </trkpt>
      <trkpt lat="45.11261" lon="2.8669">
        <ele>962.20001220703</ele>
        <time>2024-01-30T16:50:54.000Z</time>
      </trkpt>
      <trkpt lat="45.11271" lon="2.86689">
        <ele>963</ele>
        <time>2024-01-30T16:50:55.000Z</time>
      </trkpt>
      <trkpt lat="45.11291" lon="2.86687">
        <ele>964</ele>
        <time>2024-01-30T16:50:57.000Z</time>
      </trkpt>
      <trkpt lat="45.11307" lon="2.86685">
        <ele>964.79998779297</ele>
        <time>2024-01-30T16:50:59.000Z</time>
      </trkpt>
      <trkpt lat="45.11318" lon="2.8668">
        <ele>965.40002441406</ele>
        <time>2024-01-30T16:51:00.000Z</time>
      </trkpt>
      <trkpt lat="45.11335" lon="2.86669">
        <ele>966</ele>
        <time>2024-01-30T16:51:02.000Z</time>
      </trkpt>
      <trkpt lat="45.11351" lon="2.86659">
        <ele>966.59997558594</ele>
        <time>2024-01-30T16:51:04.000Z</time>
      </trkpt>
      <trkpt lat="45.11365" lon="2.86655">
        <ele>967</ele>
        <time>2024-01-30T16:51:06.000Z</time>
      </trkpt>
      <trkpt lat="45.11379" lon="2.86656">
        <ele>967.79998779297</ele>
        <time>2024-01-30T16:51:08.000Z</time>
      </trkpt>
      <trkpt lat="45.11387" lon="2.86655">
        <ele>968.79998779297</ele>
        <time>2024-01-30T16:51:09.000Z</time>
      </trkpt>
      <trkpt lat="45.11395" lon="2.86651">
        <ele>969.40002441406</ele>
        <time>2024-01-30T16:51:10.000Z</time>
      </trkpt>
      <trkpt lat="45.11403" lon="2.86646">
        <ele>970</ele>
        <time>2024-01-30T16:51:11.000Z</time>
      </trkpt>
      <trkpt lat="45.11409" lon="2.8664">
        <ele>970.79998779297</ele>
        <time>2024-01-30T16:51:12.000Z</time>
      </trkpt>
      <trkpt lat="45.11416" lon="2.86631">
        <ele>971.79998779297</ele>
        <time>2024-01-30T16:51:13.000Z</time>
      </trkpt>
      <trkpt lat="45.11425" lon="2.8662">
        <ele>972.79998779297</ele>
        <time>2024-01-30T16:51:14.000Z</time>
      </trkpt>
      <trkpt lat="45.11431" lon="2.86611">
        <ele>973.59997558594</ele>
        <time>2024-01-30T16:51:15.000Z</time>
      </trkpt>
      <trkpt lat="45.11439" lon="2.86597">
        <ele>975.20001220703</ele>
        <time>2024-01-30T16:51:16.000Z</time>
      </trkpt>
      <trkpt lat="45.11446" lon="2.86585">
        <ele>975.79998779297</ele>
        <time>2024-01-30T16:51:17.000Z</time>
      </trkpt>
      <trkpt lat="45.11452" lon="2.86573">
        <ele>976.59997558594</ele>
        <time>2024-01-30T16:51:18.000Z</time>
      </trkpt>
      <trkpt lat="45.11457" lon="2.86564">
        <ele>977.59997558594</ele>
        <time>2024-01-30T16:51:19.000Z</time>
        <extensions>
          <gpxtpx:TrackPointExtension xmlns:gpxtpx="http://www.garmin.com/xmlschemas/TrackPointExtension/v1">
            <gpxtpx:hr>75</gpxtpx:hr>
          </gpxtpx:TrackPointExtension>
        </extensions>
      </trkpt>
      <trkpt lat="45.11463" lon="2.86552">
        <ele>978.20001220703</ele>
        <time>2024-01-30T16:51:20.000Z</time>
        <extensions>
          <gpxtpx:TrackPointExtension xmlns:gpxtpx="http://www.garmin.com/xmlschemas/TrackPointExtension/v1">
            <gpxtpx:hr>72</gpxtpx:hr>
          </gpxtpx:TrackPointExtension>
        </extensions>
      </trkpt>
      <trkpt lat="45.11469" lon="2.86537">
        <ele>979.40002441406</ele>
        <time>2024-01-30T16:51:21.000Z</time>
        <extensions>
          <gpxtpx:TrackPointExtension xmlns:gpxtpx="http://www.garmin.com/xmlschemas/TrackPointExtension/v1">
            <gpxtpx:hr>71</gpxtpx:hr>
          </gpxtpx:TrackPointExtension>
        </extensions>
      </trkpt>
      <trkpt lat="45.11473" lon="2.86524">
        <ele>980.40002441406</ele>
        <time>2024-01-30T16:51:22.000Z</time>
        <extensions>
          <gpxtpx:TrackPointExtension xmlns:gpxtpx="http://www.garmin.com/xmlschemas/TrackPointExtension/v1">
            <gpxtpx:hr>74</gpxtpx:hr>
          </gpxtpx:TrackPointExtension>
        </extensions>
      </trkpt>
      <trkpt lat="45.11477" lon="2.86512">
        <ele>981.20001220703</ele>
        <time>2024-01-30T16:51:23.000Z</time>
        <extensions>
          <gpxtpx:TrackPointExtension xmlns:gpxtpx="http://www.garmin.com/xmlschemas/TrackPointExtension/v1">
            <gpxtpx:hr>72</gpxtpx:hr>
          </gpxtpx:TrackPointExtension>
        </extensions>
      </trkpt>
      <trkpt lat="45.11479" lon="2.865">
        <ele>982.20001220703</ele>
        <time>2024-01-30T16:51:24.000Z</time>
        <extensions>
          <gpxtpx:TrackPointExtension xmlns:gpxtpx="http://www.garmin.com/xmlschemas/TrackPointExtension/v1">
            <gpxtpx:hr>70</gpxtpx:hr>
          </gpxtpx:TrackPointExtension>
        </extensions>
      </trkpt>
      <trkpt lat="45.11481" lon="2.8648">
        <ele>983.59997558594</ele>
        <time>2024-01-30T16:51:26.000Z</time>
        <extensions>
          <gpxtpx:TrackPointExtension xmlns:gpxtpx="http://www.garmin.com/xmlschemas/TrackPointExtension/v1">
            <gpxtpx:hr>70</gpxtpx:hr>
          </gpxtpx:TrackPointExtension>
        </extensions>
      </trkpt>
      <trkpt lat="45.11481" lon="2.86468">
        <ele>984.79998779297</ele>
        <time>2024-01-30T16:51:27.000Z</time>
        <extensions>
          <gpxtpx:TrackPointExtension xmlns:gpxtpx="http://www.garmin.com/xmlschemas/TrackPointExtension/v1">
            <gpxtpx:hr>73</gpxtpx:hr>
          </gpxtpx:TrackPointExtension>
        </extensions>
      </trkpt>
      <trkpt lat="45.1148" lon="2.86451">
        <ele>985.20001220703</ele>
        <time>2024-01-30T16:51:29.000Z</time>
        <extensions>
          <gpxtpx:TrackPointExtension xmlns:gpxtpx="http://www.garmin.com/xmlschemas/TrackPointExtension/v1">
            <gpxtpx:hr>73</gpxtpx:hr>
          </gpxtpx:TrackPointExtension>
        </extensions>
      </trkpt>
      <trkpt lat="45.1148" lon="2.86443">
        <ele>985.79998779297</ele>
        <time>2024-01-30T16:51:30.000Z</time>
        <extensions>
          <gpxtpx:TrackPointExtension xmlns:gpxtpx="http://www.garmin.com/xmlschemas/TrackPointExtension/v1">
            <gpxtpx:hr>78</gpxtpx:hr>
          </gpxtpx:TrackPointExtension>
        </extensions>
      </trkpt>
      <trkpt lat="45.11478" lon="2.8643">
        <ele>986.40002441406</ele>
        <time>2024-01-30T16:51:33.000Z</time>
        <extensions>
          <gpxtpx:TrackPointExtension xmlns:gpxtpx="http://www.garmin.com/xmlschemas/TrackPointExtension/v1">
            <gpxtpx:hr>77</gpxtpx:hr>
          </gpxtpx:TrackPointExtension>
        </extensions>
      </trkpt>
      <trkpt lat="45.11481" lon="2.86425">
        <ele>986.79998779297</ele>
        <time>2024-01-30T16:51:35.000Z</time>
        <extensions>
          <gpxtpx:TrackPointExtension xmlns:gpxtpx="http://www.garmin.com/xmlschemas/TrackPointExtension/v1">
            <gpxtpx:hr>82</gpxtpx:hr>
          </gpxtpx:TrackPointExtension>
        </extensions>
      </trkpt>
      <trkpt lat="45.11483" lon="2.86425">
        <ele>987</ele>
        <time>2024-01-30T16:51:36.000Z</time>
        <extensions>
          <gpxtpx:TrackPointExtension xmlns:gpxtpx="http://www.garmin.com/xmlschemas/TrackPointExtension/v1">
            <gpxtpx:hr>84</gpxtpx:hr>
          </gpxtpx:TrackPointExtension>
        </extensions>
      </trkpt>
      <trkpt lat="45.11485" lon="2.86427">
        <ele>987.20001220703</ele>
        <time>2024-01-30T16:51:37.000Z</time>
        <extensions>
          <gpxtpx:TrackPointExtension xmlns:gpxtpx="http://www.garmin.com/xmlschemas/TrackPointExtension/v1">
            <gpxtpx:hr>84</gpxtpx:hr>
          </gpxtpx:TrackPointExtension>
        </extensions>
      </trkpt>
      <trkpt lat="45.1146" lon="2.86366">
        <ele>987.1</ele>
      </trkpt>
      <trkpt lat="45.11494" lon="2.86301">
        <ele>988.8</ele>
      </trkpt>
      <trkpt lat="45.11597" lon="2.86048">
        <ele>1002.2</ele>
      </trkpt>
      <trkpt lat="45.11657" lon="2.85902">
        <ele>1009.9</ele>
      </trkpt>
      <trkpt lat="45.11709" lon="2.85752">
        <ele>1015.1</ele>
      </trkpt>
      <trkpt lat="45.1179" lon="2.85627">
        <ele>1023.7</ele>
      </trkpt>
      <trkpt lat="45.11842" lon="2.85434">
        <ele>1026.8</ele>
      </trkpt>
      <trkpt lat="45.11884" lon="2.85284">
        <ele>1028.9</ele>
      </trkpt>
      <trkpt lat="45.1199" lon="2.85125">
        <ele>1037.4</ele>
      </trkpt>
      <trkpt lat="45.12099" lon="2.85052">
        <ele>1046.8</ele>
      </trkpt>
      <trkpt lat="45.12226" lon="2.85039">
        <ele>1057.2</ele>
      </trkpt>
      <trkpt lat="45.12372" lon="2.85039">
        <ele>1071.1</ele>
      </trkpt>
      <trkpt lat="45.12475" lon="2.85031">
        <ele>1076</ele>
      </trkpt>
      <trkpt lat="45.12544" lon="2.85005">
        <ele>1079.1</ele>
      </trkpt>
      <trkpt lat="45.12626" lon="2.84876">
        <ele>1087.6</ele>
      </trkpt>
      <trkpt lat="45.12717" lon="2.84748">
        <ele>1090.8</ele>
      </trkpt>
      <trkpt lat="45.12766" lon="2.84691">
        <ele>1092.5999755859</ele>
        <time>2024-01-30T17:01:09.000Z</time>
      </trkpt>
      <trkpt lat="45.12776" lon="2.8468">
        <ele>1093</ele>
        <time>2024-01-30T17:01:11.000Z</time>
      </trkpt>
      <trkpt lat="45.12783" lon="2.84673">
        <ele>1093.5999755859</ele>
        <time>2024-01-30T17:01:12.000Z</time>
      </trkpt>
      <trkpt lat="45.128" lon="2.84656">
        <ele>1095</ele>
        <time>2024-01-30T17:01:14.000Z</time>
      </trkpt>
      <trkpt lat="45.1281" lon="2.84646">
        <ele>1095.1999511719</ele>
        <time>2024-01-30T17:01:15.000Z</time>
      </trkpt>
      <trkpt lat="45.12823" lon="2.84632">
        <ele>1096</ele>
        <time>2024-01-30T17:01:16.000Z</time>
      </trkpt>
      <trkpt lat="45.12844" lon="2.84608">
        <ele>1097.8000488281</ele>
        <time>2024-01-30T17:01:18.000Z</time>
      </trkpt>
      <trkpt lat="45.1287" lon="2.84579">
        <ele>1099.1999511719</ele>
        <time>2024-01-30T17:01:20.000Z</time>
      </trkpt>
      <trkpt lat="45.12884" lon="2.84563">
        <ele>1100.4000244141</ele>
        <time>2024-01-30T17:01:21.000Z</time>
      </trkpt>
      <trkpt lat="45.12913" lon="2.84531">
        <ele>1102.4000244141</ele>
        <time>2024-01-30T17:01:23.000Z</time>
      </trkpt>
      <trkpt lat="45.12929" lon="2.84514">
        <ele>1103.8000488281</ele>
        <time>2024-01-30T17:01:24.000Z</time>
      </trkpt>
      <trkpt lat="45.12945" lon="2.84497">
        <ele>1105.1999511719</ele>
        <time>2024-01-30T17:01:25.000Z</time>
      </trkpt>
      <trkpt lat="45.1296" lon="2.8448">
        <ele>1106.1999511719</ele>
        <time>2024-01-30T17:01:26.000Z</time>
      </trkpt>
      <trkpt lat="45.12975" lon="2.84462">
        <ele>1107.5999755859</ele>
        <time>2024-01-30T17:01:27.000Z</time>
      </trkpt>
      <trkpt lat="45.13004" lon="2.84424">
        <ele>1109</ele>
        <time>2024-01-30T17:01:29.000Z</time>
      </trkpt>
      <trkpt lat="45.13018" lon="2.844">
        <ele>1109.1999511719</ele>
        <time>2024-01-30T17:01:30.000Z</time>
      </trkpt>
      <trkpt lat="45.13048" lon="2.84337">
        <ele>1109.4000244141</ele>
        <time>2024-01-30T17:01:33.000Z</time>
      </trkpt>
      <trkpt lat="45.13085" lon="2.84258">
        <ele>1108.8000488281</ele>
        <time>2024-01-30T17:01:37.000Z</time>
      </trkpt>
      <trkpt lat="45.13113" lon="2.84201">
        <ele>1109.5999755859</ele>
        <time>2024-01-30T17:01:40.000Z</time>
      </trkpt>
      <trkpt lat="45.13125" lon="2.84176">
        <ele>1111</ele>
        <time>2024-01-30T17:01:41.000Z</time>
      </trkpt>
      <trkpt lat="45.13144" lon="2.84132">
        <ele>1113.1999511719</ele>
        <time>2024-01-30T17:01:43.000Z</time>
      </trkpt>
      <trkpt lat="45.13154" lon="2.84109">
        <ele>1114.5999755859</ele>
        <time>2024-01-30T17:01:44.000Z</time>
      </trkpt>
      <trkpt lat="45.13164" lon="2.84085">
        <ele>1115.8000488281</ele>
        <time>2024-01-30T17:01:45.000Z</time>
      </trkpt>
      <trkpt lat="45.13173" lon="2.84061">
        <ele>1117.4000244141</ele>
        <time>2024-01-30T17:01:46.000Z</time>
      </trkpt>
      <trkpt lat="45.13183" lon="2.84036">
        <ele>1118.8000488281</ele>
        <time>2024-01-30T17:01:47.000Z</time>
      </trkpt>
      <trkpt lat="45.1319" lon="2.84009">
        <ele>1120.5999755859</ele>
        <time>2024-01-30T17:01:48.000Z</time>
      </trkpt>
      <trkpt lat="45.13198" lon="2.83982">
        <ele>1121.8000488281</ele>
        <time>2024-01-30T17:01:49.000Z</time>
      </trkpt>
      <trkpt lat="45.13205" lon="2.83954">
        <ele>1123.4000244141</ele>
        <time>2024-01-30T17:01:50.000Z</time>
      </trkpt>
      <trkpt lat="45.13211" lon="2.83925">
        <ele>1124.5999755859</ele>
        <time>2024-01-30T17:01:51.000Z</time>
      </trkpt>
      <trkpt lat="45.13217" lon="2.83896">
        <ele>1126.1999511719</ele>
        <time>2024-01-30T17:01:52.000Z</time>
      </trkpt>
      <trkpt lat="45.13223" lon="2.83866">
        <ele>1127.1999511719</ele>
        <time>2024-01-30T17:01:53.000Z</time>
      </trkpt>
      <trkpt lat="45.13229" lon="2.83835">
        <ele>1128.8000488281</ele>
        <time>2024-01-30T17:01:54.000Z</time>
      </trkpt>
      <trkpt lat="45.13235" lon="2.83805">
        <ele>1130.8000488281</ele>
        <time>2024-01-30T17:01:55.000Z</time>
      </trkpt>
      <trkpt lat="45.13242" lon="2.83774">
        <ele>1132.4000244141</ele>
        <time>2024-01-30T17:01:56.000Z</time>
      </trkpt>
      <trkpt lat="45.13255" lon="2.83711">
        <ele>1135.1999511719</ele>
        <time>2024-01-30T17:01:58.000Z</time>
      </trkpt>
      <trkpt lat="45.13261" lon="2.8368">
        <ele>1137.1999511719</ele>
        <time>2024-01-30T17:01:59.000Z</time>
      </trkpt>
      <trkpt lat="45.13268" lon="2.83649">
        <ele>1138.5999755859</ele>
        <time>2024-01-30T17:02:00.000Z</time>
      </trkpt>
      <trkpt lat="45.13276" lon="2.83617">
        <ele>1140</ele>
        <time>2024-01-30T17:02:01.000Z</time>
      </trkpt>
      <trkpt lat="45.13284" lon="2.83585">
        <ele>1141.5999755859</ele>
        <time>2024-01-30T17:02:02.000Z</time>
      </trkpt>
      <trkpt lat="45.13292" lon="2.83554">
        <ele>1143.1999511719</ele>
        <time>2024-01-30T17:02:03.000Z</time>
      </trkpt>
      <trkpt lat="45.133" lon="2.83523">
        <ele>1144.8000488281</ele>
        <time>2024-01-30T17:02:04.000Z</time>
      </trkpt>
      <trkpt lat="45.13308" lon="2.83491">
        <ele>1146.4000244141</ele>
        <time>2024-01-30T17:02:05.000Z</time>
      </trkpt>
      <trkpt lat="45.13316" lon="2.83459">
        <ele>1148</ele>
        <time>2024-01-30T17:02:06.000Z</time>
      </trkpt>
      <trkpt lat="45.13332" lon="2.83395">
        <ele>1150.5999755859</ele>
        <time>2024-01-30T17:02:08.000Z</time>
      </trkpt>
      <trkpt lat="45.1334" lon="2.83363">
        <ele>1152.4000244141</ele>
        <time>2024-01-30T17:02:09.000Z</time>
      </trkpt>
      <trkpt lat="45.13348" lon="2.83331">
        <ele>1154</ele>
        <time>2024-01-30T17:02:10.000Z</time>
      </trkpt>
      <trkpt lat="45.13357" lon="2.83299">
        <ele>1155.8000488281</ele>
        <time>2024-01-30T17:02:11.000Z</time>
      </trkpt>
      <trkpt lat="45.13365" lon="2.83268">
        <ele>1157.5999755859</ele>
        <time>2024-01-30T17:02:12.000Z</time>
      </trkpt>
      <trkpt lat="45.13374" lon="2.83236">
        <ele>1159.1999511719</ele>
        <time>2024-01-30T17:02:13.000Z</time>
      </trkpt>
      <trkpt lat="45.13383" lon="2.83206">
        <ele>1160.1999511719</ele>
        <time>2024-01-30T17:02:14.000Z</time>
      </trkpt>
      <trkpt lat="45.13393" lon="2.83177">
        <ele>1161.8000488281</ele>
        <time>2024-01-30T17:02:15.000Z</time>
      </trkpt>
      <trkpt lat="45.13402" lon="2.83155">
        <ele>1162.4000244141</ele>
        <time>2024-01-30T17:02:16.000Z</time>
      </trkpt>
      <trkpt lat="45.13416" lon="2.83123">
        <ele>1164.1999511719</ele>
        <time>2024-01-30T17:02:17.000Z</time>
      </trkpt>
      <trkpt lat="45.13429" lon="2.83097">
        <ele>1165.5999755859</ele>
        <time>2024-01-30T17:02:18.000Z</time>
      </trkpt>
      <trkpt lat="45.13441" lon="2.83078">
        <ele>1167.1999511719</ele>
        <time>2024-01-30T17:02:19.000Z</time>
      </trkpt>
      <trkpt lat="45.13461" lon="2.83052">
        <ele>1168.8000488281</ele>
        <time>2024-01-30T17:02:20.000Z</time>
      </trkpt>
      <trkpt lat="45.13479" lon="2.83031">
        <ele>1170.1999511719</ele>
        <time>2024-01-30T17:02:21.000Z</time>
      </trkpt>
      <trkpt lat="45.13498" lon="2.83011">
        <ele>1171.1999511719</ele>
        <time>2024-01-30T17:02:22.000Z</time>
      </trkpt>
      <trkpt lat="45.13517" lon="2.82992">
        <ele>1172.5999755859</ele>
        <time>2024-01-30T17:02:23.000Z</time>
      </trkpt>
      <trkpt lat="45.13536" lon="2.82975">
        <ele>1173.5999755859</ele>
        <time>2024-01-30T17:02:24.000Z</time>
      </trkpt>
      <trkpt lat="45.13557" lon="2.8296">
        <ele>1175</ele>
        <time>2024-01-30T17:02:25.000Z</time>
      </trkpt>
      <trkpt lat="45.136" lon="2.82933">
        <ele>1177.5999755859</ele>
        <time>2024-01-30T17:02:27.000Z</time>
      </trkpt>
      <trkpt lat="45.13622" lon="2.82919">
        <ele>1178.5999755859</ele>
        <time>2024-01-30T17:02:28.000Z</time>
      </trkpt>
      <trkpt lat="45.13665" lon="2.82891">
        <ele>1180</ele>
        <time>2024-01-30T17:02:30.000Z</time>
      </trkpt>
      <trkpt lat="45.13687" lon="2.82877">
        <ele>1180.8000488281</ele>
        <time>2024-01-30T17:02:31.000Z</time>
      </trkpt>
      <trkpt lat="45.13707" lon="2.82861">
        <ele>1181.1999511719</ele>
        <time>2024-01-30T17:02:32.000Z</time>
      </trkpt>
      <trkpt lat="45.13742" lon="2.82828">
        <ele>1182.1999511719</ele>
        <time>2024-01-30T17:02:34.000Z</time>
      </trkpt>
      <trkpt lat="45.13796" lon="2.82767">
        <ele>1183.4000244141</ele>
        <time>2024-01-30T17:02:37.000Z</time>
      </trkpt>
      <trkpt lat="45.13834" lon="2.82721">
        <ele>1184.1999511719</ele>
        <time>2024-01-30T17:02:39.000Z</time>
      </trkpt>
      <trkpt lat="45.13864" lon="2.82683">
        <ele>1184.4000244141</ele>
        <time>2024-01-30T17:02:41.000Z</time>
      </trkpt>
      <trkpt lat="45.13894" lon="2.82641">
        <ele>1184.5999755859</ele>
        <time>2024-01-30T17:02:43.000Z</time>
      </trkpt>
      <trkpt lat="45.1392" lon="2.82595">
        <ele>1184.5999755859</ele>
        <time>2024-01-30T17:02:45.000Z</time>
      </trkpt>
      <trkpt lat="45.1393" lon="2.8257">
        <ele>1185</ele>
        <time>2024-01-30T17:02:46.000Z</time>
      </trkpt>
      <trkpt lat="45.1394" lon="2.82542">
        <ele>1185.5999755859</ele>
        <time>2024-01-30T17:02:47.000Z</time>
      </trkpt>
      <trkpt lat="45.13966" lon="2.82455">
        <ele>1186.8000488281</ele>
        <time>2024-01-30T17:02:50.000Z</time>
      </trkpt>
      <trkpt lat="45.13992" lon="2.82363">
        <ele>1187.8000488281</ele>
        <time>2024-01-30T17:02:53.000Z</time>
      </trkpt>
      <trkpt lat="45.14001" lon="2.82333">
        <ele>1188.1999511719</ele>
        <time>2024-01-30T17:02:54.000Z</time>
      </trkpt>
      <trkpt lat="45.14018" lon="2.82275">
        <ele>1189</ele>
        <time>2024-01-30T17:02:56.000Z</time>
      </trkpt>
      <trkpt lat="45.14027" lon="2.82247">
        <ele>1189.8000488281</ele>
        <time>2024-01-30T17:02:57.000Z</time>
      </trkpt>
      <trkpt lat="45.1406" lon="2.82168">
        <ele>1191</ele>
        <time>2024-01-30T17:03:00.000Z</time>
      </trkpt>
      <trkpt lat="45.14109" lon="2.82099">
        <ele>1192.1999511719</ele>
        <time>2024-01-30T17:03:03.000Z</time>
      </trkpt>
      <trkpt lat="45.14161" lon="2.82043">
        <ele>1193.8000488281</ele>
        <time>2024-01-30T17:03:06.000Z</time>
      </trkpt>
      <trkpt lat="45.14181" lon="2.82023">
        <ele>1194.1999511719</ele>
        <time>2024-01-30T17:03:07.000Z</time>
      </trkpt>
      <trkpt lat="45.1422" lon="2.81982">
        <ele>1195</ele>
        <time>2024-01-30T17:03:09.000Z</time>
      </trkpt>
      <trkpt lat="45.14281" lon="2.81916">
        <ele>1195.8000488281</ele>
        <time>2024-01-30T17:03:12.000Z</time>
      </trkpt>
      <trkpt lat="45.14301" lon="2.81895">
        <ele>1196.1999511719</ele>
        <time>2024-01-30T17:03:13.000Z</time>
      </trkpt>
      <trkpt lat="45.14362" lon="2.81828">
        <ele>1196.8000488281</ele>
        <time>2024-01-30T17:03:16.000Z</time>
      </trkpt>
      <trkpt lat="45.14403" lon="2.81784">
        <ele>1197.4000244141</ele>
        <time>2024-01-30T17:03:18.000Z</time>
      </trkpt>
      <trkpt lat="45.14443" lon="2.81741">
        <ele>1198</ele>
        <time>2024-01-30T17:03:20.000Z</time>
      </trkpt>
      <trkpt lat="45.14463" lon="2.8172">
        <ele>1198.4000244141</ele>
        <time>2024-01-30T17:03:21.000Z</time>
      </trkpt>
      <trkpt lat="45.14483" lon="2.81698">
        <ele>1199.4000244141</ele>
        <time>2024-01-30T17:03:22.000Z</time>
      </trkpt>
      <trkpt lat="45.14521" lon="2.81656">
        <ele>1201.4000244141</ele>
        <time>2024-01-30T17:03:24.000Z</time>
      </trkpt>
      <trkpt lat="45.1454" lon="2.81636">
        <ele>1202.4000244141</ele>
        <time>2024-01-30T17:03:25.000Z</time>
      </trkpt>
      <trkpt lat="45.14557" lon="2.81616">
        <ele>1203.8000488281</ele>
        <time>2024-01-30T17:03:26.000Z</time>
      </trkpt>
      <trkpt lat="45.14574" lon="2.81597">
        <ele>1204.8000488281</ele>
        <time>2024-01-30T17:03:27.000Z</time>
      </trkpt>
      <trkpt lat="45.14591" lon="2.81579">
        <ele>1206.4000244141</ele>
        <time>2024-01-30T17:03:28.000Z</time>
      </trkpt>
      <trkpt lat="45.14623" lon="2.81547">
        <ele>1208</ele>
        <time>2024-01-30T17:03:30.000Z</time>
      </trkpt>
      <trkpt lat="45.14656" lon="2.81518">
        <ele>1209</ele>
        <time>2024-01-30T17:03:32.000Z</time>
      </trkpt>
      <trkpt lat="45.14707" lon="2.81478">
        <ele>1209.1999511719</ele>
        <time>2024-01-30T17:03:35.000Z</time>
      </trkpt>
      <trkpt lat="45.14757" lon="2.8143">
        <ele>1208</ele>
        <time>2024-01-30T17:03:38.000Z</time>
      </trkpt>
      <trkpt lat="45.14773" lon="2.81412">
        <ele>1207.1999511719</ele>
        <time>2024-01-30T17:03:39.000Z</time>
      </trkpt>
      <trkpt lat="45.14789" lon="2.81393">
        <ele>1206.1999511719</ele>
        <time>2024-01-30T17:03:40.000Z</time>
      </trkpt>
      <trkpt lat="45.1482" lon="2.81353">
        <ele>1204.4000244141</ele>
        <time>2024-01-30T17:03:42.000Z</time>
      </trkpt>
      <trkpt lat="45.14835" lon="2.81333">
        <ele>1203.4000244141</ele>
        <time>2024-01-30T17:03:43.000Z</time>
      </trkpt>
      <trkpt lat="45.14867" lon="2.81295">
        <ele>1201.5999755859</ele>
        <time>2024-01-30T17:03:45.000Z</time>
      </trkpt>
      <trkpt lat="45.14884" lon="2.81278">
        <ele>1200.1999511719</ele>
        <time>2024-01-30T17:03:46.000Z</time>
      </trkpt>
      <trkpt lat="45.149" lon="2.81262">
        <ele>1199.4000244141</ele>
        <time>2024-01-30T17:03:47.000Z</time>
      </trkpt>
      <trkpt lat="45.14916" lon="2.81248">
        <ele>1198</ele>
        <time>2024-01-30T17:03:48.000Z</time>
      </trkpt>
      <trkpt lat="45.14944" lon="2.81226">
        <ele>1195</ele>
        <time>2024-01-30T17:03:50.000Z</time>
      </trkpt>
      <trkpt lat="45.14956" lon="2.81218">
        <ele>1193</ele>
        <time>2024-01-30T17:03:51.000Z</time>
      </trkpt>
      <trkpt lat="45.14978" lon="2.81206">
        <ele>1191.1999511719</ele>
        <time>2024-01-30T17:03:53.000Z</time>
      </trkpt>
      <trkpt lat="45.15016" lon="2.81194">
        <ele>1190.1999511719</ele>
        <time>2024-01-30T17:03:56.000Z</time>
      </trkpt>
      <trkpt lat="45.15031" lon="2.81192">
        <ele>1189.8000488281</ele>
        <time>2024-01-30T17:03:57.000Z</time>
      </trkpt>
      <trkpt lat="45.15079" lon="2.81194">
        <ele>1188.5999755859</ele>
        <time>2024-01-30T17:04:00.000Z</time>
      </trkpt>
      <trkpt lat="45.15112" lon="2.81204">
        <ele>1187</ele>
        <time>2024-01-30T17:04:02.000Z</time>
      </trkpt>
      <trkpt lat="45.15128" lon="2.81211">
        <ele>1186.4000244141</ele>
        <time>2024-01-30T17:04:03.000Z</time>
      </trkpt>
      <trkpt lat="45.15143" lon="2.81221">
        <ele>1185.8000488281</ele>
        <time>2024-01-30T17:04:04.000Z</time>
      </trkpt>
      <trkpt lat="45.15173" lon="2.81245">
        <ele>1184.8000488281</ele>
        <time>2024-01-30T17:04:06.000Z</time>
      </trkpt>
      <trkpt lat="45.15202" lon="2.81274">
        <ele>1183.5999755859</ele>
        <time>2024-01-30T17:04:08.000Z</time>
      </trkpt>
      <trkpt lat="45.15227" lon="2.8131">
        <ele>1182.4000244141</ele>
        <time>2024-01-30T17:04:10.000Z</time>
      </trkpt>
      <trkpt lat="45.15247" lon="2.81354">
        <ele>1181.1999511719</ele>
        <time>2024-01-30T17:04:12.000Z</time>
      </trkpt>
      <trkpt lat="45.15254" lon="2.81376">
        <ele>1180.8000488281</ele>
        <time>2024-01-30T17:04:13.000Z</time>
      </trkpt>
      <trkpt lat="45.15261" lon="2.81398">
        <ele>1179.8000488281</ele>
        <time>2024-01-30T17:04:14.000Z</time>
      </trkpt>
      <trkpt lat="45.15267" lon="2.81417">
        <ele>1178.5999755859</ele>
        <time>2024-01-30T17:04:15.000Z</time>
      </trkpt>
      <trkpt lat="45.15272" lon="2.81434">
        <ele>1177.4000244141</ele>
        <time>2024-01-30T17:04:16.000Z</time>
      </trkpt>
      <trkpt lat="45.15276" lon="2.81456">
        <ele>1175.5999755859</ele>
        <time>2024-01-30T17:04:18.000Z</time>
      </trkpt>
      <trkpt lat="45.1528" lon="2.8147">
        <ele>1174.4000244141</ele>
        <time>2024-01-30T17:04:21.000Z</time>
      </trkpt>
      <trkpt lat="45.15288" lon="2.8148">
        <ele>1174.1999511719</ele>
        <time>2024-01-30T17:04:24.000Z</time>
      </trkpt>
      <trkpt lat="45.15299" lon="2.81475">
        <ele>1174</ele>
        <time>2024-01-30T17:04:26.000Z</time>
      </trkpt>
      <trkpt lat="45.15301" lon="2.8147">
        <ele>1173.8000488281</ele>
        <time>2024-01-30T17:04:27.000Z</time>
      </trkpt>
      <trkpt lat="45.15303" lon="2.81463">
        <ele>1173.4000244141</ele>
        <time>2024-01-30T17:04:29.000Z</time>
      </trkpt>
      <trkpt lat="45.15304" lon="2.81462">
        <ele>1173.4000244141</ele>
        <time>2024-01-30T17:04:30.000Z</time>
      </trkpt>
      <trkpt lat="45.15304" lon="2.81462">
        <ele>1173.5999755859</ele>
        <time>2024-01-30T17:04:36.000Z</time>
      </trkpt>
      <trkpt lat="45.15306" lon="2.8146">
        <ele>1173.4000244141</ele>
        <time>2024-01-30T17:04:42.000Z</time>
      </trkpt>
      <trkpt lat="45.15306" lon="2.8146">
        <ele>1173.5999755859</ele>
        <time>2024-01-30T17:04:49.000Z</time>
      </trkpt>
      <trkpt lat="45.15305" lon="2.81461">
        <ele>1173.5999755859</ele>
        <time>2024-01-30T17:04:50.000Z</time>
      </trkpt>
      <trkpt lat="45.15302" lon="2.81462">
        <ele>1173.8000488281</ele>
        <time>2024-01-30T17:04:54.000Z</time>
      </trkpt>
      <trkpt lat="45.15302" lon="2.81462">
        <ele>1173.8000488281</ele>
        <time>2024-01-30T17:05:02.000Z</time>
      </trkpt>
      <trkpt lat="45.15302" lon="2.81462">
        <ele>1174</ele>
        <time>2024-01-30T17:05:13.000Z</time>
      </trkpt>
      <trkpt lat="45.15302" lon="2.81461">
        <ele>1174</ele>
        <time>2024-01-30T17:05:22.000Z</time>
      </trkpt>
      <trkpt lat="45.15303" lon="2.8146">
        <ele>1174.1999511719</ele>
        <time>2024-01-30T17:05:35.000Z</time>
      </trkpt>
      <trkpt lat="45.15304" lon="2.81459">
        <ele>1174.1999511719</ele>
        <time>2024-01-30T17:05:36.000Z</time>
      </trkpt>
      <trkpt lat="45.15313" lon="2.81452">
        <ele>1174.1999511719</ele>
        <time>2024-01-30T17:05:39.000Z</time>
      </trkpt>
      <trkpt lat="45.15322" lon="2.81443">
        <ele>1174</ele>
        <time>2024-01-30T17:05:41.000Z</time>
      </trkpt>
      <trkpt lat="45.15332" lon="2.81429">
        <ele>1173.5999755859</ele>
        <time>2024-01-30T17:05:43.000Z</time>
      </trkpt>
      <trkpt lat="45.15337" lon="2.81409">
        <ele>1172.5999755859</ele>
        <time>2024-01-30T17:05:45.000Z</time>
      </trkpt>
      <trkpt lat="45.15336" lon="2.81397">
        <ele>1172.1999511719</ele>
        <time>2024-01-30T17:05:46.000Z</time>
      </trkpt>
      <trkpt lat="45.15333" lon="2.81369">
        <ele>1171.1999511719</ele>
        <time>2024-01-30T17:05:48.000Z</time>
      </trkpt>
      <trkpt lat="45.15331" lon="2.81339">
        <ele>1170.1999511719</ele>
        <time>2024-01-30T17:05:50.000Z</time>
      </trkpt>
      <trkpt lat="45.15328" lon="2.81323">
        <ele>1169.4000244141</ele>
        <time>2024-01-30T17:05:51.000Z</time>
      </trkpt>
      <trkpt lat="45.15324" lon="2.81292">
        <ele>1168</ele>
        <time>2024-01-30T17:05:53.000Z</time>
      </trkpt>
      <trkpt lat="45.15321" lon="2.81259">
        <ele>1166.4000244141</ele>
        <time>2024-01-30T17:05:55.000Z</time>
      </trkpt>
      <trkpt lat="45.1532" lon="2.81226">
        <ele>1165</ele>
        <time>2024-01-30T17:05:57.000Z</time>
      </trkpt>
      <trkpt lat="45.1532" lon="2.8121">
        <ele>1163.8000488281</ele>
        <time>2024-01-30T17:05:58.000Z</time>
      </trkpt>
      <trkpt lat="45.15318" lon="2.81195">
        <ele>1162.5999755859</ele>
        <time>2024-01-30T17:05:59.000Z</time>
      </trkpt>
      <trkpt lat="45.15315" lon="2.81182">
        <ele>1161.4000244141</ele>
        <time>2024-01-30T17:06:00.000Z</time>
      </trkpt>
      <trkpt lat="45.1531" lon="2.8117">
        <ele>1160.4000244141</ele>
        <time>2024-01-30T17:06:01.000Z</time>
      </trkpt>
      <trkpt lat="45.15305" lon="2.81157">
        <ele>1159.4000244141</ele>
        <time>2024-01-30T17:06:02.000Z</time>
      </trkpt>
      <trkpt lat="45.15301" lon="2.81144">
        <ele>1158.5999755859</ele>
        <time>2024-01-30T17:06:03.000Z</time>
      </trkpt>
      <trkpt lat="45.15298" lon="2.81115">
        <ele>1157.4000244141</ele>
        <time>2024-01-30T17:06:05.000Z</time>
      </trkpt>
      <trkpt lat="45.15298" lon="2.81085">
        <ele>1155.5999755859</ele>
        <time>2024-01-30T17:06:07.000Z</time>
      </trkpt>
      <trkpt lat="45.15297" lon="2.81057">
        <ele>1153.4000244141</ele>
        <time>2024-01-30T17:06:09.000Z</time>
      </trkpt>
      <trkpt lat="45.15298" lon="2.81044">
        <ele>1152.4000244141</ele>
        <time>2024-01-30T17:06:10.000Z</time>
      </trkpt>
      <trkpt lat="45.15301" lon="2.81032">
        <ele>1152</ele>
        <time>2024-01-30T17:06:11.000Z</time>
      </trkpt>
      <trkpt lat="45.15305" lon="2.81021">
        <ele>1151.4000244141</ele>
        <time>2024-01-30T17:06:12.000Z</time>
      </trkpt>
      <trkpt lat="45.15309" lon="2.81009">
        <ele>1150.1999511719</ele>
        <time>2024-01-30T17:06:13.000Z</time>
      </trkpt>
      <trkpt lat="45.15314" lon="2.81">
        <ele>1150</ele>
        <time>2024-01-30T17:06:14.000Z</time>
      </trkpt>
      <trkpt lat="45.15319" lon="2.80993">
        <ele>1149.1999511719</ele>
        <time>2024-01-30T17:06:15.000Z</time>
      </trkpt>
      <trkpt lat="45.15328" lon="2.80983">
        <ele>1148</ele>
        <time>2024-01-30T17:06:16.000Z</time>
      </trkpt>
      <trkpt lat="45.15335" lon="2.80974">
        <ele>1147.4000244141</ele>
        <time>2024-01-30T17:06:17.000Z</time>
      </trkpt>
      <trkpt lat="45.1534" lon="2.80963">
        <ele>1146.8000488281</ele>
        <time>2024-01-30T17:06:18.000Z</time>
      </trkpt>
      <trkpt lat="45.15344" lon="2.80951">
        <ele>1146</ele>
        <time>2024-01-30T17:06:19.000Z</time>
      </trkpt>
      <trkpt lat="45.15347" lon="2.80938">
        <ele>1145.5999755859</ele>
        <time>2024-01-30T17:06:20.000Z</time>
      </trkpt>
      <trkpt lat="45.15348" lon="2.80923">
        <ele>1144.4000244141</ele>
        <time>2024-01-30T17:06:21.000Z</time>
      </trkpt>
      <trkpt lat="45.15345" lon="2.80891">
        <ele>1143.1999511719</ele>
        <time>2024-01-30T17:06:23.000Z</time>
      </trkpt>
      <trkpt lat="45.15342" lon="2.80877">
        <ele>1142.4000244141</ele>
        <time>2024-01-30T17:06:24.000Z</time>
      </trkpt>
      <trkpt lat="45.15338" lon="2.80862">
        <ele>1141.4000244141</ele>
        <time>2024-01-30T17:06:25.000Z</time>
      </trkpt>
      <trkpt lat="45.15332" lon="2.80829">
        <ele>1139.8000488281</ele>
        <time>2024-01-30T17:06:27.000Z</time>
      </trkpt>
      <trkpt lat="45.15331" lon="2.80811">
        <ele>1138.8000488281</ele>
        <time>2024-01-30T17:06:28.000Z</time>
      </trkpt>
      <trkpt lat="45.15331" lon="2.80793">
        <ele>1137.5999755859</ele>
        <time>2024-01-30T17:06:29.000Z</time>
      </trkpt>
      <trkpt lat="45.15332" lon="2.80776">
        <ele>1136.5999755859</ele>
        <time>2024-01-30T17:06:30.000Z</time>
      </trkpt>
      <trkpt lat="45.15336" lon="2.80758">
        <ele>1136</ele>
        <time>2024-01-30T17:06:31.000Z</time>
      </trkpt>
      <trkpt lat="45.15341" lon="2.8074">
        <ele>1135.4000244141</ele>
        <time>2024-01-30T17:06:32.000Z</time>
      </trkpt>
      <trkpt lat="45.15347" lon="2.80723">
        <ele>1134</ele>
        <time>2024-01-30T17:06:33.000Z</time>
      </trkpt>
      <trkpt lat="45.15354" lon="2.80708">
        <ele>1133.1999511719</ele>
        <time>2024-01-30T17:06:34.000Z</time>
      </trkpt>
      <trkpt lat="45.15362" lon="2.80692">
        <ele>1131.8000488281</ele>
        <time>2024-01-30T17:06:35.000Z</time>
      </trkpt>
      <trkpt lat="45.15369" lon="2.80676">
        <ele>1130.4000244141</ele>
        <time>2024-01-30T17:06:36.000Z</time>
      </trkpt>
      <trkpt lat="45.15376" lon="2.8066">
        <ele>1128.8000488281</ele>
        <time>2024-01-30T17:06:37.000Z</time>
      </trkpt>
      <trkpt lat="45.15382" lon="2.80644">
        <ele>1127.8000488281</ele>
        <time>2024-01-30T17:06:38.000Z</time>
      </trkpt>
      <trkpt lat="45.15387" lon="2.80627">
        <ele>1126</ele>
        <time>2024-01-30T17:06:39.000Z</time>
      </trkpt>
      <trkpt lat="45.1539" lon="2.8061">
        <ele>1124.5999755859</ele>
        <time>2024-01-30T17:06:40.000Z</time>
      </trkpt>
      <trkpt lat="45.15391" lon="2.80593">
        <ele>1123.8000488281</ele>
        <time>2024-01-30T17:06:41.000Z</time>
      </trkpt>
      <trkpt lat="45.15391" lon="2.80577">
        <ele>1122.4000244141</ele>
        <time>2024-01-30T17:06:42.000Z</time>
      </trkpt>
      <trkpt lat="45.15391" lon="2.80561">
        <ele>1121.1999511719</ele>
        <time>2024-01-30T17:06:43.000Z</time>
      </trkpt>
      <trkpt lat="45.15393" lon="2.80546">
        <ele>1120.1999511719</ele>
        <time>2024-01-30T17:06:44.000Z</time>
      </trkpt>
      <trkpt lat="45.15396" lon="2.80532">
        <ele>1119</ele>
        <time>2024-01-30T17:06:45.000Z</time>
      </trkpt>
      <trkpt lat="45.15403" lon="2.80517">
        <ele>1118</ele>
        <time>2024-01-30T17:06:46.000Z</time>
      </trkpt>
      <trkpt lat="45.15408" lon="2.80507">
        <ele>1116.5999755859</ele>
        <time>2024-01-30T17:06:47.000Z</time>
      </trkpt>
      <trkpt lat="45.15421" lon="2.80484">
        <ele>1114.8000488281</ele>
        <time>2024-01-30T17:06:49.000Z</time>
      </trkpt>
      <trkpt lat="45.15426" lon="2.8047">
        <ele>1113.5999755859</ele>
        <time>2024-01-30T17:06:50.000Z</time>
      </trkpt>
      <trkpt lat="45.1543" lon="2.80455">
        <ele>1113</ele>
        <time>2024-01-30T17:06:51.000Z</time>
      </trkpt>
      <trkpt lat="45.15434" lon="2.8044">
        <ele>1112</ele>
        <time>2024-01-30T17:06:52.000Z</time>
      </trkpt>
      <trkpt lat="45.15438" lon="2.80408">
        <ele>1109.8000488281</ele>
        <time>2024-01-30T17:06:54.000Z</time>
      </trkpt>
      <trkpt lat="45.15442" lon="2.80374">
        <ele>1108.1999511719</ele>
        <time>2024-01-30T17:06:56.000Z</time>
      </trkpt>
      <trkpt lat="45.15445" lon="2.80358">
        <ele>1106.8000488281</ele>
        <time>2024-01-30T17:06:57.000Z</time>
      </trkpt>
      <trkpt lat="45.15454" lon="2.80326">
        <ele>1104.8000488281</ele>
        <time>2024-01-30T17:06:59.000Z</time>
      </trkpt>
      <trkpt lat="45.15457" lon="2.8031">
        <ele>1103.5999755859</ele>
        <time>2024-01-30T17:07:00.000Z</time>
      </trkpt>
      <trkpt lat="45.1546" lon="2.80294">
        <ele>1102.5999755859</ele>
        <time>2024-01-30T17:07:01.000Z</time>
      </trkpt>
      <trkpt lat="45.15461" lon="2.80278">
        <ele>1101.4000244141</ele>
        <time>2024-01-30T17:07:02.000Z</time>
      </trkpt>
      <trkpt lat="45.15461" lon="2.80263">
        <ele>1100.4000244141</ele>
        <time>2024-01-30T17:07:03.000Z</time>
      </trkpt>
      <trkpt lat="45.15459" lon="2.80246">
        <ele>1099.8000488281</ele>
        <time>2024-01-30T17:07:04.000Z</time>
      </trkpt>
      <trkpt lat="45.15458" lon="2.80229">
        <ele>1098.8000488281</ele>
        <time>2024-01-30T17:07:05.000Z</time>
      </trkpt>
      <trkpt lat="45.15456" lon="2.80193">
        <ele>1097</ele>
        <time>2024-01-30T17:07:07.000Z</time>
      </trkpt>
      <trkpt lat="45.15458" lon="2.80177">
        <ele>1095.8000488281</ele>
        <time>2024-01-30T17:07:08.000Z</time>
      </trkpt>
      <trkpt lat="45.15467" lon="2.80146">
        <ele>1093.8000488281</ele>
        <time>2024-01-30T17:07:10.000Z</time>
      </trkpt>
      <trkpt lat="45.15475" lon="2.80132">
        <ele>1092.8000488281</ele>
        <time>2024-01-30T17:07:11.000Z</time>
      </trkpt>
      <trkpt lat="45.15482" lon="2.80121">
        <ele>1091.8000488281</ele>
        <time>2024-01-30T17:07:12.000Z</time>
      </trkpt>
      <trkpt lat="45.15489" lon="2.80108">
        <ele>1090.8000488281</ele>
        <time>2024-01-30T17:07:13.000Z</time>
      </trkpt>
      <trkpt lat="45.15495" lon="2.80093">
        <ele>1089.8000488281</ele>
        <time>2024-01-30T17:07:14.000Z</time>
      </trkpt>
      <trkpt lat="45.15499" lon="2.80078">
        <ele>1088.8000488281</ele>
        <time>2024-01-30T17:07:15.000Z</time>
      </trkpt>
      <trkpt lat="45.155" lon="2.80046">
        <ele>1086.5999755859</ele>
        <time>2024-01-30T17:07:17.000Z</time>
      </trkpt>
      <trkpt lat="45.15497" lon="2.80031">
        <ele>1085.5999755859</ele>
        <time>2024-01-30T17:07:18.000Z</time>
      </trkpt>
      <trkpt lat="45.1549" lon="2.80001">
        <ele>1083.5999755859</ele>
        <time>2024-01-30T17:07:20.000Z</time>
      </trkpt>
      <trkpt lat="45.15486" lon="2.79986">
        <ele>1082.5999755859</ele>
        <time>2024-01-30T17:07:21.000Z</time>
      </trkpt>
      <trkpt lat="45.15484" lon="2.79971">
        <ele>1081.8000488281</ele>
        <time>2024-01-30T17:07:22.000Z</time>
      </trkpt>
      <trkpt lat="45.15483" lon="2.79953">
        <ele>1081</ele>
        <time>2024-01-30T17:07:23.000Z</time>
      </trkpt>
      <trkpt lat="45.15483" lon="2.79935">
        <ele>1080</ele>
        <time>2024-01-30T17:07:24.000Z</time>
      </trkpt>
      <trkpt lat="45.15485" lon="2.79918">
        <ele>1079</ele>
        <time>2024-01-30T17:07:25.000Z</time>
      </trkpt>
      <trkpt lat="45.1549" lon="2.79902">
        <ele>1078.1999511719</ele>
        <time>2024-01-30T17:07:26.000Z</time>
      </trkpt>
      <trkpt lat="45.15495" lon="2.79886">
        <ele>1077.4000244141</ele>
        <time>2024-01-30T17:07:27.000Z</time>
      </trkpt>
      <trkpt lat="45.15502" lon="2.79871">
        <ele>1076</ele>
        <time>2024-01-30T17:07:28.000Z</time>
      </trkpt>
      <trkpt lat="45.15509" lon="2.79854">
        <ele>1075.1999511719</ele>
        <time>2024-01-30T17:07:29.000Z</time>
      </trkpt>
      <trkpt lat="45.15516" lon="2.79838">
        <ele>1073.8000488281</ele>
        <time>2024-01-30T17:07:30.000Z</time>
      </trkpt>
      <trkpt lat="45.15531" lon="2.79804">
        <ele>1072</ele>
        <time>2024-01-30T17:07:32.000Z</time>
      </trkpt>
      <trkpt lat="45.15538" lon="2.79787">
        <ele>1070.8000488281</ele>
        <time>2024-01-30T17:07:33.000Z</time>
      </trkpt>
      <trkpt lat="45.15546" lon="2.7977">
        <ele>1069.4000244141</ele>
        <time>2024-01-30T17:07:34.000Z</time>
      </trkpt>
      <trkpt lat="45.15555" lon="2.79754">
        <ele>1068</ele>
        <time>2024-01-30T17:07:35.000Z</time>
      </trkpt>
      <trkpt lat="45.15566" lon="2.79739">
        <ele>1066.8000488281</ele>
        <time>2024-01-30T17:07:36.000Z</time>
      </trkpt>
      <trkpt lat="45.15577" lon="2.79726">
        <ele>1065.8000488281</ele>
        <time>2024-01-30T17:07:37.000Z</time>
      </trkpt>
      <trkpt lat="45.15589" lon="2.79715">
        <ele>1065</ele>
        <time>2024-01-30T17:07:38.000Z</time>
      </trkpt>
      <trkpt lat="45.15602" lon="2.79706">
        <ele>1064.4000244141</ele>
        <time>2024-01-30T17:07:39.000Z</time>
      </trkpt>
      <trkpt lat="45.15628" lon="2.79694">
        <ele>1063</ele>
        <time>2024-01-30T17:07:41.000Z</time>
      </trkpt>
      <trkpt lat="45.15654" lon="2.7968">
        <ele>1062.4000244141</ele>
        <time>2024-01-30T17:07:43.000Z</time>
      </trkpt>
      <trkpt lat="45.15665" lon="2.79671">
        <ele>1062.1999511719</ele>
        <time>2024-01-30T17:07:44.000Z</time>
      </trkpt>
      <trkpt lat="45.15675" lon="2.79661">
        <ele>1062</ele>
        <time>2024-01-30T17:07:45.000Z</time>
      </trkpt>
      <trkpt lat="45.15683" lon="2.79649">
        <ele>1061.5999755859</ele>
        <time>2024-01-30T17:07:46.000Z</time>
      </trkpt>
      <trkpt lat="45.15689" lon="2.79636">
        <ele>1061.1999511719</ele>
        <time>2024-01-30T17:07:47.000Z</time>
      </trkpt>
      <trkpt lat="45.15694" lon="2.7962">
        <ele>1061</ele>
        <time>2024-01-30T17:07:48.000Z</time>
      </trkpt>
      <trkpt lat="45.157" lon="2.79589">
        <ele>1060.5999755859</ele>
        <time>2024-01-30T17:07:50.000Z</time>
      </trkpt>
      <trkpt lat="45.15715" lon="2.79507">
        <ele>1060.4000244141</ele>
        <time>2024-01-30T17:07:55.000Z</time>
      </trkpt>
      <trkpt lat="45.15719" lon="2.7949">
        <ele>1060</ele>
        <time>2024-01-30T17:07:56.000Z</time>
      </trkpt>
      <trkpt lat="45.15726" lon="2.79461">
        <ele>1058.8000488281</ele>
        <time>2024-01-30T17:07:58.000Z</time>
      </trkpt>
      <trkpt lat="45.15728" lon="2.79447">
        <ele>1057.5999755859</ele>
        <time>2024-01-30T17:07:59.000Z</time>
      </trkpt>
      <trkpt lat="45.1573" lon="2.79435">
        <ele>1057</ele>
        <time>2024-01-30T17:08:00.000Z</time>
      </trkpt>
      <trkpt lat="45.15732" lon="2.79422">
        <ele>1056.4000244141</ele>
        <time>2024-01-30T17:08:01.000Z</time>
      </trkpt>
      <trkpt lat="45.15733" lon="2.7938">
        <ele>1055.5999755859</ele>
        <time>2024-01-30T17:08:04.000Z</time>
      </trkpt>
      <trkpt lat="45.15732" lon="2.79366">
        <ele>1055.4000244141</ele>
        <time>2024-01-30T17:08:05.000Z</time>
      </trkpt>
      <trkpt lat="45.15726" lon="2.7932">
        <ele>1053.8000488281</ele>
        <time>2024-01-30T17:08:08.000Z</time>
      </trkpt>
      <trkpt lat="45.15725" lon="2.79302">
        <ele>1053.5999755859</ele>
        <time>2024-01-30T17:08:09.000Z</time>
      </trkpt>
      <trkpt lat="45.1573" lon="2.79277">
        <ele>1053</ele>
        <time>2024-01-30T17:08:11.000Z</time>
      </trkpt>
      <trkpt lat="45.15751" lon="2.79243">
        <ele>1052.8000488281</ele>
        <time>2024-01-30T17:08:14.000Z</time>
      </trkpt>
      <trkpt lat="45.1576" lon="2.79231">
        <ele>1052.8000488281</ele>
        <time>2024-01-30T17:08:15.000Z</time>
      </trkpt>
      <trkpt lat="45.15792" lon="2.79181">
        <ele>1053</ele>
        <time>2024-01-30T17:08:19.000Z</time>
      </trkpt>
      <trkpt lat="45.15799" lon="2.79168">
        <ele>1053</ele>
        <time>2024-01-30T17:08:20.000Z</time>
      </trkpt>
      <trkpt lat="45.15807" lon="2.79138">
        <ele>1053</ele>
        <time>2024-01-30T17:08:22.000Z</time>
      </trkpt>
      <trkpt lat="45.1581" lon="2.79106">
        <ele>1053.1999511719</ele>
        <time>2024-01-30T17:08:24.000Z</time>
      </trkpt>
      <trkpt lat="45.1581" lon="2.7909">
        <ele>1053.4000244141</ele>
        <time>2024-01-30T17:08:25.000Z</time>
      </trkpt>
      <trkpt lat="45.15809" lon="2.79058">
        <ele>1053.8000488281</ele>
        <time>2024-01-30T17:08:27.000Z</time>
      </trkpt>
      <trkpt lat="45.1581" lon="2.78999">
        <ele>1054.5999755859</ele>
        <time>2024-01-30T17:08:31.000Z</time>
      </trkpt>
      <trkpt lat="45.15811" lon="2.78987">
        <ele>1054.8000488281</ele>
        <time>2024-01-30T17:08:32.000Z</time>
      </trkpt>
      <trkpt lat="45.15813" lon="2.78975">
        <ele>1055</ele>
        <time>2024-01-30T17:08:33.000Z</time>
      </trkpt>
      <trkpt lat="45.15819" lon="2.78951">
        <ele>1055.8000488281</ele>
        <time>2024-01-30T17:08:35.000Z</time>
      </trkpt>
      <trkpt lat="45.1583" lon="2.78913">
        <ele>1057.5999755859</ele>
        <time>2024-01-30T17:08:38.000Z</time>
      </trkpt>
      <trkpt lat="45.15841" lon="2.78876">
        <ele>1059</ele>
        <time>2024-01-30T17:08:41.000Z</time>
      </trkpt>
      <trkpt lat="45.15847" lon="2.78851">
        <ele>1060.4000244141</ele>
        <time>2024-01-30T17:08:43.000Z</time>
      </trkpt>
      <trkpt lat="45.1585" lon="2.78826">
        <ele>1061.1999511719</ele>
        <time>2024-01-30T17:08:45.000Z</time>
      </trkpt>
      <trkpt lat="45.15851" lon="2.78814">
        <ele>1061.8000488281</ele>
        <time>2024-01-30T17:08:46.000Z</time>
      </trkpt>
      <trkpt lat="45.15849" lon="2.78788">
        <ele>1062.4000244141</ele>
        <time>2024-01-30T17:08:48.000Z</time>
      </trkpt>
      <trkpt lat="45.15847" lon="2.78775">
        <ele>1062.8000488281</ele>
        <time>2024-01-30T17:08:49.000Z</time>
      </trkpt>
      <trkpt lat="45.15843" lon="2.78748">
        <ele>1064</ele>
        <time>2024-01-30T17:08:51.000Z</time>
      </trkpt>
      <trkpt lat="45.15834" lon="2.78713">
        <ele>1064.8000488281</ele>
        <time>2024-01-30T17:08:54.000Z</time>
      </trkpt>
      <trkpt lat="45.1583" lon="2.78703">
        <ele>1065</ele>
        <time>2024-01-30T17:08:55.000Z</time>
      </trkpt>
      <trkpt lat="45.15817" lon="2.78686">
        <ele>1065.5999755859</ele>
        <time>2024-01-30T17:08:57.000Z</time>
      </trkpt>
      <trkpt lat="45.15783" lon="2.7866">
        <ele>1065.5999755859</ele>
        <time>2024-01-30T17:09:01.000Z</time>
      </trkpt>
      <trkpt lat="45.15775" lon="2.78654">
        <ele>1065.4000244141</ele>
        <time>2024-01-30T17:09:02.000Z</time>
      </trkpt>
      <trkpt lat="45.15762" lon="2.78638">
        <ele>1065</ele>
        <time>2024-01-30T17:09:04.000Z</time>
      </trkpt>
      <trkpt lat="45.15741" lon="2.78605">
        <ele>1063.4000244141</ele>
        <time>2024-01-30T17:09:07.000Z</time>
      </trkpt>
      <trkpt lat="45.15734" lon="2.78593">
        <ele>1062.8000488281</ele>
        <time>2024-01-30T17:09:08.000Z</time>
      </trkpt>
      <trkpt lat="45.15718" lon="2.78568">
        <ele>1061.8000488281</ele>
        <time>2024-01-30T17:09:10.000Z</time>
      </trkpt>
      <trkpt lat="45.157" lon="2.78539">
        <ele>1060.5999755859</ele>
        <time>2024-01-30T17:09:12.000Z</time>
      </trkpt>
      <trkpt lat="45.15693" lon="2.78527">
        <ele>1060.1999511719</ele>
        <time>2024-01-30T17:09:13.000Z</time>
      </trkpt>
      <trkpt lat="45.15662" lon="2.78483">
        <ele>1059.4000244141</ele>
        <time>2024-01-30T17:09:16.000Z</time>
      </trkpt>
      <trkpt lat="45.1565" lon="2.78467">
        <ele>1059</ele>
        <time>2024-01-30T17:09:17.000Z</time>
      </trkpt>
      <trkpt lat="45.15638" lon="2.78452">
        <ele>1058.1999511719</ele>
        <time>2024-01-30T17:09:18.000Z</time>
      </trkpt>
      <trkpt lat="45.15587" lon="2.7839">
        <ele>1057.5999755859</ele>
        <time>2024-01-30T17:09:22.000Z</time>
      </trkpt>
      <trkpt lat="45.15574" lon="2.78376">
        <ele>1057.1999511719</ele>
        <time>2024-01-30T17:09:23.000Z</time>
      </trkpt>
      <trkpt lat="45.15528" lon="2.78317">
        <ele>1056</ele>
        <time>2024-01-30T17:09:27.000Z</time>
      </trkpt>
      <trkpt lat="45.15487" lon="2.78258">
        <ele>1055.1999511719</ele>
        <time>2024-01-30T17:09:31.000Z</time>
      </trkpt>
      <trkpt lat="45.15475" lon="2.78245">
        <ele>1054.5999755859</ele>
        <time>2024-01-30T17:09:32.000Z</time>
      </trkpt>
      <trkpt lat="45.15428" lon="2.78188">
        <ele>1054</ele>
        <time>2024-01-30T17:09:36.000Z</time>
      </trkpt>
      <trkpt lat="45.15388" lon="2.78118">
        <ele>1054.1999511719</ele>
        <time>2024-01-30T17:09:40.000Z</time>
      </trkpt>
      <trkpt lat="45.15374" lon="2.78078">
        <ele>1054.1999511719</ele>
        <time>2024-01-30T17:09:42.000Z</time>
      </trkpt>
      <trkpt lat="45.15369" lon="2.78058">
        <ele>1054.4000244141</ele>
        <time>2024-01-30T17:09:43.000Z</time>
      </trkpt>
      <trkpt lat="45.15366" lon="2.78036">
        <ele>1054.5999755859</ele>
        <time>2024-01-30T17:09:44.000Z</time>
      </trkpt>
      <trkpt lat="45.15361" lon="2.7799">
        <ele>1055.4000244141</ele>
        <time>2024-01-30T17:09:46.000Z</time>
      </trkpt>
      <trkpt lat="45.15359" lon="2.77967">
        <ele>1055.8000488281</ele>
        <time>2024-01-30T17:09:47.000Z</time>
      </trkpt>
      <trkpt lat="45.15348" lon="2.77878">
        <ele>1056.1999511719</ele>
        <time>2024-01-30T17:09:51.000Z</time>
      </trkpt>
      <trkpt lat="45.15343" lon="2.77857">
        <ele>1056.1999511719</ele>
        <time>2024-01-30T17:09:52.000Z</time>
      </trkpt>
      <trkpt lat="45.15323" lon="2.77801">
        <ele>1056.8000488281</ele>
        <time>2024-01-30T17:09:55.000Z</time>
      </trkpt>
      <trkpt lat="45.15314" lon="2.77787">
        <ele>1057</ele>
        <time>2024-01-30T17:09:56.000Z</time>
      </trkpt>
      <trkpt lat="45.15304" lon="2.77775">
        <ele>1057.1999511719</ele>
        <time>2024-01-30T17:09:57.000Z</time>
      </trkpt>
      <trkpt lat="45.15252" lon="2.77734">
        <ele>1058</ele>
        <time>2024-01-30T17:10:01.000Z</time>
      </trkpt>
      <trkpt lat="45.15237" lon="2.77725">
        <ele>1058</ele>
        <time>2024-01-30T17:10:02.000Z</time>
      </trkpt>
      <trkpt lat="45.15181" lon="2.77678">
        <ele>1058.8000488281</ele>
        <time>2024-01-30T17:10:06.000Z</time>
      </trkpt>
      <trkpt lat="45.15154" lon="2.77651">
        <ele>1059</ele>
        <time>2024-01-30T17:10:08.000Z</time>
      </trkpt>
      <trkpt lat="45.15125" lon="2.7762">
        <ele>1059.8000488281</ele>
        <time>2024-01-30T17:10:10.000Z</time>
      </trkpt>
      <trkpt lat="45.151" lon="2.77596">
        <ele>1060.1999511719</ele>
        <time>2024-01-30T17:10:12.000Z</time>
      </trkpt>
      <trkpt lat="45.15071" lon="2.7757">
        <ele>1060.5999755859</ele>
        <time>2024-01-30T17:10:14.000Z</time>
      </trkpt>
      <trkpt lat="45.15016" lon="2.77519">
        <ele>1061.4000244141</ele>
        <time>2024-01-30T17:10:18.000Z</time>
      </trkpt>
      <trkpt lat="45.1499" lon="2.77499">
        <ele>1061.5999755859</ele>
        <time>2024-01-30T17:10:20.000Z</time>
      </trkpt>
      <trkpt lat="45.14952" lon="2.77474">
        <ele>1062.1999511719</ele>
        <time>2024-01-30T17:10:23.000Z</time>
      </trkpt>
      <trkpt lat="45.14939" lon="2.77469">
        <ele>1062.4000244141</ele>
        <time>2024-01-30T17:10:24.000Z</time>
      </trkpt>
      <trkpt lat="45.14912" lon="2.77458">
        <ele>1063.8000488281</ele>
        <time>2024-01-30T17:10:26.000Z</time>
      </trkpt>
      <trkpt lat="45.14899" lon="2.7745">
        <ele>1064.1999511719</ele>
        <time>2024-01-30T17:10:27.000Z</time>
      </trkpt>
      <trkpt lat="45.14885" lon="2.77441">
        <ele>1065</ele>
        <time>2024-01-30T17:10:28.000Z</time>
      </trkpt>
      <trkpt lat="45.14859" lon="2.7742">
        <ele>1066.4000244141</ele>
        <time>2024-01-30T17:10:30.000Z</time>
      </trkpt>
      <trkpt lat="45.14821" lon="2.77387">
        <ele>1067.5999755859</ele>
        <time>2024-01-30T17:10:33.000Z</time>
      </trkpt>
      <trkpt lat="45.14809" lon="2.77376">
        <ele>1068.4000244141</ele>
        <time>2024-01-30T17:10:34.000Z</time>
      </trkpt>
      <trkpt lat="45.14797" lon="2.77365">
        <ele>1069</ele>
        <time>2024-01-30T17:10:35.000Z</time>
      </trkpt>
      <trkpt lat="45.1477" lon="2.77342">
        <ele>1070.4000244141</ele>
        <time>2024-01-30T17:10:37.000Z</time>
      </trkpt>
      <trkpt lat="45.14729" lon="2.77308">
        <ele>1072.1999511719</ele>
        <time>2024-01-30T17:10:40.000Z</time>
      </trkpt>
      <trkpt lat="45.147" lon="2.77286">
        <ele>1073.1999511719</ele>
        <time>2024-01-30T17:10:42.000Z</time>
      </trkpt>
      <trkpt lat="45.14653" lon="2.77258">
        <ele>1074.8000488281</ele>
        <time>2024-01-30T17:10:45.000Z</time>
      </trkpt>
      <trkpt lat="45.14622" lon="2.77239">
        <ele>1076</ele>
        <time>2024-01-30T17:10:47.000Z</time>
      </trkpt>
      <trkpt lat="45.14565" lon="2.77203">
        <ele>1077</ele>
        <time>2024-01-30T17:10:51.000Z</time>
      </trkpt>
      <trkpt lat="45.14542" lon="2.77179">
        <ele>1077.8000488281</ele>
        <time>2024-01-30T17:10:53.000Z</time>
      </trkpt>
      <trkpt lat="45.14532" lon="2.77165">
        <ele>1078.1999511719</ele>
        <time>2024-01-30T17:10:54.000Z</time>
      </trkpt>
      <trkpt lat="45.14522" lon="2.77148">
        <ele>1078.5999755859</ele>
        <time>2024-01-30T17:10:55.000Z</time>
      </trkpt>
      <trkpt lat="45.14508" lon="2.77115">
        <ele>1079.4000244141</ele>
        <time>2024-01-30T17:10:57.000Z</time>
      </trkpt>
      <trkpt lat="45.14481" lon="2.77058">
        <ele>1080.4000244141</ele>
        <time>2024-01-30T17:11:00.000Z</time>
      </trkpt>
      <trkpt lat="45.14471" lon="2.77043">
        <ele>1081</ele>
        <time>2024-01-30T17:11:01.000Z</time>
      </trkpt>
      <trkpt lat="45.14448" lon="2.77013">
        <ele>1082.1999511719</ele>
        <time>2024-01-30T17:11:03.000Z</time>
      </trkpt>
      <trkpt lat="45.14404" lon="2.76958">
        <ele>1083.5999755859</ele>
        <time>2024-01-30T17:11:07.000Z</time>
      </trkpt>
      <trkpt lat="45.14373" lon="2.76912">
        <ele>1084.8000488281</ele>
        <time>2024-01-30T17:11:10.000Z</time>
      </trkpt>
      <trkpt lat="45.14364" lon="2.76895">
        <ele>1085.1999511719</ele>
        <time>2024-01-30T17:11:11.000Z</time>
      </trkpt>
      <trkpt lat="45.14347" lon="2.76855">
        <ele>1086</ele>
        <time>2024-01-30T17:11:13.000Z</time>
      </trkpt>
      <trkpt lat="45.14323" lon="2.76798">
        <ele>1087.1999511719</ele>
        <time>2024-01-30T17:11:16.000Z</time>
      </trkpt>
      <trkpt lat="45.14297" lon="2.76739">
        <ele>1089.1999511719</ele>
        <time>2024-01-30T17:11:19.000Z</time>
      </trkpt>
      <trkpt lat="45.14282" lon="2.76698">
        <ele>1090.5999755859</ele>
        <time>2024-01-30T17:11:21.000Z</time>
      </trkpt>
      <trkpt lat="45.14261" lon="2.76634">
        <ele>1091.8000488281</ele>
        <time>2024-01-30T17:11:24.000Z</time>
      </trkpt>
      <trkpt lat="45.14242" lon="2.76575">
        <ele>1092.5999755859</ele>
        <time>2024-01-30T17:11:27.000Z</time>
      </trkpt>
      <trkpt lat="45.14233" lon="2.7654">
        <ele>1092.8000488281</ele>
        <time>2024-01-30T17:11:29.000Z</time>
      </trkpt>
      <trkpt lat="45.1423" lon="2.76523">
        <ele>1093</ele>
        <time>2024-01-30T17:11:30.000Z</time>
      </trkpt>
      <trkpt lat="45.14228" lon="2.7647">
        <ele>1094</ele>
        <time>2024-01-30T17:11:33.000Z</time>
      </trkpt>
      <trkpt lat="45.14229" lon="2.7645">
        <ele>1094.4000244141</ele>
        <time>2024-01-30T17:11:34.000Z</time>
      </trkpt>
      <trkpt lat="45.1423" lon="2.76429">
        <ele>1095</ele>
        <time>2024-01-30T17:11:35.000Z</time>
      </trkpt>
      <trkpt lat="45.14232" lon="2.76387">
        <ele>1096.1999511719</ele>
        <time>2024-01-30T17:11:37.000Z</time>
      </trkpt>
      <trkpt lat="45.14234" lon="2.76366">
        <ele>1096.5999755859</ele>
        <time>2024-01-30T17:11:38.000Z</time>
      </trkpt>
      <trkpt lat="45.14241" lon="2.76324">
        <ele>1097.5999755859</ele>
        <time>2024-01-30T17:11:40.000Z</time>
      </trkpt>
      <trkpt lat="45.14253" lon="2.76258">
        <ele>1099</ele>
        <time>2024-01-30T17:11:43.000Z</time>
      </trkpt>
      <trkpt lat="45.14257" lon="2.76237">
        <ele>1099.4000244141</ele>
        <time>2024-01-30T17:11:44.000Z</time>
      </trkpt>
      <trkpt lat="45.14266" lon="2.76192">
        <ele>1100.1999511719</ele>
        <time>2024-01-30T17:11:46.000Z</time>
      </trkpt>
      <trkpt lat="45.14275" lon="2.76145">
        <ele>1101.4000244141</ele>
        <time>2024-01-30T17:11:48.000Z</time>
      </trkpt>
      <trkpt lat="45.1428" lon="2.76097">
        <ele>1102.5999755859</ele>
        <time>2024-01-30T17:11:50.000Z</time>
      </trkpt>
      <trkpt lat="45.14282" lon="2.76047">
        <ele>1103.4000244141</ele>
        <time>2024-01-30T17:11:52.000Z</time>
      </trkpt>
      <trkpt lat="45.14282" lon="2.76022">
        <ele>1103.8000488281</ele>
        <time>2024-01-30T17:11:53.000Z</time>
      </trkpt>
      <trkpt lat="45.14283" lon="2.75974">
        <ele>1104.8000488281</ele>
        <time>2024-01-30T17:11:55.000Z</time>
      </trkpt>
      <trkpt lat="45.14283" lon="2.75926">
        <ele>1106</ele>
        <time>2024-01-30T17:11:57.000Z</time>
      </trkpt>
      <trkpt lat="45.14281" lon="2.7588">
        <ele>1106.5999755859</ele>
        <time>2024-01-30T17:11:59.000Z</time>
      </trkpt>
      <trkpt lat="45.14273" lon="2.75838">
        <ele>1107.4000244141</ele>
        <time>2024-01-30T17:12:01.000Z</time>
      </trkpt>
      <trkpt lat="45.14266" lon="2.75793">
        <ele>1107.8000488281</ele>
        <time>2024-01-30T17:12:03.000Z</time>
      </trkpt>
      <trkpt lat="45.14259" lon="2.75709">
        <ele>1108.4000244141</ele>
        <time>2024-01-30T17:12:07.000Z</time>
      </trkpt>
      <trkpt lat="45.14256" lon="2.75684">
        <ele>1108.5999755859</ele>
        <time>2024-01-30T17:12:08.000Z</time>
      </trkpt>
      <trkpt lat="45.1424" lon="2.75626">
        <ele>1109.1999511719</ele>
        <time>2024-01-30T17:12:11.000Z</time>
      </trkpt>
      <trkpt lat="45.14214" lon="2.75546">
        <ele>1109.4000244141</ele>
        <time>2024-01-30T17:12:15.000Z</time>
      </trkpt>
      <trkpt lat="45.1421" lon="2.75525">
        <ele>1109.1999511719</ele>
        <time>2024-01-30T17:12:16.000Z</time>
      </trkpt>
      <trkpt lat="45.14199" lon="2.75436">
        <ele>1109.1999511719</ele>
        <time>2024-01-30T17:12:20.000Z</time>
      </trkpt>
      <trkpt lat="45.1418" lon="2.75372">
        <ele>1109.5999755859</ele>
        <time>2024-01-30T17:12:23.000Z</time>
      </trkpt>
      <trkpt lat="45.1415" lon="2.75288">
        <ele>1110</ele>
        <time>2024-01-30T17:12:27.000Z</time>
      </trkpt>
      <trkpt lat="45.1413" lon="2.75224">
        <ele>1110.8000488281</ele>
        <time>2024-01-30T17:12:30.000Z</time>
      </trkpt>
      <trkpt lat="45.14111" lon="2.75134">
        <ele>1112</ele>
        <time>2024-01-30T17:12:34.000Z</time>
      </trkpt>
      <trkpt lat="45.14095" lon="2.7505">
        <ele>1112.8000488281</ele>
        <time>2024-01-30T17:12:38.000Z</time>
      </trkpt>
      <trkpt lat="45.14087" lon="2.75033">
        <ele>1113</ele>
        <time>2024-01-30T17:12:39.000Z</time>
      </trkpt>
      <trkpt lat="45.14077" lon="2.75019">
        <ele>1113.1999511719</ele>
        <time>2024-01-30T17:12:40.000Z</time>
      </trkpt>
      <trkpt lat="45.14049" lon="2.74975">
        <ele>1113.5999755859</ele>
        <time>2024-01-30T17:12:43.000Z</time>
      </trkpt>
      <trkpt lat="45.14043" lon="2.74958">
        <ele>1113.8000488281</ele>
        <time>2024-01-30T17:12:44.000Z</time>
      </trkpt>
      <trkpt lat="45.14038" lon="2.74941">
        <ele>1113.8000488281</ele>
        <time>2024-01-30T17:12:45.000Z</time>
      </trkpt>
      <trkpt lat="45.14035" lon="2.74924">
        <ele>1114</ele>
        <time>2024-01-30T17:12:46.000Z</time>
      </trkpt>
      <trkpt lat="45.1403" lon="2.74907">
        <ele>1114.1999511719</ele>
        <time>2024-01-30T17:12:47.000Z</time>
      </trkpt>
      <trkpt lat="45.14016" lon="2.74879">
        <ele>1114.5999755859</ele>
        <time>2024-01-30T17:12:49.000Z</time>
      </trkpt>
      <trkpt lat="45.14007" lon="2.74866">
        <ele>1115</ele>
        <time>2024-01-30T17:12:50.000Z</time>
      </trkpt>
      <trkpt lat="45.14" lon="2.74852">
        <ele>1115.1999511719</ele>
        <time>2024-01-30T17:12:51.000Z</time>
      </trkpt>
      <trkpt lat="45.13988" lon="2.74823">
        <ele>1115.5999755859</ele>
        <time>2024-01-30T17:12:53.000Z</time>
      </trkpt>
      <trkpt lat="45.13982" lon="2.7481">
        <ele>1115.5999755859</ele>
        <time>2024-01-30T17:12:54.000Z</time>
      </trkpt>
      <trkpt lat="45.13965" lon="2.74791">
        <ele>1115.8000488281</ele>
        <time>2024-01-30T17:12:56.000Z</time>
      </trkpt>
      <trkpt lat="45.13941" lon="2.74764">
        <ele>1116</ele>
        <time>2024-01-30T17:12:59.000Z</time>
      </trkpt>
      <trkpt lat="45.13935" lon="2.74752">
        <ele>1116.4000244141</ele>
        <time>2024-01-30T17:13:00.000Z</time>
      </trkpt>
      <trkpt lat="45.1393" lon="2.74738">
        <ele>1116.5999755859</ele>
        <time>2024-01-30T17:13:01.000Z</time>
      </trkpt>
      <trkpt lat="45.13921" lon="2.74711">
        <ele>1117.1999511719</ele>
        <time>2024-01-30T17:13:03.000Z</time>
      </trkpt>
      <trkpt lat="45.13915" lon="2.74699">
        <ele>1117.1999511719</ele>
        <time>2024-01-30T17:13:04.000Z</time>
      </trkpt>
      <trkpt lat="45.13908" lon="2.74687">
        <ele>1117.4000244141</ele>
        <time>2024-01-30T17:13:05.000Z</time>
      </trkpt>
      <trkpt lat="45.13891" lon="2.74665">
        <ele>1118</ele>
        <time>2024-01-30T17:13:07.000Z</time>
      </trkpt>
      <trkpt lat="45.13874" lon="2.74644">
        <ele>1118.1999511719</ele>
        <time>2024-01-30T17:13:09.000Z</time>
      </trkpt>
      <trkpt lat="45.13863" lon="2.74618">
        <ele>1118.4000244141</ele>
        <time>2024-01-30T17:13:11.000Z</time>
      </trkpt>
      <trkpt lat="45.13854" lon="2.74591">
        <ele>1118.5999755859</ele>
        <time>2024-01-30T17:13:13.000Z</time>
      </trkpt>
      <trkpt lat="45.13849" lon="2.74578">
        <ele>1118.5999755859</ele>
        <time>2024-01-30T17:13:14.000Z</time>
      </trkpt>
      <trkpt lat="45.13843" lon="2.74567">
        <ele>1118.5999755859</ele>
        <time>2024-01-30T17:13:15.000Z</time>
      </trkpt>
      <trkpt lat="45.13827" lon="2.74535">
        <ele>1119.1999511719</ele>
        <time>2024-01-30T17:13:18.000Z</time>
      </trkpt>
      <trkpt lat="45.13823" lon="2.74522">
        <ele>1119.4000244141</ele>
        <time>2024-01-30T17:13:19.000Z</time>
      </trkpt>
      <trkpt lat="45.1382" lon="2.74507">
        <ele>1119.8000488281</ele>
        <time>2024-01-30T17:13:20.000Z</time>
      </trkpt>
      <trkpt lat="45.13817" lon="2.74459">
        <ele>1120.4000244141</ele>
        <time>2024-01-30T17:13:23.000Z</time>
      </trkpt>
      <trkpt lat="45.1381" lon="2.74413">
        <ele>1120.5999755859</ele>
        <time>2024-01-30T17:13:26.000Z</time>
      </trkpt>
      <trkpt lat="45.13804" lon="2.744">
        <ele>1120.5999755859</ele>
        <time>2024-01-30T17:13:27.000Z</time>
      </trkpt>
      <trkpt lat="45.13798" lon="2.74389">
        <ele>1120.8000488281</ele>
        <time>2024-01-30T17:13:28.000Z</time>
      </trkpt>
      <trkpt lat="45.13786" lon="2.74368">
        <ele>1122.1999511719</ele>
        <time>2024-01-30T17:13:30.000Z</time>
      </trkpt>
      <trkpt lat="45.1378" lon="2.74357">
        <ele>1122.8000488281</ele>
        <time>2024-01-30T17:13:31.000Z</time>
      </trkpt>
      <trkpt lat="45.13776" lon="2.74346">
        <ele>1123.5999755859</ele>
        <time>2024-01-30T17:13:32.000Z</time>
      </trkpt>
      <trkpt lat="45.13773" lon="2.74333">
        <ele>1125</ele>
        <time>2024-01-30T17:13:33.000Z</time>
      </trkpt>
      <trkpt lat="45.1377" lon="2.7432">
        <ele>1125.5999755859</ele>
        <time>2024-01-30T17:13:34.000Z</time>
      </trkpt>
      <trkpt lat="45.13767" lon="2.74305">
        <ele>1126.8000488281</ele>
        <time>2024-01-30T17:13:35.000Z</time>
      </trkpt>
      <trkpt lat="45.13762" lon="2.7427">
        <ele>1128.1999511719</ele>
        <time>2024-01-30T17:13:37.000Z</time>
      </trkpt>
      <trkpt lat="45.1376" lon="2.74252">
        <ele>1129.1999511719</ele>
        <time>2024-01-30T17:13:38.000Z</time>
      </trkpt>
      <trkpt lat="45.13758" lon="2.74237">
        <ele>1130.5999755859</ele>
        <time>2024-01-30T17:13:39.000Z</time>
      </trkpt>
      <trkpt lat="45.13753" lon="2.742">
        <ele>1132.4000244141</ele>
        <time>2024-01-30T17:13:41.000Z</time>
      </trkpt>
      <trkpt lat="45.13748" lon="2.74161">
        <ele>1134.5999755859</ele>
        <time>2024-01-30T17:13:43.000Z</time>
      </trkpt>
      <trkpt lat="45.13743" lon="2.74123">
        <ele>1136.4000244141</ele>
        <time>2024-01-30T17:13:45.000Z</time>
      </trkpt>
      <trkpt lat="45.13739" lon="2.74091">
        <ele>1137.8000488281</ele>
        <time>2024-01-30T17:13:47.000Z</time>
      </trkpt>
      <trkpt lat="45.13735" lon="2.74077">
        <ele>1139</ele>
        <time>2024-01-30T17:13:48.000Z</time>
      </trkpt>
      <trkpt lat="45.13725" lon="2.74053">
        <ele>1140.4000244141</ele>
        <time>2024-01-30T17:13:50.000Z</time>
      </trkpt>
      <trkpt lat="45.13723" lon="2.74041">
        <ele>1141</ele>
        <time>2024-01-30T17:13:51.000Z</time>
      </trkpt>
      <trkpt lat="45.13722" lon="2.7403">
        <ele>1141.5999755859</ele>
        <time>2024-01-30T17:13:52.000Z</time>
      </trkpt>
      <trkpt lat="45.13723" lon="2.74019">
        <ele>1142.4000244141</ele>
        <time>2024-01-30T17:13:53.000Z</time>
      </trkpt>
      <trkpt lat="45.13725" lon="2.74008">
        <ele>1143.1999511719</ele>
        <time>2024-01-30T17:13:54.000Z</time>
      </trkpt>
      <trkpt lat="45.13726" lon="2.73996">
        <ele>1144.1999511719</ele>
        <time>2024-01-30T17:13:55.000Z</time>
      </trkpt>
      <trkpt lat="45.13725" lon="2.73983">
        <ele>1145.1999511719</ele>
        <time>2024-01-30T17:13:56.000Z</time>
      </trkpt>
      <trkpt lat="45.13721" lon="2.73971">
        <ele>1145.8000488281</ele>
        <time>2024-01-30T17:13:57.000Z</time>
      </trkpt>
      <trkpt lat="45.13716" lon="2.7396">
        <ele>1146.8000488281</ele>
        <time>2024-01-30T17:13:58.000Z</time>
      </trkpt>
      <trkpt lat="45.1371" lon="2.73948">
        <ele>1147.8000488281</ele>
        <time>2024-01-30T17:13:59.000Z</time>
      </trkpt>
      <trkpt lat="45.13698" lon="2.73925">
        <ele>1149</ele>
        <time>2024-01-30T17:14:01.000Z</time>
      </trkpt>
      <trkpt lat="45.1369" lon="2.73899">
        <ele>1150.8000488281</ele>
        <time>2024-01-30T17:14:03.000Z</time>
      </trkpt>
      <trkpt lat="45.13687" lon="2.73884">
        <ele>1151.4000244141</ele>
        <time>2024-01-30T17:14:04.000Z</time>
      </trkpt>
      <trkpt lat="45.13685" lon="2.73869">
        <ele>1152.1999511719</ele>
        <time>2024-01-30T17:14:05.000Z</time>
      </trkpt>
      <trkpt lat="45.13682" lon="2.73852">
        <ele>1154.5999755859</ele>
        <time>2024-01-30T17:14:06.000Z</time>
      </trkpt>
      <trkpt lat="45.13677" lon="2.73836">
        <ele>1157</ele>
        <time>2024-01-30T17:14:07.000Z</time>
      </trkpt>
      <trkpt lat="45.13672" lon="2.7382">
        <ele>1158.1999511719</ele>
        <time>2024-01-30T17:14:08.000Z</time>
      </trkpt>
      <trkpt lat="45.1366" lon="2.73787">
        <ele>1160</ele>
        <time>2024-01-30T17:14:10.000Z</time>
      </trkpt>
      <trkpt lat="45.13648" lon="2.73755">
        <ele>1162.4000244141</ele>
        <time>2024-01-30T17:14:12.000Z</time>
      </trkpt>
      <trkpt lat="45.13642" lon="2.73739">
        <ele>1163</ele>
        <time>2024-01-30T17:14:13.000Z</time>
      </trkpt>
      <trkpt lat="45.13629" lon="2.73709">
        <ele>1163.8000488281</ele>
        <time>2024-01-30T17:14:15.000Z</time>
      </trkpt>
      <trkpt lat="45.13624" lon="2.73696">
        <ele>1164.1999511719</ele>
        <time>2024-01-30T17:14:16.000Z</time>
      </trkpt>
      <trkpt lat="45.13621" lon="2.73682">
        <ele>1164.8000488281</ele>
        <time>2024-01-30T17:14:17.000Z</time>
      </trkpt>
      <trkpt lat="45.13619" lon="2.73669">
        <ele>1165</ele>
        <time>2024-01-30T17:14:18.000Z</time>
      </trkpt>
      <trkpt lat="45.13616" lon="2.73639">
        <ele>1167.1999511719</ele>
        <time>2024-01-30T17:14:20.000Z</time>
      </trkpt>
      <trkpt lat="45.13615" lon="2.73623">
        <ele>1168.4000244141</ele>
        <time>2024-01-30T17:14:21.000Z</time>
      </trkpt>
      <trkpt lat="45.13616" lon="2.73589">
        <ele>1170</ele>
        <time>2024-01-30T17:14:23.000Z</time>
      </trkpt>
      <trkpt lat="45.13618" lon="2.73573">
        <ele>1171</ele>
        <time>2024-01-30T17:14:24.000Z</time>
      </trkpt>
      <trkpt lat="45.13619" lon="2.73558">
        <ele>1171.8000488281</ele>
        <time>2024-01-30T17:14:25.000Z</time>
      </trkpt>
      <trkpt lat="45.13617" lon="2.73525">
        <ele>1172.5999755859</ele>
        <time>2024-01-30T17:14:27.000Z</time>
      </trkpt>
      <trkpt lat="45.13614" lon="2.73508">
        <ele>1174.8000488281</ele>
        <time>2024-01-30T17:14:28.000Z</time>
      </trkpt>
      <trkpt lat="45.13612" lon="2.73473">
        <ele>1176</ele>
        <time>2024-01-30T17:14:30.000Z</time>
      </trkpt>
      <trkpt lat="45.13612" lon="2.73456">
        <ele>1176.8000488281</ele>
        <time>2024-01-30T17:14:31.000Z</time>
      </trkpt>
      <trkpt lat="45.13612" lon="2.73437">
        <ele>1177.5999755859</ele>
        <time>2024-01-30T17:14:32.000Z</time>
      </trkpt>
      <trkpt lat="45.13613" lon="2.73419">
        <ele>1179</ele>
        <time>2024-01-30T17:14:33.000Z</time>
      </trkpt>
      <trkpt lat="45.13613" lon="2.734">
        <ele>1180</ele>
        <time>2024-01-30T17:14:34.000Z</time>
      </trkpt>
      <trkpt lat="45.13615" lon="2.73365">
        <ele>1181.8000488281</ele>
        <time>2024-01-30T17:14:36.000Z</time>
      </trkpt>
      <trkpt lat="45.13617" lon="2.73349">
        <ele>1183</ele>
        <time>2024-01-30T17:14:37.000Z</time>
      </trkpt>
      <trkpt lat="45.13622" lon="2.7332">
        <ele>1185.1999511719</ele>
        <time>2024-01-30T17:14:39.000Z</time>
      </trkpt>
      <trkpt lat="45.13623" lon="2.73304">
        <ele>1185.8000488281</ele>
        <time>2024-01-30T17:14:40.000Z</time>
      </trkpt>
      <trkpt lat="45.13622" lon="2.73277">
        <ele>1186.4000244141</ele>
        <time>2024-01-30T17:14:42.000Z</time>
      </trkpt>
      <trkpt lat="45.13622" lon="2.73263">
        <ele>1186.8000488281</ele>
        <time>2024-01-30T17:14:43.000Z</time>
      </trkpt>
      <trkpt lat="45.13624" lon="2.73236">
        <ele>1187.4000244141</ele>
        <time>2024-01-30T17:14:45.000Z</time>
      </trkpt>
      <trkpt lat="45.13626" lon="2.73223">
        <ele>1188</ele>
        <time>2024-01-30T17:14:46.000Z</time>
      </trkpt>
      <trkpt lat="45.13629" lon="2.73212">
        <ele>1188.8000488281</ele>
        <time>2024-01-30T17:14:47.000Z</time>
      </trkpt>
      <trkpt lat="45.13633" lon="2.73191">
        <ele>1190.4000244141</ele>
        <time>2024-01-30T17:14:49.000Z</time>
      </trkpt>
      <trkpt lat="45.13634" lon="2.73181">
        <ele>1190.8000488281</ele>
        <time>2024-01-30T17:14:50.000Z</time>
      </trkpt>
      <trkpt lat="45.1363" lon="2.73165">
        <ele>1191.1999511719</ele>
        <time>2024-01-30T17:14:52.000Z</time>
      </trkpt>
      <trkpt lat="45.13625" lon="2.73156">
        <ele>1191.1999511719</ele>
        <time>2024-01-30T17:14:53.000Z</time>
      </trkpt>
      <trkpt lat="45.13619" lon="2.73147">
        <ele>1191.5999755859</ele>
        <time>2024-01-30T17:14:54.000Z</time>
      </trkpt>
      <trkpt lat="45.13607" lon="2.73126">
        <ele>1192.8000488281</ele>
        <time>2024-01-30T17:14:56.000Z</time>
      </trkpt>
      <trkpt lat="45.13602" lon="2.73113">
        <ele>1194</ele>
        <time>2024-01-30T17:14:57.000Z</time>
      </trkpt>
      <trkpt lat="45.13596" lon="2.73098">
        <ele>1195</ele>
        <time>2024-01-30T17:14:58.000Z</time>
      </trkpt>
      <trkpt lat="45.13589" lon="2.73082">
        <ele>1196.4000244141</ele>
        <time>2024-01-30T17:14:59.000Z</time>
      </trkpt>
      <trkpt lat="45.13582" lon="2.73066">
        <ele>1198.1999511719</ele>
        <time>2024-01-30T17:15:00.000Z</time>
      </trkpt>
      <trkpt lat="45.13574" lon="2.7305">
        <ele>1199.4000244141</ele>
        <time>2024-01-30T17:15:01.000Z</time>
      </trkpt>
      <trkpt lat="45.13557" lon="2.73017">
        <ele>1200.8000488281</ele>
        <time>2024-01-30T17:15:03.000Z</time>
      </trkpt>
      <trkpt lat="45.1355" lon="2.73001">
        <ele>1201.8000488281</ele>
        <time>2024-01-30T17:15:04.000Z</time>
      </trkpt>
      <trkpt lat="45.13542" lon="2.72984">
        <ele>1203</ele>
        <time>2024-01-30T17:15:05.000Z</time>
      </trkpt>
      <trkpt lat="45.13533" lon="2.72952">
        <ele>1204.1999511719</ele>
        <time>2024-01-30T17:15:07.000Z</time>
      </trkpt>
      <trkpt lat="45.13528" lon="2.72937">
        <ele>1204.4000244141</ele>
        <time>2024-01-30T17:15:08.000Z</time>
      </trkpt>
      <trkpt lat="45.13514" lon="2.7288">
        <ele>1206</ele>
        <time>2024-01-30T17:15:12.000Z</time>
      </trkpt>
      <trkpt lat="45.1351" lon="2.72861">
        <ele>1207.1999511719</ele>
        <time>2024-01-30T17:15:13.000Z</time>
      </trkpt>
      <trkpt lat="45.13506" lon="2.72847">
        <ele>1208.1999511719</ele>
        <time>2024-01-30T17:15:14.000Z</time>
      </trkpt>
      <trkpt lat="45.13498" lon="2.72811">
        <ele>1210</ele>
        <time>2024-01-30T17:15:16.000Z</time>
      </trkpt>
      <trkpt lat="45.13494" lon="2.72794">
        <ele>1211</ele>
        <time>2024-01-30T17:15:17.000Z</time>
      </trkpt>
      <trkpt lat="45.13486" lon="2.72757">
        <ele>1213.4000244141</ele>
        <time>2024-01-30T17:15:19.000Z</time>
      </trkpt>
      <trkpt lat="45.13481" lon="2.72738">
        <ele>1214.4000244141</ele>
        <time>2024-01-30T17:15:20.000Z</time>
      </trkpt>
      <trkpt lat="45.13476" lon="2.72698">
        <ele>1216</ele>
        <time>2024-01-30T17:15:22.000Z</time>
      </trkpt>
      <trkpt lat="45.1347" lon="2.72653">
        <ele>1217.8000488281</ele>
        <time>2024-01-30T17:15:24.000Z</time>
      </trkpt>
      <trkpt lat="45.13467" lon="2.72632">
        <ele>1219.1999511719</ele>
        <time>2024-01-30T17:15:25.000Z</time>
      </trkpt>
      <trkpt lat="45.13462" lon="2.7259">
        <ele>1221.5999755859</ele>
        <time>2024-01-30T17:15:27.000Z</time>
      </trkpt>
      <trkpt lat="45.13457" lon="2.72546">
        <ele>1223</ele>
        <time>2024-01-30T17:15:29.000Z</time>
      </trkpt>
      <trkpt lat="45.13452" lon="2.72478">
        <ele>1224.5999755859</ele>
        <time>2024-01-30T17:15:32.000Z</time>
      </trkpt>
      <trkpt lat="45.13448" lon="2.72411">
        <ele>1225</ele>
        <time>2024-01-30T17:15:35.000Z</time>
      </trkpt>
      <trkpt lat="45.13447" lon="2.72378">
        <ele>1225.8000488281</ele>
        <time>2024-01-30T17:15:37.000Z</time>
      </trkpt>
      <trkpt lat="45.13449" lon="2.72361">
        <ele>1226.4000244141</ele>
        <time>2024-01-30T17:15:39.000Z</time>
      </trkpt>
      <trkpt lat="45.1345" lon="2.72357">
        <ele>1226.5999755859</ele>
        <time>2024-01-30T17:15:41.000Z</time>
      </trkpt>
      <trkpt lat="45.1345" lon="2.72357">
        <ele>1226.8000488281</ele>
        <time>2024-01-30T17:15:42.000Z</time>
      </trkpt>
      <trkpt lat="45.1345" lon="2.72357">
        <ele>1227.4000244141</ele>
        <time>2024-01-30T17:15:45.000Z</time>
      </trkpt>
      <trkpt lat="45.13449" lon="2.72362">
        <ele>1227.4000244141</ele>
        <time>2024-01-30T17:15:52.000Z</time>
      </trkpt>
      <trkpt lat="45.13448" lon="2.72364">
        <ele>1227.1999511719</ele>
        <time>2024-01-30T17:16:00.000Z</time>
      </trkpt>
      <trkpt lat="45.13448" lon="2.72364">
        <ele>1227.4000244141</ele>
        <time>2024-01-30T17:16:12.000Z</time>
      </trkpt>
      <trkpt lat="45.13449" lon="2.72365">
        <ele>1227.5999755859</ele>
        <time>2024-01-30T17:16:42.000Z</time>
      </trkpt>
      <trkpt lat="45.13452" lon="2.7236">
        <ele>1227.8000488281</ele>
        <time>2024-01-30T17:16:45.000Z</time>
      </trkpt>
      <trkpt lat="45.13455" lon="2.72356">
        <ele>1228</ele>
        <time>2024-01-30T17:16:46.000Z</time>
      </trkpt>
      <trkpt lat="45.13464" lon="2.72342">
        <ele>1228.8000488281</ele>
        <time>2024-01-30T17:16:49.000Z</time>
      </trkpt>
      <trkpt lat="45.13466" lon="2.72335">
        <ele>1229.1999511719</ele>
        <time>2024-01-30T17:16:50.000Z</time>
      </trkpt>
      <trkpt lat="45.13468" lon="2.72328">
        <ele>1229.5999755859</ele>
        <time>2024-01-30T17:16:51.000Z</time>
      </trkpt>
      <trkpt lat="45.13464" lon="2.72313">
        <ele>1230</ele>
        <time>2024-01-30T17:16:53.000Z</time>
      </trkpt>
      <trkpt lat="45.13459" lon="2.72307">
        <ele>1230.4000244141</ele>
        <time>2024-01-30T17:16:54.000Z</time>
      </trkpt>
      <trkpt lat="45.13449" lon="2.72292">
        <ele>1231.4000244141</ele>
        <time>2024-01-30T17:16:56.000Z</time>
      </trkpt>
      <trkpt lat="45.13444" lon="2.72284">
        <ele>1231.5999755859</ele>
        <time>2024-01-30T17:16:57.000Z</time>
      </trkpt>
      <trkpt lat="45.1344" lon="2.72262">
        <ele>1232.4000244141</ele>
        <time>2024-01-30T17:16:59.000Z</time>
      </trkpt>
      <trkpt lat="45.1344" lon="2.72222">
        <ele>1234</ele>
        <time>2024-01-30T17:17:02.000Z</time>
      </trkpt>
      <trkpt lat="45.13437" lon="2.72208">
        <ele>1234.8000488281</ele>
        <time>2024-01-30T17:17:03.000Z</time>
      </trkpt>
      <trkpt lat="45.13433" lon="2.72194">
        <ele>1235.5999755859</ele>
        <time>2024-01-30T17:17:04.000Z</time>
      </trkpt>
      <trkpt lat="45.1342" lon="2.72169">
        <ele>1237</ele>
        <time>2024-01-30T17:17:06.000Z</time>
      </trkpt>
      <trkpt lat="45.13404" lon="2.72143">
        <ele>1238.8000488281</ele>
        <time>2024-01-30T17:17:08.000Z</time>
      </trkpt>
      <trkpt lat="45.1339" lon="2.72114">
        <ele>1240.4000244141</ele>
        <time>2024-01-30T17:17:10.000Z</time>
      </trkpt>
      <trkpt lat="45.13378" lon="2.72084">
        <ele>1241.8000488281</ele>
        <time>2024-01-30T17:17:12.000Z</time>
      </trkpt>
      <trkpt lat="45.13373" lon="2.72052">
        <ele>1243.1999511719</ele>
        <time>2024-01-30T17:17:14.000Z</time>
      </trkpt>
      <trkpt lat="45.13373" lon="2.72034">
        <ele>1244</ele>
        <time>2024-01-30T17:17:15.000Z</time>
      </trkpt>
      <trkpt lat="45.13371" lon="2.72016">
        <ele>1245</ele>
        <time>2024-01-30T17:17:16.000Z</time>
      </trkpt>
      <trkpt lat="45.13369" lon="2.71997">
        <ele>1246</ele>
        <time>2024-01-30T17:17:17.000Z</time>
      </trkpt>
      <trkpt lat="45.13365" lon="2.71956">
        <ele>1248</ele>
        <time>2024-01-30T17:17:19.000Z</time>
      </trkpt>
      <trkpt lat="45.13361" lon="2.71937">
        <ele>1249.1999511719</ele>
        <time>2024-01-30T17:17:20.000Z</time>
      </trkpt>
      <trkpt lat="45.13355" lon="2.71894">
        <ele>1251</ele>
        <time>2024-01-30T17:17:22.000Z</time>
      </trkpt>
      <trkpt lat="45.1335" lon="2.71846">
        <ele>1253.1999511719</ele>
        <time>2024-01-30T17:17:24.000Z</time>
      </trkpt>
      <trkpt lat="45.13347" lon="2.71822">
        <ele>1254.5999755859</ele>
        <time>2024-01-30T17:17:25.000Z</time>
      </trkpt>
      <trkpt lat="45.13343" lon="2.71798">
        <ele>1255.8000488281</ele>
        <time>2024-01-30T17:17:26.000Z</time>
      </trkpt>
      <trkpt lat="45.1334" lon="2.71773">
        <ele>1257.1999511719</ele>
        <time>2024-01-30T17:17:27.000Z</time>
      </trkpt>
      <trkpt lat="45.13335" lon="2.71749">
        <ele>1258.1999511719</ele>
        <time>2024-01-30T17:17:28.000Z</time>
      </trkpt>
      <trkpt lat="45.13331" lon="2.71724">
        <ele>1259.4000244141</ele>
        <time>2024-01-30T17:17:29.000Z</time>
      </trkpt>
      <trkpt lat="45.13323" lon="2.71672">
        <ele>1261.8000488281</ele>
        <time>2024-01-30T17:17:31.000Z</time>
      </trkpt>
      <trkpt lat="45.13318" lon="2.71646">
        <ele>1263.4000244141</ele>
        <time>2024-01-30T17:17:32.000Z</time>
      </trkpt>
      <trkpt lat="45.13314" lon="2.71619">
        <ele>1264.4000244141</ele>
        <time>2024-01-30T17:17:33.000Z</time>
      </trkpt>
      <trkpt lat="45.1331" lon="2.71593">
        <ele>1265.5999755859</ele>
        <time>2024-01-30T17:17:34.000Z</time>
      </trkpt>
      <trkpt lat="45.13305" lon="2.71567">
        <ele>1266.8000488281</ele>
        <time>2024-01-30T17:17:35.000Z</time>
      </trkpt>
      <trkpt lat="45.133" lon="2.71536">
        <ele>1268.4000244141</ele>
        <time>2024-01-30T17:17:36.000Z</time>
      </trkpt>
      <trkpt lat="45.13297" lon="2.71515">
        <ele>1269.5999755859</ele>
        <time>2024-01-30T17:17:37.000Z</time>
      </trkpt>
      <trkpt lat="45.1329" lon="2.71463">
        <ele>1271.5999755859</ele>
        <time>2024-01-30T17:17:39.000Z</time>
      </trkpt>
      <trkpt lat="45.13287" lon="2.71437">
        <ele>1272.4000244141</ele>
        <time>2024-01-30T17:17:40.000Z</time>
      </trkpt>
      <trkpt lat="45.13285" lon="2.71412">
        <ele>1274</ele>
        <time>2024-01-30T17:17:41.000Z</time>
      </trkpt>
      <trkpt lat="45.13276" lon="2.71364">
        <ele>1275.8000488281</ele>
        <time>2024-01-30T17:17:43.000Z</time>
      </trkpt>
      <trkpt lat="45.13269" lon="2.71338">
        <ele>1276.4000244141</ele>
        <time>2024-01-30T17:17:44.000Z</time>
      </trkpt>
      <trkpt lat="45.13264" lon="2.7132">
        <ele>1277.4000244141</ele>
        <time>2024-01-30T17:17:45.000Z</time>
      </trkpt>
      <trkpt lat="45.13255" lon="2.71276">
        <ele>1279</ele>
        <time>2024-01-30T17:17:47.000Z</time>
      </trkpt>
      <trkpt lat="45.1325" lon="2.71249">
        <ele>1279.8000488281</ele>
        <time>2024-01-30T17:17:48.000Z</time>
      </trkpt>
      <trkpt lat="45.13248" lon="2.7123">
        <ele>1280.5999755859</ele>
        <time>2024-01-30T17:17:49.000Z</time>
      </trkpt>
      <trkpt lat="45.13246" lon="2.71207">
        <ele>1282</ele>
        <time>2024-01-30T17:17:50.000Z</time>
      </trkpt>
      <trkpt lat="45.13244" lon="2.7116">
        <ele>1284</ele>
        <time>2024-01-30T17:17:52.000Z</time>
      </trkpt>
      <trkpt lat="45.13243" lon="2.71136">
        <ele>1285.1999511719</ele>
        <time>2024-01-30T17:17:53.000Z</time>
      </trkpt>
      <trkpt lat="45.13244" lon="2.7109">
        <ele>1287.5999755859</ele>
        <time>2024-01-30T17:17:55.000Z</time>
      </trkpt>
      <trkpt lat="45.13244" lon="2.71045">
        <ele>1289.4000244141</ele>
        <time>2024-01-30T17:17:57.000Z</time>
      </trkpt>
      <trkpt lat="45.13243" lon="2.71023">
        <ele>1290.5999755859</ele>
        <time>2024-01-30T17:17:58.000Z</time>
      </trkpt>
      <trkpt lat="45.13241" lon="2.71001">
        <ele>1291.8000488281</ele>
        <time>2024-01-30T17:17:59.000Z</time>
      </trkpt>
      <trkpt lat="45.13239" lon="2.70978">
        <ele>1292.8000488281</ele>
        <time>2024-01-30T17:18:00.000Z</time>
      </trkpt>
      <trkpt lat="45.13232" lon="2.70936">
        <ele>1294.4000244141</ele>
        <time>2024-01-30T17:18:02.000Z</time>
      </trkpt>
      <trkpt lat="45.13229" lon="2.70914">
        <ele>1295.5999755859</ele>
        <time>2024-01-30T17:18:03.000Z</time>
      </trkpt>
      <trkpt lat="45.13224" lon="2.70871">
        <ele>1297.1999511719</ele>
        <time>2024-01-30T17:18:05.000Z</time>
      </trkpt>
      <trkpt lat="45.13216" lon="2.70826">
        <ele>1299.4000244141</ele>
        <time>2024-01-30T17:18:07.000Z</time>
      </trkpt>
      <trkpt lat="45.13205" lon="2.7078">
        <ele>1301</ele>
        <time>2024-01-30T17:18:09.000Z</time>
      </trkpt>
      <trkpt lat="45.13199" lon="2.70756">
        <ele>1302</ele>
        <time>2024-01-30T17:18:10.000Z</time>
      </trkpt>
      <trkpt lat="45.13188" lon="2.70708">
        <ele>1303.8000488281</ele>
        <time>2024-01-30T17:18:12.000Z</time>
      </trkpt>
      <trkpt lat="45.13175" lon="2.70663">
        <ele>1305</ele>
        <time>2024-01-30T17:18:14.000Z</time>
      </trkpt>
      <trkpt lat="45.13162" lon="2.70617">
        <ele>1306.5999755859</ele>
        <time>2024-01-30T17:18:16.000Z</time>
      </trkpt>
      <trkpt lat="45.13154" lon="2.7059">
        <ele>1307.8000488281</ele>
        <time>2024-01-30T17:18:17.000Z</time>
      </trkpt>
      <trkpt lat="45.13142" lon="2.70549">
        <ele>1309.5999755859</ele>
        <time>2024-01-30T17:18:19.000Z</time>
      </trkpt>
      <trkpt lat="45.13135" lon="2.70527">
        <ele>1310.8000488281</ele>
        <time>2024-01-30T17:18:20.000Z</time>
      </trkpt>
      <trkpt lat="45.13129" lon="2.70505">
        <ele>1312.4000244141</ele>
        <time>2024-01-30T17:18:21.000Z</time>
      </trkpt>
      <trkpt lat="45.13122" lon="2.70483">
        <ele>1314</ele>
        <time>2024-01-30T17:18:22.000Z</time>
      </trkpt>
      <trkpt lat="45.13117" lon="2.70463">
        <ele>1315.4000244141</ele>
        <time>2024-01-30T17:18:23.000Z</time>
      </trkpt>
      <trkpt lat="45.13112" lon="2.70443">
        <ele>1317</ele>
        <time>2024-01-30T17:18:24.000Z</time>
      </trkpt>
      <trkpt lat="45.13106" lon="2.70424">
        <ele>1318.1999511719</ele>
        <time>2024-01-30T17:18:25.000Z</time>
      </trkpt>
      <trkpt lat="45.13099" lon="2.70407">
        <ele>1319.4000244141</ele>
        <time>2024-01-30T17:18:26.000Z</time>
      </trkpt>
      <trkpt lat="45.13091" lon="2.70392">
        <ele>1321</ele>
        <time>2024-01-30T17:18:27.000Z</time>
      </trkpt>
      <trkpt lat="45.13079" lon="2.70377">
        <ele>1321.8000488281</ele>
        <time>2024-01-30T17:18:28.000Z</time>
      </trkpt>
      <trkpt lat="45.1307" lon="2.70369">
        <ele>1323</ele>
        <time>2024-01-30T17:18:29.000Z</time>
      </trkpt>
      <trkpt lat="45.13061" lon="2.70357">
        <ele>1323.8000488281</ele>
        <time>2024-01-30T17:18:30.000Z</time>
      </trkpt>
      <trkpt lat="45.13051" lon="2.70344">
        <ele>1324.4000244141</ele>
        <time>2024-01-30T17:18:31.000Z</time>
      </trkpt>
      <trkpt lat="45.13042" lon="2.70322">
        <ele>1325.4000244141</ele>
        <time>2024-01-30T17:18:33.000Z</time>
      </trkpt>
      <trkpt lat="45.13038" lon="2.70299">
        <ele>1326.5999755859</ele>
        <time>2024-01-30T17:18:35.000Z</time>
      </trkpt>
      <trkpt lat="45.13038" lon="2.70289">
        <ele>1326.8000488281</ele>
        <time>2024-01-30T17:18:36.000Z</time>
      </trkpt>
      <trkpt lat="45.13037" lon="2.7028">
        <ele>1327.1999511719</ele>
        <time>2024-01-30T17:18:37.000Z</time>
      </trkpt>
      <trkpt lat="45.13036" lon="2.70269">
        <ele>1327.4000244141</ele>
        <time>2024-01-30T17:18:39.000Z</time>
      </trkpt>
      <trkpt lat="45.13032" lon="2.70265">
        <ele>1328</ele>
        <time>2024-01-30T17:18:41.000Z</time>
      </trkpt>
      <trkpt lat="45.1303" lon="2.70264">
        <ele>1328</ele>
        <time>2024-01-30T17:18:42.000Z</time>
      </trkpt>
      <trkpt lat="45.1303" lon="2.70262">
        <ele>1328.5999755859</ele>
        <time>2024-01-30T17:18:46.000Z</time>
      </trkpt>
      <trkpt lat="45.13028" lon="2.70261">
        <ele>1329</ele>
        <time>2024-01-30T17:18:52.000Z</time>
      </trkpt>
      <trkpt lat="45.13026" lon="2.7026">
        <ele>1329</ele>
        <time>2024-01-30T17:18:53.000Z</time>
      </trkpt>
      <trkpt lat="45.13013" lon="2.70252">
        <ele>1329.8000488281</ele>
        <time>2024-01-30T17:18:57.000Z</time>
      </trkpt>
      <trkpt lat="45.13008" lon="2.70249">
        <ele>1330.4000244141</ele>
        <time>2024-01-30T17:18:58.000Z</time>
      </trkpt>
      <trkpt lat="45.12992" lon="2.7024">
        <ele>1331</ele>
        <time>2024-01-30T17:19:01.000Z</time>
      </trkpt>
      <trkpt lat="45.12954" lon="2.70229">
        <ele>1331.1999511719</ele>
        <time>2024-01-30T17:19:07.000Z</time>
      </trkpt>
      <trkpt lat="45.12922" lon="2.70218">
        <ele>1330.8000488281</ele>
        <time>2024-01-30T17:19:12.000Z</time>
      </trkpt>
      <trkpt lat="45.12883" lon="2.70189">
        <ele>1330</ele>
        <time>2024-01-30T17:19:17.000Z</time>
      </trkpt>
      <trkpt lat="45.12864" lon="2.70179">
        <ele>1329.4000244141</ele>
        <time>2024-01-30T17:19:19.000Z</time>
      </trkpt>
      <trkpt lat="45.12853" lon="2.70177">
        <ele>1329.1999511719</ele>
        <time>2024-01-30T17:19:20.000Z</time>
      </trkpt>
      <trkpt lat="45.12841" lon="2.70175">
        <ele>1329</ele>
        <time>2024-01-30T17:19:21.000Z</time>
      </trkpt>
      <trkpt lat="45.12806" lon="2.70168">
        <ele>1328.1999511719</ele>
        <time>2024-01-30T17:19:24.000Z</time>
      </trkpt>
      <trkpt lat="45.12794" lon="2.70164">
        <ele>1327.5999755859</ele>
        <time>2024-01-30T17:19:25.000Z</time>
      </trkpt>
      <trkpt lat="45.12774" lon="2.7015">
        <ele>1327</ele>
        <time>2024-01-30T17:19:27.000Z</time>
      </trkpt>
      <trkpt lat="45.12765" lon="2.70141">
        <ele>1327</ele>
        <time>2024-01-30T17:19:28.000Z</time>
      </trkpt>
      <trkpt lat="45.1273" lon="2.701">
        <ele>1328.1999511719</ele>
        <time>2024-01-30T17:19:32.000Z</time>
      </trkpt>
      <trkpt lat="45.12713" lon="2.70076">
        <ele>1329.1999511719</ele>
        <time>2024-01-30T17:19:34.000Z</time>
      </trkpt>
      <trkpt lat="45.12702" lon="2.70061">
        <ele>1329.5999755859</ele>
        <time>2024-01-30T17:19:35.000Z</time>
      </trkpt>
      <trkpt lat="45.12687" lon="2.70037">
        <ele>1330.8000488281</ele>
        <time>2024-01-30T17:19:37.000Z</time>
      </trkpt>
      <trkpt lat="45.12671" lon="2.7001">
        <ele>1331.8000488281</ele>
        <time>2024-01-30T17:19:39.000Z</time>
      </trkpt>
      <trkpt lat="45.12656" lon="2.69978">
        <ele>1332.8000488281</ele>
        <time>2024-01-30T17:19:41.000Z</time>
      </trkpt>
      <trkpt lat="45.12629" lon="2.69931">
        <ele>1334.4000244141</ele>
        <time>2024-01-30T17:19:44.000Z</time>
      </trkpt>
      <trkpt lat="45.12609" lon="2.69899">
        <ele>1335.5999755859</ele>
        <time>2024-01-30T17:19:46.000Z</time>
      </trkpt>
      <trkpt lat="45.12589" lon="2.69868">
        <ele>1336.8000488281</ele>
        <time>2024-01-30T17:19:48.000Z</time>
      </trkpt>
      <trkpt lat="45.12559" lon="2.69826">
        <ele>1337.8000488281</ele>
        <time>2024-01-30T17:19:51.000Z</time>
      </trkpt>
      <trkpt lat="45.12546" lon="2.69814">
        <ele>1338.1999511719</ele>
        <time>2024-01-30T17:19:52.000Z</time>
      </trkpt>
      <trkpt lat="45.12534" lon="2.69803">
        <ele>1339</ele>
        <time>2024-01-30T17:19:53.000Z</time>
      </trkpt>
      <trkpt lat="45.12508" lon="2.6978">
        <ele>1340</ele>
        <time>2024-01-30T17:19:55.000Z</time>
      </trkpt>
      <trkpt lat="45.12482" lon="2.69759">
        <ele>1341.1999511719</ele>
        <time>2024-01-30T17:19:57.000Z</time>
      </trkpt>
      <trkpt lat="45.12454" lon="2.69745">
        <ele>1342.1999511719</ele>
        <time>2024-01-30T17:19:59.000Z</time>
      </trkpt>
      <trkpt lat="45.12422" lon="2.69737">
        <ele>1343.5999755859</ele>
        <time>2024-01-30T17:20:01.000Z</time>
      </trkpt>
      <trkpt lat="45.12388" lon="2.69729">
        <ele>1345</ele>
        <time>2024-01-30T17:20:03.000Z</time>
      </trkpt>
      <trkpt lat="45.12354" lon="2.69722">
        <ele>1346.4000244141</ele>
        <time>2024-01-30T17:20:05.000Z</time>
      </trkpt>
      <trkpt lat="45.12323" lon="2.69709">
        <ele>1347.1999511719</ele>
        <time>2024-01-30T17:20:07.000Z</time>
      </trkpt>
      <trkpt lat="45.12308" lon="2.69702">
        <ele>1347.5999755859</ele>
        <time>2024-01-30T17:20:08.000Z</time>
      </trkpt>
      <trkpt lat="45.12279" lon="2.69689">
        <ele>1348.5999755859</ele>
        <time>2024-01-30T17:20:10.000Z</time>
      </trkpt>
      <trkpt lat="45.12265" lon="2.69681">
        <ele>1349.1999511719</ele>
        <time>2024-01-30T17:20:11.000Z</time>
      </trkpt>
      <trkpt lat="45.12237" lon="2.69664">
        <ele>1350.5999755859</ele>
        <time>2024-01-30T17:20:13.000Z</time>
      </trkpt>
      <trkpt lat="45.12223" lon="2.69656">
        <ele>1351</ele>
        <time>2024-01-30T17:20:14.000Z</time>
      </trkpt>
      <trkpt lat="45.1221" lon="2.6965">
        <ele>1351.8000488281</ele>
        <time>2024-01-30T17:20:15.000Z</time>
      </trkpt>
      <trkpt lat="45.12196" lon="2.69643">
        <ele>1352</ele>
        <time>2024-01-30T17:20:16.000Z</time>
      </trkpt>
      <trkpt lat="45.12169" lon="2.69626">
        <ele>1353.1999511719</ele>
        <time>2024-01-30T17:20:18.000Z</time>
      </trkpt>
      <trkpt lat="45.12144" lon="2.69609">
        <ele>1354.1999511719</ele>
        <time>2024-01-30T17:20:20.000Z</time>
      </trkpt>
      <trkpt lat="45.12132" lon="2.696">
        <ele>1354.8000488281</ele>
        <time>2024-01-30T17:20:21.000Z</time>
      </trkpt>
      <trkpt lat="45.1211" lon="2.69581">
        <ele>1355</ele>
        <time>2024-01-30T17:20:23.000Z</time>
      </trkpt>
      <trkpt lat="45.121" lon="2.6957">
        <ele>1355.5999755859</ele>
        <time>2024-01-30T17:20:24.000Z</time>
      </trkpt>
      <trkpt lat="45.12091" lon="2.69557">
        <ele>1356</ele>
        <time>2024-01-30T17:20:25.000Z</time>
      </trkpt>
      <trkpt lat="45.12081" lon="2.69545">
        <ele>1356.8000488281</ele>
        <time>2024-01-30T17:20:26.000Z</time>
      </trkpt>
      <trkpt lat="45.12048" lon="2.69516">
        <ele>1358.1999511719</ele>
        <time>2024-01-30T17:20:29.000Z</time>
      </trkpt>
      <trkpt lat="45.12023" lon="2.69501">
        <ele>1359.1999511719</ele>
        <time>2024-01-30T17:20:31.000Z</time>
      </trkpt>
      <trkpt lat="45.12011" lon="2.69493">
        <ele>1359.8000488281</ele>
        <time>2024-01-30T17:20:32.000Z</time>
      </trkpt>
      <trkpt lat="45.12" lon="2.69482">
        <ele>1360.5999755859</ele>
        <time>2024-01-30T17:20:33.000Z</time>
      </trkpt>
      <trkpt lat="45.11989" lon="2.69471">
        <ele>1361</ele>
        <time>2024-01-30T17:20:34.000Z</time>
      </trkpt>
      <trkpt lat="45.11965" lon="2.69447">
        <ele>1362.1999511719</ele>
        <time>2024-01-30T17:20:36.000Z</time>
      </trkpt>
      <trkpt lat="45.11952" lon="2.69437">
        <ele>1362.8000488281</ele>
        <time>2024-01-30T17:20:37.000Z</time>
      </trkpt>
      <trkpt lat="45.11925" lon="2.69419">
        <ele>1363.4000244141</ele>
        <time>2024-01-30T17:20:39.000Z</time>
      </trkpt>
      <trkpt lat="45.11897" lon="2.69401">
        <ele>1364.8000488281</ele>
        <time>2024-01-30T17:20:41.000Z</time>
      </trkpt>
      <trkpt lat="45.1187" lon="2.69381">
        <ele>1365.8000488281</ele>
        <time>2024-01-30T17:20:43.000Z</time>
      </trkpt>
      <trkpt lat="45.11843" lon="2.69357">
        <ele>1367.1999511719</ele>
        <time>2024-01-30T17:20:45.000Z</time>
      </trkpt>
      <trkpt lat="45.11817" lon="2.69331">
        <ele>1368.4000244141</ele>
        <time>2024-01-30T17:20:47.000Z</time>
      </trkpt>
      <trkpt lat="45.11803" lon="2.69317">
        <ele>1368.8000488281</ele>
        <time>2024-01-30T17:20:48.000Z</time>
      </trkpt>
      <trkpt lat="45.11789" lon="2.69303">
        <ele>1370</ele>
        <time>2024-01-30T17:20:49.000Z</time>
      </trkpt>
      <trkpt lat="45.11761" lon="2.69276">
        <ele>1371</ele>
        <time>2024-01-30T17:20:51.000Z</time>
      </trkpt>
      <trkpt lat="45.11732" lon="2.69255">
        <ele>1372.1999511719</ele>
        <time>2024-01-30T17:20:53.000Z</time>
      </trkpt>
      <trkpt lat="45.11702" lon="2.69238">
        <ele>1373.8000488281</ele>
        <time>2024-01-30T17:20:55.000Z</time>
      </trkpt>
      <trkpt lat="45.11672" lon="2.69219">
        <ele>1375</ele>
        <time>2024-01-30T17:20:57.000Z</time>
      </trkpt>
      <trkpt lat="45.11658" lon="2.69209">
        <ele>1375.4000244141</ele>
        <time>2024-01-30T17:20:58.000Z</time>
      </trkpt>
      <trkpt lat="45.11633" lon="2.69186">
        <ele>1376.4000244141</ele>
        <time>2024-01-30T17:21:00.000Z</time>
      </trkpt>
      <trkpt lat="45.11621" lon="2.69172">
        <ele>1376.8000488281</ele>
        <time>2024-01-30T17:21:01.000Z</time>
      </trkpt>
      <trkpt lat="45.1161" lon="2.69157">
        <ele>1377.5999755859</ele>
        <time>2024-01-30T17:21:02.000Z</time>
      </trkpt>
      <trkpt lat="45.11589" lon="2.69126">
        <ele>1378.8000488281</ele>
        <time>2024-01-30T17:21:04.000Z</time>
      </trkpt>
      <trkpt lat="45.11578" lon="2.69111">
        <ele>1379.1999511719</ele>
        <time>2024-01-30T17:21:05.000Z</time>
      </trkpt>
      <trkpt lat="45.11553" lon="2.69084">
        <ele>1380.8000488281</ele>
        <time>2024-01-30T17:21:07.000Z</time>
      </trkpt>
      <trkpt lat="45.11526" lon="2.6906">
        <ele>1382</ele>
        <time>2024-01-30T17:21:09.000Z</time>
      </trkpt>
      <trkpt lat="45.11511" lon="2.6905">
        <ele>1383</ele>
        <time>2024-01-30T17:21:10.000Z</time>
      </trkpt>
      <trkpt lat="45.11481" lon="2.6903">
        <ele>1384.1999511719</ele>
        <time>2024-01-30T17:21:12.000Z</time>
      </trkpt>
      <trkpt lat="45.1145" lon="2.6901">
        <ele>1385.8000488281</ele>
        <time>2024-01-30T17:21:14.000Z</time>
      </trkpt>
      <trkpt lat="45.11422" lon="2.68989">
        <ele>1387.1999511719</ele>
        <time>2024-01-30T17:21:16.000Z</time>
      </trkpt>
      <trkpt lat="45.114" lon="2.6896">
        <ele>1388.5999755859</ele>
        <time>2024-01-30T17:21:18.000Z</time>
      </trkpt>
      <trkpt lat="45.11392" lon="2.68941">
        <ele>1389.5999755859</ele>
        <time>2024-01-30T17:21:19.000Z</time>
      </trkpt>
      <trkpt lat="45.11386" lon="2.68922">
        <ele>1390.4000244141</ele>
        <time>2024-01-30T17:21:20.000Z</time>
      </trkpt>
      <trkpt lat="45.11383" lon="2.68901">
        <ele>1391.5999755859</ele>
        <time>2024-01-30T17:21:21.000Z</time>
      </trkpt>
      <trkpt lat="45.11381" lon="2.68879">
        <ele>1393.1999511719</ele>
        <time>2024-01-30T17:21:22.000Z</time>
      </trkpt>
      <trkpt lat="45.1138" lon="2.68857">
        <ele>1394.1999511719</ele>
        <time>2024-01-30T17:21:23.000Z</time>
      </trkpt>
      <trkpt lat="45.11379" lon="2.68835">
        <ele>1395.5999755859</ele>
        <time>2024-01-30T17:21:24.000Z</time>
      </trkpt>
      <trkpt lat="45.11379" lon="2.68813">
        <ele>1396.8000488281</ele>
        <time>2024-01-30T17:21:25.000Z</time>
      </trkpt>
      <trkpt lat="45.11378" lon="2.68791">
        <ele>1398</ele>
        <time>2024-01-30T17:21:26.000Z</time>
      </trkpt>
      <trkpt lat="45.11378" lon="2.68769">
        <ele>1399.4000244141</ele>
        <time>2024-01-30T17:21:27.000Z</time>
      </trkpt>
      <trkpt lat="45.11376" lon="2.68728">
        <ele>1401</ele>
        <time>2024-01-30T17:21:29.000Z</time>
      </trkpt>
      <trkpt lat="45.1137" lon="2.68694">
        <ele>1402.4000244141</ele>
        <time>2024-01-30T17:21:31.000Z</time>
      </trkpt>
      <trkpt lat="45.11364" lon="2.68679">
        <ele>1403.8000488281</ele>
        <time>2024-01-30T17:21:32.000Z</time>
      </trkpt>
      <trkpt lat="45.11358" lon="2.68665">
        <ele>1404.4000244141</ele>
        <time>2024-01-30T17:21:33.000Z</time>
      </trkpt>
      <trkpt lat="45.11351" lon="2.68653">
        <ele>1405.1999511719</ele>
        <time>2024-01-30T17:21:34.000Z</time>
      </trkpt>
      <trkpt lat="45.11341" lon="2.68643">
        <ele>1405.8000488281</ele>
        <time>2024-01-30T17:21:35.000Z</time>
      </trkpt>
      <trkpt lat="45.1133" lon="2.68637">
        <ele>1406.8000488281</ele>
        <time>2024-01-30T17:21:36.000Z</time>
      </trkpt>
      <trkpt lat="45.11318" lon="2.68635">
        <ele>1407.8000488281</ele>
        <time>2024-01-30T17:21:37.000Z</time>
      </trkpt>
      <trkpt lat="45.11307" lon="2.68632">
        <ele>1408.5999755859</ele>
        <time>2024-01-30T17:21:38.000Z</time>
      </trkpt>
      <trkpt lat="45.11294" lon="2.68631">
        <ele>1409.8000488281</ele>
        <time>2024-01-30T17:21:39.000Z</time>
      </trkpt>
      <trkpt lat="45.11269" lon="2.68628">
        <ele>1411.5999755859</ele>
        <time>2024-01-30T17:21:41.000Z</time>
      </trkpt>
      <trkpt lat="45.11244" lon="2.68623">
        <ele>1413.1999511719</ele>
        <time>2024-01-30T17:21:43.000Z</time>
      </trkpt>
      <trkpt lat="45.11232" lon="2.68619">
        <ele>1414.4000244141</ele>
        <time>2024-01-30T17:21:44.000Z</time>
      </trkpt>
      <trkpt lat="45.11216" lon="2.68612">
        <ele>1415.4000244141</ele>
        <time>2024-01-30T17:21:46.000Z</time>
      </trkpt>
      <trkpt lat="45.11212" lon="2.6861">
        <ele>1415.5999755859</ele>
        <time>2024-01-30T17:21:47.000Z</time>
      </trkpt>
      <trkpt lat="45.1121" lon="2.6861">
        <ele>1415.5999755859</ele>
        <time>2024-01-30T17:21:48.000Z</time>
      </trkpt>
      <trkpt lat="45.11214" lon="2.68611">
        <ele>1416.4000244141</ele>
        <time>2024-01-30T17:21:51.000Z</time>
      </trkpt>
      <trkpt lat="45.11216" lon="2.68612">
        <ele>1416.4000244141</ele>
        <time>2024-01-30T17:21:52.000Z</time>
      </trkpt>
      <trkpt lat="45.11217" lon="2.68612">
        <ele>1416.1999511719</ele>
        <time>2024-01-30T17:21:57.000Z</time>
      </trkpt>
      <trkpt lat="45.11217" lon="2.68612">
        <ele>1416.1999511719</ele>
        <time>2024-01-30T17:22:07.000Z</time>
      </trkpt>
      <trkpt lat="45.11217" lon="2.68612">
        <ele>1416.1999511719</ele>
        <time>2024-01-30T17:22:18.000Z</time>
      </trkpt>
      <trkpt lat="45.11217" lon="2.68612">
        <ele>1416.4000244141</ele>
        <time>2024-01-30T17:22:29.000Z</time>
      </trkpt>
      <trkpt lat="45.11217" lon="2.68612">
        <ele>1416.4000244141</ele>
        <time>2024-01-30T17:22:44.000Z</time>
      </trkpt>
      <trkpt lat="45.11217" lon="2.68612">
        <ele>1416.4000244141</ele>
        <time>2024-01-30T17:22:56.000Z</time>
      </trkpt>
      <trkpt lat="45.11217" lon="2.68612">
        <ele>1416.4000244141</ele>
        <time>2024-01-30T17:23:02.000Z</time>
      </trkpt>
      <trkpt lat="45.11217" lon="2.68612">
        <ele>1416.4000244141</ele>
        <time>2024-01-30T17:23:20.000Z</time>
      </trkpt>
      <trkpt lat="45.11214" lon="2.68611">
        <ele>1416.4000244141</ele>
        <time>2024-01-30T17:23:26.000Z</time>
      </trkpt>
      <trkpt lat="45.11211" lon="2.68609">
        <ele>1416.4000244141</ele>
        <time>2024-01-30T17:23:27.000Z</time>
      </trkpt>
      <trkpt lat="45.11196" lon="2.686">
        <ele>1416.5999755859</ele>
        <time>2024-01-30T17:23:31.000Z</time>
      </trkpt>
      <trkpt lat="45.11187" lon="2.68596">
        <ele>1418</ele>
        <time>2024-01-30T17:23:33.000Z</time>
      </trkpt>
      <trkpt lat="45.11173" lon="2.68588">
        <ele>1419.4000244141</ele>
        <time>2024-01-30T17:23:35.000Z</time>
      </trkpt>
      <trkpt lat="45.11167" lon="2.68584">
        <ele>1420</ele>
        <time>2024-01-30T17:23:36.000Z</time>
      </trkpt>
      <trkpt lat="45.11159" lon="2.68579">
        <ele>1421</ele>
        <time>2024-01-30T17:23:37.000Z</time>
      </trkpt>
      <trkpt lat="45.11142" lon="2.68568">
        <ele>1422.5999755859</ele>
        <time>2024-01-30T17:23:39.000Z</time>
      </trkpt>
      <trkpt lat="45.11134" lon="2.68563">
        <ele>1424</ele>
        <time>2024-01-30T17:23:40.000Z</time>
      </trkpt>
      <trkpt lat="45.11127" lon="2.68559">
        <ele>1425</ele>
        <time>2024-01-30T17:23:41.000Z</time>
      </trkpt>
      <trkpt lat="45.11118" lon="2.68553">
        <ele>1426</ele>
        <time>2024-01-30T17:23:42.000Z</time>
      </trkpt>
      <trkpt lat="45.11109" lon="2.68545">
        <ele>1427.1999511719</ele>
        <time>2024-01-30T17:23:43.000Z</time>
      </trkpt>
      <trkpt lat="45.11103" lon="2.68539">
        <ele>1428.4000244141</ele>
        <time>2024-01-30T17:23:44.000Z</time>
      </trkpt>
      <trkpt lat="45.11095" lon="2.68531">
        <ele>1429.1999511719</ele>
        <time>2024-01-30T17:23:45.000Z</time>
      </trkpt>
      <trkpt lat="45.11089" lon="2.6852">
        <ele>1430.1999511719</ele>
        <time>2024-01-30T17:23:46.000Z</time>
      </trkpt>
      <trkpt lat="45.11085" lon="2.68511">
        <ele>1431</ele>
        <time>2024-01-30T17:23:47.000Z</time>
      </trkpt>
      <trkpt lat="45.11083" lon="2.68502">
        <ele>1431.5999755859</ele>
        <time>2024-01-30T17:23:48.000Z</time>
      </trkpt>
      <trkpt lat="45.11083" lon="2.68492">
        <ele>1432.5999755859</ele>
        <time>2024-01-30T17:23:49.000Z</time>
      </trkpt>
      <trkpt lat="45.11083" lon="2.68483">
        <ele>1433.5999755859</ele>
        <time>2024-01-30T17:23:50.000Z</time>
      </trkpt>
      <trkpt lat="45.1108" lon="2.68468">
        <ele>1434.4000244141</ele>
        <time>2024-01-30T17:23:52.000Z</time>
      </trkpt>
      <trkpt lat="45.11078" lon="2.68462">
        <ele>1435.1999511719</ele>
        <time>2024-01-30T17:23:53.000Z</time>
      </trkpt>
      <trkpt lat="45.11074" lon="2.68456">
        <ele>1435.8000488281</ele>
        <time>2024-01-30T17:23:54.000Z</time>
      </trkpt>
      <trkpt lat="45.11069" lon="2.68452">
        <ele>1436.5999755859</ele>
        <time>2024-01-30T17:23:55.000Z</time>
      </trkpt>
      <trkpt lat="45.11056" lon="2.68441">
        <ele>1438.4000244141</ele>
        <time>2024-01-30T17:23:57.000Z</time>
      </trkpt>
      <trkpt lat="45.11049" lon="2.68435">
        <ele>1439.4000244141</ele>
        <time>2024-01-30T17:23:58.000Z</time>
      </trkpt>
      <trkpt lat="45.11036" lon="2.68422">
        <ele>1441.4000244141</ele>
        <time>2024-01-30T17:24:00.000Z</time>
      </trkpt>
      <trkpt lat="45.11022" lon="2.68406">
        <ele>1443.1999511719</ele>
        <time>2024-01-30T17:24:02.000Z</time>
      </trkpt>
      <trkpt lat="45.11015" lon="2.68398">
        <ele>1444.4000244141</ele>
        <time>2024-01-30T17:24:03.000Z</time>
      </trkpt>
      <trkpt lat="45.10998" lon="2.68381">
        <ele>1446.8000488281</ele>
        <time>2024-01-30T17:24:05.000Z</time>
      </trkpt>
      <trkpt lat="45.10989" lon="2.68372">
        <ele>1448</ele>
        <time>2024-01-30T17:24:06.000Z</time>
      </trkpt>
      <trkpt lat="45.10981" lon="2.68362">
        <ele>1449.1999511719</ele>
        <time>2024-01-30T17:24:07.000Z</time>
      </trkpt>
      <trkpt lat="45.10972" lon="2.68353">
        <ele>1450.8000488281</ele>
        <time>2024-01-30T17:24:08.000Z</time>
      </trkpt>
      <trkpt lat="45.10964" lon="2.68344">
        <ele>1452</ele>
        <time>2024-01-30T17:24:09.000Z</time>
      </trkpt>
      <trkpt lat="45.10956" lon="2.68336">
        <ele>1453.5999755859</ele>
        <time>2024-01-30T17:24:10.000Z</time>
      </trkpt>
      <trkpt lat="45.1094" lon="2.68324">
        <ele>1455.5999755859</ele>
        <time>2024-01-30T17:24:12.000Z</time>
      </trkpt>
      <trkpt lat="45.10926" lon="2.68314">
        <ele>1457.4000244141</ele>
        <time>2024-01-30T17:24:14.000Z</time>
      </trkpt>
      <trkpt lat="45.10915" lon="2.68307">
        <ele>1458.4000244141</ele>
        <time>2024-01-30T17:24:16.000Z</time>
      </trkpt>
      <trkpt lat="45.10911" lon="2.68303">
        <ele>1459.1999511719</ele>
        <time>2024-01-30T17:24:17.000Z</time>
      </trkpt>
      <trkpt lat="45.10909" lon="2.68298">
        <ele>1459.4000244141</ele>
        <time>2024-01-30T17:24:18.000Z</time>
      </trkpt>
      <trkpt lat="45.1091" lon="2.68294">
        <ele>1459.8000488281</ele>
        <time>2024-01-30T17:24:19.000Z</time>
      </trkpt>
      <trkpt lat="45.10911" lon="2.68291">
        <ele>1460.4000244141</ele>
        <time>2024-01-30T17:24:20.000Z</time>
      </trkpt>
      <trkpt lat="45.10914" lon="2.68288">
        <ele>1461</ele>
        <time>2024-01-30T17:24:21.000Z</time>
      </trkpt>
      <trkpt lat="45.10918" lon="2.68288">
        <ele>1461.4000244141</ele>
        <time>2024-01-30T17:24:22.000Z</time>
      </trkpt>
      <trkpt lat="45.10922" lon="2.68291">
        <ele>1461.8000488281</ele>
        <time>2024-01-30T17:24:23.000Z</time>
      </trkpt>
      <trkpt lat="45.1094" lon="2.68303">
        <ele>1462.8000488281</ele>
        <time>2024-01-30T17:24:26.000Z</time>
      </trkpt>
      <trkpt lat="45.10948" lon="2.68307">
        <ele>1463.1999511719</ele>
        <time>2024-01-30T17:24:27.000Z</time>
      </trkpt>
      <trkpt lat="45.10956" lon="2.68311">
        <ele>1464.1999511719</ele>
        <time>2024-01-30T17:24:28.000Z</time>
      </trkpt>
      <trkpt lat="45.10964" lon="2.68315">
        <ele>1465.4000244141</ele>
        <time>2024-01-30T17:24:29.000Z</time>
      </trkpt>
      <trkpt lat="45.10973" lon="2.68319">
        <ele>1466</ele>
        <time>2024-01-30T17:24:30.000Z</time>
      </trkpt>
      <trkpt lat="45.10982" lon="2.68323">
        <ele>1466.8000488281</ele>
        <time>2024-01-30T17:24:31.000Z</time>
      </trkpt>
      <trkpt lat="45.10992" lon="2.68327">
        <ele>1467.8000488281</ele>
        <time>2024-01-30T17:24:32.000Z</time>
      </trkpt>
      <trkpt lat="45.11001" lon="2.68332">
        <ele>1468.8000488281</ele>
        <time>2024-01-30T17:24:33.000Z</time>
      </trkpt>
      <trkpt lat="45.11009" lon="2.68339">
        <ele>1470</ele>
        <time>2024-01-30T17:24:34.000Z</time>
      </trkpt>
      <trkpt lat="45.11017" lon="2.68346">
        <ele>1471</ele>
        <time>2024-01-30T17:24:35.000Z</time>
      </trkpt>
      <trkpt lat="45.11025" lon="2.68353">
        <ele>1472</ele>
        <time>2024-01-30T17:24:36.000Z</time>
      </trkpt>
      <trkpt lat="45.11033" lon="2.6836">
        <ele>1473.4000244141</ele>
        <time>2024-01-30T17:24:37.000Z</time>
      </trkpt>
      <trkpt lat="45.11041" lon="2.68366">
        <ele>1474.8000488281</ele>
        <time>2024-01-30T17:24:38.000Z</time>
      </trkpt>
      <trkpt lat="45.1105" lon="2.6837">
        <ele>1475.4000244141</ele>
        <time>2024-01-30T17:24:39.000Z</time>
      </trkpt>
      <trkpt lat="45.11059" lon="2.68373">
        <ele>1476.5999755859</ele>
        <time>2024-01-30T17:24:40.000Z</time>
      </trkpt>
      <trkpt lat="45.11068" lon="2.68377">
        <ele>1478</ele>
        <time>2024-01-30T17:24:41.000Z</time>
      </trkpt>
      <trkpt lat="45.11076" lon="2.68378">
        <ele>1478.5999755859</ele>
        <time>2024-01-30T17:24:42.000Z</time>
      </trkpt>
      <trkpt lat="45.11083" lon="2.68378">
        <ele>1479.4000244141</ele>
        <time>2024-01-30T17:24:43.000Z</time>
      </trkpt>
      <trkpt lat="45.1109" lon="2.68379">
        <ele>1480.1999511719</ele>
        <time>2024-01-30T17:24:44.000Z</time>
      </trkpt>
      <trkpt lat="45.11097" lon="2.68377">
        <ele>1481.1999511719</ele>
        <time>2024-01-30T17:24:45.000Z</time>
      </trkpt>
      <trkpt lat="45.1111" lon="2.68373">
        <ele>1482.4000244141</ele>
        <time>2024-01-30T17:24:47.000Z</time>
      </trkpt>
      <trkpt lat="45.11116" lon="2.6837">
        <ele>1483.1999511719</ele>
        <time>2024-01-30T17:24:48.000Z</time>
      </trkpt>
      <trkpt lat="45.11121" lon="2.68366">
        <ele>1483.8000488281</ele>
        <time>2024-01-30T17:24:49.000Z</time>
      </trkpt>
      <trkpt lat="45.11126" lon="2.68362">
        <ele>1484.5999755859</ele>
        <time>2024-01-30T17:24:50.000Z</time>
      </trkpt>
      <trkpt lat="45.11131" lon="2.68356">
        <ele>1485.4000244141</ele>
        <time>2024-01-30T17:24:51.000Z</time>
      </trkpt>
      <trkpt lat="45.11135" lon="2.68349">
        <ele>1485.8000488281</ele>
        <time>2024-01-30T17:24:52.000Z</time>
      </trkpt>
      <trkpt lat="45.11138" lon="2.6834">
        <ele>1486.4000244141</ele>
        <time>2024-01-30T17:24:53.000Z</time>
      </trkpt>
      <trkpt lat="45.11144" lon="2.68322">
        <ele>1488</ele>
        <time>2024-01-30T17:24:55.000Z</time>
      </trkpt>
      <trkpt lat="45.11149" lon="2.68303">
        <ele>1489.5999755859</ele>
        <time>2024-01-30T17:24:57.000Z</time>
      </trkpt>
      <trkpt lat="45.11152" lon="2.68285">
        <ele>1491.1999511719</ele>
        <time>2024-01-30T17:24:59.000Z</time>
      </trkpt>
      <trkpt lat="45.11153" lon="2.68276">
        <ele>1492</ele>
        <time>2024-01-30T17:25:00.000Z</time>
      </trkpt>
      <trkpt lat="45.11154" lon="2.68267">
        <ele>1492.5999755859</ele>
        <time>2024-01-30T17:25:01.000Z</time>
      </trkpt>
      <trkpt lat="45.11153" lon="2.68259">
        <ele>1493.1999511719</ele>
        <time>2024-01-30T17:25:02.000Z</time>
      </trkpt>
      <trkpt lat="45.11152" lon="2.68251">
        <ele>1493.8000488281</ele>
        <time>2024-01-30T17:25:03.000Z</time>
      </trkpt>
      <trkpt lat="45.1115" lon="2.68242">
        <ele>1494.8000488281</ele>
        <time>2024-01-30T17:25:04.000Z</time>
      </trkpt>
      <trkpt lat="45.11148" lon="2.68234">
        <ele>1495.4000244141</ele>
        <time>2024-01-30T17:25:05.000Z</time>
      </trkpt>
      <trkpt lat="45.11145" lon="2.68219">
        <ele>1496.8000488281</ele>
        <time>2024-01-30T17:25:07.000Z</time>
      </trkpt>
      <trkpt lat="45.11145" lon="2.68213">
        <ele>1497.4000244141</ele>
        <time>2024-01-30T17:25:08.000Z</time>
      </trkpt>
      <trkpt lat="45.11146" lon="2.68207">
        <ele>1497.8000488281</ele>
        <time>2024-01-30T17:25:09.000Z</time>
      </trkpt>
      <trkpt lat="45.11155" lon="2.68198">
        <ele>1498.5999755859</ele>
        <time>2024-01-30T17:25:11.000Z</time>
      </trkpt>
      <trkpt lat="45.11162" lon="2.68195">
        <ele>1499</ele>
        <time>2024-01-30T17:25:12.000Z</time>
      </trkpt>
      <trkpt lat="45.11168" lon="2.68193">
        <ele>1499.4000244141</ele>
        <time>2024-01-30T17:25:13.000Z</time>
      </trkpt>
      <trkpt lat="45.11175" lon="2.6819">
        <ele>1500.4000244141</ele>
        <time>2024-01-30T17:25:14.000Z</time>
      </trkpt>
      <trkpt lat="45.11181" lon="2.68188">
        <ele>1500.5999755859</ele>
        <time>2024-01-30T17:25:15.000Z</time>
      </trkpt>
      <trkpt lat="45.11187" lon="2.68184">
        <ele>1501.4000244141</ele>
        <time>2024-01-30T17:25:16.000Z</time>
      </trkpt>
      <trkpt lat="45.11192" lon="2.6818">
        <ele>1502.1999511719</ele>
        <time>2024-01-30T17:25:17.000Z</time>
      </trkpt>
      <trkpt lat="45.11195" lon="2.68173">
        <ele>1502.5999755859</ele>
        <time>2024-01-30T17:25:18.000Z</time>
      </trkpt>
      <trkpt lat="45.11196" lon="2.68165">
        <ele>1503.1999511719</ele>
        <time>2024-01-30T17:25:19.000Z</time>
      </trkpt>
      <trkpt lat="45.11196" lon="2.68145">
        <ele>1504.4000244141</ele>
        <time>2024-01-30T17:25:21.000Z</time>
      </trkpt>
      <trkpt lat="45.11196" lon="2.68135">
        <ele>1505.1999511719</ele>
        <time>2024-01-30T17:25:22.000Z</time>
      </trkpt>
      <trkpt lat="45.11195" lon="2.68125">
        <ele>1505.8000488281</ele>
        <time>2024-01-30T17:25:23.000Z</time>
      </trkpt>
      <trkpt lat="45.11192" lon="2.68106">
        <ele>1507.4000244141</ele>
        <time>2024-01-30T17:25:25.000Z</time>
      </trkpt>
      <trkpt lat="45.11192" lon="2.68097">
        <ele>1508.1999511719</ele>
        <time>2024-01-30T17:25:26.000Z</time>
      </trkpt>
      <trkpt lat="45.11193" lon="2.68089">
        <ele>1509</ele>
        <time>2024-01-30T17:25:27.000Z</time>
      </trkpt>
      <trkpt lat="45.11194" lon="2.68081">
        <ele>1509.4000244141</ele>
        <time>2024-01-30T17:25:28.000Z</time>
      </trkpt>
      <trkpt lat="45.11201" lon="2.68064">
        <ele>1510.4000244141</ele>
        <time>2024-01-30T17:25:30.000Z</time>
      </trkpt>
      <trkpt lat="45.11209" lon="2.68047">
        <ele>1511.8000488281</ele>
        <time>2024-01-30T17:25:32.000Z</time>
      </trkpt>
      <trkpt lat="45.11213" lon="2.68039">
        <ele>1512.8000488281</ele>
        <time>2024-01-30T17:25:33.000Z</time>
      </trkpt>
      <trkpt lat="45.11216" lon="2.6803">
        <ele>1513.5999755859</ele>
        <time>2024-01-30T17:25:34.000Z</time>
      </trkpt>
      <trkpt lat="45.11218" lon="2.68021">
        <ele>1514.4000244141</ele>
        <time>2024-01-30T17:25:35.000Z</time>
      </trkpt>
      <trkpt lat="45.11219" lon="2.68012">
        <ele>1514.8000488281</ele>
        <time>2024-01-30T17:25:36.000Z</time>
      </trkpt>
      <trkpt lat="45.11219" lon="2.68002">
        <ele>1515.8000488281</ele>
        <time>2024-01-30T17:25:37.000Z</time>
      </trkpt>
      <trkpt lat="45.11216" lon="2.67983">
        <ele>1517.1999511719</ele>
        <time>2024-01-30T17:25:39.000Z</time>
      </trkpt>
      <trkpt lat="45.11215" lon="2.67962">
        <ele>1518.5999755859</ele>
        <time>2024-01-30T17:25:41.000Z</time>
      </trkpt>
      <trkpt lat="45.11214" lon="2.67953">
        <ele>1519.1999511719</ele>
        <time>2024-01-30T17:25:42.000Z</time>
      </trkpt>
      <trkpt lat="45.11211" lon="2.67944">
        <ele>1520</ele>
        <time>2024-01-30T17:25:43.000Z</time>
      </trkpt>
      <trkpt lat="45.11208" lon="2.67936">
        <ele>1520.8000488281</ele>
        <time>2024-01-30T17:25:44.000Z</time>
      </trkpt>
      <trkpt lat="45.11204" lon="2.67929">
        <ele>1521.5999755859</ele>
        <time>2024-01-30T17:25:45.000Z</time>
      </trkpt>
      <trkpt lat="45.11195" lon="2.67914">
        <ele>1523</ele>
        <time>2024-01-30T17:25:47.000Z</time>
      </trkpt>
      <trkpt lat="45.11191" lon="2.67906">
        <ele>1523.8000488281</ele>
        <time>2024-01-30T17:25:48.000Z</time>
      </trkpt>
      <trkpt lat="45.11187" lon="2.67898">
        <ele>1524.4000244141</ele>
        <time>2024-01-30T17:25:49.000Z</time>
      </trkpt>
      <trkpt lat="45.11184" lon="2.67889">
        <ele>1525.1999511719</ele>
        <time>2024-01-30T17:25:50.000Z</time>
      </trkpt>
      <trkpt lat="45.11181" lon="2.6788">
        <ele>1526</ele>
        <time>2024-01-30T17:25:51.000Z</time>
      </trkpt>
      <trkpt lat="45.11178" lon="2.67861">
        <ele>1527</ele>
        <time>2024-01-30T17:25:53.000Z</time>
      </trkpt>
      <trkpt lat="45.11177" lon="2.6785">
        <ele>1528.4000244141</ele>
        <time>2024-01-30T17:25:54.000Z</time>
      </trkpt>
      <trkpt lat="45.11177" lon="2.67839">
        <ele>1529.1999511719</ele>
        <time>2024-01-30T17:25:55.000Z</time>
      </trkpt>
      <trkpt lat="45.11176" lon="2.67828">
        <ele>1530.1999511719</ele>
        <time>2024-01-30T17:25:56.000Z</time>
      </trkpt>
      <trkpt lat="45.11177" lon="2.67816">
        <ele>1531.1999511719</ele>
        <time>2024-01-30T17:25:57.000Z</time>
      </trkpt>
      <trkpt lat="45.11178" lon="2.67791">
        <ele>1533.1999511719</ele>
        <time>2024-01-30T17:25:59.000Z</time>
      </trkpt>
      <trkpt lat="45.11179" lon="2.67779">
        <ele>1534.4000244141</ele>
        <time>2024-01-30T17:26:00.000Z</time>
      </trkpt>
      <trkpt lat="45.11181" lon="2.67756">
        <ele>1536.1999511719</ele>
        <time>2024-01-30T17:26:02.000Z</time>
      </trkpt>
      <trkpt lat="45.11182" lon="2.67735">
        <ele>1538</ele>
        <time>2024-01-30T17:26:04.000Z</time>
      </trkpt>
      <trkpt lat="45.11182" lon="2.67717">
        <ele>1539.1999511719</ele>
        <time>2024-01-30T17:26:06.000Z</time>
      </trkpt>
      <trkpt lat="45.11183" lon="2.67701">
        <ele>1540.8000488281</ele>
        <time>2024-01-30T17:26:08.000Z</time>
      </trkpt>
      <trkpt lat="45.11185" lon="2.67682">
        <ele>1541.8000488281</ele>
        <time>2024-01-30T17:26:10.000Z</time>
      </trkpt>
      <trkpt lat="45.11189" lon="2.67664">
        <ele>1543.4000244141</ele>
        <time>2024-01-30T17:26:12.000Z</time>
      </trkpt>
      <trkpt lat="45.11196" lon="2.67644">
        <ele>1544.8000488281</ele>
        <time>2024-01-30T17:26:14.000Z</time>
      </trkpt>
      <trkpt lat="45.11204" lon="2.67624">
        <ele>1546.8000488281</ele>
        <time>2024-01-30T17:26:16.000Z</time>
      </trkpt>
      <trkpt lat="45.11208" lon="2.67615">
        <ele>1547.1999511719</ele>
        <time>2024-01-30T17:26:17.000Z</time>
      </trkpt>
      <trkpt lat="45.11222" lon="2.6759">
        <ele>1558.1</ele>
      </trkpt>
      <trkpt lat="45.11233" lon="2.67569">
        <ele>1559</ele>
      </trkpt>
      <trkpt lat="45.11241" lon="2.6755">
        <ele>1561</ele>
      </trkpt>
      <trkpt lat="45.11249" lon="2.67525">
        <ele>1562.8</ele>
      </trkpt>
      <trkpt lat="45.11257" lon="2.67495">
        <ele>1564.5</ele>
      </trkpt>
      <trkpt lat="45.11272" lon="2.67449">
        <ele>1568.2</ele>
      </trkpt>
      <trkpt lat="45.11286" lon="2.67406">
        <ele>1572.4</ele>
      </trkpt>
      <trkpt lat="45.11305" lon="2.67368">
        <ele>1576.1</ele>
      </trkpt>
      <trkpt lat="45.11316" lon="2.67337">
        <ele>1579.2</ele>
      </trkpt>
      <trkpt lat="45.11326" lon="2.67311">
        <ele>1581.4</ele>
      </trkpt>
      <trkpt lat="45.11342" lon="2.67275">
        <ele>1580.8</ele>
      </trkpt>
      <trkpt lat="45.1137" lon="2.67236">
        <ele>1585.6</ele>
      </trkpt>
      <trkpt lat="45.1139" lon="2.67216">
        <ele>1585.8</ele>
      </trkpt>
      <trkpt lat="45.11405" lon="2.67197">
        <ele>1587.4</ele>
      </trkpt>
      <trkpt lat="45.11412" lon="2.67187">
        <ele>1587.6</ele>
      </trkpt>
      <trkpt lat="45.11413" lon="2.67179">
        <ele>1587.7</ele>
      </trkpt>
      <trkpt lat="45.11462" lon="2.67137">
        <ele>1585.3</ele>
      </trkpt>
      <trkpt lat="45.1153" lon="2.67062">
        <ele>1572.9</ele>
      </trkpt>
      <trkpt lat="45.11578" lon="2.66964">
        <ele>1558</ele>
      </trkpt>
      <trkpt lat="45.1159" lon="2.66933">
        <ele>1557.2</ele>
      </trkpt>
      <trkpt lat="45.11606" lon="2.66888">
        <ele>1550.3</ele>
      </trkpt>
      <trkpt lat="45.11622" lon="2.66843">
        <ele>1547.2</ele>
      </trkpt>
      <trkpt lat="45.11634" lon="2.66795">
        <ele>1540.9</ele>
      </trkpt>
      <trkpt lat="45.11646" lon="2.66717">
        <ele>1534.2</ele>
      </trkpt>
      <trkpt lat="45.11656" lon="2.66678">
        <ele>1529.4</ele>
      </trkpt>
      <trkpt lat="45.11664" lon="2.66656">
        <ele>1526.7</ele>
      </trkpt>
      <trkpt lat="45.11685" lon="2.66621">
        <ele>1521.4</ele>
      </trkpt>
      <trkpt lat="45.11713" lon="2.66599">
        <ele>1515.8</ele>
      </trkpt>
      <trkpt lat="45.11736" lon="2.66596">
        <ele>1512.1</ele>
      </trkpt>
      <trkpt lat="45.11755" lon="2.66602">
        <ele>1510.1</ele>
      </trkpt>
      <trkpt lat="45.11767" lon="2.66611">
        <ele>1509.8</ele>
      </trkpt>
      <trkpt lat="45.11779" lon="2.66618">
        <ele>1508.6</ele>
      </trkpt>
      <trkpt lat="45.11792" lon="2.66622">
        <ele>1507.3</ele>
      </trkpt>
      <trkpt lat="45.11805" lon="2.66624">
        <ele>1505.6</ele>
      </trkpt>
      <trkpt lat="45.11815" lon="2.66625">
        <ele>1503.7</ele>
      </trkpt>
      <trkpt lat="45.11841" lon="2.66623">
        <ele>1497.7</ele>
      </trkpt>
      <trkpt lat="45.11856" lon="2.66621">
        <ele>1494.6</ele>
      </trkpt>
      <trkpt lat="45.11871" lon="2.6662">
        <ele>1493</ele>
      </trkpt>
      <trkpt lat="45.11889" lon="2.66619">
        <ele>1491.2</ele>
      </trkpt>
      <trkpt lat="45.11905" lon="2.66617">
        <ele>1488.9</ele>
      </trkpt>
      <trkpt lat="45.11916" lon="2.66617">
        <ele>1487.5</ele>
      </trkpt>
      <trkpt lat="45.11923" lon="2.66616">
        <ele>1486.9</ele>
      </trkpt>
      <trkpt lat="45.11931" lon="2.66619">
        <ele>1488</ele>
      </trkpt>
      <trkpt lat="45.11938" lon="2.66619">
        <ele>1487.3</ele>
      </trkpt>
      <trkpt lat="45.11942" lon="2.66616">
        <ele>1485.4</ele>
      </trkpt>
      <trkpt lat="45.11943" lon="2.66611">
        <ele>1483.1</ele>
      </trkpt>
      <trkpt lat="45.11943" lon="2.66603">
        <ele>1479.7</ele>
      </trkpt>
      <trkpt lat="45.1194" lon="2.66597">
        <ele>1477.3</ele>
      </trkpt>
      <trkpt lat="45.11928" lon="2.66593">
        <ele>1475.6</ele>
      </trkpt>
      <trkpt lat="45.11918" lon="2.66591">
        <ele>1474.7</ele>
      </trkpt>
      <trkpt lat="45.11893" lon="2.66585">
        <ele>1473.5</ele>
      </trkpt>
      <trkpt lat="45.11876" lon="2.66577">
        <ele>1472.4</ele>
      </trkpt>
      <trkpt lat="45.11848" lon="2.66562">
        <ele>1469.8</ele>
      </trkpt>
      <trkpt lat="45.11824" lon="2.66544">
        <ele>1466.2</ele>
      </trkpt>
      <trkpt lat="45.11805" lon="2.66526">
        <ele>1461.6</ele>
      </trkpt>
      <trkpt lat="45.11782" lon="2.66503">
        <ele>1458.3</ele>
      </trkpt>
      <trkpt lat="45.11767" lon="2.66485">
        <ele>1454.7</ele>
      </trkpt>
      <trkpt lat="45.11752" lon="2.66473">
        <ele>1452.7</ele>
      </trkpt>
      <trkpt lat="45.11738" lon="2.66462">
        <ele>1450.6</ele>
      </trkpt>
      <trkpt lat="45.1173" lon="2.66458">
        <ele>1449.9</ele>
      </trkpt>
      <trkpt lat="45.11712" lon="2.66438">
        <ele>1445.7</ele>
      </trkpt>
      <trkpt lat="45.11697" lon="2.6642">
        <ele>1443.4</ele>
      </trkpt>
      <trkpt lat="45.11681" lon="2.66406">
        <ele>1440.3</ele>
      </trkpt>
      <trkpt lat="45.11666" lon="2.66398">
        <ele>1438.7</ele>
      </trkpt>
      <trkpt lat="45.11653" lon="2.66396">
        <ele>1436.7</ele>
      </trkpt>
      <trkpt lat="45.11641" lon="2.664">
        <ele>1435.7</ele>
      </trkpt>
      <trkpt lat="45.11627" lon="2.66407">
        <ele>1433</ele>
      </trkpt>
      <trkpt lat="45.11613" lon="2.66418">
        <ele>1431.8</ele>
      </trkpt>
      <trkpt lat="45.11588" lon="2.66434">
        <ele>1427</ele>
      </trkpt>
      <trkpt lat="45.1155" lon="2.66456">
        <ele>1421.4</ele>
      </trkpt>
      <trkpt lat="45.11518" lon="2.66473">
        <ele>1417.1</ele>
      </trkpt>
      <trkpt lat="45.11496" lon="2.66486">
        <ele>1413.3</ele>
      </trkpt>
      <trkpt lat="45.11488" lon="2.66488">
        <ele>1412</ele>
      </trkpt>
      <trkpt lat="45.11464" lon="2.66499">
        <ele>1408.5</ele>
      </trkpt>
      <trkpt lat="45.11451" lon="2.66506">
        <ele>1406.9</ele>
      </trkpt>
      <trkpt lat="45.11436" lon="2.66518">
        <ele>1403.6</ele>
      </trkpt>
      <trkpt lat="45.11419" lon="2.66533">
        <ele>1401.4</ele>
      </trkpt>
      <trkpt lat="45.11378" lon="2.66569">
        <ele>1393.3</ele>
      </trkpt>
      <trkpt lat="45.1136" lon="2.66585">
        <ele>1393.2</ele>
      </trkpt>
      <trkpt lat="45.11333" lon="2.66608">
        <ele>1390.3</ele>
      </trkpt>
      <trkpt lat="45.11319" lon="2.66617">
        <ele>1388.3</ele>
      </trkpt>
      <trkpt lat="45.11304" lon="2.66622">
        <ele>1383.3</ele>
      </trkpt>
      <trkpt lat="45.11281" lon="2.66632">
        <ele>1379.1</ele>
      </trkpt>
      <trkpt lat="45.11257" lon="2.66642">
        <ele>1377</ele>
      </trkpt>
      <trkpt lat="45.11226" lon="2.66655">
        <ele>1373.2</ele>
      </trkpt>
      <trkpt lat="45.11205" lon="2.66662">
        <ele>1366.6</ele>
      </trkpt>
      <trkpt lat="45.11188" lon="2.66671">
        <ele>1363.3</ele>
      </trkpt>
      <trkpt lat="45.11159" lon="2.66681">
        <ele>1361.4</ele>
      </trkpt>
      <trkpt lat="45.11139" lon="2.66686">
        <ele>1359</ele>
      </trkpt>
      <trkpt lat="45.11117" lon="2.66693">
        <ele>1352.1</ele>
      </trkpt>
      <trkpt lat="45.11093" lon="2.66698">
        <ele>1347.5</ele>
      </trkpt>
      <trkpt lat="45.11078" lon="2.667">
        <ele>1345.5</ele>
      </trkpt>
      <trkpt lat="45.11045" lon="2.66705">
        <ele>1342.9</ele>
      </trkpt>
      <trkpt lat="45.11013" lon="2.66717">
        <ele>1338</ele>
      </trkpt>
      <trkpt lat="45.10998" lon="2.66718">
        <ele>1333.6</ele>
      </trkpt>
      <trkpt lat="45.10985" lon="2.66704">
        <ele>1331</ele>
      </trkpt>
      <trkpt lat="45.10965" lon="2.66686">
        <ele>1329</ele>
      </trkpt>
      <trkpt lat="45.10947" lon="2.66676">
        <ele>1324.4</ele>
      </trkpt>
      <trkpt lat="45.10928" lon="2.66651">
        <ele>1322.1</ele>
      </trkpt>
      <trkpt lat="45.10894" lon="2.66588">
        <ele>1319.6</ele>
      </trkpt>
      <trkpt lat="45.10852" lon="2.66502">
        <ele>1313.6</ele>
      </trkpt>
      <trkpt lat="45.10843" lon="2.66481">
        <ele>1313.6</ele>
      </trkpt>
      <trkpt lat="45.10842" lon="2.66466">
        <ele>1313.2</ele>
      </trkpt>
      <trkpt lat="45.10847" lon="2.66443">
        <ele>1313</ele>
      </trkpt>
      <trkpt lat="45.10859" lon="2.66407">
        <ele>1310.8</ele>
      </trkpt>
      <trkpt lat="45.10878" lon="2.66363">
        <ele>1308.4</ele>
      </trkpt>
      <trkpt lat="45.10889" lon="2.66334">
        <ele>1306.9</ele>
      </trkpt>
      <trkpt lat="45.10926" lon="2.66282">
        <ele>1303.7</ele>
      </trkpt>
      <trkpt lat="45.11008" lon="2.66179">
        <ele>1298</ele>
      </trkpt>
      <trkpt lat="45.11019" lon="2.66156">
        <ele>1296.9</ele>
      </trkpt>
      <trkpt lat="45.11023" lon="2.66118">
        <ele>1296.5</ele>
      </trkpt>
      <trkpt lat="45.11024" lon="2.66073">
        <ele>1294.2</ele>
      </trkpt>
      <trkpt lat="45.11026" lon="2.66031">
        <ele>1293.1</ele>
      </trkpt>
      <trkpt lat="45.11021" lon="2.65958">
        <ele>1291.3</ele>
      </trkpt>
      <trkpt lat="45.11021" lon="2.65886">
        <ele>1286</ele>
      </trkpt>
      <trkpt lat="45.11026" lon="2.65786">
        <ele>1280.8</ele>
      </trkpt>
      <trkpt lat="45.11021" lon="2.65702">
        <ele>1278.4</ele>
      </trkpt>
      <trkpt lat="45.11022" lon="2.65654">
        <ele>1274.9</ele>
      </trkpt>
      <trkpt lat="45.11028" lon="2.65578">
        <ele>1272.9</ele>
      </trkpt>
      <trkpt lat="45.11041" lon="2.65513">
        <ele>1268.5</ele>
      </trkpt>
      <trkpt lat="45.11044" lon="2.65474">
        <ele>1265.6</ele>
      </trkpt>
      <trkpt lat="45.11051" lon="2.65445">
        <ele>1268.6</ele>
      </trkpt>
      <trkpt lat="45.11058" lon="2.65422">
        <ele>1264.5</ele>
      </trkpt>
      <trkpt lat="45.11061" lon="2.65377">
        <ele>1262.8</ele>
      </trkpt>
      <trkpt lat="45.11067" lon="2.65335">
        <ele>1259.7</ele>
      </trkpt>
      <trkpt lat="45.1107" lon="2.65321">
        <ele>1262.5</ele>
      </trkpt>
      <trkpt lat="45.11101" lon="2.65297">
        <ele>1258.6</ele>
      </trkpt>
      <trkpt lat="45.11112" lon="2.65275">
        <ele>1258.9</ele>
      </trkpt>
      <trkpt lat="45.11132" lon="2.65224">
        <ele>1256.8</ele>
      </trkpt>
      <trkpt lat="45.1115" lon="2.65186">
        <ele>1254.6</ele>
      </trkpt>
      <trkpt lat="45.11165" lon="2.65152">
        <ele>1253.3</ele>
      </trkpt>
      <trkpt lat="45.11168" lon="2.65128">
        <ele>1253.1</ele>
      </trkpt>
      <trkpt lat="45.11173" lon="2.65107">
        <ele>1252.5</ele>
      </trkpt>
      <trkpt lat="45.11197" lon="2.6506">
        <ele>1250.3</ele>
      </trkpt>
      <trkpt lat="45.11225" lon="2.65024">
        <ele>1248.4</ele>
      </trkpt>
      <trkpt lat="45.1125" lon="2.65001">
        <ele>1246.8</ele>
      </trkpt>
      <trkpt lat="45.11261" lon="2.64979">
        <ele>1246.7</ele>
      </trkpt>
      <trkpt lat="45.11283" lon="2.64976">
        <ele>1244.6</ele>
      </trkpt>
      <trkpt lat="45.11307" lon="2.64962">
        <ele>1242.4</ele>
      </trkpt>
      <trkpt lat="45.1134" lon="2.64937">
        <ele>1241.6</ele>
      </trkpt>
      <trkpt lat="45.11385" lon="2.64908">
        <ele>1238.1</ele>
      </trkpt>
      <trkpt lat="45.11404" lon="2.64906">
        <ele>1235.4</ele>
      </trkpt>
      <trkpt lat="45.11432" lon="2.64891">
        <ele>1234.4</ele>
      </trkpt>
      <trkpt lat="45.11457" lon="2.64874">
        <ele>1232.9</ele>
      </trkpt>
      <trkpt lat="45.11486" lon="2.6486">
        <ele>1231.9</ele>
      </trkpt>
      <trkpt lat="45.11526" lon="2.64837">
        <ele>1230.2</ele>
      </trkpt>
      <trkpt lat="45.11564" lon="2.64811">
        <ele>1228.5</ele>
      </trkpt>
      <trkpt lat="45.1163" lon="2.64768">
        <ele>1222.8</ele>
      </trkpt>
      <trkpt lat="45.11697" lon="2.64737">
        <ele>1217.9</ele>
      </trkpt>
      <trkpt lat="45.11734" lon="2.64705">
        <ele>1217.8</ele>
      </trkpt>
      <trkpt lat="45.11757" lon="2.6469">
        <ele>1215.6</ele>
      </trkpt>
      <trkpt lat="45.11795" lon="2.64692">
        <ele>1204.9</ele>
      </trkpt>
      <trkpt lat="45.11853" lon="2.64648">
        <ele>1206.5</ele>
      </trkpt>
      <trkpt lat="45.11906" lon="2.64627">
        <ele>1199.8</ele>
      </trkpt>
      <trkpt lat="45.11934" lon="2.64592">
        <ele>1198.7</ele>
      </trkpt>
      <trkpt lat="45.11958" lon="2.64555">
        <ele>1198.9</ele>
      </trkpt>
      <trkpt lat="45.12077" lon="2.64475">
        <ele>1189.4</ele>
      </trkpt>
      <trkpt lat="45.1214" lon="2.64436">
        <ele>1186.3</ele>
      </trkpt>
      <trkpt lat="45.12188" lon="2.64404">
        <ele>1184.4</ele>
      </trkpt>
      <trkpt lat="45.12245" lon="2.64362">
        <ele>1180.4</ele>
      </trkpt>
      <trkpt lat="45.12283" lon="2.6432">
        <ele>1180.1</ele>
      </trkpt>
      <trkpt lat="45.12322" lon="2.64289">
        <ele>1177.1</ele>
      </trkpt>
      <trkpt lat="45.1238" lon="2.64251">
        <ele>1169.9</ele>
      </trkpt>
      <trkpt lat="45.12488" lon="2.64191">
        <ele>1159.5</ele>
      </trkpt>
      <trkpt lat="45.12535" lon="2.64165">
        <ele>1158.4</ele>
      </trkpt>
      <trkpt lat="45.12583" lon="2.64135">
        <ele>1158.5</ele>
      </trkpt>
      <trkpt lat="45.12648" lon="2.64107">
        <ele>1158.6</ele>
      </trkpt>
      <trkpt lat="45.12709" lon="2.64109">
        <ele>1152.8</ele>
      </trkpt>
      <trkpt lat="45.12769" lon="2.64091">
        <ele>1146.1</ele>
      </trkpt>
      <trkpt lat="45.12779" lon="2.64097">
        <ele>1150</ele>
        <time>2024-01-31T07:46:23.000Z</time>
      </trkpt>
      <trkpt lat="45.12779" lon="2.64098">
        <ele>1150</ele>
        <time>2024-01-31T07:46:27.000Z</time>
        <extensions>
          <gpxtpx:TrackPointExtension xmlns:gpxtpx="http://www.garmin.com/xmlschemas/TrackPointExtension/v1">
            <gpxtpx:hr>74</gpxtpx:hr>
          </gpxtpx:TrackPointExtension>
        </extensions>
      </trkpt>
      <trkpt lat="45.12779" lon="2.64098">
        <ele>1152.5999755859</ele>
        <time>2024-01-31T07:46:33.000Z</time>
      </trkpt>
      <trkpt lat="45.12779" lon="2.64098">
        <ele>1153.8000488281</ele>
        <time>2024-01-31T07:46:38.000Z</time>
      </trkpt>
      <trkpt lat="45.1278" lon="2.64098">
        <ele>1154.8000488281</ele>
        <time>2024-01-31T07:46:44.000Z</time>
      </trkpt>
      <trkpt lat="45.1278" lon="2.64097">
        <ele>1155.8000488281</ele>
        <time>2024-01-31T07:46:50.000Z</time>
      </trkpt>
      <trkpt lat="45.12781" lon="2.64097">
        <ele>1157</ele>
        <time>2024-01-31T07:46:58.000Z</time>
      </trkpt>
      <trkpt lat="45.12781" lon="2.64096">
        <ele>1158</ele>
        <time>2024-01-31T07:47:08.000Z</time>
      </trkpt>
      <trkpt lat="45.12782" lon="2.64096">
        <ele>1159</ele>
        <time>2024-01-31T07:47:20.000Z</time>
      </trkpt>
      <trkpt lat="45.12782" lon="2.64102">
        <ele>1160</ele>
        <time>2024-01-31T07:48:17.000Z</time>
      </trkpt>
      <trkpt lat="45.12784" lon="2.64101">
        <ele>1160.4000244141</ele>
        <time>2024-01-31T07:48:50.000Z</time>
      </trkpt>
      <trkpt lat="45.12789" lon="2.64098">
        <ele>1160.5999755859</ele>
        <time>2024-01-31T07:48:52.000Z</time>
      </trkpt>
      <trkpt lat="45.1281" lon="2.64083">
        <ele>1159.8000488281</ele>
        <time>2024-01-31T07:48:57.000Z</time>
      </trkpt>
      <trkpt lat="45.12837" lon="2.6407">
        <ele>1158.5999755859</ele>
        <time>2024-01-31T07:49:01.000Z</time>
      </trkpt>
      <trkpt lat="45.12852" lon="2.64064">
        <ele>1157</ele>
        <time>2024-01-31T07:49:03.000Z</time>
      </trkpt>
      <trkpt lat="45.12859" lon="2.64062">
        <ele>1156.5999755859</ele>
        <time>2024-01-31T07:49:04.000Z</time>
      </trkpt>
      <trkpt lat="45.12867" lon="2.64061">
        <ele>1156</ele>
        <time>2024-01-31T07:49:05.000Z</time>
      </trkpt>
      <trkpt lat="45.12891" lon="2.64059">
        <ele>1154.1999511719</ele>
        <time>2024-01-31T07:49:08.000Z</time>
      </trkpt>
      <trkpt lat="45.12908" lon="2.64057">
        <ele>1153.1999511719</ele>
        <time>2024-01-31T07:49:10.000Z</time>
      </trkpt>
      <trkpt lat="45.12916" lon="2.64056">
        <ele>1152.8000488281</ele>
        <time>2024-01-31T07:49:11.000Z</time>
      </trkpt>
      <trkpt lat="45.12931" lon="2.64053">
        <ele>1151.4000244141</ele>
        <time>2024-01-31T07:49:13.000Z</time>
      </trkpt>
      <trkpt lat="45.12936" lon="2.64053">
        <ele>1150.1999511719</ele>
        <time>2024-01-31T07:49:14.000Z</time>
      </trkpt>
      <trkpt lat="45.12941" lon="2.64056">
        <ele>1149.4000244141</ele>
        <time>2024-01-31T07:49:15.000Z</time>
      </trkpt>
      <trkpt lat="45.12944" lon="2.6406">
        <ele>1149</ele>
        <time>2024-01-31T07:49:16.000Z</time>
      </trkpt>
      <trkpt lat="45.12946" lon="2.64072">
        <ele>1148.1999511719</ele>
        <time>2024-01-31T07:49:18.000Z</time>
      </trkpt>
      <trkpt lat="45.12944" lon="2.64077">
        <ele>1147.5999755859</ele>
        <time>2024-01-31T07:49:19.000Z</time>
      </trkpt>
      <trkpt lat="45.12941" lon="2.64082">
        <ele>1147.1999511719</ele>
        <time>2024-01-31T07:49:20.000Z</time>
      </trkpt>
      <trkpt lat="45.12936" lon="2.64087">
        <ele>1146.8000488281</ele>
        <time>2024-01-31T07:49:21.000Z</time>
      </trkpt>
      <trkpt lat="45.1293" lon="2.64092">
        <ele>1146.5999755859</ele>
        <time>2024-01-31T07:49:22.000Z</time>
      </trkpt>
      <trkpt lat="45.12916" lon="2.64102">
        <ele>1145.8000488281</ele>
        <time>2024-01-31T07:49:24.000Z</time>
      </trkpt>
      <trkpt lat="45.12907" lon="2.64108">
        <ele>1145.4000244141</ele>
        <time>2024-01-31T07:49:25.000Z</time>
      </trkpt>
      <trkpt lat="45.129" lon="2.64112">
        <ele>1144.5999755859</ele>
        <time>2024-01-31T07:49:26.000Z</time>
      </trkpt>
      <trkpt lat="45.12892" lon="2.64117">
        <ele>1143.5999755859</ele>
        <time>2024-01-31T07:49:27.000Z</time>
      </trkpt>
      <trkpt lat="45.12884" lon="2.64121">
        <ele>1143.1999511719</ele>
        <time>2024-01-31T07:49:28.000Z</time>
      </trkpt>
      <trkpt lat="45.12874" lon="2.64123">
        <ele>1142.4000244141</ele>
        <time>2024-01-31T07:49:29.000Z</time>
      </trkpt>
      <trkpt lat="45.12856" lon="2.64126">
        <ele>1141</ele>
        <time>2024-01-31T07:49:31.000Z</time>
      </trkpt>
      <trkpt lat="45.12845" lon="2.6413">
        <ele>1140</ele>
        <time>2024-01-31T07:49:32.000Z</time>
      </trkpt>
      <trkpt lat="45.12835" lon="2.64137">
        <ele>1139.4000244141</ele>
        <time>2024-01-31T07:49:33.000Z</time>
      </trkpt>
      <trkpt lat="45.12826" lon="2.64145">
        <ele>1138</ele>
        <time>2024-01-31T07:49:34.000Z</time>
      </trkpt>
      <trkpt lat="45.12817" lon="2.64155">
        <ele>1137.4000244141</ele>
        <time>2024-01-31T07:49:35.000Z</time>
      </trkpt>
      <trkpt lat="45.12808" lon="2.64166">
        <ele>1136.1999511719</ele>
        <time>2024-01-31T07:49:36.000Z</time>
      </trkpt>
      <trkpt lat="45.12801" lon="2.64179">
        <ele>1135.1999511719</ele>
        <time>2024-01-31T07:49:37.000Z</time>
      </trkpt>
      <trkpt lat="45.12794" lon="2.64192">
        <ele>1133.8000488281</ele>
        <time>2024-01-31T07:49:38.000Z</time>
      </trkpt>
      <trkpt lat="45.1278" lon="2.64218">
        <ele>1132.4000244141</ele>
        <time>2024-01-31T07:49:40.000Z</time>
      </trkpt>
      <trkpt lat="45.12773" lon="2.64231">
        <ele>1131.4000244141</ele>
        <time>2024-01-31T07:49:41.000Z</time>
      </trkpt>
      <trkpt lat="45.12765" lon="2.64241">
        <ele>1130.1999511719</ele>
        <time>2024-01-31T07:49:42.000Z</time>
      </trkpt>
      <trkpt lat="45.12754" lon="2.64251">
        <ele>1129.1999511719</ele>
        <time>2024-01-31T07:49:43.000Z</time>
      </trkpt>
      <trkpt lat="45.12745" lon="2.64258">
        <ele>1128</ele>
        <time>2024-01-31T07:49:44.000Z</time>
      </trkpt>
      <trkpt lat="45.12729" lon="2.64272">
        <ele>1126.5999755859</ele>
        <time>2024-01-31T07:49:46.000Z</time>
      </trkpt>
      <trkpt lat="45.12722" lon="2.64278">
        <ele>1125.5999755859</ele>
        <time>2024-01-31T07:49:47.000Z</time>
      </trkpt>
      <trkpt lat="45.12717" lon="2.64285">
        <ele>1124.4000244141</ele>
        <time>2024-01-31T07:49:48.000Z</time>
      </trkpt>
      <trkpt lat="45.12714" lon="2.64293">
        <ele>1123.4000244141</ele>
        <time>2024-01-31T07:49:49.000Z</time>
      </trkpt>
      <trkpt lat="45.12714" lon="2.64312">
        <ele>1122.5999755859</ele>
        <time>2024-01-31T07:49:51.000Z</time>
      </trkpt>
      <trkpt lat="45.12716" lon="2.64319">
        <ele>1122.1999511719</ele>
        <time>2024-01-31T07:49:52.000Z</time>
      </trkpt>
      <trkpt lat="45.12718" lon="2.64325">
        <ele>1122</ele>
        <time>2024-01-31T07:49:53.000Z</time>
      </trkpt>
      <trkpt lat="45.12724" lon="2.64338">
        <ele>1121.4000244141</ele>
        <time>2024-01-31T07:49:55.000Z</time>
      </trkpt>
      <trkpt lat="45.12728" lon="2.64344">
        <ele>1121.1999511719</ele>
        <time>2024-01-31T07:49:56.000Z</time>
      </trkpt>
      <trkpt lat="45.12732" lon="2.6435">
        <ele>1121.1999511719</ele>
        <time>2024-01-31T07:49:57.000Z</time>
      </trkpt>
      <trkpt lat="45.12738" lon="2.64354">
        <ele>1121</ele>
        <time>2024-01-31T07:49:58.000Z</time>
      </trkpt>
      <trkpt lat="45.12742" lon="2.64357">
        <ele>1120.5999755859</ele>
        <time>2024-01-31T07:49:59.000Z</time>
      </trkpt>
      <trkpt lat="45.12747" lon="2.64361">
        <ele>1120.4000244141</ele>
        <time>2024-01-31T07:50:00.000Z</time>
      </trkpt>
      <trkpt lat="45.12762" lon="2.64365">
        <ele>1119.8000488281</ele>
        <time>2024-01-31T07:50:02.000Z</time>
      </trkpt>
      <trkpt lat="45.1277" lon="2.64365">
        <ele>1119.4000244141</ele>
        <time>2024-01-31T07:50:03.000Z</time>
      </trkpt>
      <trkpt lat="45.12784" lon="2.64365">
        <ele>1118.8000488281</ele>
        <time>2024-01-31T07:50:05.000Z</time>
      </trkpt>
      <trkpt lat="45.12791" lon="2.64364">
        <ele>1118.4000244141</ele>
        <time>2024-01-31T07:50:06.000Z</time>
      </trkpt>
      <trkpt lat="45.12807" lon="2.64362">
        <ele>1118</ele>
        <time>2024-01-31T07:50:08.000Z</time>
      </trkpt>
      <trkpt lat="45.12813" lon="2.64363">
        <ele>1117.8000488281</ele>
        <time>2024-01-31T07:50:09.000Z</time>
      </trkpt>
      <trkpt lat="45.1282" lon="2.64364">
        <ele>1117.4000244141</ele>
        <time>2024-01-31T07:50:10.000Z</time>
      </trkpt>
      <trkpt lat="45.12828" lon="2.64368">
        <ele>1117.1999511719</ele>
        <time>2024-01-31T07:50:11.000Z</time>
      </trkpt>
      <trkpt lat="45.12836" lon="2.64372">
        <ele>1116.1999511719</ele>
        <time>2024-01-31T07:50:12.000Z</time>
      </trkpt>
      <trkpt lat="45.12846" lon="2.64376">
        <ele>1115.5999755859</ele>
        <time>2024-01-31T07:50:13.000Z</time>
      </trkpt>
      <trkpt lat="45.12854" lon="2.64379">
        <ele>1115</ele>
        <time>2024-01-31T07:50:14.000Z</time>
      </trkpt>
      <trkpt lat="45.12864" lon="2.64381">
        <ele>1114.1999511719</ele>
        <time>2024-01-31T07:50:15.000Z</time>
      </trkpt>
      <trkpt lat="45.12874" lon="2.64382">
        <ele>1113.1999511719</ele>
        <time>2024-01-31T07:50:16.000Z</time>
      </trkpt>
      <trkpt lat="45.12884" lon="2.64381">
        <ele>1112.1999511719</ele>
        <time>2024-01-31T07:50:17.000Z</time>
      </trkpt>
      <trkpt lat="45.12905" lon="2.64377">
        <ele>1110.5999755859</ele>
        <time>2024-01-31T07:50:19.000Z</time>
      </trkpt>
      <trkpt lat="45.12916" lon="2.64375">
        <ele>1109.4000244141</ele>
        <time>2024-01-31T07:50:20.000Z</time>
      </trkpt>
      <trkpt lat="45.12938" lon="2.64371">
        <ele>1107.1999511719</ele>
        <time>2024-01-31T07:50:22.000Z</time>
      </trkpt>
      <trkpt lat="45.1295" lon="2.64368">
        <ele>1106.5999755859</ele>
        <time>2024-01-31T07:50:23.000Z</time>
      </trkpt>
      <trkpt lat="45.12961" lon="2.64364">
        <ele>1105.1999511719</ele>
        <time>2024-01-31T07:50:24.000Z</time>
      </trkpt>
      <trkpt lat="45.12971" lon="2.64363">
        <ele>1104.5999755859</ele>
        <time>2024-01-31T07:50:25.000Z</time>
      </trkpt>
      <trkpt lat="45.1298" lon="2.64363">
        <ele>1103.5999755859</ele>
        <time>2024-01-31T07:50:26.000Z</time>
      </trkpt>
      <trkpt lat="45.1299" lon="2.64365">
        <ele>1102.1999511719</ele>
        <time>2024-01-31T07:50:27.000Z</time>
      </trkpt>
      <trkpt lat="45.13009" lon="2.64375">
        <ele>1100.1999511719</ele>
        <time>2024-01-31T07:50:29.000Z</time>
      </trkpt>
      <trkpt lat="45.13025" lon="2.64387">
        <ele>1098.5999755859</ele>
        <time>2024-01-31T07:50:31.000Z</time>
      </trkpt>
      <trkpt lat="45.1303" lon="2.64394">
        <ele>1097.5999755859</ele>
        <time>2024-01-31T07:50:32.000Z</time>
      </trkpt>
      <trkpt lat="45.13034" lon="2.64402">
        <ele>1096.5999755859</ele>
        <time>2024-01-31T07:50:33.000Z</time>
      </trkpt>
      <trkpt lat="45.13037" lon="2.64411">
        <ele>1095.8000488281</ele>
        <time>2024-01-31T07:50:34.000Z</time>
      </trkpt>
      <trkpt lat="45.13038" lon="2.6442">
        <ele>1095.4000244141</ele>
        <time>2024-01-31T07:50:35.000Z</time>
      </trkpt>
      <trkpt lat="45.13039" lon="2.6444">
        <ele>1094.4000244141</ele>
        <time>2024-01-31T07:50:37.000Z</time>
      </trkpt>
      <trkpt lat="45.13039" lon="2.64451">
        <ele>1094</ele>
        <time>2024-01-31T07:50:38.000Z</time>
      </trkpt>
      <trkpt lat="45.13037" lon="2.64461">
        <ele>1093.4000244141</ele>
        <time>2024-01-31T07:50:39.000Z</time>
      </trkpt>
      <trkpt lat="45.13035" lon="2.64473">
        <ele>1092.5999755859</ele>
        <time>2024-01-31T07:50:40.000Z</time>
      </trkpt>
      <trkpt lat="45.13032" lon="2.64484">
        <ele>1092</ele>
        <time>2024-01-31T07:50:41.000Z</time>
      </trkpt>
      <trkpt lat="45.13028" lon="2.64496">
        <ele>1091.1999511719</ele>
        <time>2024-01-31T07:50:42.000Z</time>
      </trkpt>
      <trkpt lat="45.13024" lon="2.64509">
        <ele>1090.4000244141</ele>
        <time>2024-01-31T07:50:43.000Z</time>
      </trkpt>
      <trkpt lat="45.1302" lon="2.64522">
        <ele>1090</ele>
        <time>2024-01-31T07:50:44.000Z</time>
      </trkpt>
      <trkpt lat="45.13017" lon="2.64536">
        <ele>1089.1999511719</ele>
        <time>2024-01-31T07:50:45.000Z</time>
      </trkpt>
      <trkpt lat="45.13016" lon="2.64551">
        <ele>1088.5999755859</ele>
        <time>2024-01-31T07:50:46.000Z</time>
      </trkpt>
      <trkpt lat="45.13016" lon="2.64582">
        <ele>1087.1999511719</ele>
        <time>2024-01-31T07:50:48.000Z</time>
      </trkpt>
      <trkpt lat="45.13016" lon="2.64597">
        <ele>1086.4000244141</ele>
        <time>2024-01-31T07:50:49.000Z</time>
      </trkpt>
      <trkpt lat="45.13016" lon="2.64614">
        <ele>1085.5999755859</ele>
        <time>2024-01-31T07:50:50.000Z</time>
      </trkpt>
      <trkpt lat="45.13013" lon="2.64646">
        <ele>1084.1999511719</ele>
        <time>2024-01-31T07:50:52.000Z</time>
      </trkpt>
      <trkpt lat="45.13011" lon="2.64663">
        <ele>1084</ele>
        <time>2024-01-31T07:50:53.000Z</time>
      </trkpt>
      <trkpt lat="45.13008" lon="2.64696">
        <ele>1082.5999755859</ele>
        <time>2024-01-31T07:50:55.000Z</time>
      </trkpt>
      <trkpt lat="45.13008" lon="2.64714">
        <ele>1082</ele>
        <time>2024-01-31T07:50:56.000Z</time>
      </trkpt>
      <trkpt lat="45.13008" lon="2.64734">
        <ele>1081.5999755859</ele>
        <time>2024-01-31T07:50:57.000Z</time>
      </trkpt>
      <trkpt lat="45.13009" lon="2.64754">
        <ele>1080.8000488281</ele>
        <time>2024-01-31T07:50:58.000Z</time>
      </trkpt>
      <trkpt lat="45.13012" lon="2.64796">
        <ele>1078.8000488281</ele>
        <time>2024-01-31T07:51:00.000Z</time>
      </trkpt>
      <trkpt lat="45.13013" lon="2.64816">
        <ele>1078.1999511719</ele>
        <time>2024-01-31T07:51:01.000Z</time>
      </trkpt>
      <trkpt lat="45.13014" lon="2.64837">
        <ele>1077.1999511719</ele>
        <time>2024-01-31T07:51:02.000Z</time>
      </trkpt>
      <trkpt lat="45.13016" lon="2.64859">
        <ele>1076.1999511719</ele>
        <time>2024-01-31T07:51:03.000Z</time>
      </trkpt>
      <trkpt lat="45.13021" lon="2.649">
        <ele>1074.4000244141</ele>
        <time>2024-01-31T07:51:05.000Z</time>
      </trkpt>
      <trkpt lat="45.13023" lon="2.6492">
        <ele>1073.5999755859</ele>
        <time>2024-01-31T07:51:06.000Z</time>
      </trkpt>
      <trkpt lat="45.13026" lon="2.64937">
        <ele>1072.5999755859</ele>
        <time>2024-01-31T07:51:07.000Z</time>
      </trkpt>
      <trkpt lat="45.13028" lon="2.64954">
        <ele>1071.4000244141</ele>
        <time>2024-01-31T07:51:08.000Z</time>
      </trkpt>
      <trkpt lat="45.13031" lon="2.6497">
        <ele>1070</ele>
        <time>2024-01-31T07:51:09.000Z</time>
      </trkpt>
      <trkpt lat="45.13042" lon="2.65">
        <ele>1068.1999511719</ele>
        <time>2024-01-31T07:51:11.000Z</time>
      </trkpt>
      <trkpt lat="45.13045" lon="2.65013">
        <ele>1067.5999755859</ele>
        <time>2024-01-31T07:51:12.000Z</time>
      </trkpt>
      <trkpt lat="45.13051" lon="2.65028">
        <ele>1066.4000244141</ele>
        <time>2024-01-31T07:51:13.000Z</time>
      </trkpt>
      <trkpt lat="45.13053" lon="2.65041">
        <ele>1065.5999755859</ele>
        <time>2024-01-31T07:51:14.000Z</time>
      </trkpt>
      <trkpt lat="45.13053" lon="2.65053">
        <ele>1064.5999755859</ele>
        <time>2024-01-31T07:51:15.000Z</time>
      </trkpt>
      <trkpt lat="45.13051" lon="2.65066">
        <ele>1064</ele>
        <time>2024-01-31T07:51:16.000Z</time>
      </trkpt>
      <trkpt lat="45.13049" lon="2.6508">
        <ele>1063.5999755859</ele>
        <time>2024-01-31T07:51:17.000Z</time>
      </trkpt>
      <trkpt lat="45.13046" lon="2.65093">
        <ele>1063</ele>
        <time>2024-01-31T07:51:18.000Z</time>
      </trkpt>
      <trkpt lat="45.13042" lon="2.65106">
        <ele>1062.5999755859</ele>
        <time>2024-01-31T07:51:19.000Z</time>
      </trkpt>
      <trkpt lat="45.1304" lon="2.65121">
        <ele>1062.1999511719</ele>
        <time>2024-01-31T07:51:20.000Z</time>
      </trkpt>
      <trkpt lat="45.13036" lon="2.65147">
        <ele>1060.8000488281</ele>
        <time>2024-01-31T07:51:22.000Z</time>
      </trkpt>
      <trkpt lat="45.13035" lon="2.65159">
        <ele>1060</ele>
        <time>2024-01-31T07:51:23.000Z</time>
      </trkpt>
      <trkpt lat="45.13035" lon="2.65171">
        <ele>1059.1999511719</ele>
        <time>2024-01-31T07:51:24.000Z</time>
      </trkpt>
      <trkpt lat="45.13037" lon="2.65181">
        <ele>1058.4000244141</ele>
        <time>2024-01-31T07:51:25.000Z</time>
      </trkpt>
      <trkpt lat="45.13039" lon="2.65191">
        <ele>1058</ele>
        <time>2024-01-31T07:51:26.000Z</time>
      </trkpt>
      <trkpt lat="45.13043" lon="2.652">
        <ele>1057.8000488281</ele>
        <time>2024-01-31T07:51:27.000Z</time>
      </trkpt>
      <trkpt lat="45.13057" lon="2.65229">
        <ele>1057.4000244141</ele>
        <time>2024-01-31T07:51:30.000Z</time>
      </trkpt>
      <trkpt lat="45.1307" lon="2.65249">
        <ele>1057</ele>
        <time>2024-01-31T07:51:32.000Z</time>
      </trkpt>
      <trkpt lat="45.13076" lon="2.65254">
        <ele>1056.8000488281</ele>
        <time>2024-01-31T07:51:33.000Z</time>
      </trkpt>
      <trkpt lat="45.13101" lon="2.65273">
        <ele>1056</ele>
        <time>2024-01-31T07:51:36.000Z</time>
      </trkpt>
      <trkpt lat="45.13111" lon="2.65278">
        <ele>1055.5999755859</ele>
        <time>2024-01-31T07:51:37.000Z</time>
      </trkpt>
      <trkpt lat="45.13147" lon="2.65288">
        <ele>1054.4000244141</ele>
        <time>2024-01-31T07:51:40.000Z</time>
      </trkpt>
      <trkpt lat="45.13173" lon="2.65288">
        <ele>1052.5999755859</ele>
        <time>2024-01-31T07:51:42.000Z</time>
      </trkpt>
      <trkpt lat="45.13187" lon="2.65286">
        <ele>1051.5999755859</ele>
        <time>2024-01-31T07:51:43.000Z</time>
      </trkpt>
      <trkpt lat="45.13204" lon="2.65282">
        <ele>1050.8000488281</ele>
        <time>2024-01-31T07:51:44.000Z</time>
      </trkpt>
      <trkpt lat="45.13229" lon="2.65276">
        <ele>1049.1999511719</ele>
        <time>2024-01-31T07:51:46.000Z</time>
      </trkpt>
      <trkpt lat="45.13243" lon="2.65272">
        <ele>1047.8000488281</ele>
        <time>2024-01-31T07:51:47.000Z</time>
      </trkpt>
      <trkpt lat="45.13258" lon="2.65268">
        <ele>1047.1999511719</ele>
        <time>2024-01-31T07:51:48.000Z</time>
      </trkpt>
      <trkpt lat="45.13272" lon="2.65262">
        <ele>1046.5999755859</ele>
        <time>2024-01-31T07:51:49.000Z</time>
      </trkpt>
      <trkpt lat="45.13304" lon="2.65242">
        <ele>1044.8000488281</ele>
        <time>2024-01-31T07:51:51.000Z</time>
      </trkpt>
      <trkpt lat="45.13329" lon="2.65222">
        <ele>1043</ele>
        <time>2024-01-31T07:51:53.000Z</time>
      </trkpt>
      <trkpt lat="45.13358" lon="2.65199">
        <ele>1041.1999511719</ele>
        <time>2024-01-31T07:51:55.000Z</time>
      </trkpt>
      <trkpt lat="45.13386" lon="2.65184">
        <ele>1039.1999511719</ele>
        <time>2024-01-31T07:51:57.000Z</time>
      </trkpt>
      <trkpt lat="45.134" lon="2.65178">
        <ele>1037.8000488281</ele>
        <time>2024-01-31T07:51:58.000Z</time>
      </trkpt>
      <trkpt lat="45.1341" lon="2.65172">
        <ele>1036.5999755859</ele>
        <time>2024-01-31T07:51:59.000Z</time>
      </trkpt>
      <trkpt lat="45.13423" lon="2.65164">
        <ele>1035.8000488281</ele>
        <time>2024-01-31T07:52:00.000Z</time>
      </trkpt>
      <trkpt lat="45.13434" lon="2.65155">
        <ele>1035</ele>
        <time>2024-01-31T07:52:01.000Z</time>
      </trkpt>
      <trkpt lat="45.13445" lon="2.65145">
        <ele>1034.5999755859</ele>
        <time>2024-01-31T07:52:02.000Z</time>
      </trkpt>
      <trkpt lat="45.13459" lon="2.65133">
        <ele>1034</ele>
        <time>2024-01-31T07:52:03.000Z</time>
      </trkpt>
      <trkpt lat="45.13468" lon="2.65124">
        <ele>1032.8000488281</ele>
        <time>2024-01-31T07:52:04.000Z</time>
      </trkpt>
      <trkpt lat="45.13489" lon="2.65098">
        <ele>1031</ele>
        <time>2024-01-31T07:52:06.000Z</time>
      </trkpt>
      <trkpt lat="45.13506" lon="2.65082">
        <ele>1029.1999511719</ele>
        <time>2024-01-31T07:52:08.000Z</time>
      </trkpt>
      <trkpt lat="45.13518" lon="2.65075">
        <ele>1028.5999755859</ele>
        <time>2024-01-31T07:52:09.000Z</time>
      </trkpt>
      <trkpt lat="45.13525" lon="2.65072">
        <ele>1028</ele>
        <time>2024-01-31T07:52:10.000Z</time>
      </trkpt>
      <trkpt lat="45.13535" lon="2.65071">
        <ele>1027.5999755859</ele>
        <time>2024-01-31T07:52:11.000Z</time>
      </trkpt>
      <trkpt lat="45.13547" lon="2.65072">
        <ele>1027</ele>
        <time>2024-01-31T07:52:12.000Z</time>
      </trkpt>
      <trkpt lat="45.13588" lon="2.6508">
        <ele>1025</ele>
        <time>2024-01-31T07:52:15.000Z</time>
      </trkpt>
      <trkpt lat="45.13602" lon="2.65082">
        <ele>1023.4000244141</ele>
        <time>2024-01-31T07:52:16.000Z</time>
      </trkpt>
      <trkpt lat="45.13631" lon="2.65084">
        <ele>1022.200012207</ele>
        <time>2024-01-31T07:52:18.000Z</time>
      </trkpt>
      <trkpt lat="45.13645" lon="2.65081">
        <ele>1021.200012207</ele>
        <time>2024-01-31T07:52:19.000Z</time>
      </trkpt>
      <trkpt lat="45.13659" lon="2.65075">
        <ele>1020.200012207</ele>
        <time>2024-01-31T07:52:20.000Z</time>
      </trkpt>
      <trkpt lat="45.13672" lon="2.65067">
        <ele>1019.5999755859</ele>
        <time>2024-01-31T07:52:21.000Z</time>
      </trkpt>
      <trkpt lat="45.13686" lon="2.65057">
        <ele>1018.799987793</ele>
        <time>2024-01-31T07:52:22.000Z</time>
      </trkpt>
      <trkpt lat="45.13697" lon="2.65046">
        <ele>1017.799987793</ele>
        <time>2024-01-31T07:52:23.000Z</time>
      </trkpt>
      <trkpt lat="45.13706" lon="2.65034">
        <ele>1016.799987793</ele>
        <time>2024-01-31T07:52:24.000Z</time>
      </trkpt>
      <trkpt lat="45.13714" lon="2.6502">
        <ele>1015.4000244141</ele>
        <time>2024-01-31T07:52:25.000Z</time>
      </trkpt>
      <trkpt lat="45.13721" lon="2.65007">
        <ele>1014.200012207</ele>
        <time>2024-01-31T07:52:26.000Z</time>
      </trkpt>
      <trkpt lat="45.13726" lon="2.64993">
        <ele>1013.799987793</ele>
        <time>2024-01-31T07:52:27.000Z</time>
      </trkpt>
      <trkpt lat="45.13733" lon="2.64983">
        <ele>1012.4000244141</ele>
        <time>2024-01-31T07:52:28.000Z</time>
      </trkpt>
      <trkpt lat="45.13742" lon="2.64975">
        <ele>1011.799987793</ele>
        <time>2024-01-31T07:52:29.000Z</time>
      </trkpt>
      <trkpt lat="45.13753" lon="2.6497">
        <ele>1011.5999755859</ele>
        <time>2024-01-31T07:52:30.000Z</time>
      </trkpt>
      <trkpt lat="45.13764" lon="2.64966">
        <ele>1010.5999755859</ele>
        <time>2024-01-31T07:52:31.000Z</time>
      </trkpt>
      <trkpt lat="45.13788" lon="2.64955">
        <ele>1009.200012207</ele>
        <time>2024-01-31T07:52:33.000Z</time>
      </trkpt>
      <trkpt lat="45.138" lon="2.64948">
        <ele>1008.799987793</ele>
        <time>2024-01-31T07:52:34.000Z</time>
      </trkpt>
      <trkpt lat="45.13813" lon="2.6494">
        <ele>1008.200012207</ele>
        <time>2024-01-31T07:52:35.000Z</time>
      </trkpt>
      <trkpt lat="45.13839" lon="2.64927">
        <ele>1006.799987793</ele>
        <time>2024-01-31T07:52:37.000Z</time>
      </trkpt>
      <trkpt lat="45.13853" lon="2.64922">
        <ele>1006.200012207</ele>
        <time>2024-01-31T07:52:38.000Z</time>
      </trkpt>
      <trkpt lat="45.13866" lon="2.64916">
        <ele>1005.4000244141</ele>
        <time>2024-01-31T07:52:39.000Z</time>
      </trkpt>
      <trkpt lat="45.13881" lon="2.64909">
        <ele>1004.5999755859</ele>
        <time>2024-01-31T07:52:40.000Z</time>
      </trkpt>
      <trkpt lat="45.13889" lon="2.64903">
        <ele>1003.5999755859</ele>
        <time>2024-01-31T07:52:41.000Z</time>
      </trkpt>
      <trkpt lat="45.13897" lon="2.64895">
        <ele>1002.200012207</ele>
        <time>2024-01-31T07:52:42.000Z</time>
      </trkpt>
      <trkpt lat="45.13904" lon="2.64885">
        <ele>1001</ele>
        <time>2024-01-31T07:52:43.000Z</time>
      </trkpt>
      <trkpt lat="45.13916" lon="2.64862">
        <ele>1000.5999755859</ele>
        <time>2024-01-31T07:52:45.000Z</time>
      </trkpt>
      <trkpt lat="45.13923" lon="2.64852">
        <ele>1000.4000244141</ele>
        <time>2024-01-31T07:52:46.000Z</time>
      </trkpt>
      <trkpt lat="45.1393" lon="2.64844">
        <ele>999.79998779297</ele>
        <time>2024-01-31T07:52:47.000Z</time>
      </trkpt>
      <trkpt lat="45.13939" lon="2.64839">
        <ele>998.59997558594</ele>
        <time>2024-01-31T07:52:48.000Z</time>
      </trkpt>
      <trkpt lat="45.13961" lon="2.64837">
        <ele>997.20001220703</ele>
        <time>2024-01-31T07:52:50.000Z</time>
      </trkpt>
      <trkpt lat="45.13983" lon="2.64833">
        <ele>995.59997558594</ele>
        <time>2024-01-31T07:52:52.000Z</time>
      </trkpt>
      <trkpt lat="45.13994" lon="2.6483">
        <ele>994.59997558594</ele>
        <time>2024-01-31T07:52:53.000Z</time>
      </trkpt>
      <trkpt lat="45.14003" lon="2.64823">
        <ele>993.79998779297</ele>
        <time>2024-01-31T07:52:54.000Z</time>
      </trkpt>
      <trkpt lat="45.1401" lon="2.64813">
        <ele>993</ele>
        <time>2024-01-31T07:52:55.000Z</time>
      </trkpt>
      <trkpt lat="45.14016" lon="2.648">
        <ele>992.20001220703</ele>
        <time>2024-01-31T07:52:56.000Z</time>
      </trkpt>
      <trkpt lat="45.14025" lon="2.64768">
        <ele>991.20001220703</ele>
        <time>2024-01-31T07:52:58.000Z</time>
      </trkpt>
      <trkpt lat="45.14031" lon="2.64735">
        <ele>989.59997558594</ele>
        <time>2024-01-31T07:53:00.000Z</time>
      </trkpt>
      <trkpt lat="45.14036" lon="2.64721">
        <ele>988.79998779297</ele>
        <time>2024-01-31T07:53:01.000Z</time>
      </trkpt>
      <trkpt lat="45.14042" lon="2.6471">
        <ele>987.79998779297</ele>
        <time>2024-01-31T07:53:02.000Z</time>
      </trkpt>
      <trkpt lat="45.14049" lon="2.64702">
        <ele>986.79998779297</ele>
        <time>2024-01-31T07:53:03.000Z</time>
      </trkpt>
      <trkpt lat="45.14058" lon="2.64698">
        <ele>986.20001220703</ele>
        <time>2024-01-31T07:53:04.000Z</time>
      </trkpt>
      <trkpt lat="45.14091" lon="2.64689">
        <ele>984.59997558594</ele>
        <time>2024-01-31T07:53:07.000Z</time>
      </trkpt>
      <trkpt lat="45.14115" lon="2.6468">
        <ele>984</ele>
        <time>2024-01-31T07:53:09.000Z</time>
      </trkpt>
      <trkpt lat="45.14127" lon="2.64673">
        <ele>983.20001220703</ele>
        <time>2024-01-31T07:53:10.000Z</time>
      </trkpt>
      <trkpt lat="45.14147" lon="2.64653">
        <ele>981.40002441406</ele>
        <time>2024-01-31T07:53:12.000Z</time>
      </trkpt>
      <trkpt lat="45.14163" lon="2.64624">
        <ele>979.59997558594</ele>
        <time>2024-01-31T07:53:14.000Z</time>
      </trkpt>
      <trkpt lat="45.14169" lon="2.64609">
        <ele>979</ele>
        <time>2024-01-31T07:53:15.000Z</time>
      </trkpt>
      <trkpt lat="45.14176" lon="2.64594">
        <ele>978.40002441406</ele>
        <time>2024-01-31T07:53:16.000Z</time>
      </trkpt>
      <trkpt lat="45.14189" lon="2.64567">
        <ele>977.20001220703</ele>
        <time>2024-01-31T07:53:18.000Z</time>
      </trkpt>
      <trkpt lat="45.14197" lon="2.64556">
        <ele>976.40002441406</ele>
        <time>2024-01-31T07:53:19.000Z</time>
      </trkpt>
      <trkpt lat="45.14207" lon="2.64547">
        <ele>976.20001220703</ele>
        <time>2024-01-31T07:53:20.000Z</time>
      </trkpt>
      <trkpt lat="45.14227" lon="2.64534">
        <ele>975.40002441406</ele>
        <time>2024-01-31T07:53:22.000Z</time>
      </trkpt>
      <trkpt lat="45.14262" lon="2.64514">
        <ele>974.79998779297</ele>
        <time>2024-01-31T07:53:25.000Z</time>
      </trkpt>
      <trkpt lat="45.14288" lon="2.645">
        <ele>974</ele>
        <time>2024-01-31T07:53:27.000Z</time>
      </trkpt>
      <trkpt lat="45.14301" lon="2.64493">
        <ele>973.59997558594</ele>
        <time>2024-01-31T07:53:28.000Z</time>
      </trkpt>
      <trkpt lat="45.14342" lon="2.64463">
        <ele>972.59997558594</ele>
        <time>2024-01-31T07:53:31.000Z</time>
      </trkpt>
      <trkpt lat="45.14368" lon="2.64436">
        <ele>971.40002441406</ele>
        <time>2024-01-31T07:53:33.000Z</time>
      </trkpt>
      <trkpt lat="45.14381" lon="2.64421">
        <ele>970.40002441406</ele>
        <time>2024-01-31T07:53:34.000Z</time>
      </trkpt>
      <trkpt lat="45.14393" lon="2.64406">
        <ele>970</ele>
        <time>2024-01-31T07:53:35.000Z</time>
      </trkpt>
      <trkpt lat="45.14419" lon="2.64374">
        <ele>968.79998779297</ele>
        <time>2024-01-31T07:53:37.000Z</time>
      </trkpt>
      <trkpt lat="45.14431" lon="2.64358">
        <ele>967.59997558594</ele>
        <time>2024-01-31T07:53:38.000Z</time>
      </trkpt>
      <trkpt lat="45.14442" lon="2.6434">
        <ele>967</ele>
        <time>2024-01-31T07:53:39.000Z</time>
      </trkpt>
      <trkpt lat="45.14452" lon="2.64321">
        <ele>966.20001220703</ele>
        <time>2024-01-31T07:53:40.000Z</time>
      </trkpt>
      <trkpt lat="45.14471" lon="2.64285">
        <ele>964.59997558594</ele>
        <time>2024-01-31T07:53:42.000Z</time>
      </trkpt>
      <trkpt lat="45.14481" lon="2.64271">
        <ele>964</ele>
        <time>2024-01-31T07:53:43.000Z</time>
      </trkpt>
      <trkpt lat="45.14491" lon="2.64261">
        <ele>962.79998779297</ele>
        <time>2024-01-31T07:53:44.000Z</time>
      </trkpt>
      <trkpt lat="45.145" lon="2.64254">
        <ele>961.59997558594</ele>
        <time>2024-01-31T07:53:45.000Z</time>
      </trkpt>
      <trkpt lat="45.14509" lon="2.64248">
        <ele>960.40002441406</ele>
        <time>2024-01-31T07:53:46.000Z</time>
      </trkpt>
      <trkpt lat="45.14523" lon="2.64239">
        <ele>959</ele>
        <time>2024-01-31T07:53:48.000Z</time>
      </trkpt>
      <trkpt lat="45.1453" lon="2.64224">
        <ele>957.79998779297</ele>
        <time>2024-01-31T07:53:50.000Z</time>
      </trkpt>
      <trkpt lat="45.14533" lon="2.64205">
        <ele>956.59997558594</ele>
        <time>2024-01-31T07:53:52.000Z</time>
      </trkpt>
      <trkpt lat="45.14533" lon="2.64194">
        <ele>956.40002441406</ele>
        <time>2024-01-31T07:53:53.000Z</time>
      </trkpt>
      <trkpt lat="45.14535" lon="2.64186">
        <ele>956.40002441406</ele>
        <time>2024-01-31T07:53:54.000Z</time>
      </trkpt>
      <trkpt lat="45.14541" lon="2.64175">
        <ele>956</ele>
        <time>2024-01-31T07:53:56.000Z</time>
      </trkpt>
      <trkpt lat="45.14554" lon="2.64168">
        <ele>955.59997558594</ele>
        <time>2024-01-31T07:53:58.000Z</time>
      </trkpt>
      <trkpt lat="45.14561" lon="2.64165">
        <ele>955.40002441406</ele>
        <time>2024-01-31T07:53:59.000Z</time>
      </trkpt>
      <trkpt lat="45.14568" lon="2.64161">
        <ele>955</ele>
        <time>2024-01-31T07:54:00.000Z</time>
      </trkpt>
      <trkpt lat="45.14573" lon="2.64153">
        <ele>954.20001220703</ele>
        <time>2024-01-31T07:54:01.000Z</time>
      </trkpt>
      <trkpt lat="45.14577" lon="2.64143">
        <ele>954</ele>
        <time>2024-01-31T07:54:02.000Z</time>
      </trkpt>
      <trkpt lat="45.1458" lon="2.64121">
        <ele>953</ele>
        <time>2024-01-31T07:54:04.000Z</time>
      </trkpt>
      <trkpt lat="45.14579" lon="2.64111">
        <ele>952.59997558594</ele>
        <time>2024-01-31T07:54:05.000Z</time>
      </trkpt>
      <trkpt lat="45.1457" lon="2.64059">
        <ele>952</ele>
        <time>2024-01-31T07:54:10.000Z</time>
      </trkpt>
      <trkpt lat="45.14572" lon="2.64037">
        <ele>952</ele>
        <time>2024-01-31T07:54:12.000Z</time>
      </trkpt>
      <trkpt lat="45.14575" lon="2.64026">
        <ele>952</ele>
        <time>2024-01-31T07:54:13.000Z</time>
      </trkpt>
      <trkpt lat="45.14595" lon="2.63973">
        <ele>952</ele>
        <time>2024-01-31T07:54:17.000Z</time>
      </trkpt>
      <trkpt lat="45.14601" lon="2.63962">
        <ele>951.79998779297</ele>
        <time>2024-01-31T07:54:18.000Z</time>
      </trkpt>
      <trkpt lat="45.14617" lon="2.63945">
        <ele>951.40002441406</ele>
        <time>2024-01-31T07:54:20.000Z</time>
      </trkpt>
      <trkpt lat="45.14635" lon="2.63938">
        <ele>951.20001220703</ele>
        <time>2024-01-31T07:54:22.000Z</time>
      </trkpt>
      <trkpt lat="45.14645" lon="2.63935">
        <ele>951.20001220703</ele>
        <time>2024-01-31T07:54:23.000Z</time>
      </trkpt>
      <trkpt lat="45.1469" lon="2.63919">
        <ele>951.20001220703</ele>
        <time>2024-01-31T07:54:27.000Z</time>
      </trkpt>
      <trkpt lat="45.14701" lon="2.63911">
        <ele>951.20001220703</ele>
        <time>2024-01-31T07:54:28.000Z</time>
      </trkpt>
      <trkpt lat="45.14711" lon="2.63902">
        <ele>951.20001220703</ele>
        <time>2024-01-31T07:54:29.000Z</time>
      </trkpt>
      <trkpt lat="45.14728" lon="2.63877">
        <ele>951.20001220703</ele>
        <time>2024-01-31T07:54:31.000Z</time>
      </trkpt>
      <trkpt lat="45.14769" lon="2.63816">
        <ele>951.20001220703</ele>
        <time>2024-01-31T07:54:36.000Z</time>
      </trkpt>
      <trkpt lat="45.14784" lon="2.63798">
        <ele>951</ele>
        <time>2024-01-31T07:54:38.000Z</time>
      </trkpt>
      <trkpt lat="45.14794" lon="2.63788">
        <ele>951</ele>
        <time>2024-01-31T07:54:39.000Z</time>
      </trkpt>
      <trkpt lat="45.14811" lon="2.63778">
        <ele>950.79998779297</ele>
        <time>2024-01-31T07:54:41.000Z</time>
      </trkpt>
      <trkpt lat="45.14822" lon="2.63773">
        <ele>950.79998779297</ele>
        <time>2024-01-31T07:54:42.000Z</time>
      </trkpt>
      <trkpt lat="45.14831" lon="2.63767">
        <ele>950.40002441406</ele>
        <time>2024-01-31T07:54:43.000Z</time>
      </trkpt>
      <trkpt lat="45.14842" lon="2.63751">
        <ele>949.40002441406</ele>
        <time>2024-01-31T07:54:45.000Z</time>
      </trkpt>
      <trkpt lat="45.14845" lon="2.63731">
        <ele>948.59997558594</ele>
        <time>2024-01-31T07:54:47.000Z</time>
      </trkpt>
      <trkpt lat="45.14844" lon="2.63719">
        <ele>948.40002441406</ele>
        <time>2024-01-31T07:54:48.000Z</time>
      </trkpt>
      <trkpt lat="45.14841" lon="2.63681">
        <ele>948.40002441406</ele>
        <time>2024-01-31T07:54:51.000Z</time>
      </trkpt>
      <trkpt lat="45.14843" lon="2.6367">
        <ele>948.59997558594</ele>
        <time>2024-01-31T07:54:52.000Z</time>
      </trkpt>
      <trkpt lat="45.14845" lon="2.63658">
        <ele>948.79998779297</ele>
        <time>2024-01-31T07:54:53.000Z</time>
      </trkpt>
      <trkpt lat="45.14855" lon="2.63636">
        <ele>950</ele>
        <time>2024-01-31T07:54:55.000Z</time>
      </trkpt>
      <trkpt lat="45.14879" lon="2.63605">
        <ele>951.40002441406</ele>
        <time>2024-01-31T07:54:58.000Z</time>
      </trkpt>
      <trkpt lat="45.14888" lon="2.63594">
        <ele>951.79998779297</ele>
        <time>2024-01-31T07:54:59.000Z</time>
      </trkpt>
      <trkpt lat="45.14897" lon="2.63583">
        <ele>952.40002441406</ele>
        <time>2024-01-31T07:55:00.000Z</time>
      </trkpt>
      <trkpt lat="45.14915" lon="2.6356">
        <ele>953.59997558594</ele>
        <time>2024-01-31T07:55:02.000Z</time>
      </trkpt>
      <trkpt lat="45.14941" lon="2.63524">
        <ele>953.59997558594</ele>
        <time>2024-01-31T07:55:05.000Z</time>
      </trkpt>
      <trkpt lat="45.1498" lon="2.63457">
        <ele>952.59997558594</ele>
        <time>2024-01-31T07:55:10.000Z</time>
      </trkpt>
      <trkpt lat="45.14985" lon="2.63444">
        <ele>952.20001220703</ele>
        <time>2024-01-31T07:55:11.000Z</time>
      </trkpt>
      <trkpt lat="45.14989" lon="2.63431">
        <ele>951.20001220703</ele>
        <time>2024-01-31T07:55:12.000Z</time>
      </trkpt>
      <trkpt lat="45.14997" lon="2.63412">
        <ele>950.20001220703</ele>
        <time>2024-01-31T07:55:14.000Z</time>
      </trkpt>
      <trkpt lat="45.15002" lon="2.63405">
        <ele>950.20001220703</ele>
        <time>2024-01-31T07:55:15.000Z</time>
      </trkpt>
      <trkpt lat="45.15008" lon="2.63401">
        <ele>950</ele>
        <time>2024-01-31T07:55:16.000Z</time>
      </trkpt>
      <trkpt lat="45.15015" lon="2.63399">
        <ele>950</ele>
        <time>2024-01-31T07:55:17.000Z</time>
      </trkpt>
      <trkpt lat="45.15045" lon="2.63398">
        <ele>950</ele>
        <time>2024-01-31T07:55:20.000Z</time>
      </trkpt>
      <trkpt lat="45.15095" lon="2.63389">
        <ele>949.40002441406</ele>
        <time>2024-01-31T07:55:24.000Z</time>
      </trkpt>
      <trkpt lat="45.15147" lon="2.63366">
        <ele>949</ele>
        <time>2024-01-31T07:55:28.000Z</time>
      </trkpt>
      <trkpt lat="45.15159" lon="2.6336">
        <ele>948.59997558594</ele>
        <time>2024-01-31T07:55:29.000Z</time>
      </trkpt>
      <trkpt lat="45.15169" lon="2.63353">
        <ele>948.40002441406</ele>
        <time>2024-01-31T07:55:30.000Z</time>
      </trkpt>
      <trkpt lat="45.15178" lon="2.63343">
        <ele>948.40002441406</ele>
        <time>2024-01-31T07:55:31.000Z</time>
      </trkpt>
      <trkpt lat="45.15187" lon="2.63333">
        <ele>947.79998779297</ele>
        <time>2024-01-31T07:55:32.000Z</time>
      </trkpt>
      <trkpt lat="45.15205" lon="2.63318">
        <ele>947.20001220703</ele>
        <time>2024-01-31T07:55:34.000Z</time>
      </trkpt>
      <trkpt lat="45.15214" lon="2.63318">
        <ele>946.79998779297</ele>
        <time>2024-01-31T07:55:35.000Z</time>
      </trkpt>
      <trkpt lat="45.15222" lon="2.6332">
        <ele>946.59997558594</ele>
        <time>2024-01-31T07:55:36.000Z</time>
      </trkpt>
      <trkpt lat="45.15238" lon="2.63329">
        <ele>946.40002441406</ele>
        <time>2024-01-31T07:55:38.000Z</time>
      </trkpt>
      <trkpt lat="45.15255" lon="2.63329">
        <ele>946.20001220703</ele>
        <time>2024-01-31T07:55:40.000Z</time>
      </trkpt>
      <trkpt lat="45.15265" lon="2.63316">
        <ele>945.79998779297</ele>
        <time>2024-01-31T07:55:42.000Z</time>
      </trkpt>
      <trkpt lat="45.15271" lon="2.63291">
        <ele>945.79998779297</ele>
        <time>2024-01-31T07:55:44.000Z</time>
      </trkpt>
      <trkpt lat="45.15273" lon="2.63278">
        <ele>945.79998779297</ele>
        <time>2024-01-31T07:55:45.000Z</time>
      </trkpt>
      <trkpt lat="45.15289" lon="2.63224">
        <ele>945.59997558594</ele>
        <time>2024-01-31T07:55:49.000Z</time>
      </trkpt>
      <trkpt lat="45.15295" lon="2.63203">
        <ele>945.40002441406</ele>
        <time>2024-01-31T07:55:51.000Z</time>
      </trkpt>
      <trkpt lat="45.153" lon="2.63191">
        <ele>945.40002441406</ele>
        <time>2024-01-31T07:55:52.000Z</time>
      </trkpt>
      <trkpt lat="45.15305" lon="2.63185">
        <ele>945.40002441406</ele>
        <time>2024-01-31T07:55:53.000Z</time>
      </trkpt>
      <trkpt lat="45.15321" lon="2.63173">
        <ele>945.40002441406</ele>
        <time>2024-01-31T07:55:55.000Z</time>
      </trkpt>
      <trkpt lat="45.1533" lon="2.63166">
        <ele>945.20001220703</ele>
        <time>2024-01-31T07:55:56.000Z</time>
      </trkpt>
      <trkpt lat="45.15341" lon="2.63155">
        <ele>945</ele>
        <time>2024-01-31T07:55:58.000Z</time>
      </trkpt>
      <trkpt lat="45.15344" lon="2.63145">
        <ele>944.59997558594</ele>
        <time>2024-01-31T07:55:59.000Z</time>
      </trkpt>
      <trkpt lat="45.15345" lon="2.63134">
        <ele>944.59997558594</ele>
        <time>2024-01-31T07:56:00.000Z</time>
      </trkpt>
      <trkpt lat="45.15347" lon="2.6308">
        <ele>944.20001220703</ele>
        <time>2024-01-31T07:56:04.000Z</time>
      </trkpt>
      <trkpt lat="45.15353" lon="2.6305">
        <ele>943.40002441406</ele>
        <time>2024-01-31T07:56:06.000Z</time>
      </trkpt>
      <trkpt lat="45.15356" lon="2.63035">
        <ele>942.79998779297</ele>
        <time>2024-01-31T07:56:07.000Z</time>
      </trkpt>
      <trkpt lat="45.1536" lon="2.63019">
        <ele>942.20001220703</ele>
        <time>2024-01-31T07:56:08.000Z</time>
      </trkpt>
      <trkpt lat="45.15376" lon="2.62955">
        <ele>940.79998779297</ele>
        <time>2024-01-31T07:56:12.000Z</time>
      </trkpt>
      <trkpt lat="45.15378" lon="2.62939">
        <ele>940.40002441406</ele>
        <time>2024-01-31T07:56:13.000Z</time>
      </trkpt>
      <trkpt lat="45.15379" lon="2.62924">
        <ele>939.59997558594</ele>
        <time>2024-01-31T07:56:14.000Z</time>
      </trkpt>
      <trkpt lat="45.15378" lon="2.62895">
        <ele>939.20001220703</ele>
        <time>2024-01-31T07:56:16.000Z</time>
      </trkpt>
      <trkpt lat="45.15379" lon="2.62882">
        <ele>939</ele>
        <time>2024-01-31T07:56:17.000Z</time>
      </trkpt>
      <trkpt lat="45.15385" lon="2.6284">
        <ele>938.40002441406</ele>
        <time>2024-01-31T07:56:20.000Z</time>
      </trkpt>
      <trkpt lat="45.15401" lon="2.6278">
        <ele>937.40002441406</ele>
        <time>2024-01-31T07:56:24.000Z</time>
      </trkpt>
      <trkpt lat="45.15417" lon="2.62733">
        <ele>936.20001220703</ele>
        <time>2024-01-31T07:56:27.000Z</time>
      </trkpt>
      <trkpt lat="45.15435" lon="2.62671">
        <ele>934.40002441406</ele>
        <time>2024-01-31T07:56:31.000Z</time>
      </trkpt>
      <trkpt lat="45.15441" lon="2.62657">
        <ele>934.40002441406</ele>
        <time>2024-01-31T07:56:32.000Z</time>
      </trkpt>
      <trkpt lat="45.15455" lon="2.62633">
        <ele>933.79998779297</ele>
        <time>2024-01-31T07:56:34.000Z</time>
      </trkpt>
      <trkpt lat="45.15464" lon="2.62624">
        <ele>933.40002441406</ele>
        <time>2024-01-31T07:56:35.000Z</time>
      </trkpt>
      <trkpt lat="45.15483" lon="2.62609">
        <ele>932.79998779297</ele>
        <time>2024-01-31T07:56:37.000Z</time>
      </trkpt>
      <trkpt lat="45.15491" lon="2.62601">
        <ele>932.40002441406</ele>
        <time>2024-01-31T07:56:38.000Z</time>
      </trkpt>
      <trkpt lat="45.155" lon="2.62591">
        <ele>931.79998779297</ele>
        <time>2024-01-31T07:56:39.000Z</time>
      </trkpt>
      <trkpt lat="45.15507" lon="2.62579">
        <ele>931.59997558594</ele>
        <time>2024-01-31T07:56:40.000Z</time>
      </trkpt>
      <trkpt lat="45.15514" lon="2.62566">
        <ele>931.20001220703</ele>
        <time>2024-01-31T07:56:41.000Z</time>
      </trkpt>
      <trkpt lat="45.15548" lon="2.62497">
        <ele>929.79998779297</ele>
        <time>2024-01-31T07:56:46.000Z</time>
      </trkpt>
      <trkpt lat="45.15561" lon="2.62471">
        <ele>928.59997558594</ele>
        <time>2024-01-31T07:56:48.000Z</time>
      </trkpt>
      <trkpt lat="45.15576" lon="2.62432">
        <ele>927</ele>
        <time>2024-01-31T07:56:51.000Z</time>
      </trkpt>
      <trkpt lat="45.15577" lon="2.62407">
        <ele>925.79998779297</ele>
        <time>2024-01-31T07:56:53.000Z</time>
      </trkpt>
      <trkpt lat="45.15575" lon="2.62396">
        <ele>925.59997558594</ele>
        <time>2024-01-31T07:56:54.000Z</time>
      </trkpt>
      <trkpt lat="45.1557" lon="2.62387">
        <ele>925.40002441406</ele>
        <time>2024-01-31T07:56:55.000Z</time>
      </trkpt>
      <trkpt lat="45.15563" lon="2.6238">
        <ele>925.20001220703</ele>
        <time>2024-01-31T07:56:56.000Z</time>
      </trkpt>
      <trkpt lat="45.15557" lon="2.62375">
        <ele>925</ele>
        <time>2024-01-31T07:56:57.000Z</time>
      </trkpt>
      <trkpt lat="45.15552" lon="2.62372">
        <ele>924.59997558594</ele>
        <time>2024-01-31T07:56:58.000Z</time>
      </trkpt>
      <trkpt lat="45.15548" lon="2.6237">
        <ele>924.20001220703</ele>
        <time>2024-01-31T07:56:59.000Z</time>
      </trkpt>
      <trkpt lat="45.15542" lon="2.62366">
        <ele>924</ele>
        <time>2024-01-31T07:57:02.000Z</time>
      </trkpt>
      <trkpt lat="45.15541" lon="2.62364">
        <ele>924</ele>
        <time>2024-01-31T07:57:06.000Z</time>
      </trkpt>
      <trkpt lat="45.15541" lon="2.62364">
        <ele>924</ele>
        <time>2024-01-31T07:57:14.000Z</time>
      </trkpt>
      <trkpt lat="45.15541" lon="2.62364">
        <ele>924</ele>
        <time>2024-01-31T07:57:22.000Z</time>
      </trkpt>
      <trkpt lat="45.15541" lon="2.62364">
        <ele>923.79998779297</ele>
        <time>2024-01-31T07:57:31.000Z</time>
      </trkpt>
      <trkpt lat="45.15541" lon="2.62364">
        <ele>923.79998779297</ele>
        <time>2024-01-31T07:57:39.000Z</time>
      </trkpt>
      <trkpt lat="45.15541" lon="2.62364">
        <ele>923.59997558594</ele>
        <time>2024-01-31T07:57:51.000Z</time>
      </trkpt>
      <trkpt lat="45.15541" lon="2.62364">
        <ele>923.59997558594</ele>
        <time>2024-01-31T07:58:01.000Z</time>
      </trkpt>
      <trkpt lat="45.15541" lon="2.62364">
        <ele>923.59997558594</ele>
        <time>2024-01-31T07:58:02.000Z</time>
      </trkpt>
      <trkpt lat="45.15541" lon="2.62364">
        <ele>923.59997558594</ele>
        <time>2024-01-31T07:58:09.000Z</time>
      </trkpt>
      <trkpt lat="45.15534" lon="2.6236">
        <ele>924</ele>
        <time>2024-01-31T07:58:15.000Z</time>
      </trkpt>
      <trkpt lat="45.15508" lon="2.62348">
        <ele>924.20001220703</ele>
        <time>2024-01-31T07:58:20.000Z</time>
      </trkpt>
      <trkpt lat="45.15502" lon="2.62344">
        <ele>924.20001220703</ele>
        <time>2024-01-31T07:58:21.000Z</time>
      </trkpt>
      <trkpt lat="45.15494" lon="2.62333">
        <ele>924.20001220703</ele>
        <time>2024-01-31T07:58:23.000Z</time>
      </trkpt>
      <trkpt lat="45.1549" lon="2.62321">
        <ele>924.20001220703</ele>
        <time>2024-01-31T07:58:25.000Z</time>
      </trkpt>
      <trkpt lat="45.1549" lon="2.62315">
        <ele>924.40002441406</ele>
        <time>2024-01-31T07:58:26.000Z</time>
      </trkpt>
      <trkpt lat="45.15497" lon="2.62298">
        <ele>924.59997558594</ele>
        <time>2024-01-31T07:58:29.000Z</time>
      </trkpt>
      <trkpt lat="45.15506" lon="2.62283">
        <ele>925</ele>
        <time>2024-01-31T07:58:31.000Z</time>
      </trkpt>
      <trkpt lat="45.15525" lon="2.6224">
        <ele>925.20001220703</ele>
        <time>2024-01-31T07:58:36.000Z</time>
      </trkpt>
      <trkpt lat="45.15528" lon="2.6223">
        <ele>925.40002441406</ele>
        <time>2024-01-31T07:58:37.000Z</time>
      </trkpt>
      <trkpt lat="45.15528" lon="2.62206">
        <ele>926</ele>
        <time>2024-01-31T07:58:39.000Z</time>
      </trkpt>
      <trkpt lat="45.15525" lon="2.62152">
        <ele>927</ele>
        <time>2024-01-31T07:58:43.000Z</time>
      </trkpt>
      <trkpt lat="45.15529" lon="2.62127">
        <ele>927.20001220703</ele>
        <time>2024-01-31T07:58:45.000Z</time>
      </trkpt>
      <trkpt lat="45.15534" lon="2.62117">
        <ele>927.40002441406</ele>
        <time>2024-01-31T07:58:46.000Z</time>
      </trkpt>
      <trkpt lat="45.1554" lon="2.62107">
        <ele>927.59997558594</ele>
        <time>2024-01-31T07:58:47.000Z</time>
      </trkpt>
      <trkpt lat="45.15554" lon="2.62085">
        <ele>928.40002441406</ele>
        <time>2024-01-31T07:58:49.000Z</time>
      </trkpt>
      <trkpt lat="45.15563" lon="2.62074">
        <ele>929.20001220703</ele>
        <time>2024-01-31T07:58:50.000Z</time>
      </trkpt>
      <trkpt lat="45.15572" lon="2.62063">
        <ele>929.59997558594</ele>
        <time>2024-01-31T07:58:51.000Z</time>
      </trkpt>
      <trkpt lat="45.15599" lon="2.62025">
        <ele>930.59997558594</ele>
        <time>2024-01-31T07:58:54.000Z</time>
      </trkpt>
      <trkpt lat="45.15632" lon="2.61962">
        <ele>932.40002441406</ele>
        <time>2024-01-31T07:58:58.000Z</time>
      </trkpt>
      <trkpt lat="45.15665" lon="2.61887">
        <ele>932.40002441406</ele>
        <time>2024-01-31T07:59:02.000Z</time>
      </trkpt>
      <trkpt lat="45.15673" lon="2.61868">
        <ele>932.40002441406</ele>
        <time>2024-01-31T07:59:03.000Z</time>
      </trkpt>
      <trkpt lat="45.15701" lon="2.61799">
        <ele>931.59997558594</ele>
        <time>2024-01-31T07:59:07.000Z</time>
      </trkpt>
      <trkpt lat="45.15705" lon="2.61782">
        <ele>931.20001220703</ele>
        <time>2024-01-31T07:59:08.000Z</time>
      </trkpt>
      <trkpt lat="45.15706" lon="2.61765">
        <ele>931</ele>
        <time>2024-01-31T07:59:09.000Z</time>
      </trkpt>
      <trkpt lat="45.15706" lon="2.61748">
        <ele>930.79998779297</ele>
        <time>2024-01-31T07:59:10.000Z</time>
      </trkpt>
      <trkpt lat="45.15706" lon="2.61714">
        <ele>930.59997558594</ele>
        <time>2024-01-31T07:59:12.000Z</time>
      </trkpt>
      <trkpt lat="45.15708" lon="2.61699">
        <ele>930.20001220703</ele>
        <time>2024-01-31T07:59:13.000Z</time>
      </trkpt>
      <trkpt lat="45.15711" lon="2.61686">
        <ele>930.20001220703</ele>
        <time>2024-01-31T07:59:14.000Z</time>
      </trkpt>
      <trkpt lat="45.15721" lon="2.61661">
        <ele>930</ele>
        <time>2024-01-31T07:59:16.000Z</time>
      </trkpt>
      <trkpt lat="45.15758" lon="2.61587">
        <ele>930.20001220703</ele>
        <time>2024-01-31T07:59:21.000Z</time>
      </trkpt>
      <trkpt lat="45.15785" lon="2.61543">
        <ele>930</ele>
        <time>2024-01-31T07:59:24.000Z</time>
      </trkpt>
      <trkpt lat="45.15796" lon="2.61533">
        <ele>930</ele>
        <time>2024-01-31T07:59:25.000Z</time>
      </trkpt>
      <trkpt lat="45.1584" lon="2.61503">
        <ele>929</ele>
        <time>2024-01-31T07:59:29.000Z</time>
      </trkpt>
      <trkpt lat="45.15857" lon="2.61482">
        <ele>928.20001220703</ele>
        <time>2024-01-31T07:59:31.000Z</time>
      </trkpt>
      <trkpt lat="45.15864" lon="2.61469">
        <ele>927.79998779297</ele>
        <time>2024-01-31T07:59:32.000Z</time>
      </trkpt>
      <trkpt lat="45.15874" lon="2.6144">
        <ele>927</ele>
        <time>2024-01-31T07:59:34.000Z</time>
      </trkpt>
      <trkpt lat="45.15889" lon="2.61397">
        <ele>926.79998779297</ele>
        <time>2024-01-31T07:59:37.000Z</time>
      </trkpt>
      <trkpt lat="45.15896" lon="2.61385">
        <ele>926.79998779297</ele>
        <time>2024-01-31T07:59:38.000Z</time>
      </trkpt>
      <trkpt lat="45.15904" lon="2.61374">
        <ele>926.79998779297</ele>
        <time>2024-01-31T07:59:39.000Z</time>
      </trkpt>
      <trkpt lat="45.15924" lon="2.61359">
        <ele>926.79998779297</ele>
        <time>2024-01-31T07:59:41.000Z</time>
      </trkpt>
      <trkpt lat="45.15958" lon="2.61341">
        <ele>926.20001220703</ele>
        <time>2024-01-31T07:59:44.000Z</time>
      </trkpt>
      <trkpt lat="45.15969" lon="2.61333">
        <ele>926</ele>
        <time>2024-01-31T07:59:45.000Z</time>
      </trkpt>
      <trkpt lat="45.15979" lon="2.61321">
        <ele>925.79998779297</ele>
        <time>2024-01-31T07:59:46.000Z</time>
      </trkpt>
      <trkpt lat="45.16" lon="2.61293">
        <ele>924.59997558594</ele>
        <time>2024-01-31T07:59:48.000Z</time>
      </trkpt>
      <trkpt lat="45.16021" lon="2.61264">
        <ele>923.20001220703</ele>
        <time>2024-01-31T07:59:50.000Z</time>
      </trkpt>
      <trkpt lat="45.16046" lon="2.6124">
        <ele>921.79998779297</ele>
        <time>2024-01-31T07:59:52.000Z</time>
      </trkpt>
      <trkpt lat="45.16074" lon="2.6122">
        <ele>920.20001220703</ele>
        <time>2024-01-31T07:59:54.000Z</time>
      </trkpt>
      <trkpt lat="45.16103" lon="2.61202">
        <ele>918.79998779297</ele>
        <time>2024-01-31T07:59:56.000Z</time>
      </trkpt>
      <trkpt lat="45.16117" lon="2.61194">
        <ele>917.79998779297</ele>
        <time>2024-01-31T07:59:57.000Z</time>
      </trkpt>
      <trkpt lat="45.16156" lon="2.61179">
        <ele>916</ele>
        <time>2024-01-31T08:00:00.000Z</time>
      </trkpt>
      <trkpt lat="45.16177" lon="2.61174">
        <ele>914.40002441406</ele>
        <time>2024-01-31T08:00:02.000Z</time>
      </trkpt>
      <trkpt lat="45.16186" lon="2.61172">
        <ele>913.59997558594</ele>
        <time>2024-01-31T08:00:03.000Z</time>
      </trkpt>
      <trkpt lat="45.16193" lon="2.61171">
        <ele>913.20001220703</ele>
        <time>2024-01-31T08:00:04.000Z</time>
      </trkpt>
      <trkpt lat="45.16204" lon="2.61175">
        <ele>912.59997558594</ele>
        <time>2024-01-31T08:00:06.000Z</time>
      </trkpt>
      <trkpt lat="45.16215" lon="2.6118">
        <ele>912.59997558594</ele>
        <time>2024-01-31T08:00:08.000Z</time>
      </trkpt>
      <trkpt lat="45.16222" lon="2.61179">
        <ele>912.59997558594</ele>
        <time>2024-01-31T08:00:09.000Z</time>
      </trkpt>
      <trkpt lat="45.16228" lon="2.61176">
        <ele>912.79998779297</ele>
        <time>2024-01-31T08:00:10.000Z</time>
      </trkpt>
      <trkpt lat="45.16235" lon="2.61167">
        <ele>913</ele>
        <time>2024-01-31T08:00:12.000Z</time>
      </trkpt>
      <trkpt lat="45.16252" lon="2.61146">
        <ele>914.59997558594</ele>
        <time>2024-01-31T08:00:16.000Z</time>
      </trkpt>
      <trkpt lat="45.16263" lon="2.61136">
        <ele>915.40002441406</ele>
        <time>2024-01-31T08:00:18.000Z</time>
      </trkpt>
      <trkpt lat="45.16263" lon="2.61136">
        <ele>916</ele>
        <time>2024-01-31T08:00:19.000Z</time>
      </trkpt>
      <trkpt lat="45.16275" lon="2.61129">
        <ele>916.59997558594</ele>
        <time>2024-01-31T08:00:20.000Z</time>
      </trkpt>
      <trkpt lat="45.16289" lon="2.61125">
        <ele>917.79998779297</ele>
        <time>2024-01-31T08:00:22.000Z</time>
      </trkpt>
      <trkpt lat="45.16297" lon="2.61121">
        <ele>918</ele>
        <time>2024-01-31T08:00:23.000Z</time>
      </trkpt>
      <trkpt lat="45.16305" lon="2.61117">
        <ele>919</ele>
        <time>2024-01-31T08:00:24.000Z</time>
      </trkpt>
      <trkpt lat="45.16312" lon="2.61111">
        <ele>919.79998779297</ele>
        <time>2024-01-31T08:00:25.000Z</time>
      </trkpt>
      <trkpt lat="45.16319" lon="2.61103">
        <ele>920.20001220703</ele>
        <time>2024-01-31T08:00:26.000Z</time>
      </trkpt>
      <trkpt lat="45.16327" lon="2.61095">
        <ele>921.20001220703</ele>
        <time>2024-01-31T08:00:27.000Z</time>
      </trkpt>
      <trkpt lat="45.16344" lon="2.61077">
        <ele>922.59997558594</ele>
        <time>2024-01-31T08:00:29.000Z</time>
      </trkpt>
      <trkpt lat="45.16362" lon="2.61058">
        <ele>924.59997558594</ele>
        <time>2024-01-31T08:00:31.000Z</time>
      </trkpt>
      <trkpt lat="45.16373" lon="2.61045">
        <ele>925.20001220703</ele>
        <time>2024-01-31T08:00:32.000Z</time>
      </trkpt>
      <trkpt lat="45.16383" lon="2.61035">
        <ele>926.20001220703</ele>
        <time>2024-01-31T08:00:33.000Z</time>
      </trkpt>
      <trkpt lat="45.16401" lon="2.61016">
        <ele>927.20001220703</ele>
        <time>2024-01-31T08:00:35.000Z</time>
      </trkpt>
      <trkpt lat="45.1642" lon="2.60995">
        <ele>929</ele>
        <time>2024-01-31T08:00:37.000Z</time>
      </trkpt>
      <trkpt lat="45.16437" lon="2.60975">
        <ele>930.40002441406</ele>
        <time>2024-01-31T08:00:39.000Z</time>
      </trkpt>
      <trkpt lat="45.16444" lon="2.60965">
        <ele>931.20001220703</ele>
        <time>2024-01-31T08:00:40.000Z</time>
      </trkpt>
      <trkpt lat="45.1645" lon="2.60954">
        <ele>931.59997558594</ele>
        <time>2024-01-31T08:00:41.000Z</time>
      </trkpt>
      <trkpt lat="45.16455" lon="2.60943">
        <ele>932.40002441406</ele>
        <time>2024-01-31T08:00:42.000Z</time>
      </trkpt>
      <trkpt lat="45.1646" lon="2.60932">
        <ele>933.40002441406</ele>
        <time>2024-01-31T08:00:43.000Z</time>
      </trkpt>
      <trkpt lat="45.16465" lon="2.60924">
        <ele>934</ele>
        <time>2024-01-31T08:00:44.000Z</time>
      </trkpt>
      <trkpt lat="45.1647" lon="2.60918">
        <ele>934.40002441406</ele>
        <time>2024-01-31T08:00:45.000Z</time>
      </trkpt>
      <trkpt lat="45.16476" lon="2.60917">
        <ele>934.59997558594</ele>
        <time>2024-01-31T08:00:46.000Z</time>
      </trkpt>
      <trkpt lat="45.16481" lon="2.60917">
        <ele>934.79998779297</ele>
        <time>2024-01-31T08:00:47.000Z</time>
      </trkpt>
      <trkpt lat="45.16489" lon="2.60919">
        <ele>935.40002441406</ele>
        <time>2024-01-31T08:00:48.000Z</time>
      </trkpt>
      <trkpt lat="45.16497" lon="2.60919">
        <ele>936</ele>
        <time>2024-01-31T08:00:49.000Z</time>
      </trkpt>
      <trkpt lat="45.16513" lon="2.60917">
        <ele>936.40002441406</ele>
        <time>2024-01-31T08:00:51.000Z</time>
      </trkpt>
      <trkpt lat="45.1652" lon="2.60917">
        <ele>936.40002441406</ele>
        <time>2024-01-31T08:00:52.000Z</time>
      </trkpt>
      <trkpt lat="45.16536" lon="2.60917">
        <ele>936.40002441406</ele>
        <time>2024-01-31T08:00:55.000Z</time>
      </trkpt>
      <trkpt lat="45.16541" lon="2.60918">
        <ele>936</ele>
        <time>2024-01-31T08:00:58.000Z</time>
      </trkpt>
      <trkpt lat="45.16544" lon="2.60916">
        <ele>936.40002441406</ele>
        <time>2024-01-31T08:01:01.000Z</time>
      </trkpt>
      <trkpt lat="45.16547" lon="2.60914">
        <ele>936.59997558594</ele>
        <time>2024-01-31T08:01:02.000Z</time>
      </trkpt>
      <trkpt lat="45.16554" lon="2.60906">
        <ele>936.79998779297</ele>
        <time>2024-01-31T08:01:04.000Z</time>
      </trkpt>
      <trkpt lat="45.1656" lon="2.60893">
        <ele>937.40002441406</ele>
        <time>2024-01-31T08:01:06.000Z</time>
      </trkpt>
      <trkpt lat="45.16562" lon="2.60884">
        <ele>938.20001220703</ele>
        <time>2024-01-31T08:01:07.000Z</time>
      </trkpt>
      <trkpt lat="45.16565" lon="2.60864">
        <ele>939.40002441406</ele>
        <time>2024-01-31T08:01:09.000Z</time>
      </trkpt>
      <trkpt lat="45.16568" lon="2.60855">
        <ele>940.40002441406</ele>
        <time>2024-01-31T08:01:10.000Z</time>
      </trkpt>
      <trkpt lat="45.16571" lon="2.60848">
        <ele>940.59997558594</ele>
        <time>2024-01-31T08:01:11.000Z</time>
      </trkpt>
      <trkpt lat="45.16577" lon="2.60842">
        <ele>941</ele>
        <time>2024-01-31T08:01:12.000Z</time>
      </trkpt>
      <trkpt lat="45.16583" lon="2.60839">
        <ele>941.40002441406</ele>
        <time>2024-01-31T08:01:13.000Z</time>
      </trkpt>
      <trkpt lat="45.1659" lon="2.60839">
        <ele>942.20001220703</ele>
        <time>2024-01-31T08:01:14.000Z</time>
      </trkpt>
      <trkpt lat="45.16603" lon="2.60838">
        <ele>943.79998779297</ele>
        <time>2024-01-31T08:01:16.000Z</time>
      </trkpt>
      <trkpt lat="45.1661" lon="2.60835">
        <ele>944.20001220703</ele>
        <time>2024-01-31T08:01:17.000Z</time>
      </trkpt>
      <trkpt lat="45.16616" lon="2.6083">
        <ele>944.40002441406</ele>
        <time>2024-01-31T08:01:18.000Z</time>
      </trkpt>
      <trkpt lat="45.16621" lon="2.60823">
        <ele>945.20001220703</ele>
        <time>2024-01-31T08:01:19.000Z</time>
      </trkpt>
      <trkpt lat="45.16624" lon="2.60815">
        <ele>945.40002441406</ele>
        <time>2024-01-31T08:01:20.000Z</time>
      </trkpt>
      <trkpt lat="45.16628" lon="2.60798">
        <ele>946.59997558594</ele>
        <time>2024-01-31T08:01:22.000Z</time>
      </trkpt>
      <trkpt lat="45.16631" lon="2.60782">
        <ele>947.79998779297</ele>
        <time>2024-01-31T08:01:24.000Z</time>
      </trkpt>
      <trkpt lat="45.16632" lon="2.60773">
        <ele>948.40002441406</ele>
        <time>2024-01-31T08:01:25.000Z</time>
      </trkpt>
      <trkpt lat="45.16633" lon="2.60763">
        <ele>949</ele>
        <time>2024-01-31T08:01:26.000Z</time>
      </trkpt>
      <trkpt lat="45.16632" lon="2.60753">
        <ele>949.59997558594</ele>
        <time>2024-01-31T08:01:27.000Z</time>
      </trkpt>
      <trkpt lat="45.16631" lon="2.60744">
        <ele>950.20001220703</ele>
        <time>2024-01-31T08:01:28.000Z</time>
      </trkpt>
      <trkpt lat="45.16628" lon="2.60727">
        <ele>951.20001220703</ele>
        <time>2024-01-31T08:01:30.000Z</time>
      </trkpt>
      <trkpt lat="45.1663" lon="2.60713">
        <ele>952.20001220703</ele>
        <time>2024-01-31T08:01:32.000Z</time>
      </trkpt>
      <trkpt lat="45.16634" lon="2.60707">
        <ele>952.59997558594</ele>
        <time>2024-01-31T08:01:33.000Z</time>
      </trkpt>
      <trkpt lat="45.16639" lon="2.60703">
        <ele>952.79998779297</ele>
        <time>2024-01-31T08:01:34.000Z</time>
      </trkpt>
      <trkpt lat="45.16645" lon="2.60701">
        <ele>953.59997558594</ele>
        <time>2024-01-31T08:01:35.000Z</time>
      </trkpt>
      <trkpt lat="45.16653" lon="2.60698">
        <ele>954</ele>
        <time>2024-01-31T08:01:36.000Z</time>
      </trkpt>
      <trkpt lat="45.16669" lon="2.60691">
        <ele>955.20001220703</ele>
        <time>2024-01-31T08:01:38.000Z</time>
      </trkpt>
      <trkpt lat="45.16676" lon="2.60685">
        <ele>955.59997558594</ele>
        <time>2024-01-31T08:01:39.000Z</time>
      </trkpt>
      <trkpt lat="45.16683" lon="2.60677">
        <ele>956.40002441406</ele>
        <time>2024-01-31T08:01:40.000Z</time>
      </trkpt>
      <trkpt lat="45.16697" lon="2.60659">
        <ele>958</ele>
        <time>2024-01-31T08:01:42.000Z</time>
      </trkpt>
      <trkpt lat="45.16704" lon="2.60651">
        <ele>958.79998779297</ele>
        <time>2024-01-31T08:01:43.000Z</time>
      </trkpt>
      <trkpt lat="45.16711" lon="2.60648">
        <ele>959.40002441406</ele>
        <time>2024-01-31T08:01:44.000Z</time>
      </trkpt>
      <trkpt lat="45.16719" lon="2.60649">
        <ele>960.40002441406</ele>
        <time>2024-01-31T08:01:45.000Z</time>
      </trkpt>
      <trkpt lat="45.16726" lon="2.60651">
        <ele>961.20001220703</ele>
        <time>2024-01-31T08:01:46.000Z</time>
      </trkpt>
      <trkpt lat="45.16733" lon="2.60655">
        <ele>962.20001220703</ele>
        <time>2024-01-31T08:01:47.000Z</time>
      </trkpt>
      <trkpt lat="45.1674" lon="2.60658">
        <ele>962.79998779297</ele>
        <time>2024-01-31T08:01:48.000Z</time>
      </trkpt>
      <trkpt lat="45.16756" lon="2.60654">
        <ele>964.40002441406</ele>
        <time>2024-01-31T08:01:50.000Z</time>
      </trkpt>
      <trkpt lat="45.16776" lon="2.60643">
        <ele>966</ele>
        <time>2024-01-31T08:01:52.000Z</time>
      </trkpt>
      <trkpt lat="45.16786" lon="2.60635">
        <ele>966.59997558594</ele>
        <time>2024-01-31T08:01:53.000Z</time>
      </trkpt>
      <trkpt lat="45.16797" lon="2.60627">
        <ele>967.20001220703</ele>
        <time>2024-01-31T08:01:54.000Z</time>
      </trkpt>
      <trkpt lat="45.16826" lon="2.60598">
        <ele>968.79998779297</ele>
        <time>2024-01-31T08:01:57.000Z</time>
      </trkpt>
      <trkpt lat="45.16833" lon="2.60586">
        <ele>969.20001220703</ele>
        <time>2024-01-31T08:01:58.000Z</time>
      </trkpt>
      <trkpt lat="45.16839" lon="2.60574">
        <ele>970</ele>
        <time>2024-01-31T08:01:59.000Z</time>
      </trkpt>
      <trkpt lat="45.16844" lon="2.60561">
        <ele>970.79998779297</ele>
        <time>2024-01-31T08:02:00.000Z</time>
      </trkpt>
      <trkpt lat="45.16848" lon="2.60546">
        <ele>971.40002441406</ele>
        <time>2024-01-31T08:02:01.000Z</time>
      </trkpt>
      <trkpt lat="45.16851" lon="2.60531">
        <ele>972.20001220703</ele>
        <time>2024-01-31T08:02:02.000Z</time>
      </trkpt>
      <trkpt lat="45.16856" lon="2.60517">
        <ele>973</ele>
        <time>2024-01-31T08:02:03.000Z</time>
      </trkpt>
      <trkpt lat="45.16867" lon="2.60491">
        <ele>974.79998779297</ele>
        <time>2024-01-31T08:02:05.000Z</time>
      </trkpt>
      <trkpt lat="45.16871" lon="2.60478">
        <ele>976</ele>
        <time>2024-01-31T08:02:06.000Z</time>
      </trkpt>
      <trkpt lat="45.16875" lon="2.60464">
        <ele>977.20001220703</ele>
        <time>2024-01-31T08:02:07.000Z</time>
      </trkpt>
      <trkpt lat="45.16883" lon="2.60435">
        <ele>978.79998779297</ele>
        <time>2024-01-31T08:02:09.000Z</time>
      </trkpt>
      <trkpt lat="45.16891" lon="2.60405">
        <ele>980</ele>
        <time>2024-01-31T08:02:11.000Z</time>
      </trkpt>
      <trkpt lat="45.16894" lon="2.6039">
        <ele>980.40002441406</ele>
        <time>2024-01-31T08:02:12.000Z</time>
      </trkpt>
      <trkpt lat="45.16894" lon="2.60375">
        <ele>981</ele>
        <time>2024-01-31T08:02:13.000Z</time>
      </trkpt>
      <trkpt lat="45.16893" lon="2.6036">
        <ele>981.79998779297</ele>
        <time>2024-01-31T08:02:14.000Z</time>
      </trkpt>
      <trkpt lat="45.16892" lon="2.60345">
        <ele>983</ele>
        <time>2024-01-31T08:02:15.000Z</time>
      </trkpt>
      <trkpt lat="45.16891" lon="2.6033">
        <ele>983.20001220703</ele>
        <time>2024-01-31T08:02:16.000Z</time>
      </trkpt>
      <trkpt lat="45.16892" lon="2.60316">
        <ele>983.59997558594</ele>
        <time>2024-01-31T08:02:17.000Z</time>
      </trkpt>
      <trkpt lat="45.16896" lon="2.60304">
        <ele>984.59997558594</ele>
        <time>2024-01-31T08:02:18.000Z</time>
      </trkpt>
      <trkpt lat="45.16901" lon="2.60292">
        <ele>985.59997558594</ele>
        <time>2024-01-31T08:02:19.000Z</time>
      </trkpt>
      <trkpt lat="45.16907" lon="2.60281">
        <ele>986.40002441406</ele>
        <time>2024-01-31T08:02:20.000Z</time>
      </trkpt>
      <trkpt lat="45.16913" lon="2.60273">
        <ele>987.79998779297</ele>
        <time>2024-01-31T08:02:21.000Z</time>
      </trkpt>
      <trkpt lat="45.16922" lon="2.60262">
        <ele>989</ele>
        <time>2024-01-31T08:02:22.000Z</time>
      </trkpt>
      <trkpt lat="45.1693" lon="2.60255">
        <ele>989.59997558594</ele>
        <time>2024-01-31T08:02:23.000Z</time>
      </trkpt>
      <trkpt lat="45.16939" lon="2.60251">
        <ele>990.20001220703</ele>
        <time>2024-01-31T08:02:24.000Z</time>
      </trkpt>
      <trkpt lat="45.16959" lon="2.60247">
        <ele>991.79998779297</ele>
        <time>2024-01-31T08:02:26.000Z</time>
      </trkpt>
      <trkpt lat="45.16979" lon="2.60248">
        <ele>993.20001220703</ele>
        <time>2024-01-31T08:02:28.000Z</time>
      </trkpt>
      <trkpt lat="45.16988" lon="2.60252">
        <ele>994</ele>
        <time>2024-01-31T08:02:29.000Z</time>
      </trkpt>
      <trkpt lat="45.16996" lon="2.6026">
        <ele>994.40002441406</ele>
        <time>2024-01-31T08:02:30.000Z</time>
      </trkpt>
      <trkpt lat="45.17003" lon="2.6027">
        <ele>994.79998779297</ele>
        <time>2024-01-31T08:02:31.000Z</time>
      </trkpt>
      <trkpt lat="45.17017" lon="2.60286">
        <ele>996.40002441406</ele>
        <time>2024-01-31T08:02:33.000Z</time>
      </trkpt>
      <trkpt lat="45.17028" lon="2.60294">
        <ele>997</ele>
        <time>2024-01-31T08:02:34.000Z</time>
      </trkpt>
      <trkpt lat="45.17038" lon="2.603">
        <ele>998</ele>
        <time>2024-01-31T08:02:35.000Z</time>
      </trkpt>
      <trkpt lat="45.17055" lon="2.60313">
        <ele>999.59997558594</ele>
        <time>2024-01-31T08:02:37.000Z</time>
      </trkpt>
      <trkpt lat="45.17071" lon="2.60324">
        <ele>1001</ele>
        <time>2024-01-31T08:02:39.000Z</time>
      </trkpt>
      <trkpt lat="45.17085" lon="2.6032">
        <ele>1002.4000244141</ele>
        <time>2024-01-31T08:02:41.000Z</time>
      </trkpt>
      <trkpt lat="45.17096" lon="2.60302">
        <ele>1003.4000244141</ele>
        <time>2024-01-31T08:02:43.000Z</time>
      </trkpt>
      <trkpt lat="45.17105" lon="2.60277">
        <ele>1005.4000244141</ele>
        <time>2024-01-31T08:02:45.000Z</time>
      </trkpt>
      <trkpt lat="45.17107" lon="2.60264">
        <ele>1006</ele>
        <time>2024-01-31T08:02:46.000Z</time>
      </trkpt>
      <trkpt lat="45.17109" lon="2.60252">
        <ele>1006.4000244141</ele>
        <time>2024-01-31T08:02:47.000Z</time>
      </trkpt>
      <trkpt lat="45.17111" lon="2.6024">
        <ele>1007.4000244141</ele>
        <time>2024-01-31T08:02:48.000Z</time>
      </trkpt>
      <trkpt lat="45.17115" lon="2.60229">
        <ele>1007.799987793</ele>
        <time>2024-01-31T08:02:49.000Z</time>
      </trkpt>
      <trkpt lat="45.17121" lon="2.60219">
        <ele>1008.5999755859</ele>
        <time>2024-01-31T08:02:50.000Z</time>
      </trkpt>
      <trkpt lat="45.17127" lon="2.60212">
        <ele>1009.200012207</ele>
        <time>2024-01-31T08:02:51.000Z</time>
      </trkpt>
      <trkpt lat="45.17135" lon="2.60207">
        <ele>1010.200012207</ele>
        <time>2024-01-31T08:02:52.000Z</time>
      </trkpt>
      <trkpt lat="45.17144" lon="2.60203">
        <ele>1011</ele>
        <time>2024-01-31T08:02:53.000Z</time>
      </trkpt>
      <trkpt lat="45.17164" lon="2.60195">
        <ele>1012.799987793</ele>
        <time>2024-01-31T08:02:55.000Z</time>
      </trkpt>
      <trkpt lat="45.17186" lon="2.60187">
        <ele>1014.4000244141</ele>
        <time>2024-01-31T08:02:57.000Z</time>
      </trkpt>
      <trkpt lat="45.17207" lon="2.60178">
        <ele>1015.5999755859</ele>
        <time>2024-01-31T08:02:59.000Z</time>
      </trkpt>
      <trkpt lat="45.17237" lon="2.60171">
        <ele>1016.799987793</ele>
        <time>2024-01-31T08:03:02.000Z</time>
      </trkpt>
      <trkpt lat="45.17244" lon="2.60171">
        <ele>1017.5999755859</ele>
        <time>2024-01-31T08:03:03.000Z</time>
      </trkpt>
      <trkpt lat="45.17254" lon="2.60172">
        <ele>1018.4000244141</ele>
        <time>2024-01-31T08:03:04.000Z</time>
      </trkpt>
      <trkpt lat="45.17262" lon="2.60177">
        <ele>1018.799987793</ele>
        <time>2024-01-31T08:03:05.000Z</time>
      </trkpt>
      <trkpt lat="45.17269" lon="2.60183">
        <ele>1019.799987793</ele>
        <time>2024-01-31T08:03:06.000Z</time>
      </trkpt>
      <trkpt lat="45.17285" lon="2.60196">
        <ele>1021</ele>
        <time>2024-01-31T08:03:08.000Z</time>
      </trkpt>
      <trkpt lat="45.17305" lon="2.60211">
        <ele>1022.4000244141</ele>
        <time>2024-01-31T08:03:10.000Z</time>
      </trkpt>
      <trkpt lat="45.17325" lon="2.60224">
        <ele>1024.1999511719</ele>
        <time>2024-01-31T08:03:12.000Z</time>
      </trkpt>
      <trkpt lat="45.17334" lon="2.6023">
        <ele>1025.1999511719</ele>
        <time>2024-01-31T08:03:13.000Z</time>
      </trkpt>
      <trkpt lat="45.17341" lon="2.60233">
        <ele>1026.4000244141</ele>
        <time>2024-01-31T08:03:14.000Z</time>
      </trkpt>
      <trkpt lat="45.17353" lon="2.60238">
        <ele>1027.1999511719</ele>
        <time>2024-01-31T08:03:15.000Z</time>
      </trkpt>
      <trkpt lat="45.17363" lon="2.60239">
        <ele>1028</ele>
        <time>2024-01-31T08:03:16.000Z</time>
      </trkpt>
      <trkpt lat="45.17372" lon="2.6024">
        <ele>1029.1999511719</ele>
        <time>2024-01-31T08:03:17.000Z</time>
      </trkpt>
      <trkpt lat="45.1738" lon="2.60242">
        <ele>1030.4000244141</ele>
        <time>2024-01-31T08:03:18.000Z</time>
      </trkpt>
      <trkpt lat="45.1739" lon="2.60244">
        <ele>1031</ele>
        <time>2024-01-31T08:03:19.000Z</time>
      </trkpt>
      <trkpt lat="45.17398" lon="2.60247">
        <ele>1031.8000488281</ele>
        <time>2024-01-31T08:03:20.000Z</time>
      </trkpt>
      <trkpt lat="45.17411" lon="2.60249">
        <ele>1032.8000488281</ele>
        <time>2024-01-31T08:03:22.000Z</time>
      </trkpt>
      <trkpt lat="45.17419" lon="2.60247">
        <ele>1033</ele>
        <time>2024-01-31T08:03:23.000Z</time>
      </trkpt>
      <trkpt lat="45.17425" lon="2.60241">
        <ele>1033.4000244141</ele>
        <time>2024-01-31T08:03:24.000Z</time>
      </trkpt>
      <trkpt lat="45.17439" lon="2.60224">
        <ele>1034.1999511719</ele>
        <time>2024-01-31T08:03:26.000Z</time>
      </trkpt>
      <trkpt lat="45.17447" lon="2.60215">
        <ele>1035.1999511719</ele>
        <time>2024-01-31T08:03:27.000Z</time>
      </trkpt>
      <trkpt lat="45.17465" lon="2.60199">
        <ele>1037</ele>
        <time>2024-01-31T08:03:29.000Z</time>
      </trkpt>
      <trkpt lat="45.17474" lon="2.6019">
        <ele>1038</ele>
        <time>2024-01-31T08:03:30.000Z</time>
      </trkpt>
      <trkpt lat="45.17481" lon="2.6018">
        <ele>1038.5999755859</ele>
        <time>2024-01-31T08:03:31.000Z</time>
      </trkpt>
      <trkpt lat="45.1749" lon="2.6017">
        <ele>1039.8000488281</ele>
        <time>2024-01-31T08:03:32.000Z</time>
      </trkpt>
      <trkpt lat="45.17509" lon="2.60154">
        <ele>1041.5999755859</ele>
        <time>2024-01-31T08:03:34.000Z</time>
      </trkpt>
      <trkpt lat="45.1753" lon="2.60141">
        <ele>1043.8000488281</ele>
        <time>2024-01-31T08:03:36.000Z</time>
      </trkpt>
      <trkpt lat="45.17541" lon="2.60135">
        <ele>1044.8000488281</ele>
        <time>2024-01-31T08:03:37.000Z</time>
      </trkpt>
      <trkpt lat="45.17563" lon="2.60123">
        <ele>1047</ele>
        <time>2024-01-31T08:03:39.000Z</time>
      </trkpt>
      <trkpt lat="45.17573" lon="2.60118">
        <ele>1048</ele>
        <time>2024-01-31T08:03:40.000Z</time>
      </trkpt>
      <trkpt lat="45.17584" lon="2.60114">
        <ele>1049.4000244141</ele>
        <time>2024-01-31T08:03:41.000Z</time>
      </trkpt>
      <trkpt lat="45.17594" lon="2.60109">
        <ele>1050.5999755859</ele>
        <time>2024-01-31T08:03:42.000Z</time>
      </trkpt>
      <trkpt lat="45.17604" lon="2.60105">
        <ele>1051.8000488281</ele>
        <time>2024-01-31T08:03:43.000Z</time>
      </trkpt>
      <trkpt lat="45.17615" lon="2.60101">
        <ele>1052.8000488281</ele>
        <time>2024-01-31T08:03:44.000Z</time>
      </trkpt>
      <trkpt lat="45.17634" lon="2.60097">
        <ele>1054.4000244141</ele>
        <time>2024-01-31T08:03:46.000Z</time>
      </trkpt>
      <trkpt lat="45.17644" lon="2.60097">
        <ele>1055.8000488281</ele>
        <time>2024-01-31T08:03:47.000Z</time>
      </trkpt>
      <trkpt lat="45.17654" lon="2.601">
        <ele>1056.4000244141</ele>
        <time>2024-01-31T08:03:48.000Z</time>
      </trkpt>
      <trkpt lat="45.17664" lon="2.60104">
        <ele>1057.4000244141</ele>
        <time>2024-01-31T08:03:49.000Z</time>
      </trkpt>
      <trkpt lat="45.17683" lon="2.60112">
        <ele>1059.4000244141</ele>
        <time>2024-01-31T08:03:51.000Z</time>
      </trkpt>
      <trkpt lat="45.17692" lon="2.60111">
        <ele>1060.4000244141</ele>
        <time>2024-01-31T08:03:52.000Z</time>
      </trkpt>
      <trkpt lat="45.17701" lon="2.60107">
        <ele>1061.4000244141</ele>
        <time>2024-01-31T08:03:53.000Z</time>
      </trkpt>
      <trkpt lat="45.1771" lon="2.60101">
        <ele>1062.5999755859</ele>
        <time>2024-01-31T08:03:54.000Z</time>
      </trkpt>
      <trkpt lat="45.1772" lon="2.60095">
        <ele>1063.4000244141</ele>
        <time>2024-01-31T08:03:55.000Z</time>
      </trkpt>
      <trkpt lat="45.17728" lon="2.60091">
        <ele>1064.5999755859</ele>
        <time>2024-01-31T08:03:56.000Z</time>
      </trkpt>
      <trkpt lat="45.17751" lon="2.6008">
        <ele>1067</ele>
        <time>2024-01-31T08:03:58.000Z</time>
      </trkpt>
      <trkpt lat="45.17763" lon="2.60076">
        <ele>1068.1999511719</ele>
        <time>2024-01-31T08:03:59.000Z</time>
      </trkpt>
      <trkpt lat="45.17774" lon="2.60073">
        <ele>1069.4000244141</ele>
        <time>2024-01-31T08:04:00.000Z</time>
      </trkpt>
      <trkpt lat="45.17797" lon="2.6007">
        <ele>1071.4000244141</ele>
        <time>2024-01-31T08:04:02.000Z</time>
      </trkpt>
      <trkpt lat="45.17809" lon="2.60069">
        <ele>1072.4000244141</ele>
        <time>2024-01-31T08:04:03.000Z</time>
      </trkpt>
      <trkpt lat="45.1782" lon="2.60066">
        <ele>1074</ele>
        <time>2024-01-31T08:04:04.000Z</time>
      </trkpt>
      <trkpt lat="45.17841" lon="2.60055">
        <ele>1076</ele>
        <time>2024-01-31T08:04:06.000Z</time>
      </trkpt>
      <trkpt lat="45.17851" lon="2.60046">
        <ele>1077.5999755859</ele>
        <time>2024-01-31T08:04:07.000Z</time>
      </trkpt>
      <trkpt lat="45.1786" lon="2.60037">
        <ele>1078.8000488281</ele>
        <time>2024-01-31T08:04:08.000Z</time>
      </trkpt>
      <trkpt lat="45.17879" lon="2.60018">
        <ele>1080.5999755859</ele>
        <time>2024-01-31T08:04:10.000Z</time>
      </trkpt>
      <trkpt lat="45.17888" lon="2.60009">
        <ele>1081.5999755859</ele>
        <time>2024-01-31T08:04:11.000Z</time>
      </trkpt>
      <trkpt lat="45.17903" lon="2.59994">
        <ele>1082.5999755859</ele>
        <time>2024-01-31T08:04:13.000Z</time>
      </trkpt>
      <trkpt lat="45.17909" lon="2.59987">
        <ele>1083.5999755859</ele>
        <time>2024-01-31T08:04:14.000Z</time>
      </trkpt>
      <trkpt lat="45.17914" lon="2.59982">
        <ele>1084.4000244141</ele>
        <time>2024-01-31T08:04:15.000Z</time>
      </trkpt>
      <trkpt lat="45.17921" lon="2.59975">
        <ele>1085.4000244141</ele>
        <time>2024-01-31T08:04:17.000Z</time>
      </trkpt>
      <trkpt lat="45.17923" lon="2.59972">
        <ele>1085.8000488281</ele>
        <time>2024-01-31T08:04:18.000Z</time>
      </trkpt>
      <trkpt lat="45.17925" lon="2.5997">
        <ele>1086.5999755859</ele>
        <time>2024-01-31T08:04:21.000Z</time>
      </trkpt>
      <trkpt lat="45.17925" lon="2.5997">
        <ele>1087</ele>
        <time>2024-01-31T08:04:24.000Z</time>
      </trkpt>
      <trkpt lat="45.17925" lon="2.5997">
        <ele>1087</ele>
        <time>2024-01-31T08:04:30.000Z</time>
      </trkpt>
      <trkpt lat="45.17932" lon="2.59964">
        <ele>1087.4000244141</ele>
        <time>2024-01-31T08:04:35.000Z</time>
      </trkpt>
      <trkpt lat="45.17944" lon="2.59954">
        <ele>1088</ele>
        <time>2024-01-31T08:04:38.000Z</time>
      </trkpt>
      <trkpt lat="45.17955" lon="2.59944">
        <ele>1089.5999755859</ele>
        <time>2024-01-31T08:04:40.000Z</time>
      </trkpt>
      <trkpt lat="45.17967" lon="2.59932">
        <ele>1091</ele>
        <time>2024-01-31T08:04:42.000Z</time>
      </trkpt>
      <trkpt lat="45.17982" lon="2.59915">
        <ele>1093</ele>
        <time>2024-01-31T08:04:44.000Z</time>
      </trkpt>
      <trkpt lat="45.18" lon="2.59896">
        <ele>1094.5999755859</ele>
        <time>2024-01-31T08:04:46.000Z</time>
      </trkpt>
      <trkpt lat="45.18018" lon="2.5988">
        <ele>1096.8000488281</ele>
        <time>2024-01-31T08:04:48.000Z</time>
      </trkpt>
      <trkpt lat="45.18028" lon="2.59873">
        <ele>1097.4000244141</ele>
        <time>2024-01-31T08:04:49.000Z</time>
      </trkpt>
      <trkpt lat="45.18036" lon="2.59868">
        <ele>1098.5999755859</ele>
        <time>2024-01-31T08:04:50.000Z</time>
      </trkpt>
      <trkpt lat="45.18047" lon="2.59862">
        <ele>1099.5999755859</ele>
        <time>2024-01-31T08:04:51.000Z</time>
      </trkpt>
      <trkpt lat="45.18068" lon="2.59853">
        <ele>1101.4000244141</ele>
        <time>2024-01-31T08:04:53.000Z</time>
      </trkpt>
      <trkpt lat="45.18078" lon="2.59849">
        <ele>1102.4000244141</ele>
        <time>2024-01-31T08:04:54.000Z</time>
      </trkpt>
      <trkpt lat="45.18088" lon="2.59845">
        <ele>1103.4000244141</ele>
        <time>2024-01-31T08:04:55.000Z</time>
      </trkpt>
      <trkpt lat="45.18109" lon="2.59838">
        <ele>1105.1999511719</ele>
        <time>2024-01-31T08:04:57.000Z</time>
      </trkpt>
      <trkpt lat="45.18131" lon="2.59831">
        <ele>1107.1999511719</ele>
        <time>2024-01-31T08:04:59.000Z</time>
      </trkpt>
      <trkpt lat="45.1815" lon="2.59829">
        <ele>1109.1999511719</ele>
        <time>2024-01-31T08:05:01.000Z</time>
      </trkpt>
      <trkpt lat="45.18173" lon="2.59828">
        <ele>1111.5999755859</ele>
        <time>2024-01-31T08:05:03.000Z</time>
      </trkpt>
      <trkpt lat="45.18193" lon="2.59831">
        <ele>1113.8000488281</ele>
        <time>2024-01-31T08:05:05.000Z</time>
      </trkpt>
      <trkpt lat="45.18203" lon="2.59833">
        <ele>1114.5999755859</ele>
        <time>2024-01-31T08:05:06.000Z</time>
      </trkpt>
      <trkpt lat="45.18216" lon="2.59835">
        <ele>1115.8000488281</ele>
        <time>2024-01-31T08:05:07.000Z</time>
      </trkpt>
      <trkpt lat="45.18236" lon="2.59837">
        <ele>1117.4000244141</ele>
        <time>2024-01-31T08:05:09.000Z</time>
      </trkpt>
      <trkpt lat="45.18246" lon="2.59838">
        <ele>1118.5999755859</ele>
        <time>2024-01-31T08:05:10.000Z</time>
      </trkpt>
      <trkpt lat="45.18257" lon="2.59841">
        <ele>1119.5999755859</ele>
        <time>2024-01-31T08:05:11.000Z</time>
      </trkpt>
      <trkpt lat="45.18268" lon="2.59846">
        <ele>1120.8000488281</ele>
        <time>2024-01-31T08:05:12.000Z</time>
      </trkpt>
      <trkpt lat="45.18286" lon="2.59861">
        <ele>1122.5999755859</ele>
        <time>2024-01-31T08:05:14.000Z</time>
      </trkpt>
      <trkpt lat="45.18302" lon="2.59881">
        <ele>1124</ele>
        <time>2024-01-31T08:05:16.000Z</time>
      </trkpt>
      <trkpt lat="45.18309" lon="2.59893">
        <ele>1125.1999511719</ele>
        <time>2024-01-31T08:05:17.000Z</time>
      </trkpt>
      <trkpt lat="45.18317" lon="2.59904">
        <ele>1126.4000244141</ele>
        <time>2024-01-31T08:05:18.000Z</time>
      </trkpt>
      <trkpt lat="45.18324" lon="2.59915">
        <ele>1127.5999755859</ele>
        <time>2024-01-31T08:05:19.000Z</time>
      </trkpt>
      <trkpt lat="45.18336" lon="2.59937">
        <ele>1129.8000488281</ele>
        <time>2024-01-31T08:05:21.000Z</time>
      </trkpt>
      <trkpt lat="45.1834" lon="2.5995">
        <ele>1131</ele>
        <time>2024-01-31T08:05:22.000Z</time>
      </trkpt>
      <trkpt lat="45.18342" lon="2.59964">
        <ele>1132</ele>
        <time>2024-01-31T08:05:23.000Z</time>
      </trkpt>
      <trkpt lat="45.18345" lon="2.5999">
        <ele>1134.8000488281</ele>
        <time>2024-01-31T08:05:25.000Z</time>
      </trkpt>
      <trkpt lat="45.18349" lon="2.60012">
        <ele>1136.4000244141</ele>
        <time>2024-01-31T08:05:27.000Z</time>
      </trkpt>
      <trkpt lat="45.18352" lon="2.60021">
        <ele>1137</ele>
        <time>2024-01-31T08:05:28.000Z</time>
      </trkpt>
      <trkpt lat="45.18356" lon="2.60027">
        <ele>1137.4000244141</ele>
        <time>2024-01-31T08:05:29.000Z</time>
      </trkpt>
      <trkpt lat="45.18367" lon="2.60033">
        <ele>1138.1999511719</ele>
        <time>2024-01-31T08:05:30.000Z</time>
      </trkpt>
      <trkpt lat="45.18376" lon="2.60036">
        <ele>1138.5999755859</ele>
        <time>2024-01-31T08:05:31.000Z</time>
      </trkpt>
      <trkpt lat="45.18386" lon="2.60037">
        <ele>1139.1999511719</ele>
        <time>2024-01-31T08:05:32.000Z</time>
      </trkpt>
      <trkpt lat="45.18397" lon="2.60035">
        <ele>1139.8000488281</ele>
        <time>2024-01-31T08:05:33.000Z</time>
      </trkpt>
      <trkpt lat="45.18419" lon="2.60025">
        <ele>1141.5999755859</ele>
        <time>2024-01-31T08:05:35.000Z</time>
      </trkpt>
      <trkpt lat="45.18431" lon="2.6002">
        <ele>1143</ele>
        <time>2024-01-31T08:05:36.000Z</time>
      </trkpt>
      <trkpt lat="45.18442" lon="2.60015">
        <ele>1144.1999511719</ele>
        <time>2024-01-31T08:05:37.000Z</time>
      </trkpt>
      <trkpt lat="45.18454" lon="2.60009">
        <ele>1145.5999755859</ele>
        <time>2024-01-31T08:05:38.000Z</time>
      </trkpt>
      <trkpt lat="45.18466" lon="2.60003">
        <ele>1146.5999755859</ele>
        <time>2024-01-31T08:05:39.000Z</time>
      </trkpt>
      <trkpt lat="45.18477" lon="2.59995">
        <ele>1148</ele>
        <time>2024-01-31T08:05:40.000Z</time>
      </trkpt>
      <trkpt lat="45.18488" lon="2.59985">
        <ele>1148.8000488281</ele>
        <time>2024-01-31T08:05:41.000Z</time>
      </trkpt>
      <trkpt lat="45.18498" lon="2.59975">
        <ele>1150</ele>
        <time>2024-01-31T08:05:42.000Z</time>
      </trkpt>
      <trkpt lat="45.18509" lon="2.59965">
        <ele>1151.1999511719</ele>
        <time>2024-01-31T08:05:43.000Z</time>
      </trkpt>
      <trkpt lat="45.18527" lon="2.59942">
        <ele>1152.5999755859</ele>
        <time>2024-01-31T08:05:45.000Z</time>
      </trkpt>
      <trkpt lat="45.18535" lon="2.59928">
        <ele>1154</ele>
        <time>2024-01-31T08:05:46.000Z</time>
      </trkpt>
      <trkpt lat="45.18549" lon="2.59899">
        <ele>1155.8000488281</ele>
        <time>2024-01-31T08:05:48.000Z</time>
      </trkpt>
      <trkpt lat="45.18566" lon="2.59871">
        <ele>1158</ele>
        <time>2024-01-31T08:05:50.000Z</time>
      </trkpt>
      <trkpt lat="45.18584" lon="2.5984">
        <ele>1160.1999511719</ele>
        <time>2024-01-31T08:05:52.000Z</time>
      </trkpt>
      <trkpt lat="45.18595" lon="2.59811">
        <ele>1161.5999755859</ele>
        <time>2024-01-31T08:05:54.000Z</time>
      </trkpt>
      <trkpt lat="45.18603" lon="2.59779">
        <ele>1162.8000488281</ele>
        <time>2024-01-31T08:05:56.000Z</time>
      </trkpt>
      <trkpt lat="45.18606" lon="2.59762">
        <ele>1164.1999511719</ele>
        <time>2024-01-31T08:05:57.000Z</time>
      </trkpt>
      <trkpt lat="45.18607" lon="2.59746">
        <ele>1165.1999511719</ele>
        <time>2024-01-31T08:05:58.000Z</time>
      </trkpt>
      <trkpt lat="45.18608" lon="2.59729">
        <ele>1166</ele>
        <time>2024-01-31T08:05:59.000Z</time>
      </trkpt>
      <trkpt lat="45.18609" lon="2.59697">
        <ele>1168.1999511719</ele>
        <time>2024-01-31T08:06:01.000Z</time>
      </trkpt>
      <trkpt lat="45.18613" lon="2.59665">
        <ele>1169.5999755859</ele>
        <time>2024-01-31T08:06:03.000Z</time>
      </trkpt>
      <trkpt lat="45.1862" lon="2.59632">
        <ele>1171.1999511719</ele>
        <time>2024-01-31T08:06:05.000Z</time>
      </trkpt>
      <trkpt lat="45.18627" lon="2.59601">
        <ele>1172.4000244141</ele>
        <time>2024-01-31T08:06:07.000Z</time>
      </trkpt>
      <trkpt lat="45.1863" lon="2.59585">
        <ele>1173.5999755859</ele>
        <time>2024-01-31T08:06:08.000Z</time>
      </trkpt>
      <trkpt lat="45.18632" lon="2.59569">
        <ele>1174.1999511719</ele>
        <time>2024-01-31T08:06:09.000Z</time>
      </trkpt>
      <trkpt lat="45.18632" lon="2.59554">
        <ele>1175</ele>
        <time>2024-01-31T08:06:10.000Z</time>
      </trkpt>
      <trkpt lat="45.18633" lon="2.59525">
        <ele>1176.5999755859</ele>
        <time>2024-01-31T08:06:12.000Z</time>
      </trkpt>
      <trkpt lat="45.18634" lon="2.59513">
        <ele>1177.4000244141</ele>
        <time>2024-01-31T08:06:13.000Z</time>
      </trkpt>
      <trkpt lat="45.18635" lon="2.59502">
        <ele>1178.4000244141</ele>
        <time>2024-01-31T08:06:14.000Z</time>
      </trkpt>
      <trkpt lat="45.1864" lon="2.59484">
        <ele>1179.4000244141</ele>
        <time>2024-01-31T08:06:16.000Z</time>
      </trkpt>
      <trkpt lat="45.18648" lon="2.59465">
        <ele>1180.8000488281</ele>
        <time>2024-01-31T08:06:18.000Z</time>
      </trkpt>
      <trkpt lat="45.1866" lon="2.59447">
        <ele>1182.1999511719</ele>
        <time>2024-01-31T08:06:20.000Z</time>
      </trkpt>
      <trkpt lat="45.18677" lon="2.59432">
        <ele>1183.8000488281</ele>
        <time>2024-01-31T08:06:22.000Z</time>
      </trkpt>
      <trkpt lat="45.18687" lon="2.59425">
        <ele>1184</ele>
        <time>2024-01-31T08:06:23.000Z</time>
      </trkpt>
      <trkpt lat="45.18696" lon="2.5942">
        <ele>1185</ele>
        <time>2024-01-31T08:06:24.000Z</time>
      </trkpt>
      <trkpt lat="45.18707" lon="2.59414">
        <ele>1186.1999511719</ele>
        <time>2024-01-31T08:06:25.000Z</time>
      </trkpt>
      <trkpt lat="45.18717" lon="2.59409">
        <ele>1187.4000244141</ele>
        <time>2024-01-31T08:06:26.000Z</time>
      </trkpt>
      <trkpt lat="45.18726" lon="2.59402">
        <ele>1188.1999511719</ele>
        <time>2024-01-31T08:06:27.000Z</time>
      </trkpt>
      <trkpt lat="45.18735" lon="2.59394">
        <ele>1189.1999511719</ele>
        <time>2024-01-31T08:06:28.000Z</time>
      </trkpt>
      <trkpt lat="45.18742" lon="2.59383">
        <ele>1190.4000244141</ele>
        <time>2024-01-31T08:06:29.000Z</time>
      </trkpt>
      <trkpt lat="45.18749" lon="2.59372">
        <ele>1191.5999755859</ele>
        <time>2024-01-31T08:06:30.000Z</time>
      </trkpt>
      <trkpt lat="45.18765" lon="2.59352">
        <ele>1193.5999755859</ele>
        <time>2024-01-31T08:06:32.000Z</time>
      </trkpt>
      <trkpt lat="45.18784" lon="2.59335">
        <ele>1195.5999755859</ele>
        <time>2024-01-31T08:06:34.000Z</time>
      </trkpt>
      <trkpt lat="45.18794" lon="2.59327">
        <ele>1197</ele>
        <time>2024-01-31T08:06:35.000Z</time>
      </trkpt>
      <trkpt lat="45.18803" lon="2.59321">
        <ele>1198</ele>
        <time>2024-01-31T08:06:36.000Z</time>
      </trkpt>
      <trkpt lat="45.18813" lon="2.59315">
        <ele>1199</ele>
        <time>2024-01-31T08:06:37.000Z</time>
      </trkpt>
      <trkpt lat="45.18832" lon="2.59306">
        <ele>1201.4000244141</ele>
        <time>2024-01-31T08:06:39.000Z</time>
      </trkpt>
      <trkpt lat="45.18852" lon="2.59293">
        <ele>1203</ele>
        <time>2024-01-31T08:06:41.000Z</time>
      </trkpt>
      <trkpt lat="45.18868" lon="2.59274">
        <ele>1205</ele>
        <time>2024-01-31T08:06:43.000Z</time>
      </trkpt>
      <trkpt lat="45.18883" lon="2.59253">
        <ele>1206.1999511719</ele>
        <time>2024-01-31T08:06:45.000Z</time>
      </trkpt>
      <trkpt lat="45.18892" lon="2.59244">
        <ele>1206.5999755859</ele>
        <time>2024-01-31T08:06:46.000Z</time>
      </trkpt>
      <trkpt lat="45.18902" lon="2.59238">
        <ele>1207.1999511719</ele>
        <time>2024-01-31T08:06:47.000Z</time>
      </trkpt>
      <trkpt lat="45.18912" lon="2.59233">
        <ele>1207.5999755859</ele>
        <time>2024-01-31T08:06:48.000Z</time>
      </trkpt>
      <trkpt lat="45.18935" lon="2.59229">
        <ele>1208.1999511719</ele>
        <time>2024-01-31T08:06:50.000Z</time>
      </trkpt>
      <trkpt lat="45.18957" lon="2.59228">
        <ele>1209</ele>
        <time>2024-01-31T08:06:52.000Z</time>
      </trkpt>
      <trkpt lat="45.18978" lon="2.59226">
        <ele>1209.4000244141</ele>
        <time>2024-01-31T08:06:54.000Z</time>
      </trkpt>
      <trkpt lat="45.18996" lon="2.59215">
        <ele>1210.4000244141</ele>
        <time>2024-01-31T08:06:56.000Z</time>
      </trkpt>
      <trkpt lat="45.19002" lon="2.59205">
        <ele>1211</ele>
        <time>2024-01-31T08:06:57.000Z</time>
      </trkpt>
      <trkpt lat="45.19015" lon="2.59181">
        <ele>1212.5999755859</ele>
        <time>2024-01-31T08:06:59.000Z</time>
      </trkpt>
      <trkpt lat="45.1903" lon="2.59155">
        <ele>1214.5999755859</ele>
        <time>2024-01-31T08:07:01.000Z</time>
      </trkpt>
      <trkpt lat="45.19045" lon="2.59133">
        <ele>1216.1999511719</ele>
        <time>2024-01-31T08:07:03.000Z</time>
      </trkpt>
      <trkpt lat="45.19054" lon="2.59124">
        <ele>1217</ele>
        <time>2024-01-31T08:07:04.000Z</time>
      </trkpt>
      <trkpt lat="45.19062" lon="2.59118">
        <ele>1217.8000488281</ele>
        <time>2024-01-31T08:07:05.000Z</time>
      </trkpt>
      <trkpt lat="45.19071" lon="2.59111">
        <ele>1218.4000244141</ele>
        <time>2024-01-31T08:07:06.000Z</time>
      </trkpt>
      <trkpt lat="45.19078" lon="2.59103">
        <ele>1218.8000488281</ele>
        <time>2024-01-31T08:07:07.000Z</time>
      </trkpt>
      <trkpt lat="45.19085" lon="2.59094">
        <ele>1220.4000244141</ele>
        <time>2024-01-31T08:07:08.000Z</time>
      </trkpt>
      <trkpt lat="45.19094" lon="2.59074">
        <ele>1221.5999755859</ele>
        <time>2024-01-31T08:07:10.000Z</time>
      </trkpt>
      <trkpt lat="45.19103" lon="2.59055">
        <ele>1222.5999755859</ele>
        <time>2024-01-31T08:07:12.000Z</time>
      </trkpt>
      <trkpt lat="45.19111" lon="2.59037">
        <ele>1223.8000488281</ele>
        <time>2024-01-31T08:07:14.000Z</time>
      </trkpt>
      <trkpt lat="45.19126" lon="2.59005">
        <ele>1225</ele>
        <time>2024-01-31T08:07:18.000Z</time>
      </trkpt>
      <trkpt lat="45.19147" lon="2.58966">
        <ele>1226</ele>
        <time>2024-01-31T08:07:24.000Z</time>
      </trkpt>
      <trkpt lat="45.19169" lon="2.58931">
        <ele>1226</ele>
        <time>2024-01-31T08:07:31.000Z</time>
      </trkpt>
      <trkpt lat="45.19179" lon="2.58918">
        <ele>1225.4000244141</ele>
        <time>2024-01-31T08:07:35.000Z</time>
      </trkpt>
      <trkpt lat="45.1919" lon="2.58907">
        <ele>1225</ele>
        <time>2024-01-31T08:07:39.000Z</time>
      </trkpt>
      <trkpt lat="45.19193" lon="2.58906">
        <ele>1224.8000488281</ele>
        <time>2024-01-31T08:07:40.000Z</time>
      </trkpt>
      <trkpt lat="45.19201" lon="2.58903">
        <ele>1223.8000488281</ele>
        <time>2024-01-31T08:07:43.000Z</time>
      </trkpt>
      <trkpt lat="45.19202" lon="2.58901">
        <ele>1223.8000488281</ele>
        <time>2024-01-31T08:07:44.000Z</time>
      </trkpt>
      <trkpt lat="45.19203" lon="2.58898">
        <ele>1223.4000244141</ele>
        <time>2024-01-31T08:07:45.000Z</time>
      </trkpt>
      <trkpt lat="45.19202" lon="2.58894">
        <ele>1223</ele>
        <time>2024-01-31T08:07:48.000Z</time>
      </trkpt>
      <trkpt lat="45.19201" lon="2.58892">
        <ele>1223</ele>
        <time>2024-01-31T08:07:49.000Z</time>
      </trkpt>
      <trkpt lat="45.19196" lon="2.5889">
        <ele>1222.8000488281</ele>
        <time>2024-01-31T08:07:51.000Z</time>
      </trkpt>
      <trkpt lat="45.19194" lon="2.58891">
        <ele>1223</ele>
        <time>2024-01-31T08:07:52.000Z</time>
      </trkpt>
      <trkpt lat="45.19184" lon="2.58907">
        <ele>1223.8000488281</ele>
        <time>2024-01-31T08:07:57.000Z</time>
      </trkpt>
      <trkpt lat="45.19172" lon="2.58926">
        <ele>1225</ele>
        <time>2024-01-31T08:08:01.000Z</time>
      </trkpt>
      <trkpt lat="45.19168" lon="2.58931">
        <ele>1225.4000244141</ele>
        <time>2024-01-31T08:08:02.000Z</time>
      </trkpt>
      <trkpt lat="45.19155" lon="2.58951">
        <ele>1225.5999755859</ele>
        <time>2024-01-31T08:08:07.000Z</time>
      </trkpt>
      <trkpt lat="45.19133" lon="2.58983">
        <ele>1225.1999511719</ele>
        <time>2024-01-31T08:08:15.000Z</time>
      </trkpt>
      <trkpt lat="45.1913" lon="2.58988">
        <ele>1224.8000488281</ele>
        <time>2024-01-31T08:08:19.000Z</time>
      </trkpt>
      <trkpt lat="45.19129" lon="2.58989">
        <ele>1224.8000488281</ele>
        <time>2024-01-31T08:08:28.000Z</time>
      </trkpt>
      <trkpt lat="45.19124" lon="2.59">
        <ele>1224.8000488281</ele>
        <time>2024-01-31T08:08:33.000Z</time>
      </trkpt>
      <trkpt lat="45.19113" lon="2.59025">
        <ele>1224</ele>
        <time>2024-01-31T08:08:40.000Z</time>
      </trkpt>
      <trkpt lat="45.19114" lon="2.59036">
        <ele>1223.4000244141</ele>
        <time>2024-01-31T08:08:44.000Z</time>
      </trkpt>
      <trkpt lat="45.19115" lon="2.59037">
        <ele>1223.1999511719</ele>
        <time>2024-01-31T08:08:48.000Z</time>
      </trkpt>
      <trkpt lat="45.19112" lon="2.59032">
        <ele>1223.4000244141</ele>
        <time>2024-01-31T08:08:55.000Z</time>
      </trkpt>
      <trkpt lat="45.19113" lon="2.59032">
        <ele>1223.4000244141</ele>
        <time>2024-01-31T08:08:58.000Z</time>
      </trkpt>
      <trkpt lat="45.19117" lon="2.59029">
        <ele>1223.4000244141</ele>
        <time>2024-01-31T08:09:00.000Z</time>
      </trkpt>
      <trkpt lat="45.19121" lon="2.59015">
        <ele>1223.5999755859</ele>
        <time>2024-01-31T08:09:06.000Z</time>
      </trkpt>
      <trkpt lat="45.19128" lon="2.58992">
        <ele>1224.4000244141</ele>
        <time>2024-01-31T08:09:12.000Z</time>
      </trkpt>
      <trkpt lat="45.19144" lon="2.58963">
        <ele>1225</ele>
        <time>2024-01-31T08:09:17.000Z</time>
      </trkpt>
      <trkpt lat="45.19168" lon="2.5893">
        <ele>1224.8000488281</ele>
        <time>2024-01-31T08:09:24.000Z</time>
      </trkpt>
      <trkpt lat="45.1918" lon="2.58916">
        <ele>1224</ele>
        <time>2024-01-31T08:09:29.000Z</time>
      </trkpt>
      <trkpt lat="45.1918" lon="2.58916">
        <ele>1224</ele>
        <time>2024-01-31T08:09:31.000Z</time>
      </trkpt>
      <trkpt lat="45.1918" lon="2.58916">
        <ele>1224</ele>
        <time>2024-01-31T08:09:34.000Z</time>
      </trkpt>
      <trkpt lat="45.1918" lon="2.58916">
        <ele>1223.8000488281</ele>
        <time>2024-01-31T08:09:44.000Z</time>
      </trkpt>
      <trkpt lat="45.1918" lon="2.58916">
        <ele>1223.5999755859</ele>
        <time>2024-01-31T08:10:02.000Z</time>
      </trkpt>
      <trkpt lat="45.1918" lon="2.58916">
        <ele>1223.5999755859</ele>
        <time>2024-01-31T08:10:13.000Z</time>
      </trkpt>
      <trkpt lat="45.1918" lon="2.58916">
        <ele>1223.5999755859</ele>
        <time>2024-01-31T08:10:34.000Z</time>
      </trkpt>
      <trkpt lat="45.1918" lon="2.58916">
        <ele>1223.5999755859</ele>
        <time>2024-01-31T08:10:51.000Z</time>
      </trkpt>
      <trkpt lat="45.1918" lon="2.58916">
        <ele>1223.5999755859</ele>
        <time>2024-01-31T08:11:04.000Z</time>
      </trkpt>
      <trkpt lat="45.1918" lon="2.58916">
        <ele>1223.5999755859</ele>
        <time>2024-01-31T08:11:18.000Z</time>
      </trkpt>
      <trkpt lat="45.1918" lon="2.58916">
        <ele>1223.5999755859</ele>
        <time>2024-01-31T08:11:30.000Z</time>
      </trkpt>
      <trkpt lat="45.1918" lon="2.58916">
        <ele>1223.5999755859</ele>
        <time>2024-01-31T08:11:49.000Z</time>
      </trkpt>
      <trkpt lat="45.1918" lon="2.58916">
        <ele>1223.5999755859</ele>
        <time>2024-01-31T08:12:03.000Z</time>
      </trkpt>
      <trkpt lat="45.1918" lon="2.58916">
        <ele>1223.5999755859</ele>
        <time>2024-01-31T08:12:22.000Z</time>
      </trkpt>
      <trkpt lat="45.1918" lon="2.58916">
        <ele>1223.5999755859</ele>
        <time>2024-01-31T08:12:38.000Z</time>
      </trkpt>
      <trkpt lat="45.19185" lon="2.5891">
        <ele>1223.8000488281</ele>
        <time>2024-01-31T08:12:48.000Z</time>
      </trkpt>
      <trkpt lat="45.19196" lon="2.58893">
        <ele>1223</ele>
        <time>2024-01-31T08:12:52.000Z</time>
      </trkpt>
      <trkpt lat="45.19211" lon="2.58867">
        <ele>1221.5999755859</ele>
        <time>2024-01-31T08:12:56.000Z</time>
      </trkpt>
      <trkpt lat="45.19215" lon="2.58859">
        <ele>1221.1999511719</ele>
        <time>2024-01-31T08:12:57.000Z</time>
      </trkpt>
      <trkpt lat="45.1922" lon="2.58852">
        <ele>1220.4000244141</ele>
        <time>2024-01-31T08:12:58.000Z</time>
      </trkpt>
      <trkpt lat="45.1923" lon="2.58834">
        <ele>1219.4000244141</ele>
        <time>2024-01-31T08:13:00.000Z</time>
      </trkpt>
      <trkpt lat="45.19241" lon="2.58816">
        <ele>1218.8000488281</ele>
        <time>2024-01-31T08:13:02.000Z</time>
      </trkpt>
      <trkpt lat="45.19247" lon="2.58807">
        <ele>1218</ele>
        <time>2024-01-31T08:13:03.000Z</time>
      </trkpt>
      <trkpt lat="45.19264" lon="2.58777">
        <ele>1216.8000488281</ele>
        <time>2024-01-31T08:13:06.000Z</time>
      </trkpt>
      <trkpt lat="45.19276" lon="2.58758">
        <ele>1215.5999755859</ele>
        <time>2024-01-31T08:13:08.000Z</time>
      </trkpt>
      <trkpt lat="45.19282" lon="2.58748">
        <ele>1215</ele>
        <time>2024-01-31T08:13:09.000Z</time>
      </trkpt>
      <trkpt lat="45.19292" lon="2.58729">
        <ele>1214.1999511719</ele>
        <time>2024-01-31T08:13:11.000Z</time>
      </trkpt>
      <trkpt lat="45.19307" lon="2.58703">
        <ele>1213</ele>
        <time>2024-01-31T08:13:14.000Z</time>
      </trkpt>
      <trkpt lat="45.19312" lon="2.58695">
        <ele>1212.5999755859</ele>
        <time>2024-01-31T08:13:15.000Z</time>
      </trkpt>
      <trkpt lat="45.19329" lon="2.58667">
        <ele>1211.8000488281</ele>
        <time>2024-01-31T08:13:19.000Z</time>
      </trkpt>
      <trkpt lat="45.19337" lon="2.58654">
        <ele>1211.1999511719</ele>
        <time>2024-01-31T08:13:21.000Z</time>
      </trkpt>
      <trkpt lat="45.19345" lon="2.58641">
        <ele>1210.8000488281</ele>
        <time>2024-01-31T08:13:23.000Z</time>
      </trkpt>
      <trkpt lat="45.19362" lon="2.58612">
        <ele>1209.5999755859</ele>
        <time>2024-01-31T08:13:28.000Z</time>
      </trkpt>
      <trkpt lat="45.1938" lon="2.5859">
        <ele>1208.8000488281</ele>
        <time>2024-01-31T08:13:33.000Z</time>
      </trkpt>
      <trkpt lat="45.19384" lon="2.58586">
        <ele>1208.8000488281</ele>
        <time>2024-01-31T08:13:34.000Z</time>
      </trkpt>
      <trkpt lat="45.1939" lon="2.58583">
        <ele>1208.8000488281</ele>
        <time>2024-01-31T08:13:35.000Z</time>
      </trkpt>
      <trkpt lat="45.19404" lon="2.58578">
        <ele>1208.5999755859</ele>
        <time>2024-01-31T08:13:37.000Z</time>
      </trkpt>
      <trkpt lat="45.19412" lon="2.58575">
        <ele>1208.4000244141</ele>
        <time>2024-01-31T08:13:38.000Z</time>
      </trkpt>
      <trkpt lat="45.1945" lon="2.5857">
        <ele>1207.8000488281</ele>
        <time>2024-01-31T08:13:42.000Z</time>
      </trkpt>
      <trkpt lat="45.1946" lon="2.58568">
        <ele>1207.5999755859</ele>
        <time>2024-01-31T08:13:43.000Z</time>
      </trkpt>
      <trkpt lat="45.19481" lon="2.58561">
        <ele>1207</ele>
        <time>2024-01-31T08:13:45.000Z</time>
      </trkpt>
      <trkpt lat="45.19491" lon="2.58555">
        <ele>1206.5999755859</ele>
        <time>2024-01-31T08:13:46.000Z</time>
      </trkpt>
      <trkpt lat="45.19501" lon="2.58549">
        <ele>1206.4000244141</ele>
        <time>2024-01-31T08:13:47.000Z</time>
      </trkpt>
      <trkpt lat="45.19543" lon="2.58522">
        <ele>1205.8000488281</ele>
        <time>2024-01-31T08:13:51.000Z</time>
      </trkpt>
      <trkpt lat="45.19566" lon="2.58517">
        <ele>1205.5999755859</ele>
        <time>2024-01-31T08:13:53.000Z</time>
      </trkpt>
      <trkpt lat="45.19577" lon="2.58517">
        <ele>1205.4000244141</ele>
        <time>2024-01-31T08:13:54.000Z</time>
      </trkpt>
      <trkpt lat="45.19588" lon="2.58516">
        <ele>1205</ele>
        <time>2024-01-31T08:13:55.000Z</time>
      </trkpt>
      <trkpt lat="45.19611" lon="2.5851">
        <ele>1204.1999511719</ele>
        <time>2024-01-31T08:13:57.000Z</time>
      </trkpt>
      <trkpt lat="45.19635" lon="2.58497">
        <ele>1202.5999755859</ele>
        <time>2024-01-31T08:13:59.000Z</time>
      </trkpt>
      <trkpt lat="45.1966" lon="2.58484">
        <ele>1201.5999755859</ele>
        <time>2024-01-31T08:14:01.000Z</time>
      </trkpt>
      <trkpt lat="45.19673" lon="2.58479">
        <ele>1201.4000244141</ele>
        <time>2024-01-31T08:14:02.000Z</time>
      </trkpt>
      <trkpt lat="45.19701" lon="2.5847">
        <ele>1200.4000244141</ele>
        <time>2024-01-31T08:14:04.000Z</time>
      </trkpt>
      <trkpt lat="45.19729" lon="2.58463">
        <ele>1199</ele>
        <time>2024-01-31T08:14:06.000Z</time>
      </trkpt>
      <trkpt lat="45.19756" lon="2.5846">
        <ele>1197.8000488281</ele>
        <time>2024-01-31T08:14:08.000Z</time>
      </trkpt>
      <trkpt lat="45.19783" lon="2.58457">
        <ele>1196.4000244141</ele>
        <time>2024-01-31T08:14:10.000Z</time>
      </trkpt>
      <trkpt lat="45.19812" lon="2.58453">
        <ele>1194.8000488281</ele>
        <time>2024-01-31T08:14:12.000Z</time>
      </trkpt>
      <trkpt lat="45.1984" lon="2.58445">
        <ele>1193.1999511719</ele>
        <time>2024-01-31T08:14:14.000Z</time>
      </trkpt>
      <trkpt lat="45.19867" lon="2.58435">
        <ele>1192</ele>
        <time>2024-01-31T08:14:16.000Z</time>
      </trkpt>
      <trkpt lat="45.1988" lon="2.58431">
        <ele>1191.1999511719</ele>
        <time>2024-01-31T08:14:17.000Z</time>
      </trkpt>
      <trkpt lat="45.19894" lon="2.58427">
        <ele>1190.5999755859</ele>
        <time>2024-01-31T08:14:18.000Z</time>
      </trkpt>
      <trkpt lat="45.19923" lon="2.58422">
        <ele>1188.8000488281</ele>
        <time>2024-01-31T08:14:20.000Z</time>
      </trkpt>
      <trkpt lat="45.19951" lon="2.58422">
        <ele>1187.1999511719</ele>
        <time>2024-01-31T08:14:22.000Z</time>
      </trkpt>
      <trkpt lat="45.19978" lon="2.58426">
        <ele>1185.1999511719</ele>
        <time>2024-01-31T08:14:24.000Z</time>
      </trkpt>
      <trkpt lat="45.20004" lon="2.58434">
        <ele>1183.5999755859</ele>
        <time>2024-01-31T08:14:26.000Z</time>
      </trkpt>
      <trkpt lat="45.20017" lon="2.58439">
        <ele>1182.8000488281</ele>
        <time>2024-01-31T08:14:27.000Z</time>
      </trkpt>
      <trkpt lat="45.2003" lon="2.58446">
        <ele>1182.1999511719</ele>
        <time>2024-01-31T08:14:28.000Z</time>
      </trkpt>
      <trkpt lat="45.20042" lon="2.58454">
        <ele>1181.4000244141</ele>
        <time>2024-01-31T08:14:29.000Z</time>
      </trkpt>
      <trkpt lat="45.20054" lon="2.58464">
        <ele>1180.1999511719</ele>
        <time>2024-01-31T08:14:30.000Z</time>
      </trkpt>
      <trkpt lat="45.20075" lon="2.58486">
        <ele>1178.5999755859</ele>
        <time>2024-01-31T08:14:32.000Z</time>
      </trkpt>
      <trkpt lat="45.20097" lon="2.58509">
        <ele>1177</ele>
        <time>2024-01-31T08:14:34.000Z</time>
      </trkpt>
      <trkpt lat="45.20122" lon="2.5853">
        <ele>1174.8000488281</ele>
        <time>2024-01-31T08:14:36.000Z</time>
      </trkpt>
      <trkpt lat="45.20146" lon="2.58551">
        <ele>1173.5999755859</ele>
        <time>2024-01-31T08:14:38.000Z</time>
      </trkpt>
      <trkpt lat="45.20157" lon="2.58564">
        <ele>1172.8000488281</ele>
        <time>2024-01-31T08:14:39.000Z</time>
      </trkpt>
      <trkpt lat="45.20167" lon="2.58577">
        <ele>1172</ele>
        <time>2024-01-31T08:14:40.000Z</time>
      </trkpt>
      <trkpt lat="45.20176" lon="2.58591">
        <ele>1171</ele>
        <time>2024-01-31T08:14:41.000Z</time>
      </trkpt>
      <trkpt lat="45.20192" lon="2.5862">
        <ele>1169</ele>
        <time>2024-01-31T08:14:43.000Z</time>
      </trkpt>
      <trkpt lat="45.202" lon="2.58634">
        <ele>1168</ele>
        <time>2024-01-31T08:14:44.000Z</time>
      </trkpt>
      <trkpt lat="45.20207" lon="2.58648">
        <ele>1166.5999755859</ele>
        <time>2024-01-31T08:14:45.000Z</time>
      </trkpt>
      <trkpt lat="45.20213" lon="2.58676">
        <ele>1166</ele>
        <time>2024-01-31T08:14:47.000Z</time>
      </trkpt>
      <trkpt lat="45.20215" lon="2.5869">
        <ele>1165.1999511719</ele>
        <time>2024-01-31T08:14:48.000Z</time>
      </trkpt>
      <trkpt lat="45.20218" lon="2.58702">
        <ele>1164.4000244141</ele>
        <time>2024-01-31T08:14:49.000Z</time>
      </trkpt>
      <trkpt lat="45.20222" lon="2.58713">
        <ele>1163.5999755859</ele>
        <time>2024-01-31T08:14:50.000Z</time>
      </trkpt>
      <trkpt lat="45.20229" lon="2.58721">
        <ele>1163</ele>
        <time>2024-01-31T08:14:51.000Z</time>
      </trkpt>
      <trkpt lat="45.20237" lon="2.58729">
        <ele>1162.4000244141</ele>
        <time>2024-01-31T08:14:52.000Z</time>
      </trkpt>
      <trkpt lat="45.20246" lon="2.58735">
        <ele>1161.5999755859</ele>
        <time>2024-01-31T08:14:53.000Z</time>
      </trkpt>
      <trkpt lat="45.20254" lon="2.58743">
        <ele>1161.1999511719</ele>
        <time>2024-01-31T08:14:54.000Z</time>
      </trkpt>
      <trkpt lat="45.20271" lon="2.58764">
        <ele>1159.8000488281</ele>
        <time>2024-01-31T08:14:56.000Z</time>
      </trkpt>
      <trkpt lat="45.20289" lon="2.58787">
        <ele>1158.4000244141</ele>
        <time>2024-01-31T08:14:58.000Z</time>
      </trkpt>
      <trkpt lat="45.20299" lon="2.58797">
        <ele>1157.4000244141</ele>
        <time>2024-01-31T08:14:59.000Z</time>
      </trkpt>
      <trkpt lat="45.20318" lon="2.58815">
        <ele>1156</ele>
        <time>2024-01-31T08:15:01.000Z</time>
      </trkpt>
      <trkpt lat="45.20326" lon="2.58824">
        <ele>1154.8000488281</ele>
        <time>2024-01-31T08:15:02.000Z</time>
      </trkpt>
      <trkpt lat="45.20333" lon="2.58835">
        <ele>1154</ele>
        <time>2024-01-31T08:15:03.000Z</time>
      </trkpt>
      <trkpt lat="45.20339" lon="2.58847">
        <ele>1153.1999511719</ele>
        <time>2024-01-31T08:15:04.000Z</time>
      </trkpt>
      <trkpt lat="45.20348" lon="2.58877">
        <ele>1151.8000488281</ele>
        <time>2024-01-31T08:15:06.000Z</time>
      </trkpt>
      <trkpt lat="45.20355" lon="2.58909">
        <ele>1150.1999511719</ele>
        <time>2024-01-31T08:15:08.000Z</time>
      </trkpt>
      <trkpt lat="45.20362" lon="2.58943">
        <ele>1148.4000244141</ele>
        <time>2024-01-31T08:15:10.000Z</time>
      </trkpt>
      <trkpt lat="45.20366" lon="2.58961">
        <ele>1147.1999511719</ele>
        <time>2024-01-31T08:15:11.000Z</time>
      </trkpt>
      <trkpt lat="45.2037" lon="2.58977">
        <ele>1147</ele>
        <time>2024-01-31T08:15:12.000Z</time>
      </trkpt>
      <trkpt lat="45.20376" lon="2.58994">
        <ele>1146</ele>
        <time>2024-01-31T08:15:13.000Z</time>
      </trkpt>
      <trkpt lat="45.20382" lon="2.5901">
        <ele>1144.1999511719</ele>
        <time>2024-01-31T08:15:14.000Z</time>
      </trkpt>
      <trkpt lat="45.20394" lon="2.59043">
        <ele>1142.4000244141</ele>
        <time>2024-01-31T08:15:16.000Z</time>
      </trkpt>
      <trkpt lat="45.20402" lon="2.59078">
        <ele>1140.1999511719</ele>
        <time>2024-01-31T08:15:18.000Z</time>
      </trkpt>
      <trkpt lat="45.20408" lon="2.59115">
        <ele>1138.5999755859</ele>
        <time>2024-01-31T08:15:20.000Z</time>
      </trkpt>
      <trkpt lat="45.20414" lon="2.59152">
        <ele>1136.5999755859</ele>
        <time>2024-01-31T08:15:22.000Z</time>
      </trkpt>
      <trkpt lat="45.20417" lon="2.5917">
        <ele>1135.1999511719</ele>
        <time>2024-01-31T08:15:23.000Z</time>
      </trkpt>
      <trkpt lat="45.20418" lon="2.59186">
        <ele>1134.4000244141</ele>
        <time>2024-01-31T08:15:24.000Z</time>
      </trkpt>
      <trkpt lat="45.2042" lon="2.59201">
        <ele>1133.5999755859</ele>
        <time>2024-01-31T08:15:25.000Z</time>
      </trkpt>
      <trkpt lat="45.20422" lon="2.59229">
        <ele>1131.5999755859</ele>
        <time>2024-01-31T08:15:27.000Z</time>
      </trkpt>
      <trkpt lat="45.20424" lon="2.5924">
        <ele>1130.4000244141</ele>
        <time>2024-01-31T08:15:28.000Z</time>
      </trkpt>
      <trkpt lat="45.20426" lon="2.5925">
        <ele>1129.8000488281</ele>
        <time>2024-01-31T08:15:29.000Z</time>
      </trkpt>
      <trkpt lat="45.20435" lon="2.59265">
        <ele>1128.5999755859</ele>
        <time>2024-01-31T08:15:31.000Z</time>
      </trkpt>
      <trkpt lat="45.20448" lon="2.59274">
        <ele>1128.4000244141</ele>
        <time>2024-01-31T08:15:33.000Z</time>
      </trkpt>
      <trkpt lat="45.20462" lon="2.59276">
        <ele>1128</ele>
        <time>2024-01-31T08:15:35.000Z</time>
      </trkpt>
      <trkpt lat="45.20473" lon="2.59267">
        <ele>1127.1999511719</ele>
        <time>2024-01-31T08:15:37.000Z</time>
      </trkpt>
      <trkpt lat="45.20477" lon="2.59259">
        <ele>1126.8000488281</ele>
        <time>2024-01-31T08:15:38.000Z</time>
      </trkpt>
      <trkpt lat="45.20479" lon="2.59247">
        <ele>1126.8000488281</ele>
        <time>2024-01-31T08:15:39.000Z</time>
      </trkpt>
      <trkpt lat="45.20482" lon="2.59218">
        <ele>1126.8000488281</ele>
        <time>2024-01-31T08:15:41.000Z</time>
      </trkpt>
      <trkpt lat="45.20483" lon="2.59207">
        <ele>1126.5999755859</ele>
        <time>2024-01-31T08:15:42.000Z</time>
      </trkpt>
      <trkpt lat="45.20484" lon="2.59192">
        <ele>1126.1999511719</ele>
        <time>2024-01-31T08:15:43.000Z</time>
      </trkpt>
      <trkpt lat="45.20487" lon="2.59173">
        <ele>1126</ele>
        <time>2024-01-31T08:15:44.000Z</time>
      </trkpt>
      <trkpt lat="45.20495" lon="2.59121">
        <ele>1125.1999511719</ele>
        <time>2024-01-31T08:15:47.000Z</time>
      </trkpt>
      <trkpt lat="45.20498" lon="2.59106">
        <ele>1124.4000244141</ele>
        <time>2024-01-31T08:15:48.000Z</time>
      </trkpt>
      <trkpt lat="45.20502" lon="2.59089">
        <ele>1123.8000488281</ele>
        <time>2024-01-31T08:15:49.000Z</time>
      </trkpt>
      <trkpt lat="45.20514" lon="2.59041">
        <ele>1122</ele>
        <time>2024-01-31T08:15:52.000Z</time>
      </trkpt>
      <trkpt lat="45.20527" lon="2.5901">
        <ele>1120.4000244141</ele>
        <time>2024-01-31T08:15:54.000Z</time>
      </trkpt>
      <trkpt lat="45.20542" lon="2.58978">
        <ele>1118.4000244141</ele>
        <time>2024-01-31T08:15:56.000Z</time>
      </trkpt>
      <trkpt lat="45.20549" lon="2.58964">
        <ele>1118</ele>
        <time>2024-01-31T08:15:57.000Z</time>
      </trkpt>
      <trkpt lat="45.20557" lon="2.58952">
        <ele>1116.8000488281</ele>
        <time>2024-01-31T08:15:58.000Z</time>
      </trkpt>
      <trkpt lat="45.20567" lon="2.58944">
        <ele>1116</ele>
        <time>2024-01-31T08:15:59.000Z</time>
      </trkpt>
      <trkpt lat="45.20577" lon="2.58939">
        <ele>1115.8000488281</ele>
        <time>2024-01-31T08:16:00.000Z</time>
      </trkpt>
      <trkpt lat="45.20593" lon="2.5892">
        <ele>1115.1999511719</ele>
        <time>2024-01-31T08:16:02.000Z</time>
      </trkpt>
      <trkpt lat="45.20598" lon="2.5891">
        <ele>1115</ele>
        <time>2024-01-31T08:16:03.000Z</time>
      </trkpt>
      <trkpt lat="45.2061" lon="2.58881">
        <ele>1114.5999755859</ele>
        <time>2024-01-31T08:16:05.000Z</time>
      </trkpt>
      <trkpt lat="45.20619" lon="2.58855">
        <ele>1114.1999511719</ele>
        <time>2024-01-31T08:16:07.000Z</time>
      </trkpt>
      <trkpt lat="45.20626" lon="2.58823">
        <ele>1112.4000244141</ele>
        <time>2024-01-31T08:16:09.000Z</time>
      </trkpt>
      <trkpt lat="45.2063" lon="2.58805">
        <ele>1111.4000244141</ele>
        <time>2024-01-31T08:16:10.000Z</time>
      </trkpt>
      <trkpt lat="45.20635" lon="2.5879">
        <ele>1110.5999755859</ele>
        <time>2024-01-31T08:16:11.000Z</time>
      </trkpt>
      <trkpt lat="45.2064" lon="2.5878">
        <ele>1109.5999755859</ele>
        <time>2024-01-31T08:16:12.000Z</time>
      </trkpt>
      <trkpt lat="45.20648" lon="2.58766">
        <ele>1108.8000488281</ele>
        <time>2024-01-31T08:16:13.000Z</time>
      </trkpt>
      <trkpt lat="45.20655" lon="2.58758">
        <ele>1108</ele>
        <time>2024-01-31T08:16:14.000Z</time>
      </trkpt>
      <trkpt lat="45.20665" lon="2.5875">
        <ele>1107.1999511719</ele>
        <time>2024-01-31T08:16:15.000Z</time>
      </trkpt>
      <trkpt lat="45.20678" lon="2.58742">
        <ele>1107</ele>
        <time>2024-01-31T08:16:16.000Z</time>
      </trkpt>
      <trkpt lat="45.20689" lon="2.58736">
        <ele>1106.4000244141</ele>
        <time>2024-01-31T08:16:17.000Z</time>
      </trkpt>
      <trkpt lat="45.207" lon="2.58729">
        <ele>1105.5999755859</ele>
        <time>2024-01-31T08:16:18.000Z</time>
      </trkpt>
      <trkpt lat="45.2071" lon="2.5872">
        <ele>1104.8000488281</ele>
        <time>2024-01-31T08:16:19.000Z</time>
      </trkpt>
      <trkpt lat="45.2072" lon="2.5871">
        <ele>1104</ele>
        <time>2024-01-31T08:16:20.000Z</time>
      </trkpt>
      <trkpt lat="45.2073" lon="2.58698">
        <ele>1103</ele>
        <time>2024-01-31T08:16:21.000Z</time>
      </trkpt>
      <trkpt lat="45.20748" lon="2.58675">
        <ele>1101.5999755859</ele>
        <time>2024-01-31T08:16:23.000Z</time>
      </trkpt>
      <trkpt lat="45.20758" lon="2.58666">
        <ele>1101</ele>
        <time>2024-01-31T08:16:24.000Z</time>
      </trkpt>
      <trkpt lat="45.20768" lon="2.58657">
        <ele>1099.8000488281</ele>
        <time>2024-01-31T08:16:25.000Z</time>
      </trkpt>
      <trkpt lat="45.20779" lon="2.58646">
        <ele>1098.1999511719</ele>
        <time>2024-01-31T08:16:26.000Z</time>
      </trkpt>
      <trkpt lat="45.20789" lon="2.58634">
        <ele>1097</ele>
        <time>2024-01-31T08:16:27.000Z</time>
      </trkpt>
      <trkpt lat="45.20799" lon="2.58621">
        <ele>1095.8000488281</ele>
        <time>2024-01-31T08:16:28.000Z</time>
      </trkpt>
      <trkpt lat="45.20815" lon="2.58597">
        <ele>1094.4000244141</ele>
        <time>2024-01-31T08:16:30.000Z</time>
      </trkpt>
      <trkpt lat="45.20833" lon="2.58567">
        <ele>1093.4000244141</ele>
        <time>2024-01-31T08:16:32.000Z</time>
      </trkpt>
      <trkpt lat="45.2084" lon="2.58551">
        <ele>1092.5999755859</ele>
        <time>2024-01-31T08:16:33.000Z</time>
      </trkpt>
      <trkpt lat="45.20851" lon="2.58502">
        <ele>1090.8000488281</ele>
        <time>2024-01-31T08:16:36.000Z</time>
      </trkpt>
      <trkpt lat="45.20862" lon="2.58472">
        <ele>1089.5999755859</ele>
        <time>2024-01-31T08:16:38.000Z</time>
      </trkpt>
      <trkpt lat="45.20882" lon="2.58427">
        <ele>1088</ele>
        <time>2024-01-31T08:16:41.000Z</time>
      </trkpt>
      <trkpt lat="45.20896" lon="2.58399">
        <ele>1087</ele>
        <time>2024-01-31T08:16:43.000Z</time>
      </trkpt>
      <trkpt lat="45.20903" lon="2.58386">
        <ele>1086.4000244141</ele>
        <time>2024-01-31T08:16:44.000Z</time>
      </trkpt>
      <trkpt lat="45.20915" lon="2.58357">
        <ele>1085.4000244141</ele>
        <time>2024-01-31T08:16:46.000Z</time>
      </trkpt>
      <trkpt lat="45.20921" lon="2.58342">
        <ele>1085</ele>
        <time>2024-01-31T08:16:47.000Z</time>
      </trkpt>
      <trkpt lat="45.20932" lon="2.58312">
        <ele>1084</ele>
        <time>2024-01-31T08:16:49.000Z</time>
      </trkpt>
      <trkpt lat="45.20944" lon="2.58282">
        <ele>1082.5999755859</ele>
        <time>2024-01-31T08:16:51.000Z</time>
      </trkpt>
      <trkpt lat="45.20957" lon="2.58255">
        <ele>1082</ele>
        <time>2024-01-31T08:16:53.000Z</time>
      </trkpt>
      <trkpt lat="45.20966" lon="2.58244">
        <ele>1081.4000244141</ele>
        <time>2024-01-31T08:16:54.000Z</time>
      </trkpt>
      <trkpt lat="45.20976" lon="2.58233">
        <ele>1080.5999755859</ele>
        <time>2024-01-31T08:16:55.000Z</time>
      </trkpt>
      <trkpt lat="45.20986" lon="2.58223">
        <ele>1080.4000244141</ele>
        <time>2024-01-31T08:16:56.000Z</time>
      </trkpt>
      <trkpt lat="45.21008" lon="2.58203">
        <ele>1079.1999511719</ele>
        <time>2024-01-31T08:16:58.000Z</time>
      </trkpt>
      <trkpt lat="45.21027" lon="2.58185">
        <ele>1078</ele>
        <time>2024-01-31T08:17:00.000Z</time>
      </trkpt>
      <trkpt lat="45.21052" lon="2.58168">
        <ele>1076.8000488281</ele>
        <time>2024-01-31T08:17:02.000Z</time>
      </trkpt>
      <trkpt lat="45.21076" lon="2.58156">
        <ele>1075.5999755859</ele>
        <time>2024-01-31T08:17:04.000Z</time>
      </trkpt>
      <trkpt lat="45.21095" lon="2.5814">
        <ele>1074.8000488281</ele>
        <time>2024-01-31T08:17:06.000Z</time>
      </trkpt>
      <trkpt lat="45.21108" lon="2.58128">
        <ele>1074</ele>
        <time>2024-01-31T08:17:07.000Z</time>
      </trkpt>
      <trkpt lat="45.21137" lon="2.58093">
        <ele>1072.8000488281</ele>
        <time>2024-01-31T08:17:10.000Z</time>
      </trkpt>
      <trkpt lat="45.21155" lon="2.58069">
        <ele>1072.4000244141</ele>
        <time>2024-01-31T08:17:12.000Z</time>
      </trkpt>
      <trkpt lat="45.21163" lon="2.58055">
        <ele>1072</ele>
        <time>2024-01-31T08:17:13.000Z</time>
      </trkpt>
      <trkpt lat="45.21169" lon="2.58043">
        <ele>1071.8000488281</ele>
        <time>2024-01-31T08:17:14.000Z</time>
      </trkpt>
      <trkpt lat="45.21184" lon="2.5801">
        <ele>1071.1999511719</ele>
        <time>2024-01-31T08:17:16.000Z</time>
      </trkpt>
      <trkpt lat="45.21196" lon="2.57986">
        <ele>1071</ele>
        <time>2024-01-31T08:17:18.000Z</time>
      </trkpt>
      <trkpt lat="45.21203" lon="2.57978">
        <ele>1070.8000488281</ele>
        <time>2024-01-31T08:17:19.000Z</time>
      </trkpt>
      <trkpt lat="45.21221" lon="2.57968">
        <ele>1070.5999755859</ele>
        <time>2024-01-31T08:17:21.000Z</time>
      </trkpt>
      <trkpt lat="45.21262" lon="2.57959">
        <ele>1070.1999511719</ele>
        <time>2024-01-31T08:17:25.000Z</time>
      </trkpt>
      <trkpt lat="45.21291" lon="2.57935">
        <ele>1070</ele>
        <time>2024-01-31T08:17:28.000Z</time>
      </trkpt>
      <trkpt lat="45.21312" lon="2.57916">
        <ele>1069.8000488281</ele>
        <time>2024-01-31T08:17:30.000Z</time>
      </trkpt>
      <trkpt lat="45.21352" lon="2.57879">
        <ele>1068.5999755859</ele>
        <time>2024-01-31T08:17:34.000Z</time>
      </trkpt>
      <trkpt lat="45.21389" lon="2.57846">
        <ele>1067.4000244141</ele>
        <time>2024-01-31T08:17:38.000Z</time>
      </trkpt>
      <trkpt lat="45.21405" lon="2.57833">
        <ele>1067</ele>
        <time>2024-01-31T08:17:40.000Z</time>
      </trkpt>
      <trkpt lat="45.21426" lon="2.57826">
        <ele>1066.1999511719</ele>
        <time>2024-01-31T08:17:42.000Z</time>
      </trkpt>
      <trkpt lat="45.21433" lon="2.57827">
        <ele>1066</ele>
        <time>2024-01-31T08:17:43.000Z</time>
      </trkpt>
      <trkpt lat="45.21441" lon="2.57832">
        <ele>1065.5999755859</ele>
        <time>2024-01-31T08:17:44.000Z</time>
      </trkpt>
      <trkpt lat="45.2145" lon="2.57841">
        <ele>1065</ele>
        <time>2024-01-31T08:17:45.000Z</time>
      </trkpt>
      <trkpt lat="45.21459" lon="2.5785">
        <ele>1064.8000488281</ele>
        <time>2024-01-31T08:17:46.000Z</time>
      </trkpt>
      <trkpt lat="45.21478" lon="2.57862">
        <ele>1064</ele>
        <time>2024-01-31T08:17:48.000Z</time>
      </trkpt>
      <trkpt lat="45.21489" lon="2.57864">
        <ele>1062.8000488281</ele>
        <time>2024-01-31T08:17:49.000Z</time>
      </trkpt>
      <trkpt lat="45.21512" lon="2.57865">
        <ele>1062</ele>
        <time>2024-01-31T08:17:51.000Z</time>
      </trkpt>
      <trkpt lat="45.21523" lon="2.57863">
        <ele>1061.5999755859</ele>
        <time>2024-01-31T08:17:52.000Z</time>
      </trkpt>
      <trkpt lat="45.21533" lon="2.57862">
        <ele>1060.4000244141</ele>
        <time>2024-01-31T08:17:53.000Z</time>
      </trkpt>
      <trkpt lat="45.21543" lon="2.57861">
        <ele>1059.5999755859</ele>
        <time>2024-01-31T08:17:54.000Z</time>
      </trkpt>
      <trkpt lat="45.21552" lon="2.57865">
        <ele>1059</ele>
        <time>2024-01-31T08:17:55.000Z</time>
      </trkpt>
      <trkpt lat="45.2156" lon="2.57872">
        <ele>1058.4000244141</ele>
        <time>2024-01-31T08:17:56.000Z</time>
      </trkpt>
      <trkpt lat="45.21576" lon="2.57888">
        <ele>1058</ele>
        <time>2024-01-31T08:17:58.000Z</time>
      </trkpt>
      <trkpt lat="45.21593" lon="2.57907">
        <ele>1057.8000488281</ele>
        <time>2024-01-31T08:18:00.000Z</time>
      </trkpt>
      <trkpt lat="45.21603" lon="2.57916">
        <ele>1057.5999755859</ele>
        <time>2024-01-31T08:18:01.000Z</time>
      </trkpt>
      <trkpt lat="45.21614" lon="2.57924">
        <ele>1056.8000488281</ele>
        <time>2024-01-31T08:18:02.000Z</time>
      </trkpt>
      <trkpt lat="45.21639" lon="2.57936">
        <ele>1056.4000244141</ele>
        <time>2024-01-31T08:18:04.000Z</time>
      </trkpt>
      <trkpt lat="45.21649" lon="2.57938">
        <ele>1056.4000244141</ele>
        <time>2024-01-31T08:18:05.000Z</time>
      </trkpt>
      <trkpt lat="45.21678" lon="2.57942">
        <ele>1055.5999755859</ele>
        <time>2024-01-31T08:18:07.000Z</time>
      </trkpt>
      <trkpt lat="45.21704" lon="2.57941">
        <ele>1054.5999755859</ele>
        <time>2024-01-31T08:18:09.000Z</time>
      </trkpt>
      <trkpt lat="45.21725" lon="2.57938">
        <ele>1053.4000244141</ele>
        <time>2024-01-31T08:18:11.000Z</time>
      </trkpt>
      <trkpt lat="45.21741" lon="2.57932">
        <ele>1052.4000244141</ele>
        <time>2024-01-31T08:18:13.000Z</time>
      </trkpt>
      <trkpt lat="45.21752" lon="2.57925">
        <ele>1051.8000488281</ele>
        <time>2024-01-31T08:18:14.000Z</time>
      </trkpt>
      <trkpt lat="45.21771" lon="2.57912">
        <ele>1051.5999755859</ele>
        <time>2024-01-31T08:18:16.000Z</time>
      </trkpt>
      <trkpt lat="45.21782" lon="2.57905">
        <ele>1051.4000244141</ele>
        <time>2024-01-31T08:18:17.000Z</time>
      </trkpt>
      <trkpt lat="45.21793" lon="2.57899">
        <ele>1051.1999511719</ele>
        <time>2024-01-31T08:18:18.000Z</time>
      </trkpt>
      <trkpt lat="45.21818" lon="2.57886">
        <ele>1050.1999511719</ele>
        <time>2024-01-31T08:18:20.000Z</time>
      </trkpt>
      <trkpt lat="45.21841" lon="2.57872">
        <ele>1049.8000488281</ele>
        <time>2024-01-31T08:18:22.000Z</time>
      </trkpt>
      <trkpt lat="45.21868" lon="2.57851">
        <ele>1048.8000488281</ele>
        <time>2024-01-31T08:18:24.000Z</time>
      </trkpt>
      <trkpt lat="45.21878" lon="2.57845">
        <ele>1048.5999755859</ele>
        <time>2024-01-31T08:18:25.000Z</time>
      </trkpt>
      <trkpt lat="45.21904" lon="2.57829">
        <ele>1047.8000488281</ele>
        <time>2024-01-31T08:18:27.000Z</time>
      </trkpt>
      <trkpt lat="45.21926" lon="2.57812">
        <ele>1047.1999511719</ele>
        <time>2024-01-31T08:18:29.000Z</time>
      </trkpt>
      <trkpt lat="45.21936" lon="2.578">
        <ele>1047</ele>
        <time>2024-01-31T08:18:30.000Z</time>
      </trkpt>
      <trkpt lat="45.21943" lon="2.5779">
        <ele>1046.5999755859</ele>
        <time>2024-01-31T08:18:31.000Z</time>
      </trkpt>
      <trkpt lat="45.2196" lon="2.57756">
        <ele>1046.1999511719</ele>
        <time>2024-01-31T08:18:33.000Z</time>
      </trkpt>
      <trkpt lat="45.21974" lon="2.57724">
        <ele>1045.1999511719</ele>
        <time>2024-01-31T08:18:35.000Z</time>
      </trkpt>
      <trkpt lat="45.21992" lon="2.57695">
        <ele>1044.8000488281</ele>
        <time>2024-01-31T08:18:37.000Z</time>
      </trkpt>
      <trkpt lat="45.22015" lon="2.57668">
        <ele>1044.1999511719</ele>
        <time>2024-01-31T08:18:39.000Z</time>
      </trkpt>
      <trkpt lat="45.22037" lon="2.57645">
        <ele>1043.4000244141</ele>
        <time>2024-01-31T08:18:41.000Z</time>
      </trkpt>
      <trkpt lat="45.22047" lon="2.57631">
        <ele>1043</ele>
        <time>2024-01-31T08:18:42.000Z</time>
      </trkpt>
      <trkpt lat="45.22066" lon="2.57602">
        <ele>1041.8000488281</ele>
        <time>2024-01-31T08:18:44.000Z</time>
      </trkpt>
      <trkpt lat="45.22085" lon="2.57572">
        <ele>1041</ele>
        <time>2024-01-31T08:18:46.000Z</time>
      </trkpt>
      <trkpt lat="45.22102" lon="2.57546">
        <ele>1040.8000488281</ele>
        <time>2024-01-31T08:18:48.000Z</time>
      </trkpt>
      <trkpt lat="45.22139" lon="2.57488">
        <ele>1040.5999755859</ele>
        <time>2024-01-31T08:18:52.000Z</time>
      </trkpt>
      <trkpt lat="45.2218" lon="2.57424">
        <ele>1040.1999511719</ele>
        <time>2024-01-31T08:18:56.000Z</time>
      </trkpt>
      <trkpt lat="45.22214" lon="2.57351">
        <ele>1039.8000488281</ele>
        <time>2024-01-31T08:19:00.000Z</time>
      </trkpt>
      <trkpt lat="45.22221" lon="2.57333">
        <ele>1039.8000488281</ele>
        <time>2024-01-31T08:19:01.000Z</time>
      </trkpt>
      <trkpt lat="45.22247" lon="2.57277">
        <ele>1038.4000244141</ele>
        <time>2024-01-31T08:19:04.000Z</time>
      </trkpt>
      <trkpt lat="45.22277" lon="2.57205">
        <ele>1037.8000488281</ele>
        <time>2024-01-31T08:19:08.000Z</time>
      </trkpt>
      <trkpt lat="45.22285" lon="2.57188">
        <ele>1037.8000488281</ele>
        <time>2024-01-31T08:19:09.000Z</time>
      </trkpt>
      <trkpt lat="45.22292" lon="2.57175">
        <ele>1037.4000244141</ele>
        <time>2024-01-31T08:19:10.000Z</time>
      </trkpt>
      <trkpt lat="45.22318" lon="2.57119">
        <ele>1036.4000244141</ele>
        <time>2024-01-31T08:19:13.000Z</time>
      </trkpt>
      <trkpt lat="45.22325" lon="2.57101">
        <ele>1036</ele>
        <time>2024-01-31T08:19:14.000Z</time>
      </trkpt>
      <trkpt lat="45.22332" lon="2.57084">
        <ele>1035.4000244141</ele>
        <time>2024-01-31T08:19:15.000Z</time>
      </trkpt>
      <trkpt lat="45.22347" lon="2.57053">
        <ele>1033.5999755859</ele>
        <time>2024-01-31T08:19:17.000Z</time>
      </trkpt>
      <trkpt lat="45.22363" lon="2.57022">
        <ele>1032.1999511719</ele>
        <time>2024-01-31T08:19:19.000Z</time>
      </trkpt>
      <trkpt lat="45.22379" lon="2.56992">
        <ele>1031</ele>
        <time>2024-01-31T08:19:21.000Z</time>
      </trkpt>
      <trkpt lat="45.22402" lon="2.56949">
        <ele>1029.5999755859</ele>
        <time>2024-01-31T08:19:24.000Z</time>
      </trkpt>
      <trkpt lat="45.22409" lon="2.56937">
        <ele>1029.4000244141</ele>
        <time>2024-01-31T08:19:25.000Z</time>
      </trkpt>
      <trkpt lat="45.22445" lon="2.56868">
        <ele>1028.8000488281</ele>
        <time>2024-01-31T08:19:30.000Z</time>
      </trkpt>
      <trkpt lat="45.22479" lon="2.56796">
        <ele>1029.5999755859</ele>
        <time>2024-01-31T08:19:35.000Z</time>
      </trkpt>
      <trkpt lat="45.22486" lon="2.56783">
        <ele>1029.8000488281</ele>
        <time>2024-01-31T08:19:36.000Z</time>
      </trkpt>
      <trkpt lat="45.22524" lon="2.56719">
        <ele>1030</ele>
        <time>2024-01-31T08:19:41.000Z</time>
      </trkpt>
      <trkpt lat="45.22568" lon="2.56647">
        <ele>1028.5999755859</ele>
        <time>2024-01-31T08:19:46.000Z</time>
      </trkpt>
      <trkpt lat="45.22576" lon="2.56635">
        <ele>1027.4000244141</ele>
        <time>2024-01-31T08:19:47.000Z</time>
      </trkpt>
      <trkpt lat="45.22597" lon="2.56605">
        <ele>1026</ele>
        <time>2024-01-31T08:19:49.000Z</time>
      </trkpt>
      <trkpt lat="45.22607" lon="2.56591">
        <ele>1025.1999511719</ele>
        <time>2024-01-31T08:19:50.000Z</time>
      </trkpt>
      <trkpt lat="45.22614" lon="2.5658">
        <ele>1024</ele>
        <time>2024-01-31T08:19:51.000Z</time>
      </trkpt>
      <trkpt lat="45.22638" lon="2.56552">
        <ele>1022.4000244141</ele>
        <time>2024-01-31T08:19:53.000Z</time>
      </trkpt>
      <trkpt lat="45.22648" lon="2.56541">
        <ele>1022</ele>
        <time>2024-01-31T08:19:54.000Z</time>
      </trkpt>
      <trkpt lat="45.22668" lon="2.56522">
        <ele>1021</ele>
        <time>2024-01-31T08:19:56.000Z</time>
      </trkpt>
      <trkpt lat="45.22699" lon="2.56496">
        <ele>1020</ele>
        <time>2024-01-31T08:19:59.000Z</time>
      </trkpt>
      <trkpt lat="45.2273" lon="2.56467">
        <ele>1019</ele>
        <time>2024-01-31T08:20:02.000Z</time>
      </trkpt>
      <trkpt lat="45.2276" lon="2.56438">
        <ele>1017.799987793</ele>
        <time>2024-01-31T08:20:05.000Z</time>
      </trkpt>
      <trkpt lat="45.22783" lon="2.56427">
        <ele>1017</ele>
        <time>2024-01-31T08:20:07.000Z</time>
      </trkpt>
      <trkpt lat="45.22794" lon="2.56424">
        <ele>1016.799987793</ele>
        <time>2024-01-31T08:20:08.000Z</time>
      </trkpt>
      <trkpt lat="45.22806" lon="2.56421">
        <ele>1016.799987793</ele>
        <time>2024-01-31T08:20:09.000Z</time>
      </trkpt>
      <trkpt lat="45.22818" lon="2.56418">
        <ele>1016.799987793</ele>
        <time>2024-01-31T08:20:10.000Z</time>
      </trkpt>
      <trkpt lat="45.22839" lon="2.56406">
        <ele>1016.799987793</ele>
        <time>2024-01-31T08:20:12.000Z</time>
      </trkpt>
      <trkpt lat="45.22862" lon="2.5639">
        <ele>1018</ele>
        <time>2024-01-31T08:20:14.000Z</time>
      </trkpt>
      <trkpt lat="45.22886" lon="2.56373">
        <ele>1019</ele>
        <time>2024-01-31T08:20:16.000Z</time>
      </trkpt>
      <trkpt lat="45.22898" lon="2.56365">
        <ele>1019.5999755859</ele>
        <time>2024-01-31T08:20:17.000Z</time>
      </trkpt>
      <trkpt lat="45.22921" lon="2.56349">
        <ele>1020</ele>
        <time>2024-01-31T08:20:19.000Z</time>
      </trkpt>
      <trkpt lat="45.2298" lon="2.56305">
        <ele>1020.5999755859</ele>
        <time>2024-01-31T08:20:24.000Z</time>
      </trkpt>
      <trkpt lat="45.2301" lon="2.56265">
        <ele>1020.5999755859</ele>
        <time>2024-01-31T08:20:27.000Z</time>
      </trkpt>
      <trkpt lat="45.23048" lon="2.56206">
        <ele>1020.5999755859</ele>
        <time>2024-01-31T08:20:31.000Z</time>
      </trkpt>
      <trkpt lat="45.2307" lon="2.56175">
        <ele>1020.4000244141</ele>
        <time>2024-01-31T08:20:33.000Z</time>
      </trkpt>
      <trkpt lat="45.23113" lon="2.56112">
        <ele>1018.5999755859</ele>
        <time>2024-01-31T08:20:37.000Z</time>
      </trkpt>
      <trkpt lat="45.23148" lon="2.56062">
        <ele>1016.799987793</ele>
        <time>2024-01-31T08:20:40.000Z</time>
      </trkpt>
      <trkpt lat="45.23169" lon="2.56031">
        <ele>1015</ele>
        <time>2024-01-31T08:20:42.000Z</time>
      </trkpt>
      <trkpt lat="45.23189" lon="2.56">
        <ele>1014</ele>
        <time>2024-01-31T08:20:44.000Z</time>
      </trkpt>
      <trkpt lat="45.23209" lon="2.55968">
        <ele>1012.799987793</ele>
        <time>2024-01-31T08:20:46.000Z</time>
      </trkpt>
      <trkpt lat="45.23217" lon="2.55951">
        <ele>1012.200012207</ele>
        <time>2024-01-31T08:20:47.000Z</time>
      </trkpt>
      <trkpt lat="45.23225" lon="2.55934">
        <ele>1011.5999755859</ele>
        <time>2024-01-31T08:20:48.000Z</time>
      </trkpt>
      <trkpt lat="45.23237" lon="2.55902">
        <ele>1010.5999755859</ele>
        <time>2024-01-31T08:20:50.000Z</time>
      </trkpt>
      <trkpt lat="45.23246" lon="2.55882">
        <ele>1009.4000244141</ele>
        <time>2024-01-31T08:20:51.000Z</time>
      </trkpt>
      <trkpt lat="45.23261" lon="2.55847">
        <ele>1008.200012207</ele>
        <time>2024-01-31T08:20:53.000Z</time>
      </trkpt>
      <trkpt lat="45.23275" lon="2.55814">
        <ele>1006.799987793</ele>
        <time>2024-01-31T08:20:55.000Z</time>
      </trkpt>
      <trkpt lat="45.23286" lon="2.55777">
        <ele>1005</ele>
        <time>2024-01-31T08:20:57.000Z</time>
      </trkpt>
      <trkpt lat="45.2329" lon="2.55758">
        <ele>1003.5999755859</ele>
        <time>2024-01-31T08:20:58.000Z</time>
      </trkpt>
      <trkpt lat="45.23296" lon="2.55723">
        <ele>1002.200012207</ele>
        <time>2024-01-31T08:21:00.000Z</time>
      </trkpt>
      <trkpt lat="45.23299" lon="2.55709">
        <ele>1001.5999755859</ele>
        <time>2024-01-31T08:21:01.000Z</time>
      </trkpt>
      <trkpt lat="45.23302" lon="2.55695">
        <ele>1001</ele>
        <time>2024-01-31T08:21:02.000Z</time>
      </trkpt>
      <trkpt lat="45.23305" lon="2.55671">
        <ele>1000.200012207</ele>
        <time>2024-01-31T08:21:04.000Z</time>
      </trkpt>
      <trkpt lat="45.23309" lon="2.55659">
        <ele>1000</ele>
        <time>2024-01-31T08:21:05.000Z</time>
      </trkpt>
      <trkpt lat="45.23316" lon="2.55649">
        <ele>999.79998779297</ele>
        <time>2024-01-31T08:21:06.000Z</time>
      </trkpt>
      <trkpt lat="45.23334" lon="2.55632">
        <ele>999.40002441406</ele>
        <time>2024-01-31T08:21:08.000Z</time>
      </trkpt>
      <trkpt lat="45.23366" lon="2.55606">
        <ele>999</ele>
        <time>2024-01-31T08:21:11.000Z</time>
      </trkpt>
      <trkpt lat="45.2339" lon="2.55588">
        <ele>999</ele>
        <time>2024-01-31T08:21:13.000Z</time>
      </trkpt>
      <trkpt lat="45.23428" lon="2.55565">
        <ele>999</ele>
        <time>2024-01-31T08:21:16.000Z</time>
      </trkpt>
      <trkpt lat="45.23481" lon="2.55528">
        <ele>999</ele>
        <time>2024-01-31T08:21:20.000Z</time>
      </trkpt>
      <trkpt lat="45.23508" lon="2.55509">
        <ele>999</ele>
        <time>2024-01-31T08:21:22.000Z</time>
      </trkpt>
      <trkpt lat="45.2356" lon="2.55473">
        <ele>998.79998779297</ele>
        <time>2024-01-31T08:21:26.000Z</time>
      </trkpt>
      <trkpt lat="45.2357" lon="2.55462">
        <ele>998.59997558594</ele>
        <time>2024-01-31T08:21:27.000Z</time>
      </trkpt>
      <trkpt lat="45.23589" lon="2.55436">
        <ele>997.79998779297</ele>
        <time>2024-01-31T08:21:29.000Z</time>
      </trkpt>
      <trkpt lat="45.23599" lon="2.55422">
        <ele>997.40002441406</ele>
        <time>2024-01-31T08:21:30.000Z</time>
      </trkpt>
      <trkpt lat="45.23617" lon="2.55392">
        <ele>996.40002441406</ele>
        <time>2024-01-31T08:21:32.000Z</time>
      </trkpt>
      <trkpt lat="45.23631" lon="2.55358">
        <ele>994.59997558594</ele>
        <time>2024-01-31T08:21:34.000Z</time>
      </trkpt>
      <trkpt lat="45.23639" lon="2.5532">
        <ele>993.59997558594</ele>
        <time>2024-01-31T08:21:36.000Z</time>
      </trkpt>
      <trkpt lat="45.23642" lon="2.553">
        <ele>992.59997558594</ele>
        <time>2024-01-31T08:21:37.000Z</time>
      </trkpt>
      <trkpt lat="45.23648" lon="2.55238">
        <ele>991</ele>
        <time>2024-01-31T08:21:40.000Z</time>
      </trkpt>
      <trkpt lat="45.23653" lon="2.55195">
        <ele>989.79998779297</ele>
        <time>2024-01-31T08:21:42.000Z</time>
      </trkpt>
      <trkpt lat="45.23658" lon="2.55151">
        <ele>988</ele>
        <time>2024-01-31T08:21:44.000Z</time>
      </trkpt>
      <trkpt lat="45.2366" lon="2.55107">
        <ele>986.59997558594</ele>
        <time>2024-01-31T08:21:46.000Z</time>
      </trkpt>
      <trkpt lat="45.2366" lon="2.55085">
        <ele>985.20001220703</ele>
        <time>2024-01-31T08:21:47.000Z</time>
      </trkpt>
      <trkpt lat="45.2366" lon="2.5502">
        <ele>984.20001220703</ele>
        <time>2024-01-31T08:21:50.000Z</time>
      </trkpt>
      <trkpt lat="45.2366" lon="2.54957">
        <ele>982.79998779297</ele>
        <time>2024-01-31T08:21:53.000Z</time>
      </trkpt>
      <trkpt lat="45.2366" lon="2.54897">
        <ele>981.59997558594</ele>
        <time>2024-01-31T08:21:56.000Z</time>
      </trkpt>
      <trkpt lat="45.23662" lon="2.54866">
        <ele>980</ele>
        <time>2024-01-31T08:21:58.000Z</time>
      </trkpt>
      <trkpt lat="45.23664" lon="2.54852">
        <ele>979</ele>
        <time>2024-01-31T08:21:59.000Z</time>
      </trkpt>
      <trkpt lat="45.23668" lon="2.54837">
        <ele>979</ele>
        <time>2024-01-31T08:22:00.000Z</time>
      </trkpt>
      <trkpt lat="45.23673" lon="2.54822">
        <ele>978.59997558594</ele>
        <time>2024-01-31T08:22:01.000Z</time>
      </trkpt>
      <trkpt lat="45.23678" lon="2.54806">
        <ele>978</ele>
        <time>2024-01-31T08:22:02.000Z</time>
      </trkpt>
      <trkpt lat="45.23694" lon="2.54775">
        <ele>977.59997558594</ele>
        <time>2024-01-31T08:22:04.000Z</time>
      </trkpt>
      <trkpt lat="45.23712" lon="2.54745">
        <ele>975.79998779297</ele>
        <time>2024-01-31T08:22:06.000Z</time>
      </trkpt>
      <trkpt lat="45.23731" lon="2.54716">
        <ele>974.59997558594</ele>
        <time>2024-01-31T08:22:08.000Z</time>
      </trkpt>
      <trkpt lat="45.23752" lon="2.54693">
        <ele>973</ele>
        <time>2024-01-31T08:22:10.000Z</time>
      </trkpt>
      <trkpt lat="45.23773" lon="2.54673">
        <ele>972.40002441406</ele>
        <time>2024-01-31T08:22:12.000Z</time>
      </trkpt>
      <trkpt lat="45.23782" lon="2.54662">
        <ele>972</ele>
        <time>2024-01-31T08:22:13.000Z</time>
      </trkpt>
      <trkpt lat="45.2379" lon="2.54649">
        <ele>971.59997558594</ele>
        <time>2024-01-31T08:22:14.000Z</time>
      </trkpt>
      <trkpt lat="45.23802" lon="2.54601">
        <ele>970.59997558594</ele>
        <time>2024-01-31T08:22:17.000Z</time>
      </trkpt>
      <trkpt lat="45.23807" lon="2.54585">
        <ele>970.40002441406</ele>
        <time>2024-01-31T08:22:18.000Z</time>
      </trkpt>
      <trkpt lat="45.23823" lon="2.54554">
        <ele>969.40002441406</ele>
        <time>2024-01-31T08:22:20.000Z</time>
      </trkpt>
      <trkpt lat="45.23843" lon="2.54526">
        <ele>968.20001220703</ele>
        <time>2024-01-31T08:22:22.000Z</time>
      </trkpt>
      <trkpt lat="45.23864" lon="2.54496">
        <ele>967</ele>
        <time>2024-01-31T08:22:24.000Z</time>
      </trkpt>
      <trkpt lat="45.23896" lon="2.5445">
        <ele>965.40002441406</ele>
        <time>2024-01-31T08:22:27.000Z</time>
      </trkpt>
      <trkpt lat="45.23905" lon="2.54433">
        <ele>964.79998779297</ele>
        <time>2024-01-31T08:22:28.000Z</time>
      </trkpt>
      <trkpt lat="45.23913" lon="2.54416">
        <ele>963.40002441406</ele>
        <time>2024-01-31T08:22:29.000Z</time>
      </trkpt>
      <trkpt lat="45.23921" lon="2.54397">
        <ele>962.59997558594</ele>
        <time>2024-01-31T08:22:30.000Z</time>
      </trkpt>
      <trkpt lat="45.23927" lon="2.54379">
        <ele>961.79998779297</ele>
        <time>2024-01-31T08:22:31.000Z</time>
      </trkpt>
      <trkpt lat="45.23932" lon="2.54361">
        <ele>961</ele>
        <time>2024-01-31T08:22:32.000Z</time>
      </trkpt>
      <trkpt lat="45.23937" lon="2.54344">
        <ele>960.20001220703</ele>
        <time>2024-01-31T08:22:33.000Z</time>
      </trkpt>
      <trkpt lat="45.23946" lon="2.54312">
        <ele>959</ele>
        <time>2024-01-31T08:22:35.000Z</time>
      </trkpt>
      <trkpt lat="45.23951" lon="2.54297">
        <ele>958</ele>
        <time>2024-01-31T08:22:36.000Z</time>
      </trkpt>
      <trkpt lat="45.23957" lon="2.54284">
        <ele>957.59997558594</ele>
        <time>2024-01-31T08:22:37.000Z</time>
      </trkpt>
      <trkpt lat="45.23965" lon="2.54272">
        <ele>956.79998779297</ele>
        <time>2024-01-31T08:22:38.000Z</time>
      </trkpt>
      <trkpt lat="45.23974" lon="2.54263">
        <ele>956.79998779297</ele>
        <time>2024-01-31T08:22:39.000Z</time>
      </trkpt>
      <trkpt lat="45.23984" lon="2.54255">
        <ele>956.79998779297</ele>
        <time>2024-01-31T08:22:40.000Z</time>
      </trkpt>
      <trkpt lat="45.2401" lon="2.54242">
        <ele>956.59997558594</ele>
        <time>2024-01-31T08:22:42.000Z</time>
      </trkpt>
      <trkpt lat="45.24045" lon="2.54242">
        <ele>956.79998779297</ele>
        <time>2024-01-31T08:22:45.000Z</time>
      </trkpt>
      <trkpt lat="45.2408" lon="2.54239">
        <ele>958</ele>
        <time>2024-01-31T08:22:48.000Z</time>
      </trkpt>
      <trkpt lat="45.24093" lon="2.54234">
        <ele>958.40002441406</ele>
        <time>2024-01-31T08:22:49.000Z</time>
      </trkpt>
      <trkpt lat="45.24125" lon="2.5422">
        <ele>958.40002441406</ele>
        <time>2024-01-31T08:22:52.000Z</time>
      </trkpt>
      <trkpt lat="45.24136" lon="2.54218">
        <ele>958.20001220703</ele>
        <time>2024-01-31T08:22:53.000Z</time>
      </trkpt>
      <trkpt lat="45.24153" lon="2.54217">
        <ele>957</ele>
        <time>2024-01-31T08:22:55.000Z</time>
      </trkpt>
      <trkpt lat="45.24162" lon="2.54217">
        <ele>956.59997558594</ele>
        <time>2024-01-31T08:22:56.000Z</time>
      </trkpt>
      <trkpt lat="45.24175" lon="2.54215">
        <ele>956.20001220703</ele>
        <time>2024-01-31T08:22:57.000Z</time>
      </trkpt>
      <trkpt lat="45.2419" lon="2.54203">
        <ele>955.40002441406</ele>
        <time>2024-01-31T08:22:59.000Z</time>
      </trkpt>
      <trkpt lat="45.24205" lon="2.54182">
        <ele>955.20001220703</ele>
        <time>2024-01-31T08:23:01.000Z</time>
      </trkpt>
      <trkpt lat="45.24211" lon="2.5417">
        <ele>955.20001220703</ele>
        <time>2024-01-31T08:23:02.000Z</time>
      </trkpt>
      <trkpt lat="45.24216" lon="2.54157">
        <ele>955</ele>
        <time>2024-01-31T08:23:03.000Z</time>
      </trkpt>
      <trkpt lat="45.24226" lon="2.54131">
        <ele>955.20001220703</ele>
        <time>2024-01-31T08:23:06.000Z</time>
      </trkpt>
      <trkpt lat="45.24231" lon="2.54124">
        <ele>955.59997558594</ele>
        <time>2024-01-31T08:23:07.000Z</time>
      </trkpt>
      <trkpt lat="45.24236" lon="2.54119">
        <ele>956.20001220703</ele>
        <time>2024-01-31T08:23:08.000Z</time>
      </trkpt>
      <trkpt lat="45.24242" lon="2.54113">
        <ele>957</ele>
        <time>2024-01-31T08:23:09.000Z</time>
      </trkpt>
      <trkpt lat="45.2425" lon="2.54107">
        <ele>957.59997558594</ele>
        <time>2024-01-31T08:23:10.000Z</time>
      </trkpt>
      <trkpt lat="45.24277" lon="2.54084">
        <ele>959</ele>
        <time>2024-01-31T08:23:13.000Z</time>
      </trkpt>
      <trkpt lat="45.24288" lon="2.54076">
        <ele>959.79998779297</ele>
        <time>2024-01-31T08:23:14.000Z</time>
      </trkpt>
      <trkpt lat="45.243" lon="2.54071">
        <ele>960.79998779297</ele>
        <time>2024-01-31T08:23:15.000Z</time>
      </trkpt>
      <trkpt lat="45.24313" lon="2.54067">
        <ele>961.20001220703</ele>
        <time>2024-01-31T08:23:16.000Z</time>
      </trkpt>
      <trkpt lat="45.2434" lon="2.54065">
        <ele>962.59997558594</ele>
        <time>2024-01-31T08:23:18.000Z</time>
      </trkpt>
      <trkpt lat="45.24355" lon="2.54067">
        <ele>963.40002441406</ele>
        <time>2024-01-31T08:23:19.000Z</time>
      </trkpt>
      <trkpt lat="45.24371" lon="2.5407">
        <ele>964</ele>
        <time>2024-01-31T08:23:20.000Z</time>
      </trkpt>
      <trkpt lat="45.24405" lon="2.54079">
        <ele>965.20001220703</ele>
        <time>2024-01-31T08:23:22.000Z</time>
      </trkpt>
      <trkpt lat="45.24418" lon="2.54083">
        <ele>965.79998779297</ele>
        <time>2024-01-31T08:23:23.000Z</time>
      </trkpt>
      <trkpt lat="45.24482" lon="2.54099">
        <ele>966.20001220703</ele>
        <time>2024-01-31T08:23:27.000Z</time>
      </trkpt>
      <trkpt lat="45.24497" lon="2.54103">
        <ele>966.20001220703</ele>
        <time>2024-01-31T08:23:28.000Z</time>
      </trkpt>
      <trkpt lat="45.24541" lon="2.54113">
        <ele>966.20001220703</ele>
        <time>2024-01-31T08:23:31.000Z</time>
      </trkpt>
      <trkpt lat="45.24596" lon="2.54122">
        <ele>966</ele>
        <time>2024-01-31T08:23:35.000Z</time>
      </trkpt>
      <trkpt lat="45.2462" lon="2.54113">
        <ele>966</ele>
        <time>2024-01-31T08:23:37.000Z</time>
      </trkpt>
      <trkpt lat="45.24638" lon="2.54093">
        <ele>966.20001220703</ele>
        <time>2024-01-31T08:23:39.000Z</time>
      </trkpt>
      <trkpt lat="45.2466" lon="2.54046">
        <ele>966.20001220703</ele>
        <time>2024-01-31T08:23:42.000Z</time>
      </trkpt>
      <trkpt lat="45.24689" lon="2.53969">
        <ele>965.79998779297</ele>
        <time>2024-01-31T08:23:46.000Z</time>
      </trkpt>
      <trkpt lat="45.24698" lon="2.53948">
        <ele>965.59997558594</ele>
        <time>2024-01-31T08:23:47.000Z</time>
      </trkpt>
      <trkpt lat="45.24734" lon="2.53865">
        <ele>965.79998779297</ele>
        <time>2024-01-31T08:23:51.000Z</time>
      </trkpt>
      <trkpt lat="45.24744" lon="2.53845">
        <ele>966.20001220703</ele>
        <time>2024-01-31T08:23:52.000Z</time>
      </trkpt>
      <trkpt lat="45.24775" lon="2.53793">
        <ele>966.20001220703</ele>
        <time>2024-01-31T08:23:55.000Z</time>
      </trkpt>
      <trkpt lat="45.24785" lon="2.53779">
        <ele>966.20001220703</ele>
        <time>2024-01-31T08:23:56.000Z</time>
      </trkpt>
      <trkpt lat="45.24794" lon="2.53767">
        <ele>966.20001220703</ele>
        <time>2024-01-31T08:23:57.000Z</time>
      </trkpt>
      <trkpt lat="45.24805" lon="2.53757">
        <ele>966.20001220703</ele>
        <time>2024-01-31T08:23:58.000Z</time>
      </trkpt>
      <trkpt lat="45.24816" lon="2.5375">
        <ele>966.20001220703</ele>
        <time>2024-01-31T08:23:59.000Z</time>
      </trkpt>
      <trkpt lat="45.24843" lon="2.5374">
        <ele>966.59997558594</ele>
        <time>2024-01-31T08:24:01.000Z</time>
      </trkpt>
      <trkpt lat="45.24882" lon="2.53724">
        <ele>967.20001220703</ele>
        <time>2024-01-31T08:24:04.000Z</time>
      </trkpt>
      <trkpt lat="45.24895" lon="2.53716">
        <ele>967.79998779297</ele>
        <time>2024-01-31T08:24:05.000Z</time>
      </trkpt>
      <trkpt lat="45.24922" lon="2.53702">
        <ele>968.40002441406</ele>
        <time>2024-01-31T08:24:07.000Z</time>
      </trkpt>
      <trkpt lat="45.24948" lon="2.53695">
        <ele>969</ele>
        <time>2024-01-31T08:24:09.000Z</time>
      </trkpt>
      <trkpt lat="45.24972" lon="2.53697">
        <ele>969.79998779297</ele>
        <time>2024-01-31T08:24:11.000Z</time>
      </trkpt>
      <trkpt lat="45.24984" lon="2.53702">
        <ele>970.20001220703</ele>
        <time>2024-01-31T08:24:12.000Z</time>
      </trkpt>
      <trkpt lat="45.25008" lon="2.53718">
        <ele>971</ele>
        <time>2024-01-31T08:24:14.000Z</time>
      </trkpt>
      <trkpt lat="45.2503" lon="2.53735">
        <ele>971.20001220703</ele>
        <time>2024-01-31T08:24:16.000Z</time>
      </trkpt>
      <trkpt lat="45.25083" lon="2.53777">
        <ele>970</ele>
        <time>2024-01-31T08:24:21.000Z</time>
      </trkpt>
      <trkpt lat="45.25102" lon="2.53792">
        <ele>969.79998779297</ele>
        <time>2024-01-31T08:24:23.000Z</time>
      </trkpt>
      <trkpt lat="45.25125" lon="2.5381">
        <ele>969.20001220703</ele>
        <time>2024-01-31T08:24:26.000Z</time>
      </trkpt>
      <trkpt lat="45.25151" lon="2.53844">
        <ele>969.40002441406</ele>
        <time>2024-01-31T08:24:30.000Z</time>
      </trkpt>
      <trkpt lat="45.2517" lon="2.5388">
        <ele>971</ele>
        <time>2024-01-31T08:24:33.000Z</time>
      </trkpt>
      <trkpt lat="45.25176" lon="2.53893">
        <ele>971.20001220703</ele>
        <time>2024-01-31T08:24:34.000Z</time>
      </trkpt>
      <trkpt lat="45.25203" lon="2.53935">
        <ele>971.59997558594</ele>
        <time>2024-01-31T08:24:38.000Z</time>
      </trkpt>
      <trkpt lat="45.25211" lon="2.53942">
        <ele>971.59997558594</ele>
        <time>2024-01-31T08:24:39.000Z</time>
      </trkpt>
      <trkpt lat="45.2525" lon="2.53963">
        <ele>972</ele>
        <time>2024-01-31T08:24:44.000Z</time>
      </trkpt>
      <trkpt lat="45.25258" lon="2.53967">
        <ele>972.40002441406</ele>
        <time>2024-01-31T08:24:45.000Z</time>
      </trkpt>
      <trkpt lat="45.25288" lon="2.53981">
        <ele>973</ele>
        <time>2024-01-31T08:24:49.000Z</time>
      </trkpt>
      <trkpt lat="45.25302" lon="2.53981">
        <ele>973.40002441406</ele>
        <time>2024-01-31T08:24:51.000Z</time>
      </trkpt>
      <trkpt lat="45.25309" lon="2.53977">
        <ele>973.59997558594</ele>
        <time>2024-01-31T08:24:52.000Z</time>
      </trkpt>
      <trkpt lat="45.25336" lon="2.53963">
        <ele>974.79998779297</ele>
        <time>2024-01-31T08:24:56.000Z</time>
      </trkpt>
      <trkpt lat="45.25344" lon="2.53962">
        <ele>975</ele>
        <time>2024-01-31T08:24:57.000Z</time>
      </trkpt>
      <trkpt lat="45.2535" lon="2.53963">
        <ele>975.40002441406</ele>
        <time>2024-01-31T08:24:58.000Z</time>
      </trkpt>
      <trkpt lat="45.25358" lon="2.53965">
        <ele>976</ele>
        <time>2024-01-31T08:24:59.000Z</time>
      </trkpt>
      <trkpt lat="45.25374" lon="2.53971">
        <ele>977.40002441406</ele>
        <time>2024-01-31T08:25:01.000Z</time>
      </trkpt>
      <trkpt lat="45.25399" lon="2.5398">
        <ele>978.40002441406</ele>
        <time>2024-01-31T08:25:04.000Z</time>
      </trkpt>
      <trkpt lat="45.25414" lon="2.53986">
        <ele>979.79998779297</ele>
        <time>2024-01-31T08:25:06.000Z</time>
      </trkpt>
      <trkpt lat="45.2543" lon="2.53992">
        <ele>980.79998779297</ele>
        <time>2024-01-31T08:25:08.000Z</time>
      </trkpt>
      <trkpt lat="45.25447" lon="2.53999">
        <ele>982</ele>
        <time>2024-01-31T08:25:10.000Z</time>
      </trkpt>
      <trkpt lat="45.25464" lon="2.54006">
        <ele>983</ele>
        <time>2024-01-31T08:25:12.000Z</time>
      </trkpt>
      <trkpt lat="45.25483" lon="2.54012">
        <ele>984.20001220703</ele>
        <time>2024-01-31T08:25:14.000Z</time>
      </trkpt>
      <trkpt lat="45.25492" lon="2.54016">
        <ele>984.59997558594</ele>
        <time>2024-01-31T08:25:15.000Z</time>
      </trkpt>
      <trkpt lat="45.25501" lon="2.5402">
        <ele>985.40002441406</ele>
        <time>2024-01-31T08:25:16.000Z</time>
      </trkpt>
      <trkpt lat="45.2552" lon="2.5403">
        <ele>986.59997558594</ele>
        <time>2024-01-31T08:25:18.000Z</time>
      </trkpt>
      <trkpt lat="45.2554" lon="2.54043">
        <ele>987.59997558594</ele>
        <time>2024-01-31T08:25:20.000Z</time>
      </trkpt>
      <trkpt lat="45.2555" lon="2.54051">
        <ele>988</ele>
        <time>2024-01-31T08:25:21.000Z</time>
      </trkpt>
      <trkpt lat="45.25572" lon="2.54067">
        <ele>990</ele>
        <time>2024-01-31T08:25:23.000Z</time>
      </trkpt>
      <trkpt lat="45.25583" lon="2.54075">
        <ele>990.59997558594</ele>
        <time>2024-01-31T08:25:24.000Z</time>
      </trkpt>
      <trkpt lat="45.25595" lon="2.54084">
        <ele>991.20001220703</ele>
        <time>2024-01-31T08:25:25.000Z</time>
      </trkpt>
      <trkpt lat="45.2562" lon="2.54103">
        <ele>993</ele>
        <time>2024-01-31T08:25:27.000Z</time>
      </trkpt>
      <trkpt lat="45.25633" lon="2.54113">
        <ele>994</ele>
        <time>2024-01-31T08:25:28.000Z</time>
      </trkpt>
      <trkpt lat="45.25645" lon="2.54124">
        <ele>995</ele>
        <time>2024-01-31T08:25:29.000Z</time>
      </trkpt>
      <trkpt lat="45.2567" lon="2.54145">
        <ele>996.59997558594</ele>
        <time>2024-01-31T08:25:31.000Z</time>
      </trkpt>
      <trkpt lat="45.25695" lon="2.54168">
        <ele>998.20001220703</ele>
        <time>2024-01-31T08:25:33.000Z</time>
      </trkpt>
      <trkpt lat="45.25707" lon="2.54181">
        <ele>998.79998779297</ele>
        <time>2024-01-31T08:25:34.000Z</time>
      </trkpt>
      <trkpt lat="45.25718" lon="2.54195">
        <ele>999.20001220703</ele>
        <time>2024-01-31T08:25:35.000Z</time>
      </trkpt>
      <trkpt lat="45.25729" lon="2.54209">
        <ele>1000</ele>
        <time>2024-01-31T08:25:36.000Z</time>
      </trkpt>
      <trkpt lat="45.25739" lon="2.54225">
        <ele>1000.4000244141</ele>
        <time>2024-01-31T08:25:37.000Z</time>
      </trkpt>
      <trkpt lat="45.25754" lon="2.54262">
        <ele>1001.5999755859</ele>
        <time>2024-01-31T08:25:39.000Z</time>
      </trkpt>
      <trkpt lat="45.25759" lon="2.54282">
        <ele>1001.799987793</ele>
        <time>2024-01-31T08:25:40.000Z</time>
      </trkpt>
      <trkpt lat="45.25767" lon="2.54322">
        <ele>1002.799987793</ele>
        <time>2024-01-31T08:25:42.000Z</time>
      </trkpt>
      <trkpt lat="45.25774" lon="2.54363">
        <ele>1003.799987793</ele>
        <time>2024-01-31T08:25:44.000Z</time>
      </trkpt>
      <trkpt lat="45.25787" lon="2.54424">
        <ele>1005</ele>
        <time>2024-01-31T08:25:47.000Z</time>
      </trkpt>
      <trkpt lat="45.25797" lon="2.54466">
        <ele>1006</ele>
        <time>2024-01-31T08:25:49.000Z</time>
      </trkpt>
      <trkpt lat="45.25807" lon="2.54508">
        <ele>1007.200012207</ele>
        <time>2024-01-31T08:25:51.000Z</time>
      </trkpt>
      <trkpt lat="45.25816" lon="2.54549">
        <ele>1008.200012207</ele>
        <time>2024-01-31T08:25:53.000Z</time>
      </trkpt>
      <trkpt lat="45.25821" lon="2.54592">
        <ele>1009</ele>
        <time>2024-01-31T08:25:55.000Z</time>
      </trkpt>
      <trkpt lat="45.25823" lon="2.54614">
        <ele>1009.5999755859</ele>
        <time>2024-01-31T08:25:56.000Z</time>
      </trkpt>
      <trkpt lat="45.25827" lon="2.54683">
        <ele>1010.799987793</ele>
        <time>2024-01-31T08:25:59.000Z</time>
      </trkpt>
      <trkpt lat="45.25828" lon="2.54706">
        <ele>1011.200012207</ele>
        <time>2024-01-31T08:26:00.000Z</time>
      </trkpt>
      <trkpt lat="45.25829" lon="2.54729">
        <ele>1011.799987793</ele>
        <time>2024-01-31T08:26:01.000Z</time>
      </trkpt>
      <trkpt lat="45.25833" lon="2.548">
        <ele>1013</ele>
        <time>2024-01-31T08:26:04.000Z</time>
      </trkpt>
      <trkpt lat="45.25835" lon="2.54847">
        <ele>1013.5999755859</ele>
        <time>2024-01-31T08:26:06.000Z</time>
      </trkpt>
      <trkpt lat="45.25838" lon="2.54918">
        <ele>1014.200012207</ele>
        <time>2024-01-31T08:26:09.000Z</time>
      </trkpt>
      <trkpt lat="45.25847" lon="2.55008">
        <ele>1015.200012207</ele>
        <time>2024-01-31T08:26:13.000Z</time>
      </trkpt>
      <trkpt lat="45.25861" lon="2.55048">
        <ele>1016</ele>
        <time>2024-01-31T08:26:15.000Z</time>
      </trkpt>
      <trkpt lat="45.2587" lon="2.55067">
        <ele>1016.5999755859</ele>
        <time>2024-01-31T08:26:16.000Z</time>
      </trkpt>
      <trkpt lat="45.25892" lon="2.551">
        <ele>1017.799987793</ele>
        <time>2024-01-31T08:26:18.000Z</time>
      </trkpt>
      <trkpt lat="45.25903" lon="2.55116">
        <ele>1018.200012207</ele>
        <time>2024-01-31T08:26:19.000Z</time>
      </trkpt>
      <trkpt lat="45.2594" lon="2.55155">
        <ele>1019.200012207</ele>
        <time>2024-01-31T08:26:22.000Z</time>
      </trkpt>
      <trkpt lat="45.25952" lon="2.55169">
        <ele>1019.200012207</ele>
        <time>2024-01-31T08:26:23.000Z</time>
      </trkpt>
      <trkpt lat="45.25971" lon="2.55203">
        <ele>1020</ele>
        <time>2024-01-31T08:26:25.000Z</time>
      </trkpt>
      <trkpt lat="45.25978" lon="2.55223">
        <ele>1020.4000244141</ele>
        <time>2024-01-31T08:26:26.000Z</time>
      </trkpt>
      <trkpt lat="45.26001" lon="2.55314">
        <ele>1020.5999755859</ele>
        <time>2024-01-31T08:26:30.000Z</time>
      </trkpt>
      <trkpt lat="45.26016" lon="2.5541">
        <ele>1020.200012207</ele>
        <time>2024-01-31T08:26:34.000Z</time>
      </trkpt>
      <trkpt lat="45.26018" lon="2.55434">
        <ele>1020</ele>
        <time>2024-01-31T08:26:35.000Z</time>
      </trkpt>
      <trkpt lat="45.2602" lon="2.55479">
        <ele>1019.4000244141</ele>
        <time>2024-01-31T08:26:37.000Z</time>
      </trkpt>
      <trkpt lat="45.26024" lon="2.55523">
        <ele>1018.5999755859</ele>
        <time>2024-01-31T08:26:39.000Z</time>
      </trkpt>
      <trkpt lat="45.26038" lon="2.55563">
        <ele>1018.4000244141</ele>
        <time>2024-01-31T08:26:41.000Z</time>
      </trkpt>
      <trkpt lat="45.26047" lon="2.55582">
        <ele>1018.200012207</ele>
        <time>2024-01-31T08:26:42.000Z</time>
      </trkpt>
      <trkpt lat="45.26078" lon="2.55642">
        <ele>1018</ele>
        <time>2024-01-31T08:26:45.000Z</time>
      </trkpt>
      <trkpt lat="45.26098" lon="2.55683">
        <ele>1019.4000244141</ele>
        <time>2024-01-31T08:26:47.000Z</time>
      </trkpt>
      <trkpt lat="45.26108" lon="2.55702">
        <ele>1020.799987793</ele>
        <time>2024-01-31T08:26:48.000Z</time>
      </trkpt>
      <trkpt lat="45.26118" lon="2.55722">
        <ele>1021.799987793</ele>
        <time>2024-01-31T08:26:49.000Z</time>
      </trkpt>
      <trkpt lat="45.26137" lon="2.55762">
        <ele>1023.4000244141</ele>
        <time>2024-01-31T08:26:51.000Z</time>
      </trkpt>
      <trkpt lat="45.26147" lon="2.55781">
        <ele>1024.4000244141</ele>
        <time>2024-01-31T08:26:52.000Z</time>
      </trkpt>
      <trkpt lat="45.26156" lon="2.55802">
        <ele>1025</ele>
        <time>2024-01-31T08:26:53.000Z</time>
      </trkpt>
      <trkpt lat="45.26173" lon="2.55843">
        <ele>1026.5999755859</ele>
        <time>2024-01-31T08:26:55.000Z</time>
      </trkpt>
      <trkpt lat="45.26188" lon="2.55886">
        <ele>1028.4000244141</ele>
        <time>2024-01-31T08:26:57.000Z</time>
      </trkpt>
      <trkpt lat="45.262" lon="2.5593">
        <ele>1030.1999511719</ele>
        <time>2024-01-31T08:26:59.000Z</time>
      </trkpt>
      <trkpt lat="45.26205" lon="2.55952">
        <ele>1030.8000488281</ele>
        <time>2024-01-31T08:27:00.000Z</time>
      </trkpt>
      <trkpt lat="45.26208" lon="2.55975">
        <ele>1032</ele>
        <time>2024-01-31T08:27:01.000Z</time>
      </trkpt>
      <trkpt lat="45.26212" lon="2.56021">
        <ele>1033.4000244141</ele>
        <time>2024-01-31T08:27:03.000Z</time>
      </trkpt>
      <trkpt lat="45.26215" lon="2.56064">
        <ele>1034.8000488281</ele>
        <time>2024-01-31T08:27:05.000Z</time>
      </trkpt>
      <trkpt lat="45.26219" lon="2.56085">
        <ele>1035.5999755859</ele>
        <time>2024-01-31T08:27:06.000Z</time>
      </trkpt>
      <trkpt lat="45.26224" lon="2.56103">
        <ele>1036.1999511719</ele>
        <time>2024-01-31T08:27:07.000Z</time>
      </trkpt>
      <trkpt lat="45.26241" lon="2.56133">
        <ele>1037.4000244141</ele>
        <time>2024-01-31T08:27:09.000Z</time>
      </trkpt>
      <trkpt lat="45.26265" lon="2.56154">
        <ele>1039.1999511719</ele>
        <time>2024-01-31T08:27:11.000Z</time>
      </trkpt>
      <trkpt lat="45.2628" lon="2.56159">
        <ele>1039.8000488281</ele>
        <time>2024-01-31T08:27:12.000Z</time>
      </trkpt>
      <trkpt lat="45.26296" lon="2.56162">
        <ele>1040.1999511719</ele>
        <time>2024-01-31T08:27:13.000Z</time>
      </trkpt>
      <trkpt lat="45.26312" lon="2.56162">
        <ele>1041.1999511719</ele>
        <time>2024-01-31T08:27:14.000Z</time>
      </trkpt>
      <trkpt lat="45.2633" lon="2.56162">
        <ele>1042</ele>
        <time>2024-01-31T08:27:15.000Z</time>
      </trkpt>
      <trkpt lat="45.26346" lon="2.56162">
        <ele>1042.8000488281</ele>
        <time>2024-01-31T08:27:16.000Z</time>
      </trkpt>
      <trkpt lat="45.26362" lon="2.56165">
        <ele>1043.8000488281</ele>
        <time>2024-01-31T08:27:17.000Z</time>
      </trkpt>
      <trkpt lat="45.26377" lon="2.5617">
        <ele>1044.1999511719</ele>
        <time>2024-01-31T08:27:18.000Z</time>
      </trkpt>
      <trkpt lat="45.2639" lon="2.56181">
        <ele>1045</ele>
        <time>2024-01-31T08:27:19.000Z</time>
      </trkpt>
      <trkpt lat="45.26402" lon="2.56194">
        <ele>1045.8000488281</ele>
        <time>2024-01-31T08:27:20.000Z</time>
      </trkpt>
      <trkpt lat="45.26413" lon="2.56208">
        <ele>1046.1999511719</ele>
        <time>2024-01-31T08:27:21.000Z</time>
      </trkpt>
      <trkpt lat="45.2642" lon="2.56224">
        <ele>1046.5999755859</ele>
        <time>2024-01-31T08:27:22.000Z</time>
      </trkpt>
      <trkpt lat="45.26425" lon="2.56242">
        <ele>1046.8000488281</ele>
        <time>2024-01-31T08:27:23.000Z</time>
      </trkpt>
      <trkpt lat="45.2643" lon="2.56279">
        <ele>1046.8000488281</ele>
        <time>2024-01-31T08:27:25.000Z</time>
      </trkpt>
      <trkpt lat="45.26428" lon="2.5634">
        <ele>1046.1999511719</ele>
        <time>2024-01-31T08:27:28.000Z</time>
      </trkpt>
      <trkpt lat="45.26424" lon="2.56385">
        <ele>1045.5999755859</ele>
        <time>2024-01-31T08:27:30.000Z</time>
      </trkpt>
      <trkpt lat="45.26421" lon="2.5643">
        <ele>1044</ele>
        <time>2024-01-31T08:27:32.000Z</time>
      </trkpt>
      <trkpt lat="45.26419" lon="2.56452">
        <ele>1043.5999755859</ele>
        <time>2024-01-31T08:27:33.000Z</time>
      </trkpt>
      <trkpt lat="45.26417" lon="2.56473">
        <ele>1042.5999755859</ele>
        <time>2024-01-31T08:27:34.000Z</time>
      </trkpt>
      <trkpt lat="45.26416" lon="2.56493">
        <ele>1041.8000488281</ele>
        <time>2024-01-31T08:27:35.000Z</time>
      </trkpt>
      <trkpt lat="45.26417" lon="2.56512">
        <ele>1040.8000488281</ele>
        <time>2024-01-31T08:27:36.000Z</time>
      </trkpt>
      <trkpt lat="45.26419" lon="2.5653">
        <ele>1040</ele>
        <time>2024-01-31T08:27:37.000Z</time>
      </trkpt>
      <trkpt lat="45.26424" lon="2.56547">
        <ele>1039</ele>
        <time>2024-01-31T08:27:38.000Z</time>
      </trkpt>
      <trkpt lat="45.2643" lon="2.56563">
        <ele>1038.5999755859</ele>
        <time>2024-01-31T08:27:39.000Z</time>
      </trkpt>
      <trkpt lat="45.26437" lon="2.56577">
        <ele>1037.8000488281</ele>
        <time>2024-01-31T08:27:40.000Z</time>
      </trkpt>
      <trkpt lat="45.26456" lon="2.56603">
        <ele>1036.5999755859</ele>
        <time>2024-01-31T08:27:42.000Z</time>
      </trkpt>
      <trkpt lat="45.26488" lon="2.56644">
        <ele>1034.8000488281</ele>
        <time>2024-01-31T08:27:45.000Z</time>
      </trkpt>
      <trkpt lat="45.26497" lon="2.56659">
        <ele>1034.1999511719</ele>
        <time>2024-01-31T08:27:46.000Z</time>
      </trkpt>
      <trkpt lat="45.26504" lon="2.56675">
        <ele>1033</ele>
        <time>2024-01-31T08:27:47.000Z</time>
      </trkpt>
      <trkpt lat="45.26509" lon="2.56693">
        <ele>1032.4000244141</ele>
        <time>2024-01-31T08:27:48.000Z</time>
      </trkpt>
      <trkpt lat="45.26513" lon="2.56712">
        <ele>1031.5999755859</ele>
        <time>2024-01-31T08:27:49.000Z</time>
      </trkpt>
      <trkpt lat="45.26513" lon="2.5673">
        <ele>1031</ele>
        <time>2024-01-31T08:27:50.000Z</time>
      </trkpt>
      <trkpt lat="45.2651" lon="2.56748">
        <ele>1030.4000244141</ele>
        <time>2024-01-31T08:27:51.000Z</time>
      </trkpt>
      <trkpt lat="45.26506" lon="2.56766">
        <ele>1029.5999755859</ele>
        <time>2024-01-31T08:27:52.000Z</time>
      </trkpt>
      <trkpt lat="45.26499" lon="2.56783">
        <ele>1029</ele>
        <time>2024-01-31T08:27:53.000Z</time>
      </trkpt>
      <trkpt lat="45.26492" lon="2.56798">
        <ele>1028.1999511719</ele>
        <time>2024-01-31T08:27:54.000Z</time>
      </trkpt>
      <trkpt lat="45.26482" lon="2.56811">
        <ele>1027.1999511719</ele>
        <time>2024-01-31T08:27:55.000Z</time>
      </trkpt>
      <trkpt lat="45.2647" lon="2.56821">
        <ele>1026.4000244141</ele>
        <time>2024-01-31T08:27:56.000Z</time>
      </trkpt>
      <trkpt lat="45.26458" lon="2.56831">
        <ele>1026.1999511719</ele>
        <time>2024-01-31T08:27:57.000Z</time>
      </trkpt>
      <trkpt lat="45.26433" lon="2.5685">
        <ele>1025.1999511719</ele>
        <time>2024-01-31T08:27:59.000Z</time>
      </trkpt>
      <trkpt lat="45.26409" lon="2.56867">
        <ele>1024</ele>
        <time>2024-01-31T08:28:01.000Z</time>
      </trkpt>
      <trkpt lat="45.26383" lon="2.56878">
        <ele>1022.4000244141</ele>
        <time>2024-01-31T08:28:03.000Z</time>
      </trkpt>
      <trkpt lat="45.26368" lon="2.5688">
        <ele>1022</ele>
        <time>2024-01-31T08:28:04.000Z</time>
      </trkpt>
      <trkpt lat="45.2634" lon="2.56884">
        <ele>1020.799987793</ele>
        <time>2024-01-31T08:28:06.000Z</time>
      </trkpt>
      <trkpt lat="45.26326" lon="2.56887">
        <ele>1020.200012207</ele>
        <time>2024-01-31T08:28:07.000Z</time>
      </trkpt>
      <trkpt lat="45.26312" lon="2.56893">
        <ele>1019.5999755859</ele>
        <time>2024-01-31T08:28:08.000Z</time>
      </trkpt>
      <trkpt lat="45.26299" lon="2.569">
        <ele>1018.799987793</ele>
        <time>2024-01-31T08:28:09.000Z</time>
      </trkpt>
      <trkpt lat="45.26285" lon="2.56909">
        <ele>1018.200012207</ele>
        <time>2024-01-31T08:28:10.000Z</time>
      </trkpt>
      <trkpt lat="45.26272" lon="2.56919">
        <ele>1017.5999755859</ele>
        <time>2024-01-31T08:28:11.000Z</time>
      </trkpt>
      <trkpt lat="45.26247" lon="2.56942">
        <ele>1016.4000244141</ele>
        <time>2024-01-31T08:28:13.000Z</time>
      </trkpt>
      <trkpt lat="45.26222" lon="2.56964">
        <ele>1014.5999755859</ele>
        <time>2024-01-31T08:28:15.000Z</time>
      </trkpt>
      <trkpt lat="45.26201" lon="2.56989">
        <ele>1013</ele>
        <time>2024-01-31T08:28:17.000Z</time>
      </trkpt>
      <trkpt lat="45.26191" lon="2.57003">
        <ele>1011.5999755859</ele>
        <time>2024-01-31T08:28:18.000Z</time>
      </trkpt>
      <trkpt lat="45.26184" lon="2.57018">
        <ele>1010.200012207</ele>
        <time>2024-01-31T08:28:19.000Z</time>
      </trkpt>
      <trkpt lat="45.26179" lon="2.57034">
        <ele>1009.200012207</ele>
        <time>2024-01-31T08:28:20.000Z</time>
      </trkpt>
      <trkpt lat="45.26176" lon="2.57053">
        <ele>1008.4000244141</ele>
        <time>2024-01-31T08:28:21.000Z</time>
      </trkpt>
      <trkpt lat="45.26176" lon="2.57072">
        <ele>1007.799987793</ele>
        <time>2024-01-31T08:28:22.000Z</time>
      </trkpt>
      <trkpt lat="45.26178" lon="2.57091">
        <ele>1007.200012207</ele>
        <time>2024-01-31T08:28:23.000Z</time>
      </trkpt>
      <trkpt lat="45.26184" lon="2.57109">
        <ele>1006</ele>
        <time>2024-01-31T08:28:24.000Z</time>
      </trkpt>
      <trkpt lat="45.2619" lon="2.57125">
        <ele>1005</ele>
        <time>2024-01-31T08:28:25.000Z</time>
      </trkpt>
      <trkpt lat="45.26199" lon="2.57139">
        <ele>1003.5999755859</ele>
        <time>2024-01-31T08:28:26.000Z</time>
      </trkpt>
      <trkpt lat="45.26211" lon="2.5715">
        <ele>1002.5999755859</ele>
        <time>2024-01-31T08:28:27.000Z</time>
      </trkpt>
      <trkpt lat="45.26224" lon="2.57159">
        <ele>1001.5999755859</ele>
        <time>2024-01-31T08:28:28.000Z</time>
      </trkpt>
      <trkpt lat="45.26252" lon="2.57171">
        <ele>1000.200012207</ele>
        <time>2024-01-31T08:28:30.000Z</time>
      </trkpt>
      <trkpt lat="45.26286" lon="2.57184">
        <ele>999.20001220703</ele>
        <time>2024-01-31T08:28:32.000Z</time>
      </trkpt>
      <trkpt lat="45.26316" lon="2.57194">
        <ele>997.79998779297</ele>
        <time>2024-01-31T08:28:34.000Z</time>
      </trkpt>
      <trkpt lat="45.26348" lon="2.5721">
        <ele>996.59997558594</ele>
        <time>2024-01-31T08:28:36.000Z</time>
      </trkpt>
      <trkpt lat="45.26363" lon="2.5722">
        <ele>995.79998779297</ele>
        <time>2024-01-31T08:28:37.000Z</time>
      </trkpt>
      <trkpt lat="45.26378" lon="2.57232">
        <ele>995.20001220703</ele>
        <time>2024-01-31T08:28:38.000Z</time>
      </trkpt>
      <trkpt lat="45.26408" lon="2.57251">
        <ele>994</ele>
        <time>2024-01-31T08:28:40.000Z</time>
      </trkpt>
      <trkpt lat="45.26424" lon="2.57258">
        <ele>993.40002441406</ele>
        <time>2024-01-31T08:28:41.000Z</time>
      </trkpt>
      <trkpt lat="45.26457" lon="2.57267">
        <ele>992.59997558594</ele>
        <time>2024-01-31T08:28:43.000Z</time>
      </trkpt>
      <trkpt lat="45.26492" lon="2.57274">
        <ele>991.40002441406</ele>
        <time>2024-01-31T08:28:45.000Z</time>
      </trkpt>
      <trkpt lat="45.26525" lon="2.57272">
        <ele>989.79998779297</ele>
        <time>2024-01-31T08:28:47.000Z</time>
      </trkpt>
      <trkpt lat="45.26541" lon="2.57272">
        <ele>989.20001220703</ele>
        <time>2024-01-31T08:28:48.000Z</time>
      </trkpt>
      <trkpt lat="45.26557" lon="2.57273">
        <ele>988.79998779297</ele>
        <time>2024-01-31T08:28:49.000Z</time>
      </trkpt>
      <trkpt lat="45.26572" lon="2.57277">
        <ele>987.59997558594</ele>
        <time>2024-01-31T08:28:50.000Z</time>
      </trkpt>
      <trkpt lat="45.26587" lon="2.57284">
        <ele>987.40002441406</ele>
        <time>2024-01-31T08:28:51.000Z</time>
      </trkpt>
      <trkpt lat="45.26615" lon="2.57305">
        <ele>986.40002441406</ele>
        <time>2024-01-31T08:28:53.000Z</time>
      </trkpt>
      <trkpt lat="45.26643" lon="2.5733">
        <ele>985.20001220703</ele>
        <time>2024-01-31T08:28:55.000Z</time>
      </trkpt>
      <trkpt lat="45.26672" lon="2.57353">
        <ele>983.79998779297</ele>
        <time>2024-01-31T08:28:57.000Z</time>
      </trkpt>
      <trkpt lat="45.26701" lon="2.57376">
        <ele>982</ele>
        <time>2024-01-31T08:28:59.000Z</time>
      </trkpt>
      <trkpt lat="45.26726" lon="2.57402">
        <ele>980.20001220703</ele>
        <time>2024-01-31T08:29:01.000Z</time>
      </trkpt>
      <trkpt lat="45.26737" lon="2.57418">
        <ele>978.79998779297</ele>
        <time>2024-01-31T08:29:02.000Z</time>
      </trkpt>
      <trkpt lat="45.26746" lon="2.57436">
        <ele>978</ele>
        <time>2024-01-31T08:29:03.000Z</time>
      </trkpt>
      <trkpt lat="45.26752" lon="2.57455">
        <ele>977.40002441406</ele>
        <time>2024-01-31T08:29:04.000Z</time>
      </trkpt>
      <trkpt lat="45.26757" lon="2.57476">
        <ele>976.40002441406</ele>
        <time>2024-01-31T08:29:05.000Z</time>
      </trkpt>
      <trkpt lat="45.26761" lon="2.57498">
        <ele>975.79998779297</ele>
        <time>2024-01-31T08:29:06.000Z</time>
      </trkpt>
      <trkpt lat="45.26762" lon="2.57521">
        <ele>975.40002441406</ele>
        <time>2024-01-31T08:29:07.000Z</time>
      </trkpt>
      <trkpt lat="45.26763" lon="2.57538">
        <ele>975</ele>
        <time>2024-01-31T08:29:08.000Z</time>
      </trkpt>
      <trkpt lat="45.26765" lon="2.57566">
        <ele>974.20001220703</ele>
        <time>2024-01-31T08:29:09.000Z</time>
      </trkpt>
      <trkpt lat="45.2677" lon="2.57611">
        <ele>973.20001220703</ele>
        <time>2024-01-31T08:29:11.000Z</time>
      </trkpt>
      <trkpt lat="45.26777" lon="2.57651">
        <ele>972.59997558594</ele>
        <time>2024-01-31T08:29:13.000Z</time>
      </trkpt>
      <trkpt lat="45.26781" lon="2.57674">
        <ele>971.79998779297</ele>
        <time>2024-01-31T08:29:14.000Z</time>
      </trkpt>
      <trkpt lat="45.26791" lon="2.57725">
        <ele>970.59997558594</ele>
        <time>2024-01-31T08:29:16.000Z</time>
      </trkpt>
      <trkpt lat="45.26796" lon="2.57747">
        <ele>969.59997558594</ele>
        <time>2024-01-31T08:29:17.000Z</time>
      </trkpt>
      <trkpt lat="45.26806" lon="2.57788">
        <ele>968.40002441406</ele>
        <time>2024-01-31T08:29:19.000Z</time>
      </trkpt>
      <trkpt lat="45.26813" lon="2.57833">
        <ele>966.79998779297</ele>
        <time>2024-01-31T08:29:21.000Z</time>
      </trkpt>
      <trkpt lat="45.26815" lon="2.57861">
        <ele>966.20001220703</ele>
        <time>2024-01-31T08:29:22.000Z</time>
      </trkpt>
      <trkpt lat="45.26814" lon="2.57884">
        <ele>965.59997558594</ele>
        <time>2024-01-31T08:29:23.000Z</time>
      </trkpt>
      <trkpt lat="45.26807" lon="2.57931">
        <ele>963.79998779297</ele>
        <time>2024-01-31T08:29:25.000Z</time>
      </trkpt>
      <trkpt lat="45.26795" lon="2.57976">
        <ele>962.40002441406</ele>
        <time>2024-01-31T08:29:27.000Z</time>
      </trkpt>
      <trkpt lat="45.26783" lon="2.58021">
        <ele>961</ele>
        <time>2024-01-31T08:29:29.000Z</time>
      </trkpt>
      <trkpt lat="45.26775" lon="2.58043">
        <ele>960.59997558594</ele>
        <time>2024-01-31T08:29:30.000Z</time>
      </trkpt>
      <trkpt lat="45.26768" lon="2.58066">
        <ele>959.79998779297</ele>
        <time>2024-01-31T08:29:31.000Z</time>
      </trkpt>
      <trkpt lat="45.26752" lon="2.58111">
        <ele>958.59997558594</ele>
        <time>2024-01-31T08:29:33.000Z</time>
      </trkpt>
      <trkpt lat="45.26741" lon="2.58138">
        <ele>958</ele>
        <time>2024-01-31T08:29:34.000Z</time>
      </trkpt>
      <trkpt lat="45.26731" lon="2.58159">
        <ele>957.20001220703</ele>
        <time>2024-01-31T08:29:35.000Z</time>
      </trkpt>
      <trkpt lat="45.26709" lon="2.58199">
        <ele>956</ele>
        <time>2024-01-31T08:29:37.000Z</time>
      </trkpt>
      <trkpt lat="45.267" lon="2.58215">
        <ele>955.40002441406</ele>
        <time>2024-01-31T08:29:38.000Z</time>
      </trkpt>
      <trkpt lat="45.26688" lon="2.58235">
        <ele>954.59997558594</ele>
        <time>2024-01-31T08:29:39.000Z</time>
      </trkpt>
      <trkpt lat="45.26666" lon="2.58278">
        <ele>953.40002441406</ele>
        <time>2024-01-31T08:29:41.000Z</time>
      </trkpt>
      <trkpt lat="45.26659" lon="2.58297">
        <ele>952.59997558594</ele>
        <time>2024-01-31T08:29:42.000Z</time>
      </trkpt>
      <trkpt lat="45.26655" lon="2.58313">
        <ele>951.59997558594</ele>
        <time>2024-01-31T08:29:43.000Z</time>
      </trkpt>
      <trkpt lat="45.26648" lon="2.58338">
        <ele>950.59997558594</ele>
        <time>2024-01-31T08:29:44.000Z</time>
      </trkpt>
      <trkpt lat="45.26645" lon="2.58356">
        <ele>949.79998779297</ele>
        <time>2024-01-31T08:29:45.000Z</time>
      </trkpt>
      <trkpt lat="45.26645" lon="2.58378">
        <ele>949.20001220703</ele>
        <time>2024-01-31T08:29:46.000Z</time>
      </trkpt>
      <trkpt lat="45.26645" lon="2.584">
        <ele>948.40002441406</ele>
        <time>2024-01-31T08:29:47.000Z</time>
      </trkpt>
      <trkpt lat="45.26647" lon="2.58422">
        <ele>948.20001220703</ele>
        <time>2024-01-31T08:29:48.000Z</time>
      </trkpt>
      <trkpt lat="45.2665" lon="2.58466">
        <ele>946.59997558594</ele>
        <time>2024-01-31T08:29:50.000Z</time>
      </trkpt>
      <trkpt lat="45.26656" lon="2.58511">
        <ele>945.40002441406</ele>
        <time>2024-01-31T08:29:52.000Z</time>
      </trkpt>
      <trkpt lat="45.26656" lon="2.58535">
        <ele>944.59997558594</ele>
        <time>2024-01-31T08:29:53.000Z</time>
      </trkpt>
      <trkpt lat="45.26655" lon="2.58558">
        <ele>944</ele>
        <time>2024-01-31T08:29:54.000Z</time>
      </trkpt>
      <trkpt lat="45.26652" lon="2.5858">
        <ele>943.40002441406</ele>
        <time>2024-01-31T08:29:55.000Z</time>
      </trkpt>
      <trkpt lat="45.26648" lon="2.58602">
        <ele>942.59997558594</ele>
        <time>2024-01-31T08:29:56.000Z</time>
      </trkpt>
      <trkpt lat="45.26632" lon="2.58671">
        <ele>941.20001220703</ele>
        <time>2024-01-31T08:29:59.000Z</time>
      </trkpt>
      <trkpt lat="45.26623" lon="2.58717">
        <ele>939.79998779297</ele>
        <time>2024-01-31T08:30:01.000Z</time>
      </trkpt>
      <trkpt lat="45.2662" lon="2.5874">
        <ele>939.20001220703</ele>
        <time>2024-01-31T08:30:02.000Z</time>
      </trkpt>
      <trkpt lat="45.26618" lon="2.58764">
        <ele>938.40002441406</ele>
        <time>2024-01-31T08:30:03.000Z</time>
      </trkpt>
      <trkpt lat="45.26617" lon="2.58789">
        <ele>937.40002441406</ele>
        <time>2024-01-31T08:30:04.000Z</time>
      </trkpt>
      <trkpt lat="45.26617" lon="2.58839">
        <ele>935.59997558594</ele>
        <time>2024-01-31T08:30:06.000Z</time>
      </trkpt>
      <trkpt lat="45.26617" lon="2.58865">
        <ele>934.40002441406</ele>
        <time>2024-01-31T08:30:07.000Z</time>
      </trkpt>
      <trkpt lat="45.26618" lon="2.58916">
        <ele>932.40002441406</ele>
        <time>2024-01-31T08:30:09.000Z</time>
      </trkpt>
      <trkpt lat="45.26621" lon="2.58966">
        <ele>931.20001220703</ele>
        <time>2024-01-31T08:30:11.000Z</time>
      </trkpt>
      <trkpt lat="45.26623" lon="2.58991">
        <ele>930.20001220703</ele>
        <time>2024-01-31T08:30:12.000Z</time>
      </trkpt>
      <trkpt lat="45.26627" lon="2.59016">
        <ele>929.40002441406</ele>
        <time>2024-01-31T08:30:13.000Z</time>
      </trkpt>
      <trkpt lat="45.26635" lon="2.59066">
        <ele>927.79998779297</ele>
        <time>2024-01-31T08:30:15.000Z</time>
      </trkpt>
      <trkpt lat="45.26644" lon="2.59116">
        <ele>926.20001220703</ele>
        <time>2024-01-31T08:30:17.000Z</time>
      </trkpt>
      <trkpt lat="45.26654" lon="2.59166">
        <ele>924.59997558594</ele>
        <time>2024-01-31T08:30:19.000Z</time>
      </trkpt>
      <trkpt lat="45.26662" lon="2.59215">
        <ele>923.20001220703</ele>
        <time>2024-01-31T08:30:21.000Z</time>
      </trkpt>
      <trkpt lat="45.26667" lon="2.59239">
        <ele>923</ele>
        <time>2024-01-31T08:30:22.000Z</time>
      </trkpt>
      <trkpt lat="45.2667" lon="2.59263">
        <ele>922</ele>
        <time>2024-01-31T08:30:23.000Z</time>
      </trkpt>
      <trkpt lat="45.26673" lon="2.5931">
        <ele>921</ele>
        <time>2024-01-31T08:30:25.000Z</time>
      </trkpt>
      <trkpt lat="45.26667" lon="2.59354">
        <ele>919</ele>
        <time>2024-01-31T08:30:27.000Z</time>
      </trkpt>
      <trkpt lat="45.26659" lon="2.59397">
        <ele>918.20001220703</ele>
        <time>2024-01-31T08:30:29.000Z</time>
      </trkpt>
      <trkpt lat="45.26658" lon="2.59418">
        <ele>917.59997558594</ele>
        <time>2024-01-31T08:30:30.000Z</time>
      </trkpt>
      <trkpt lat="45.26658" lon="2.5944">
        <ele>916.40002441406</ele>
        <time>2024-01-31T08:30:31.000Z</time>
      </trkpt>
      <trkpt lat="45.2666" lon="2.59461">
        <ele>915.79998779297</ele>
        <time>2024-01-31T08:30:32.000Z</time>
      </trkpt>
      <trkpt lat="45.26664" lon="2.59482">
        <ele>915.79998779297</ele>
        <time>2024-01-31T08:30:33.000Z</time>
      </trkpt>
      <trkpt lat="45.2667" lon="2.59502">
        <ele>915.20001220703</ele>
        <time>2024-01-31T08:30:34.000Z</time>
      </trkpt>
      <trkpt lat="45.26693" lon="2.59565">
        <ele>914.20001220703</ele>
        <time>2024-01-31T08:30:37.000Z</time>
      </trkpt>
      <trkpt lat="45.26713" lon="2.59625">
        <ele>912.59997558594</ele>
        <time>2024-01-31T08:30:40.000Z</time>
      </trkpt>
      <trkpt lat="45.26721" lon="2.59661">
        <ele>910.79998779297</ele>
        <time>2024-01-31T08:30:42.000Z</time>
      </trkpt>
      <trkpt lat="45.26719" lon="2.59719">
        <ele>909.59997558594</ele>
        <time>2024-01-31T08:30:45.000Z</time>
      </trkpt>
      <trkpt lat="45.26709" lon="2.59809">
        <ele>908.59997558594</ele>
        <time>2024-01-31T08:30:49.000Z</time>
      </trkpt>
      <trkpt lat="45.26701" lon="2.59854">
        <ele>907.59997558594</ele>
        <time>2024-01-31T08:30:51.000Z</time>
      </trkpt>
      <trkpt lat="45.26694" lon="2.59874">
        <ele>906.79998779297</ele>
        <time>2024-01-31T08:30:52.000Z</time>
      </trkpt>
      <trkpt lat="45.26685" lon="2.59892">
        <ele>906</ele>
        <time>2024-01-31T08:30:53.000Z</time>
      </trkpt>
      <trkpt lat="45.26669" lon="2.59929">
        <ele>905</ele>
        <time>2024-01-31T08:30:55.000Z</time>
      </trkpt>
      <trkpt lat="45.26663" lon="2.59948">
        <ele>904.20001220703</ele>
        <time>2024-01-31T08:30:56.000Z</time>
      </trkpt>
      <trkpt lat="45.26659" lon="2.59969">
        <ele>903.79998779297</ele>
        <time>2024-01-31T08:30:57.000Z</time>
      </trkpt>
      <trkpt lat="45.26647" lon="2.60035">
        <ele>902.40002441406</ele>
        <time>2024-01-31T08:31:00.000Z</time>
      </trkpt>
      <trkpt lat="45.26643" lon="2.60101">
        <ele>901.20001220703</ele>
        <time>2024-01-31T08:31:03.000Z</time>
      </trkpt>
      <trkpt lat="45.26644" lon="2.60143">
        <ele>899.59997558594</ele>
        <time>2024-01-31T08:31:05.000Z</time>
      </trkpt>
      <trkpt lat="45.26644" lon="2.60183">
        <ele>898.40002441406</ele>
        <time>2024-01-31T08:31:07.000Z</time>
      </trkpt>
      <trkpt lat="45.26643" lon="2.60201">
        <ele>898</ele>
        <time>2024-01-31T08:31:08.000Z</time>
      </trkpt>
      <trkpt lat="45.2664" lon="2.60218">
        <ele>897.40002441406</ele>
        <time>2024-01-31T08:31:09.000Z</time>
      </trkpt>
      <trkpt lat="45.26633" lon="2.6025">
        <ele>896.59997558594</ele>
        <time>2024-01-31T08:31:11.000Z</time>
      </trkpt>
      <trkpt lat="45.2663" lon="2.60264">
        <ele>896</ele>
        <time>2024-01-31T08:31:12.000Z</time>
      </trkpt>
      <trkpt lat="45.26628" lon="2.60278">
        <ele>895.79998779297</ele>
        <time>2024-01-31T08:31:13.000Z</time>
      </trkpt>
      <trkpt lat="45.26628" lon="2.60291">
        <ele>895.40002441406</ele>
        <time>2024-01-31T08:31:14.000Z</time>
      </trkpt>
      <trkpt lat="45.26631" lon="2.60303">
        <ele>895</ele>
        <time>2024-01-31T08:31:15.000Z</time>
      </trkpt>
      <trkpt lat="45.26635" lon="2.60313">
        <ele>894.79998779297</ele>
        <time>2024-01-31T08:31:16.000Z</time>
      </trkpt>
      <trkpt lat="45.26641" lon="2.60321">
        <ele>894.79998779297</ele>
        <time>2024-01-31T08:31:17.000Z</time>
      </trkpt>
      <trkpt lat="45.26648" lon="2.60326">
        <ele>894.59997558594</ele>
        <time>2024-01-31T08:31:18.000Z</time>
      </trkpt>
      <trkpt lat="45.26655" lon="2.60327">
        <ele>894.59997558594</ele>
        <time>2024-01-31T08:31:19.000Z</time>
      </trkpt>
      <trkpt lat="45.26664" lon="2.60323">
        <ele>894.59997558594</ele>
        <time>2024-01-31T08:31:20.000Z</time>
      </trkpt>
      <trkpt lat="45.26672" lon="2.60315">
        <ele>894.59997558594</ele>
        <time>2024-01-31T08:31:21.000Z</time>
      </trkpt>
      <trkpt lat="45.26679" lon="2.60304">
        <ele>895</ele>
        <time>2024-01-31T08:31:22.000Z</time>
      </trkpt>
      <trkpt lat="45.26702" lon="2.60272">
        <ele>895</ele>
        <time>2024-01-31T08:31:25.000Z</time>
      </trkpt>
      <trkpt lat="45.26721" lon="2.6026">
        <ele>895.20001220703</ele>
        <time>2024-01-31T08:31:27.000Z</time>
      </trkpt>
      <trkpt lat="45.26732" lon="2.60259">
        <ele>895.40002441406</ele>
        <time>2024-01-31T08:31:28.000Z</time>
      </trkpt>
      <trkpt lat="45.26764" lon="2.60262">
        <ele>896.20001220703</ele>
        <time>2024-01-31T08:31:31.000Z</time>
      </trkpt>
      <trkpt lat="45.26772" lon="2.60266">
        <ele>896.40002441406</ele>
        <time>2024-01-31T08:31:32.000Z</time>
      </trkpt>
      <trkpt lat="45.26789" lon="2.60281">
        <ele>896.79998779297</ele>
        <time>2024-01-31T08:31:34.000Z</time>
      </trkpt>
      <trkpt lat="45.26797" lon="2.60292">
        <ele>897.20001220703</ele>
        <time>2024-01-31T08:31:35.000Z</time>
      </trkpt>
      <trkpt lat="45.26804" lon="2.60304">
        <ele>897.40002441406</ele>
        <time>2024-01-31T08:31:36.000Z</time>
      </trkpt>
      <trkpt lat="45.26831" lon="2.60349">
        <ele>898.59997558594</ele>
        <time>2024-01-31T08:31:40.000Z</time>
      </trkpt>
      <trkpt lat="45.26844" lon="2.60372">
        <ele>899</ele>
        <time>2024-01-31T08:31:42.000Z</time>
      </trkpt>
      <trkpt lat="45.26859" lon="2.60394">
        <ele>899.59997558594</ele>
        <time>2024-01-31T08:31:44.000Z</time>
      </trkpt>
      <trkpt lat="45.26882" lon="2.6043">
        <ele>900.59997558594</ele>
        <time>2024-01-31T08:31:47.000Z</time>
      </trkpt>
      <trkpt lat="45.26897" lon="2.60455">
        <ele>901.20001220703</ele>
        <time>2024-01-31T08:31:49.000Z</time>
      </trkpt>
      <trkpt lat="45.26903" lon="2.60468">
        <ele>901.59997558594</ele>
        <time>2024-01-31T08:31:50.000Z</time>
      </trkpt>
      <trkpt lat="45.26909" lon="2.60481">
        <ele>901.79998779297</ele>
        <time>2024-01-31T08:31:51.000Z</time>
      </trkpt>
      <trkpt lat="45.26919" lon="2.60505">
        <ele>902</ele>
        <time>2024-01-31T08:31:53.000Z</time>
      </trkpt>
      <trkpt lat="45.26929" lon="2.60527">
        <ele>902.20001220703</ele>
        <time>2024-01-31T08:31:55.000Z</time>
      </trkpt>
      <trkpt lat="45.26943" lon="2.60539">
        <ele>902.40002441406</ele>
        <time>2024-01-31T08:31:57.000Z</time>
      </trkpt>
      <trkpt lat="45.26963" lon="2.60539">
        <ele>902.40002441406</ele>
        <time>2024-01-31T08:31:59.000Z</time>
      </trkpt>
      <trkpt lat="45.26974" lon="2.60537">
        <ele>903</ele>
        <time>2024-01-31T08:32:00.000Z</time>
      </trkpt>
      <trkpt lat="45.26998" lon="2.60536">
        <ele>903.59997558594</ele>
        <time>2024-01-31T08:32:02.000Z</time>
      </trkpt>
      <trkpt lat="45.2701" lon="2.60539">
        <ele>904.20001220703</ele>
        <time>2024-01-31T08:32:03.000Z</time>
      </trkpt>
      <trkpt lat="45.27049" lon="2.60548">
        <ele>904.59997558594</ele>
        <time>2024-01-31T08:32:06.000Z</time>
      </trkpt>
      <trkpt lat="45.27063" lon="2.60548">
        <ele>904.59997558594</ele>
        <time>2024-01-31T08:32:07.000Z</time>
      </trkpt>
      <trkpt lat="45.27077" lon="2.60545">
        <ele>904.79998779297</ele>
        <time>2024-01-31T08:32:08.000Z</time>
      </trkpt>
      <trkpt lat="45.271" lon="2.6053">
        <ele>905</ele>
        <time>2024-01-31T08:32:10.000Z</time>
      </trkpt>
      <trkpt lat="45.27121" lon="2.60507">
        <ele>905.40002441406</ele>
        <time>2024-01-31T08:32:12.000Z</time>
      </trkpt>
      <trkpt lat="45.27143" lon="2.60481">
        <ele>906</ele>
        <time>2024-01-31T08:32:14.000Z</time>
      </trkpt>
      <trkpt lat="45.27164" lon="2.60455">
        <ele>906.40002441406</ele>
        <time>2024-01-31T08:32:16.000Z</time>
      </trkpt>
      <trkpt lat="45.27196" lon="2.60416">
        <ele>906.79998779297</ele>
        <time>2024-01-31T08:32:19.000Z</time>
      </trkpt>
      <trkpt lat="45.27207" lon="2.60406">
        <ele>906.79998779297</ele>
        <time>2024-01-31T08:32:20.000Z</time>
      </trkpt>
      <trkpt lat="45.27219" lon="2.60398">
        <ele>907.20001220703</ele>
        <time>2024-01-31T08:32:21.000Z</time>
      </trkpt>
      <trkpt lat="45.27233" lon="2.60392">
        <ele>907.40002441406</ele>
        <time>2024-01-31T08:32:22.000Z</time>
      </trkpt>
      <trkpt lat="45.27246" lon="2.60388">
        <ele>907.40002441406</ele>
        <time>2024-01-31T08:32:23.000Z</time>
      </trkpt>
      <trkpt lat="45.27259" lon="2.60387">
        <ele>907.59997558594</ele>
        <time>2024-01-31T08:32:24.000Z</time>
      </trkpt>
      <trkpt lat="45.2727" lon="2.60389">
        <ele>907.59997558594</ele>
        <time>2024-01-31T08:32:25.000Z</time>
      </trkpt>
      <trkpt lat="45.2728" lon="2.60395">
        <ele>907.59997558594</ele>
        <time>2024-01-31T08:32:26.000Z</time>
      </trkpt>
      <trkpt lat="45.27288" lon="2.60405">
        <ele>907.79998779297</ele>
        <time>2024-01-31T08:32:27.000Z</time>
      </trkpt>
      <trkpt lat="45.27293" lon="2.60419">
        <ele>907.79998779297</ele>
        <time>2024-01-31T08:32:28.000Z</time>
      </trkpt>
      <trkpt lat="45.27296" lon="2.60435">
        <ele>908</ele>
        <time>2024-01-31T08:32:29.000Z</time>
      </trkpt>
      <trkpt lat="45.27298" lon="2.60453">
        <ele>908.40002441406</ele>
        <time>2024-01-31T08:32:30.000Z</time>
      </trkpt>
      <trkpt lat="45.27298" lon="2.60492">
        <ele>908.79998779297</ele>
        <time>2024-01-31T08:32:32.000Z</time>
      </trkpt>
      <trkpt lat="45.273" lon="2.60533">
        <ele>909.20001220703</ele>
        <time>2024-01-31T08:32:34.000Z</time>
      </trkpt>
      <trkpt lat="45.27305" lon="2.60553">
        <ele>909.40002441406</ele>
        <time>2024-01-31T08:32:35.000Z</time>
      </trkpt>
      <trkpt lat="45.27312" lon="2.60572">
        <ele>909.79998779297</ele>
        <time>2024-01-31T08:32:36.000Z</time>
      </trkpt>
      <trkpt lat="45.27329" lon="2.6061">
        <ele>910.59997558594</ele>
        <time>2024-01-31T08:32:38.000Z</time>
      </trkpt>
      <trkpt lat="45.27336" lon="2.6063">
        <ele>910.79998779297</ele>
        <time>2024-01-31T08:32:39.000Z</time>
      </trkpt>
      <trkpt lat="45.27343" lon="2.60671">
        <ele>911</ele>
        <time>2024-01-31T08:32:41.000Z</time>
      </trkpt>
      <trkpt lat="45.27344" lon="2.60714">
        <ele>911</ele>
        <time>2024-01-31T08:32:43.000Z</time>
      </trkpt>
      <trkpt lat="45.27343" lon="2.60737">
        <ele>911.20001220703</ele>
        <time>2024-01-31T08:32:44.000Z</time>
      </trkpt>
      <trkpt lat="45.27334" lon="2.60781">
        <ele>911.79998779297</ele>
        <time>2024-01-31T08:32:46.000Z</time>
      </trkpt>
      <trkpt lat="45.27324" lon="2.60822">
        <ele>912.40002441406</ele>
        <time>2024-01-31T08:32:48.000Z</time>
      </trkpt>
      <trkpt lat="45.27319" lon="2.60842">
        <ele>912.79998779297</ele>
        <time>2024-01-31T08:32:49.000Z</time>
      </trkpt>
      <trkpt lat="45.27316" lon="2.60885">
        <ele>913.59997558594</ele>
        <time>2024-01-31T08:32:51.000Z</time>
      </trkpt>
      <trkpt lat="45.27316" lon="2.60907">
        <ele>914</ele>
        <time>2024-01-31T08:32:52.000Z</time>
      </trkpt>
      <trkpt lat="45.27317" lon="2.6095">
        <ele>915.20001220703</ele>
        <time>2024-01-31T08:32:54.000Z</time>
      </trkpt>
      <trkpt lat="45.27316" lon="2.60995">
        <ele>916.20001220703</ele>
        <time>2024-01-31T08:32:56.000Z</time>
      </trkpt>
      <trkpt lat="45.27316" lon="2.61017">
        <ele>917.20001220703</ele>
        <time>2024-01-31T08:32:57.000Z</time>
      </trkpt>
      <trkpt lat="45.27315" lon="2.61061">
        <ele>918.40002441406</ele>
        <time>2024-01-31T08:32:59.000Z</time>
      </trkpt>
      <trkpt lat="45.27315" lon="2.61123">
        <ele>919.40002441406</ele>
        <time>2024-01-31T08:33:02.000Z</time>
      </trkpt>
      <trkpt lat="45.27316" lon="2.61141">
        <ele>920</ele>
        <time>2024-01-31T08:33:03.000Z</time>
      </trkpt>
      <trkpt lat="45.27319" lon="2.61159">
        <ele>920.59997558594</ele>
        <time>2024-01-31T08:33:04.000Z</time>
      </trkpt>
      <trkpt lat="45.27324" lon="2.61175">
        <ele>921</ele>
        <time>2024-01-31T08:33:05.000Z</time>
      </trkpt>
      <trkpt lat="45.27331" lon="2.61191">
        <ele>921.79998779297</ele>
        <time>2024-01-31T08:33:06.000Z</time>
      </trkpt>
      <trkpt lat="45.27348" lon="2.61224">
        <ele>923.40002441406</ele>
        <time>2024-01-31T08:33:08.000Z</time>
      </trkpt>
      <trkpt lat="45.27366" lon="2.6126">
        <ele>924.59997558594</ele>
        <time>2024-01-31T08:33:10.000Z</time>
      </trkpt>
      <trkpt lat="45.27383" lon="2.61297">
        <ele>926.20001220703</ele>
        <time>2024-01-31T08:33:12.000Z</time>
      </trkpt>
      <trkpt lat="45.27396" lon="2.61339">
        <ele>927.40002441406</ele>
        <time>2024-01-31T08:33:14.000Z</time>
      </trkpt>
      <trkpt lat="45.27401" lon="2.61363">
        <ele>927.59997558594</ele>
        <time>2024-01-31T08:33:15.000Z</time>
      </trkpt>
      <trkpt lat="45.27412" lon="2.61445">
        <ele>928</ele>
        <time>2024-01-31T08:33:18.000Z</time>
      </trkpt>
      <trkpt lat="45.27425" lon="2.61533">
        <ele>927.79998779297</ele>
        <time>2024-01-31T08:33:21.000Z</time>
      </trkpt>
      <trkpt lat="45.27434" lon="2.61594">
        <ele>927.59997558594</ele>
        <time>2024-01-31T08:33:23.000Z</time>
      </trkpt>
      <trkpt lat="45.27447" lon="2.61687">
        <ele>927</ele>
        <time>2024-01-31T08:33:26.000Z</time>
      </trkpt>
      <trkpt lat="45.2746" lon="2.61781">
        <ele>926.20001220703</ele>
        <time>2024-01-31T08:33:29.000Z</time>
      </trkpt>
      <trkpt lat="45.27463" lon="2.61811">
        <ele>926</ele>
        <time>2024-01-31T08:33:30.000Z</time>
      </trkpt>
      <trkpt lat="45.27474" lon="2.61901">
        <ele>925.40002441406</ele>
        <time>2024-01-31T08:33:33.000Z</time>
      </trkpt>
      <trkpt lat="45.27477" lon="2.6193">
        <ele>925.20001220703</ele>
        <time>2024-01-31T08:33:34.000Z</time>
      </trkpt>
      <trkpt lat="45.27482" lon="2.61983">
        <ele>924.40002441406</ele>
        <time>2024-01-31T08:33:36.000Z</time>
      </trkpt>
      <trkpt lat="45.27486" lon="2.62007">
        <ele>924</ele>
        <time>2024-01-31T08:33:37.000Z</time>
      </trkpt>
      <trkpt lat="45.27491" lon="2.6203">
        <ele>923.40002441406</ele>
        <time>2024-01-31T08:33:38.000Z</time>
      </trkpt>
      <trkpt lat="45.27498" lon="2.62051">
        <ele>922.59997558594</ele>
        <time>2024-01-31T08:33:39.000Z</time>
      </trkpt>
      <trkpt lat="45.27516" lon="2.62091">
        <ele>921</ele>
        <time>2024-01-31T08:33:41.000Z</time>
      </trkpt>
      <trkpt lat="45.27527" lon="2.62111">
        <ele>919.40002441406</ele>
        <time>2024-01-31T08:33:42.000Z</time>
      </trkpt>
      <trkpt lat="45.27536" lon="2.62131">
        <ele>918</ele>
        <time>2024-01-31T08:33:43.000Z</time>
      </trkpt>
      <trkpt lat="45.27556" lon="2.62171">
        <ele>916</ele>
        <time>2024-01-31T08:33:45.000Z</time>
      </trkpt>
      <trkpt lat="45.27577" lon="2.62208">
        <ele>913.59997558594</ele>
        <time>2024-01-31T08:33:47.000Z</time>
      </trkpt>
      <trkpt lat="45.27586" lon="2.62225">
        <ele>912.40002441406</ele>
        <time>2024-01-31T08:33:48.000Z</time>
      </trkpt>
      <trkpt lat="45.27595" lon="2.6224">
        <ele>912</ele>
        <time>2024-01-31T08:33:49.000Z</time>
      </trkpt>
      <trkpt lat="45.27603" lon="2.62253">
        <ele>911</ele>
        <time>2024-01-31T08:33:50.000Z</time>
      </trkpt>
      <trkpt lat="45.27624" lon="2.6227">
        <ele>910.20001220703</ele>
        <time>2024-01-31T08:33:52.000Z</time>
      </trkpt>
      <trkpt lat="45.27637" lon="2.62274">
        <ele>909.79998779297</ele>
        <time>2024-01-31T08:33:53.000Z</time>
      </trkpt>
      <trkpt lat="45.27666" lon="2.62277">
        <ele>908.79998779297</ele>
        <time>2024-01-31T08:33:55.000Z</time>
      </trkpt>
      <trkpt lat="45.27682" lon="2.62276">
        <ele>908.40002441406</ele>
        <time>2024-01-31T08:33:56.000Z</time>
      </trkpt>
      <trkpt lat="45.27713" lon="2.62265">
        <ele>906.79998779297</ele>
        <time>2024-01-31T08:33:58.000Z</time>
      </trkpt>
      <trkpt lat="45.27741" lon="2.62254">
        <ele>905.20001220703</ele>
        <time>2024-01-31T08:34:00.000Z</time>
      </trkpt>
      <trkpt lat="45.27754" lon="2.62252">
        <ele>904</ele>
        <time>2024-01-31T08:34:01.000Z</time>
      </trkpt>
      <trkpt lat="45.27767" lon="2.62253">
        <ele>903.59997558594</ele>
        <time>2024-01-31T08:34:02.000Z</time>
      </trkpt>
      <trkpt lat="45.27779" lon="2.62258">
        <ele>903.20001220703</ele>
        <time>2024-01-31T08:34:03.000Z</time>
      </trkpt>
      <trkpt lat="45.27804" lon="2.62273">
        <ele>902.79998779297</ele>
        <time>2024-01-31T08:34:05.000Z</time>
      </trkpt>
      <trkpt lat="45.27831" lon="2.6228">
        <ele>902.59997558594</ele>
        <time>2024-01-31T08:34:07.000Z</time>
      </trkpt>
      <trkpt lat="45.27849" lon="2.62281">
        <ele>902.59997558594</ele>
        <time>2024-01-31T08:34:08.000Z</time>
      </trkpt>
      <trkpt lat="45.27909" lon="2.6228">
        <ele>901.40002441406</ele>
        <time>2024-01-31T08:34:12.000Z</time>
      </trkpt>
      <trkpt lat="45.2792" lon="2.62282">
        <ele>900.79998779297</ele>
        <time>2024-01-31T08:34:13.000Z</time>
      </trkpt>
      <trkpt lat="45.27932" lon="2.62288">
        <ele>900.20001220703</ele>
        <time>2024-01-31T08:34:14.000Z</time>
      </trkpt>
      <trkpt lat="45.27941" lon="2.62298">
        <ele>900</ele>
        <time>2024-01-31T08:34:15.000Z</time>
      </trkpt>
      <trkpt lat="45.2795" lon="2.62313">
        <ele>899.79998779297</ele>
        <time>2024-01-31T08:34:16.000Z</time>
      </trkpt>
      <trkpt lat="45.27969" lon="2.62345">
        <ele>899</ele>
        <time>2024-01-31T08:34:18.000Z</time>
      </trkpt>
      <trkpt lat="45.2798" lon="2.62367">
        <ele>898.59997558594</ele>
        <time>2024-01-31T08:34:19.000Z</time>
      </trkpt>
      <trkpt lat="45.28013" lon="2.62448">
        <ele>898.40002441406</ele>
        <time>2024-01-31T08:34:23.000Z</time>
      </trkpt>
      <trkpt lat="45.28019" lon="2.62465">
        <ele>898.40002441406</ele>
        <time>2024-01-31T08:34:24.000Z</time>
      </trkpt>
      <trkpt lat="45.28031" lon="2.62517">
        <ele>898.20001220703</ele>
        <time>2024-01-31T08:34:26.000Z</time>
      </trkpt>
      <trkpt lat="45.28046" lon="2.62605">
        <ele>898</ele>
        <time>2024-01-31T08:34:30.000Z</time>
      </trkpt>
      <trkpt lat="45.2805" lon="2.62629">
        <ele>897.59997558594</ele>
        <time>2024-01-31T08:34:31.000Z</time>
      </trkpt>
      <trkpt lat="45.28054" lon="2.62676">
        <ele>897</ele>
        <time>2024-01-31T08:34:33.000Z</time>
      </trkpt>
      <trkpt lat="45.28055" lon="2.62699">
        <ele>896.59997558594</ele>
        <time>2024-01-31T08:34:34.000Z</time>
      </trkpt>
      <trkpt lat="45.28053" lon="2.62721">
        <ele>896.40002441406</ele>
        <time>2024-01-31T08:34:35.000Z</time>
      </trkpt>
      <trkpt lat="45.2805" lon="2.62744">
        <ele>895.59997558594</ele>
        <time>2024-01-31T08:34:36.000Z</time>
      </trkpt>
      <trkpt lat="45.28046" lon="2.62766">
        <ele>894.59997558594</ele>
        <time>2024-01-31T08:34:37.000Z</time>
      </trkpt>
      <trkpt lat="45.28043" lon="2.62788">
        <ele>893.79998779297</ele>
        <time>2024-01-31T08:34:38.000Z</time>
      </trkpt>
      <trkpt lat="45.28043" lon="2.6281">
        <ele>892.79998779297</ele>
        <time>2024-01-31T08:34:39.000Z</time>
      </trkpt>
      <trkpt lat="45.28043" lon="2.62838">
        <ele>892</ele>
        <time>2024-01-31T08:34:40.000Z</time>
      </trkpt>
      <trkpt lat="45.28043" lon="2.62858">
        <ele>891.20001220703</ele>
        <time>2024-01-31T08:34:41.000Z</time>
      </trkpt>
      <trkpt lat="45.28048" lon="2.62906">
        <ele>889.59997558594</ele>
        <time>2024-01-31T08:34:43.000Z</time>
      </trkpt>
      <trkpt lat="45.28051" lon="2.6293">
        <ele>888.79998779297</ele>
        <time>2024-01-31T08:34:44.000Z</time>
      </trkpt>
      <trkpt lat="45.28054" lon="2.62954">
        <ele>887.79998779297</ele>
        <time>2024-01-31T08:34:45.000Z</time>
      </trkpt>
      <trkpt lat="45.28059" lon="2.63003">
        <ele>886.20001220703</ele>
        <time>2024-01-31T08:34:47.000Z</time>
      </trkpt>
      <trkpt lat="45.28064" lon="2.63026">
        <ele>885</ele>
        <time>2024-01-31T08:34:48.000Z</time>
      </trkpt>
      <trkpt lat="45.28069" lon="2.63048">
        <ele>884.20001220703</ele>
        <time>2024-01-31T08:34:49.000Z</time>
      </trkpt>
      <trkpt lat="45.28077" lon="2.63068">
        <ele>883.40002441406</ele>
        <time>2024-01-31T08:34:50.000Z</time>
      </trkpt>
      <trkpt lat="45.28086" lon="2.63084">
        <ele>882.40002441406</ele>
        <time>2024-01-31T08:34:51.000Z</time>
      </trkpt>
      <trkpt lat="45.28111" lon="2.63109">
        <ele>881.59997558594</ele>
        <time>2024-01-31T08:34:53.000Z</time>
      </trkpt>
      <trkpt lat="45.28142" lon="2.6312">
        <ele>881.59997558594</ele>
        <time>2024-01-31T08:34:55.000Z</time>
      </trkpt>
      <trkpt lat="45.28174" lon="2.63123">
        <ele>881.20001220703</ele>
        <time>2024-01-31T08:34:57.000Z</time>
      </trkpt>
      <trkpt lat="45.28191" lon="2.63123">
        <ele>881.20001220703</ele>
        <time>2024-01-31T08:34:58.000Z</time>
      </trkpt>
      <trkpt lat="45.28258" lon="2.63133">
        <ele>880.59997558594</ele>
        <time>2024-01-31T08:35:02.000Z</time>
      </trkpt>
      <trkpt lat="45.28307" lon="2.63151">
        <ele>880.20001220703</ele>
        <time>2024-01-31T08:35:05.000Z</time>
      </trkpt>
      <trkpt lat="45.28369" lon="2.63172">
        <ele>879.40002441406</ele>
        <time>2024-01-31T08:35:09.000Z</time>
      </trkpt>
      <trkpt lat="45.28403" lon="2.63187">
        <ele>879.40002441406</ele>
        <time>2024-01-31T08:35:11.000Z</time>
      </trkpt>
      <trkpt lat="45.28416" lon="2.63198">
        <ele>879.59997558594</ele>
        <time>2024-01-31T08:35:12.000Z</time>
      </trkpt>
      <trkpt lat="45.28426" lon="2.63208">
        <ele>879.79998779297</ele>
        <time>2024-01-31T08:35:13.000Z</time>
      </trkpt>
      <trkpt lat="45.2845" lon="2.63239">
        <ele>880.20001220703</ele>
        <time>2024-01-31T08:35:15.000Z</time>
      </trkpt>
      <trkpt lat="45.28476" lon="2.63296">
        <ele>880.20001220703</ele>
        <time>2024-01-31T08:35:18.000Z</time>
      </trkpt>
      <trkpt lat="45.28498" lon="2.63359">
        <ele>879</ele>
        <time>2024-01-31T08:35:21.000Z</time>
      </trkpt>
      <trkpt lat="45.28512" lon="2.63396">
        <ele>877.20001220703</ele>
        <time>2024-01-31T08:35:23.000Z</time>
      </trkpt>
      <trkpt lat="45.28526" lon="2.63435">
        <ele>876</ele>
        <time>2024-01-31T08:35:25.000Z</time>
      </trkpt>
      <trkpt lat="45.28532" lon="2.63455">
        <ele>875</ele>
        <time>2024-01-31T08:35:26.000Z</time>
      </trkpt>
      <trkpt lat="45.28544" lon="2.63497">
        <ele>873.79998779297</ele>
        <time>2024-01-31T08:35:28.000Z</time>
      </trkpt>
      <trkpt lat="45.28551" lon="2.63519">
        <ele>873.40002441406</ele>
        <time>2024-01-31T08:35:29.000Z</time>
      </trkpt>
      <trkpt lat="45.28558" lon="2.6354">
        <ele>872.59997558594</ele>
        <time>2024-01-31T08:35:30.000Z</time>
      </trkpt>
      <trkpt lat="45.28578" lon="2.63605">
        <ele>871</ele>
        <time>2024-01-31T08:35:33.000Z</time>
      </trkpt>
      <trkpt lat="45.2859" lon="2.63646">
        <ele>869.40002441406</ele>
        <time>2024-01-31T08:35:35.000Z</time>
      </trkpt>
      <trkpt lat="45.28596" lon="2.63664">
        <ele>868.59997558594</ele>
        <time>2024-01-31T08:35:36.000Z</time>
      </trkpt>
      <trkpt lat="45.28601" lon="2.6368">
        <ele>867.59997558594</ele>
        <time>2024-01-31T08:35:37.000Z</time>
      </trkpt>
      <trkpt lat="45.28605" lon="2.63694">
        <ele>866.59997558594</ele>
        <time>2024-01-31T08:35:38.000Z</time>
      </trkpt>
      <trkpt lat="45.28609" lon="2.63704">
        <ele>865</ele>
        <time>2024-01-31T08:35:39.000Z</time>
      </trkpt>
      <trkpt lat="45.28615" lon="2.63719">
        <ele>863.20001220703</ele>
        <time>2024-01-31T08:35:41.000Z</time>
      </trkpt>
      <trkpt lat="45.28616" lon="2.63724">
        <ele>862.59997558594</ele>
        <time>2024-01-31T08:35:42.000Z</time>
      </trkpt>
      <trkpt lat="45.28618" lon="2.63732">
        <ele>862.40002441406</ele>
        <time>2024-01-31T08:35:45.000Z</time>
      </trkpt>
      <trkpt lat="45.28618" lon="2.63735">
        <ele>862.40002441406</ele>
        <time>2024-01-31T08:35:46.000Z</time>
      </trkpt>
      <trkpt lat="45.28615" lon="2.63745">
        <ele>862.40002441406</ele>
        <time>2024-01-31T08:35:48.000Z</time>
      </trkpt>
      <trkpt lat="45.28613" lon="2.63752">
        <ele>862.40002441406</ele>
        <time>2024-01-31T08:35:49.000Z</time>
      </trkpt>
      <trkpt lat="45.28598" lon="2.63784">
        <ele>862.40002441406</ele>
        <time>2024-01-31T08:35:52.000Z</time>
      </trkpt>
      <trkpt lat="45.28587" lon="2.63813">
        <ele>862</ele>
        <time>2024-01-31T08:35:54.000Z</time>
      </trkpt>
      <trkpt lat="45.2858" lon="2.6383">
        <ele>862</ele>
        <time>2024-01-31T08:35:55.000Z</time>
      </trkpt>
      <trkpt lat="45.2856" lon="2.63885">
        <ele>861</ele>
        <time>2024-01-31T08:35:58.000Z</time>
      </trkpt>
      <trkpt lat="45.28553" lon="2.63905">
        <ele>860.79998779297</ele>
        <time>2024-01-31T08:35:59.000Z</time>
      </trkpt>
      <trkpt lat="45.28541" lon="2.63947">
        <ele>860.40002441406</ele>
        <time>2024-01-31T08:36:01.000Z</time>
      </trkpt>
      <trkpt lat="45.28539" lon="2.63968">
        <ele>860.20001220703</ele>
        <time>2024-01-31T08:36:02.000Z</time>
      </trkpt>
      <trkpt lat="45.28538" lon="2.6399">
        <ele>860</ele>
        <time>2024-01-31T08:36:03.000Z</time>
      </trkpt>
      <trkpt lat="45.28538" lon="2.64011">
        <ele>859.79998779297</ele>
        <time>2024-01-31T08:36:04.000Z</time>
      </trkpt>
      <trkpt lat="45.2854" lon="2.64034">
        <ele>859.40002441406</ele>
        <time>2024-01-31T08:36:05.000Z</time>
      </trkpt>
      <trkpt lat="45.2855" lon="2.64123">
        <ele>858.79998779297</ele>
        <time>2024-01-31T08:36:09.000Z</time>
      </trkpt>
      <trkpt lat="45.28551" lon="2.64145">
        <ele>858.59997558594</ele>
        <time>2024-01-31T08:36:10.000Z</time>
      </trkpt>
      <trkpt lat="45.28552" lon="2.64168">
        <ele>858.40002441406</ele>
        <time>2024-01-31T08:36:11.000Z</time>
      </trkpt>
      <trkpt lat="45.28549" lon="2.6423">
        <ele>857.79998779297</ele>
        <time>2024-01-31T08:36:14.000Z</time>
      </trkpt>
      <trkpt lat="45.28546" lon="2.6425">
        <ele>857.40002441406</ele>
        <time>2024-01-31T08:36:15.000Z</time>
      </trkpt>
      <trkpt lat="45.28541" lon="2.64287">
        <ele>856</ele>
        <time>2024-01-31T08:36:17.000Z</time>
      </trkpt>
      <trkpt lat="45.28534" lon="2.64323">
        <ele>855.40002441406</ele>
        <time>2024-01-31T08:36:19.000Z</time>
      </trkpt>
      <trkpt lat="45.2853" lon="2.6434">
        <ele>854.40002441406</ele>
        <time>2024-01-31T08:36:20.000Z</time>
      </trkpt>
      <trkpt lat="45.28525" lon="2.64375">
        <ele>853.59997558594</ele>
        <time>2024-01-31T08:36:22.000Z</time>
      </trkpt>
      <trkpt lat="45.28524" lon="2.64393">
        <ele>853</ele>
        <time>2024-01-31T08:36:23.000Z</time>
      </trkpt>
      <trkpt lat="45.28527" lon="2.64461">
        <ele>852.20001220703</ele>
        <time>2024-01-31T08:36:27.000Z</time>
      </trkpt>
      <trkpt lat="45.28524" lon="2.64546">
        <ele>852.59997558594</ele>
        <time>2024-01-31T08:36:32.000Z</time>
      </trkpt>
      <trkpt lat="45.28522" lon="2.64633">
        <ele>852.40002441406</ele>
        <time>2024-01-31T08:36:37.000Z</time>
      </trkpt>
      <trkpt lat="45.28524" lon="2.64665">
        <ele>852</ele>
        <time>2024-01-31T08:36:39.000Z</time>
      </trkpt>
      <trkpt lat="45.28526" lon="2.64692">
        <ele>851.20001220703</ele>
        <time>2024-01-31T08:36:41.000Z</time>
      </trkpt>
      <trkpt lat="45.28526" lon="2.64705">
        <ele>851.20001220703</ele>
        <time>2024-01-31T08:36:42.000Z</time>
      </trkpt>
      <trkpt lat="45.28524" lon="2.64716">
        <ele>851.20001220703</ele>
        <time>2024-01-31T08:36:43.000Z</time>
      </trkpt>
      <trkpt lat="45.28517" lon="2.6474">
        <ele>851.40002441406</ele>
        <time>2024-01-31T08:36:45.000Z</time>
      </trkpt>
      <trkpt lat="45.28498" lon="2.64795">
        <ele>852</ele>
        <time>2024-01-31T08:36:49.000Z</time>
      </trkpt>
      <trkpt lat="45.28477" lon="2.64878">
        <ele>852.20001220703</ele>
        <time>2024-01-31T08:36:54.000Z</time>
      </trkpt>
      <trkpt lat="45.2845" lon="2.64956">
        <ele>852.20001220703</ele>
        <time>2024-01-31T08:36:59.000Z</time>
      </trkpt>
      <trkpt lat="45.28437" lon="2.64985">
        <ele>852.40002441406</ele>
        <time>2024-01-31T08:37:01.000Z</time>
      </trkpt>
      <trkpt lat="45.28418" lon="2.65028">
        <ele>853</ele>
        <time>2024-01-31T08:37:04.000Z</time>
      </trkpt>
      <trkpt lat="45.2839" lon="2.65084">
        <ele>853.40002441406</ele>
        <time>2024-01-31T08:37:08.000Z</time>
      </trkpt>
      <trkpt lat="45.2836" lon="2.65155">
        <ele>854</ele>
        <time>2024-01-31T08:37:13.000Z</time>
      </trkpt>
      <trkpt lat="45.28358" lon="2.6517">
        <ele>854.20001220703</ele>
        <time>2024-01-31T08:37:14.000Z</time>
      </trkpt>
      <trkpt lat="45.28355" lon="2.652">
        <ele>854.20001220703</ele>
        <time>2024-01-31T08:37:16.000Z</time>
      </trkpt>
      <trkpt lat="45.28345" lon="2.65265">
        <ele>854.20001220703</ele>
        <time>2024-01-31T08:37:21.000Z</time>
      </trkpt>
      <trkpt lat="45.28333" lon="2.65317">
        <ele>853.20001220703</ele>
        <time>2024-01-31T08:37:26.000Z</time>
      </trkpt>
      <trkpt lat="45.28321" lon="2.65378">
        <ele>852.79998779297</ele>
        <time>2024-01-31T08:37:31.000Z</time>
      </trkpt>
      <trkpt lat="45.28313" lon="2.65427">
        <ele>852</ele>
        <time>2024-01-31T08:37:35.000Z</time>
      </trkpt>
      <trkpt lat="45.28305" lon="2.65462">
        <ele>851.79998779297</ele>
        <time>2024-01-31T08:37:38.000Z</time>
      </trkpt>
      <trkpt lat="45.28284" lon="2.65532">
        <ele>851.20001220703</ele>
        <time>2024-01-31T08:37:44.000Z</time>
      </trkpt>
      <trkpt lat="45.28275" lon="2.65556">
        <ele>850.79998779297</ele>
        <time>2024-01-31T08:37:46.000Z</time>
      </trkpt>
      <trkpt lat="45.28255" lon="2.65606">
        <ele>849.59997558594</ele>
        <time>2024-01-31T08:37:50.000Z</time>
      </trkpt>
      <trkpt lat="45.28244" lon="2.65629">
        <ele>848.79998779297</ele>
        <time>2024-01-31T08:37:52.000Z</time>
      </trkpt>
      <trkpt lat="45.28239" lon="2.65642">
        <ele>848.59997558594</ele>
        <time>2024-01-31T08:37:53.000Z</time>
      </trkpt>
      <trkpt lat="45.2822" lon="2.65688">
        <ele>847.40002441406</ele>
        <time>2024-01-31T08:37:57.000Z</time>
      </trkpt>
      <trkpt lat="45.282" lon="2.65734">
        <ele>846.40002441406</ele>
        <time>2024-01-31T08:38:01.000Z</time>
      </trkpt>
      <trkpt lat="45.28191" lon="2.65757">
        <ele>845.40002441406</ele>
        <time>2024-01-31T08:38:03.000Z</time>
      </trkpt>
      <trkpt lat="45.28186" lon="2.65768">
        <ele>844.79998779297</ele>
        <time>2024-01-31T08:38:04.000Z</time>
      </trkpt>
      <trkpt lat="45.28162" lon="2.65819">
        <ele>843.79998779297</ele>
        <time>2024-01-31T08:38:09.000Z</time>
      </trkpt>
      <trkpt lat="45.28143" lon="2.65867">
        <ele>842.79998779297</ele>
        <time>2024-01-31T08:38:14.000Z</time>
      </trkpt>
      <trkpt lat="45.28137" lon="2.65884">
        <ele>842.79998779297</ele>
        <time>2024-01-31T08:38:16.000Z</time>
      </trkpt>
      <trkpt lat="45.28135" lon="2.65892">
        <ele>842.59997558594</ele>
        <time>2024-01-31T08:38:17.000Z</time>
      </trkpt>
      <trkpt lat="45.28133" lon="2.65898">
        <ele>842.59997558594</ele>
        <time>2024-01-31T08:38:18.000Z</time>
      </trkpt>
      <trkpt lat="45.28128" lon="2.65908">
        <ele>842.40002441406</ele>
        <time>2024-01-31T08:38:20.000Z</time>
      </trkpt>
      <trkpt lat="45.28123" lon="2.65915">
        <ele>842.59997558594</ele>
        <time>2024-01-31T08:38:22.000Z</time>
      </trkpt>
      <trkpt lat="45.28117" lon="2.65924">
        <ele>842.79998779297</ele>
        <time>2024-01-31T08:38:24.000Z</time>
      </trkpt>
      <trkpt lat="45.28116" lon="2.65936">
        <ele>842.79998779297</ele>
        <time>2024-01-31T08:38:26.000Z</time>
      </trkpt>
      <trkpt lat="45.28116" lon="2.65943">
        <ele>842.79998779297</ele>
        <time>2024-01-31T08:38:27.000Z</time>
      </trkpt>
      <trkpt lat="45.28114" lon="2.65967">
        <ele>842.40002441406</ele>
        <time>2024-01-31T08:38:31.000Z</time>
      </trkpt>
      <trkpt lat="45.28113" lon="2.65972">
        <ele>842.40002441406</ele>
        <time>2024-01-31T08:38:32.000Z</time>
      </trkpt>
      <trkpt lat="45.28112" lon="2.65978">
        <ele>842.40002441406</ele>
        <time>2024-01-31T08:38:33.000Z</time>
      </trkpt>
      <trkpt lat="45.28107" lon="2.65989">
        <ele>842.40002441406</ele>
        <time>2024-01-31T08:38:35.000Z</time>
      </trkpt>
      <trkpt lat="45.28103" lon="2.65994">
        <ele>842.40002441406</ele>
        <time>2024-01-31T08:38:36.000Z</time>
      </trkpt>
      <trkpt lat="45.28089" lon="2.66008">
        <ele>842.40002441406</ele>
        <time>2024-01-31T08:38:39.000Z</time>
      </trkpt>
      <trkpt lat="45.28075" lon="2.6602">
        <ele>842.59997558594</ele>
        <time>2024-01-31T08:38:41.000Z</time>
      </trkpt>
      <trkpt lat="45.28044" lon="2.66055">
        <ele>842.79998779297</ele>
        <time>2024-01-31T08:38:45.000Z</time>
      </trkpt>
      <trkpt lat="45.28005" lon="2.66101">
        <ele>841.79998779297</ele>
        <time>2024-01-31T08:38:50.000Z</time>
      </trkpt>
      <trkpt lat="45.27993" lon="2.66111">
        <ele>840.2</ele>
      </trkpt>
      <trkpt lat="45.27959" lon="2.66106">
        <ele>843.2</ele>
      </trkpt>
      <trkpt lat="45.27931" lon="2.66113">
        <ele>843.3</ele>
      </trkpt>
      <trkpt lat="45.27888" lon="2.66122">
        <ele>845.8</ele>
      </trkpt>
      <trkpt lat="45.27841" lon="2.66136">
        <ele>845.8</ele>
      </trkpt>
      <trkpt lat="45.27781" lon="2.66131">
        <ele>842.1</ele>
      </trkpt>
      <trkpt lat="45.27749" lon="2.66131">
        <ele>843.2</ele>
      </trkpt>
      <trkpt lat="45.27717" lon="2.66133">
        <ele>842.4</ele>
      </trkpt>
      <trkpt lat="45.27713" lon="2.66138">
        <ele>842.1</ele>
      </trkpt>
      <trkpt lat="45.27716" lon="2.66145">
        <ele>841.4</ele>
      </trkpt>
    </trkseg>
  </trk>
</gpx>